<?xml version="1.0" encoding="UTF-8" standalone="no" ?>
<gpx xmlns="http://www.topografix.com/GPX/1/1" xmlns:xsi="http://www.w3.org/2001/XMLSchema-instance" xsi:schemaLocation="http://www.topografix.com/GPX/1/1 http://www.topografix.com/GPX/1/1/gpx.xsd" version="1.1" creator="VisuGPX - https://www.visugpx.com">
  <metadata>
    <name>O-SE-St Pazanne Machecoul St Lumine St Philbert Chevrolière Pont St Martin</name>
    <desc><![CDATA[O-SE-St Pazanne Machecoul St Lumine St Philbert Chevrolière Pont St Martin]]></desc>
  </metadata>
  <trk>
    <name><![CDATA[2020-05-20 17:18]]></name>
    <desc><![CDATA[<p>Heure de départ: 05/20/2020 17:18<br/>Heure d'arrivée: 05/20/2020 20:21<br/>Distance: 77,8 km (03:03)<br/>Temps déplacement: 02:58<br/>Vitesse moyenne: 25,51 km/h<br/>Vitesse moyenne mouv.: 26,13 km/h<br/>Vitesse Max.: 36,58 km/h<br/>Altitude minimale: -7 m<br/>Altitude maximale: 50 m<br/>Vitesse de montée: 792,2 m/h<br/>Vitesse de descente: -779,7 m/h<br/>Gain d'altitude: 1010 m<br/>Perte d'altitude: -1044 m<br/>Temps de montée: 01:16<br/>Temps de descente: 01:20<br/></p><hr align="center" width="480" style="height: 2px; width: 517px"/>]]></desc>
    <trkseg>
      <trkpt lat="47.16785" lon="-1.62677">
        <ele>50.23</ele>
        <time>2020-05-20T15:18:22Z</time>
      </trkpt>
      <trkpt lat="47.16779" lon="-1.62658">
        <ele>30.18</ele>
        <time>2020-05-20T15:18:33Z</time>
      </trkpt>
      <trkpt lat="47.16779" lon="-1.62676">
        <ele>22.18</ele>
        <time>2020-05-20T15:19:31Z</time>
      </trkpt>
      <trkpt lat="47.16771" lon="-1.62684">
        <ele>23.16</ele>
        <time>2020-05-20T15:19:33Z</time>
      </trkpt>
      <trkpt lat="47.16762" lon="-1.62681">
        <ele>24.36</ele>
        <time>2020-05-20T15:19:35Z</time>
      </trkpt>
      <trkpt lat="47.16751" lon="-1.62678">
        <ele>25.5</ele>
        <time>2020-05-20T15:19:37Z</time>
      </trkpt>
      <trkpt lat="47.1674" lon="-1.62684">
        <ele>26.64</ele>
        <time>2020-05-20T15:19:39Z</time>
      </trkpt>
      <trkpt lat="47.1673" lon="-1.62691">
        <ele>27.34</ele>
        <time>2020-05-20T15:19:41Z</time>
      </trkpt>
      <trkpt lat="47.16719" lon="-1.62699">
        <ele>27.21</ele>
        <time>2020-05-20T15:19:43Z</time>
      </trkpt>
      <trkpt lat="47.16715" lon="-1.62713">
        <ele>26.12</ele>
        <time>2020-05-20T15:19:45Z</time>
      </trkpt>
      <trkpt lat="47.16725" lon="-1.62725">
        <ele>26.28</ele>
        <time>2020-05-20T15:19:47Z</time>
      </trkpt>
      <trkpt lat="47.16733" lon="-1.6274">
        <ele>26.48</ele>
        <time>2020-05-20T15:19:49Z</time>
      </trkpt>
      <trkpt lat="47.16743" lon="-1.62755">
        <ele>26.39</ele>
        <time>2020-05-20T15:19:51Z</time>
      </trkpt>
      <trkpt lat="47.16753" lon="-1.62768">
        <ele>26.21</ele>
        <time>2020-05-20T15:19:53Z</time>
      </trkpt>
      <trkpt lat="47.16763" lon="-1.62779">
        <ele>25.66</ele>
        <time>2020-05-20T15:19:55Z</time>
      </trkpt>
      <trkpt lat="47.16775" lon="-1.62789">
        <ele>25.2</ele>
        <time>2020-05-20T15:19:57Z</time>
      </trkpt>
      <trkpt lat="47.16787" lon="-1.62799">
        <ele>25.32</ele>
        <time>2020-05-20T15:19:59Z</time>
      </trkpt>
      <trkpt lat="47.16799" lon="-1.62809">
        <ele>25.5</ele>
        <time>2020-05-20T15:20:01Z</time>
      </trkpt>
      <trkpt lat="47.16809" lon="-1.62817">
        <ele>25.29</ele>
        <time>2020-05-20T15:20:03Z</time>
      </trkpt>
      <trkpt lat="47.16818" lon="-1.62825">
        <ele>24.65</ele>
        <time>2020-05-20T15:20:05Z</time>
      </trkpt>
      <trkpt lat="47.16829" lon="-1.62834">
        <ele>24.2</ele>
        <time>2020-05-20T15:20:07Z</time>
      </trkpt>
      <trkpt lat="47.1684" lon="-1.62845">
        <ele>24.44</ele>
        <time>2020-05-20T15:20:09Z</time>
      </trkpt>
      <trkpt lat="47.16849" lon="-1.62854">
        <ele>24.88</ele>
        <time>2020-05-20T15:20:11Z</time>
      </trkpt>
      <trkpt lat="47.16859" lon="-1.62863">
        <ele>23.88</ele>
        <time>2020-05-20T15:20:13Z</time>
      </trkpt>
      <trkpt lat="47.16869" lon="-1.62871">
        <ele>23.24</ele>
        <time>2020-05-20T15:20:15Z</time>
      </trkpt>
      <trkpt lat="47.16876" lon="-1.62882">
        <ele>23.24</ele>
        <time>2020-05-20T15:20:17Z</time>
      </trkpt>
      <trkpt lat="47.16883" lon="-1.62895">
        <ele>22.94</ele>
        <time>2020-05-20T15:20:19Z</time>
      </trkpt>
      <trkpt lat="47.16889" lon="-1.6291">
        <ele>23.05</ele>
        <time>2020-05-20T15:20:21Z</time>
      </trkpt>
      <trkpt lat="47.16893" lon="-1.62927">
        <ele>22.06</ele>
        <time>2020-05-20T15:20:23Z</time>
      </trkpt>
      <trkpt lat="47.16894" lon="-1.62943">
        <ele>21.08</ele>
        <time>2020-05-20T15:20:25Z</time>
      </trkpt>
      <trkpt lat="47.16895" lon="-1.62959">
        <ele>21.34</ele>
        <time>2020-05-20T15:20:27Z</time>
      </trkpt>
      <trkpt lat="47.16895" lon="-1.62977">
        <ele>21.57</ele>
        <time>2020-05-20T15:20:29Z</time>
      </trkpt>
      <trkpt lat="47.16894" lon="-1.62994">
        <ele>21.75</ele>
        <time>2020-05-20T15:20:31Z</time>
      </trkpt>
      <trkpt lat="47.16892" lon="-1.63011">
        <ele>21.72</ele>
        <time>2020-05-20T15:20:33Z</time>
      </trkpt>
      <trkpt lat="47.16891" lon="-1.63029">
        <ele>22.72</ele>
        <time>2020-05-20T15:20:35Z</time>
      </trkpt>
      <trkpt lat="47.1689" lon="-1.63047">
        <ele>22.61</ele>
        <time>2020-05-20T15:20:37Z</time>
      </trkpt>
      <trkpt lat="47.1689" lon="-1.63065">
        <ele>22.57</ele>
        <time>2020-05-20T15:20:39Z</time>
      </trkpt>
      <trkpt lat="47.16891" lon="-1.63082">
        <ele>23.12</ele>
        <time>2020-05-20T15:20:41Z</time>
      </trkpt>
      <trkpt lat="47.16894" lon="-1.63099">
        <ele>23.48</ele>
        <time>2020-05-20T15:20:43Z</time>
      </trkpt>
      <trkpt lat="47.16897" lon="-1.63116">
        <ele>24.85</ele>
        <time>2020-05-20T15:20:45Z</time>
      </trkpt>
      <trkpt lat="47.16901" lon="-1.63133">
        <ele>25.88</ele>
        <time>2020-05-20T15:20:47Z</time>
      </trkpt>
      <trkpt lat="47.16905" lon="-1.63149">
        <ele>26.41</ele>
        <time>2020-05-20T15:20:49Z</time>
      </trkpt>
      <trkpt lat="47.16911" lon="-1.63163">
        <ele>26.18</ele>
        <time>2020-05-20T15:20:51Z</time>
      </trkpt>
      <trkpt lat="47.16917" lon="-1.63178">
        <ele>25.59</ele>
        <time>2020-05-20T15:20:53Z</time>
      </trkpt>
      <trkpt lat="47.16924" lon="-1.63191">
        <ele>26.49</ele>
        <time>2020-05-20T15:20:55Z</time>
      </trkpt>
      <trkpt lat="47.16932" lon="-1.63205">
        <ele>29.12</ele>
        <time>2020-05-20T15:20:57Z</time>
      </trkpt>
      <trkpt lat="47.16939" lon="-1.63217">
        <ele>30.43</ele>
        <time>2020-05-20T15:20:59Z</time>
      </trkpt>
      <trkpt lat="47.16948" lon="-1.63229">
        <ele>31.39</ele>
        <time>2020-05-20T15:21:01Z</time>
      </trkpt>
      <trkpt lat="47.16955" lon="-1.63239">
        <ele>32.37</ele>
        <time>2020-05-20T15:21:03Z</time>
      </trkpt>
      <trkpt lat="47.16965" lon="-1.63252">
        <ele>33.07</ele>
        <time>2020-05-20T15:21:06Z</time>
      </trkpt>
      <trkpt lat="47.16962" lon="-1.63265">
        <ele>33.18</ele>
        <time>2020-05-20T15:21:09Z</time>
      </trkpt>
      <trkpt lat="47.16954" lon="-1.6328">
        <ele>32.68</ele>
        <time>2020-05-20T15:21:11Z</time>
      </trkpt>
      <trkpt lat="47.16945" lon="-1.63293">
        <ele>32.56</ele>
        <time>2020-05-20T15:21:13Z</time>
      </trkpt>
      <trkpt lat="47.16936" lon="-1.63308">
        <ele>31.75</ele>
        <time>2020-05-20T15:21:15Z</time>
      </trkpt>
      <trkpt lat="47.16928" lon="-1.63319">
        <ele>30.94</ele>
        <time>2020-05-20T15:21:17Z</time>
      </trkpt>
      <trkpt lat="47.16919" lon="-1.63331">
        <ele>31.05</ele>
        <time>2020-05-20T15:21:19Z</time>
      </trkpt>
      <trkpt lat="47.1691" lon="-1.63346">
        <ele>31.17</ele>
        <time>2020-05-20T15:21:21Z</time>
      </trkpt>
      <trkpt lat="47.16901" lon="-1.63359">
        <ele>31.42</ele>
        <time>2020-05-20T15:21:23Z</time>
      </trkpt>
      <trkpt lat="47.16891" lon="-1.63375">
        <ele>31.58</ele>
        <time>2020-05-20T15:21:25Z</time>
      </trkpt>
      <trkpt lat="47.16882" lon="-1.63388">
        <ele>30.88</ele>
        <time>2020-05-20T15:21:27Z</time>
      </trkpt>
      <trkpt lat="47.16874" lon="-1.63403">
        <ele>31.29</ele>
        <time>2020-05-20T15:21:29Z</time>
      </trkpt>
      <trkpt lat="47.16866" lon="-1.63417">
        <ele>31.64</ele>
        <time>2020-05-20T15:21:31Z</time>
      </trkpt>
      <trkpt lat="47.16857" lon="-1.63432">
        <ele>31.76</ele>
        <time>2020-05-20T15:21:33Z</time>
      </trkpt>
      <trkpt lat="47.16849" lon="-1.63449">
        <ele>31.61</ele>
        <time>2020-05-20T15:21:35Z</time>
      </trkpt>
      <trkpt lat="47.1684" lon="-1.63465">
        <ele>32.01</ele>
        <time>2020-05-20T15:21:37Z</time>
      </trkpt>
      <trkpt lat="47.16831" lon="-1.63481">
        <ele>32.5</ele>
        <time>2020-05-20T15:21:39Z</time>
      </trkpt>
      <trkpt lat="47.16822" lon="-1.63495">
        <ele>32.7</ele>
        <time>2020-05-20T15:21:41Z</time>
      </trkpt>
      <trkpt lat="47.16812" lon="-1.6351">
        <ele>33.51</ele>
        <time>2020-05-20T15:21:43Z</time>
      </trkpt>
      <trkpt lat="47.16803" lon="-1.63525">
        <ele>33.73</ele>
        <time>2020-05-20T15:21:45Z</time>
      </trkpt>
      <trkpt lat="47.16794" lon="-1.63539">
        <ele>34.26</ele>
        <time>2020-05-20T15:21:47Z</time>
      </trkpt>
      <trkpt lat="47.16785" lon="-1.63554">
        <ele>34.46</ele>
        <time>2020-05-20T15:21:49Z</time>
      </trkpt>
      <trkpt lat="47.16775" lon="-1.63571">
        <ele>33.11</ele>
        <time>2020-05-20T15:21:51Z</time>
      </trkpt>
      <trkpt lat="47.16766" lon="-1.63585">
        <ele>31.67</ele>
        <time>2020-05-20T15:21:53Z</time>
      </trkpt>
      <trkpt lat="47.16758" lon="-1.636">
        <ele>31.98</ele>
        <time>2020-05-20T15:21:55Z</time>
      </trkpt>
      <trkpt lat="47.16748" lon="-1.63615">
        <ele>31.87</ele>
        <time>2020-05-20T15:21:57Z</time>
      </trkpt>
      <trkpt lat="47.16744" lon="-1.63629">
        <ele>31.66</ele>
        <time>2020-05-20T15:21:59Z</time>
      </trkpt>
      <trkpt lat="47.16747" lon="-1.63645">
        <ele>31.47</ele>
        <time>2020-05-20T15:22:01Z</time>
      </trkpt>
      <trkpt lat="47.16761" lon="-1.6365">
        <ele>30.79</ele>
        <time>2020-05-20T15:22:03Z</time>
      </trkpt>
      <trkpt lat="47.16775" lon="-1.63655">
        <ele>30.97</ele>
        <time>2020-05-20T15:22:05Z</time>
      </trkpt>
      <trkpt lat="47.16789" lon="-1.63659">
        <ele>30.71</ele>
        <time>2020-05-20T15:22:07Z</time>
      </trkpt>
      <trkpt lat="47.16803" lon="-1.63664">
        <ele>29.92</ele>
        <time>2020-05-20T15:22:09Z</time>
      </trkpt>
      <trkpt lat="47.16816" lon="-1.63669">
        <ele>28.74</ele>
        <time>2020-05-20T15:22:11Z</time>
      </trkpt>
      <trkpt lat="47.16829" lon="-1.63673">
        <ele>27.42</ele>
        <time>2020-05-20T15:22:13Z</time>
      </trkpt>
      <trkpt lat="47.16842" lon="-1.63678">
        <ele>26.31</ele>
        <time>2020-05-20T15:22:15Z</time>
      </trkpt>
      <trkpt lat="47.16855" lon="-1.63682">
        <ele>25.79</ele>
        <time>2020-05-20T15:22:17Z</time>
      </trkpt>
      <trkpt lat="47.1687" lon="-1.63688">
        <ele>25.51</ele>
        <time>2020-05-20T15:22:19Z</time>
      </trkpt>
      <trkpt lat="47.16883" lon="-1.63694">
        <ele>25.01</ele>
        <time>2020-05-20T15:22:21Z</time>
      </trkpt>
      <trkpt lat="47.16895" lon="-1.63698">
        <ele>24.51</ele>
        <time>2020-05-20T15:22:23Z</time>
      </trkpt>
      <trkpt lat="47.16909" lon="-1.63702">
        <ele>24.59</ele>
        <time>2020-05-20T15:22:25Z</time>
      </trkpt>
      <trkpt lat="47.16922" lon="-1.63706">
        <ele>25.4</ele>
        <time>2020-05-20T15:22:27Z</time>
      </trkpt>
      <trkpt lat="47.16937" lon="-1.63712">
        <ele>25.66</ele>
        <time>2020-05-20T15:22:29Z</time>
      </trkpt>
      <trkpt lat="47.16952" lon="-1.63717">
        <ele>26.62</ele>
        <time>2020-05-20T15:22:31Z</time>
      </trkpt>
      <trkpt lat="47.16967" lon="-1.63724">
        <ele>28.14</ele>
        <time>2020-05-20T15:22:33Z</time>
      </trkpt>
      <trkpt lat="47.1698" lon="-1.63729">
        <ele>28.36</ele>
        <time>2020-05-20T15:22:35Z</time>
      </trkpt>
      <trkpt lat="47.16992" lon="-1.63733">
        <ele>29.03</ele>
        <time>2020-05-20T15:22:37Z</time>
      </trkpt>
      <trkpt lat="47.17006" lon="-1.63738">
        <ele>30.06</ele>
        <time>2020-05-20T15:22:39Z</time>
      </trkpt>
      <trkpt lat="47.17019" lon="-1.63742">
        <ele>30.81</ele>
        <time>2020-05-20T15:22:41Z</time>
      </trkpt>
      <trkpt lat="47.17033" lon="-1.63747">
        <ele>30.75</ele>
        <time>2020-05-20T15:22:43Z</time>
      </trkpt>
      <trkpt lat="47.17048" lon="-1.63754">
        <ele>30.59</ele>
        <time>2020-05-20T15:22:45Z</time>
      </trkpt>
      <trkpt lat="47.17059" lon="-1.63767">
        <ele>30.27</ele>
        <time>2020-05-20T15:22:47Z</time>
      </trkpt>
      <trkpt lat="47.17068" lon="-1.63785">
        <ele>30.58</ele>
        <time>2020-05-20T15:22:49Z</time>
      </trkpt>
      <trkpt lat="47.17076" lon="-1.63806">
        <ele>30.37</ele>
        <time>2020-05-20T15:22:51Z</time>
      </trkpt>
      <trkpt lat="47.17082" lon="-1.63823">
        <ele>30.67</ele>
        <time>2020-05-20T15:22:53Z</time>
      </trkpt>
      <trkpt lat="47.17087" lon="-1.63843">
        <ele>31.15</ele>
        <time>2020-05-20T15:22:55Z</time>
      </trkpt>
      <trkpt lat="47.17093" lon="-1.63864">
        <ele>31.19</ele>
        <time>2020-05-20T15:22:57Z</time>
      </trkpt>
      <trkpt lat="47.17099" lon="-1.63881">
        <ele>30.65</ele>
        <time>2020-05-20T15:22:59Z</time>
      </trkpt>
      <trkpt lat="47.17104" lon="-1.63897">
        <ele>30.46</ele>
        <time>2020-05-20T15:23:01Z</time>
      </trkpt>
      <trkpt lat="47.1711" lon="-1.63914">
        <ele>30.7</ele>
        <time>2020-05-20T15:23:03Z</time>
      </trkpt>
      <trkpt lat="47.17117" lon="-1.63933">
        <ele>30.98</ele>
        <time>2020-05-20T15:23:05Z</time>
      </trkpt>
      <trkpt lat="47.17127" lon="-1.63942">
        <ele>31.24</ele>
        <time>2020-05-20T15:23:07Z</time>
      </trkpt>
      <trkpt lat="47.17136" lon="-1.63954">
        <ele>31.02</ele>
        <time>2020-05-20T15:23:10Z</time>
      </trkpt>
      <trkpt lat="47.17139" lon="-1.63972">
        <ele>31.22</ele>
        <time>2020-05-20T15:23:12Z</time>
      </trkpt>
      <trkpt lat="47.1714" lon="-1.6399">
        <ele>31.25</ele>
        <time>2020-05-20T15:23:14Z</time>
      </trkpt>
      <trkpt lat="47.17137" lon="-1.64008">
        <ele>31</ele>
        <time>2020-05-20T15:23:16Z</time>
      </trkpt>
      <trkpt lat="47.17134" lon="-1.64029">
        <ele>30.65</ele>
        <time>2020-05-20T15:23:18Z</time>
      </trkpt>
      <trkpt lat="47.17131" lon="-1.64049">
        <ele>30.53</ele>
        <time>2020-05-20T15:23:20Z</time>
      </trkpt>
      <trkpt lat="47.17128" lon="-1.6407">
        <ele>31.15</ele>
        <time>2020-05-20T15:23:22Z</time>
      </trkpt>
      <trkpt lat="47.17126" lon="-1.6409">
        <ele>31.42</ele>
        <time>2020-05-20T15:23:24Z</time>
      </trkpt>
      <trkpt lat="47.17124" lon="-1.64111">
        <ele>31.46</ele>
        <time>2020-05-20T15:23:26Z</time>
      </trkpt>
      <trkpt lat="47.17121" lon="-1.64132">
        <ele>31.17</ele>
        <time>2020-05-20T15:23:28Z</time>
      </trkpt>
      <trkpt lat="47.17119" lon="-1.64153">
        <ele>30.43</ele>
        <time>2020-05-20T15:23:30Z</time>
      </trkpt>
      <trkpt lat="47.17117" lon="-1.64172">
        <ele>29.6</ele>
        <time>2020-05-20T15:23:32Z</time>
      </trkpt>
      <trkpt lat="47.17115" lon="-1.64195">
        <ele>28.99</ele>
        <time>2020-05-20T15:23:34Z</time>
      </trkpt>
      <trkpt lat="47.17113" lon="-1.64215">
        <ele>29.47</ele>
        <time>2020-05-20T15:23:36Z</time>
      </trkpt>
      <trkpt lat="47.17111" lon="-1.64235">
        <ele>29.3</ele>
        <time>2020-05-20T15:23:38Z</time>
      </trkpt>
      <trkpt lat="47.17108" lon="-1.64257">
        <ele>28.79</ele>
        <time>2020-05-20T15:23:40Z</time>
      </trkpt>
      <trkpt lat="47.17106" lon="-1.64278">
        <ele>29</ele>
        <time>2020-05-20T15:23:42Z</time>
      </trkpt>
      <trkpt lat="47.17104" lon="-1.64298">
        <ele>29.16</ele>
        <time>2020-05-20T15:23:44Z</time>
      </trkpt>
      <trkpt lat="47.17101" lon="-1.64318">
        <ele>30.03</ele>
        <time>2020-05-20T15:23:46Z</time>
      </trkpt>
      <trkpt lat="47.17099" lon="-1.64339">
        <ele>30.74</ele>
        <time>2020-05-20T15:23:48Z</time>
      </trkpt>
      <trkpt lat="47.17097" lon="-1.64361">
        <ele>32.18</ele>
        <time>2020-05-20T15:23:50Z</time>
      </trkpt>
      <trkpt lat="47.17095" lon="-1.64379">
        <ele>33.15</ele>
        <time>2020-05-20T15:23:52Z</time>
      </trkpt>
      <trkpt lat="47.17094" lon="-1.644">
        <ele>32.99</ele>
        <time>2020-05-20T15:23:54Z</time>
      </trkpt>
      <trkpt lat="47.17092" lon="-1.64422">
        <ele>33.4</ele>
        <time>2020-05-20T15:23:56Z</time>
      </trkpt>
      <trkpt lat="47.17091" lon="-1.64442">
        <ele>33.43</ele>
        <time>2020-05-20T15:23:58Z</time>
      </trkpt>
      <trkpt lat="47.1709" lon="-1.64464">
        <ele>33.55</ele>
        <time>2020-05-20T15:24:00Z</time>
      </trkpt>
      <trkpt lat="47.17089" lon="-1.64485">
        <ele>33.71</ele>
        <time>2020-05-20T15:24:02Z</time>
      </trkpt>
      <trkpt lat="47.17088" lon="-1.6451">
        <ele>33.06</ele>
        <time>2020-05-20T15:24:04Z</time>
      </trkpt>
      <trkpt lat="47.17087" lon="-1.64529">
        <ele>32.78</ele>
        <time>2020-05-20T15:24:06Z</time>
      </trkpt>
      <trkpt lat="47.17087" lon="-1.64552">
        <ele>31.72</ele>
        <time>2020-05-20T15:24:08Z</time>
      </trkpt>
      <trkpt lat="47.17087" lon="-1.64572">
        <ele>30.09</ele>
        <time>2020-05-20T15:24:10Z</time>
      </trkpt>
      <trkpt lat="47.17086" lon="-1.64591">
        <ele>28.73</ele>
        <time>2020-05-20T15:24:12Z</time>
      </trkpt>
      <trkpt lat="47.17086" lon="-1.64611">
        <ele>28.31</ele>
        <time>2020-05-20T15:24:14Z</time>
      </trkpt>
      <trkpt lat="47.17086" lon="-1.64632">
        <ele>28.08</ele>
        <time>2020-05-20T15:24:16Z</time>
      </trkpt>
      <trkpt lat="47.17086" lon="-1.64652">
        <ele>28.32</ele>
        <time>2020-05-20T15:24:18Z</time>
      </trkpt>
      <trkpt lat="47.17087" lon="-1.64674">
        <ele>28.84</ele>
        <time>2020-05-20T15:24:20Z</time>
      </trkpt>
      <trkpt lat="47.17087" lon="-1.64696">
        <ele>29.82</ele>
        <time>2020-05-20T15:24:22Z</time>
      </trkpt>
      <trkpt lat="47.17088" lon="-1.64716">
        <ele>31.21</ele>
        <time>2020-05-20T15:24:24Z</time>
      </trkpt>
      <trkpt lat="47.17088" lon="-1.64738">
        <ele>31.15</ele>
        <time>2020-05-20T15:24:26Z</time>
      </trkpt>
      <trkpt lat="47.17089" lon="-1.64756">
        <ele>30.92</ele>
        <time>2020-05-20T15:24:28Z</time>
      </trkpt>
      <trkpt lat="47.1709" lon="-1.64778">
        <ele>30.52</ele>
        <time>2020-05-20T15:24:30Z</time>
      </trkpt>
      <trkpt lat="47.17091" lon="-1.648">
        <ele>30.96</ele>
        <time>2020-05-20T15:24:32Z</time>
      </trkpt>
      <trkpt lat="47.17093" lon="-1.64824">
        <ele>31.99</ele>
        <time>2020-05-20T15:24:34Z</time>
      </trkpt>
      <trkpt lat="47.17094" lon="-1.64848">
        <ele>31.52</ele>
        <time>2020-05-20T15:24:36Z</time>
      </trkpt>
      <trkpt lat="47.17096" lon="-1.64872">
        <ele>30.8</ele>
        <time>2020-05-20T15:24:38Z</time>
      </trkpt>
      <trkpt lat="47.17097" lon="-1.6489">
        <ele>29.47</ele>
        <time>2020-05-20T15:24:40Z</time>
      </trkpt>
      <trkpt lat="47.17099" lon="-1.64912">
        <ele>28.5</ele>
        <time>2020-05-20T15:24:42Z</time>
      </trkpt>
      <trkpt lat="47.171" lon="-1.64933">
        <ele>27.38</ele>
        <time>2020-05-20T15:24:44Z</time>
      </trkpt>
      <trkpt lat="47.17101" lon="-1.64954">
        <ele>26.39</ele>
        <time>2020-05-20T15:24:46Z</time>
      </trkpt>
      <trkpt lat="47.17102" lon="-1.64973">
        <ele>26.26</ele>
        <time>2020-05-20T15:24:48Z</time>
      </trkpt>
      <trkpt lat="47.17104" lon="-1.64994">
        <ele>26.53</ele>
        <time>2020-05-20T15:24:50Z</time>
      </trkpt>
      <trkpt lat="47.17106" lon="-1.65013">
        <ele>27.34</ele>
        <time>2020-05-20T15:24:52Z</time>
      </trkpt>
      <trkpt lat="47.17107" lon="-1.65034">
        <ele>27.74</ele>
        <time>2020-05-20T15:24:54Z</time>
      </trkpt>
      <trkpt lat="47.17109" lon="-1.65055">
        <ele>28.05</ele>
        <time>2020-05-20T15:24:56Z</time>
      </trkpt>
      <trkpt lat="47.1711" lon="-1.65074">
        <ele>29.89</ele>
        <time>2020-05-20T15:24:58Z</time>
      </trkpt>
      <trkpt lat="47.17111" lon="-1.65094">
        <ele>30.51</ele>
        <time>2020-05-20T15:25:00Z</time>
      </trkpt>
      <trkpt lat="47.17113" lon="-1.65117">
        <ele>29.83</ele>
        <time>2020-05-20T15:25:02Z</time>
      </trkpt>
      <trkpt lat="47.17115" lon="-1.65138">
        <ele>29.03</ele>
        <time>2020-05-20T15:25:04Z</time>
      </trkpt>
      <trkpt lat="47.17116" lon="-1.65158">
        <ele>28.33</ele>
        <time>2020-05-20T15:25:06Z</time>
      </trkpt>
      <trkpt lat="47.17118" lon="-1.65177">
        <ele>27.3</ele>
        <time>2020-05-20T15:25:08Z</time>
      </trkpt>
      <trkpt lat="47.17119" lon="-1.65197">
        <ele>26.58</ele>
        <time>2020-05-20T15:25:10Z</time>
      </trkpt>
      <trkpt lat="47.17121" lon="-1.65216">
        <ele>26.41</ele>
        <time>2020-05-20T15:25:12Z</time>
      </trkpt>
      <trkpt lat="47.17123" lon="-1.65233">
        <ele>26.78</ele>
        <time>2020-05-20T15:25:14Z</time>
      </trkpt>
      <trkpt lat="47.17124" lon="-1.65253">
        <ele>27.13</ele>
        <time>2020-05-20T15:25:16Z</time>
      </trkpt>
      <trkpt lat="47.17126" lon="-1.65274">
        <ele>27.14</ele>
        <time>2020-05-20T15:25:18Z</time>
      </trkpt>
      <trkpt lat="47.17131" lon="-1.6529">
        <ele>27.02</ele>
        <time>2020-05-20T15:25:20Z</time>
      </trkpt>
      <trkpt lat="47.17136" lon="-1.65305">
        <ele>27.33</ele>
        <time>2020-05-20T15:25:22Z</time>
      </trkpt>
      <trkpt lat="47.17133" lon="-1.65321">
        <ele>28.43</ele>
        <time>2020-05-20T15:25:24Z</time>
      </trkpt>
      <trkpt lat="47.17125" lon="-1.65338">
        <ele>29.52</ele>
        <time>2020-05-20T15:25:26Z</time>
      </trkpt>
      <trkpt lat="47.17117" lon="-1.65354">
        <ele>30.56</ele>
        <time>2020-05-20T15:25:28Z</time>
      </trkpt>
      <trkpt lat="47.17117" lon="-1.65374">
        <ele>31.11</ele>
        <time>2020-05-20T15:25:30Z</time>
      </trkpt>
      <trkpt lat="47.17117" lon="-1.65393">
        <ele>31.53</ele>
        <time>2020-05-20T15:25:32Z</time>
      </trkpt>
      <trkpt lat="47.17117" lon="-1.65411">
        <ele>30.71</ele>
        <time>2020-05-20T15:25:34Z</time>
      </trkpt>
      <trkpt lat="47.17117" lon="-1.65429">
        <ele>30.22</ele>
        <time>2020-05-20T15:25:36Z</time>
      </trkpt>
      <trkpt lat="47.17118" lon="-1.65444">
        <ele>30.96</ele>
        <time>2020-05-20T15:25:38Z</time>
      </trkpt>
      <trkpt lat="47.17118" lon="-1.65462">
        <ele>32.38</ele>
        <time>2020-05-20T15:25:40Z</time>
      </trkpt>
      <trkpt lat="47.17117" lon="-1.65478">
        <ele>33.78</ele>
        <time>2020-05-20T15:25:42Z</time>
      </trkpt>
      <trkpt lat="47.17114" lon="-1.65496">
        <ele>35.63</ele>
        <time>2020-05-20T15:25:44Z</time>
      </trkpt>
      <trkpt lat="47.1711" lon="-1.65511">
        <ele>36.85</ele>
        <time>2020-05-20T15:25:46Z</time>
      </trkpt>
      <trkpt lat="47.17105" lon="-1.65526">
        <ele>37.69</ele>
        <time>2020-05-20T15:25:48Z</time>
      </trkpt>
      <trkpt lat="47.17099" lon="-1.65543">
        <ele>37.85</ele>
        <time>2020-05-20T15:25:50Z</time>
      </trkpt>
      <trkpt lat="47.17093" lon="-1.65555">
        <ele>36.56</ele>
        <time>2020-05-20T15:25:52Z</time>
      </trkpt>
      <trkpt lat="47.17085" lon="-1.65569">
        <ele>35.57</ele>
        <time>2020-05-20T15:25:54Z</time>
      </trkpt>
      <trkpt lat="47.17077" lon="-1.65583">
        <ele>35.5</ele>
        <time>2020-05-20T15:25:56Z</time>
      </trkpt>
      <trkpt lat="47.17068" lon="-1.65597">
        <ele>36.11</ele>
        <time>2020-05-20T15:25:58Z</time>
      </trkpt>
      <trkpt lat="47.1706" lon="-1.65609">
        <ele>36.48</ele>
        <time>2020-05-20T15:26:00Z</time>
      </trkpt>
      <trkpt lat="47.17052" lon="-1.65622">
        <ele>37.51</ele>
        <time>2020-05-20T15:26:02Z</time>
      </trkpt>
      <trkpt lat="47.17042" lon="-1.65638">
        <ele>38.37</ele>
        <time>2020-05-20T15:26:04Z</time>
      </trkpt>
      <trkpt lat="47.17033" lon="-1.65655">
        <ele>39.12</ele>
        <time>2020-05-20T15:26:06Z</time>
      </trkpt>
      <trkpt lat="47.17025" lon="-1.65672">
        <ele>39.64</ele>
        <time>2020-05-20T15:26:08Z</time>
      </trkpt>
      <trkpt lat="47.17017" lon="-1.65693">
        <ele>39.44</ele>
        <time>2020-05-20T15:26:10Z</time>
      </trkpt>
      <trkpt lat="47.17009" lon="-1.65711">
        <ele>38.79</ele>
        <time>2020-05-20T15:26:12Z</time>
      </trkpt>
      <trkpt lat="47.17002" lon="-1.65732">
        <ele>37.22</ele>
        <time>2020-05-20T15:26:14Z</time>
      </trkpt>
      <trkpt lat="47.16997" lon="-1.65753">
        <ele>35.05</ele>
        <time>2020-05-20T15:26:16Z</time>
      </trkpt>
      <trkpt lat="47.16989" lon="-1.65766">
        <ele>34.38</ele>
        <time>2020-05-20T15:26:18Z</time>
      </trkpt>
      <trkpt lat="47.16977" lon="-1.65775">
        <ele>34.57</ele>
        <time>2020-05-20T15:26:20Z</time>
      </trkpt>
      <trkpt lat="47.16965" lon="-1.65784">
        <ele>34.54</ele>
        <time>2020-05-20T15:26:22Z</time>
      </trkpt>
      <trkpt lat="47.16954" lon="-1.65797">
        <ele>34.88</ele>
        <time>2020-05-20T15:26:24Z</time>
      </trkpt>
      <trkpt lat="47.16944" lon="-1.65815">
        <ele>36.08</ele>
        <time>2020-05-20T15:26:26Z</time>
      </trkpt>
      <trkpt lat="47.16935" lon="-1.65834">
        <ele>36.08</ele>
        <time>2020-05-20T15:26:28Z</time>
      </trkpt>
      <trkpt lat="47.16926" lon="-1.65852">
        <ele>34.95</ele>
        <time>2020-05-20T15:26:30Z</time>
      </trkpt>
      <trkpt lat="47.16917" lon="-1.65871">
        <ele>34.99</ele>
        <time>2020-05-20T15:26:32Z</time>
      </trkpt>
      <trkpt lat="47.16909" lon="-1.65888">
        <ele>35.14</ele>
        <time>2020-05-20T15:26:34Z</time>
      </trkpt>
      <trkpt lat="47.169" lon="-1.65906">
        <ele>35.58</ele>
        <time>2020-05-20T15:26:36Z</time>
      </trkpt>
      <trkpt lat="47.16892" lon="-1.65924">
        <ele>35.14</ele>
        <time>2020-05-20T15:26:38Z</time>
      </trkpt>
      <trkpt lat="47.16884" lon="-1.65941">
        <ele>34.55</ele>
        <time>2020-05-20T15:26:40Z</time>
      </trkpt>
      <trkpt lat="47.16877" lon="-1.65959">
        <ele>33.93</ele>
        <time>2020-05-20T15:26:42Z</time>
      </trkpt>
      <trkpt lat="47.16869" lon="-1.65978">
        <ele>33.54</ele>
        <time>2020-05-20T15:26:44Z</time>
      </trkpt>
      <trkpt lat="47.16862" lon="-1.65999">
        <ele>33.96</ele>
        <time>2020-05-20T15:26:46Z</time>
      </trkpt>
      <trkpt lat="47.16856" lon="-1.66019">
        <ele>33.76</ele>
        <time>2020-05-20T15:26:48Z</time>
      </trkpt>
      <trkpt lat="47.16851" lon="-1.66041">
        <ele>32.66</ele>
        <time>2020-05-20T15:26:50Z</time>
      </trkpt>
      <trkpt lat="47.16847" lon="-1.66062">
        <ele>32.34</ele>
        <time>2020-05-20T15:26:52Z</time>
      </trkpt>
      <trkpt lat="47.16845" lon="-1.66081">
        <ele>30.72</ele>
        <time>2020-05-20T15:26:54Z</time>
      </trkpt>
      <trkpt lat="47.16842" lon="-1.66103">
        <ele>28.89</ele>
        <time>2020-05-20T15:26:55Z</time>
      </trkpt>
      <trkpt lat="47.1684" lon="-1.66125">
        <ele>28.7</ele>
        <time>2020-05-20T15:26:57Z</time>
      </trkpt>
      <trkpt lat="47.1684" lon="-1.66146">
        <ele>28.1</ele>
        <time>2020-05-20T15:26:59Z</time>
      </trkpt>
      <trkpt lat="47.1684" lon="-1.66164">
        <ele>27.13</ele>
        <time>2020-05-20T15:27:01Z</time>
      </trkpt>
      <trkpt lat="47.16842" lon="-1.66186">
        <ele>27</ele>
        <time>2020-05-20T15:27:03Z</time>
      </trkpt>
      <trkpt lat="47.16844" lon="-1.66208">
        <ele>26.64</ele>
        <time>2020-05-20T15:27:05Z</time>
      </trkpt>
      <trkpt lat="47.16846" lon="-1.66227">
        <ele>27.38</ele>
        <time>2020-05-20T15:27:07Z</time>
      </trkpt>
      <trkpt lat="47.16848" lon="-1.66245">
        <ele>28.33</ele>
        <time>2020-05-20T15:27:09Z</time>
      </trkpt>
      <trkpt lat="47.1685" lon="-1.66264">
        <ele>28.49</ele>
        <time>2020-05-20T15:27:11Z</time>
      </trkpt>
      <trkpt lat="47.16852" lon="-1.66287">
        <ele>28.94</ele>
        <time>2020-05-20T15:27:13Z</time>
      </trkpt>
      <trkpt lat="47.16853" lon="-1.66306">
        <ele>30.02</ele>
        <time>2020-05-20T15:27:15Z</time>
      </trkpt>
      <trkpt lat="47.16855" lon="-1.66326">
        <ele>31.12</ele>
        <time>2020-05-20T15:27:17Z</time>
      </trkpt>
      <trkpt lat="47.16857" lon="-1.66348">
        <ele>31.71</ele>
        <time>2020-05-20T15:27:19Z</time>
      </trkpt>
      <trkpt lat="47.16858" lon="-1.66368">
        <ele>31.43</ele>
        <time>2020-05-20T15:27:21Z</time>
      </trkpt>
      <trkpt lat="47.1686" lon="-1.66387">
        <ele>31.67</ele>
        <time>2020-05-20T15:27:23Z</time>
      </trkpt>
      <trkpt lat="47.16864" lon="-1.66405">
        <ele>32.25</ele>
        <time>2020-05-20T15:27:25Z</time>
      </trkpt>
      <trkpt lat="47.16866" lon="-1.66425">
        <ele>32.61</ele>
        <time>2020-05-20T15:27:27Z</time>
      </trkpt>
      <trkpt lat="47.16868" lon="-1.66446">
        <ele>31.96</ele>
        <time>2020-05-20T15:27:29Z</time>
      </trkpt>
      <trkpt lat="47.16869" lon="-1.66467">
        <ele>31.48</ele>
        <time>2020-05-20T15:27:31Z</time>
      </trkpt>
      <trkpt lat="47.16871" lon="-1.66486">
        <ele>30.13</ele>
        <time>2020-05-20T15:27:33Z</time>
      </trkpt>
      <trkpt lat="47.16873" lon="-1.66505">
        <ele>28.84</ele>
        <time>2020-05-20T15:27:35Z</time>
      </trkpt>
      <trkpt lat="47.16876" lon="-1.66523">
        <ele>28.65</ele>
        <time>2020-05-20T15:27:37Z</time>
      </trkpt>
      <trkpt lat="47.16878" lon="-1.66546">
        <ele>28.48</ele>
        <time>2020-05-20T15:27:39Z</time>
      </trkpt>
      <trkpt lat="47.1688" lon="-1.66568">
        <ele>28.11</ele>
        <time>2020-05-20T15:27:41Z</time>
      </trkpt>
      <trkpt lat="47.16882" lon="-1.66588">
        <ele>27.28</ele>
        <time>2020-05-20T15:27:43Z</time>
      </trkpt>
      <trkpt lat="47.16885" lon="-1.66608">
        <ele>26.55</ele>
        <time>2020-05-20T15:27:45Z</time>
      </trkpt>
      <trkpt lat="47.16887" lon="-1.66629">
        <ele>25.78</ele>
        <time>2020-05-20T15:27:47Z</time>
      </trkpt>
      <trkpt lat="47.16889" lon="-1.6665">
        <ele>25.95</ele>
        <time>2020-05-20T15:27:49Z</time>
      </trkpt>
      <trkpt lat="47.1689" lon="-1.66669">
        <ele>26.18</ele>
        <time>2020-05-20T15:27:51Z</time>
      </trkpt>
      <trkpt lat="47.16889" lon="-1.66689">
        <ele>26.33</ele>
        <time>2020-05-20T15:27:53Z</time>
      </trkpt>
      <trkpt lat="47.16886" lon="-1.66708">
        <ele>26.65</ele>
        <time>2020-05-20T15:27:55Z</time>
      </trkpt>
      <trkpt lat="47.16879" lon="-1.66727">
        <ele>27.96</ele>
        <time>2020-05-20T15:27:57Z</time>
      </trkpt>
      <trkpt lat="47.16872" lon="-1.66745">
        <ele>29.82</ele>
        <time>2020-05-20T15:27:59Z</time>
      </trkpt>
      <trkpt lat="47.16863" lon="-1.66763">
        <ele>31.08</ele>
        <time>2020-05-20T15:28:01Z</time>
      </trkpt>
      <trkpt lat="47.16854" lon="-1.6678">
        <ele>32.23</ele>
        <time>2020-05-20T15:28:03Z</time>
      </trkpt>
      <trkpt lat="47.16845" lon="-1.66796">
        <ele>33.43</ele>
        <time>2020-05-20T15:28:05Z</time>
      </trkpt>
      <trkpt lat="47.16837" lon="-1.66813">
        <ele>34.38</ele>
        <time>2020-05-20T15:28:07Z</time>
      </trkpt>
      <trkpt lat="47.16828" lon="-1.6683">
        <ele>33.74</ele>
        <time>2020-05-20T15:28:09Z</time>
      </trkpt>
      <trkpt lat="47.16819" lon="-1.66847">
        <ele>34</ele>
        <time>2020-05-20T15:28:11Z</time>
      </trkpt>
      <trkpt lat="47.1681" lon="-1.66863">
        <ele>34.62</ele>
        <time>2020-05-20T15:28:13Z</time>
      </trkpt>
      <trkpt lat="47.168" lon="-1.66879">
        <ele>34.95</ele>
        <time>2020-05-20T15:28:15Z</time>
      </trkpt>
      <trkpt lat="47.16791" lon="-1.66892">
        <ele>34.02</ele>
        <time>2020-05-20T15:28:17Z</time>
      </trkpt>
      <trkpt lat="47.16779" lon="-1.66902">
        <ele>33.08</ele>
        <time>2020-05-20T15:28:19Z</time>
      </trkpt>
      <trkpt lat="47.16767" lon="-1.66909">
        <ele>32.01</ele>
        <time>2020-05-20T15:28:21Z</time>
      </trkpt>
      <trkpt lat="47.16753" lon="-1.66916">
        <ele>31.05</ele>
        <time>2020-05-20T15:28:23Z</time>
      </trkpt>
      <trkpt lat="47.16739" lon="-1.66922">
        <ele>31.78</ele>
        <time>2020-05-20T15:28:25Z</time>
      </trkpt>
      <trkpt lat="47.16724" lon="-1.66927">
        <ele>30.48</ele>
        <time>2020-05-20T15:28:27Z</time>
      </trkpt>
      <trkpt lat="47.1671" lon="-1.66931">
        <ele>29.64</ele>
        <time>2020-05-20T15:28:29Z</time>
      </trkpt>
      <trkpt lat="47.16697" lon="-1.66936">
        <ele>30.4</ele>
        <time>2020-05-20T15:28:31Z</time>
      </trkpt>
      <trkpt lat="47.16684" lon="-1.66946">
        <ele>30.88</ele>
        <time>2020-05-20T15:28:33Z</time>
      </trkpt>
      <trkpt lat="47.16672" lon="-1.6696">
        <ele>30.72</ele>
        <time>2020-05-20T15:28:35Z</time>
      </trkpt>
      <trkpt lat="47.16663" lon="-1.66979">
        <ele>30.55</ele>
        <time>2020-05-20T15:28:37Z</time>
      </trkpt>
      <trkpt lat="47.16656" lon="-1.67">
        <ele>30.34</ele>
        <time>2020-05-20T15:28:39Z</time>
      </trkpt>
      <trkpt lat="47.16651" lon="-1.67023">
        <ele>29.08</ele>
        <time>2020-05-20T15:28:41Z</time>
      </trkpt>
      <trkpt lat="47.16647" lon="-1.67045">
        <ele>28.6</ele>
        <time>2020-05-20T15:28:43Z</time>
      </trkpt>
      <trkpt lat="47.16644" lon="-1.67066">
        <ele>28.7</ele>
        <time>2020-05-20T15:28:45Z</time>
      </trkpt>
      <trkpt lat="47.1664" lon="-1.67087">
        <ele>28.45</ele>
        <time>2020-05-20T15:28:47Z</time>
      </trkpt>
      <trkpt lat="47.16636" lon="-1.67106">
        <ele>27.75</ele>
        <time>2020-05-20T15:28:49Z</time>
      </trkpt>
      <trkpt lat="47.16633" lon="-1.67126">
        <ele>27.51</ele>
        <time>2020-05-20T15:28:51Z</time>
      </trkpt>
      <trkpt lat="47.16629" lon="-1.67143">
        <ele>28.42</ele>
        <time>2020-05-20T15:28:53Z</time>
      </trkpt>
      <trkpt lat="47.16626" lon="-1.67162">
        <ele>30.01</ele>
        <time>2020-05-20T15:28:55Z</time>
      </trkpt>
      <trkpt lat="47.16622" lon="-1.67182">
        <ele>31.02</ele>
        <time>2020-05-20T15:28:57Z</time>
      </trkpt>
      <trkpt lat="47.16619" lon="-1.67202">
        <ele>30.47</ele>
        <time>2020-05-20T15:28:59Z</time>
      </trkpt>
      <trkpt lat="47.16615" lon="-1.67221">
        <ele>28.88</ele>
        <time>2020-05-20T15:29:01Z</time>
      </trkpt>
      <trkpt lat="47.16611" lon="-1.67239">
        <ele>27.81</ele>
        <time>2020-05-20T15:29:03Z</time>
      </trkpt>
      <trkpt lat="47.16608" lon="-1.67252">
        <ele>26.63</ele>
        <time>2020-05-20T15:29:05Z</time>
      </trkpt>
      <trkpt lat="47.16606" lon="-1.67267">
        <ele>26.27</ele>
        <time>2020-05-20T15:29:08Z</time>
      </trkpt>
      <trkpt lat="47.16601" lon="-1.6728">
        <ele>26.74</ele>
        <time>2020-05-20T15:29:11Z</time>
      </trkpt>
      <trkpt lat="47.16594" lon="-1.67298">
        <ele>27.26</ele>
        <time>2020-05-20T15:29:13Z</time>
      </trkpt>
      <trkpt lat="47.16587" lon="-1.67312">
        <ele>27.73</ele>
        <time>2020-05-20T15:29:15Z</time>
      </trkpt>
      <trkpt lat="47.16579" lon="-1.67329">
        <ele>28.68</ele>
        <time>2020-05-20T15:29:17Z</time>
      </trkpt>
      <trkpt lat="47.16572" lon="-1.67344">
        <ele>30.11</ele>
        <time>2020-05-20T15:29:19Z</time>
      </trkpt>
      <trkpt lat="47.16564" lon="-1.6736">
        <ele>31.18</ele>
        <time>2020-05-20T15:29:21Z</time>
      </trkpt>
      <trkpt lat="47.16555" lon="-1.67375">
        <ele>31.19</ele>
        <time>2020-05-20T15:29:23Z</time>
      </trkpt>
      <trkpt lat="47.16545" lon="-1.67391">
        <ele>31.39</ele>
        <time>2020-05-20T15:29:25Z</time>
      </trkpt>
      <trkpt lat="47.16536" lon="-1.67404">
        <ele>32.08</ele>
        <time>2020-05-20T15:29:27Z</time>
      </trkpt>
      <trkpt lat="47.16527" lon="-1.67418">
        <ele>32.84</ele>
        <time>2020-05-20T15:29:29Z</time>
      </trkpt>
      <trkpt lat="47.16516" lon="-1.67433">
        <ele>32.83</ele>
        <time>2020-05-20T15:29:31Z</time>
      </trkpt>
      <trkpt lat="47.16505" lon="-1.67449">
        <ele>33.05</ele>
        <time>2020-05-20T15:29:33Z</time>
      </trkpt>
      <trkpt lat="47.16496" lon="-1.67464">
        <ele>33.36</ele>
        <time>2020-05-20T15:29:35Z</time>
      </trkpt>
      <trkpt lat="47.16489" lon="-1.67478">
        <ele>34.11</ele>
        <time>2020-05-20T15:29:37Z</time>
      </trkpt>
      <trkpt lat="47.1648" lon="-1.67493">
        <ele>34.61</ele>
        <time>2020-05-20T15:29:39Z</time>
      </trkpt>
      <trkpt lat="47.16471" lon="-1.67509">
        <ele>34.33</ele>
        <time>2020-05-20T15:29:41Z</time>
      </trkpt>
      <trkpt lat="47.16462" lon="-1.67525">
        <ele>33.45</ele>
        <time>2020-05-20T15:29:43Z</time>
      </trkpt>
      <trkpt lat="47.16453" lon="-1.6754">
        <ele>32.57</ele>
        <time>2020-05-20T15:29:45Z</time>
      </trkpt>
      <trkpt lat="47.16445" lon="-1.67556">
        <ele>32.01</ele>
        <time>2020-05-20T15:29:47Z</time>
      </trkpt>
      <trkpt lat="47.16436" lon="-1.67573">
        <ele>31.91</ele>
        <time>2020-05-20T15:29:49Z</time>
      </trkpt>
      <trkpt lat="47.16428" lon="-1.67589">
        <ele>31.75</ele>
        <time>2020-05-20T15:29:51Z</time>
      </trkpt>
      <trkpt lat="47.1642" lon="-1.67605">
        <ele>31.61</ele>
        <time>2020-05-20T15:29:53Z</time>
      </trkpt>
      <trkpt lat="47.16412" lon="-1.67621">
        <ele>30.49</ele>
        <time>2020-05-20T15:29:55Z</time>
      </trkpt>
      <trkpt lat="47.16405" lon="-1.67637">
        <ele>29.32</ele>
        <time>2020-05-20T15:29:57Z</time>
      </trkpt>
      <trkpt lat="47.16398" lon="-1.67652">
        <ele>28.22</ele>
        <time>2020-05-20T15:29:59Z</time>
      </trkpt>
      <trkpt lat="47.16389" lon="-1.6767">
        <ele>28.68</ele>
        <time>2020-05-20T15:30:01Z</time>
      </trkpt>
      <trkpt lat="47.16382" lon="-1.67686">
        <ele>29.67</ele>
        <time>2020-05-20T15:30:03Z</time>
      </trkpt>
      <trkpt lat="47.16373" lon="-1.67704">
        <ele>30.48</ele>
        <time>2020-05-20T15:30:05Z</time>
      </trkpt>
      <trkpt lat="47.16364" lon="-1.67719">
        <ele>30.68</ele>
        <time>2020-05-20T15:30:07Z</time>
      </trkpt>
      <trkpt lat="47.16355" lon="-1.67735">
        <ele>31.38</ele>
        <time>2020-05-20T15:30:09Z</time>
      </trkpt>
      <trkpt lat="47.16347" lon="-1.67751">
        <ele>32.19</ele>
        <time>2020-05-20T15:30:11Z</time>
      </trkpt>
      <trkpt lat="47.16338" lon="-1.67767">
        <ele>32.45</ele>
        <time>2020-05-20T15:30:13Z</time>
      </trkpt>
      <trkpt lat="47.16329" lon="-1.67783">
        <ele>32.07</ele>
        <time>2020-05-20T15:30:15Z</time>
      </trkpt>
      <trkpt lat="47.16319" lon="-1.67799">
        <ele>32.69</ele>
        <time>2020-05-20T15:30:17Z</time>
      </trkpt>
      <trkpt lat="47.1631" lon="-1.67816">
        <ele>33.35</ele>
        <time>2020-05-20T15:30:19Z</time>
      </trkpt>
      <trkpt lat="47.163" lon="-1.67832">
        <ele>33.79</ele>
        <time>2020-05-20T15:30:21Z</time>
      </trkpt>
      <trkpt lat="47.16292" lon="-1.67847">
        <ele>33.9</ele>
        <time>2020-05-20T15:30:23Z</time>
      </trkpt>
      <trkpt lat="47.16284" lon="-1.67861">
        <ele>33.53</ele>
        <time>2020-05-20T15:30:25Z</time>
      </trkpt>
      <trkpt lat="47.16276" lon="-1.67875">
        <ele>32.81</ele>
        <time>2020-05-20T15:30:27Z</time>
      </trkpt>
      <trkpt lat="47.16267" lon="-1.6789">
        <ele>32.94</ele>
        <time>2020-05-20T15:30:29Z</time>
      </trkpt>
      <trkpt lat="47.1626" lon="-1.67905">
        <ele>34.23</ele>
        <time>2020-05-20T15:30:31Z</time>
      </trkpt>
      <trkpt lat="47.16251" lon="-1.67919">
        <ele>34.38</ele>
        <time>2020-05-20T15:30:33Z</time>
      </trkpt>
      <trkpt lat="47.16242" lon="-1.67934">
        <ele>35.18</ele>
        <time>2020-05-20T15:30:35Z</time>
      </trkpt>
      <trkpt lat="47.16233" lon="-1.67949">
        <ele>35.41</ele>
        <time>2020-05-20T15:30:37Z</time>
      </trkpt>
      <trkpt lat="47.16224" lon="-1.67963">
        <ele>34.42</ele>
        <time>2020-05-20T15:30:39Z</time>
      </trkpt>
      <trkpt lat="47.16219" lon="-1.67982">
        <ele>32.69</ele>
        <time>2020-05-20T15:30:41Z</time>
      </trkpt>
      <trkpt lat="47.1621" lon="-1.67997">
        <ele>31.78</ele>
        <time>2020-05-20T15:30:43Z</time>
      </trkpt>
      <trkpt lat="47.16198" lon="-1.68004">
        <ele>31.19</ele>
        <time>2020-05-20T15:30:45Z</time>
      </trkpt>
      <trkpt lat="47.16188" lon="-1.68015">
        <ele>30.67</ele>
        <time>2020-05-20T15:30:47Z</time>
      </trkpt>
      <trkpt lat="47.16179" lon="-1.68028">
        <ele>30.17</ele>
        <time>2020-05-20T15:30:49Z</time>
      </trkpt>
      <trkpt lat="47.1617" lon="-1.6804">
        <ele>30.47</ele>
        <time>2020-05-20T15:30:51Z</time>
      </trkpt>
      <trkpt lat="47.16159" lon="-1.68056">
        <ele>31.18</ele>
        <time>2020-05-20T15:30:53Z</time>
      </trkpt>
      <trkpt lat="47.1615" lon="-1.68071">
        <ele>32.15</ele>
        <time>2020-05-20T15:30:55Z</time>
      </trkpt>
      <trkpt lat="47.16143" lon="-1.68088">
        <ele>33.17</ele>
        <time>2020-05-20T15:30:57Z</time>
      </trkpt>
      <trkpt lat="47.16137" lon="-1.68106">
        <ele>33.76</ele>
        <time>2020-05-20T15:30:59Z</time>
      </trkpt>
      <trkpt lat="47.16133" lon="-1.68124">
        <ele>34.01</ele>
        <time>2020-05-20T15:31:01Z</time>
      </trkpt>
      <trkpt lat="47.16129" lon="-1.68143">
        <ele>34.24</ele>
        <time>2020-05-20T15:31:03Z</time>
      </trkpt>
      <trkpt lat="47.16125" lon="-1.68158">
        <ele>34.61</ele>
        <time>2020-05-20T15:31:05Z</time>
      </trkpt>
      <trkpt lat="47.16121" lon="-1.68173">
        <ele>33.84</ele>
        <time>2020-05-20T15:31:07Z</time>
      </trkpt>
      <trkpt lat="47.16116" lon="-1.68193">
        <ele>33.07</ele>
        <time>2020-05-20T15:31:09Z</time>
      </trkpt>
      <trkpt lat="47.16111" lon="-1.68213">
        <ele>33.31</ele>
        <time>2020-05-20T15:31:11Z</time>
      </trkpt>
      <trkpt lat="47.16107" lon="-1.68234">
        <ele>33.67</ele>
        <time>2020-05-20T15:31:13Z</time>
      </trkpt>
      <trkpt lat="47.16102" lon="-1.68256">
        <ele>33.61</ele>
        <time>2020-05-20T15:31:15Z</time>
      </trkpt>
      <trkpt lat="47.161" lon="-1.6827">
        <ele>33.26</ele>
        <time>2020-05-20T15:31:16Z</time>
      </trkpt>
      <trkpt lat="47.16096" lon="-1.68293">
        <ele>31.96</ele>
        <time>2020-05-20T15:31:18Z</time>
      </trkpt>
      <trkpt lat="47.16093" lon="-1.68308">
        <ele>31.33</ele>
        <time>2020-05-20T15:31:19Z</time>
      </trkpt>
      <trkpt lat="47.16089" lon="-1.68332">
        <ele>30.94</ele>
        <time>2020-05-20T15:31:21Z</time>
      </trkpt>
      <trkpt lat="47.16086" lon="-1.68352">
        <ele>30.17</ele>
        <time>2020-05-20T15:31:23Z</time>
      </trkpt>
      <trkpt lat="47.16082" lon="-1.68371">
        <ele>29.22</ele>
        <time>2020-05-20T15:31:25Z</time>
      </trkpt>
      <trkpt lat="47.16078" lon="-1.68391">
        <ele>26.97</ele>
        <time>2020-05-20T15:31:27Z</time>
      </trkpt>
      <trkpt lat="47.16075" lon="-1.6841">
        <ele>25.17</ele>
        <time>2020-05-20T15:31:29Z</time>
      </trkpt>
      <trkpt lat="47.16071" lon="-1.68428">
        <ele>23.71</ele>
        <time>2020-05-20T15:31:31Z</time>
      </trkpt>
      <trkpt lat="47.16068" lon="-1.68447">
        <ele>22.93</ele>
        <time>2020-05-20T15:31:33Z</time>
      </trkpt>
      <trkpt lat="47.16063" lon="-1.68469">
        <ele>23.46</ele>
        <time>2020-05-20T15:31:35Z</time>
      </trkpt>
      <trkpt lat="47.1606" lon="-1.68488">
        <ele>23.7</ele>
        <time>2020-05-20T15:31:37Z</time>
      </trkpt>
      <trkpt lat="47.16057" lon="-1.68509">
        <ele>23.67</ele>
        <time>2020-05-20T15:31:39Z</time>
      </trkpt>
      <trkpt lat="47.16054" lon="-1.6853">
        <ele>23.66</ele>
        <time>2020-05-20T15:31:41Z</time>
      </trkpt>
      <trkpt lat="47.16051" lon="-1.68553">
        <ele>22.99</ele>
        <time>2020-05-20T15:31:43Z</time>
      </trkpt>
      <trkpt lat="47.16048" lon="-1.68574">
        <ele>22.01</ele>
        <time>2020-05-20T15:31:45Z</time>
      </trkpt>
      <trkpt lat="47.16046" lon="-1.68591">
        <ele>21.14</ele>
        <time>2020-05-20T15:31:47Z</time>
      </trkpt>
      <trkpt lat="47.16044" lon="-1.6861">
        <ele>20.59</ele>
        <time>2020-05-20T15:31:49Z</time>
      </trkpt>
      <trkpt lat="47.16042" lon="-1.68634">
        <ele>19.92</ele>
        <time>2020-05-20T15:31:51Z</time>
      </trkpt>
      <trkpt lat="47.16041" lon="-1.68654">
        <ele>19.54</ele>
        <time>2020-05-20T15:31:53Z</time>
      </trkpt>
      <trkpt lat="47.1604" lon="-1.68676">
        <ele>19.62</ele>
        <time>2020-05-20T15:31:55Z</time>
      </trkpt>
      <trkpt lat="47.16041" lon="-1.68697">
        <ele>20.11</ele>
        <time>2020-05-20T15:31:57Z</time>
      </trkpt>
      <trkpt lat="47.16042" lon="-1.68717">
        <ele>20.32</ele>
        <time>2020-05-20T15:31:59Z</time>
      </trkpt>
      <trkpt lat="47.16044" lon="-1.68735">
        <ele>20.91</ele>
        <time>2020-05-20T15:32:01Z</time>
      </trkpt>
      <trkpt lat="47.16047" lon="-1.68753">
        <ele>21.3</ele>
        <time>2020-05-20T15:32:03Z</time>
      </trkpt>
      <trkpt lat="47.1605" lon="-1.68771">
        <ele>21.73</ele>
        <time>2020-05-20T15:32:05Z</time>
      </trkpt>
      <trkpt lat="47.16055" lon="-1.6879">
        <ele>22.12</ele>
        <time>2020-05-20T15:32:07Z</time>
      </trkpt>
      <trkpt lat="47.1606" lon="-1.68808">
        <ele>22.89</ele>
        <time>2020-05-20T15:32:09Z</time>
      </trkpt>
      <trkpt lat="47.16066" lon="-1.68825">
        <ele>24.31</ele>
        <time>2020-05-20T15:32:11Z</time>
      </trkpt>
      <trkpt lat="47.16071" lon="-1.68839">
        <ele>26.42</ele>
        <time>2020-05-20T15:32:13Z</time>
      </trkpt>
      <trkpt lat="47.16076" lon="-1.68854">
        <ele>27.93</ele>
        <time>2020-05-20T15:32:15Z</time>
      </trkpt>
      <trkpt lat="47.16082" lon="-1.68872">
        <ele>28.99</ele>
        <time>2020-05-20T15:32:17Z</time>
      </trkpt>
      <trkpt lat="47.16087" lon="-1.68889">
        <ele>30.18</ele>
        <time>2020-05-20T15:32:19Z</time>
      </trkpt>
      <trkpt lat="47.16093" lon="-1.68907">
        <ele>30.57</ele>
        <time>2020-05-20T15:32:21Z</time>
      </trkpt>
      <trkpt lat="47.16098" lon="-1.68925">
        <ele>31.47</ele>
        <time>2020-05-20T15:32:23Z</time>
      </trkpt>
      <trkpt lat="47.16104" lon="-1.68945">
        <ele>31.51</ele>
        <time>2020-05-20T15:32:25Z</time>
      </trkpt>
      <trkpt lat="47.1611" lon="-1.68963">
        <ele>31.27</ele>
        <time>2020-05-20T15:32:27Z</time>
      </trkpt>
      <trkpt lat="47.16115" lon="-1.68981">
        <ele>30.25</ele>
        <time>2020-05-20T15:32:29Z</time>
      </trkpt>
      <trkpt lat="47.16121" lon="-1.69">
        <ele>28.73</ele>
        <time>2020-05-20T15:32:31Z</time>
      </trkpt>
      <trkpt lat="47.16127" lon="-1.69021">
        <ele>28.16</ele>
        <time>2020-05-20T15:32:33Z</time>
      </trkpt>
      <trkpt lat="47.16132" lon="-1.69043">
        <ele>28.8</ele>
        <time>2020-05-20T15:32:35Z</time>
      </trkpt>
      <trkpt lat="47.16136" lon="-1.69063">
        <ele>28.81</ele>
        <time>2020-05-20T15:32:37Z</time>
      </trkpt>
      <trkpt lat="47.16139" lon="-1.69085">
        <ele>28.67</ele>
        <time>2020-05-20T15:32:39Z</time>
      </trkpt>
      <trkpt lat="47.16142" lon="-1.69105">
        <ele>28.35</ele>
        <time>2020-05-20T15:32:41Z</time>
      </trkpt>
      <trkpt lat="47.16144" lon="-1.69127">
        <ele>28.07</ele>
        <time>2020-05-20T15:32:43Z</time>
      </trkpt>
      <trkpt lat="47.16145" lon="-1.69148">
        <ele>27.27</ele>
        <time>2020-05-20T15:32:45Z</time>
      </trkpt>
      <trkpt lat="47.16145" lon="-1.69169">
        <ele>26.35</ele>
        <time>2020-05-20T15:32:47Z</time>
      </trkpt>
      <trkpt lat="47.16144" lon="-1.69192">
        <ele>24.77</ele>
        <time>2020-05-20T15:32:49Z</time>
      </trkpt>
      <trkpt lat="47.16143" lon="-1.69214">
        <ele>22.74</ele>
        <time>2020-05-20T15:32:51Z</time>
      </trkpt>
      <trkpt lat="47.16141" lon="-1.69234">
        <ele>22.78</ele>
        <time>2020-05-20T15:32:53Z</time>
      </trkpt>
      <trkpt lat="47.16139" lon="-1.69256">
        <ele>23.49</ele>
        <time>2020-05-20T15:32:55Z</time>
      </trkpt>
      <trkpt lat="47.16136" lon="-1.69279">
        <ele>23.73</ele>
        <time>2020-05-20T15:32:57Z</time>
      </trkpt>
      <trkpt lat="47.16133" lon="-1.69297">
        <ele>22.72</ele>
        <time>2020-05-20T15:32:59Z</time>
      </trkpt>
      <trkpt lat="47.1613" lon="-1.69319">
        <ele>20.8</ele>
        <time>2020-05-20T15:33:01Z</time>
      </trkpt>
      <trkpt lat="47.16126" lon="-1.69341">
        <ele>19.55</ele>
        <time>2020-05-20T15:33:03Z</time>
      </trkpt>
      <trkpt lat="47.16123" lon="-1.69359">
        <ele>18.7</ele>
        <time>2020-05-20T15:33:05Z</time>
      </trkpt>
      <trkpt lat="47.1612" lon="-1.69378">
        <ele>17.78</ele>
        <time>2020-05-20T15:33:07Z</time>
      </trkpt>
      <trkpt lat="47.16117" lon="-1.69396">
        <ele>16.98</ele>
        <time>2020-05-20T15:33:09Z</time>
      </trkpt>
      <trkpt lat="47.16115" lon="-1.69415">
        <ele>16.54</ele>
        <time>2020-05-20T15:33:11Z</time>
      </trkpt>
      <trkpt lat="47.16114" lon="-1.69435">
        <ele>17.07</ele>
        <time>2020-05-20T15:33:13Z</time>
      </trkpt>
      <trkpt lat="47.16112" lon="-1.69458">
        <ele>18.23</ele>
        <time>2020-05-20T15:33:15Z</time>
      </trkpt>
      <trkpt lat="47.16111" lon="-1.69477">
        <ele>18.55</ele>
        <time>2020-05-20T15:33:17Z</time>
      </trkpt>
      <trkpt lat="47.1611" lon="-1.69497">
        <ele>19.03</ele>
        <time>2020-05-20T15:33:19Z</time>
      </trkpt>
      <trkpt lat="47.16108" lon="-1.69517">
        <ele>19.18</ele>
        <time>2020-05-20T15:33:21Z</time>
      </trkpt>
      <trkpt lat="47.16107" lon="-1.69535">
        <ele>19.58</ele>
        <time>2020-05-20T15:33:23Z</time>
      </trkpt>
      <trkpt lat="47.16106" lon="-1.69554">
        <ele>20.89</ele>
        <time>2020-05-20T15:33:25Z</time>
      </trkpt>
      <trkpt lat="47.16105" lon="-1.6957">
        <ele>21.19</ele>
        <time>2020-05-20T15:33:27Z</time>
      </trkpt>
      <trkpt lat="47.16104" lon="-1.69588">
        <ele>21.84</ele>
        <time>2020-05-20T15:33:29Z</time>
      </trkpt>
      <trkpt lat="47.16103" lon="-1.69607">
        <ele>23.29</ele>
        <time>2020-05-20T15:33:31Z</time>
      </trkpt>
      <trkpt lat="47.16103" lon="-1.69625">
        <ele>24.06</ele>
        <time>2020-05-20T15:33:33Z</time>
      </trkpt>
      <trkpt lat="47.16102" lon="-1.69644">
        <ele>24.72</ele>
        <time>2020-05-20T15:33:35Z</time>
      </trkpt>
      <trkpt lat="47.16101" lon="-1.69661">
        <ele>24.98</ele>
        <time>2020-05-20T15:33:37Z</time>
      </trkpt>
      <trkpt lat="47.161" lon="-1.69679">
        <ele>24.24</ele>
        <time>2020-05-20T15:33:39Z</time>
      </trkpt>
      <trkpt lat="47.16099" lon="-1.69699">
        <ele>22.69</ele>
        <time>2020-05-20T15:33:41Z</time>
      </trkpt>
      <trkpt lat="47.16098" lon="-1.69717">
        <ele>22.92</ele>
        <time>2020-05-20T15:33:43Z</time>
      </trkpt>
      <trkpt lat="47.16096" lon="-1.69739">
        <ele>25.16</ele>
        <time>2020-05-20T15:33:45Z</time>
      </trkpt>
      <trkpt lat="47.16095" lon="-1.69759">
        <ele>27.28</ele>
        <time>2020-05-20T15:33:47Z</time>
      </trkpt>
      <trkpt lat="47.16094" lon="-1.69776">
        <ele>28.08</ele>
        <time>2020-05-20T15:33:49Z</time>
      </trkpt>
      <trkpt lat="47.16093" lon="-1.69796">
        <ele>28.15</ele>
        <time>2020-05-20T15:33:51Z</time>
      </trkpt>
      <trkpt lat="47.16092" lon="-1.69815">
        <ele>27.33</ele>
        <time>2020-05-20T15:33:53Z</time>
      </trkpt>
      <trkpt lat="47.16091" lon="-1.69833">
        <ele>27.29</ele>
        <time>2020-05-20T15:33:55Z</time>
      </trkpt>
      <trkpt lat="47.16089" lon="-1.6985">
        <ele>26.65</ele>
        <time>2020-05-20T15:33:57Z</time>
      </trkpt>
      <trkpt lat="47.16087" lon="-1.69869">
        <ele>26.4</ele>
        <time>2020-05-20T15:33:59Z</time>
      </trkpt>
      <trkpt lat="47.16086" lon="-1.69888">
        <ele>26.72</ele>
        <time>2020-05-20T15:34:01Z</time>
      </trkpt>
      <trkpt lat="47.16085" lon="-1.69908">
        <ele>27.62</ele>
        <time>2020-05-20T15:34:03Z</time>
      </trkpt>
      <trkpt lat="47.16083" lon="-1.69931">
        <ele>28.1</ele>
        <time>2020-05-20T15:34:05Z</time>
      </trkpt>
      <trkpt lat="47.16082" lon="-1.6995">
        <ele>28.98</ele>
        <time>2020-05-20T15:34:07Z</time>
      </trkpt>
      <trkpt lat="47.1608" lon="-1.69973">
        <ele>28.36</ele>
        <time>2020-05-20T15:34:09Z</time>
      </trkpt>
      <trkpt lat="47.16078" lon="-1.69992">
        <ele>28.15</ele>
        <time>2020-05-20T15:34:11Z</time>
      </trkpt>
      <trkpt lat="47.16077" lon="-1.7001">
        <ele>28.66</ele>
        <time>2020-05-20T15:34:13Z</time>
      </trkpt>
      <trkpt lat="47.16075" lon="-1.70031">
        <ele>28.38</ele>
        <time>2020-05-20T15:34:15Z</time>
      </trkpt>
      <trkpt lat="47.16074" lon="-1.70051">
        <ele>27.72</ele>
        <time>2020-05-20T15:34:17Z</time>
      </trkpt>
      <trkpt lat="47.16072" lon="-1.70072">
        <ele>27.46</ele>
        <time>2020-05-20T15:34:19Z</time>
      </trkpt>
      <trkpt lat="47.16069" lon="-1.70094">
        <ele>26.85</ele>
        <time>2020-05-20T15:34:21Z</time>
      </trkpt>
      <trkpt lat="47.16067" lon="-1.70112">
        <ele>26.06</ele>
        <time>2020-05-20T15:34:23Z</time>
      </trkpt>
      <trkpt lat="47.16064" lon="-1.7013">
        <ele>25.44</ele>
        <time>2020-05-20T15:34:25Z</time>
      </trkpt>
      <trkpt lat="47.16059" lon="-1.70149">
        <ele>26.03</ele>
        <time>2020-05-20T15:34:27Z</time>
      </trkpt>
      <trkpt lat="47.16052" lon="-1.70169">
        <ele>26.92</ele>
        <time>2020-05-20T15:34:29Z</time>
      </trkpt>
      <trkpt lat="47.16044" lon="-1.70187">
        <ele>28.38</ele>
        <time>2020-05-20T15:34:31Z</time>
      </trkpt>
      <trkpt lat="47.16036" lon="-1.70203">
        <ele>29.98</ele>
        <time>2020-05-20T15:34:33Z</time>
      </trkpt>
      <trkpt lat="47.16027" lon="-1.7022">
        <ele>30.63</ele>
        <time>2020-05-20T15:34:35Z</time>
      </trkpt>
      <trkpt lat="47.16019" lon="-1.70237">
        <ele>30.85</ele>
        <time>2020-05-20T15:34:37Z</time>
      </trkpt>
      <trkpt lat="47.16011" lon="-1.70254">
        <ele>29.79</ele>
        <time>2020-05-20T15:34:39Z</time>
      </trkpt>
      <trkpt lat="47.16004" lon="-1.70271">
        <ele>29.18</ele>
        <time>2020-05-20T15:34:41Z</time>
      </trkpt>
      <trkpt lat="47.15996" lon="-1.70287">
        <ele>28.18</ele>
        <time>2020-05-20T15:34:43Z</time>
      </trkpt>
      <trkpt lat="47.15988" lon="-1.70304">
        <ele>27.31</ele>
        <time>2020-05-20T15:34:45Z</time>
      </trkpt>
      <trkpt lat="47.1598" lon="-1.70321">
        <ele>25.83</ele>
        <time>2020-05-20T15:34:47Z</time>
      </trkpt>
      <trkpt lat="47.15973" lon="-1.7034">
        <ele>25.25</ele>
        <time>2020-05-20T15:34:49Z</time>
      </trkpt>
      <trkpt lat="47.15965" lon="-1.7036">
        <ele>25.08</ele>
        <time>2020-05-20T15:34:51Z</time>
      </trkpt>
      <trkpt lat="47.15958" lon="-1.70375">
        <ele>25</ele>
        <time>2020-05-20T15:34:53Z</time>
      </trkpt>
      <trkpt lat="47.1595" lon="-1.70392">
        <ele>26.25</ele>
        <time>2020-05-20T15:34:55Z</time>
      </trkpt>
      <trkpt lat="47.15943" lon="-1.7041">
        <ele>26.98</ele>
        <time>2020-05-20T15:34:57Z</time>
      </trkpt>
      <trkpt lat="47.15935" lon="-1.70427">
        <ele>26.18</ele>
        <time>2020-05-20T15:34:59Z</time>
      </trkpt>
      <trkpt lat="47.15927" lon="-1.70445">
        <ele>25.36</ele>
        <time>2020-05-20T15:35:01Z</time>
      </trkpt>
      <trkpt lat="47.1592" lon="-1.7046">
        <ele>25.31</ele>
        <time>2020-05-20T15:35:03Z</time>
      </trkpt>
      <trkpt lat="47.15911" lon="-1.70476">
        <ele>25.38</ele>
        <time>2020-05-20T15:35:05Z</time>
      </trkpt>
      <trkpt lat="47.15903" lon="-1.70492">
        <ele>25.21</ele>
        <time>2020-05-20T15:35:07Z</time>
      </trkpt>
      <trkpt lat="47.15894" lon="-1.7051">
        <ele>24.15</ele>
        <time>2020-05-20T15:35:09Z</time>
      </trkpt>
      <trkpt lat="47.15887" lon="-1.70528">
        <ele>22.62</ele>
        <time>2020-05-20T15:35:11Z</time>
      </trkpt>
      <trkpt lat="47.15881" lon="-1.70547">
        <ele>22.32</ele>
        <time>2020-05-20T15:35:13Z</time>
      </trkpt>
      <trkpt lat="47.15875" lon="-1.70565">
        <ele>22.59</ele>
        <time>2020-05-20T15:35:15Z</time>
      </trkpt>
      <trkpt lat="47.15871" lon="-1.70581">
        <ele>22.02</ele>
        <time>2020-05-20T15:35:17Z</time>
      </trkpt>
      <trkpt lat="47.15867" lon="-1.70598">
        <ele>20.96</ele>
        <time>2020-05-20T15:35:19Z</time>
      </trkpt>
      <trkpt lat="47.15862" lon="-1.70618">
        <ele>20.58</ele>
        <time>2020-05-20T15:35:21Z</time>
      </trkpt>
      <trkpt lat="47.15857" lon="-1.70636">
        <ele>19.86</ele>
        <time>2020-05-20T15:35:23Z</time>
      </trkpt>
      <trkpt lat="47.15852" lon="-1.70654">
        <ele>18.68</ele>
        <time>2020-05-20T15:35:25Z</time>
      </trkpt>
      <trkpt lat="47.15846" lon="-1.70668">
        <ele>19.04</ele>
        <time>2020-05-20T15:35:27Z</time>
      </trkpt>
      <trkpt lat="47.15841" lon="-1.70683">
        <ele>20</ele>
        <time>2020-05-20T15:35:29Z</time>
      </trkpt>
      <trkpt lat="47.15834" lon="-1.707">
        <ele>20.03</ele>
        <time>2020-05-20T15:35:31Z</time>
      </trkpt>
      <trkpt lat="47.15827" lon="-1.70716">
        <ele>19.83</ele>
        <time>2020-05-20T15:35:33Z</time>
      </trkpt>
      <trkpt lat="47.15818" lon="-1.70734">
        <ele>20.72</ele>
        <time>2020-05-20T15:35:35Z</time>
      </trkpt>
      <trkpt lat="47.1581" lon="-1.70751">
        <ele>20.71</ele>
        <time>2020-05-20T15:35:37Z</time>
      </trkpt>
      <trkpt lat="47.15803" lon="-1.70767">
        <ele>20.25</ele>
        <time>2020-05-20T15:35:39Z</time>
      </trkpt>
      <trkpt lat="47.15797" lon="-1.70781">
        <ele>20.09</ele>
        <time>2020-05-20T15:35:41Z</time>
      </trkpt>
      <trkpt lat="47.15789" lon="-1.70797">
        <ele>19.84</ele>
        <time>2020-05-20T15:35:43Z</time>
      </trkpt>
      <trkpt lat="47.15782" lon="-1.70812">
        <ele>19.89</ele>
        <time>2020-05-20T15:35:45Z</time>
      </trkpt>
      <trkpt lat="47.15774" lon="-1.70828">
        <ele>19.47</ele>
        <time>2020-05-20T15:35:47Z</time>
      </trkpt>
      <trkpt lat="47.15764" lon="-1.70845">
        <ele>19.95</ele>
        <time>2020-05-20T15:35:49Z</time>
      </trkpt>
      <trkpt lat="47.15756" lon="-1.70861">
        <ele>20.81</ele>
        <time>2020-05-20T15:35:51Z</time>
      </trkpt>
      <trkpt lat="47.15748" lon="-1.70875">
        <ele>21.89</ele>
        <time>2020-05-20T15:35:53Z</time>
      </trkpt>
      <trkpt lat="47.1574" lon="-1.7089">
        <ele>22.07</ele>
        <time>2020-05-20T15:35:55Z</time>
      </trkpt>
      <trkpt lat="47.15731" lon="-1.70905">
        <ele>22.92</ele>
        <time>2020-05-20T15:35:57Z</time>
      </trkpt>
      <trkpt lat="47.15722" lon="-1.70922">
        <ele>23.74</ele>
        <time>2020-05-20T15:35:59Z</time>
      </trkpt>
      <trkpt lat="47.15715" lon="-1.70937">
        <ele>24.34</ele>
        <time>2020-05-20T15:36:01Z</time>
      </trkpt>
      <trkpt lat="47.15706" lon="-1.70953">
        <ele>24.6</ele>
        <time>2020-05-20T15:36:03Z</time>
      </trkpt>
      <trkpt lat="47.15699" lon="-1.70967">
        <ele>24.72</ele>
        <time>2020-05-20T15:36:05Z</time>
      </trkpt>
      <trkpt lat="47.15691" lon="-1.70983">
        <ele>23.98</ele>
        <time>2020-05-20T15:36:07Z</time>
      </trkpt>
      <trkpt lat="47.15684" lon="-1.70998">
        <ele>23.33</ele>
        <time>2020-05-20T15:36:09Z</time>
      </trkpt>
      <trkpt lat="47.15677" lon="-1.71014">
        <ele>22.77</ele>
        <time>2020-05-20T15:36:11Z</time>
      </trkpt>
      <trkpt lat="47.1567" lon="-1.71029">
        <ele>22.83</ele>
        <time>2020-05-20T15:36:13Z</time>
      </trkpt>
      <trkpt lat="47.15662" lon="-1.71044">
        <ele>22.85</ele>
        <time>2020-05-20T15:36:15Z</time>
      </trkpt>
      <trkpt lat="47.15656" lon="-1.71055">
        <ele>22.82</ele>
        <time>2020-05-20T15:36:17Z</time>
      </trkpt>
      <trkpt lat="47.15651" lon="-1.71066">
        <ele>22.2</ele>
        <time>2020-05-20T15:36:19Z</time>
      </trkpt>
      <trkpt lat="47.1564" lon="-1.71074">
        <ele>22.34</ele>
        <time>2020-05-20T15:36:22Z</time>
      </trkpt>
      <trkpt lat="47.1563" lon="-1.71082">
        <ele>22.47</ele>
        <time>2020-05-20T15:36:24Z</time>
      </trkpt>
      <trkpt lat="47.15622" lon="-1.71095">
        <ele>23.46</ele>
        <time>2020-05-20T15:36:26Z</time>
      </trkpt>
      <trkpt lat="47.15612" lon="-1.71112">
        <ele>23.73</ele>
        <time>2020-05-20T15:36:28Z</time>
      </trkpt>
      <trkpt lat="47.15604" lon="-1.71128">
        <ele>24.34</ele>
        <time>2020-05-20T15:36:30Z</time>
      </trkpt>
      <trkpt lat="47.15595" lon="-1.71144">
        <ele>24.09</ele>
        <time>2020-05-20T15:36:32Z</time>
      </trkpt>
      <trkpt lat="47.15588" lon="-1.71156">
        <ele>24.69</ele>
        <time>2020-05-20T15:36:34Z</time>
      </trkpt>
      <trkpt lat="47.15579" lon="-1.71171">
        <ele>26.45</ele>
        <time>2020-05-20T15:36:36Z</time>
      </trkpt>
      <trkpt lat="47.1557" lon="-1.71185">
        <ele>26.69</ele>
        <time>2020-05-20T15:36:38Z</time>
      </trkpt>
      <trkpt lat="47.15561" lon="-1.712">
        <ele>26.79</ele>
        <time>2020-05-20T15:36:40Z</time>
      </trkpt>
      <trkpt lat="47.15553" lon="-1.71215">
        <ele>26.92</ele>
        <time>2020-05-20T15:36:42Z</time>
      </trkpt>
      <trkpt lat="47.15545" lon="-1.71232">
        <ele>26.86</ele>
        <time>2020-05-20T15:36:44Z</time>
      </trkpt>
      <trkpt lat="47.15538" lon="-1.71249">
        <ele>26.28</ele>
        <time>2020-05-20T15:36:46Z</time>
      </trkpt>
      <trkpt lat="47.15532" lon="-1.71264">
        <ele>26.4</ele>
        <time>2020-05-20T15:36:48Z</time>
      </trkpt>
      <trkpt lat="47.15524" lon="-1.71282">
        <ele>26.27</ele>
        <time>2020-05-20T15:36:50Z</time>
      </trkpt>
      <trkpt lat="47.15518" lon="-1.71298">
        <ele>25.91</ele>
        <time>2020-05-20T15:36:52Z</time>
      </trkpt>
      <trkpt lat="47.15513" lon="-1.71311">
        <ele>26.24</ele>
        <time>2020-05-20T15:36:54Z</time>
      </trkpt>
      <trkpt lat="47.15506" lon="-1.71327">
        <ele>26.71</ele>
        <time>2020-05-20T15:36:56Z</time>
      </trkpt>
      <trkpt lat="47.15498" lon="-1.71343">
        <ele>26.67</ele>
        <time>2020-05-20T15:36:58Z</time>
      </trkpt>
      <trkpt lat="47.1549" lon="-1.71357">
        <ele>26.52</ele>
        <time>2020-05-20T15:37:00Z</time>
      </trkpt>
      <trkpt lat="47.15481" lon="-1.71371">
        <ele>26.29</ele>
        <time>2020-05-20T15:37:02Z</time>
      </trkpt>
      <trkpt lat="47.15471" lon="-1.71384">
        <ele>25.74</ele>
        <time>2020-05-20T15:37:04Z</time>
      </trkpt>
      <trkpt lat="47.15461" lon="-1.71397">
        <ele>25.57</ele>
        <time>2020-05-20T15:37:06Z</time>
      </trkpt>
      <trkpt lat="47.15449" lon="-1.71408">
        <ele>25.27</ele>
        <time>2020-05-20T15:37:08Z</time>
      </trkpt>
      <trkpt lat="47.15439" lon="-1.71418">
        <ele>24.39</ele>
        <time>2020-05-20T15:37:11Z</time>
      </trkpt>
      <trkpt lat="47.15428" lon="-1.71428">
        <ele>23.65</ele>
        <time>2020-05-20T15:37:12Z</time>
      </trkpt>
      <trkpt lat="47.15417" lon="-1.71437">
        <ele>23.98</ele>
        <time>2020-05-20T15:37:14Z</time>
      </trkpt>
      <trkpt lat="47.15405" lon="-1.71447">
        <ele>24.65</ele>
        <time>2020-05-20T15:37:16Z</time>
      </trkpt>
      <trkpt lat="47.15392" lon="-1.71458">
        <ele>25.1</ele>
        <time>2020-05-20T15:37:18Z</time>
      </trkpt>
      <trkpt lat="47.15379" lon="-1.71469">
        <ele>24.46</ele>
        <time>2020-05-20T15:37:20Z</time>
      </trkpt>
      <trkpt lat="47.15368" lon="-1.71478">
        <ele>23.45</ele>
        <time>2020-05-20T15:37:22Z</time>
      </trkpt>
      <trkpt lat="47.15357" lon="-1.71488">
        <ele>23.63</ele>
        <time>2020-05-20T15:37:24Z</time>
      </trkpt>
      <trkpt lat="47.15345" lon="-1.715">
        <ele>24.07</ele>
        <time>2020-05-20T15:37:26Z</time>
      </trkpt>
      <trkpt lat="47.15334" lon="-1.71511">
        <ele>23.43</ele>
        <time>2020-05-20T15:37:28Z</time>
      </trkpt>
      <trkpt lat="47.15323" lon="-1.71523">
        <ele>23.04</ele>
        <time>2020-05-20T15:37:30Z</time>
      </trkpt>
      <trkpt lat="47.15312" lon="-1.71536">
        <ele>22.81</ele>
        <time>2020-05-20T15:37:32Z</time>
      </trkpt>
      <trkpt lat="47.15301" lon="-1.71547">
        <ele>23.15</ele>
        <time>2020-05-20T15:37:34Z</time>
      </trkpt>
      <trkpt lat="47.1529" lon="-1.71561">
        <ele>24.23</ele>
        <time>2020-05-20T15:37:36Z</time>
      </trkpt>
      <trkpt lat="47.15278" lon="-1.71573">
        <ele>24.55</ele>
        <time>2020-05-20T15:37:38Z</time>
      </trkpt>
      <trkpt lat="47.15267" lon="-1.71586">
        <ele>24</ele>
        <time>2020-05-20T15:37:41Z</time>
      </trkpt>
      <trkpt lat="47.15254" lon="-1.71599">
        <ele>23.97</ele>
        <time>2020-05-20T15:37:43Z</time>
      </trkpt>
      <trkpt lat="47.15245" lon="-1.71612">
        <ele>23.69</ele>
        <time>2020-05-20T15:37:45Z</time>
      </trkpt>
      <trkpt lat="47.15233" lon="-1.71624">
        <ele>23.42</ele>
        <time>2020-05-20T15:37:47Z</time>
      </trkpt>
      <trkpt lat="47.1522" lon="-1.71619">
        <ele>24.57</ele>
        <time>2020-05-20T15:37:49Z</time>
      </trkpt>
      <trkpt lat="47.15207" lon="-1.71611">
        <ele>25.55</ele>
        <time>2020-05-20T15:37:51Z</time>
      </trkpt>
      <trkpt lat="47.15195" lon="-1.71603">
        <ele>25.51</ele>
        <time>2020-05-20T15:37:53Z</time>
      </trkpt>
      <trkpt lat="47.15185" lon="-1.71596">
        <ele>25.78</ele>
        <time>2020-05-20T15:37:55Z</time>
      </trkpt>
      <trkpt lat="47.15172" lon="-1.71585">
        <ele>25.53</ele>
        <time>2020-05-20T15:37:57Z</time>
      </trkpt>
      <trkpt lat="47.1516" lon="-1.71576">
        <ele>24.82</ele>
        <time>2020-05-20T15:37:59Z</time>
      </trkpt>
      <trkpt lat="47.15149" lon="-1.71567">
        <ele>24.76</ele>
        <time>2020-05-20T15:38:01Z</time>
      </trkpt>
      <trkpt lat="47.15136" lon="-1.71556">
        <ele>24.43</ele>
        <time>2020-05-20T15:38:03Z</time>
      </trkpt>
      <trkpt lat="47.15124" lon="-1.71546">
        <ele>23.37</ele>
        <time>2020-05-20T15:38:05Z</time>
      </trkpt>
      <trkpt lat="47.15113" lon="-1.71537">
        <ele>22.1</ele>
        <time>2020-05-20T15:38:07Z</time>
      </trkpt>
      <trkpt lat="47.15103" lon="-1.71527">
        <ele>21.44</ele>
        <time>2020-05-20T15:38:09Z</time>
      </trkpt>
      <trkpt lat="47.15093" lon="-1.71518">
        <ele>21.43</ele>
        <time>2020-05-20T15:38:11Z</time>
      </trkpt>
      <trkpt lat="47.15084" lon="-1.71509">
        <ele>21.18</ele>
        <time>2020-05-20T15:38:13Z</time>
      </trkpt>
      <trkpt lat="47.1507" lon="-1.71496">
        <ele>20.53</ele>
        <time>2020-05-20T15:38:15Z</time>
      </trkpt>
      <trkpt lat="47.1506" lon="-1.71485">
        <ele>21.14</ele>
        <time>2020-05-20T15:38:17Z</time>
      </trkpt>
      <trkpt lat="47.15049" lon="-1.71473">
        <ele>21.6</ele>
        <time>2020-05-20T15:38:19Z</time>
      </trkpt>
      <trkpt lat="47.15038" lon="-1.71462">
        <ele>22.41</ele>
        <time>2020-05-20T15:38:21Z</time>
      </trkpt>
      <trkpt lat="47.15027" lon="-1.71452">
        <ele>23.6</ele>
        <time>2020-05-20T15:38:23Z</time>
      </trkpt>
      <trkpt lat="47.15017" lon="-1.71442">
        <ele>25.09</ele>
        <time>2020-05-20T15:38:25Z</time>
      </trkpt>
      <trkpt lat="47.15006" lon="-1.71431">
        <ele>25.85</ele>
        <time>2020-05-20T15:38:27Z</time>
      </trkpt>
      <trkpt lat="47.14996" lon="-1.71421">
        <ele>25.05</ele>
        <time>2020-05-20T15:38:29Z</time>
      </trkpt>
      <trkpt lat="47.14985" lon="-1.7141">
        <ele>24.82</ele>
        <time>2020-05-20T15:38:31Z</time>
      </trkpt>
      <trkpt lat="47.14975" lon="-1.714">
        <ele>24.45</ele>
        <time>2020-05-20T15:38:33Z</time>
      </trkpt>
      <trkpt lat="47.14963" lon="-1.7139">
        <ele>24.54</ele>
        <time>2020-05-20T15:38:35Z</time>
      </trkpt>
      <trkpt lat="47.14952" lon="-1.71378">
        <ele>25.27</ele>
        <time>2020-05-20T15:38:37Z</time>
      </trkpt>
      <trkpt lat="47.14941" lon="-1.71367">
        <ele>25.26</ele>
        <time>2020-05-20T15:38:39Z</time>
      </trkpt>
      <trkpt lat="47.14931" lon="-1.71355">
        <ele>25.4</ele>
        <time>2020-05-20T15:38:41Z</time>
      </trkpt>
      <trkpt lat="47.14922" lon="-1.71343">
        <ele>25.52</ele>
        <time>2020-05-20T15:38:43Z</time>
      </trkpt>
      <trkpt lat="47.14913" lon="-1.71331">
        <ele>25.45</ele>
        <time>2020-05-20T15:38:45Z</time>
      </trkpt>
      <trkpt lat="47.14904" lon="-1.71319">
        <ele>26.01</ele>
        <time>2020-05-20T15:38:47Z</time>
      </trkpt>
      <trkpt lat="47.14895" lon="-1.71307">
        <ele>26.57</ele>
        <time>2020-05-20T15:38:49Z</time>
      </trkpt>
      <trkpt lat="47.14885" lon="-1.71295">
        <ele>26.95</ele>
        <time>2020-05-20T15:38:51Z</time>
      </trkpt>
      <trkpt lat="47.14873" lon="-1.71282">
        <ele>26.82</ele>
        <time>2020-05-20T15:38:53Z</time>
      </trkpt>
      <trkpt lat="47.14862" lon="-1.71273">
        <ele>26.74</ele>
        <time>2020-05-20T15:38:55Z</time>
      </trkpt>
      <trkpt lat="47.14853" lon="-1.71262">
        <ele>26.73</ele>
        <time>2020-05-20T15:38:57Z</time>
      </trkpt>
      <trkpt lat="47.14847" lon="-1.71247">
        <ele>27.18</ele>
        <time>2020-05-20T15:38:59Z</time>
      </trkpt>
      <trkpt lat="47.1484" lon="-1.7123">
        <ele>27.24</ele>
        <time>2020-05-20T15:39:01Z</time>
      </trkpt>
      <trkpt lat="47.14832" lon="-1.71211">
        <ele>27.36</ele>
        <time>2020-05-20T15:39:03Z</time>
      </trkpt>
      <trkpt lat="47.14826" lon="-1.71197">
        <ele>27.26</ele>
        <time>2020-05-20T15:39:05Z</time>
      </trkpt>
      <trkpt lat="47.1482" lon="-1.71181">
        <ele>26.3</ele>
        <time>2020-05-20T15:39:07Z</time>
      </trkpt>
      <trkpt lat="47.14815" lon="-1.71164">
        <ele>24.82</ele>
        <time>2020-05-20T15:39:09Z</time>
      </trkpt>
      <trkpt lat="47.14808" lon="-1.71145">
        <ele>23.62</ele>
        <time>2020-05-20T15:39:11Z</time>
      </trkpt>
      <trkpt lat="47.14801" lon="-1.71128">
        <ele>22.92</ele>
        <time>2020-05-20T15:39:13Z</time>
      </trkpt>
      <trkpt lat="47.14794" lon="-1.71112">
        <ele>22.91</ele>
        <time>2020-05-20T15:39:15Z</time>
      </trkpt>
      <trkpt lat="47.14788" lon="-1.71098">
        <ele>23.12</ele>
        <time>2020-05-20T15:39:17Z</time>
      </trkpt>
      <trkpt lat="47.14779" lon="-1.71079">
        <ele>23.5</ele>
        <time>2020-05-20T15:39:19Z</time>
      </trkpt>
      <trkpt lat="47.14773" lon="-1.71063">
        <ele>23.24</ele>
        <time>2020-05-20T15:39:21Z</time>
      </trkpt>
      <trkpt lat="47.14767" lon="-1.71048">
        <ele>23.05</ele>
        <time>2020-05-20T15:39:23Z</time>
      </trkpt>
      <trkpt lat="47.14761" lon="-1.7103">
        <ele>22.5</ele>
        <time>2020-05-20T15:39:25Z</time>
      </trkpt>
      <trkpt lat="47.14756" lon="-1.71013">
        <ele>22.42</ele>
        <time>2020-05-20T15:39:27Z</time>
      </trkpt>
      <trkpt lat="47.14752" lon="-1.70998">
        <ele>22.08</ele>
        <time>2020-05-20T15:39:29Z</time>
      </trkpt>
      <trkpt lat="47.14747" lon="-1.70983">
        <ele>20.98</ele>
        <time>2020-05-20T15:39:31Z</time>
      </trkpt>
      <trkpt lat="47.14736" lon="-1.70978">
        <ele>20.71</ele>
        <time>2020-05-20T15:39:33Z</time>
      </trkpt>
      <trkpt lat="47.14726" lon="-1.70992">
        <ele>21.08</ele>
        <time>2020-05-20T15:39:35Z</time>
      </trkpt>
      <trkpt lat="47.14717" lon="-1.71007">
        <ele>22.43</ele>
        <time>2020-05-20T15:39:37Z</time>
      </trkpt>
      <trkpt lat="47.14712" lon="-1.71025">
        <ele>23.78</ele>
        <time>2020-05-20T15:39:39Z</time>
      </trkpt>
      <trkpt lat="47.1471" lon="-1.71046">
        <ele>23.93</ele>
        <time>2020-05-20T15:39:41Z</time>
      </trkpt>
      <trkpt lat="47.1471" lon="-1.71069">
        <ele>23.94</ele>
        <time>2020-05-20T15:39:43Z</time>
      </trkpt>
      <trkpt lat="47.14713" lon="-1.7109">
        <ele>23.28</ele>
        <time>2020-05-20T15:39:45Z</time>
      </trkpt>
      <trkpt lat="47.14715" lon="-1.71111">
        <ele>22.9</ele>
        <time>2020-05-20T15:39:47Z</time>
      </trkpt>
      <trkpt lat="47.14718" lon="-1.7113">
        <ele>22.75</ele>
        <time>2020-05-20T15:39:49Z</time>
      </trkpt>
      <trkpt lat="47.14721" lon="-1.71147">
        <ele>22.24</ele>
        <time>2020-05-20T15:39:51Z</time>
      </trkpt>
      <trkpt lat="47.14725" lon="-1.71167">
        <ele>21.29</ele>
        <time>2020-05-20T15:39:53Z</time>
      </trkpt>
      <trkpt lat="47.14728" lon="-1.71187">
        <ele>21.44</ele>
        <time>2020-05-20T15:39:55Z</time>
      </trkpt>
      <trkpt lat="47.14733" lon="-1.71206">
        <ele>21.67</ele>
        <time>2020-05-20T15:39:57Z</time>
      </trkpt>
      <trkpt lat="47.14738" lon="-1.71224">
        <ele>23.14</ele>
        <time>2020-05-20T15:39:59Z</time>
      </trkpt>
      <trkpt lat="47.14743" lon="-1.71241">
        <ele>25.32</ele>
        <time>2020-05-20T15:40:01Z</time>
      </trkpt>
      <trkpt lat="47.14748" lon="-1.7126">
        <ele>26.84</ele>
        <time>2020-05-20T15:40:03Z</time>
      </trkpt>
      <trkpt lat="47.14753" lon="-1.71278">
        <ele>27.1</ele>
        <time>2020-05-20T15:40:05Z</time>
      </trkpt>
      <trkpt lat="47.14757" lon="-1.71297">
        <ele>25.7</ele>
        <time>2020-05-20T15:40:07Z</time>
      </trkpt>
      <trkpt lat="47.14762" lon="-1.71315">
        <ele>24.99</ele>
        <time>2020-05-20T15:40:09Z</time>
      </trkpt>
      <trkpt lat="47.14766" lon="-1.71332">
        <ele>24.14</ele>
        <time>2020-05-20T15:40:11Z</time>
      </trkpt>
      <trkpt lat="47.14769" lon="-1.71353">
        <ele>24.1</ele>
        <time>2020-05-20T15:40:13Z</time>
      </trkpt>
      <trkpt lat="47.14772" lon="-1.71372">
        <ele>24.68</ele>
        <time>2020-05-20T15:40:15Z</time>
      </trkpt>
      <trkpt lat="47.14774" lon="-1.7139">
        <ele>25.45</ele>
        <time>2020-05-20T15:40:17Z</time>
      </trkpt>
      <trkpt lat="47.14777" lon="-1.7141">
        <ele>25.38</ele>
        <time>2020-05-20T15:40:19Z</time>
      </trkpt>
      <trkpt lat="47.1478" lon="-1.7143">
        <ele>25.24</ele>
        <time>2020-05-20T15:40:21Z</time>
      </trkpt>
      <trkpt lat="47.14783" lon="-1.71449">
        <ele>25.21</ele>
        <time>2020-05-20T15:40:23Z</time>
      </trkpt>
      <trkpt lat="47.14785" lon="-1.71468">
        <ele>25.89</ele>
        <time>2020-05-20T15:40:25Z</time>
      </trkpt>
      <trkpt lat="47.14788" lon="-1.71487">
        <ele>26.32</ele>
        <time>2020-05-20T15:40:27Z</time>
      </trkpt>
      <trkpt lat="47.14791" lon="-1.71505">
        <ele>26.41</ele>
        <time>2020-05-20T15:40:29Z</time>
      </trkpt>
      <trkpt lat="47.14793" lon="-1.71525">
        <ele>26.26</ele>
        <time>2020-05-20T15:40:31Z</time>
      </trkpt>
      <trkpt lat="47.14794" lon="-1.71545">
        <ele>25.05</ele>
        <time>2020-05-20T15:40:33Z</time>
      </trkpt>
      <trkpt lat="47.14794" lon="-1.71563">
        <ele>23.15</ele>
        <time>2020-05-20T15:40:35Z</time>
      </trkpt>
      <trkpt lat="47.14793" lon="-1.71581">
        <ele>23.09</ele>
        <time>2020-05-20T15:40:37Z</time>
      </trkpt>
      <trkpt lat="47.1479" lon="-1.716">
        <ele>23.59</ele>
        <time>2020-05-20T15:40:39Z</time>
      </trkpt>
      <trkpt lat="47.14787" lon="-1.71621">
        <ele>24.29</ele>
        <time>2020-05-20T15:40:41Z</time>
      </trkpt>
      <trkpt lat="47.14784" lon="-1.7164">
        <ele>25.26</ele>
        <time>2020-05-20T15:40:43Z</time>
      </trkpt>
      <trkpt lat="47.14781" lon="-1.71659">
        <ele>25.54</ele>
        <time>2020-05-20T15:40:45Z</time>
      </trkpt>
      <trkpt lat="47.14777" lon="-1.71678">
        <ele>25.44</ele>
        <time>2020-05-20T15:40:47Z</time>
      </trkpt>
      <trkpt lat="47.14773" lon="-1.71699">
        <ele>25.02</ele>
        <time>2020-05-20T15:40:49Z</time>
      </trkpt>
      <trkpt lat="47.1477" lon="-1.71716">
        <ele>24.01</ele>
        <time>2020-05-20T15:40:51Z</time>
      </trkpt>
      <trkpt lat="47.14766" lon="-1.71735">
        <ele>23.14</ele>
        <time>2020-05-20T15:40:53Z</time>
      </trkpt>
      <trkpt lat="47.14763" lon="-1.71755">
        <ele>23.68</ele>
        <time>2020-05-20T15:40:55Z</time>
      </trkpt>
      <trkpt lat="47.14759" lon="-1.71773">
        <ele>24.49</ele>
        <time>2020-05-20T15:40:57Z</time>
      </trkpt>
      <trkpt lat="47.14753" lon="-1.71789">
        <ele>24.16</ele>
        <time>2020-05-20T15:40:59Z</time>
      </trkpt>
      <trkpt lat="47.14744" lon="-1.71802">
        <ele>24.29</ele>
        <time>2020-05-20T15:41:01Z</time>
      </trkpt>
      <trkpt lat="47.14732" lon="-1.71816">
        <ele>24.16</ele>
        <time>2020-05-20T15:41:03Z</time>
      </trkpt>
      <trkpt lat="47.1472" lon="-1.71825">
        <ele>24.11</ele>
        <time>2020-05-20T15:41:05Z</time>
      </trkpt>
      <trkpt lat="47.14707" lon="-1.71832">
        <ele>25.04</ele>
        <time>2020-05-20T15:41:07Z</time>
      </trkpt>
      <trkpt lat="47.14692" lon="-1.71839">
        <ele>26.84</ele>
        <time>2020-05-20T15:41:09Z</time>
      </trkpt>
      <trkpt lat="47.14678" lon="-1.71845">
        <ele>27.91</ele>
        <time>2020-05-20T15:41:11Z</time>
      </trkpt>
      <trkpt lat="47.14666" lon="-1.7185">
        <ele>28.56</ele>
        <time>2020-05-20T15:41:13Z</time>
      </trkpt>
      <trkpt lat="47.14653" lon="-1.71856">
        <ele>28.91</ele>
        <time>2020-05-20T15:41:15Z</time>
      </trkpt>
      <trkpt lat="47.14639" lon="-1.71858">
        <ele>28.18</ele>
        <time>2020-05-20T15:41:17Z</time>
      </trkpt>
      <trkpt lat="47.14622" lon="-1.71858">
        <ele>26.47</ele>
        <time>2020-05-20T15:41:19Z</time>
      </trkpt>
      <trkpt lat="47.14608" lon="-1.71857">
        <ele>24.92</ele>
        <time>2020-05-20T15:41:21Z</time>
      </trkpt>
      <trkpt lat="47.14593" lon="-1.71854">
        <ele>24.27</ele>
        <time>2020-05-20T15:41:23Z</time>
      </trkpt>
      <trkpt lat="47.1458" lon="-1.71848">
        <ele>24.09</ele>
        <time>2020-05-20T15:41:25Z</time>
      </trkpt>
      <trkpt lat="47.14567" lon="-1.71842">
        <ele>23.45</ele>
        <time>2020-05-20T15:41:27Z</time>
      </trkpt>
      <trkpt lat="47.14554" lon="-1.71834">
        <ele>22.64</ele>
        <time>2020-05-20T15:41:29Z</time>
      </trkpt>
      <trkpt lat="47.1454" lon="-1.71825">
        <ele>22.67</ele>
        <time>2020-05-20T15:41:31Z</time>
      </trkpt>
      <trkpt lat="47.14527" lon="-1.71819">
        <ele>23.03</ele>
        <time>2020-05-20T15:41:33Z</time>
      </trkpt>
      <trkpt lat="47.14514" lon="-1.71812">
        <ele>22.91</ele>
        <time>2020-05-20T15:41:35Z</time>
      </trkpt>
      <trkpt lat="47.14501" lon="-1.71805">
        <ele>22.78</ele>
        <time>2020-05-20T15:41:37Z</time>
      </trkpt>
      <trkpt lat="47.14488" lon="-1.71798">
        <ele>22.38</ele>
        <time>2020-05-20T15:41:39Z</time>
      </trkpt>
      <trkpt lat="47.14475" lon="-1.71792">
        <ele>22.27</ele>
        <time>2020-05-20T15:41:41Z</time>
      </trkpt>
      <trkpt lat="47.14463" lon="-1.71787">
        <ele>21.28</ele>
        <time>2020-05-20T15:41:43Z</time>
      </trkpt>
      <trkpt lat="47.1445" lon="-1.71782">
        <ele>20.38</ele>
        <time>2020-05-20T15:41:45Z</time>
      </trkpt>
      <trkpt lat="47.14435" lon="-1.71778">
        <ele>20.65</ele>
        <time>2020-05-20T15:41:47Z</time>
      </trkpt>
      <trkpt lat="47.14422" lon="-1.71777">
        <ele>20.59</ele>
        <time>2020-05-20T15:41:49Z</time>
      </trkpt>
      <trkpt lat="47.14408" lon="-1.71778">
        <ele>20.42</ele>
        <time>2020-05-20T15:41:51Z</time>
      </trkpt>
      <trkpt lat="47.14393" lon="-1.7178">
        <ele>18.82</ele>
        <time>2020-05-20T15:41:53Z</time>
      </trkpt>
      <trkpt lat="47.14381" lon="-1.71783">
        <ele>18.24</ele>
        <time>2020-05-20T15:41:55Z</time>
      </trkpt>
      <trkpt lat="47.14368" lon="-1.71787">
        <ele>18.54</ele>
        <time>2020-05-20T15:41:57Z</time>
      </trkpt>
      <trkpt lat="47.14354" lon="-1.71793">
        <ele>18.6</ele>
        <time>2020-05-20T15:41:59Z</time>
      </trkpt>
      <trkpt lat="47.1434" lon="-1.71798">
        <ele>18.06</ele>
        <time>2020-05-20T15:42:01Z</time>
      </trkpt>
      <trkpt lat="47.14327" lon="-1.71803">
        <ele>17.5</ele>
        <time>2020-05-20T15:42:03Z</time>
      </trkpt>
      <trkpt lat="47.14313" lon="-1.71809">
        <ele>17.38</ele>
        <time>2020-05-20T15:42:05Z</time>
      </trkpt>
      <trkpt lat="47.14299" lon="-1.71813">
        <ele>18.25</ele>
        <time>2020-05-20T15:42:07Z</time>
      </trkpt>
      <trkpt lat="47.14285" lon="-1.71818">
        <ele>18.37</ele>
        <time>2020-05-20T15:42:09Z</time>
      </trkpt>
      <trkpt lat="47.14273" lon="-1.71823">
        <ele>18.8</ele>
        <time>2020-05-20T15:42:11Z</time>
      </trkpt>
      <trkpt lat="47.14258" lon="-1.71828">
        <ele>19.26</ele>
        <time>2020-05-20T15:42:13Z</time>
      </trkpt>
      <trkpt lat="47.14244" lon="-1.71831">
        <ele>18.82</ele>
        <time>2020-05-20T15:42:15Z</time>
      </trkpt>
      <trkpt lat="47.14231" lon="-1.71836">
        <ele>18.37</ele>
        <time>2020-05-20T15:42:17Z</time>
      </trkpt>
      <trkpt lat="47.14218" lon="-1.7184">
        <ele>17.65</ele>
        <time>2020-05-20T15:42:19Z</time>
      </trkpt>
      <trkpt lat="47.14204" lon="-1.71844">
        <ele>16.92</ele>
        <time>2020-05-20T15:42:21Z</time>
      </trkpt>
      <trkpt lat="47.1419" lon="-1.71849">
        <ele>16.74</ele>
        <time>2020-05-20T15:42:23Z</time>
      </trkpt>
      <trkpt lat="47.14177" lon="-1.71853">
        <ele>16.21</ele>
        <time>2020-05-20T15:42:25Z</time>
      </trkpt>
      <trkpt lat="47.14163" lon="-1.71859">
        <ele>15.67</ele>
        <time>2020-05-20T15:42:27Z</time>
      </trkpt>
      <trkpt lat="47.14148" lon="-1.71863">
        <ele>15.32</ele>
        <time>2020-05-20T15:42:29Z</time>
      </trkpt>
      <trkpt lat="47.14133" lon="-1.71869">
        <ele>14.23</ele>
        <time>2020-05-20T15:42:31Z</time>
      </trkpt>
      <trkpt lat="47.1412" lon="-1.71872">
        <ele>13.88</ele>
        <time>2020-05-20T15:42:33Z</time>
      </trkpt>
      <trkpt lat="47.14106" lon="-1.71877">
        <ele>13.34</ele>
        <time>2020-05-20T15:42:35Z</time>
      </trkpt>
      <trkpt lat="47.14088" lon="-1.71883">
        <ele>13.31</ele>
        <time>2020-05-20T15:42:37Z</time>
      </trkpt>
      <trkpt lat="47.14073" lon="-1.71888">
        <ele>13.01</ele>
        <time>2020-05-20T15:42:39Z</time>
      </trkpt>
      <trkpt lat="47.14058" lon="-1.71893">
        <ele>12.01</ele>
        <time>2020-05-20T15:42:41Z</time>
      </trkpt>
      <trkpt lat="47.14043" lon="-1.71898">
        <ele>11.43</ele>
        <time>2020-05-20T15:42:43Z</time>
      </trkpt>
      <trkpt lat="47.1403" lon="-1.71902">
        <ele>10.89</ele>
        <time>2020-05-20T15:42:45Z</time>
      </trkpt>
      <trkpt lat="47.14015" lon="-1.71905">
        <ele>9.69</ele>
        <time>2020-05-20T15:42:47Z</time>
      </trkpt>
      <trkpt lat="47.13996" lon="-1.71902">
        <ele>8.79</ele>
        <time>2020-05-20T15:42:49Z</time>
      </trkpt>
      <trkpt lat="47.13979" lon="-1.719">
        <ele>7.74</ele>
        <time>2020-05-20T15:42:51Z</time>
      </trkpt>
      <trkpt lat="47.13969" lon="-1.71906">
        <ele>8</ele>
        <time>2020-05-20T15:42:53Z</time>
      </trkpt>
      <trkpt lat="47.13966" lon="-1.71927">
        <ele>9.01</ele>
        <time>2020-05-20T15:42:55Z</time>
      </trkpt>
      <trkpt lat="47.13963" lon="-1.71948">
        <ele>10.04</ele>
        <time>2020-05-20T15:42:57Z</time>
      </trkpt>
      <trkpt lat="47.13958" lon="-1.71964">
        <ele>10.84</ele>
        <time>2020-05-20T15:42:59Z</time>
      </trkpt>
      <trkpt lat="47.13947" lon="-1.71975">
        <ele>12.21</ele>
        <time>2020-05-20T15:43:01Z</time>
      </trkpt>
      <trkpt lat="47.13936" lon="-1.71982">
        <ele>13.45</ele>
        <time>2020-05-20T15:43:03Z</time>
      </trkpt>
      <trkpt lat="47.13925" lon="-1.71988">
        <ele>14.22</ele>
        <time>2020-05-20T15:43:05Z</time>
      </trkpt>
      <trkpt lat="47.13913" lon="-1.71994">
        <ele>14.69</ele>
        <time>2020-05-20T15:43:07Z</time>
      </trkpt>
      <trkpt lat="47.13901" lon="-1.72">
        <ele>14.25</ele>
        <time>2020-05-20T15:43:09Z</time>
      </trkpt>
      <trkpt lat="47.13889" lon="-1.72005">
        <ele>13.7</ele>
        <time>2020-05-20T15:43:11Z</time>
      </trkpt>
      <trkpt lat="47.13879" lon="-1.72012">
        <ele>13.13</ele>
        <time>2020-05-20T15:43:13Z</time>
      </trkpt>
      <trkpt lat="47.1387" lon="-1.72022">
        <ele>12.74</ele>
        <time>2020-05-20T15:43:15Z</time>
      </trkpt>
      <trkpt lat="47.1386" lon="-1.72035">
        <ele>12.29</ele>
        <time>2020-05-20T15:43:17Z</time>
      </trkpt>
      <trkpt lat="47.13853" lon="-1.72047">
        <ele>11.42</ele>
        <time>2020-05-20T15:43:19Z</time>
      </trkpt>
      <trkpt lat="47.13844" lon="-1.72061">
        <ele>11.08</ele>
        <time>2020-05-20T15:43:21Z</time>
      </trkpt>
      <trkpt lat="47.13837" lon="-1.72074">
        <ele>10.24</ele>
        <time>2020-05-20T15:43:23Z</time>
      </trkpt>
      <trkpt lat="47.13828" lon="-1.72088">
        <ele>9.67</ele>
        <time>2020-05-20T15:43:25Z</time>
      </trkpt>
      <trkpt lat="47.13821" lon="-1.72101">
        <ele>9.49</ele>
        <time>2020-05-20T15:43:27Z</time>
      </trkpt>
      <trkpt lat="47.13813" lon="-1.72113">
        <ele>10.56</ele>
        <time>2020-05-20T15:43:29Z</time>
      </trkpt>
      <trkpt lat="47.13805" lon="-1.72128">
        <ele>12.36</ele>
        <time>2020-05-20T15:43:31Z</time>
      </trkpt>
      <trkpt lat="47.13797" lon="-1.72141">
        <ele>12.87</ele>
        <time>2020-05-20T15:43:33Z</time>
      </trkpt>
      <trkpt lat="47.13789" lon="-1.72156">
        <ele>13.97</ele>
        <time>2020-05-20T15:43:35Z</time>
      </trkpt>
      <trkpt lat="47.13781" lon="-1.72169">
        <ele>15.14</ele>
        <time>2020-05-20T15:43:37Z</time>
      </trkpt>
      <trkpt lat="47.13772" lon="-1.72183">
        <ele>15.37</ele>
        <time>2020-05-20T15:43:39Z</time>
      </trkpt>
      <trkpt lat="47.13766" lon="-1.72195">
        <ele>15.6</ele>
        <time>2020-05-20T15:43:41Z</time>
      </trkpt>
      <trkpt lat="47.13759" lon="-1.72207">
        <ele>16.11</ele>
        <time>2020-05-20T15:43:43Z</time>
      </trkpt>
      <trkpt lat="47.13751" lon="-1.72222">
        <ele>16.97</ele>
        <time>2020-05-20T15:43:45Z</time>
      </trkpt>
      <trkpt lat="47.13744" lon="-1.72237">
        <ele>17.16</ele>
        <time>2020-05-20T15:43:47Z</time>
      </trkpt>
      <trkpt lat="47.13738" lon="-1.72257">
        <ele>17.07</ele>
        <time>2020-05-20T15:43:50Z</time>
      </trkpt>
      <trkpt lat="47.13734" lon="-1.72275">
        <ele>17.13</ele>
        <time>2020-05-20T15:43:52Z</time>
      </trkpt>
      <trkpt lat="47.13732" lon="-1.7229">
        <ele>18.48</ele>
        <time>2020-05-20T15:43:54Z</time>
      </trkpt>
      <trkpt lat="47.13729" lon="-1.72307">
        <ele>18.73</ele>
        <time>2020-05-20T15:43:56Z</time>
      </trkpt>
      <trkpt lat="47.13727" lon="-1.72326">
        <ele>18.47</ele>
        <time>2020-05-20T15:43:58Z</time>
      </trkpt>
      <trkpt lat="47.13725" lon="-1.72343">
        <ele>17.77</ele>
        <time>2020-05-20T15:44:00Z</time>
      </trkpt>
      <trkpt lat="47.13723" lon="-1.72361">
        <ele>17.41</ele>
        <time>2020-05-20T15:44:02Z</time>
      </trkpt>
      <trkpt lat="47.1372" lon="-1.72378">
        <ele>17.19</ele>
        <time>2020-05-20T15:44:04Z</time>
      </trkpt>
      <trkpt lat="47.13716" lon="-1.72395">
        <ele>16.79</ele>
        <time>2020-05-20T15:44:06Z</time>
      </trkpt>
      <trkpt lat="47.13712" lon="-1.72409">
        <ele>14.85</ele>
        <time>2020-05-20T15:44:08Z</time>
      </trkpt>
      <trkpt lat="47.13707" lon="-1.72427">
        <ele>13.51</ele>
        <time>2020-05-20T15:44:10Z</time>
      </trkpt>
      <trkpt lat="47.13704" lon="-1.7244">
        <ele>12.29</ele>
        <time>2020-05-20T15:44:12Z</time>
      </trkpt>
      <trkpt lat="47.13699" lon="-1.72457">
        <ele>12.33</ele>
        <time>2020-05-20T15:44:14Z</time>
      </trkpt>
      <trkpt lat="47.13695" lon="-1.72473">
        <ele>13.85</ele>
        <time>2020-05-20T15:44:16Z</time>
      </trkpt>
      <trkpt lat="47.1369" lon="-1.72492">
        <ele>14.52</ele>
        <time>2020-05-20T15:44:18Z</time>
      </trkpt>
      <trkpt lat="47.13684" lon="-1.72512">
        <ele>15.3</ele>
        <time>2020-05-20T15:44:20Z</time>
      </trkpt>
      <trkpt lat="47.1368" lon="-1.72532">
        <ele>15.52</ele>
        <time>2020-05-20T15:44:22Z</time>
      </trkpt>
      <trkpt lat="47.13678" lon="-1.7255">
        <ele>16.14</ele>
        <time>2020-05-20T15:44:24Z</time>
      </trkpt>
      <trkpt lat="47.13676" lon="-1.72567">
        <ele>17.46</ele>
        <time>2020-05-20T15:44:26Z</time>
      </trkpt>
      <trkpt lat="47.13675" lon="-1.72587">
        <ele>18.15</ele>
        <time>2020-05-20T15:44:28Z</time>
      </trkpt>
      <trkpt lat="47.13675" lon="-1.72605">
        <ele>18.52</ele>
        <time>2020-05-20T15:44:30Z</time>
      </trkpt>
      <trkpt lat="47.13675" lon="-1.72624">
        <ele>18.61</ele>
        <time>2020-05-20T15:44:32Z</time>
      </trkpt>
      <trkpt lat="47.13673" lon="-1.7264">
        <ele>18.95</ele>
        <time>2020-05-20T15:44:34Z</time>
      </trkpt>
      <trkpt lat="47.1367" lon="-1.72658">
        <ele>19.62</ele>
        <time>2020-05-20T15:44:36Z</time>
      </trkpt>
      <trkpt lat="47.13666" lon="-1.72678">
        <ele>20.65</ele>
        <time>2020-05-20T15:44:38Z</time>
      </trkpt>
      <trkpt lat="47.13664" lon="-1.72695">
        <ele>20.97</ele>
        <time>2020-05-20T15:44:40Z</time>
      </trkpt>
      <trkpt lat="47.13661" lon="-1.72715">
        <ele>21.15</ele>
        <time>2020-05-20T15:44:42Z</time>
      </trkpt>
      <trkpt lat="47.1366" lon="-1.72732">
        <ele>21.39</ele>
        <time>2020-05-20T15:44:44Z</time>
      </trkpt>
      <trkpt lat="47.13659" lon="-1.72748">
        <ele>21.47</ele>
        <time>2020-05-20T15:44:46Z</time>
      </trkpt>
      <trkpt lat="47.13658" lon="-1.72765">
        <ele>21.71</ele>
        <time>2020-05-20T15:44:48Z</time>
      </trkpt>
      <trkpt lat="47.13657" lon="-1.72782">
        <ele>21.91</ele>
        <time>2020-05-20T15:44:50Z</time>
      </trkpt>
      <trkpt lat="47.13655" lon="-1.728">
        <ele>22.14</ele>
        <time>2020-05-20T15:44:52Z</time>
      </trkpt>
      <trkpt lat="47.13654" lon="-1.72817">
        <ele>22.3</ele>
        <time>2020-05-20T15:44:54Z</time>
      </trkpt>
      <trkpt lat="47.13653" lon="-1.72836">
        <ele>21.94</ele>
        <time>2020-05-20T15:44:56Z</time>
      </trkpt>
      <trkpt lat="47.13651" lon="-1.72857">
        <ele>20.99</ele>
        <time>2020-05-20T15:44:58Z</time>
      </trkpt>
      <trkpt lat="47.13649" lon="-1.72879">
        <ele>20.13</ele>
        <time>2020-05-20T15:45:00Z</time>
      </trkpt>
      <trkpt lat="47.13646" lon="-1.72901">
        <ele>19.87</ele>
        <time>2020-05-20T15:45:02Z</time>
      </trkpt>
      <trkpt lat="47.13645" lon="-1.72915">
        <ele>19.33</ele>
        <time>2020-05-20T15:45:03Z</time>
      </trkpt>
      <trkpt lat="47.13643" lon="-1.72939">
        <ele>17.88</ele>
        <time>2020-05-20T15:45:05Z</time>
      </trkpt>
      <trkpt lat="47.13641" lon="-1.72966">
        <ele>16.13</ele>
        <time>2020-05-20T15:45:07Z</time>
      </trkpt>
      <trkpt lat="47.13638" lon="-1.72993">
        <ele>14.91</ele>
        <time>2020-05-20T15:45:09Z</time>
      </trkpt>
      <trkpt lat="47.13637" lon="-1.73006">
        <ele>14.43</ele>
        <time>2020-05-20T15:45:10Z</time>
      </trkpt>
      <trkpt lat="47.13631" lon="-1.73033">
        <ele>13.22</ele>
        <time>2020-05-20T15:45:12Z</time>
      </trkpt>
      <trkpt lat="47.13618" lon="-1.73052">
        <ele>11.82</ele>
        <time>2020-05-20T15:45:14Z</time>
      </trkpt>
      <trkpt lat="47.1361" lon="-1.7306">
        <ele>11.48</ele>
        <time>2020-05-20T15:45:15Z</time>
      </trkpt>
      <trkpt lat="47.13596" lon="-1.73071">
        <ele>11.98</ele>
        <time>2020-05-20T15:45:17Z</time>
      </trkpt>
      <trkpt lat="47.13581" lon="-1.73084">
        <ele>13.4</ele>
        <time>2020-05-20T15:45:19Z</time>
      </trkpt>
      <trkpt lat="47.13567" lon="-1.73095">
        <ele>14.92</ele>
        <time>2020-05-20T15:45:21Z</time>
      </trkpt>
      <trkpt lat="47.13554" lon="-1.73108">
        <ele>16.08</ele>
        <time>2020-05-20T15:45:23Z</time>
      </trkpt>
      <trkpt lat="47.13542" lon="-1.7312">
        <ele>16.55</ele>
        <time>2020-05-20T15:45:25Z</time>
      </trkpt>
      <trkpt lat="47.13529" lon="-1.73134">
        <ele>16.09</ele>
        <time>2020-05-20T15:45:27Z</time>
      </trkpt>
      <trkpt lat="47.13517" lon="-1.7315">
        <ele>15.49</ele>
        <time>2020-05-20T15:45:29Z</time>
      </trkpt>
      <trkpt lat="47.13511" lon="-1.73173">
        <ele>15.17</ele>
        <time>2020-05-20T15:45:31Z</time>
      </trkpt>
      <trkpt lat="47.13508" lon="-1.73195">
        <ele>14.28</ele>
        <time>2020-05-20T15:45:33Z</time>
      </trkpt>
      <trkpt lat="47.13505" lon="-1.73218">
        <ele>12.27</ele>
        <time>2020-05-20T15:45:35Z</time>
      </trkpt>
      <trkpt lat="47.13503" lon="-1.73242">
        <ele>11.11</ele>
        <time>2020-05-20T15:45:37Z</time>
      </trkpt>
      <trkpt lat="47.13501" lon="-1.73263">
        <ele>11</ele>
        <time>2020-05-20T15:45:39Z</time>
      </trkpt>
      <trkpt lat="47.13499" lon="-1.73285">
        <ele>10.86</ele>
        <time>2020-05-20T15:45:41Z</time>
      </trkpt>
      <trkpt lat="47.13503" lon="-1.73308">
        <ele>9.27</ele>
        <time>2020-05-20T15:45:43Z</time>
      </trkpt>
      <trkpt lat="47.13509" lon="-1.7333">
        <ele>8.29</ele>
        <time>2020-05-20T15:45:45Z</time>
      </trkpt>
      <trkpt lat="47.13514" lon="-1.73347">
        <ele>8.18</ele>
        <time>2020-05-20T15:45:47Z</time>
      </trkpt>
      <trkpt lat="47.13519" lon="-1.73366">
        <ele>8.51</ele>
        <time>2020-05-20T15:45:49Z</time>
      </trkpt>
      <trkpt lat="47.13524" lon="-1.73383">
        <ele>8.73</ele>
        <time>2020-05-20T15:45:51Z</time>
      </trkpt>
      <trkpt lat="47.1353" lon="-1.73401">
        <ele>9</ele>
        <time>2020-05-20T15:45:53Z</time>
      </trkpt>
      <trkpt lat="47.13534" lon="-1.73415">
        <ele>9.87</ele>
        <time>2020-05-20T15:45:55Z</time>
      </trkpt>
      <trkpt lat="47.1354" lon="-1.73432">
        <ele>9.71</ele>
        <time>2020-05-20T15:45:57Z</time>
      </trkpt>
      <trkpt lat="47.13545" lon="-1.73447">
        <ele>8.76</ele>
        <time>2020-05-20T15:45:59Z</time>
      </trkpt>
      <trkpt lat="47.13551" lon="-1.73468">
        <ele>7.4</ele>
        <time>2020-05-20T15:46:01Z</time>
      </trkpt>
      <trkpt lat="47.13555" lon="-1.73484">
        <ele>6.53</ele>
        <time>2020-05-20T15:46:03Z</time>
      </trkpt>
      <trkpt lat="47.1356" lon="-1.73499">
        <ele>6.54</ele>
        <time>2020-05-20T15:46:05Z</time>
      </trkpt>
      <trkpt lat="47.13565" lon="-1.73515">
        <ele>7.41</ele>
        <time>2020-05-20T15:46:07Z</time>
      </trkpt>
      <trkpt lat="47.1357" lon="-1.73535">
        <ele>8.18</ele>
        <time>2020-05-20T15:46:09Z</time>
      </trkpt>
      <trkpt lat="47.13576" lon="-1.73552">
        <ele>9.1</ele>
        <time>2020-05-20T15:46:11Z</time>
      </trkpt>
      <trkpt lat="47.13581" lon="-1.73567">
        <ele>9.51</ele>
        <time>2020-05-20T15:46:13Z</time>
      </trkpt>
      <trkpt lat="47.13589" lon="-1.73586">
        <ele>9.98</ele>
        <time>2020-05-20T15:46:15Z</time>
      </trkpt>
      <trkpt lat="47.13598" lon="-1.73608">
        <ele>9.8</ele>
        <time>2020-05-20T15:46:17Z</time>
      </trkpt>
      <trkpt lat="47.13604" lon="-1.73625">
        <ele>9.71</ele>
        <time>2020-05-20T15:46:19Z</time>
      </trkpt>
      <trkpt lat="47.1361" lon="-1.73643">
        <ele>10.31</ele>
        <time>2020-05-20T15:46:21Z</time>
      </trkpt>
      <trkpt lat="47.13616" lon="-1.73661">
        <ele>11.46</ele>
        <time>2020-05-20T15:46:23Z</time>
      </trkpt>
      <trkpt lat="47.13622" lon="-1.7368">
        <ele>12.7</ele>
        <time>2020-05-20T15:46:25Z</time>
      </trkpt>
      <trkpt lat="47.13627" lon="-1.73696">
        <ele>13.74</ele>
        <time>2020-05-20T15:46:27Z</time>
      </trkpt>
      <trkpt lat="47.13632" lon="-1.73715">
        <ele>14.01</ele>
        <time>2020-05-20T15:46:29Z</time>
      </trkpt>
      <trkpt lat="47.13635" lon="-1.73736">
        <ele>13.36</ele>
        <time>2020-05-20T15:46:31Z</time>
      </trkpt>
      <trkpt lat="47.13638" lon="-1.73759">
        <ele>11.87</ele>
        <time>2020-05-20T15:46:33Z</time>
      </trkpt>
      <trkpt lat="47.13639" lon="-1.73782">
        <ele>10.1</ele>
        <time>2020-05-20T15:46:35Z</time>
      </trkpt>
      <trkpt lat="47.1364" lon="-1.73806">
        <ele>8.3</ele>
        <time>2020-05-20T15:46:37Z</time>
      </trkpt>
      <trkpt lat="47.13641" lon="-1.73828">
        <ele>6.62</ele>
        <time>2020-05-20T15:46:39Z</time>
      </trkpt>
      <trkpt lat="47.13642" lon="-1.7385">
        <ele>6.66</ele>
        <time>2020-05-20T15:46:41Z</time>
      </trkpt>
      <trkpt lat="47.13644" lon="-1.73872">
        <ele>6.25</ele>
        <time>2020-05-20T15:46:43Z</time>
      </trkpt>
      <trkpt lat="47.13645" lon="-1.73894">
        <ele>5.14</ele>
        <time>2020-05-20T15:46:45Z</time>
      </trkpt>
      <trkpt lat="47.13646" lon="-1.73914">
        <ele>4.5</ele>
        <time>2020-05-20T15:46:47Z</time>
      </trkpt>
      <trkpt lat="47.13646" lon="-1.73932">
        <ele>4.97</ele>
        <time>2020-05-20T15:46:49Z</time>
      </trkpt>
      <trkpt lat="47.13647" lon="-1.7395">
        <ele>5.59</ele>
        <time>2020-05-20T15:46:51Z</time>
      </trkpt>
      <trkpt lat="47.13648" lon="-1.73965">
        <ele>5.41</ele>
        <time>2020-05-20T15:46:53Z</time>
      </trkpt>
      <trkpt lat="47.13648" lon="-1.73983">
        <ele>5.89</ele>
        <time>2020-05-20T15:46:55Z</time>
      </trkpt>
      <trkpt lat="47.13647" lon="-1.74001">
        <ele>7.06</ele>
        <time>2020-05-20T15:46:57Z</time>
      </trkpt>
      <trkpt lat="47.13645" lon="-1.7402">
        <ele>8.08</ele>
        <time>2020-05-20T15:46:59Z</time>
      </trkpt>
      <trkpt lat="47.13643" lon="-1.74037">
        <ele>8.53</ele>
        <time>2020-05-20T15:47:01Z</time>
      </trkpt>
      <trkpt lat="47.13641" lon="-1.74055">
        <ele>8.57</ele>
        <time>2020-05-20T15:47:03Z</time>
      </trkpt>
      <trkpt lat="47.13639" lon="-1.74075">
        <ele>8.48</ele>
        <time>2020-05-20T15:47:05Z</time>
      </trkpt>
      <trkpt lat="47.13639" lon="-1.74093">
        <ele>8.12</ele>
        <time>2020-05-20T15:47:07Z</time>
      </trkpt>
      <trkpt lat="47.13639" lon="-1.7411">
        <ele>8.41</ele>
        <time>2020-05-20T15:47:09Z</time>
      </trkpt>
      <trkpt lat="47.13641" lon="-1.74129">
        <ele>8.59</ele>
        <time>2020-05-20T15:47:11Z</time>
      </trkpt>
      <trkpt lat="47.13643" lon="-1.74145">
        <ele>9.31</ele>
        <time>2020-05-20T15:47:13Z</time>
      </trkpt>
      <trkpt lat="47.13646" lon="-1.74165">
        <ele>10.16</ele>
        <time>2020-05-20T15:47:15Z</time>
      </trkpt>
      <trkpt lat="47.13651" lon="-1.74183">
        <ele>10.67</ele>
        <time>2020-05-20T15:47:17Z</time>
      </trkpt>
      <trkpt lat="47.13656" lon="-1.74202">
        <ele>10.85</ele>
        <time>2020-05-20T15:47:19Z</time>
      </trkpt>
      <trkpt lat="47.1366" lon="-1.7422">
        <ele>10.86</ele>
        <time>2020-05-20T15:47:21Z</time>
      </trkpt>
      <trkpt lat="47.13666" lon="-1.74238">
        <ele>10.66</ele>
        <time>2020-05-20T15:47:23Z</time>
      </trkpt>
      <trkpt lat="47.1367" lon="-1.74254">
        <ele>11.38</ele>
        <time>2020-05-20T15:47:25Z</time>
      </trkpt>
      <trkpt lat="47.13676" lon="-1.74275">
        <ele>11.42</ele>
        <time>2020-05-20T15:47:27Z</time>
      </trkpt>
      <trkpt lat="47.13682" lon="-1.74293">
        <ele>11.49</ele>
        <time>2020-05-20T15:47:29Z</time>
      </trkpt>
      <trkpt lat="47.1369" lon="-1.74312">
        <ele>11.08</ele>
        <time>2020-05-20T15:47:30Z</time>
      </trkpt>
      <trkpt lat="47.13694" lon="-1.74337">
        <ele>9.29</ele>
        <time>2020-05-20T15:47:32Z</time>
      </trkpt>
      <trkpt lat="47.13697" lon="-1.7436">
        <ele>6.67</ele>
        <time>2020-05-20T15:47:34Z</time>
      </trkpt>
      <trkpt lat="47.13697" lon="-1.74384">
        <ele>4.19</ele>
        <time>2020-05-20T15:47:36Z</time>
      </trkpt>
      <trkpt lat="47.13698" lon="-1.74398">
        <ele>3.96</ele>
        <time>2020-05-20T15:47:37Z</time>
      </trkpt>
      <trkpt lat="47.13698" lon="-1.74413">
        <ele>3.76</ele>
        <time>2020-05-20T15:47:38Z</time>
      </trkpt>
      <trkpt lat="47.13698" lon="-1.74428">
        <ele>3.41</ele>
        <time>2020-05-20T15:47:39Z</time>
      </trkpt>
      <trkpt lat="47.13694" lon="-1.74453">
        <ele>2.82</ele>
        <time>2020-05-20T15:47:41Z</time>
      </trkpt>
      <trkpt lat="47.13687" lon="-1.74465">
        <ele>2.71</ele>
        <time>2020-05-20T15:47:42Z</time>
      </trkpt>
      <trkpt lat="47.13679" lon="-1.74474">
        <ele>2.8</ele>
        <time>2020-05-20T15:47:43Z</time>
      </trkpt>
      <trkpt lat="47.13671" lon="-1.74483">
        <ele>3.23</ele>
        <time>2020-05-20T15:47:44Z</time>
      </trkpt>
      <trkpt lat="47.13663" lon="-1.74492">
        <ele>3.92</ele>
        <time>2020-05-20T15:47:45Z</time>
      </trkpt>
      <trkpt lat="47.1365" lon="-1.74507">
        <ele>4.53</ele>
        <time>2020-05-20T15:47:47Z</time>
      </trkpt>
      <trkpt lat="47.13636" lon="-1.7452">
        <ele>5.17</ele>
        <time>2020-05-20T15:47:49Z</time>
      </trkpt>
      <trkpt lat="47.13625" lon="-1.7453">
        <ele>4.99</ele>
        <time>2020-05-20T15:47:51Z</time>
      </trkpt>
      <trkpt lat="47.13614" lon="-1.74541">
        <ele>4.9</ele>
        <time>2020-05-20T15:47:53Z</time>
      </trkpt>
      <trkpt lat="47.13602" lon="-1.74553">
        <ele>5.38</ele>
        <time>2020-05-20T15:47:55Z</time>
      </trkpt>
      <trkpt lat="47.1359" lon="-1.74565">
        <ele>6.3</ele>
        <time>2020-05-20T15:47:57Z</time>
      </trkpt>
      <trkpt lat="47.13582" lon="-1.74573">
        <ele>6.97</ele>
        <time>2020-05-20T15:47:58Z</time>
      </trkpt>
      <trkpt lat="47.13574" lon="-1.74581">
        <ele>7.52</ele>
        <time>2020-05-20T15:47:59Z</time>
      </trkpt>
      <trkpt lat="47.13566" lon="-1.74589">
        <ele>7.43</ele>
        <time>2020-05-20T15:48:00Z</time>
      </trkpt>
      <trkpt lat="47.13552" lon="-1.74604">
        <ele>6.31</ele>
        <time>2020-05-20T15:48:02Z</time>
      </trkpt>
      <trkpt lat="47.13539" lon="-1.74617">
        <ele>5.98</ele>
        <time>2020-05-20T15:48:04Z</time>
      </trkpt>
      <trkpt lat="47.13527" lon="-1.74628">
        <ele>6.72</ele>
        <time>2020-05-20T15:48:06Z</time>
      </trkpt>
      <trkpt lat="47.13515" lon="-1.74639">
        <ele>6.77</ele>
        <time>2020-05-20T15:48:08Z</time>
      </trkpt>
      <trkpt lat="47.13505" lon="-1.7465">
        <ele>6.79</ele>
        <time>2020-05-20T15:48:10Z</time>
      </trkpt>
      <trkpt lat="47.13498" lon="-1.74663">
        <ele>7.38</ele>
        <time>2020-05-20T15:48:12Z</time>
      </trkpt>
      <trkpt lat="47.13491" lon="-1.74677">
        <ele>8.63</ele>
        <time>2020-05-20T15:48:14Z</time>
      </trkpt>
      <trkpt lat="47.13487" lon="-1.74691">
        <ele>9.82</ele>
        <time>2020-05-20T15:48:16Z</time>
      </trkpt>
      <trkpt lat="47.13482" lon="-1.74706">
        <ele>11.02</ele>
        <time>2020-05-20T15:48:18Z</time>
      </trkpt>
      <trkpt lat="47.13477" lon="-1.74718">
        <ele>10.43</ele>
        <time>2020-05-20T15:48:20Z</time>
      </trkpt>
      <trkpt lat="47.1347" lon="-1.74731">
        <ele>10.14</ele>
        <time>2020-05-20T15:48:22Z</time>
      </trkpt>
      <trkpt lat="47.13462" lon="-1.74741">
        <ele>9.62</ele>
        <time>2020-05-20T15:48:24Z</time>
      </trkpt>
      <trkpt lat="47.13453" lon="-1.74751">
        <ele>9.16</ele>
        <time>2020-05-20T15:48:26Z</time>
      </trkpt>
      <trkpt lat="47.13442" lon="-1.74758">
        <ele>9.46</ele>
        <time>2020-05-20T15:48:28Z</time>
      </trkpt>
      <trkpt lat="47.13433" lon="-1.74765">
        <ele>9.8</ele>
        <time>2020-05-20T15:48:30Z</time>
      </trkpt>
      <trkpt lat="47.13423" lon="-1.74773">
        <ele>9.35</ele>
        <time>2020-05-20T15:48:32Z</time>
      </trkpt>
      <trkpt lat="47.13412" lon="-1.74781">
        <ele>9.58</ele>
        <time>2020-05-20T15:48:34Z</time>
      </trkpt>
      <trkpt lat="47.13403" lon="-1.74789">
        <ele>9.45</ele>
        <time>2020-05-20T15:48:36Z</time>
      </trkpt>
      <trkpt lat="47.13396" lon="-1.74799">
        <ele>9.02</ele>
        <time>2020-05-20T15:48:38Z</time>
      </trkpt>
      <trkpt lat="47.13389" lon="-1.74813">
        <ele>9.43</ele>
        <time>2020-05-20T15:48:40Z</time>
      </trkpt>
      <trkpt lat="47.13383" lon="-1.74828">
        <ele>10.2</ele>
        <time>2020-05-20T15:48:42Z</time>
      </trkpt>
      <trkpt lat="47.13379" lon="-1.74841">
        <ele>9.84</ele>
        <time>2020-05-20T15:48:44Z</time>
      </trkpt>
      <trkpt lat="47.13374" lon="-1.74854">
        <ele>10.37</ele>
        <time>2020-05-20T15:48:46Z</time>
      </trkpt>
      <trkpt lat="47.1337" lon="-1.74868">
        <ele>10.95</ele>
        <time>2020-05-20T15:48:48Z</time>
      </trkpt>
      <trkpt lat="47.13366" lon="-1.74887">
        <ele>9.72</ele>
        <time>2020-05-20T15:48:50Z</time>
      </trkpt>
      <trkpt lat="47.13362" lon="-1.74901">
        <ele>9.94</ele>
        <time>2020-05-20T15:48:52Z</time>
      </trkpt>
      <trkpt lat="47.13356" lon="-1.74916">
        <ele>11.06</ele>
        <time>2020-05-20T15:48:54Z</time>
      </trkpt>
      <trkpt lat="47.13351" lon="-1.7493">
        <ele>11.75</ele>
        <time>2020-05-20T15:48:56Z</time>
      </trkpt>
      <trkpt lat="47.13346" lon="-1.74943">
        <ele>11.75</ele>
        <time>2020-05-20T15:48:58Z</time>
      </trkpt>
      <trkpt lat="47.13339" lon="-1.74958">
        <ele>10.75</ele>
        <time>2020-05-20T15:49:00Z</time>
      </trkpt>
      <trkpt lat="47.13333" lon="-1.74972">
        <ele>9.93</ele>
        <time>2020-05-20T15:49:02Z</time>
      </trkpt>
      <trkpt lat="47.13326" lon="-1.74985">
        <ele>9.32</ele>
        <time>2020-05-20T15:49:04Z</time>
      </trkpt>
      <trkpt lat="47.13319" lon="-1.74995">
        <ele>9.03</ele>
        <time>2020-05-20T15:49:06Z</time>
      </trkpt>
      <trkpt lat="47.13309" lon="-1.75005">
        <ele>8.74</ele>
        <time>2020-05-20T15:49:08Z</time>
      </trkpt>
      <trkpt lat="47.13297" lon="-1.75015">
        <ele>9.52</ele>
        <time>2020-05-20T15:49:10Z</time>
      </trkpt>
      <trkpt lat="47.13286" lon="-1.75023">
        <ele>10.74</ele>
        <time>2020-05-20T15:49:12Z</time>
      </trkpt>
      <trkpt lat="47.13276" lon="-1.7503">
        <ele>11.28</ele>
        <time>2020-05-20T15:49:14Z</time>
      </trkpt>
      <trkpt lat="47.13265" lon="-1.75038">
        <ele>11.9</ele>
        <time>2020-05-20T15:49:16Z</time>
      </trkpt>
      <trkpt lat="47.13254" lon="-1.75046">
        <ele>12.29</ele>
        <time>2020-05-20T15:49:18Z</time>
      </trkpt>
      <trkpt lat="47.13244" lon="-1.75054">
        <ele>13.56</ele>
        <time>2020-05-20T15:49:20Z</time>
      </trkpt>
      <trkpt lat="47.13235" lon="-1.75064">
        <ele>14.56</ele>
        <time>2020-05-20T15:49:22Z</time>
      </trkpt>
      <trkpt lat="47.13223" lon="-1.75076">
        <ele>14.65</ele>
        <time>2020-05-20T15:49:24Z</time>
      </trkpt>
      <trkpt lat="47.13213" lon="-1.75087">
        <ele>15.68</ele>
        <time>2020-05-20T15:49:26Z</time>
      </trkpt>
      <trkpt lat="47.13203" lon="-1.75101">
        <ele>17.36</ele>
        <time>2020-05-20T15:49:28Z</time>
      </trkpt>
      <trkpt lat="47.13195" lon="-1.75114">
        <ele>18.86</ele>
        <time>2020-05-20T15:49:30Z</time>
      </trkpt>
      <trkpt lat="47.13186" lon="-1.75129">
        <ele>19.53</ele>
        <time>2020-05-20T15:49:32Z</time>
      </trkpt>
      <trkpt lat="47.13178" lon="-1.75145">
        <ele>20.15</ele>
        <time>2020-05-20T15:49:34Z</time>
      </trkpt>
      <trkpt lat="47.1317" lon="-1.75162">
        <ele>20.85</ele>
        <time>2020-05-20T15:49:36Z</time>
      </trkpt>
      <trkpt lat="47.13163" lon="-1.7518">
        <ele>21.4</ele>
        <time>2020-05-20T15:49:38Z</time>
      </trkpt>
      <trkpt lat="47.13157" lon="-1.75198">
        <ele>20.97</ele>
        <time>2020-05-20T15:49:40Z</time>
      </trkpt>
      <trkpt lat="47.13152" lon="-1.75218">
        <ele>20.05</ele>
        <time>2020-05-20T15:49:42Z</time>
      </trkpt>
      <trkpt lat="47.13149" lon="-1.75234">
        <ele>19.58</ele>
        <time>2020-05-20T15:49:44Z</time>
      </trkpt>
      <trkpt lat="47.13145" lon="-1.75254">
        <ele>18.36</ele>
        <time>2020-05-20T15:49:46Z</time>
      </trkpt>
      <trkpt lat="47.13144" lon="-1.75273">
        <ele>18.08</ele>
        <time>2020-05-20T15:49:48Z</time>
      </trkpt>
      <trkpt lat="47.13143" lon="-1.75294">
        <ele>18.13</ele>
        <time>2020-05-20T15:49:50Z</time>
      </trkpt>
      <trkpt lat="47.1314" lon="-1.75311">
        <ele>17.77</ele>
        <time>2020-05-20T15:49:52Z</time>
      </trkpt>
      <trkpt lat="47.13136" lon="-1.75326">
        <ele>18.11</ele>
        <time>2020-05-20T15:49:54Z</time>
      </trkpt>
      <trkpt lat="47.13132" lon="-1.75342">
        <ele>18.79</ele>
        <time>2020-05-20T15:49:56Z</time>
      </trkpt>
      <trkpt lat="47.13128" lon="-1.7536">
        <ele>19.47</ele>
        <time>2020-05-20T15:49:58Z</time>
      </trkpt>
      <trkpt lat="47.13124" lon="-1.75378">
        <ele>20.14</ele>
        <time>2020-05-20T15:50:00Z</time>
      </trkpt>
      <trkpt lat="47.1312" lon="-1.75396">
        <ele>20.95</ele>
        <time>2020-05-20T15:50:02Z</time>
      </trkpt>
      <trkpt lat="47.13117" lon="-1.7541">
        <ele>21.79</ele>
        <time>2020-05-20T15:50:04Z</time>
      </trkpt>
      <trkpt lat="47.13113" lon="-1.75423">
        <ele>22.3</ele>
        <time>2020-05-20T15:50:06Z</time>
      </trkpt>
      <trkpt lat="47.13115" lon="-1.75442">
        <ele>21.92</ele>
        <time>2020-05-20T15:50:10Z</time>
      </trkpt>
      <trkpt lat="47.13111" lon="-1.75457">
        <ele>21.66</ele>
        <time>2020-05-20T15:50:12Z</time>
      </trkpt>
      <trkpt lat="47.13106" lon="-1.75476">
        <ele>21.51</ele>
        <time>2020-05-20T15:50:14Z</time>
      </trkpt>
      <trkpt lat="47.13105" lon="-1.75495">
        <ele>21.71</ele>
        <time>2020-05-20T15:50:16Z</time>
      </trkpt>
      <trkpt lat="47.13104" lon="-1.75513">
        <ele>22.65</ele>
        <time>2020-05-20T15:50:18Z</time>
      </trkpt>
      <trkpt lat="47.13102" lon="-1.75529">
        <ele>23.12</ele>
        <time>2020-05-20T15:50:20Z</time>
      </trkpt>
      <trkpt lat="47.13098" lon="-1.75546">
        <ele>22.65</ele>
        <time>2020-05-20T15:50:22Z</time>
      </trkpt>
      <trkpt lat="47.13096" lon="-1.75562">
        <ele>22.8</ele>
        <time>2020-05-20T15:50:24Z</time>
      </trkpt>
      <trkpt lat="47.13092" lon="-1.75577">
        <ele>23.54</ele>
        <time>2020-05-20T15:50:26Z</time>
      </trkpt>
      <trkpt lat="47.13089" lon="-1.75595">
        <ele>24.14</ele>
        <time>2020-05-20T15:50:28Z</time>
      </trkpt>
      <trkpt lat="47.13085" lon="-1.75614">
        <ele>24.83</ele>
        <time>2020-05-20T15:50:30Z</time>
      </trkpt>
      <trkpt lat="47.13081" lon="-1.75634">
        <ele>25.55</ele>
        <time>2020-05-20T15:50:32Z</time>
      </trkpt>
      <trkpt lat="47.13078" lon="-1.75653">
        <ele>26.19</ele>
        <time>2020-05-20T15:50:34Z</time>
      </trkpt>
      <trkpt lat="47.13075" lon="-1.75672">
        <ele>26.66</ele>
        <time>2020-05-20T15:50:36Z</time>
      </trkpt>
      <trkpt lat="47.13071" lon="-1.7569">
        <ele>26.4</ele>
        <time>2020-05-20T15:50:38Z</time>
      </trkpt>
      <trkpt lat="47.13067" lon="-1.75709">
        <ele>26.37</ele>
        <time>2020-05-20T15:50:40Z</time>
      </trkpt>
      <trkpt lat="47.13063" lon="-1.75726">
        <ele>26.95</ele>
        <time>2020-05-20T15:50:42Z</time>
      </trkpt>
      <trkpt lat="47.13057" lon="-1.75743">
        <ele>26.85</ele>
        <time>2020-05-20T15:50:44Z</time>
      </trkpt>
      <trkpt lat="47.1305" lon="-1.75756">
        <ele>26.42</ele>
        <time>2020-05-20T15:50:46Z</time>
      </trkpt>
      <trkpt lat="47.13042" lon="-1.75769">
        <ele>26.77</ele>
        <time>2020-05-20T15:50:48Z</time>
      </trkpt>
      <trkpt lat="47.13033" lon="-1.75782">
        <ele>27.5</ele>
        <time>2020-05-20T15:50:50Z</time>
      </trkpt>
      <trkpt lat="47.13024" lon="-1.75796">
        <ele>28.33</ele>
        <time>2020-05-20T15:50:52Z</time>
      </trkpt>
      <trkpt lat="47.13015" lon="-1.75808">
        <ele>28.56</ele>
        <time>2020-05-20T15:50:54Z</time>
      </trkpt>
      <trkpt lat="47.13007" lon="-1.75823">
        <ele>28.26</ele>
        <time>2020-05-20T15:50:56Z</time>
      </trkpt>
      <trkpt lat="47.13005" lon="-1.75843">
        <ele>27.45</ele>
        <time>2020-05-20T15:50:58Z</time>
      </trkpt>
      <trkpt lat="47.13007" lon="-1.75862">
        <ele>26.99</ele>
        <time>2020-05-20T15:51:00Z</time>
      </trkpt>
      <trkpt lat="47.13008" lon="-1.7588">
        <ele>27.01</ele>
        <time>2020-05-20T15:51:02Z</time>
      </trkpt>
      <trkpt lat="47.13007" lon="-1.75899">
        <ele>26.84</ele>
        <time>2020-05-20T15:51:04Z</time>
      </trkpt>
      <trkpt lat="47.13005" lon="-1.75916">
        <ele>26.67</ele>
        <time>2020-05-20T15:51:06Z</time>
      </trkpt>
      <trkpt lat="47.13001" lon="-1.75929">
        <ele>26.67</ele>
        <time>2020-05-20T15:51:08Z</time>
      </trkpt>
      <trkpt lat="47.12998" lon="-1.75944">
        <ele>27.2</ele>
        <time>2020-05-20T15:51:10Z</time>
      </trkpt>
      <trkpt lat="47.12993" lon="-1.75964">
        <ele>28.88</ele>
        <time>2020-05-20T15:51:12Z</time>
      </trkpt>
      <trkpt lat="47.1299" lon="-1.75979">
        <ele>30.01</ele>
        <time>2020-05-20T15:51:14Z</time>
      </trkpt>
      <trkpt lat="47.12987" lon="-1.75995">
        <ele>30.45</ele>
        <time>2020-05-20T15:51:16Z</time>
      </trkpt>
      <trkpt lat="47.12984" lon="-1.76014">
        <ele>31.04</ele>
        <time>2020-05-20T15:51:18Z</time>
      </trkpt>
      <trkpt lat="47.12982" lon="-1.76029">
        <ele>31.92</ele>
        <time>2020-05-20T15:51:20Z</time>
      </trkpt>
      <trkpt lat="47.12981" lon="-1.76049">
        <ele>31.83</ele>
        <time>2020-05-20T15:51:22Z</time>
      </trkpt>
      <trkpt lat="47.12979" lon="-1.76067">
        <ele>31.46</ele>
        <time>2020-05-20T15:51:24Z</time>
      </trkpt>
      <trkpt lat="47.12979" lon="-1.76084">
        <ele>31.76</ele>
        <time>2020-05-20T15:51:26Z</time>
      </trkpt>
      <trkpt lat="47.1298" lon="-1.76101">
        <ele>31.46</ele>
        <time>2020-05-20T15:51:28Z</time>
      </trkpt>
      <trkpt lat="47.12983" lon="-1.76117">
        <ele>31.66</ele>
        <time>2020-05-20T15:51:30Z</time>
      </trkpt>
      <trkpt lat="47.12986" lon="-1.76134">
        <ele>32.49</ele>
        <time>2020-05-20T15:51:32Z</time>
      </trkpt>
      <trkpt lat="47.1299" lon="-1.76152">
        <ele>32.39</ele>
        <time>2020-05-20T15:51:34Z</time>
      </trkpt>
      <trkpt lat="47.12995" lon="-1.76171">
        <ele>31.98</ele>
        <time>2020-05-20T15:51:36Z</time>
      </trkpt>
      <trkpt lat="47.13" lon="-1.76187">
        <ele>32.4</ele>
        <time>2020-05-20T15:51:38Z</time>
      </trkpt>
      <trkpt lat="47.13005" lon="-1.76203">
        <ele>32.6</ele>
        <time>2020-05-20T15:51:40Z</time>
      </trkpt>
      <trkpt lat="47.13011" lon="-1.76221">
        <ele>32.32</ele>
        <time>2020-05-20T15:51:42Z</time>
      </trkpt>
      <trkpt lat="47.13016" lon="-1.76239">
        <ele>31.93</ele>
        <time>2020-05-20T15:51:44Z</time>
      </trkpt>
      <trkpt lat="47.1302" lon="-1.76254">
        <ele>32.03</ele>
        <time>2020-05-20T15:51:46Z</time>
      </trkpt>
      <trkpt lat="47.13025" lon="-1.76272">
        <ele>32.05</ele>
        <time>2020-05-20T15:51:48Z</time>
      </trkpt>
      <trkpt lat="47.13029" lon="-1.76291">
        <ele>31.91</ele>
        <time>2020-05-20T15:51:50Z</time>
      </trkpt>
      <trkpt lat="47.13033" lon="-1.7631">
        <ele>31.09</ele>
        <time>2020-05-20T15:51:52Z</time>
      </trkpt>
      <trkpt lat="47.13037" lon="-1.76328">
        <ele>30.18</ele>
        <time>2020-05-20T15:51:54Z</time>
      </trkpt>
      <trkpt lat="47.1304" lon="-1.76346">
        <ele>30.04</ele>
        <time>2020-05-20T15:51:56Z</time>
      </trkpt>
      <trkpt lat="47.13044" lon="-1.76366">
        <ele>29.43</ele>
        <time>2020-05-20T15:51:58Z</time>
      </trkpt>
      <trkpt lat="47.13047" lon="-1.76384">
        <ele>28.83</ele>
        <time>2020-05-20T15:52:00Z</time>
      </trkpt>
      <trkpt lat="47.1305" lon="-1.76404">
        <ele>27.84</ele>
        <time>2020-05-20T15:52:02Z</time>
      </trkpt>
      <trkpt lat="47.13051" lon="-1.76424">
        <ele>26.95</ele>
        <time>2020-05-20T15:52:04Z</time>
      </trkpt>
      <trkpt lat="47.13053" lon="-1.76445">
        <ele>26.41</ele>
        <time>2020-05-20T15:52:06Z</time>
      </trkpt>
      <trkpt lat="47.13054" lon="-1.76466">
        <ele>26.46</ele>
        <time>2020-05-20T15:52:08Z</time>
      </trkpt>
      <trkpt lat="47.13055" lon="-1.76488">
        <ele>26.94</ele>
        <time>2020-05-20T15:52:10Z</time>
      </trkpt>
      <trkpt lat="47.13056" lon="-1.76508">
        <ele>28.21</ele>
        <time>2020-05-20T15:52:12Z</time>
      </trkpt>
      <trkpt lat="47.13057" lon="-1.76529">
        <ele>28.67</ele>
        <time>2020-05-20T15:52:14Z</time>
      </trkpt>
      <trkpt lat="47.13058" lon="-1.7655">
        <ele>29</ele>
        <time>2020-05-20T15:52:16Z</time>
      </trkpt>
      <trkpt lat="47.13059" lon="-1.76572">
        <ele>28.03</ele>
        <time>2020-05-20T15:52:18Z</time>
      </trkpt>
      <trkpt lat="47.1306" lon="-1.76592">
        <ele>27.41</ele>
        <time>2020-05-20T15:52:20Z</time>
      </trkpt>
      <trkpt lat="47.13061" lon="-1.7661">
        <ele>26.52</ele>
        <time>2020-05-20T15:52:22Z</time>
      </trkpt>
      <trkpt lat="47.13063" lon="-1.76632">
        <ele>25.62</ele>
        <time>2020-05-20T15:52:24Z</time>
      </trkpt>
      <trkpt lat="47.13066" lon="-1.76654">
        <ele>25.05</ele>
        <time>2020-05-20T15:52:26Z</time>
      </trkpt>
      <trkpt lat="47.13068" lon="-1.76676">
        <ele>24.86</ele>
        <time>2020-05-20T15:52:28Z</time>
      </trkpt>
      <trkpt lat="47.1307" lon="-1.76692">
        <ele>24.77</ele>
        <time>2020-05-20T15:52:30Z</time>
      </trkpt>
      <trkpt lat="47.13069" lon="-1.76713">
        <ele>25.02</ele>
        <time>2020-05-20T15:52:32Z</time>
      </trkpt>
      <trkpt lat="47.13067" lon="-1.76732">
        <ele>25.36</ele>
        <time>2020-05-20T15:52:34Z</time>
      </trkpt>
      <trkpt lat="47.13065" lon="-1.7675">
        <ele>26.2</ele>
        <time>2020-05-20T15:52:36Z</time>
      </trkpt>
      <trkpt lat="47.13062" lon="-1.7677">
        <ele>27.08</ele>
        <time>2020-05-20T15:52:38Z</time>
      </trkpt>
      <trkpt lat="47.13059" lon="-1.76789">
        <ele>27.54</ele>
        <time>2020-05-20T15:52:40Z</time>
      </trkpt>
      <trkpt lat="47.13056" lon="-1.7681">
        <ele>27</ele>
        <time>2020-05-20T15:52:42Z</time>
      </trkpt>
      <trkpt lat="47.13053" lon="-1.76833">
        <ele>25.98</ele>
        <time>2020-05-20T15:52:44Z</time>
      </trkpt>
      <trkpt lat="47.13051" lon="-1.76853">
        <ele>26.01</ele>
        <time>2020-05-20T15:52:46Z</time>
      </trkpt>
      <trkpt lat="47.13048" lon="-1.76871">
        <ele>26.73</ele>
        <time>2020-05-20T15:52:48Z</time>
      </trkpt>
      <trkpt lat="47.13046" lon="-1.7689">
        <ele>27.32</ele>
        <time>2020-05-20T15:52:50Z</time>
      </trkpt>
      <trkpt lat="47.13044" lon="-1.7691">
        <ele>27.27</ele>
        <time>2020-05-20T15:52:52Z</time>
      </trkpt>
      <trkpt lat="47.13041" lon="-1.76931">
        <ele>27.24</ele>
        <time>2020-05-20T15:52:54Z</time>
      </trkpt>
      <trkpt lat="47.1304" lon="-1.76952">
        <ele>27.41</ele>
        <time>2020-05-20T15:52:56Z</time>
      </trkpt>
      <trkpt lat="47.13038" lon="-1.76973">
        <ele>27.43</ele>
        <time>2020-05-20T15:52:58Z</time>
      </trkpt>
      <trkpt lat="47.13038" lon="-1.76994">
        <ele>26.85</ele>
        <time>2020-05-20T15:53:00Z</time>
      </trkpt>
      <trkpt lat="47.13037" lon="-1.77011">
        <ele>26.28</ele>
        <time>2020-05-20T15:53:02Z</time>
      </trkpt>
      <trkpt lat="47.13036" lon="-1.77029">
        <ele>26.67</ele>
        <time>2020-05-20T15:53:04Z</time>
      </trkpt>
      <trkpt lat="47.13035" lon="-1.77049">
        <ele>27.04</ele>
        <time>2020-05-20T15:53:06Z</time>
      </trkpt>
      <trkpt lat="47.13034" lon="-1.77069">
        <ele>27.32</ele>
        <time>2020-05-20T15:53:08Z</time>
      </trkpt>
      <trkpt lat="47.13032" lon="-1.77087">
        <ele>26.95</ele>
        <time>2020-05-20T15:53:10Z</time>
      </trkpt>
      <trkpt lat="47.13031" lon="-1.77106">
        <ele>27.06</ele>
        <time>2020-05-20T15:53:12Z</time>
      </trkpt>
      <trkpt lat="47.13028" lon="-1.77127">
        <ele>28.06</ele>
        <time>2020-05-20T15:53:14Z</time>
      </trkpt>
      <trkpt lat="47.13025" lon="-1.77146">
        <ele>28.76</ele>
        <time>2020-05-20T15:53:16Z</time>
      </trkpt>
      <trkpt lat="47.13021" lon="-1.77166">
        <ele>28.65</ele>
        <time>2020-05-20T15:53:18Z</time>
      </trkpt>
      <trkpt lat="47.13017" lon="-1.77187">
        <ele>28.84</ele>
        <time>2020-05-20T15:53:20Z</time>
      </trkpt>
      <trkpt lat="47.13013" lon="-1.77205">
        <ele>28.86</ele>
        <time>2020-05-20T15:53:22Z</time>
      </trkpt>
      <trkpt lat="47.13009" lon="-1.77222">
        <ele>28.74</ele>
        <time>2020-05-20T15:53:24Z</time>
      </trkpt>
      <trkpt lat="47.13004" lon="-1.77241">
        <ele>28.85</ele>
        <time>2020-05-20T15:53:26Z</time>
      </trkpt>
      <trkpt lat="47.12998" lon="-1.77262">
        <ele>28.96</ele>
        <time>2020-05-20T15:53:28Z</time>
      </trkpt>
      <trkpt lat="47.12992" lon="-1.77281">
        <ele>29.82</ele>
        <time>2020-05-20T15:53:30Z</time>
      </trkpt>
      <trkpt lat="47.12986" lon="-1.77299">
        <ele>30.48</ele>
        <time>2020-05-20T15:53:32Z</time>
      </trkpt>
      <trkpt lat="47.12979" lon="-1.77316">
        <ele>30.76</ele>
        <time>2020-05-20T15:53:34Z</time>
      </trkpt>
      <trkpt lat="47.12972" lon="-1.77334">
        <ele>30.97</ele>
        <time>2020-05-20T15:53:36Z</time>
      </trkpt>
      <trkpt lat="47.12965" lon="-1.77351">
        <ele>31.17</ele>
        <time>2020-05-20T15:53:38Z</time>
      </trkpt>
      <trkpt lat="47.12957" lon="-1.77369">
        <ele>30.43</ele>
        <time>2020-05-20T15:53:40Z</time>
      </trkpt>
      <trkpt lat="47.12949" lon="-1.77389">
        <ele>30.01</ele>
        <time>2020-05-20T15:53:42Z</time>
      </trkpt>
      <trkpt lat="47.12941" lon="-1.7741">
        <ele>30.65</ele>
        <time>2020-05-20T15:53:44Z</time>
      </trkpt>
      <trkpt lat="47.12934" lon="-1.77426">
        <ele>31.25</ele>
        <time>2020-05-20T15:53:46Z</time>
      </trkpt>
      <trkpt lat="47.12927" lon="-1.77444">
        <ele>31.29</ele>
        <time>2020-05-20T15:53:48Z</time>
      </trkpt>
      <trkpt lat="47.1292" lon="-1.77465">
        <ele>31.04</ele>
        <time>2020-05-20T15:53:50Z</time>
      </trkpt>
      <trkpt lat="47.12913" lon="-1.77484">
        <ele>30.68</ele>
        <time>2020-05-20T15:53:52Z</time>
      </trkpt>
      <trkpt lat="47.12908" lon="-1.77504">
        <ele>30.89</ele>
        <time>2020-05-20T15:53:54Z</time>
      </trkpt>
      <trkpt lat="47.12902" lon="-1.77526">
        <ele>31.24</ele>
        <time>2020-05-20T15:53:56Z</time>
      </trkpt>
      <trkpt lat="47.12897" lon="-1.77547">
        <ele>31.05</ele>
        <time>2020-05-20T15:53:58Z</time>
      </trkpt>
      <trkpt lat="47.12893" lon="-1.77564">
        <ele>29.87</ele>
        <time>2020-05-20T15:54:00Z</time>
      </trkpt>
      <trkpt lat="47.12888" lon="-1.77583">
        <ele>28.89</ele>
        <time>2020-05-20T15:54:02Z</time>
      </trkpt>
      <trkpt lat="47.12884" lon="-1.77602">
        <ele>28.65</ele>
        <time>2020-05-20T15:54:04Z</time>
      </trkpt>
      <trkpt lat="47.12881" lon="-1.77618">
        <ele>29.5</ele>
        <time>2020-05-20T15:54:06Z</time>
      </trkpt>
      <trkpt lat="47.12878" lon="-1.77637">
        <ele>30.17</ele>
        <time>2020-05-20T15:54:08Z</time>
      </trkpt>
      <trkpt lat="47.12874" lon="-1.77656">
        <ele>30.06</ele>
        <time>2020-05-20T15:54:10Z</time>
      </trkpt>
      <trkpt lat="47.1287" lon="-1.77674">
        <ele>31.02</ele>
        <time>2020-05-20T15:54:12Z</time>
      </trkpt>
      <trkpt lat="47.12865" lon="-1.77694">
        <ele>31.04</ele>
        <time>2020-05-20T15:54:14Z</time>
      </trkpt>
      <trkpt lat="47.12861" lon="-1.77712">
        <ele>30</ele>
        <time>2020-05-20T15:54:16Z</time>
      </trkpt>
      <trkpt lat="47.12856" lon="-1.77734">
        <ele>29.63</ele>
        <time>2020-05-20T15:54:18Z</time>
      </trkpt>
      <trkpt lat="47.1285" lon="-1.77755">
        <ele>31.09</ele>
        <time>2020-05-20T15:54:20Z</time>
      </trkpt>
      <trkpt lat="47.12844" lon="-1.77776">
        <ele>32.37</ele>
        <time>2020-05-20T15:54:22Z</time>
      </trkpt>
      <trkpt lat="47.12837" lon="-1.77793">
        <ele>33.11</ele>
        <time>2020-05-20T15:54:24Z</time>
      </trkpt>
      <trkpt lat="47.1283" lon="-1.77811">
        <ele>32.71</ele>
        <time>2020-05-20T15:54:26Z</time>
      </trkpt>
      <trkpt lat="47.12822" lon="-1.7783">
        <ele>32.09</ele>
        <time>2020-05-20T15:54:28Z</time>
      </trkpt>
      <trkpt lat="47.12814" lon="-1.77847">
        <ele>31.88</ele>
        <time>2020-05-20T15:54:30Z</time>
      </trkpt>
      <trkpt lat="47.12806" lon="-1.77866">
        <ele>31.69</ele>
        <time>2020-05-20T15:54:32Z</time>
      </trkpt>
      <trkpt lat="47.12798" lon="-1.77884">
        <ele>31.36</ele>
        <time>2020-05-20T15:54:34Z</time>
      </trkpt>
      <trkpt lat="47.12792" lon="-1.77904">
        <ele>31.05</ele>
        <time>2020-05-20T15:54:36Z</time>
      </trkpt>
      <trkpt lat="47.12787" lon="-1.77922">
        <ele>30.68</ele>
        <time>2020-05-20T15:54:38Z</time>
      </trkpt>
      <trkpt lat="47.12781" lon="-1.77943">
        <ele>30.18</ele>
        <time>2020-05-20T15:54:40Z</time>
      </trkpt>
      <trkpt lat="47.12776" lon="-1.77962">
        <ele>29.74</ele>
        <time>2020-05-20T15:54:42Z</time>
      </trkpt>
      <trkpt lat="47.12771" lon="-1.77981">
        <ele>29.83</ele>
        <time>2020-05-20T15:54:44Z</time>
      </trkpt>
      <trkpt lat="47.12766" lon="-1.78001">
        <ele>30.6</ele>
        <time>2020-05-20T15:54:46Z</time>
      </trkpt>
      <trkpt lat="47.1276" lon="-1.7802">
        <ele>30.56</ele>
        <time>2020-05-20T15:54:48Z</time>
      </trkpt>
      <trkpt lat="47.12754" lon="-1.78039">
        <ele>30.79</ele>
        <time>2020-05-20T15:54:50Z</time>
      </trkpt>
      <trkpt lat="47.12747" lon="-1.78054">
        <ele>30.65</ele>
        <time>2020-05-20T15:54:52Z</time>
      </trkpt>
      <trkpt lat="47.12736" lon="-1.78072">
        <ele>30.9</ele>
        <time>2020-05-20T15:54:54Z</time>
      </trkpt>
      <trkpt lat="47.12726" lon="-1.78088">
        <ele>30.28</ele>
        <time>2020-05-20T15:54:56Z</time>
      </trkpt>
      <trkpt lat="47.12715" lon="-1.78103">
        <ele>30.19</ele>
        <time>2020-05-20T15:54:58Z</time>
      </trkpt>
      <trkpt lat="47.12704" lon="-1.78118">
        <ele>30.66</ele>
        <time>2020-05-20T15:55:00Z</time>
      </trkpt>
      <trkpt lat="47.12693" lon="-1.78134">
        <ele>31.24</ele>
        <time>2020-05-20T15:55:02Z</time>
      </trkpt>
      <trkpt lat="47.12683" lon="-1.78147">
        <ele>30.7</ele>
        <time>2020-05-20T15:55:04Z</time>
      </trkpt>
      <trkpt lat="47.12673" lon="-1.7816">
        <ele>30.48</ele>
        <time>2020-05-20T15:55:06Z</time>
      </trkpt>
      <trkpt lat="47.12663" lon="-1.78173">
        <ele>30.67</ele>
        <time>2020-05-20T15:55:08Z</time>
      </trkpt>
      <trkpt lat="47.12653" lon="-1.78188">
        <ele>30.2</ele>
        <time>2020-05-20T15:55:10Z</time>
      </trkpt>
      <trkpt lat="47.12642" lon="-1.78203">
        <ele>29.77</ele>
        <time>2020-05-20T15:55:12Z</time>
      </trkpt>
      <trkpt lat="47.12633" lon="-1.78218">
        <ele>30.15</ele>
        <time>2020-05-20T15:55:14Z</time>
      </trkpt>
      <trkpt lat="47.12625" lon="-1.78234">
        <ele>29.6</ele>
        <time>2020-05-20T15:55:16Z</time>
      </trkpt>
      <trkpt lat="47.12619" lon="-1.78255">
        <ele>29.17</ele>
        <time>2020-05-20T15:55:18Z</time>
      </trkpt>
      <trkpt lat="47.12613" lon="-1.78278">
        <ele>28.89</ele>
        <time>2020-05-20T15:55:20Z</time>
      </trkpt>
      <trkpt lat="47.12608" lon="-1.78301">
        <ele>28.75</ele>
        <time>2020-05-20T15:55:22Z</time>
      </trkpt>
      <trkpt lat="47.12604" lon="-1.78323">
        <ele>28.98</ele>
        <time>2020-05-20T15:55:24Z</time>
      </trkpt>
      <trkpt lat="47.12599" lon="-1.78344">
        <ele>29.89</ele>
        <time>2020-05-20T15:55:26Z</time>
      </trkpt>
      <trkpt lat="47.12594" lon="-1.78364">
        <ele>30.16</ele>
        <time>2020-05-20T15:55:28Z</time>
      </trkpt>
      <trkpt lat="47.12589" lon="-1.78386">
        <ele>30.07</ele>
        <time>2020-05-20T15:55:30Z</time>
      </trkpt>
      <trkpt lat="47.12585" lon="-1.78407">
        <ele>29.82</ele>
        <time>2020-05-20T15:55:32Z</time>
      </trkpt>
      <trkpt lat="47.1258" lon="-1.78428">
        <ele>29.44</ele>
        <time>2020-05-20T15:55:34Z</time>
      </trkpt>
      <trkpt lat="47.12575" lon="-1.78448">
        <ele>29.46</ele>
        <time>2020-05-20T15:55:36Z</time>
      </trkpt>
      <trkpt lat="47.1257" lon="-1.78469">
        <ele>29.87</ele>
        <time>2020-05-20T15:55:38Z</time>
      </trkpt>
      <trkpt lat="47.12565" lon="-1.7849">
        <ele>29.51</ele>
        <time>2020-05-20T15:55:40Z</time>
      </trkpt>
      <trkpt lat="47.1256" lon="-1.78512">
        <ele>28.28</ele>
        <time>2020-05-20T15:55:42Z</time>
      </trkpt>
      <trkpt lat="47.12555" lon="-1.78533">
        <ele>27.86</ele>
        <time>2020-05-20T15:55:44Z</time>
      </trkpt>
      <trkpt lat="47.12549" lon="-1.78556">
        <ele>27.63</ele>
        <time>2020-05-20T15:55:46Z</time>
      </trkpt>
      <trkpt lat="47.12543" lon="-1.78577">
        <ele>27.52</ele>
        <time>2020-05-20T15:55:48Z</time>
      </trkpt>
      <trkpt lat="47.12537" lon="-1.786">
        <ele>27.05</ele>
        <time>2020-05-20T15:55:50Z</time>
      </trkpt>
      <trkpt lat="47.12532" lon="-1.7862">
        <ele>26.85</ele>
        <time>2020-05-20T15:55:52Z</time>
      </trkpt>
      <trkpt lat="47.12527" lon="-1.78639">
        <ele>26.57</ele>
        <time>2020-05-20T15:55:54Z</time>
      </trkpt>
      <trkpt lat="47.1252" lon="-1.78661">
        <ele>25.9</ele>
        <time>2020-05-20T15:55:56Z</time>
      </trkpt>
      <trkpt lat="47.12513" lon="-1.78678">
        <ele>25.45</ele>
        <time>2020-05-20T15:55:58Z</time>
      </trkpt>
      <trkpt lat="47.12507" lon="-1.78696">
        <ele>25.14</ele>
        <time>2020-05-20T15:56:00Z</time>
      </trkpt>
      <trkpt lat="47.12499" lon="-1.78716">
        <ele>24.62</ele>
        <time>2020-05-20T15:56:02Z</time>
      </trkpt>
      <trkpt lat="47.12493" lon="-1.78735">
        <ele>24.39</ele>
        <time>2020-05-20T15:56:04Z</time>
      </trkpt>
      <trkpt lat="47.12488" lon="-1.78754">
        <ele>24.3</ele>
        <time>2020-05-20T15:56:06Z</time>
      </trkpt>
      <trkpt lat="47.12484" lon="-1.78776">
        <ele>24.23</ele>
        <time>2020-05-20T15:56:08Z</time>
      </trkpt>
      <trkpt lat="47.12479" lon="-1.78796">
        <ele>24.82</ele>
        <time>2020-05-20T15:56:10Z</time>
      </trkpt>
      <trkpt lat="47.12475" lon="-1.78817">
        <ele>24.78</ele>
        <time>2020-05-20T15:56:12Z</time>
      </trkpt>
      <trkpt lat="47.12471" lon="-1.78837">
        <ele>24.18</ele>
        <time>2020-05-20T15:56:14Z</time>
      </trkpt>
      <trkpt lat="47.12468" lon="-1.78856">
        <ele>23.9</ele>
        <time>2020-05-20T15:56:16Z</time>
      </trkpt>
      <trkpt lat="47.12466" lon="-1.78877">
        <ele>24.14</ele>
        <time>2020-05-20T15:56:18Z</time>
      </trkpt>
      <trkpt lat="47.12465" lon="-1.78898">
        <ele>24.62</ele>
        <time>2020-05-20T15:56:20Z</time>
      </trkpt>
      <trkpt lat="47.12463" lon="-1.7892">
        <ele>25.24</ele>
        <time>2020-05-20T15:56:22Z</time>
      </trkpt>
      <trkpt lat="47.12459" lon="-1.78941">
        <ele>25.24</ele>
        <time>2020-05-20T15:56:24Z</time>
      </trkpt>
      <trkpt lat="47.12455" lon="-1.78961">
        <ele>25.05</ele>
        <time>2020-05-20T15:56:26Z</time>
      </trkpt>
      <trkpt lat="47.1245" lon="-1.78982">
        <ele>25.08</ele>
        <time>2020-05-20T15:56:28Z</time>
      </trkpt>
      <trkpt lat="47.12446" lon="-1.79">
        <ele>24.57</ele>
        <time>2020-05-20T15:56:30Z</time>
      </trkpt>
      <trkpt lat="47.12441" lon="-1.79017">
        <ele>24.9</ele>
        <time>2020-05-20T15:56:32Z</time>
      </trkpt>
      <trkpt lat="47.12437" lon="-1.79037">
        <ele>24.79</ele>
        <time>2020-05-20T15:56:34Z</time>
      </trkpt>
      <trkpt lat="47.12432" lon="-1.79056">
        <ele>24.73</ele>
        <time>2020-05-20T15:56:36Z</time>
      </trkpt>
      <trkpt lat="47.12428" lon="-1.79074">
        <ele>24.67</ele>
        <time>2020-05-20T15:56:38Z</time>
      </trkpt>
      <trkpt lat="47.12424" lon="-1.79094">
        <ele>24.9</ele>
        <time>2020-05-20T15:56:40Z</time>
      </trkpt>
      <trkpt lat="47.1242" lon="-1.79115">
        <ele>25.12</ele>
        <time>2020-05-20T15:56:42Z</time>
      </trkpt>
      <trkpt lat="47.12417" lon="-1.79137">
        <ele>25.61</ele>
        <time>2020-05-20T15:56:44Z</time>
      </trkpt>
      <trkpt lat="47.12416" lon="-1.79157">
        <ele>26.01</ele>
        <time>2020-05-20T15:56:46Z</time>
      </trkpt>
      <trkpt lat="47.12417" lon="-1.79178">
        <ele>25.87</ele>
        <time>2020-05-20T15:56:48Z</time>
      </trkpt>
      <trkpt lat="47.12419" lon="-1.79199">
        <ele>25.89</ele>
        <time>2020-05-20T15:56:50Z</time>
      </trkpt>
      <trkpt lat="47.12421" lon="-1.79221">
        <ele>26.49</ele>
        <time>2020-05-20T15:56:52Z</time>
      </trkpt>
      <trkpt lat="47.12423" lon="-1.7924">
        <ele>26.27</ele>
        <time>2020-05-20T15:56:54Z</time>
      </trkpt>
      <trkpt lat="47.12422" lon="-1.79262">
        <ele>25.37</ele>
        <time>2020-05-20T15:56:56Z</time>
      </trkpt>
      <trkpt lat="47.12418" lon="-1.79282">
        <ele>24.99</ele>
        <time>2020-05-20T15:56:58Z</time>
      </trkpt>
      <trkpt lat="47.12412" lon="-1.793">
        <ele>24.8</ele>
        <time>2020-05-20T15:57:00Z</time>
      </trkpt>
      <trkpt lat="47.12405" lon="-1.79316">
        <ele>25.2</ele>
        <time>2020-05-20T15:57:02Z</time>
      </trkpt>
      <trkpt lat="47.12397" lon="-1.79332">
        <ele>24.77</ele>
        <time>2020-05-20T15:57:04Z</time>
      </trkpt>
      <trkpt lat="47.1239" lon="-1.79348">
        <ele>24.58</ele>
        <time>2020-05-20T15:57:06Z</time>
      </trkpt>
      <trkpt lat="47.12381" lon="-1.79366">
        <ele>24.83</ele>
        <time>2020-05-20T15:57:08Z</time>
      </trkpt>
      <trkpt lat="47.12374" lon="-1.79381">
        <ele>24.74</ele>
        <time>2020-05-20T15:57:10Z</time>
      </trkpt>
      <trkpt lat="47.12367" lon="-1.79398">
        <ele>24.89</ele>
        <time>2020-05-20T15:57:12Z</time>
      </trkpt>
      <trkpt lat="47.12361" lon="-1.79413">
        <ele>25.63</ele>
        <time>2020-05-20T15:57:14Z</time>
      </trkpt>
      <trkpt lat="47.12355" lon="-1.79432">
        <ele>26.39</ele>
        <time>2020-05-20T15:57:16Z</time>
      </trkpt>
      <trkpt lat="47.12349" lon="-1.79453">
        <ele>26.71</ele>
        <time>2020-05-20T15:57:18Z</time>
      </trkpt>
      <trkpt lat="47.12344" lon="-1.79475">
        <ele>27.05</ele>
        <time>2020-05-20T15:57:20Z</time>
      </trkpt>
      <trkpt lat="47.12341" lon="-1.79495">
        <ele>26.64</ele>
        <time>2020-05-20T15:57:22Z</time>
      </trkpt>
      <trkpt lat="47.12339" lon="-1.79514">
        <ele>26.78</ele>
        <time>2020-05-20T15:57:24Z</time>
      </trkpt>
      <trkpt lat="47.12336" lon="-1.79534">
        <ele>26.06</ele>
        <time>2020-05-20T15:57:26Z</time>
      </trkpt>
      <trkpt lat="47.12335" lon="-1.79553">
        <ele>24.61</ele>
        <time>2020-05-20T15:57:28Z</time>
      </trkpt>
      <trkpt lat="47.12332" lon="-1.79572">
        <ele>24.38</ele>
        <time>2020-05-20T15:57:30Z</time>
      </trkpt>
      <trkpt lat="47.12326" lon="-1.79587">
        <ele>24.39</ele>
        <time>2020-05-20T15:57:32Z</time>
      </trkpt>
      <trkpt lat="47.12314" lon="-1.79596">
        <ele>24.86</ele>
        <time>2020-05-20T15:57:34Z</time>
      </trkpt>
      <trkpt lat="47.12301" lon="-1.796">
        <ele>24.54</ele>
        <time>2020-05-20T15:57:37Z</time>
      </trkpt>
      <trkpt lat="47.12285" lon="-1.79601">
        <ele>23.6</ele>
        <time>2020-05-20T15:57:39Z</time>
      </trkpt>
      <trkpt lat="47.12273" lon="-1.796">
        <ele>23.21</ele>
        <time>2020-05-20T15:57:41Z</time>
      </trkpt>
      <trkpt lat="47.1226" lon="-1.79598">
        <ele>23.36</ele>
        <time>2020-05-20T15:57:43Z</time>
      </trkpt>
      <trkpt lat="47.12246" lon="-1.79598">
        <ele>23.91</ele>
        <time>2020-05-20T15:57:45Z</time>
      </trkpt>
      <trkpt lat="47.12233" lon="-1.79596">
        <ele>23.79</ele>
        <time>2020-05-20T15:57:47Z</time>
      </trkpt>
      <trkpt lat="47.12221" lon="-1.79594">
        <ele>22.35</ele>
        <time>2020-05-20T15:57:49Z</time>
      </trkpt>
      <trkpt lat="47.1221" lon="-1.79594">
        <ele>22</ele>
        <time>2020-05-20T15:57:51Z</time>
      </trkpt>
      <trkpt lat="47.12195" lon="-1.79594">
        <ele>22.74</ele>
        <time>2020-05-20T15:57:53Z</time>
      </trkpt>
      <trkpt lat="47.1218" lon="-1.79594">
        <ele>23.42</ele>
        <time>2020-05-20T15:57:55Z</time>
      </trkpt>
      <trkpt lat="47.12165" lon="-1.79594">
        <ele>23.46</ele>
        <time>2020-05-20T15:57:57Z</time>
      </trkpt>
      <trkpt lat="47.12152" lon="-1.79594">
        <ele>22.99</ele>
        <time>2020-05-20T15:57:59Z</time>
      </trkpt>
      <trkpt lat="47.1214" lon="-1.79595">
        <ele>23.39</ele>
        <time>2020-05-20T15:58:01Z</time>
      </trkpt>
      <trkpt lat="47.12129" lon="-1.79596">
        <ele>23.79</ele>
        <time>2020-05-20T15:58:03Z</time>
      </trkpt>
      <trkpt lat="47.12115" lon="-1.79597">
        <ele>23.47</ele>
        <time>2020-05-20T15:58:05Z</time>
      </trkpt>
      <trkpt lat="47.121" lon="-1.79599">
        <ele>22.3</ele>
        <time>2020-05-20T15:58:07Z</time>
      </trkpt>
      <trkpt lat="47.12087" lon="-1.79605">
        <ele>22.08</ele>
        <time>2020-05-20T15:58:09Z</time>
      </trkpt>
      <trkpt lat="47.12074" lon="-1.79615">
        <ele>22.55</ele>
        <time>2020-05-20T15:58:11Z</time>
      </trkpt>
      <trkpt lat="47.12062" lon="-1.79627">
        <ele>21.67</ele>
        <time>2020-05-20T15:58:13Z</time>
      </trkpt>
      <trkpt lat="47.12049" lon="-1.7964">
        <ele>21.93</ele>
        <time>2020-05-20T15:58:15Z</time>
      </trkpt>
      <trkpt lat="47.12038" lon="-1.79653">
        <ele>22.65</ele>
        <time>2020-05-20T15:58:17Z</time>
      </trkpt>
      <trkpt lat="47.12027" lon="-1.79666">
        <ele>23.64</ele>
        <time>2020-05-20T15:58:19Z</time>
      </trkpt>
      <trkpt lat="47.12014" lon="-1.7968">
        <ele>24.21</ele>
        <time>2020-05-20T15:58:21Z</time>
      </trkpt>
      <trkpt lat="47.12001" lon="-1.79692">
        <ele>24.51</ele>
        <time>2020-05-20T15:58:23Z</time>
      </trkpt>
      <trkpt lat="47.11992" lon="-1.79702">
        <ele>23.44</ele>
        <time>2020-05-20T15:58:25Z</time>
      </trkpt>
      <trkpt lat="47.11979" lon="-1.79715">
        <ele>22.21</ele>
        <time>2020-05-20T15:58:27Z</time>
      </trkpt>
      <trkpt lat="47.11968" lon="-1.79728">
        <ele>21.65</ele>
        <time>2020-05-20T15:58:29Z</time>
      </trkpt>
      <trkpt lat="47.11957" lon="-1.79741">
        <ele>21.4</ele>
        <time>2020-05-20T15:58:31Z</time>
      </trkpt>
      <trkpt lat="47.11946" lon="-1.79755">
        <ele>20.67</ele>
        <time>2020-05-20T15:58:33Z</time>
      </trkpt>
      <trkpt lat="47.11935" lon="-1.79769">
        <ele>20.87</ele>
        <time>2020-05-20T15:58:35Z</time>
      </trkpt>
      <trkpt lat="47.11922" lon="-1.79784">
        <ele>21.11</ele>
        <time>2020-05-20T15:58:37Z</time>
      </trkpt>
      <trkpt lat="47.11911" lon="-1.798">
        <ele>21.41</ele>
        <time>2020-05-20T15:58:39Z</time>
      </trkpt>
      <trkpt lat="47.11901" lon="-1.79813">
        <ele>21.38</ele>
        <time>2020-05-20T15:58:41Z</time>
      </trkpt>
      <trkpt lat="47.11891" lon="-1.79826">
        <ele>21.08</ele>
        <time>2020-05-20T15:58:43Z</time>
      </trkpt>
      <trkpt lat="47.11881" lon="-1.79839">
        <ele>21.48</ele>
        <time>2020-05-20T15:58:45Z</time>
      </trkpt>
      <trkpt lat="47.1187" lon="-1.79851">
        <ele>22.4</ele>
        <time>2020-05-20T15:58:47Z</time>
      </trkpt>
      <trkpt lat="47.11858" lon="-1.79863">
        <ele>22.5</ele>
        <time>2020-05-20T15:58:49Z</time>
      </trkpt>
      <trkpt lat="47.11848" lon="-1.79875">
        <ele>22.88</ele>
        <time>2020-05-20T15:58:51Z</time>
      </trkpt>
      <trkpt lat="47.11837" lon="-1.79887">
        <ele>23.35</ele>
        <time>2020-05-20T15:58:53Z</time>
      </trkpt>
      <trkpt lat="47.11826" lon="-1.79898">
        <ele>23.89</ele>
        <time>2020-05-20T15:58:55Z</time>
      </trkpt>
      <trkpt lat="47.11814" lon="-1.7991">
        <ele>24.37</ele>
        <time>2020-05-20T15:58:57Z</time>
      </trkpt>
      <trkpt lat="47.11802" lon="-1.79921">
        <ele>24.13</ele>
        <time>2020-05-20T15:58:59Z</time>
      </trkpt>
      <trkpt lat="47.11791" lon="-1.79933">
        <ele>24.43</ele>
        <time>2020-05-20T15:59:01Z</time>
      </trkpt>
      <trkpt lat="47.11782" lon="-1.79943">
        <ele>24.37</ele>
        <time>2020-05-20T15:59:03Z</time>
      </trkpt>
      <trkpt lat="47.11773" lon="-1.79953">
        <ele>24.87</ele>
        <time>2020-05-20T15:59:05Z</time>
      </trkpt>
      <trkpt lat="47.11764" lon="-1.79964">
        <ele>25.21</ele>
        <time>2020-05-20T15:59:07Z</time>
      </trkpt>
      <trkpt lat="47.11756" lon="-1.79975">
        <ele>26.02</ele>
        <time>2020-05-20T15:59:09Z</time>
      </trkpt>
      <trkpt lat="47.11747" lon="-1.79978">
        <ele>26.27</ele>
        <time>2020-05-20T15:59:11Z</time>
      </trkpt>
      <trkpt lat="47.11734" lon="-1.79977">
        <ele>26.19</ele>
        <time>2020-05-20T15:59:13Z</time>
      </trkpt>
      <trkpt lat="47.11722" lon="-1.79975">
        <ele>26.64</ele>
        <time>2020-05-20T15:59:15Z</time>
      </trkpt>
      <trkpt lat="47.11709" lon="-1.79973">
        <ele>26.76</ele>
        <time>2020-05-20T15:59:17Z</time>
      </trkpt>
      <trkpt lat="47.11695" lon="-1.7997">
        <ele>26.19</ele>
        <time>2020-05-20T15:59:19Z</time>
      </trkpt>
      <trkpt lat="47.11683" lon="-1.79967">
        <ele>24.8</ele>
        <time>2020-05-20T15:59:21Z</time>
      </trkpt>
      <trkpt lat="47.1167" lon="-1.79965">
        <ele>23.24</ele>
        <time>2020-05-20T15:59:23Z</time>
      </trkpt>
      <trkpt lat="47.11658" lon="-1.79964">
        <ele>21.25</ele>
        <time>2020-05-20T15:59:25Z</time>
      </trkpt>
      <trkpt lat="47.11645" lon="-1.79962">
        <ele>19.7</ele>
        <time>2020-05-20T15:59:27Z</time>
      </trkpt>
      <trkpt lat="47.11631" lon="-1.79959">
        <ele>18.97</ele>
        <time>2020-05-20T15:59:29Z</time>
      </trkpt>
      <trkpt lat="47.11618" lon="-1.79957">
        <ele>18.38</ele>
        <time>2020-05-20T15:59:31Z</time>
      </trkpt>
      <trkpt lat="47.11605" lon="-1.79955">
        <ele>18.09</ele>
        <time>2020-05-20T15:59:33Z</time>
      </trkpt>
      <trkpt lat="47.11592" lon="-1.79953">
        <ele>17.86</ele>
        <time>2020-05-20T15:59:35Z</time>
      </trkpt>
      <trkpt lat="47.11581" lon="-1.79951">
        <ele>18.36</ele>
        <time>2020-05-20T15:59:37Z</time>
      </trkpt>
      <trkpt lat="47.11569" lon="-1.79951">
        <ele>19.09</ele>
        <time>2020-05-20T15:59:39Z</time>
      </trkpt>
      <trkpt lat="47.11557" lon="-1.79954">
        <ele>19.59</ele>
        <time>2020-05-20T15:59:41Z</time>
      </trkpt>
      <trkpt lat="47.11543" lon="-1.79962">
        <ele>19.8</ele>
        <time>2020-05-20T15:59:43Z</time>
      </trkpt>
      <trkpt lat="47.11532" lon="-1.79971">
        <ele>20.51</ele>
        <time>2020-05-20T15:59:45Z</time>
      </trkpt>
      <trkpt lat="47.11521" lon="-1.79983">
        <ele>20.45</ele>
        <time>2020-05-20T15:59:47Z</time>
      </trkpt>
      <trkpt lat="47.1151" lon="-1.79995">
        <ele>20.31</ele>
        <time>2020-05-20T15:59:49Z</time>
      </trkpt>
      <trkpt lat="47.11499" lon="-1.8001">
        <ele>21.06</ele>
        <time>2020-05-20T15:59:51Z</time>
      </trkpt>
      <trkpt lat="47.11489" lon="-1.80023">
        <ele>21.58</ele>
        <time>2020-05-20T15:59:53Z</time>
      </trkpt>
      <trkpt lat="47.1148" lon="-1.80036">
        <ele>21.54</ele>
        <time>2020-05-20T15:59:55Z</time>
      </trkpt>
      <trkpt lat="47.1147" lon="-1.80049">
        <ele>21.52</ele>
        <time>2020-05-20T15:59:57Z</time>
      </trkpt>
      <trkpt lat="47.1146" lon="-1.80063">
        <ele>22.12</ele>
        <time>2020-05-20T15:59:59Z</time>
      </trkpt>
      <trkpt lat="47.11451" lon="-1.80076">
        <ele>21.59</ele>
        <time>2020-05-20T16:00:01Z</time>
      </trkpt>
      <trkpt lat="47.11441" lon="-1.8009">
        <ele>21.07</ele>
        <time>2020-05-20T16:00:03Z</time>
      </trkpt>
      <trkpt lat="47.1143" lon="-1.80103">
        <ele>19.66</ele>
        <time>2020-05-20T16:00:05Z</time>
      </trkpt>
      <trkpt lat="47.11421" lon="-1.80118">
        <ele>19.96</ele>
        <time>2020-05-20T16:00:07Z</time>
      </trkpt>
      <trkpt lat="47.1141" lon="-1.8013">
        <ele>20.39</ele>
        <time>2020-05-20T16:00:09Z</time>
      </trkpt>
      <trkpt lat="47.11399" lon="-1.80146">
        <ele>20.47</ele>
        <time>2020-05-20T16:00:11Z</time>
      </trkpt>
      <trkpt lat="47.11388" lon="-1.8016">
        <ele>20.52</ele>
        <time>2020-05-20T16:00:13Z</time>
      </trkpt>
      <trkpt lat="47.11377" lon="-1.80174">
        <ele>19.62</ele>
        <time>2020-05-20T16:00:15Z</time>
      </trkpt>
      <trkpt lat="47.11367" lon="-1.80187">
        <ele>18.27</ele>
        <time>2020-05-20T16:00:17Z</time>
      </trkpt>
      <trkpt lat="47.11357" lon="-1.80201">
        <ele>16.85</ele>
        <time>2020-05-20T16:00:19Z</time>
      </trkpt>
      <trkpt lat="47.11347" lon="-1.80216">
        <ele>16.15</ele>
        <time>2020-05-20T16:00:21Z</time>
      </trkpt>
      <trkpt lat="47.11338" lon="-1.8023">
        <ele>15.33</ele>
        <time>2020-05-20T16:00:23Z</time>
      </trkpt>
      <trkpt lat="47.11327" lon="-1.80246">
        <ele>14.67</ele>
        <time>2020-05-20T16:00:25Z</time>
      </trkpt>
      <trkpt lat="47.1132" lon="-1.80263">
        <ele>13.94</ele>
        <time>2020-05-20T16:00:27Z</time>
      </trkpt>
      <trkpt lat="47.11309" lon="-1.80278">
        <ele>13.39</ele>
        <time>2020-05-20T16:00:29Z</time>
      </trkpt>
      <trkpt lat="47.11298" lon="-1.80292">
        <ele>13.96</ele>
        <time>2020-05-20T16:00:31Z</time>
      </trkpt>
      <trkpt lat="47.11286" lon="-1.80305">
        <ele>14.88</ele>
        <time>2020-05-20T16:00:33Z</time>
      </trkpt>
      <trkpt lat="47.11276" lon="-1.80319">
        <ele>15.35</ele>
        <time>2020-05-20T16:00:35Z</time>
      </trkpt>
      <trkpt lat="47.11266" lon="-1.80332">
        <ele>15.88</ele>
        <time>2020-05-20T16:00:37Z</time>
      </trkpt>
      <trkpt lat="47.11254" lon="-1.80347">
        <ele>16.53</ele>
        <time>2020-05-20T16:00:39Z</time>
      </trkpt>
      <trkpt lat="47.11243" lon="-1.8036">
        <ele>16.77</ele>
        <time>2020-05-20T16:00:41Z</time>
      </trkpt>
      <trkpt lat="47.11233" lon="-1.80374">
        <ele>16.13</ele>
        <time>2020-05-20T16:00:43Z</time>
      </trkpt>
      <trkpt lat="47.11223" lon="-1.80387">
        <ele>16.26</ele>
        <time>2020-05-20T16:00:45Z</time>
      </trkpt>
      <trkpt lat="47.11214" lon="-1.80399">
        <ele>16.45</ele>
        <time>2020-05-20T16:00:47Z</time>
      </trkpt>
      <trkpt lat="47.11203" lon="-1.80411">
        <ele>15.81</ele>
        <time>2020-05-20T16:00:49Z</time>
      </trkpt>
      <trkpt lat="47.1119" lon="-1.80422">
        <ele>15.87</ele>
        <time>2020-05-20T16:00:51Z</time>
      </trkpt>
      <trkpt lat="47.11177" lon="-1.80433">
        <ele>16.11</ele>
        <time>2020-05-20T16:00:53Z</time>
      </trkpt>
      <trkpt lat="47.11166" lon="-1.80442">
        <ele>16.1</ele>
        <time>2020-05-20T16:00:55Z</time>
      </trkpt>
      <trkpt lat="47.11156" lon="-1.80449">
        <ele>16.37</ele>
        <time>2020-05-20T16:00:57Z</time>
      </trkpt>
      <trkpt lat="47.11144" lon="-1.80456">
        <ele>16.42</ele>
        <time>2020-05-20T16:00:59Z</time>
      </trkpt>
      <trkpt lat="47.11132" lon="-1.80463">
        <ele>16.38</ele>
        <time>2020-05-20T16:01:01Z</time>
      </trkpt>
      <trkpt lat="47.1112" lon="-1.8047">
        <ele>16.3</ele>
        <time>2020-05-20T16:01:03Z</time>
      </trkpt>
      <trkpt lat="47.11108" lon="-1.80478">
        <ele>17.5</ele>
        <time>2020-05-20T16:01:05Z</time>
      </trkpt>
      <trkpt lat="47.11097" lon="-1.80486">
        <ele>18.33</ele>
        <time>2020-05-20T16:01:07Z</time>
      </trkpt>
      <trkpt lat="47.11085" lon="-1.80493">
        <ele>18.34</ele>
        <time>2020-05-20T16:01:09Z</time>
      </trkpt>
      <trkpt lat="47.11074" lon="-1.80501">
        <ele>18.7</ele>
        <time>2020-05-20T16:01:11Z</time>
      </trkpt>
      <trkpt lat="47.11063" lon="-1.80508">
        <ele>19.55</ele>
        <time>2020-05-20T16:01:13Z</time>
      </trkpt>
      <trkpt lat="47.11052" lon="-1.80515">
        <ele>19.36</ele>
        <time>2020-05-20T16:01:15Z</time>
      </trkpt>
      <trkpt lat="47.11042" lon="-1.8052">
        <ele>18.66</ele>
        <time>2020-05-20T16:01:17Z</time>
      </trkpt>
      <trkpt lat="47.1103" lon="-1.80528">
        <ele>18.73</ele>
        <time>2020-05-20T16:01:19Z</time>
      </trkpt>
      <trkpt lat="47.11018" lon="-1.80536">
        <ele>18.4</ele>
        <time>2020-05-20T16:01:21Z</time>
      </trkpt>
      <trkpt lat="47.11008" lon="-1.80542">
        <ele>17.27</ele>
        <time>2020-05-20T16:01:23Z</time>
      </trkpt>
      <trkpt lat="47.10997" lon="-1.8055">
        <ele>16.73</ele>
        <time>2020-05-20T16:01:25Z</time>
      </trkpt>
      <trkpt lat="47.10985" lon="-1.80558">
        <ele>15.93</ele>
        <time>2020-05-20T16:01:27Z</time>
      </trkpt>
      <trkpt lat="47.10975" lon="-1.80566">
        <ele>15.76</ele>
        <time>2020-05-20T16:01:29Z</time>
      </trkpt>
      <trkpt lat="47.10962" lon="-1.80574">
        <ele>15.35</ele>
        <time>2020-05-20T16:01:31Z</time>
      </trkpt>
      <trkpt lat="47.1095" lon="-1.80581">
        <ele>15.91</ele>
        <time>2020-05-20T16:01:33Z</time>
      </trkpt>
      <trkpt lat="47.10938" lon="-1.80589">
        <ele>17.16</ele>
        <time>2020-05-20T16:01:35Z</time>
      </trkpt>
      <trkpt lat="47.10925" lon="-1.80597">
        <ele>17.02</ele>
        <time>2020-05-20T16:01:37Z</time>
      </trkpt>
      <trkpt lat="47.10914" lon="-1.80604">
        <ele>16.89</ele>
        <time>2020-05-20T16:01:39Z</time>
      </trkpt>
      <trkpt lat="47.10902" lon="-1.80611">
        <ele>16.44</ele>
        <time>2020-05-20T16:01:41Z</time>
      </trkpt>
      <trkpt lat="47.1089" lon="-1.8062">
        <ele>16.48</ele>
        <time>2020-05-20T16:01:43Z</time>
      </trkpt>
      <trkpt lat="47.10879" lon="-1.80628">
        <ele>16.57</ele>
        <time>2020-05-20T16:01:45Z</time>
      </trkpt>
      <trkpt lat="47.10866" lon="-1.80637">
        <ele>16.43</ele>
        <time>2020-05-20T16:01:47Z</time>
      </trkpt>
      <trkpt lat="47.10854" lon="-1.80642">
        <ele>16.73</ele>
        <time>2020-05-20T16:01:49Z</time>
      </trkpt>
      <trkpt lat="47.10841" lon="-1.80647">
        <ele>17.57</ele>
        <time>2020-05-20T16:01:51Z</time>
      </trkpt>
      <trkpt lat="47.10828" lon="-1.80652">
        <ele>18.01</ele>
        <time>2020-05-20T16:01:53Z</time>
      </trkpt>
      <trkpt lat="47.10815" lon="-1.80656">
        <ele>17.66</ele>
        <time>2020-05-20T16:01:55Z</time>
      </trkpt>
      <trkpt lat="47.10802" lon="-1.80661">
        <ele>17.43</ele>
        <time>2020-05-20T16:01:57Z</time>
      </trkpt>
      <trkpt lat="47.10789" lon="-1.80665">
        <ele>17.23</ele>
        <time>2020-05-20T16:01:59Z</time>
      </trkpt>
      <trkpt lat="47.10776" lon="-1.80669">
        <ele>16.52</ele>
        <time>2020-05-20T16:02:01Z</time>
      </trkpt>
      <trkpt lat="47.10762" lon="-1.80675">
        <ele>16.4</ele>
        <time>2020-05-20T16:02:03Z</time>
      </trkpt>
      <trkpt lat="47.1075" lon="-1.80678">
        <ele>16.36</ele>
        <time>2020-05-20T16:02:05Z</time>
      </trkpt>
      <trkpt lat="47.10736" lon="-1.80681">
        <ele>16.33</ele>
        <time>2020-05-20T16:02:07Z</time>
      </trkpt>
      <trkpt lat="47.10724" lon="-1.80684">
        <ele>16.44</ele>
        <time>2020-05-20T16:02:09Z</time>
      </trkpt>
      <trkpt lat="47.10711" lon="-1.80686">
        <ele>16.33</ele>
        <time>2020-05-20T16:02:11Z</time>
      </trkpt>
      <trkpt lat="47.10698" lon="-1.80687">
        <ele>15.55</ele>
        <time>2020-05-20T16:02:13Z</time>
      </trkpt>
      <trkpt lat="47.10683" lon="-1.80688">
        <ele>14.64</ele>
        <time>2020-05-20T16:02:15Z</time>
      </trkpt>
      <trkpt lat="47.1067" lon="-1.80689">
        <ele>13.81</ele>
        <time>2020-05-20T16:02:17Z</time>
      </trkpt>
      <trkpt lat="47.10657" lon="-1.8069">
        <ele>12.4</ele>
        <time>2020-05-20T16:02:19Z</time>
      </trkpt>
      <trkpt lat="47.10646" lon="-1.80692">
        <ele>11.75</ele>
        <time>2020-05-20T16:02:21Z</time>
      </trkpt>
      <trkpt lat="47.10633" lon="-1.80695">
        <ele>10.93</ele>
        <time>2020-05-20T16:02:23Z</time>
      </trkpt>
      <trkpt lat="47.10619" lon="-1.80697">
        <ele>10.68</ele>
        <time>2020-05-20T16:02:25Z</time>
      </trkpt>
      <trkpt lat="47.10607" lon="-1.807">
        <ele>10.71</ele>
        <time>2020-05-20T16:02:27Z</time>
      </trkpt>
      <trkpt lat="47.10594" lon="-1.80706">
        <ele>11.46</ele>
        <time>2020-05-20T16:02:29Z</time>
      </trkpt>
      <trkpt lat="47.10583" lon="-1.80714">
        <ele>13.59</ele>
        <time>2020-05-20T16:02:31Z</time>
      </trkpt>
      <trkpt lat="47.10571" lon="-1.80724">
        <ele>15.27</ele>
        <time>2020-05-20T16:02:33Z</time>
      </trkpt>
      <trkpt lat="47.10562" lon="-1.80733">
        <ele>16.46</ele>
        <time>2020-05-20T16:02:35Z</time>
      </trkpt>
      <trkpt lat="47.10552" lon="-1.80745">
        <ele>17.7</ele>
        <time>2020-05-20T16:02:37Z</time>
      </trkpt>
      <trkpt lat="47.10541" lon="-1.80758">
        <ele>17.52</ele>
        <time>2020-05-20T16:02:39Z</time>
      </trkpt>
      <trkpt lat="47.1053" lon="-1.80772">
        <ele>17.82</ele>
        <time>2020-05-20T16:02:41Z</time>
      </trkpt>
      <trkpt lat="47.10519" lon="-1.80787">
        <ele>18</ele>
        <time>2020-05-20T16:02:43Z</time>
      </trkpt>
      <trkpt lat="47.1051" lon="-1.80802">
        <ele>16.61</ele>
        <time>2020-05-20T16:02:45Z</time>
      </trkpt>
      <trkpt lat="47.10498" lon="-1.80814">
        <ele>14.89</ele>
        <time>2020-05-20T16:02:47Z</time>
      </trkpt>
      <trkpt lat="47.10485" lon="-1.80824">
        <ele>14.04</ele>
        <time>2020-05-20T16:02:49Z</time>
      </trkpt>
      <trkpt lat="47.10474" lon="-1.80835">
        <ele>14.04</ele>
        <time>2020-05-20T16:02:51Z</time>
      </trkpt>
      <trkpt lat="47.10465" lon="-1.80849">
        <ele>14.18</ele>
        <time>2020-05-20T16:02:53Z</time>
      </trkpt>
      <trkpt lat="47.10456" lon="-1.80865">
        <ele>14.37</ele>
        <time>2020-05-20T16:02:55Z</time>
      </trkpt>
      <trkpt lat="47.10447" lon="-1.80881">
        <ele>14.9</ele>
        <time>2020-05-20T16:02:57Z</time>
      </trkpt>
      <trkpt lat="47.10438" lon="-1.80898">
        <ele>14.9</ele>
        <time>2020-05-20T16:02:59Z</time>
      </trkpt>
      <trkpt lat="47.10429" lon="-1.80912">
        <ele>15.16</ele>
        <time>2020-05-20T16:03:01Z</time>
      </trkpt>
      <trkpt lat="47.10421" lon="-1.80924">
        <ele>15.87</ele>
        <time>2020-05-20T16:03:03Z</time>
      </trkpt>
      <trkpt lat="47.10412" lon="-1.80938">
        <ele>16.81</ele>
        <time>2020-05-20T16:03:05Z</time>
      </trkpt>
      <trkpt lat="47.10404" lon="-1.80952">
        <ele>17.9</ele>
        <time>2020-05-20T16:03:07Z</time>
      </trkpt>
      <trkpt lat="47.10397" lon="-1.80966">
        <ele>18.7</ele>
        <time>2020-05-20T16:03:09Z</time>
      </trkpt>
      <trkpt lat="47.10388" lon="-1.80981">
        <ele>19.37</ele>
        <time>2020-05-20T16:03:12Z</time>
      </trkpt>
      <trkpt lat="47.1038" lon="-1.80994">
        <ele>19.18</ele>
        <time>2020-05-20T16:03:15Z</time>
      </trkpt>
      <trkpt lat="47.10375" lon="-1.81006">
        <ele>17.33</ele>
        <time>2020-05-20T16:03:17Z</time>
      </trkpt>
      <trkpt lat="47.10368" lon="-1.81024">
        <ele>16.1</ele>
        <time>2020-05-20T16:03:19Z</time>
      </trkpt>
      <trkpt lat="47.10361" lon="-1.81037">
        <ele>15.34</ele>
        <time>2020-05-20T16:03:21Z</time>
      </trkpt>
      <trkpt lat="47.1035" lon="-1.81039">
        <ele>13.36</ele>
        <time>2020-05-20T16:03:24Z</time>
      </trkpt>
      <trkpt lat="47.10342" lon="-1.81025">
        <ele>11.74</ele>
        <time>2020-05-20T16:03:26Z</time>
      </trkpt>
      <trkpt lat="47.1033" lon="-1.81012">
        <ele>10.28</ele>
        <time>2020-05-20T16:03:28Z</time>
      </trkpt>
      <trkpt lat="47.10316" lon="-1.81008">
        <ele>9.13</ele>
        <time>2020-05-20T16:03:30Z</time>
      </trkpt>
      <trkpt lat="47.10305" lon="-1.81007">
        <ele>8.7</ele>
        <time>2020-05-20T16:03:32Z</time>
      </trkpt>
      <trkpt lat="47.10291" lon="-1.81004">
        <ele>8.06</ele>
        <time>2020-05-20T16:03:34Z</time>
      </trkpt>
      <trkpt lat="47.10275" lon="-1.81002">
        <ele>6.72</ele>
        <time>2020-05-20T16:03:36Z</time>
      </trkpt>
      <trkpt lat="47.1026" lon="-1.81002">
        <ele>6.4</ele>
        <time>2020-05-20T16:03:38Z</time>
      </trkpt>
      <trkpt lat="47.10248" lon="-1.81003">
        <ele>5.92</ele>
        <time>2020-05-20T16:03:40Z</time>
      </trkpt>
      <trkpt lat="47.10233" lon="-1.81003">
        <ele>5.46</ele>
        <time>2020-05-20T16:03:42Z</time>
      </trkpt>
      <trkpt lat="47.10218" lon="-1.81001">
        <ele>6.44</ele>
        <time>2020-05-20T16:03:44Z</time>
      </trkpt>
      <trkpt lat="47.10201" lon="-1.80997">
        <ele>7.92</ele>
        <time>2020-05-20T16:03:46Z</time>
      </trkpt>
      <trkpt lat="47.10188" lon="-1.80992">
        <ele>10.18</ele>
        <time>2020-05-20T16:03:48Z</time>
      </trkpt>
      <trkpt lat="47.10174" lon="-1.80986">
        <ele>11.71</ele>
        <time>2020-05-20T16:03:50Z</time>
      </trkpt>
      <trkpt lat="47.10159" lon="-1.80978">
        <ele>13.22</ele>
        <time>2020-05-20T16:03:52Z</time>
      </trkpt>
      <trkpt lat="47.10147" lon="-1.80971">
        <ele>13.6</ele>
        <time>2020-05-20T16:03:54Z</time>
      </trkpt>
      <trkpt lat="47.10134" lon="-1.80967">
        <ele>13.65</ele>
        <time>2020-05-20T16:03:57Z</time>
      </trkpt>
      <trkpt lat="47.10123" lon="-1.80966">
        <ele>13.15</ele>
        <time>2020-05-20T16:03:59Z</time>
      </trkpt>
      <trkpt lat="47.10107" lon="-1.80969">
        <ele>12.49</ele>
        <time>2020-05-20T16:04:01Z</time>
      </trkpt>
      <trkpt lat="47.10092" lon="-1.80972">
        <ele>11.66</ele>
        <time>2020-05-20T16:04:03Z</time>
      </trkpt>
      <trkpt lat="47.10078" lon="-1.80973">
        <ele>10.4</ele>
        <time>2020-05-20T16:04:05Z</time>
      </trkpt>
      <trkpt lat="47.10064" lon="-1.80972">
        <ele>8.99</ele>
        <time>2020-05-20T16:04:07Z</time>
      </trkpt>
      <trkpt lat="47.10055" lon="-1.80971">
        <ele>8.8</ele>
        <time>2020-05-20T16:04:09Z</time>
      </trkpt>
      <trkpt lat="47.10044" lon="-1.80971">
        <ele>8.56</ele>
        <time>2020-05-20T16:04:11Z</time>
      </trkpt>
      <trkpt lat="47.10028" lon="-1.80972">
        <ele>8.27</ele>
        <time>2020-05-20T16:04:13Z</time>
      </trkpt>
      <trkpt lat="47.10015" lon="-1.80973">
        <ele>9.15</ele>
        <time>2020-05-20T16:04:15Z</time>
      </trkpt>
      <trkpt lat="47.10002" lon="-1.80974">
        <ele>10.39</ele>
        <time>2020-05-20T16:04:17Z</time>
      </trkpt>
      <trkpt lat="47.0999" lon="-1.80974">
        <ele>12.58</ele>
        <time>2020-05-20T16:04:19Z</time>
      </trkpt>
      <trkpt lat="47.09976" lon="-1.80975">
        <ele>13.74</ele>
        <time>2020-05-20T16:04:21Z</time>
      </trkpt>
      <trkpt lat="47.09963" lon="-1.80976">
        <ele>13.97</ele>
        <time>2020-05-20T16:04:23Z</time>
      </trkpt>
      <trkpt lat="47.0995" lon="-1.80977">
        <ele>14.33</ele>
        <time>2020-05-20T16:04:25Z</time>
      </trkpt>
      <trkpt lat="47.09938" lon="-1.80979">
        <ele>14.69</ele>
        <time>2020-05-20T16:04:27Z</time>
      </trkpt>
      <trkpt lat="47.09926" lon="-1.80981">
        <ele>14.24</ele>
        <time>2020-05-20T16:04:29Z</time>
      </trkpt>
      <trkpt lat="47.09913" lon="-1.80982">
        <ele>13.02</ele>
        <time>2020-05-20T16:04:31Z</time>
      </trkpt>
      <trkpt lat="47.09901" lon="-1.80982">
        <ele>12.52</ele>
        <time>2020-05-20T16:04:33Z</time>
      </trkpt>
      <trkpt lat="47.09889" lon="-1.80983">
        <ele>13.12</ele>
        <time>2020-05-20T16:04:35Z</time>
      </trkpt>
      <trkpt lat="47.09878" lon="-1.80984">
        <ele>13.13</ele>
        <time>2020-05-20T16:04:37Z</time>
      </trkpt>
      <trkpt lat="47.09867" lon="-1.80985">
        <ele>12.48</ele>
        <time>2020-05-20T16:04:39Z</time>
      </trkpt>
      <trkpt lat="47.09853" lon="-1.80986">
        <ele>12.66</ele>
        <time>2020-05-20T16:04:41Z</time>
      </trkpt>
      <trkpt lat="47.0984" lon="-1.80986">
        <ele>13.33</ele>
        <time>2020-05-20T16:04:43Z</time>
      </trkpt>
      <trkpt lat="47.09827" lon="-1.80985">
        <ele>14.51</ele>
        <time>2020-05-20T16:04:45Z</time>
      </trkpt>
      <trkpt lat="47.09816" lon="-1.80986">
        <ele>16.23</ele>
        <time>2020-05-20T16:04:47Z</time>
      </trkpt>
      <trkpt lat="47.09805" lon="-1.80988">
        <ele>15.84</ele>
        <time>2020-05-20T16:04:49Z</time>
      </trkpt>
      <trkpt lat="47.09795" lon="-1.80989">
        <ele>14.2</ele>
        <time>2020-05-20T16:04:51Z</time>
      </trkpt>
      <trkpt lat="47.09785" lon="-1.80988">
        <ele>14.1</ele>
        <time>2020-05-20T16:04:53Z</time>
      </trkpt>
      <trkpt lat="47.09773" lon="-1.80987">
        <ele>14</ele>
        <time>2020-05-20T16:04:55Z</time>
      </trkpt>
      <trkpt lat="47.0976" lon="-1.80984">
        <ele>14.13</ele>
        <time>2020-05-20T16:04:57Z</time>
      </trkpt>
      <trkpt lat="47.09745" lon="-1.8098">
        <ele>14.41</ele>
        <time>2020-05-20T16:04:59Z</time>
      </trkpt>
      <trkpt lat="47.09732" lon="-1.80977">
        <ele>15.88</ele>
        <time>2020-05-20T16:05:01Z</time>
      </trkpt>
      <trkpt lat="47.0972" lon="-1.80974">
        <ele>15.36</ele>
        <time>2020-05-20T16:05:03Z</time>
      </trkpt>
      <trkpt lat="47.09707" lon="-1.80971">
        <ele>14.1</ele>
        <time>2020-05-20T16:05:05Z</time>
      </trkpt>
      <trkpt lat="47.09694" lon="-1.80967">
        <ele>12.22</ele>
        <time>2020-05-20T16:05:07Z</time>
      </trkpt>
      <trkpt lat="47.09681" lon="-1.80964">
        <ele>10.4</ele>
        <time>2020-05-20T16:05:09Z</time>
      </trkpt>
      <trkpt lat="47.09668" lon="-1.80961">
        <ele>10.66</ele>
        <time>2020-05-20T16:05:11Z</time>
      </trkpt>
      <trkpt lat="47.09655" lon="-1.80959">
        <ele>11.26</ele>
        <time>2020-05-20T16:05:13Z</time>
      </trkpt>
      <trkpt lat="47.09642" lon="-1.80957">
        <ele>10.96</ele>
        <time>2020-05-20T16:05:15Z</time>
      </trkpt>
      <trkpt lat="47.09629" lon="-1.80954">
        <ele>10.63</ele>
        <time>2020-05-20T16:05:17Z</time>
      </trkpt>
      <trkpt lat="47.09618" lon="-1.8095">
        <ele>10.79</ele>
        <time>2020-05-20T16:05:19Z</time>
      </trkpt>
      <trkpt lat="47.09604" lon="-1.80946">
        <ele>11.54</ele>
        <time>2020-05-20T16:05:21Z</time>
      </trkpt>
      <trkpt lat="47.09593" lon="-1.80943">
        <ele>12.53</ele>
        <time>2020-05-20T16:05:23Z</time>
      </trkpt>
      <trkpt lat="47.09581" lon="-1.80939">
        <ele>11.69</ele>
        <time>2020-05-20T16:05:25Z</time>
      </trkpt>
      <trkpt lat="47.09568" lon="-1.80936">
        <ele>10.43</ele>
        <time>2020-05-20T16:05:27Z</time>
      </trkpt>
      <trkpt lat="47.09555" lon="-1.80934">
        <ele>9.59</ele>
        <time>2020-05-20T16:05:29Z</time>
      </trkpt>
      <trkpt lat="47.09541" lon="-1.80932">
        <ele>9.03</ele>
        <time>2020-05-20T16:05:31Z</time>
      </trkpt>
      <trkpt lat="47.09528" lon="-1.80928">
        <ele>9.08</ele>
        <time>2020-05-20T16:05:33Z</time>
      </trkpt>
      <trkpt lat="47.09515" lon="-1.80926">
        <ele>9.84</ele>
        <time>2020-05-20T16:05:35Z</time>
      </trkpt>
      <trkpt lat="47.09503" lon="-1.80923">
        <ele>9.38</ele>
        <time>2020-05-20T16:05:37Z</time>
      </trkpt>
      <trkpt lat="47.09489" lon="-1.80923">
        <ele>8.04</ele>
        <time>2020-05-20T16:05:39Z</time>
      </trkpt>
      <trkpt lat="47.09477" lon="-1.80925">
        <ele>8.52</ele>
        <time>2020-05-20T16:05:41Z</time>
      </trkpt>
      <trkpt lat="47.09465" lon="-1.80933">
        <ele>8.95</ele>
        <time>2020-05-20T16:05:43Z</time>
      </trkpt>
      <trkpt lat="47.09452" lon="-1.80942">
        <ele>9.69</ele>
        <time>2020-05-20T16:05:45Z</time>
      </trkpt>
      <trkpt lat="47.09441" lon="-1.80949">
        <ele>11.1</ele>
        <time>2020-05-20T16:05:47Z</time>
      </trkpt>
      <trkpt lat="47.09429" lon="-1.80956">
        <ele>11.88</ele>
        <time>2020-05-20T16:05:49Z</time>
      </trkpt>
      <trkpt lat="47.09417" lon="-1.80964">
        <ele>12.02</ele>
        <time>2020-05-20T16:05:51Z</time>
      </trkpt>
      <trkpt lat="47.09405" lon="-1.80971">
        <ele>12.95</ele>
        <time>2020-05-20T16:05:53Z</time>
      </trkpt>
      <trkpt lat="47.0939" lon="-1.80981">
        <ele>13.3</ele>
        <time>2020-05-20T16:05:55Z</time>
      </trkpt>
      <trkpt lat="47.09378" lon="-1.80987">
        <ele>13.86</ele>
        <time>2020-05-20T16:05:57Z</time>
      </trkpt>
      <trkpt lat="47.09364" lon="-1.80994">
        <ele>13.94</ele>
        <time>2020-05-20T16:05:59Z</time>
      </trkpt>
      <trkpt lat="47.09349" lon="-1.81002">
        <ele>13.03</ele>
        <time>2020-05-20T16:06:01Z</time>
      </trkpt>
      <trkpt lat="47.09336" lon="-1.8101">
        <ele>13.19</ele>
        <time>2020-05-20T16:06:03Z</time>
      </trkpt>
      <trkpt lat="47.09321" lon="-1.81018">
        <ele>13.41</ele>
        <time>2020-05-20T16:06:05Z</time>
      </trkpt>
      <trkpt lat="47.09309" lon="-1.81027">
        <ele>13.21</ele>
        <time>2020-05-20T16:06:07Z</time>
      </trkpt>
      <trkpt lat="47.09295" lon="-1.81036">
        <ele>12.33</ele>
        <time>2020-05-20T16:06:09Z</time>
      </trkpt>
      <trkpt lat="47.09281" lon="-1.81044">
        <ele>11.21</ele>
        <time>2020-05-20T16:06:11Z</time>
      </trkpt>
      <trkpt lat="47.09267" lon="-1.81052">
        <ele>10.26</ele>
        <time>2020-05-20T16:06:13Z</time>
      </trkpt>
      <trkpt lat="47.09254" lon="-1.8106">
        <ele>10.38</ele>
        <time>2020-05-20T16:06:15Z</time>
      </trkpt>
      <trkpt lat="47.09242" lon="-1.81067">
        <ele>10.29</ele>
        <time>2020-05-20T16:06:17Z</time>
      </trkpt>
      <trkpt lat="47.09231" lon="-1.81075">
        <ele>9.46</ele>
        <time>2020-05-20T16:06:19Z</time>
      </trkpt>
      <trkpt lat="47.09223" lon="-1.81085">
        <ele>9.2</ele>
        <time>2020-05-20T16:06:21Z</time>
      </trkpt>
      <trkpt lat="47.09209" lon="-1.8108">
        <ele>7.99</ele>
        <time>2020-05-20T16:06:29Z</time>
      </trkpt>
      <trkpt lat="47.09199" lon="-1.81073">
        <ele>6.64</ele>
        <time>2020-05-20T16:06:31Z</time>
      </trkpt>
      <trkpt lat="47.09188" lon="-1.81064">
        <ele>5.44</ele>
        <time>2020-05-20T16:06:33Z</time>
      </trkpt>
      <trkpt lat="47.09178" lon="-1.81056">
        <ele>4.69</ele>
        <time>2020-05-20T16:06:35Z</time>
      </trkpt>
      <trkpt lat="47.09169" lon="-1.81052">
        <ele>4.35</ele>
        <time>2020-05-20T16:06:37Z</time>
      </trkpt>
      <trkpt lat="47.09161" lon="-1.81065">
        <ele>4.25</ele>
        <time>2020-05-20T16:06:39Z</time>
      </trkpt>
      <trkpt lat="47.09153" lon="-1.81082">
        <ele>3.42</ele>
        <time>2020-05-20T16:06:41Z</time>
      </trkpt>
      <trkpt lat="47.09144" lon="-1.81095">
        <ele>2.5</ele>
        <time>2020-05-20T16:06:43Z</time>
      </trkpt>
      <trkpt lat="47.09132" lon="-1.81107">
        <ele>2.24</ele>
        <time>2020-05-20T16:06:45Z</time>
      </trkpt>
      <trkpt lat="47.0912" lon="-1.81113">
        <ele>3.23</ele>
        <time>2020-05-20T16:06:47Z</time>
      </trkpt>
      <trkpt lat="47.09108" lon="-1.81117">
        <ele>3.38</ele>
        <time>2020-05-20T16:06:49Z</time>
      </trkpt>
      <trkpt lat="47.09095" lon="-1.81118">
        <ele>2.95</ele>
        <time>2020-05-20T16:06:51Z</time>
      </trkpt>
      <trkpt lat="47.09082" lon="-1.81119">
        <ele>1.7</ele>
        <time>2020-05-20T16:06:53Z</time>
      </trkpt>
      <trkpt lat="47.0907" lon="-1.81124">
        <ele>0.84</ele>
        <time>2020-05-20T16:06:55Z</time>
      </trkpt>
      <trkpt lat="47.09059" lon="-1.81135">
        <ele>0.64</ele>
        <time>2020-05-20T16:06:57Z</time>
      </trkpt>
      <trkpt lat="47.0905" lon="-1.81148">
        <ele>-1.51</ele>
        <time>2020-05-20T16:06:59Z</time>
      </trkpt>
      <trkpt lat="47.09043" lon="-1.81167">
        <ele>-3</ele>
        <time>2020-05-20T16:07:01Z</time>
      </trkpt>
      <trkpt lat="47.09039" lon="-1.81183">
        <ele>-1.81</ele>
        <time>2020-05-20T16:07:03Z</time>
      </trkpt>
      <trkpt lat="47.09034" lon="-1.812">
        <ele>-0.06</ele>
        <time>2020-05-20T16:07:05Z</time>
      </trkpt>
      <trkpt lat="47.09029" lon="-1.81218">
        <ele>2.61</ele>
        <time>2020-05-20T16:07:07Z</time>
      </trkpt>
      <trkpt lat="47.09025" lon="-1.81233">
        <ele>4.16</ele>
        <time>2020-05-20T16:07:09Z</time>
      </trkpt>
      <trkpt lat="47.09018" lon="-1.81251">
        <ele>4.82</ele>
        <time>2020-05-20T16:07:11Z</time>
      </trkpt>
      <trkpt lat="47.09013" lon="-1.81262">
        <ele>4.79</ele>
        <time>2020-05-20T16:07:13Z</time>
      </trkpt>
      <trkpt lat="47.09005" lon="-1.81275">
        <ele>5.84</ele>
        <time>2020-05-20T16:07:15Z</time>
      </trkpt>
      <trkpt lat="47.08996" lon="-1.81287">
        <ele>7.36</ele>
        <time>2020-05-20T16:07:17Z</time>
      </trkpt>
      <trkpt lat="47.08987" lon="-1.813">
        <ele>6.85</ele>
        <time>2020-05-20T16:07:19Z</time>
      </trkpt>
      <trkpt lat="47.08978" lon="-1.81312">
        <ele>5.72</ele>
        <time>2020-05-20T16:07:21Z</time>
      </trkpt>
      <trkpt lat="47.08969" lon="-1.81323">
        <ele>4.71</ele>
        <time>2020-05-20T16:07:23Z</time>
      </trkpt>
      <trkpt lat="47.0896" lon="-1.81335">
        <ele>3.53</ele>
        <time>2020-05-20T16:07:25Z</time>
      </trkpt>
      <trkpt lat="47.08952" lon="-1.81346">
        <ele>2.93</ele>
        <time>2020-05-20T16:07:27Z</time>
      </trkpt>
      <trkpt lat="47.08943" lon="-1.81358">
        <ele>2.45</ele>
        <time>2020-05-20T16:07:29Z</time>
      </trkpt>
      <trkpt lat="47.08933" lon="-1.81368">
        <ele>1.94</ele>
        <time>2020-05-20T16:07:30Z</time>
      </trkpt>
      <trkpt lat="47.08922" lon="-1.81378">
        <ele>2.51</ele>
        <time>2020-05-20T16:07:32Z</time>
      </trkpt>
      <trkpt lat="47.08911" lon="-1.81387">
        <ele>3.32</ele>
        <time>2020-05-20T16:07:34Z</time>
      </trkpt>
      <trkpt lat="47.08899" lon="-1.81398">
        <ele>3.09</ele>
        <time>2020-05-20T16:07:36Z</time>
      </trkpt>
      <trkpt lat="47.08888" lon="-1.81411">
        <ele>3.2</ele>
        <time>2020-05-20T16:07:38Z</time>
      </trkpt>
      <trkpt lat="47.0888" lon="-1.81421">
        <ele>3.73</ele>
        <time>2020-05-20T16:07:40Z</time>
      </trkpt>
      <trkpt lat="47.08872" lon="-1.8143">
        <ele>4.54</ele>
        <time>2020-05-20T16:07:42Z</time>
      </trkpt>
      <trkpt lat="47.08863" lon="-1.81443">
        <ele>5.87</ele>
        <time>2020-05-20T16:07:44Z</time>
      </trkpt>
      <trkpt lat="47.08853" lon="-1.81454">
        <ele>8.17</ele>
        <time>2020-05-20T16:07:46Z</time>
      </trkpt>
      <trkpt lat="47.08842" lon="-1.81465">
        <ele>9.18</ele>
        <time>2020-05-20T16:07:48Z</time>
      </trkpt>
      <trkpt lat="47.08833" lon="-1.81473">
        <ele>10.18</ele>
        <time>2020-05-20T16:07:50Z</time>
      </trkpt>
      <trkpt lat="47.08822" lon="-1.81482">
        <ele>10.64</ele>
        <time>2020-05-20T16:07:52Z</time>
      </trkpt>
      <trkpt lat="47.08814" lon="-1.81489">
        <ele>11.96</ele>
        <time>2020-05-20T16:07:54Z</time>
      </trkpt>
      <trkpt lat="47.08804" lon="-1.81498">
        <ele>13.74</ele>
        <time>2020-05-20T16:07:56Z</time>
      </trkpt>
      <trkpt lat="47.08794" lon="-1.81505">
        <ele>14.35</ele>
        <time>2020-05-20T16:07:58Z</time>
      </trkpt>
      <trkpt lat="47.08785" lon="-1.81512">
        <ele>14.65</ele>
        <time>2020-05-20T16:08:00Z</time>
      </trkpt>
      <trkpt lat="47.08775" lon="-1.8152">
        <ele>14.83</ele>
        <time>2020-05-20T16:08:02Z</time>
      </trkpt>
      <trkpt lat="47.08765" lon="-1.8153">
        <ele>14.76</ele>
        <time>2020-05-20T16:08:04Z</time>
      </trkpt>
      <trkpt lat="47.08756" lon="-1.81538">
        <ele>15.62</ele>
        <time>2020-05-20T16:08:06Z</time>
      </trkpt>
      <trkpt lat="47.08746" lon="-1.81546">
        <ele>17.76</ele>
        <time>2020-05-20T16:08:08Z</time>
      </trkpt>
      <trkpt lat="47.08738" lon="-1.81555">
        <ele>17.88</ele>
        <time>2020-05-20T16:08:10Z</time>
      </trkpt>
      <trkpt lat="47.08731" lon="-1.81567">
        <ele>17.53</ele>
        <time>2020-05-20T16:08:12Z</time>
      </trkpt>
      <trkpt lat="47.08726" lon="-1.81579">
        <ele>17.01</ele>
        <time>2020-05-20T16:08:14Z</time>
      </trkpt>
      <trkpt lat="47.0872" lon="-1.81594">
        <ele>16.63</ele>
        <time>2020-05-20T16:08:16Z</time>
      </trkpt>
      <trkpt lat="47.08714" lon="-1.81608">
        <ele>16.51</ele>
        <time>2020-05-20T16:08:18Z</time>
      </trkpt>
      <trkpt lat="47.08709" lon="-1.81623">
        <ele>16.66</ele>
        <time>2020-05-20T16:08:20Z</time>
      </trkpt>
      <trkpt lat="47.08704" lon="-1.81638">
        <ele>16.97</ele>
        <time>2020-05-20T16:08:22Z</time>
      </trkpt>
      <trkpt lat="47.08698" lon="-1.81655">
        <ele>17.57</ele>
        <time>2020-05-20T16:08:24Z</time>
      </trkpt>
      <trkpt lat="47.08692" lon="-1.8167">
        <ele>17.7</ele>
        <time>2020-05-20T16:08:26Z</time>
      </trkpt>
      <trkpt lat="47.08685" lon="-1.81682">
        <ele>17.46</ele>
        <time>2020-05-20T16:08:28Z</time>
      </trkpt>
      <trkpt lat="47.08673" lon="-1.81689">
        <ele>17.82</ele>
        <time>2020-05-20T16:08:30Z</time>
      </trkpt>
      <trkpt lat="47.08662" lon="-1.81694">
        <ele>18.61</ele>
        <time>2020-05-20T16:08:32Z</time>
      </trkpt>
      <trkpt lat="47.0865" lon="-1.81697">
        <ele>19.22</ele>
        <time>2020-05-20T16:08:34Z</time>
      </trkpt>
      <trkpt lat="47.08638" lon="-1.81695">
        <ele>18.91</ele>
        <time>2020-05-20T16:08:36Z</time>
      </trkpt>
      <trkpt lat="47.08629" lon="-1.81693">
        <ele>18.09</ele>
        <time>2020-05-20T16:08:38Z</time>
      </trkpt>
      <trkpt lat="47.08618" lon="-1.8169">
        <ele>17.96</ele>
        <time>2020-05-20T16:08:40Z</time>
      </trkpt>
      <trkpt lat="47.08606" lon="-1.81686">
        <ele>17.61</ele>
        <time>2020-05-20T16:08:42Z</time>
      </trkpt>
      <trkpt lat="47.08594" lon="-1.81682">
        <ele>17.26</ele>
        <time>2020-05-20T16:08:44Z</time>
      </trkpt>
      <trkpt lat="47.08582" lon="-1.81678">
        <ele>17.79</ele>
        <time>2020-05-20T16:08:46Z</time>
      </trkpt>
      <trkpt lat="47.08571" lon="-1.81675">
        <ele>17.34</ele>
        <time>2020-05-20T16:08:48Z</time>
      </trkpt>
      <trkpt lat="47.08559" lon="-1.81672">
        <ele>16.12</ele>
        <time>2020-05-20T16:08:50Z</time>
      </trkpt>
      <trkpt lat="47.0855" lon="-1.81669">
        <ele>15.99</ele>
        <time>2020-05-20T16:08:52Z</time>
      </trkpt>
      <trkpt lat="47.08539" lon="-1.81666">
        <ele>15.06</ele>
        <time>2020-05-20T16:08:54Z</time>
      </trkpt>
      <trkpt lat="47.08527" lon="-1.81663">
        <ele>14.01</ele>
        <time>2020-05-20T16:08:56Z</time>
      </trkpt>
      <trkpt lat="47.08515" lon="-1.8166">
        <ele>14.39</ele>
        <time>2020-05-20T16:08:58Z</time>
      </trkpt>
      <trkpt lat="47.08502" lon="-1.81658">
        <ele>15.29</ele>
        <time>2020-05-20T16:09:00Z</time>
      </trkpt>
      <trkpt lat="47.08493" lon="-1.81657">
        <ele>15.31</ele>
        <time>2020-05-20T16:09:02Z</time>
      </trkpt>
      <trkpt lat="47.08481" lon="-1.81656">
        <ele>15.28</ele>
        <time>2020-05-20T16:09:04Z</time>
      </trkpt>
      <trkpt lat="47.08469" lon="-1.81654">
        <ele>15.15</ele>
        <time>2020-05-20T16:09:06Z</time>
      </trkpt>
      <trkpt lat="47.08458" lon="-1.81653">
        <ele>14.77</ele>
        <time>2020-05-20T16:09:08Z</time>
      </trkpt>
      <trkpt lat="47.08446" lon="-1.81651">
        <ele>14.22</ele>
        <time>2020-05-20T16:09:10Z</time>
      </trkpt>
      <trkpt lat="47.08433" lon="-1.8165">
        <ele>14</ele>
        <time>2020-05-20T16:09:12Z</time>
      </trkpt>
      <trkpt lat="47.0842" lon="-1.81649">
        <ele>14</ele>
        <time>2020-05-20T16:09:14Z</time>
      </trkpt>
      <trkpt lat="47.08408" lon="-1.81647">
        <ele>15.31</ele>
        <time>2020-05-20T16:09:16Z</time>
      </trkpt>
      <trkpt lat="47.08396" lon="-1.81645">
        <ele>17.12</ele>
        <time>2020-05-20T16:09:18Z</time>
      </trkpt>
      <trkpt lat="47.08382" lon="-1.81643">
        <ele>17.91</ele>
        <time>2020-05-20T16:09:20Z</time>
      </trkpt>
      <trkpt lat="47.0837" lon="-1.81642">
        <ele>17.36</ele>
        <time>2020-05-20T16:09:22Z</time>
      </trkpt>
      <trkpt lat="47.08358" lon="-1.8164">
        <ele>16.81</ele>
        <time>2020-05-20T16:09:24Z</time>
      </trkpt>
      <trkpt lat="47.08348" lon="-1.81639">
        <ele>17.12</ele>
        <time>2020-05-20T16:09:26Z</time>
      </trkpt>
      <trkpt lat="47.08336" lon="-1.81638">
        <ele>17.48</ele>
        <time>2020-05-20T16:09:28Z</time>
      </trkpt>
      <trkpt lat="47.08324" lon="-1.81635">
        <ele>16.99</ele>
        <time>2020-05-20T16:09:30Z</time>
      </trkpt>
      <trkpt lat="47.08312" lon="-1.81634">
        <ele>16.15</ele>
        <time>2020-05-20T16:09:32Z</time>
      </trkpt>
      <trkpt lat="47.08301" lon="-1.81631">
        <ele>15.48</ele>
        <time>2020-05-20T16:09:34Z</time>
      </trkpt>
      <trkpt lat="47.08289" lon="-1.81632">
        <ele>14.92</ele>
        <time>2020-05-20T16:09:36Z</time>
      </trkpt>
      <trkpt lat="47.08277" lon="-1.81632">
        <ele>14.5</ele>
        <time>2020-05-20T16:09:38Z</time>
      </trkpt>
      <trkpt lat="47.08266" lon="-1.81632">
        <ele>15.31</ele>
        <time>2020-05-20T16:09:40Z</time>
      </trkpt>
      <trkpt lat="47.08254" lon="-1.81632">
        <ele>16.5</ele>
        <time>2020-05-20T16:09:42Z</time>
      </trkpt>
      <trkpt lat="47.0824" lon="-1.81631">
        <ele>17.05</ele>
        <time>2020-05-20T16:09:44Z</time>
      </trkpt>
      <trkpt lat="47.08226" lon="-1.81631">
        <ele>17.93</ele>
        <time>2020-05-20T16:09:46Z</time>
      </trkpt>
      <trkpt lat="47.08213" lon="-1.8163">
        <ele>18.79</ele>
        <time>2020-05-20T16:09:48Z</time>
      </trkpt>
      <trkpt lat="47.08198" lon="-1.81628">
        <ele>18.59</ele>
        <time>2020-05-20T16:09:50Z</time>
      </trkpt>
      <trkpt lat="47.08184" lon="-1.81627">
        <ele>18.09</ele>
        <time>2020-05-20T16:09:52Z</time>
      </trkpt>
      <trkpt lat="47.08171" lon="-1.81627">
        <ele>17.28</ele>
        <time>2020-05-20T16:09:54Z</time>
      </trkpt>
      <trkpt lat="47.08158" lon="-1.81626">
        <ele>17.89</ele>
        <time>2020-05-20T16:09:56Z</time>
      </trkpt>
      <trkpt lat="47.08143" lon="-1.81626">
        <ele>17.81</ele>
        <time>2020-05-20T16:09:58Z</time>
      </trkpt>
      <trkpt lat="47.08128" lon="-1.81625">
        <ele>16.74</ele>
        <time>2020-05-20T16:10:00Z</time>
      </trkpt>
      <trkpt lat="47.08115" lon="-1.81623">
        <ele>15.56</ele>
        <time>2020-05-20T16:10:02Z</time>
      </trkpt>
      <trkpt lat="47.08102" lon="-1.81621">
        <ele>15.85</ele>
        <time>2020-05-20T16:10:04Z</time>
      </trkpt>
      <trkpt lat="47.08088" lon="-1.81617">
        <ele>15.35</ele>
        <time>2020-05-20T16:10:06Z</time>
      </trkpt>
      <trkpt lat="47.08075" lon="-1.81613">
        <ele>15.42</ele>
        <time>2020-05-20T16:10:08Z</time>
      </trkpt>
      <trkpt lat="47.08062" lon="-1.81607">
        <ele>15.92</ele>
        <time>2020-05-20T16:10:10Z</time>
      </trkpt>
      <trkpt lat="47.08049" lon="-1.816">
        <ele>17.07</ele>
        <time>2020-05-20T16:10:12Z</time>
      </trkpt>
      <trkpt lat="47.08036" lon="-1.81592">
        <ele>17.96</ele>
        <time>2020-05-20T16:10:14Z</time>
      </trkpt>
      <trkpt lat="47.08023" lon="-1.81585">
        <ele>18.36</ele>
        <time>2020-05-20T16:10:16Z</time>
      </trkpt>
      <trkpt lat="47.08011" lon="-1.81578">
        <ele>18.69</ele>
        <time>2020-05-20T16:10:18Z</time>
      </trkpt>
      <trkpt lat="47.07998" lon="-1.8157">
        <ele>19.25</ele>
        <time>2020-05-20T16:10:20Z</time>
      </trkpt>
      <trkpt lat="47.07986" lon="-1.81564">
        <ele>19.66</ele>
        <time>2020-05-20T16:10:22Z</time>
      </trkpt>
      <trkpt lat="47.07973" lon="-1.8156">
        <ele>19.75</ele>
        <time>2020-05-20T16:10:24Z</time>
      </trkpt>
      <trkpt lat="47.07959" lon="-1.81556">
        <ele>19.27</ele>
        <time>2020-05-20T16:10:26Z</time>
      </trkpt>
      <trkpt lat="47.07946" lon="-1.81555">
        <ele>18.15</ele>
        <time>2020-05-20T16:10:28Z</time>
      </trkpt>
      <trkpt lat="47.07931" lon="-1.81556">
        <ele>17.35</ele>
        <time>2020-05-20T16:10:30Z</time>
      </trkpt>
      <trkpt lat="47.07916" lon="-1.81557">
        <ele>17.19</ele>
        <time>2020-05-20T16:10:32Z</time>
      </trkpt>
      <trkpt lat="47.07902" lon="-1.81559">
        <ele>16.71</ele>
        <time>2020-05-20T16:10:34Z</time>
      </trkpt>
      <trkpt lat="47.07888" lon="-1.8156">
        <ele>16.24</ele>
        <time>2020-05-20T16:10:36Z</time>
      </trkpt>
      <trkpt lat="47.07873" lon="-1.81562">
        <ele>15.06</ele>
        <time>2020-05-20T16:10:38Z</time>
      </trkpt>
      <trkpt lat="47.07858" lon="-1.81562">
        <ele>14.75</ele>
        <time>2020-05-20T16:10:40Z</time>
      </trkpt>
      <trkpt lat="47.07844" lon="-1.81562">
        <ele>15.46</ele>
        <time>2020-05-20T16:10:42Z</time>
      </trkpt>
      <trkpt lat="47.0783" lon="-1.81561">
        <ele>15.23</ele>
        <time>2020-05-20T16:10:44Z</time>
      </trkpt>
      <trkpt lat="47.07817" lon="-1.81558">
        <ele>14.7</ele>
        <time>2020-05-20T16:10:46Z</time>
      </trkpt>
      <trkpt lat="47.07803" lon="-1.81555">
        <ele>14.72</ele>
        <time>2020-05-20T16:10:48Z</time>
      </trkpt>
      <trkpt lat="47.0779" lon="-1.81552">
        <ele>15.4</ele>
        <time>2020-05-20T16:10:50Z</time>
      </trkpt>
      <trkpt lat="47.07777" lon="-1.8155">
        <ele>15.63</ele>
        <time>2020-05-20T16:10:52Z</time>
      </trkpt>
      <trkpt lat="47.07765" lon="-1.81548">
        <ele>16.21</ele>
        <time>2020-05-20T16:10:54Z</time>
      </trkpt>
      <trkpt lat="47.07752" lon="-1.81547">
        <ele>16.99</ele>
        <time>2020-05-20T16:10:56Z</time>
      </trkpt>
      <trkpt lat="47.07737" lon="-1.81547">
        <ele>17.96</ele>
        <time>2020-05-20T16:10:58Z</time>
      </trkpt>
      <trkpt lat="47.07722" lon="-1.81547">
        <ele>17.97</ele>
        <time>2020-05-20T16:11:00Z</time>
      </trkpt>
      <trkpt lat="47.0771" lon="-1.81546">
        <ele>17.32</ele>
        <time>2020-05-20T16:11:02Z</time>
      </trkpt>
      <trkpt lat="47.07698" lon="-1.81545">
        <ele>17.13</ele>
        <time>2020-05-20T16:11:04Z</time>
      </trkpt>
      <trkpt lat="47.07683" lon="-1.81544">
        <ele>16.8</ele>
        <time>2020-05-20T16:11:06Z</time>
      </trkpt>
      <trkpt lat="47.07669" lon="-1.81542">
        <ele>15.51</ele>
        <time>2020-05-20T16:11:08Z</time>
      </trkpt>
      <trkpt lat="47.07656" lon="-1.81541">
        <ele>15.08</ele>
        <time>2020-05-20T16:11:10Z</time>
      </trkpt>
      <trkpt lat="47.07644" lon="-1.81538">
        <ele>15.63</ele>
        <time>2020-05-20T16:11:12Z</time>
      </trkpt>
      <trkpt lat="47.07631" lon="-1.81531">
        <ele>15.4</ele>
        <time>2020-05-20T16:11:14Z</time>
      </trkpt>
      <trkpt lat="47.07617" lon="-1.81521">
        <ele>15.49</ele>
        <time>2020-05-20T16:11:16Z</time>
      </trkpt>
      <trkpt lat="47.07606" lon="-1.81511">
        <ele>15.99</ele>
        <time>2020-05-20T16:11:18Z</time>
      </trkpt>
      <trkpt lat="47.07595" lon="-1.81499">
        <ele>15.81</ele>
        <time>2020-05-20T16:11:20Z</time>
      </trkpt>
      <trkpt lat="47.07582" lon="-1.81486">
        <ele>15.89</ele>
        <time>2020-05-20T16:11:22Z</time>
      </trkpt>
      <trkpt lat="47.07571" lon="-1.81475">
        <ele>15.89</ele>
        <time>2020-05-20T16:11:24Z</time>
      </trkpt>
      <trkpt lat="47.07561" lon="-1.81464">
        <ele>15.8</ele>
        <time>2020-05-20T16:11:26Z</time>
      </trkpt>
      <trkpt lat="47.07551" lon="-1.81454">
        <ele>15.59</ele>
        <time>2020-05-20T16:11:28Z</time>
      </trkpt>
      <trkpt lat="47.0754" lon="-1.81446">
        <ele>15.39</ele>
        <time>2020-05-20T16:11:30Z</time>
      </trkpt>
      <trkpt lat="47.07529" lon="-1.81439">
        <ele>15.31</ele>
        <time>2020-05-20T16:11:32Z</time>
      </trkpt>
      <trkpt lat="47.07516" lon="-1.81441">
        <ele>14.68</ele>
        <time>2020-05-20T16:11:34Z</time>
      </trkpt>
      <trkpt lat="47.07504" lon="-1.81448">
        <ele>14.52</ele>
        <time>2020-05-20T16:11:36Z</time>
      </trkpt>
      <trkpt lat="47.07493" lon="-1.81455">
        <ele>14.55</ele>
        <time>2020-05-20T16:11:38Z</time>
      </trkpt>
      <trkpt lat="47.07482" lon="-1.81462">
        <ele>15.72</ele>
        <time>2020-05-20T16:11:40Z</time>
      </trkpt>
      <trkpt lat="47.07468" lon="-1.8147">
        <ele>16.97</ele>
        <time>2020-05-20T16:11:42Z</time>
      </trkpt>
      <trkpt lat="47.07453" lon="-1.81477">
        <ele>18.06</ele>
        <time>2020-05-20T16:11:44Z</time>
      </trkpt>
      <trkpt lat="47.07439" lon="-1.81482">
        <ele>19.14</ele>
        <time>2020-05-20T16:11:46Z</time>
      </trkpt>
      <trkpt lat="47.07426" lon="-1.81485">
        <ele>19.31</ele>
        <time>2020-05-20T16:11:48Z</time>
      </trkpt>
      <trkpt lat="47.07413" lon="-1.81487">
        <ele>20.01</ele>
        <time>2020-05-20T16:11:50Z</time>
      </trkpt>
      <trkpt lat="47.07399" lon="-1.81485">
        <ele>19.95</ele>
        <time>2020-05-20T16:11:52Z</time>
      </trkpt>
      <trkpt lat="47.07388" lon="-1.81484">
        <ele>19.73</ele>
        <time>2020-05-20T16:11:54Z</time>
      </trkpt>
      <trkpt lat="47.07374" lon="-1.81483">
        <ele>19.83</ele>
        <time>2020-05-20T16:11:56Z</time>
      </trkpt>
      <trkpt lat="47.07361" lon="-1.81481">
        <ele>18.87</ele>
        <time>2020-05-20T16:11:58Z</time>
      </trkpt>
      <trkpt lat="47.07348" lon="-1.81478">
        <ele>18.38</ele>
        <time>2020-05-20T16:12:00Z</time>
      </trkpt>
      <trkpt lat="47.07336" lon="-1.81473">
        <ele>18</ele>
        <time>2020-05-20T16:12:02Z</time>
      </trkpt>
      <trkpt lat="47.07323" lon="-1.81467">
        <ele>17.71</ele>
        <time>2020-05-20T16:12:04Z</time>
      </trkpt>
      <trkpt lat="47.07309" lon="-1.8146">
        <ele>17.64</ele>
        <time>2020-05-20T16:12:06Z</time>
      </trkpt>
      <trkpt lat="47.07297" lon="-1.81454">
        <ele>16.91</ele>
        <time>2020-05-20T16:12:08Z</time>
      </trkpt>
      <trkpt lat="47.07285" lon="-1.81445">
        <ele>15.77</ele>
        <time>2020-05-20T16:12:10Z</time>
      </trkpt>
      <trkpt lat="47.07274" lon="-1.81436">
        <ele>15.76</ele>
        <time>2020-05-20T16:12:12Z</time>
      </trkpt>
      <trkpt lat="47.07265" lon="-1.81427">
        <ele>16.22</ele>
        <time>2020-05-20T16:12:14Z</time>
      </trkpt>
      <trkpt lat="47.07255" lon="-1.81417">
        <ele>15.66</ele>
        <time>2020-05-20T16:12:16Z</time>
      </trkpt>
      <trkpt lat="47.07246" lon="-1.81408">
        <ele>16.61</ele>
        <time>2020-05-20T16:12:18Z</time>
      </trkpt>
      <trkpt lat="47.07236" lon="-1.81397">
        <ele>16.76</ele>
        <time>2020-05-20T16:12:20Z</time>
      </trkpt>
      <trkpt lat="47.07227" lon="-1.81386">
        <ele>17.12</ele>
        <time>2020-05-20T16:12:22Z</time>
      </trkpt>
      <trkpt lat="47.07216" lon="-1.81375">
        <ele>18.12</ele>
        <time>2020-05-20T16:12:24Z</time>
      </trkpt>
      <trkpt lat="47.07206" lon="-1.81364">
        <ele>18.16</ele>
        <time>2020-05-20T16:12:26Z</time>
      </trkpt>
      <trkpt lat="47.07196" lon="-1.81354">
        <ele>17.95</ele>
        <time>2020-05-20T16:12:28Z</time>
      </trkpt>
      <trkpt lat="47.07186" lon="-1.81346">
        <ele>18.78</ele>
        <time>2020-05-20T16:12:30Z</time>
      </trkpt>
      <trkpt lat="47.07175" lon="-1.81344">
        <ele>19.28</ele>
        <time>2020-05-20T16:12:32Z</time>
      </trkpt>
      <trkpt lat="47.07163" lon="-1.81348">
        <ele>20.01</ele>
        <time>2020-05-20T16:12:34Z</time>
      </trkpt>
      <trkpt lat="47.07154" lon="-1.81358">
        <ele>20.15</ele>
        <time>2020-05-20T16:12:36Z</time>
      </trkpt>
      <trkpt lat="47.07143" lon="-1.81371">
        <ele>20.1</ele>
        <time>2020-05-20T16:12:38Z</time>
      </trkpt>
      <trkpt lat="47.07132" lon="-1.81382">
        <ele>19.39</ele>
        <time>2020-05-20T16:12:40Z</time>
      </trkpt>
      <trkpt lat="47.07122" lon="-1.81393">
        <ele>19.28</ele>
        <time>2020-05-20T16:12:42Z</time>
      </trkpt>
      <trkpt lat="47.07113" lon="-1.81405">
        <ele>20</ele>
        <time>2020-05-20T16:12:44Z</time>
      </trkpt>
      <trkpt lat="47.07104" lon="-1.81415">
        <ele>20.99</ele>
        <time>2020-05-20T16:12:46Z</time>
      </trkpt>
      <trkpt lat="47.07094" lon="-1.81428">
        <ele>20.63</ele>
        <time>2020-05-20T16:12:48Z</time>
      </trkpt>
      <trkpt lat="47.07086" lon="-1.81439">
        <ele>20.1</ele>
        <time>2020-05-20T16:12:50Z</time>
      </trkpt>
      <trkpt lat="47.07078" lon="-1.81453">
        <ele>19.17</ele>
        <time>2020-05-20T16:12:52Z</time>
      </trkpt>
      <trkpt lat="47.0707" lon="-1.81467">
        <ele>18.86</ele>
        <time>2020-05-20T16:12:54Z</time>
      </trkpt>
      <trkpt lat="47.07063" lon="-1.8148">
        <ele>18.08</ele>
        <time>2020-05-20T16:12:56Z</time>
      </trkpt>
      <trkpt lat="47.07056" lon="-1.81496">
        <ele>17.54</ele>
        <time>2020-05-20T16:12:58Z</time>
      </trkpt>
      <trkpt lat="47.07049" lon="-1.81512">
        <ele>16.67</ele>
        <time>2020-05-20T16:13:00Z</time>
      </trkpt>
      <trkpt lat="47.07043" lon="-1.81528">
        <ele>17.13</ele>
        <time>2020-05-20T16:13:02Z</time>
      </trkpt>
      <trkpt lat="47.07037" lon="-1.81542">
        <ele>17.87</ele>
        <time>2020-05-20T16:13:04Z</time>
      </trkpt>
      <trkpt lat="47.07031" lon="-1.81557">
        <ele>18.03</ele>
        <time>2020-05-20T16:13:06Z</time>
      </trkpt>
      <trkpt lat="47.07025" lon="-1.81573">
        <ele>18.89</ele>
        <time>2020-05-20T16:13:08Z</time>
      </trkpt>
      <trkpt lat="47.0702" lon="-1.81591">
        <ele>19.81</ele>
        <time>2020-05-20T16:13:10Z</time>
      </trkpt>
      <trkpt lat="47.07015" lon="-1.81608">
        <ele>21.45</ele>
        <time>2020-05-20T16:13:12Z</time>
      </trkpt>
      <trkpt lat="47.07009" lon="-1.81626">
        <ele>22.74</ele>
        <time>2020-05-20T16:13:14Z</time>
      </trkpt>
      <trkpt lat="47.07004" lon="-1.81644">
        <ele>23.78</ele>
        <time>2020-05-20T16:13:16Z</time>
      </trkpt>
      <trkpt lat="47.06999" lon="-1.8166">
        <ele>24.89</ele>
        <time>2020-05-20T16:13:18Z</time>
      </trkpt>
      <trkpt lat="47.06996" lon="-1.81674">
        <ele>24.93</ele>
        <time>2020-05-20T16:13:20Z</time>
      </trkpt>
      <trkpt lat="47.06991" lon="-1.81693">
        <ele>25.71</ele>
        <time>2020-05-20T16:13:22Z</time>
      </trkpt>
      <trkpt lat="47.06985" lon="-1.8171">
        <ele>26.69</ele>
        <time>2020-05-20T16:13:24Z</time>
      </trkpt>
      <trkpt lat="47.0698" lon="-1.81726">
        <ele>27.16</ele>
        <time>2020-05-20T16:13:26Z</time>
      </trkpt>
      <trkpt lat="47.06975" lon="-1.81741">
        <ele>26.78</ele>
        <time>2020-05-20T16:13:28Z</time>
      </trkpt>
      <trkpt lat="47.06968" lon="-1.81756">
        <ele>26.68</ele>
        <time>2020-05-20T16:13:30Z</time>
      </trkpt>
      <trkpt lat="47.06962" lon="-1.81771">
        <ele>27</ele>
        <time>2020-05-20T16:13:32Z</time>
      </trkpt>
      <trkpt lat="47.06955" lon="-1.81786">
        <ele>26.63</ele>
        <time>2020-05-20T16:13:34Z</time>
      </trkpt>
      <trkpt lat="47.06948" lon="-1.818">
        <ele>26.72</ele>
        <time>2020-05-20T16:13:36Z</time>
      </trkpt>
      <trkpt lat="47.06941" lon="-1.81815">
        <ele>26.86</ele>
        <time>2020-05-20T16:13:38Z</time>
      </trkpt>
      <trkpt lat="47.06935" lon="-1.81831">
        <ele>26.79</ele>
        <time>2020-05-20T16:13:40Z</time>
      </trkpt>
      <trkpt lat="47.06929" lon="-1.81847">
        <ele>26.71</ele>
        <time>2020-05-20T16:13:42Z</time>
      </trkpt>
      <trkpt lat="47.06922" lon="-1.81861">
        <ele>27.03</ele>
        <time>2020-05-20T16:13:44Z</time>
      </trkpt>
      <trkpt lat="47.06917" lon="-1.81874">
        <ele>27.5</ele>
        <time>2020-05-20T16:13:46Z</time>
      </trkpt>
      <trkpt lat="47.06911" lon="-1.81889">
        <ele>28.55</ele>
        <time>2020-05-20T16:13:48Z</time>
      </trkpt>
      <trkpt lat="47.06904" lon="-1.81905">
        <ele>29.4</ele>
        <time>2020-05-20T16:13:50Z</time>
      </trkpt>
      <trkpt lat="47.06897" lon="-1.8192">
        <ele>29.15</ele>
        <time>2020-05-20T16:13:52Z</time>
      </trkpt>
      <trkpt lat="47.06892" lon="-1.81936">
        <ele>28.99</ele>
        <time>2020-05-20T16:13:54Z</time>
      </trkpt>
      <trkpt lat="47.06889" lon="-1.81954">
        <ele>28.5</ele>
        <time>2020-05-20T16:13:56Z</time>
      </trkpt>
      <trkpt lat="47.06889" lon="-1.81972">
        <ele>28.43</ele>
        <time>2020-05-20T16:13:58Z</time>
      </trkpt>
      <trkpt lat="47.0689" lon="-1.81988">
        <ele>29.19</ele>
        <time>2020-05-20T16:14:00Z</time>
      </trkpt>
      <trkpt lat="47.06892" lon="-1.82004">
        <ele>29.84</ele>
        <time>2020-05-20T16:14:02Z</time>
      </trkpt>
      <trkpt lat="47.06894" lon="-1.8202">
        <ele>29.98</ele>
        <time>2020-05-20T16:14:04Z</time>
      </trkpt>
      <trkpt lat="47.06896" lon="-1.82037">
        <ele>30.58</ele>
        <time>2020-05-20T16:14:06Z</time>
      </trkpt>
      <trkpt lat="47.06898" lon="-1.82052">
        <ele>30.6</ele>
        <time>2020-05-20T16:14:08Z</time>
      </trkpt>
      <trkpt lat="47.069" lon="-1.82069">
        <ele>31.04</ele>
        <time>2020-05-20T16:14:10Z</time>
      </trkpt>
      <trkpt lat="47.06902" lon="-1.82086">
        <ele>30.28</ele>
        <time>2020-05-20T16:14:12Z</time>
      </trkpt>
      <trkpt lat="47.06903" lon="-1.82105">
        <ele>30.52</ele>
        <time>2020-05-20T16:14:14Z</time>
      </trkpt>
      <trkpt lat="47.06905" lon="-1.82125">
        <ele>31.34</ele>
        <time>2020-05-20T16:14:16Z</time>
      </trkpt>
      <trkpt lat="47.06906" lon="-1.82145">
        <ele>30.92</ele>
        <time>2020-05-20T16:14:18Z</time>
      </trkpt>
      <trkpt lat="47.06906" lon="-1.82162">
        <ele>28.96</ele>
        <time>2020-05-20T16:14:20Z</time>
      </trkpt>
      <trkpt lat="47.06906" lon="-1.82178">
        <ele>27.36</ele>
        <time>2020-05-20T16:14:22Z</time>
      </trkpt>
      <trkpt lat="47.06906" lon="-1.82198">
        <ele>26.34</ele>
        <time>2020-05-20T16:14:24Z</time>
      </trkpt>
      <trkpt lat="47.06905" lon="-1.82217">
        <ele>26.32</ele>
        <time>2020-05-20T16:14:26Z</time>
      </trkpt>
      <trkpt lat="47.06904" lon="-1.82233">
        <ele>26.1</ele>
        <time>2020-05-20T16:14:28Z</time>
      </trkpt>
      <trkpt lat="47.06903" lon="-1.8225">
        <ele>26.37</ele>
        <time>2020-05-20T16:14:30Z</time>
      </trkpt>
      <trkpt lat="47.06902" lon="-1.82268">
        <ele>27.51</ele>
        <time>2020-05-20T16:14:32Z</time>
      </trkpt>
      <trkpt lat="47.06902" lon="-1.82287">
        <ele>28.33</ele>
        <time>2020-05-20T16:14:34Z</time>
      </trkpt>
      <trkpt lat="47.06901" lon="-1.82306">
        <ele>29.03</ele>
        <time>2020-05-20T16:14:36Z</time>
      </trkpt>
      <trkpt lat="47.06899" lon="-1.82323">
        <ele>30.23</ele>
        <time>2020-05-20T16:14:38Z</time>
      </trkpt>
      <trkpt lat="47.06898" lon="-1.8234">
        <ele>31.84</ele>
        <time>2020-05-20T16:14:40Z</time>
      </trkpt>
      <trkpt lat="47.06895" lon="-1.82358">
        <ele>32.99</ele>
        <time>2020-05-20T16:14:42Z</time>
      </trkpt>
      <trkpt lat="47.06893" lon="-1.82374">
        <ele>33.38</ele>
        <time>2020-05-20T16:14:44Z</time>
      </trkpt>
      <trkpt lat="47.0689" lon="-1.82389">
        <ele>33.04</ele>
        <time>2020-05-20T16:14:46Z</time>
      </trkpt>
      <trkpt lat="47.06888" lon="-1.82409">
        <ele>33.07</ele>
        <time>2020-05-20T16:14:48Z</time>
      </trkpt>
      <trkpt lat="47.06885" lon="-1.82427">
        <ele>33.01</ele>
        <time>2020-05-20T16:14:50Z</time>
      </trkpt>
      <trkpt lat="47.06883" lon="-1.82447">
        <ele>32.88</ele>
        <time>2020-05-20T16:14:52Z</time>
      </trkpt>
      <trkpt lat="47.06882" lon="-1.82466">
        <ele>33.16</ele>
        <time>2020-05-20T16:14:54Z</time>
      </trkpt>
      <trkpt lat="47.06881" lon="-1.82486">
        <ele>32.89</ele>
        <time>2020-05-20T16:14:56Z</time>
      </trkpt>
      <trkpt lat="47.06881" lon="-1.82504">
        <ele>32.91</ele>
        <time>2020-05-20T16:14:58Z</time>
      </trkpt>
      <trkpt lat="47.06882" lon="-1.82525">
        <ele>33.38</ele>
        <time>2020-05-20T16:15:00Z</time>
      </trkpt>
      <trkpt lat="47.06883" lon="-1.82543">
        <ele>34.05</ele>
        <time>2020-05-20T16:15:02Z</time>
      </trkpt>
      <trkpt lat="47.06884" lon="-1.82561">
        <ele>34.45</ele>
        <time>2020-05-20T16:15:04Z</time>
      </trkpt>
      <trkpt lat="47.06886" lon="-1.82579">
        <ele>34.86</ele>
        <time>2020-05-20T16:15:06Z</time>
      </trkpt>
      <trkpt lat="47.06887" lon="-1.82597">
        <ele>35.21</ele>
        <time>2020-05-20T16:15:08Z</time>
      </trkpt>
      <trkpt lat="47.06889" lon="-1.82615">
        <ele>35.32</ele>
        <time>2020-05-20T16:15:10Z</time>
      </trkpt>
      <trkpt lat="47.06891" lon="-1.82633">
        <ele>35.1</ele>
        <time>2020-05-20T16:15:12Z</time>
      </trkpt>
      <trkpt lat="47.06892" lon="-1.8265">
        <ele>34.83</ele>
        <time>2020-05-20T16:15:14Z</time>
      </trkpt>
      <trkpt lat="47.06894" lon="-1.82668">
        <ele>34.08</ele>
        <time>2020-05-20T16:15:16Z</time>
      </trkpt>
      <trkpt lat="47.06895" lon="-1.82687">
        <ele>34</ele>
        <time>2020-05-20T16:15:18Z</time>
      </trkpt>
      <trkpt lat="47.06895" lon="-1.82705">
        <ele>34.21</ele>
        <time>2020-05-20T16:15:20Z</time>
      </trkpt>
      <trkpt lat="47.06894" lon="-1.82724">
        <ele>33.9</ele>
        <time>2020-05-20T16:15:22Z</time>
      </trkpt>
      <trkpt lat="47.06895" lon="-1.82743">
        <ele>33.14</ele>
        <time>2020-05-20T16:15:24Z</time>
      </trkpt>
      <trkpt lat="47.06895" lon="-1.82762">
        <ele>32.04</ele>
        <time>2020-05-20T16:15:26Z</time>
      </trkpt>
      <trkpt lat="47.06895" lon="-1.82783">
        <ele>31.41</ele>
        <time>2020-05-20T16:15:28Z</time>
      </trkpt>
      <trkpt lat="47.06895" lon="-1.82801">
        <ele>31.15</ele>
        <time>2020-05-20T16:15:30Z</time>
      </trkpt>
      <trkpt lat="47.06896" lon="-1.82819">
        <ele>29.89</ele>
        <time>2020-05-20T16:15:32Z</time>
      </trkpt>
      <trkpt lat="47.06898" lon="-1.82838">
        <ele>28.81</ele>
        <time>2020-05-20T16:15:34Z</time>
      </trkpt>
      <trkpt lat="47.06899" lon="-1.82857">
        <ele>28.48</ele>
        <time>2020-05-20T16:15:36Z</time>
      </trkpt>
      <trkpt lat="47.06899" lon="-1.82874">
        <ele>28.21</ele>
        <time>2020-05-20T16:15:38Z</time>
      </trkpt>
      <trkpt lat="47.06901" lon="-1.82894">
        <ele>28.94</ele>
        <time>2020-05-20T16:15:40Z</time>
      </trkpt>
      <trkpt lat="47.06903" lon="-1.82914">
        <ele>29.65</ele>
        <time>2020-05-20T16:15:42Z</time>
      </trkpt>
      <trkpt lat="47.06904" lon="-1.82931">
        <ele>29.43</ele>
        <time>2020-05-20T16:15:44Z</time>
      </trkpt>
      <trkpt lat="47.06905" lon="-1.82953">
        <ele>29.59</ele>
        <time>2020-05-20T16:15:46Z</time>
      </trkpt>
      <trkpt lat="47.06906" lon="-1.82971">
        <ele>29.84</ele>
        <time>2020-05-20T16:15:48Z</time>
      </trkpt>
      <trkpt lat="47.06907" lon="-1.82989">
        <ele>29.56</ele>
        <time>2020-05-20T16:15:50Z</time>
      </trkpt>
      <trkpt lat="47.06908" lon="-1.83006">
        <ele>29.82</ele>
        <time>2020-05-20T16:15:52Z</time>
      </trkpt>
      <trkpt lat="47.06913" lon="-1.83023">
        <ele>29.29</ele>
        <time>2020-05-20T16:15:54Z</time>
      </trkpt>
      <trkpt lat="47.06907" lon="-1.8304">
        <ele>28.81</ele>
        <time>2020-05-20T16:15:57Z</time>
      </trkpt>
      <trkpt lat="47.06897" lon="-1.83042">
        <ele>29.67</ele>
        <time>2020-05-20T16:15:59Z</time>
      </trkpt>
      <trkpt lat="47.06884" lon="-1.8304">
        <ele>30.71</ele>
        <time>2020-05-20T16:16:01Z</time>
      </trkpt>
      <trkpt lat="47.06871" lon="-1.83039">
        <ele>31.3</ele>
        <time>2020-05-20T16:16:03Z</time>
      </trkpt>
      <trkpt lat="47.06857" lon="-1.83037">
        <ele>31.43</ele>
        <time>2020-05-20T16:16:05Z</time>
      </trkpt>
      <trkpt lat="47.06845" lon="-1.83034">
        <ele>30.77</ele>
        <time>2020-05-20T16:16:07Z</time>
      </trkpt>
      <trkpt lat="47.06832" lon="-1.83032">
        <ele>30.13</ele>
        <time>2020-05-20T16:16:09Z</time>
      </trkpt>
      <trkpt lat="47.06819" lon="-1.83032">
        <ele>29.95</ele>
        <time>2020-05-20T16:16:11Z</time>
      </trkpt>
      <trkpt lat="47.06805" lon="-1.83033">
        <ele>30.35</ele>
        <time>2020-05-20T16:16:13Z</time>
      </trkpt>
      <trkpt lat="47.06792" lon="-1.83034">
        <ele>30.92</ele>
        <time>2020-05-20T16:16:15Z</time>
      </trkpt>
      <trkpt lat="47.06779" lon="-1.83037">
        <ele>30.49</ele>
        <time>2020-05-20T16:16:17Z</time>
      </trkpt>
      <trkpt lat="47.06765" lon="-1.8304">
        <ele>31.1</ele>
        <time>2020-05-20T16:16:19Z</time>
      </trkpt>
      <trkpt lat="47.06751" lon="-1.83042">
        <ele>30.87</ele>
        <time>2020-05-20T16:16:21Z</time>
      </trkpt>
      <trkpt lat="47.06738" lon="-1.83043">
        <ele>30.58</ele>
        <time>2020-05-20T16:16:23Z</time>
      </trkpt>
      <trkpt lat="47.06725" lon="-1.83046">
        <ele>30.33</ele>
        <time>2020-05-20T16:16:25Z</time>
      </trkpt>
      <trkpt lat="47.06711" lon="-1.83048">
        <ele>31.02</ele>
        <time>2020-05-20T16:16:27Z</time>
      </trkpt>
      <trkpt lat="47.06697" lon="-1.83051">
        <ele>31.44</ele>
        <time>2020-05-20T16:16:29Z</time>
      </trkpt>
      <trkpt lat="47.06684" lon="-1.83054">
        <ele>32.2</ele>
        <time>2020-05-20T16:16:31Z</time>
      </trkpt>
      <trkpt lat="47.06671" lon="-1.83056">
        <ele>31.69</ele>
        <time>2020-05-20T16:16:33Z</time>
      </trkpt>
      <trkpt lat="47.06657" lon="-1.8306">
        <ele>30.89</ele>
        <time>2020-05-20T16:16:35Z</time>
      </trkpt>
      <trkpt lat="47.06646" lon="-1.83063">
        <ele>30.47</ele>
        <time>2020-05-20T16:16:37Z</time>
      </trkpt>
      <trkpt lat="47.06632" lon="-1.83066">
        <ele>30.86</ele>
        <time>2020-05-20T16:16:39Z</time>
      </trkpt>
      <trkpt lat="47.06619" lon="-1.83069">
        <ele>31.51</ele>
        <time>2020-05-20T16:16:41Z</time>
      </trkpt>
      <trkpt lat="47.06606" lon="-1.83071">
        <ele>31.03</ele>
        <time>2020-05-20T16:16:43Z</time>
      </trkpt>
      <trkpt lat="47.06593" lon="-1.83074">
        <ele>31.38</ele>
        <time>2020-05-20T16:16:45Z</time>
      </trkpt>
      <trkpt lat="47.06579" lon="-1.83078">
        <ele>30.9</ele>
        <time>2020-05-20T16:16:47Z</time>
      </trkpt>
      <trkpt lat="47.06565" lon="-1.83082">
        <ele>30.33</ele>
        <time>2020-05-20T16:16:49Z</time>
      </trkpt>
      <trkpt lat="47.06553" lon="-1.83087">
        <ele>30.56</ele>
        <time>2020-05-20T16:16:52Z</time>
      </trkpt>
      <trkpt lat="47.0654" lon="-1.83093">
        <ele>31.47</ele>
        <time>2020-05-20T16:16:54Z</time>
      </trkpt>
      <trkpt lat="47.06527" lon="-1.83099">
        <ele>32.93</ele>
        <time>2020-05-20T16:16:56Z</time>
      </trkpt>
      <trkpt lat="47.06513" lon="-1.83105">
        <ele>33.68</ele>
        <time>2020-05-20T16:16:58Z</time>
      </trkpt>
      <trkpt lat="47.065" lon="-1.8311">
        <ele>34.09</ele>
        <time>2020-05-20T16:17:00Z</time>
      </trkpt>
      <trkpt lat="47.06488" lon="-1.83115">
        <ele>34.22</ele>
        <time>2020-05-20T16:17:02Z</time>
      </trkpt>
      <trkpt lat="47.06476" lon="-1.8312">
        <ele>33.38</ele>
        <time>2020-05-20T16:17:04Z</time>
      </trkpt>
      <trkpt lat="47.06463" lon="-1.83126">
        <ele>32.59</ele>
        <time>2020-05-20T16:17:06Z</time>
      </trkpt>
      <trkpt lat="47.06449" lon="-1.83132">
        <ele>33.17</ele>
        <time>2020-05-20T16:17:08Z</time>
      </trkpt>
      <trkpt lat="47.06437" lon="-1.83138">
        <ele>33.69</ele>
        <time>2020-05-20T16:17:10Z</time>
      </trkpt>
      <trkpt lat="47.06424" lon="-1.83143">
        <ele>33.82</ele>
        <time>2020-05-20T16:17:12Z</time>
      </trkpt>
      <trkpt lat="47.06412" lon="-1.83149">
        <ele>33.82</ele>
        <time>2020-05-20T16:17:14Z</time>
      </trkpt>
      <trkpt lat="47.06399" lon="-1.83154">
        <ele>33.61</ele>
        <time>2020-05-20T16:17:16Z</time>
      </trkpt>
      <trkpt lat="47.06386" lon="-1.8316">
        <ele>33.92</ele>
        <time>2020-05-20T16:17:18Z</time>
      </trkpt>
      <trkpt lat="47.06374" lon="-1.83165">
        <ele>34.05</ele>
        <time>2020-05-20T16:17:20Z</time>
      </trkpt>
      <trkpt lat="47.06362" lon="-1.83169">
        <ele>34.41</ele>
        <time>2020-05-20T16:17:22Z</time>
      </trkpt>
      <trkpt lat="47.0635" lon="-1.83174">
        <ele>34.77</ele>
        <time>2020-05-20T16:17:24Z</time>
      </trkpt>
      <trkpt lat="47.06337" lon="-1.8318">
        <ele>34.91</ele>
        <time>2020-05-20T16:17:26Z</time>
      </trkpt>
      <trkpt lat="47.06325" lon="-1.83185">
        <ele>34.01</ele>
        <time>2020-05-20T16:17:28Z</time>
      </trkpt>
      <trkpt lat="47.06312" lon="-1.8319">
        <ele>33.89</ele>
        <time>2020-05-20T16:17:30Z</time>
      </trkpt>
      <trkpt lat="47.06299" lon="-1.83194">
        <ele>33.43</ele>
        <time>2020-05-20T16:17:32Z</time>
      </trkpt>
      <trkpt lat="47.06287" lon="-1.83198">
        <ele>33.14</ele>
        <time>2020-05-20T16:17:34Z</time>
      </trkpt>
      <trkpt lat="47.06274" lon="-1.832">
        <ele>32.96</ele>
        <time>2020-05-20T16:17:36Z</time>
      </trkpt>
      <trkpt lat="47.06263" lon="-1.83203">
        <ele>33.4</ele>
        <time>2020-05-20T16:17:38Z</time>
      </trkpt>
      <trkpt lat="47.06251" lon="-1.83204">
        <ele>32.61</ele>
        <time>2020-05-20T16:17:40Z</time>
      </trkpt>
      <trkpt lat="47.06238" lon="-1.83205">
        <ele>32.06</ele>
        <time>2020-05-20T16:17:42Z</time>
      </trkpt>
      <trkpt lat="47.06227" lon="-1.83206">
        <ele>32.39</ele>
        <time>2020-05-20T16:17:44Z</time>
      </trkpt>
      <trkpt lat="47.06214" lon="-1.83206">
        <ele>32.28</ele>
        <time>2020-05-20T16:17:46Z</time>
      </trkpt>
      <trkpt lat="47.06203" lon="-1.83206">
        <ele>32.52</ele>
        <time>2020-05-20T16:17:48Z</time>
      </trkpt>
      <trkpt lat="47.06189" lon="-1.83206">
        <ele>32.93</ele>
        <time>2020-05-20T16:17:50Z</time>
      </trkpt>
      <trkpt lat="47.06176" lon="-1.83206">
        <ele>33.19</ele>
        <time>2020-05-20T16:17:52Z</time>
      </trkpt>
      <trkpt lat="47.06164" lon="-1.83207">
        <ele>33.42</ele>
        <time>2020-05-20T16:17:54Z</time>
      </trkpt>
      <trkpt lat="47.06151" lon="-1.83208">
        <ele>34.24</ele>
        <time>2020-05-20T16:17:56Z</time>
      </trkpt>
      <trkpt lat="47.0614" lon="-1.83208">
        <ele>34.96</ele>
        <time>2020-05-20T16:17:58Z</time>
      </trkpt>
      <trkpt lat="47.06128" lon="-1.83208">
        <ele>34.97</ele>
        <time>2020-05-20T16:18:00Z</time>
      </trkpt>
      <trkpt lat="47.06115" lon="-1.83209">
        <ele>34.44</ele>
        <time>2020-05-20T16:18:02Z</time>
      </trkpt>
      <trkpt lat="47.06101" lon="-1.83209">
        <ele>33.47</ele>
        <time>2020-05-20T16:18:04Z</time>
      </trkpt>
      <trkpt lat="47.06088" lon="-1.8321">
        <ele>33.04</ele>
        <time>2020-05-20T16:18:06Z</time>
      </trkpt>
      <trkpt lat="47.06075" lon="-1.8321">
        <ele>32.42</ele>
        <time>2020-05-20T16:18:08Z</time>
      </trkpt>
      <trkpt lat="47.06062" lon="-1.83211">
        <ele>32.45</ele>
        <time>2020-05-20T16:18:10Z</time>
      </trkpt>
      <trkpt lat="47.06049" lon="-1.83212">
        <ele>32.34</ele>
        <time>2020-05-20T16:18:12Z</time>
      </trkpt>
      <trkpt lat="47.06038" lon="-1.83212">
        <ele>32.79</ele>
        <time>2020-05-20T16:18:14Z</time>
      </trkpt>
      <trkpt lat="47.06025" lon="-1.83213">
        <ele>33.47</ele>
        <time>2020-05-20T16:18:16Z</time>
      </trkpt>
      <trkpt lat="47.06012" lon="-1.83214">
        <ele>33.32</ele>
        <time>2020-05-20T16:18:18Z</time>
      </trkpt>
      <trkpt lat="47.06" lon="-1.83215">
        <ele>32.23</ele>
        <time>2020-05-20T16:18:20Z</time>
      </trkpt>
      <trkpt lat="47.05987" lon="-1.83215">
        <ele>31.04</ele>
        <time>2020-05-20T16:18:22Z</time>
      </trkpt>
      <trkpt lat="47.05974" lon="-1.8322">
        <ele>30.92</ele>
        <time>2020-05-20T16:18:24Z</time>
      </trkpt>
      <trkpt lat="47.05965" lon="-1.83228">
        <ele>31.51</ele>
        <time>2020-05-20T16:18:26Z</time>
      </trkpt>
      <trkpt lat="47.05955" lon="-1.83242">
        <ele>31.16</ele>
        <time>2020-05-20T16:18:28Z</time>
      </trkpt>
      <trkpt lat="47.05945" lon="-1.83257">
        <ele>31.6</ele>
        <time>2020-05-20T16:18:30Z</time>
      </trkpt>
      <trkpt lat="47.05935" lon="-1.83273">
        <ele>32.72</ele>
        <time>2020-05-20T16:18:32Z</time>
      </trkpt>
      <trkpt lat="47.05925" lon="-1.83288">
        <ele>33.74</ele>
        <time>2020-05-20T16:18:34Z</time>
      </trkpt>
      <trkpt lat="47.05915" lon="-1.83304">
        <ele>34.37</ele>
        <time>2020-05-20T16:18:36Z</time>
      </trkpt>
      <trkpt lat="47.05907" lon="-1.83317">
        <ele>35.34</ele>
        <time>2020-05-20T16:18:38Z</time>
      </trkpt>
      <trkpt lat="47.05898" lon="-1.8333">
        <ele>35.55</ele>
        <time>2020-05-20T16:18:40Z</time>
      </trkpt>
      <trkpt lat="47.05889" lon="-1.83343">
        <ele>35.23</ele>
        <time>2020-05-20T16:18:42Z</time>
      </trkpt>
      <trkpt lat="47.05881" lon="-1.83356">
        <ele>35.12</ele>
        <time>2020-05-20T16:18:44Z</time>
      </trkpt>
      <trkpt lat="47.05872" lon="-1.83369">
        <ele>34.67</ele>
        <time>2020-05-20T16:18:46Z</time>
      </trkpt>
      <trkpt lat="47.05862" lon="-1.83382">
        <ele>35.55</ele>
        <time>2020-05-20T16:18:48Z</time>
      </trkpt>
      <trkpt lat="47.05854" lon="-1.83395">
        <ele>36.61</ele>
        <time>2020-05-20T16:18:50Z</time>
      </trkpt>
      <trkpt lat="47.05845" lon="-1.8341">
        <ele>35.96</ele>
        <time>2020-05-20T16:18:52Z</time>
      </trkpt>
      <trkpt lat="47.05835" lon="-1.83424">
        <ele>34.87</ele>
        <time>2020-05-20T16:18:54Z</time>
      </trkpt>
      <trkpt lat="47.05826" lon="-1.83438">
        <ele>34.36</ele>
        <time>2020-05-20T16:18:56Z</time>
      </trkpt>
      <trkpt lat="47.05817" lon="-1.83451">
        <ele>34.33</ele>
        <time>2020-05-20T16:18:58Z</time>
      </trkpt>
      <trkpt lat="47.05807" lon="-1.83464">
        <ele>34.47</ele>
        <time>2020-05-20T16:19:00Z</time>
      </trkpt>
      <trkpt lat="47.05798" lon="-1.83476">
        <ele>34.23</ele>
        <time>2020-05-20T16:19:02Z</time>
      </trkpt>
      <trkpt lat="47.05789" lon="-1.83488">
        <ele>33.75</ele>
        <time>2020-05-20T16:19:04Z</time>
      </trkpt>
      <trkpt lat="47.0578" lon="-1.83499">
        <ele>34.4</ele>
        <time>2020-05-20T16:19:06Z</time>
      </trkpt>
      <trkpt lat="47.0577" lon="-1.83512">
        <ele>34.98</ele>
        <time>2020-05-20T16:19:08Z</time>
      </trkpt>
      <trkpt lat="47.0576" lon="-1.83524">
        <ele>34.93</ele>
        <time>2020-05-20T16:19:10Z</time>
      </trkpt>
      <trkpt lat="47.0575" lon="-1.83536">
        <ele>34.8</ele>
        <time>2020-05-20T16:19:12Z</time>
      </trkpt>
      <trkpt lat="47.05739" lon="-1.83549">
        <ele>34.57</ele>
        <time>2020-05-20T16:19:14Z</time>
      </trkpt>
      <trkpt lat="47.05728" lon="-1.83562">
        <ele>34.25</ele>
        <time>2020-05-20T16:19:16Z</time>
      </trkpt>
      <trkpt lat="47.05719" lon="-1.83576">
        <ele>33.37</ele>
        <time>2020-05-20T16:19:18Z</time>
      </trkpt>
      <trkpt lat="47.0571" lon="-1.83591">
        <ele>33.33</ele>
        <time>2020-05-20T16:19:20Z</time>
      </trkpt>
      <trkpt lat="47.05702" lon="-1.83605">
        <ele>33.41</ele>
        <time>2020-05-20T16:19:22Z</time>
      </trkpt>
      <trkpt lat="47.05694" lon="-1.8362">
        <ele>33.34</ele>
        <time>2020-05-20T16:19:24Z</time>
      </trkpt>
      <trkpt lat="47.05687" lon="-1.83634">
        <ele>32.84</ele>
        <time>2020-05-20T16:19:26Z</time>
      </trkpt>
      <trkpt lat="47.05679" lon="-1.83648">
        <ele>32.63</ele>
        <time>2020-05-20T16:19:28Z</time>
      </trkpt>
      <trkpt lat="47.05671" lon="-1.83663">
        <ele>33.37</ele>
        <time>2020-05-20T16:19:30Z</time>
      </trkpt>
      <trkpt lat="47.05662" lon="-1.8368">
        <ele>34.58</ele>
        <time>2020-05-20T16:19:32Z</time>
      </trkpt>
      <trkpt lat="47.05653" lon="-1.83698">
        <ele>35.5</ele>
        <time>2020-05-20T16:19:34Z</time>
      </trkpt>
      <trkpt lat="47.05645" lon="-1.83713">
        <ele>35.19</ele>
        <time>2020-05-20T16:19:36Z</time>
      </trkpt>
      <trkpt lat="47.05637" lon="-1.83728">
        <ele>35.32</ele>
        <time>2020-05-20T16:19:38Z</time>
      </trkpt>
      <trkpt lat="47.05629" lon="-1.83742">
        <ele>35.06</ele>
        <time>2020-05-20T16:19:40Z</time>
      </trkpt>
      <trkpt lat="47.05621" lon="-1.83757">
        <ele>35.08</ele>
        <time>2020-05-20T16:19:42Z</time>
      </trkpt>
      <trkpt lat="47.05612" lon="-1.83773">
        <ele>35.08</ele>
        <time>2020-05-20T16:19:44Z</time>
      </trkpt>
      <trkpt lat="47.05601" lon="-1.8379">
        <ele>35.04</ele>
        <time>2020-05-20T16:19:46Z</time>
      </trkpt>
      <trkpt lat="47.05593" lon="-1.83805">
        <ele>34.95</ele>
        <time>2020-05-20T16:19:48Z</time>
      </trkpt>
      <trkpt lat="47.05585" lon="-1.83821">
        <ele>33.94</ele>
        <time>2020-05-20T16:19:50Z</time>
      </trkpt>
      <trkpt lat="47.05576" lon="-1.83836">
        <ele>32.89</ele>
        <time>2020-05-20T16:19:52Z</time>
      </trkpt>
      <trkpt lat="47.05568" lon="-1.83852">
        <ele>32.37</ele>
        <time>2020-05-20T16:19:54Z</time>
      </trkpt>
      <trkpt lat="47.0556" lon="-1.83867">
        <ele>31.66</ele>
        <time>2020-05-20T16:19:56Z</time>
      </trkpt>
      <trkpt lat="47.05551" lon="-1.83882">
        <ele>31.45</ele>
        <time>2020-05-20T16:19:58Z</time>
      </trkpt>
      <trkpt lat="47.05543" lon="-1.83897">
        <ele>31.89</ele>
        <time>2020-05-20T16:20:00Z</time>
      </trkpt>
      <trkpt lat="47.05534" lon="-1.83913">
        <ele>32.12</ele>
        <time>2020-05-20T16:20:02Z</time>
      </trkpt>
      <trkpt lat="47.05526" lon="-1.83929">
        <ele>32.22</ele>
        <time>2020-05-20T16:20:04Z</time>
      </trkpt>
      <trkpt lat="47.05518" lon="-1.83944">
        <ele>32.08</ele>
        <time>2020-05-20T16:20:06Z</time>
      </trkpt>
      <trkpt lat="47.05509" lon="-1.8396">
        <ele>32.03</ele>
        <time>2020-05-20T16:20:08Z</time>
      </trkpt>
      <trkpt lat="47.05501" lon="-1.83975">
        <ele>32.58</ele>
        <time>2020-05-20T16:20:10Z</time>
      </trkpt>
      <trkpt lat="47.05492" lon="-1.83992">
        <ele>32.42</ele>
        <time>2020-05-20T16:20:12Z</time>
      </trkpt>
      <trkpt lat="47.05485" lon="-1.84007">
        <ele>32.47</ele>
        <time>2020-05-20T16:20:14Z</time>
      </trkpt>
      <trkpt lat="47.05477" lon="-1.84022">
        <ele>32.65</ele>
        <time>2020-05-20T16:20:16Z</time>
      </trkpt>
      <trkpt lat="47.05469" lon="-1.84037">
        <ele>32.8</ele>
        <time>2020-05-20T16:20:18Z</time>
      </trkpt>
      <trkpt lat="47.05459" lon="-1.84055">
        <ele>34.22</ele>
        <time>2020-05-20T16:20:20Z</time>
      </trkpt>
      <trkpt lat="47.05451" lon="-1.84071">
        <ele>35.13</ele>
        <time>2020-05-20T16:20:22Z</time>
      </trkpt>
      <trkpt lat="47.05443" lon="-1.84086">
        <ele>35.6</ele>
        <time>2020-05-20T16:20:24Z</time>
      </trkpt>
      <trkpt lat="47.05436" lon="-1.84102">
        <ele>35.94</ele>
        <time>2020-05-20T16:20:26Z</time>
      </trkpt>
      <trkpt lat="47.05428" lon="-1.84117">
        <ele>37.66</ele>
        <time>2020-05-20T16:20:28Z</time>
      </trkpt>
      <trkpt lat="47.0542" lon="-1.84133">
        <ele>37.78</ele>
        <time>2020-05-20T16:20:30Z</time>
      </trkpt>
      <trkpt lat="47.05411" lon="-1.8415">
        <ele>37.32</ele>
        <time>2020-05-20T16:20:32Z</time>
      </trkpt>
      <trkpt lat="47.05402" lon="-1.84167">
        <ele>36.86</ele>
        <time>2020-05-20T16:20:34Z</time>
      </trkpt>
      <trkpt lat="47.05395" lon="-1.84181">
        <ele>35.77</ele>
        <time>2020-05-20T16:20:36Z</time>
      </trkpt>
      <trkpt lat="47.05388" lon="-1.84195">
        <ele>34.88</ele>
        <time>2020-05-20T16:20:38Z</time>
      </trkpt>
      <trkpt lat="47.05379" lon="-1.84213">
        <ele>35.21</ele>
        <time>2020-05-20T16:20:40Z</time>
      </trkpt>
      <trkpt lat="47.05371" lon="-1.84228">
        <ele>36.44</ele>
        <time>2020-05-20T16:20:42Z</time>
      </trkpt>
      <trkpt lat="47.05364" lon="-1.84242">
        <ele>37.03</ele>
        <time>2020-05-20T16:20:44Z</time>
      </trkpt>
      <trkpt lat="47.05355" lon="-1.84259">
        <ele>37.59</ele>
        <time>2020-05-20T16:20:46Z</time>
      </trkpt>
      <trkpt lat="47.05346" lon="-1.84276">
        <ele>37.38</ele>
        <time>2020-05-20T16:20:48Z</time>
      </trkpt>
      <trkpt lat="47.05338" lon="-1.8429">
        <ele>37.22</ele>
        <time>2020-05-20T16:20:50Z</time>
      </trkpt>
      <trkpt lat="47.0533" lon="-1.84306">
        <ele>36.83</ele>
        <time>2020-05-20T16:20:52Z</time>
      </trkpt>
      <trkpt lat="47.05322" lon="-1.84322">
        <ele>36.29</ele>
        <time>2020-05-20T16:20:54Z</time>
      </trkpt>
      <trkpt lat="47.05313" lon="-1.8434">
        <ele>35.47</ele>
        <time>2020-05-20T16:20:56Z</time>
      </trkpt>
      <trkpt lat="47.05306" lon="-1.84354">
        <ele>35.32</ele>
        <time>2020-05-20T16:20:58Z</time>
      </trkpt>
      <trkpt lat="47.05299" lon="-1.84371">
        <ele>35.64</ele>
        <time>2020-05-20T16:21:00Z</time>
      </trkpt>
      <trkpt lat="47.05291" lon="-1.84388">
        <ele>36.15</ele>
        <time>2020-05-20T16:21:02Z</time>
      </trkpt>
      <trkpt lat="47.05283" lon="-1.84403">
        <ele>36.3</ele>
        <time>2020-05-20T16:21:04Z</time>
      </trkpt>
      <trkpt lat="47.05276" lon="-1.84419">
        <ele>37.19</ele>
        <time>2020-05-20T16:21:06Z</time>
      </trkpt>
      <trkpt lat="47.05268" lon="-1.84435">
        <ele>36.99</ele>
        <time>2020-05-20T16:21:08Z</time>
      </trkpt>
      <trkpt lat="47.05259" lon="-1.84451">
        <ele>37.07</ele>
        <time>2020-05-20T16:21:10Z</time>
      </trkpt>
      <trkpt lat="47.05251" lon="-1.84466">
        <ele>36.47</ele>
        <time>2020-05-20T16:21:12Z</time>
      </trkpt>
      <trkpt lat="47.05244" lon="-1.84481">
        <ele>35.97</ele>
        <time>2020-05-20T16:21:14Z</time>
      </trkpt>
      <trkpt lat="47.05237" lon="-1.84495">
        <ele>35.8</ele>
        <time>2020-05-20T16:21:16Z</time>
      </trkpt>
      <trkpt lat="47.05229" lon="-1.84511">
        <ele>35.36</ele>
        <time>2020-05-20T16:21:18Z</time>
      </trkpt>
      <trkpt lat="47.05221" lon="-1.84527">
        <ele>34.34</ele>
        <time>2020-05-20T16:21:20Z</time>
      </trkpt>
      <trkpt lat="47.05215" lon="-1.8454">
        <ele>33.67</ele>
        <time>2020-05-20T16:21:22Z</time>
      </trkpt>
      <trkpt lat="47.05203" lon="-1.84544">
        <ele>33.16</ele>
        <time>2020-05-20T16:21:25Z</time>
      </trkpt>
      <trkpt lat="47.05193" lon="-1.84533">
        <ele>33.02</ele>
        <time>2020-05-20T16:21:27Z</time>
      </trkpt>
      <trkpt lat="47.05184" lon="-1.84521">
        <ele>33.07</ele>
        <time>2020-05-20T16:21:29Z</time>
      </trkpt>
      <trkpt lat="47.05175" lon="-1.84507">
        <ele>33.42</ele>
        <time>2020-05-20T16:21:31Z</time>
      </trkpt>
      <trkpt lat="47.05165" lon="-1.84493">
        <ele>33.9</ele>
        <time>2020-05-20T16:21:33Z</time>
      </trkpt>
      <trkpt lat="47.05157" lon="-1.8448">
        <ele>33.73</ele>
        <time>2020-05-20T16:21:35Z</time>
      </trkpt>
      <trkpt lat="47.05147" lon="-1.84466">
        <ele>33.54</ele>
        <time>2020-05-20T16:21:37Z</time>
      </trkpt>
      <trkpt lat="47.05138" lon="-1.84453">
        <ele>33.64</ele>
        <time>2020-05-20T16:21:39Z</time>
      </trkpt>
      <trkpt lat="47.05129" lon="-1.84439">
        <ele>34.19</ele>
        <time>2020-05-20T16:21:41Z</time>
      </trkpt>
      <trkpt lat="47.0512" lon="-1.84425">
        <ele>35.51</ele>
        <time>2020-05-20T16:21:43Z</time>
      </trkpt>
      <trkpt lat="47.0511" lon="-1.84412">
        <ele>36.05</ele>
        <time>2020-05-20T16:21:45Z</time>
      </trkpt>
      <trkpt lat="47.051" lon="-1.84398">
        <ele>35.88</ele>
        <time>2020-05-20T16:21:47Z</time>
      </trkpt>
      <trkpt lat="47.05088" lon="-1.84384">
        <ele>36.01</ele>
        <time>2020-05-20T16:21:49Z</time>
      </trkpt>
      <trkpt lat="47.05077" lon="-1.84371">
        <ele>36.48</ele>
        <time>2020-05-20T16:21:51Z</time>
      </trkpt>
      <trkpt lat="47.05067" lon="-1.8436">
        <ele>37.26</ele>
        <time>2020-05-20T16:21:53Z</time>
      </trkpt>
      <trkpt lat="47.05056" lon="-1.84349">
        <ele>37.55</ele>
        <time>2020-05-20T16:21:55Z</time>
      </trkpt>
      <trkpt lat="47.05046" lon="-1.84338">
        <ele>37.12</ele>
        <time>2020-05-20T16:21:57Z</time>
      </trkpt>
      <trkpt lat="47.05037" lon="-1.84328">
        <ele>37.16</ele>
        <time>2020-05-20T16:21:59Z</time>
      </trkpt>
      <trkpt lat="47.05026" lon="-1.84317">
        <ele>37.76</ele>
        <time>2020-05-20T16:22:01Z</time>
      </trkpt>
      <trkpt lat="47.05013" lon="-1.84307">
        <ele>37.76</ele>
        <time>2020-05-20T16:22:03Z</time>
      </trkpt>
      <trkpt lat="47.05001" lon="-1.84297">
        <ele>38.38</ele>
        <time>2020-05-20T16:22:05Z</time>
      </trkpt>
      <trkpt lat="47.0499" lon="-1.8429">
        <ele>38.97</ele>
        <time>2020-05-20T16:22:07Z</time>
      </trkpt>
      <trkpt lat="47.04978" lon="-1.8428">
        <ele>39.03</ele>
        <time>2020-05-20T16:22:09Z</time>
      </trkpt>
      <trkpt lat="47.04968" lon="-1.84271">
        <ele>39.66</ele>
        <time>2020-05-20T16:22:11Z</time>
      </trkpt>
      <trkpt lat="47.04957" lon="-1.84262">
        <ele>39.4</ele>
        <time>2020-05-20T16:22:13Z</time>
      </trkpt>
      <trkpt lat="47.04947" lon="-1.84253">
        <ele>39.39</ele>
        <time>2020-05-20T16:22:15Z</time>
      </trkpt>
      <trkpt lat="47.04937" lon="-1.84243">
        <ele>39.27</ele>
        <time>2020-05-20T16:22:17Z</time>
      </trkpt>
      <trkpt lat="47.04927" lon="-1.84233">
        <ele>38.47</ele>
        <time>2020-05-20T16:22:19Z</time>
      </trkpt>
      <trkpt lat="47.04918" lon="-1.84224">
        <ele>38.17</ele>
        <time>2020-05-20T16:22:21Z</time>
      </trkpt>
      <trkpt lat="47.04908" lon="-1.84212">
        <ele>38.72</ele>
        <time>2020-05-20T16:22:24Z</time>
      </trkpt>
      <trkpt lat="47.049" lon="-1.84204">
        <ele>38.79</ele>
        <time>2020-05-20T16:22:26Z</time>
      </trkpt>
      <trkpt lat="47.04892" lon="-1.84195">
        <ele>33.24</ele>
        <time>2020-05-20T16:24:49Z</time>
      </trkpt>
      <trkpt lat="47.04882" lon="-1.84184">
        <ele>31.35</ele>
        <time>2020-05-20T16:24:52Z</time>
      </trkpt>
      <trkpt lat="47.04871" lon="-1.84172">
        <ele>30.7</ele>
        <time>2020-05-20T16:24:54Z</time>
      </trkpt>
      <trkpt lat="47.04862" lon="-1.84162">
        <ele>31.29</ele>
        <time>2020-05-20T16:24:56Z</time>
      </trkpt>
      <trkpt lat="47.04853" lon="-1.84152">
        <ele>31.59</ele>
        <time>2020-05-20T16:24:58Z</time>
      </trkpt>
      <trkpt lat="47.04843" lon="-1.84141">
        <ele>31.39</ele>
        <time>2020-05-20T16:25:00Z</time>
      </trkpt>
      <trkpt lat="47.04833" lon="-1.84129">
        <ele>31.25</ele>
        <time>2020-05-20T16:25:02Z</time>
      </trkpt>
      <trkpt lat="47.04821" lon="-1.84115">
        <ele>32.08</ele>
        <time>2020-05-20T16:25:04Z</time>
      </trkpt>
      <trkpt lat="47.04809" lon="-1.84101">
        <ele>33</ele>
        <time>2020-05-20T16:25:06Z</time>
      </trkpt>
      <trkpt lat="47.04798" lon="-1.84087">
        <ele>33.75</ele>
        <time>2020-05-20T16:25:08Z</time>
      </trkpt>
      <trkpt lat="47.04786" lon="-1.84073">
        <ele>33.48</ele>
        <time>2020-05-20T16:25:10Z</time>
      </trkpt>
      <trkpt lat="47.04777" lon="-1.84062">
        <ele>33.29</ele>
        <time>2020-05-20T16:25:12Z</time>
      </trkpt>
      <trkpt lat="47.04766" lon="-1.84048">
        <ele>33.94</ele>
        <time>2020-05-20T16:25:14Z</time>
      </trkpt>
      <trkpt lat="47.04756" lon="-1.84034">
        <ele>34.73</ele>
        <time>2020-05-20T16:25:16Z</time>
      </trkpt>
      <trkpt lat="47.04744" lon="-1.84019">
        <ele>34.96</ele>
        <time>2020-05-20T16:25:18Z</time>
      </trkpt>
      <trkpt lat="47.04733" lon="-1.84005">
        <ele>35.37</ele>
        <time>2020-05-20T16:25:20Z</time>
      </trkpt>
      <trkpt lat="47.04723" lon="-1.83992">
        <ele>35.25</ele>
        <time>2020-05-20T16:25:22Z</time>
      </trkpt>
      <trkpt lat="47.04712" lon="-1.83978">
        <ele>35.57</ele>
        <time>2020-05-20T16:25:24Z</time>
      </trkpt>
      <trkpt lat="47.047" lon="-1.83963">
        <ele>35.73</ele>
        <time>2020-05-20T16:25:26Z</time>
      </trkpt>
      <trkpt lat="47.04689" lon="-1.83951">
        <ele>35.7</ele>
        <time>2020-05-20T16:25:28Z</time>
      </trkpt>
      <trkpt lat="47.04677" lon="-1.83937">
        <ele>35.04</ele>
        <time>2020-05-20T16:25:30Z</time>
      </trkpt>
      <trkpt lat="47.04666" lon="-1.83926">
        <ele>34.05</ele>
        <time>2020-05-20T16:25:32Z</time>
      </trkpt>
      <trkpt lat="47.04656" lon="-1.83913">
        <ele>33.89</ele>
        <time>2020-05-20T16:25:34Z</time>
      </trkpt>
      <trkpt lat="47.04645" lon="-1.83899">
        <ele>33.8</ele>
        <time>2020-05-20T16:25:36Z</time>
      </trkpt>
      <trkpt lat="47.04634" lon="-1.83883">
        <ele>33.29</ele>
        <time>2020-05-20T16:25:38Z</time>
      </trkpt>
      <trkpt lat="47.04625" lon="-1.83868">
        <ele>33.29</ele>
        <time>2020-05-20T16:25:40Z</time>
      </trkpt>
      <trkpt lat="47.04615" lon="-1.83853">
        <ele>32.77</ele>
        <time>2020-05-20T16:25:42Z</time>
      </trkpt>
      <trkpt lat="47.04604" lon="-1.8384">
        <ele>32.71</ele>
        <time>2020-05-20T16:25:44Z</time>
      </trkpt>
      <trkpt lat="47.04594" lon="-1.83828">
        <ele>32.43</ele>
        <time>2020-05-20T16:25:46Z</time>
      </trkpt>
      <trkpt lat="47.04582" lon="-1.83818">
        <ele>33.25</ele>
        <time>2020-05-20T16:25:48Z</time>
      </trkpt>
      <trkpt lat="47.04569" lon="-1.83809">
        <ele>33.92</ele>
        <time>2020-05-20T16:25:50Z</time>
      </trkpt>
      <trkpt lat="47.04556" lon="-1.838">
        <ele>34.77</ele>
        <time>2020-05-20T16:25:52Z</time>
      </trkpt>
      <trkpt lat="47.04544" lon="-1.83792">
        <ele>35.59</ele>
        <time>2020-05-20T16:25:54Z</time>
      </trkpt>
      <trkpt lat="47.04532" lon="-1.83784">
        <ele>35.67</ele>
        <time>2020-05-20T16:25:56Z</time>
      </trkpt>
      <trkpt lat="47.04519" lon="-1.83777">
        <ele>35.82</ele>
        <time>2020-05-20T16:25:57Z</time>
      </trkpt>
      <trkpt lat="47.04506" lon="-1.83768">
        <ele>35.88</ele>
        <time>2020-05-20T16:25:59Z</time>
      </trkpt>
      <trkpt lat="47.04493" lon="-1.83759">
        <ele>35.4</ele>
        <time>2020-05-20T16:26:01Z</time>
      </trkpt>
      <trkpt lat="47.04481" lon="-1.8375">
        <ele>34.74</ele>
        <time>2020-05-20T16:26:03Z</time>
      </trkpt>
      <trkpt lat="47.04468" lon="-1.8374">
        <ele>34.23</ele>
        <time>2020-05-20T16:26:05Z</time>
      </trkpt>
      <trkpt lat="47.04454" lon="-1.83729">
        <ele>34.13</ele>
        <time>2020-05-20T16:26:07Z</time>
      </trkpt>
      <trkpt lat="47.04442" lon="-1.83719">
        <ele>34.06</ele>
        <time>2020-05-20T16:26:09Z</time>
      </trkpt>
      <trkpt lat="47.0443" lon="-1.8371">
        <ele>34.13</ele>
        <time>2020-05-20T16:26:11Z</time>
      </trkpt>
      <trkpt lat="47.04418" lon="-1.837">
        <ele>33.96</ele>
        <time>2020-05-20T16:26:13Z</time>
      </trkpt>
      <trkpt lat="47.04406" lon="-1.83691">
        <ele>32.79</ele>
        <time>2020-05-20T16:26:15Z</time>
      </trkpt>
      <trkpt lat="47.04394" lon="-1.83683">
        <ele>31.48</ele>
        <time>2020-05-20T16:26:17Z</time>
      </trkpt>
      <trkpt lat="47.04382" lon="-1.83675">
        <ele>30.82</ele>
        <time>2020-05-20T16:26:19Z</time>
      </trkpt>
      <trkpt lat="47.04369" lon="-1.83668">
        <ele>30.66</ele>
        <time>2020-05-20T16:26:21Z</time>
      </trkpt>
      <trkpt lat="47.04353" lon="-1.83663">
        <ele>30.51</ele>
        <time>2020-05-20T16:26:23Z</time>
      </trkpt>
      <trkpt lat="47.04339" lon="-1.83659">
        <ele>30.35</ele>
        <time>2020-05-20T16:26:25Z</time>
      </trkpt>
      <trkpt lat="47.04324" lon="-1.83656">
        <ele>30.17</ele>
        <time>2020-05-20T16:26:27Z</time>
      </trkpt>
      <trkpt lat="47.04308" lon="-1.83653">
        <ele>30.17</ele>
        <time>2020-05-20T16:26:29Z</time>
      </trkpt>
      <trkpt lat="47.04295" lon="-1.8365">
        <ele>29.97</ele>
        <time>2020-05-20T16:26:31Z</time>
      </trkpt>
      <trkpt lat="47.04282" lon="-1.83646">
        <ele>29.71</ele>
        <time>2020-05-20T16:26:33Z</time>
      </trkpt>
      <trkpt lat="47.04269" lon="-1.83642">
        <ele>30.38</ele>
        <time>2020-05-20T16:26:35Z</time>
      </trkpt>
      <trkpt lat="47.04255" lon="-1.83639">
        <ele>31.29</ele>
        <time>2020-05-20T16:26:37Z</time>
      </trkpt>
      <trkpt lat="47.04241" lon="-1.83635">
        <ele>32.56</ele>
        <time>2020-05-20T16:26:39Z</time>
      </trkpt>
      <trkpt lat="47.04227" lon="-1.83631">
        <ele>33.18</ele>
        <time>2020-05-20T16:26:41Z</time>
      </trkpt>
      <trkpt lat="47.04215" lon="-1.8362">
        <ele>32.82</ele>
        <time>2020-05-20T16:26:43Z</time>
      </trkpt>
      <trkpt lat="47.04202" lon="-1.83612">
        <ele>32.15</ele>
        <time>2020-05-20T16:26:45Z</time>
      </trkpt>
      <trkpt lat="47.04189" lon="-1.83613">
        <ele>31.74</ele>
        <time>2020-05-20T16:26:47Z</time>
      </trkpt>
      <trkpt lat="47.04174" lon="-1.83611">
        <ele>31.78</ele>
        <time>2020-05-20T16:26:49Z</time>
      </trkpt>
      <trkpt lat="47.04162" lon="-1.83606">
        <ele>32.4</ele>
        <time>2020-05-20T16:26:51Z</time>
      </trkpt>
      <trkpt lat="47.04148" lon="-1.836">
        <ele>32.66</ele>
        <time>2020-05-20T16:26:53Z</time>
      </trkpt>
      <trkpt lat="47.04135" lon="-1.83594">
        <ele>33.13</ele>
        <time>2020-05-20T16:26:55Z</time>
      </trkpt>
      <trkpt lat="47.04125" lon="-1.83588">
        <ele>33.64</ele>
        <time>2020-05-20T16:26:57Z</time>
      </trkpt>
      <trkpt lat="47.04113" lon="-1.83581">
        <ele>33.72</ele>
        <time>2020-05-20T16:26:59Z</time>
      </trkpt>
      <trkpt lat="47.04098" lon="-1.83575">
        <ele>34.13</ele>
        <time>2020-05-20T16:27:01Z</time>
      </trkpt>
      <trkpt lat="47.04085" lon="-1.8357">
        <ele>33.9</ele>
        <time>2020-05-20T16:27:03Z</time>
      </trkpt>
      <trkpt lat="47.04073" lon="-1.83567">
        <ele>33.46</ele>
        <time>2020-05-20T16:27:05Z</time>
      </trkpt>
      <trkpt lat="47.04061" lon="-1.83565">
        <ele>33.2</ele>
        <time>2020-05-20T16:27:07Z</time>
      </trkpt>
      <trkpt lat="47.04048" lon="-1.83563">
        <ele>33.58</ele>
        <time>2020-05-20T16:27:09Z</time>
      </trkpt>
      <trkpt lat="47.04034" lon="-1.83561">
        <ele>33.56</ele>
        <time>2020-05-20T16:27:11Z</time>
      </trkpt>
      <trkpt lat="47.04022" lon="-1.8356">
        <ele>33.32</ele>
        <time>2020-05-20T16:27:13Z</time>
      </trkpt>
      <trkpt lat="47.04009" lon="-1.83559">
        <ele>34.21</ele>
        <time>2020-05-20T16:27:15Z</time>
      </trkpt>
      <trkpt lat="47.03996" lon="-1.83558">
        <ele>34.73</ele>
        <time>2020-05-20T16:27:17Z</time>
      </trkpt>
      <trkpt lat="47.03985" lon="-1.83556">
        <ele>34.93</ele>
        <time>2020-05-20T16:27:19Z</time>
      </trkpt>
      <trkpt lat="47.03971" lon="-1.83554">
        <ele>34.86</ele>
        <time>2020-05-20T16:27:21Z</time>
      </trkpt>
      <trkpt lat="47.03958" lon="-1.83553">
        <ele>34.52</ele>
        <time>2020-05-20T16:27:23Z</time>
      </trkpt>
      <trkpt lat="47.03946" lon="-1.83551">
        <ele>33.98</ele>
        <time>2020-05-20T16:27:25Z</time>
      </trkpt>
      <trkpt lat="47.03932" lon="-1.83549">
        <ele>33.19</ele>
        <time>2020-05-20T16:27:27Z</time>
      </trkpt>
      <trkpt lat="47.03918" lon="-1.83547">
        <ele>33.19</ele>
        <time>2020-05-20T16:27:29Z</time>
      </trkpt>
      <trkpt lat="47.03905" lon="-1.83545">
        <ele>33.57</ele>
        <time>2020-05-20T16:27:31Z</time>
      </trkpt>
      <trkpt lat="47.03891" lon="-1.83543">
        <ele>33.67</ele>
        <time>2020-05-20T16:27:33Z</time>
      </trkpt>
      <trkpt lat="47.03878" lon="-1.83542">
        <ele>34.3</ele>
        <time>2020-05-20T16:27:35Z</time>
      </trkpt>
      <trkpt lat="47.03863" lon="-1.8354">
        <ele>34.35</ele>
        <time>2020-05-20T16:27:37Z</time>
      </trkpt>
      <trkpt lat="47.0385" lon="-1.83538">
        <ele>34.05</ele>
        <time>2020-05-20T16:27:39Z</time>
      </trkpt>
      <trkpt lat="47.03837" lon="-1.83536">
        <ele>34.04</ele>
        <time>2020-05-20T16:27:41Z</time>
      </trkpt>
      <trkpt lat="47.03824" lon="-1.83535">
        <ele>33.75</ele>
        <time>2020-05-20T16:27:43Z</time>
      </trkpt>
      <trkpt lat="47.0381" lon="-1.83534">
        <ele>32.93</ele>
        <time>2020-05-20T16:27:45Z</time>
      </trkpt>
      <trkpt lat="47.03794" lon="-1.83534">
        <ele>31.87</ele>
        <time>2020-05-20T16:27:47Z</time>
      </trkpt>
      <trkpt lat="47.03782" lon="-1.83534">
        <ele>32</ele>
        <time>2020-05-20T16:27:49Z</time>
      </trkpt>
      <trkpt lat="47.03768" lon="-1.83534">
        <ele>31.31</ele>
        <time>2020-05-20T16:27:51Z</time>
      </trkpt>
      <trkpt lat="47.03755" lon="-1.83533">
        <ele>31.04</ele>
        <time>2020-05-20T16:27:53Z</time>
      </trkpt>
      <trkpt lat="47.03742" lon="-1.83533">
        <ele>31.13</ele>
        <time>2020-05-20T16:27:55Z</time>
      </trkpt>
      <trkpt lat="47.03729" lon="-1.83533">
        <ele>31.03</ele>
        <time>2020-05-20T16:27:57Z</time>
      </trkpt>
      <trkpt lat="47.03714" lon="-1.83533">
        <ele>30.85</ele>
        <time>2020-05-20T16:27:59Z</time>
      </trkpt>
      <trkpt lat="47.037" lon="-1.83533">
        <ele>30.75</ele>
        <time>2020-05-20T16:28:01Z</time>
      </trkpt>
      <trkpt lat="47.03686" lon="-1.83534">
        <ele>30.78</ele>
        <time>2020-05-20T16:28:03Z</time>
      </trkpt>
      <trkpt lat="47.03672" lon="-1.83535">
        <ele>30.19</ele>
        <time>2020-05-20T16:28:05Z</time>
      </trkpt>
      <trkpt lat="47.03657" lon="-1.83535">
        <ele>30.18</ele>
        <time>2020-05-20T16:28:07Z</time>
      </trkpt>
      <trkpt lat="47.03643" lon="-1.83534">
        <ele>30.6</ele>
        <time>2020-05-20T16:28:09Z</time>
      </trkpt>
      <trkpt lat="47.03627" lon="-1.83534">
        <ele>30.77</ele>
        <time>2020-05-20T16:28:11Z</time>
      </trkpt>
      <trkpt lat="47.03613" lon="-1.83535">
        <ele>31.74</ele>
        <time>2020-05-20T16:28:13Z</time>
      </trkpt>
      <trkpt lat="47.03599" lon="-1.83535">
        <ele>31.59</ele>
        <time>2020-05-20T16:28:15Z</time>
      </trkpt>
      <trkpt lat="47.03585" lon="-1.83535">
        <ele>31.03</ele>
        <time>2020-05-20T16:28:17Z</time>
      </trkpt>
      <trkpt lat="47.0357" lon="-1.83536">
        <ele>30.55</ele>
        <time>2020-05-20T16:28:19Z</time>
      </trkpt>
      <trkpt lat="47.03555" lon="-1.83537">
        <ele>30.2</ele>
        <time>2020-05-20T16:28:21Z</time>
      </trkpt>
      <trkpt lat="47.03541" lon="-1.83537">
        <ele>30.8</ele>
        <time>2020-05-20T16:28:23Z</time>
      </trkpt>
      <trkpt lat="47.03527" lon="-1.83537">
        <ele>30.57</ele>
        <time>2020-05-20T16:28:25Z</time>
      </trkpt>
      <trkpt lat="47.03513" lon="-1.83537">
        <ele>29.46</ele>
        <time>2020-05-20T16:28:27Z</time>
      </trkpt>
      <trkpt lat="47.03498" lon="-1.83535">
        <ele>28.74</ele>
        <time>2020-05-20T16:28:29Z</time>
      </trkpt>
      <trkpt lat="47.03482" lon="-1.83533">
        <ele>28.92</ele>
        <time>2020-05-20T16:28:31Z</time>
      </trkpt>
      <trkpt lat="47.03468" lon="-1.8353">
        <ele>29.09</ele>
        <time>2020-05-20T16:28:33Z</time>
      </trkpt>
      <trkpt lat="47.03451" lon="-1.83526">
        <ele>28.97</ele>
        <time>2020-05-20T16:28:35Z</time>
      </trkpt>
      <trkpt lat="47.03437" lon="-1.83522">
        <ele>28.7</ele>
        <time>2020-05-20T16:28:37Z</time>
      </trkpt>
      <trkpt lat="47.03424" lon="-1.83518">
        <ele>28.13</ele>
        <time>2020-05-20T16:28:39Z</time>
      </trkpt>
      <trkpt lat="47.03408" lon="-1.83513">
        <ele>27.6</ele>
        <time>2020-05-20T16:28:41Z</time>
      </trkpt>
      <trkpt lat="47.03393" lon="-1.83509">
        <ele>27.31</ele>
        <time>2020-05-20T16:28:43Z</time>
      </trkpt>
      <trkpt lat="47.03379" lon="-1.83504">
        <ele>27.64</ele>
        <time>2020-05-20T16:28:45Z</time>
      </trkpt>
      <trkpt lat="47.03364" lon="-1.835">
        <ele>28.19</ele>
        <time>2020-05-20T16:28:47Z</time>
      </trkpt>
      <trkpt lat="47.0335" lon="-1.83495">
        <ele>27.73</ele>
        <time>2020-05-20T16:28:49Z</time>
      </trkpt>
      <trkpt lat="47.03335" lon="-1.83491">
        <ele>26.81</ele>
        <time>2020-05-20T16:28:51Z</time>
      </trkpt>
      <trkpt lat="47.03321" lon="-1.83487">
        <ele>26.55</ele>
        <time>2020-05-20T16:28:53Z</time>
      </trkpt>
      <trkpt lat="47.03307" lon="-1.83483">
        <ele>26.33</ele>
        <time>2020-05-20T16:28:55Z</time>
      </trkpt>
      <trkpt lat="47.03293" lon="-1.83479">
        <ele>26.49</ele>
        <time>2020-05-20T16:28:57Z</time>
      </trkpt>
      <trkpt lat="47.03277" lon="-1.83474">
        <ele>27.25</ele>
        <time>2020-05-20T16:28:59Z</time>
      </trkpt>
      <trkpt lat="47.03262" lon="-1.8347">
        <ele>27.57</ele>
        <time>2020-05-20T16:29:01Z</time>
      </trkpt>
      <trkpt lat="47.03247" lon="-1.83466">
        <ele>27.49</ele>
        <time>2020-05-20T16:29:03Z</time>
      </trkpt>
      <trkpt lat="47.03234" lon="-1.83462">
        <ele>27.99</ele>
        <time>2020-05-20T16:29:05Z</time>
      </trkpt>
      <trkpt lat="47.03221" lon="-1.83459">
        <ele>27.94</ele>
        <time>2020-05-20T16:29:07Z</time>
      </trkpt>
      <trkpt lat="47.03208" lon="-1.83455">
        <ele>28.37</ele>
        <time>2020-05-20T16:29:09Z</time>
      </trkpt>
      <trkpt lat="47.03194" lon="-1.83451">
        <ele>29.31</ele>
        <time>2020-05-20T16:29:11Z</time>
      </trkpt>
      <trkpt lat="47.03181" lon="-1.83447">
        <ele>29.72</ele>
        <time>2020-05-20T16:29:13Z</time>
      </trkpt>
      <trkpt lat="47.03168" lon="-1.83451">
        <ele>30.43</ele>
        <time>2020-05-20T16:29:15Z</time>
      </trkpt>
      <trkpt lat="47.03161" lon="-1.83466">
        <ele>30.06</ele>
        <time>2020-05-20T16:29:17Z</time>
      </trkpt>
      <trkpt lat="47.03153" lon="-1.8348">
        <ele>29.84</ele>
        <time>2020-05-20T16:29:19Z</time>
      </trkpt>
      <trkpt lat="47.03143" lon="-1.83487">
        <ele>29.23</ele>
        <time>2020-05-20T16:29:21Z</time>
      </trkpt>
      <trkpt lat="47.0313" lon="-1.8349">
        <ele>28.96</ele>
        <time>2020-05-20T16:29:23Z</time>
      </trkpt>
      <trkpt lat="47.03115" lon="-1.83491">
        <ele>28.57</ele>
        <time>2020-05-20T16:29:25Z</time>
      </trkpt>
      <trkpt lat="47.031" lon="-1.83493">
        <ele>27.98</ele>
        <time>2020-05-20T16:29:27Z</time>
      </trkpt>
      <trkpt lat="47.03085" lon="-1.83495">
        <ele>26.84</ele>
        <time>2020-05-20T16:29:29Z</time>
      </trkpt>
      <trkpt lat="47.03071" lon="-1.83496">
        <ele>26.32</ele>
        <time>2020-05-20T16:29:31Z</time>
      </trkpt>
      <trkpt lat="47.03058" lon="-1.83498">
        <ele>26.79</ele>
        <time>2020-05-20T16:29:33Z</time>
      </trkpt>
      <trkpt lat="47.03043" lon="-1.83499">
        <ele>27.59</ele>
        <time>2020-05-20T16:29:35Z</time>
      </trkpt>
      <trkpt lat="47.03028" lon="-1.835">
        <ele>28.07</ele>
        <time>2020-05-20T16:29:37Z</time>
      </trkpt>
      <trkpt lat="47.03013" lon="-1.83502">
        <ele>27.63</ele>
        <time>2020-05-20T16:29:39Z</time>
      </trkpt>
      <trkpt lat="47.02999" lon="-1.83503">
        <ele>27.45</ele>
        <time>2020-05-20T16:29:41Z</time>
      </trkpt>
      <trkpt lat="47.02984" lon="-1.83504">
        <ele>27.81</ele>
        <time>2020-05-20T16:29:43Z</time>
      </trkpt>
      <trkpt lat="47.02969" lon="-1.83506">
        <ele>27.9</ele>
        <time>2020-05-20T16:29:45Z</time>
      </trkpt>
      <trkpt lat="47.02954" lon="-1.83508">
        <ele>27.4</ele>
        <time>2020-05-20T16:29:47Z</time>
      </trkpt>
      <trkpt lat="47.02939" lon="-1.8351">
        <ele>26.95</ele>
        <time>2020-05-20T16:29:49Z</time>
      </trkpt>
      <trkpt lat="47.02923" lon="-1.83513">
        <ele>27</ele>
        <time>2020-05-20T16:29:51Z</time>
      </trkpt>
      <trkpt lat="47.02908" lon="-1.83517">
        <ele>26.11</ele>
        <time>2020-05-20T16:29:53Z</time>
      </trkpt>
      <trkpt lat="47.02894" lon="-1.8352">
        <ele>25.68</ele>
        <time>2020-05-20T16:29:55Z</time>
      </trkpt>
      <trkpt lat="47.0288" lon="-1.83524">
        <ele>24.48</ele>
        <time>2020-05-20T16:29:57Z</time>
      </trkpt>
      <trkpt lat="47.02866" lon="-1.83528">
        <ele>23.8</ele>
        <time>2020-05-20T16:29:59Z</time>
      </trkpt>
      <trkpt lat="47.02852" lon="-1.83533">
        <ele>23.46</ele>
        <time>2020-05-20T16:30:01Z</time>
      </trkpt>
      <trkpt lat="47.0284" lon="-1.8354">
        <ele>23.99</ele>
        <time>2020-05-20T16:30:03Z</time>
      </trkpt>
      <trkpt lat="47.02828" lon="-1.83547">
        <ele>24.43</ele>
        <time>2020-05-20T16:30:05Z</time>
      </trkpt>
      <trkpt lat="47.02816" lon="-1.83558">
        <ele>24.63</ele>
        <time>2020-05-20T16:30:07Z</time>
      </trkpt>
      <trkpt lat="47.02806" lon="-1.83569">
        <ele>24.8</ele>
        <time>2020-05-20T16:30:09Z</time>
      </trkpt>
      <trkpt lat="47.02795" lon="-1.8358">
        <ele>24.6</ele>
        <time>2020-05-20T16:30:11Z</time>
      </trkpt>
      <trkpt lat="47.02784" lon="-1.83592">
        <ele>24.22</ele>
        <time>2020-05-20T16:30:13Z</time>
      </trkpt>
      <trkpt lat="47.02772" lon="-1.83601">
        <ele>24.73</ele>
        <time>2020-05-20T16:30:15Z</time>
      </trkpt>
      <trkpt lat="47.0276" lon="-1.83609">
        <ele>24.57</ele>
        <time>2020-05-20T16:30:17Z</time>
      </trkpt>
      <trkpt lat="47.02746" lon="-1.83615">
        <ele>24.49</ele>
        <time>2020-05-20T16:30:19Z</time>
      </trkpt>
      <trkpt lat="47.02731" lon="-1.83619">
        <ele>24.19</ele>
        <time>2020-05-20T16:30:21Z</time>
      </trkpt>
      <trkpt lat="47.02717" lon="-1.8362">
        <ele>24.22</ele>
        <time>2020-05-20T16:30:23Z</time>
      </trkpt>
      <trkpt lat="47.02704" lon="-1.8362">
        <ele>23.5</ele>
        <time>2020-05-20T16:30:25Z</time>
      </trkpt>
      <trkpt lat="47.02689" lon="-1.8362">
        <ele>23.02</ele>
        <time>2020-05-20T16:30:27Z</time>
      </trkpt>
      <trkpt lat="47.02675" lon="-1.8362">
        <ele>23.23</ele>
        <time>2020-05-20T16:30:29Z</time>
      </trkpt>
      <trkpt lat="47.0266" lon="-1.8362">
        <ele>23.01</ele>
        <time>2020-05-20T16:30:31Z</time>
      </trkpt>
      <trkpt lat="47.02646" lon="-1.83622">
        <ele>23.33</ele>
        <time>2020-05-20T16:30:33Z</time>
      </trkpt>
      <trkpt lat="47.02632" lon="-1.83623">
        <ele>22.98</ele>
        <time>2020-05-20T16:30:35Z</time>
      </trkpt>
      <trkpt lat="47.02616" lon="-1.83623">
        <ele>22.6</ele>
        <time>2020-05-20T16:30:37Z</time>
      </trkpt>
      <trkpt lat="47.02601" lon="-1.83623">
        <ele>22.03</ele>
        <time>2020-05-20T16:30:39Z</time>
      </trkpt>
      <trkpt lat="47.02588" lon="-1.83624">
        <ele>22.06</ele>
        <time>2020-05-20T16:30:41Z</time>
      </trkpt>
      <trkpt lat="47.02573" lon="-1.83625">
        <ele>21.38</ele>
        <time>2020-05-20T16:30:43Z</time>
      </trkpt>
      <trkpt lat="47.0256" lon="-1.83625">
        <ele>21.47</ele>
        <time>2020-05-20T16:30:45Z</time>
      </trkpt>
      <trkpt lat="47.02543" lon="-1.83626">
        <ele>21.2</ele>
        <time>2020-05-20T16:30:47Z</time>
      </trkpt>
      <trkpt lat="47.02529" lon="-1.83628">
        <ele>22.15</ele>
        <time>2020-05-20T16:30:49Z</time>
      </trkpt>
      <trkpt lat="47.02516" lon="-1.83631">
        <ele>23.42</ele>
        <time>2020-05-20T16:30:51Z</time>
      </trkpt>
      <trkpt lat="47.02503" lon="-1.83634">
        <ele>23.82</ele>
        <time>2020-05-20T16:30:53Z</time>
      </trkpt>
      <trkpt lat="47.0249" lon="-1.83637">
        <ele>23.64</ele>
        <time>2020-05-20T16:30:55Z</time>
      </trkpt>
      <trkpt lat="47.02476" lon="-1.8364">
        <ele>23.68</ele>
        <time>2020-05-20T16:30:57Z</time>
      </trkpt>
      <trkpt lat="47.02462" lon="-1.83643">
        <ele>23.37</ele>
        <time>2020-05-20T16:30:59Z</time>
      </trkpt>
      <trkpt lat="47.02448" lon="-1.83646">
        <ele>23.21</ele>
        <time>2020-05-20T16:31:01Z</time>
      </trkpt>
      <trkpt lat="47.02434" lon="-1.8365">
        <ele>22.99</ele>
        <time>2020-05-20T16:31:03Z</time>
      </trkpt>
      <trkpt lat="47.0242" lon="-1.83653">
        <ele>22.29</ele>
        <time>2020-05-20T16:31:05Z</time>
      </trkpt>
      <trkpt lat="47.02407" lon="-1.83655">
        <ele>21.09</ele>
        <time>2020-05-20T16:31:07Z</time>
      </trkpt>
      <trkpt lat="47.02394" lon="-1.83656">
        <ele>20.64</ele>
        <time>2020-05-20T16:31:09Z</time>
      </trkpt>
      <trkpt lat="47.02379" lon="-1.83657">
        <ele>20.56</ele>
        <time>2020-05-20T16:31:11Z</time>
      </trkpt>
      <trkpt lat="47.02367" lon="-1.83657">
        <ele>20.65</ele>
        <time>2020-05-20T16:31:13Z</time>
      </trkpt>
      <trkpt lat="47.02353" lon="-1.83656">
        <ele>20.34</ele>
        <time>2020-05-20T16:31:15Z</time>
      </trkpt>
      <trkpt lat="47.0234" lon="-1.83655">
        <ele>20.09</ele>
        <time>2020-05-20T16:31:17Z</time>
      </trkpt>
      <trkpt lat="47.02326" lon="-1.83654">
        <ele>19.95</ele>
        <time>2020-05-20T16:31:19Z</time>
      </trkpt>
      <trkpt lat="47.02313" lon="-1.83654">
        <ele>19.88</ele>
        <time>2020-05-20T16:31:21Z</time>
      </trkpt>
      <trkpt lat="47.023" lon="-1.83653">
        <ele>19.76</ele>
        <time>2020-05-20T16:31:23Z</time>
      </trkpt>
      <trkpt lat="47.02285" lon="-1.83652">
        <ele>19.87</ele>
        <time>2020-05-20T16:31:25Z</time>
      </trkpt>
      <trkpt lat="47.02271" lon="-1.83651">
        <ele>20.6</ele>
        <time>2020-05-20T16:31:27Z</time>
      </trkpt>
      <trkpt lat="47.02257" lon="-1.83649">
        <ele>20.84</ele>
        <time>2020-05-20T16:31:29Z</time>
      </trkpt>
      <trkpt lat="47.02243" lon="-1.83648">
        <ele>20.94</ele>
        <time>2020-05-20T16:31:31Z</time>
      </trkpt>
      <trkpt lat="47.02228" lon="-1.83647">
        <ele>20.45</ele>
        <time>2020-05-20T16:31:33Z</time>
      </trkpt>
      <trkpt lat="47.02214" lon="-1.83645">
        <ele>20.87</ele>
        <time>2020-05-20T16:31:35Z</time>
      </trkpt>
      <trkpt lat="47.02199" lon="-1.83642">
        <ele>21.69</ele>
        <time>2020-05-20T16:31:37Z</time>
      </trkpt>
      <trkpt lat="47.02186" lon="-1.83638">
        <ele>21.63</ele>
        <time>2020-05-20T16:31:39Z</time>
      </trkpt>
      <trkpt lat="47.02173" lon="-1.83632">
        <ele>21.63</ele>
        <time>2020-05-20T16:31:41Z</time>
      </trkpt>
      <trkpt lat="47.02159" lon="-1.83624">
        <ele>21.62</ele>
        <time>2020-05-20T16:31:43Z</time>
      </trkpt>
      <trkpt lat="47.02146" lon="-1.83615">
        <ele>21.52</ele>
        <time>2020-05-20T16:31:45Z</time>
      </trkpt>
      <trkpt lat="47.02133" lon="-1.83607">
        <ele>21.37</ele>
        <time>2020-05-20T16:31:47Z</time>
      </trkpt>
      <trkpt lat="47.0212" lon="-1.83598">
        <ele>21.45</ele>
        <time>2020-05-20T16:31:49Z</time>
      </trkpt>
      <trkpt lat="47.02107" lon="-1.8359">
        <ele>21.83</ele>
        <time>2020-05-20T16:31:51Z</time>
      </trkpt>
      <trkpt lat="47.02096" lon="-1.83584">
        <ele>21.69</ele>
        <time>2020-05-20T16:31:53Z</time>
      </trkpt>
      <trkpt lat="47.02083" lon="-1.83576">
        <ele>21.75</ele>
        <time>2020-05-20T16:31:55Z</time>
      </trkpt>
      <trkpt lat="47.02069" lon="-1.83568">
        <ele>21.7</ele>
        <time>2020-05-20T16:31:57Z</time>
      </trkpt>
      <trkpt lat="47.02057" lon="-1.8356">
        <ele>21.36</ele>
        <time>2020-05-20T16:31:59Z</time>
      </trkpt>
      <trkpt lat="47.02045" lon="-1.83553">
        <ele>21.71</ele>
        <time>2020-05-20T16:32:01Z</time>
      </trkpt>
      <trkpt lat="47.02032" lon="-1.83545">
        <ele>21.88</ele>
        <time>2020-05-20T16:32:03Z</time>
      </trkpt>
      <trkpt lat="47.0202" lon="-1.83537">
        <ele>21.81</ele>
        <time>2020-05-20T16:32:05Z</time>
      </trkpt>
      <trkpt lat="47.02008" lon="-1.83529">
        <ele>21.45</ele>
        <time>2020-05-20T16:32:07Z</time>
      </trkpt>
      <trkpt lat="47.01993" lon="-1.8352">
        <ele>21.3</ele>
        <time>2020-05-20T16:32:09Z</time>
      </trkpt>
      <trkpt lat="47.01981" lon="-1.83513">
        <ele>21.23</ele>
        <time>2020-05-20T16:32:11Z</time>
      </trkpt>
      <trkpt lat="47.01967" lon="-1.83505">
        <ele>21.07</ele>
        <time>2020-05-20T16:32:13Z</time>
      </trkpt>
      <trkpt lat="47.01954" lon="-1.83498">
        <ele>20.59</ele>
        <time>2020-05-20T16:32:15Z</time>
      </trkpt>
      <trkpt lat="47.0194" lon="-1.83494">
        <ele>19.74</ele>
        <time>2020-05-20T16:32:17Z</time>
      </trkpt>
      <trkpt lat="47.01925" lon="-1.83491">
        <ele>19.07</ele>
        <time>2020-05-20T16:32:19Z</time>
      </trkpt>
      <trkpt lat="47.01909" lon="-1.83493">
        <ele>18.33</ele>
        <time>2020-05-20T16:32:21Z</time>
      </trkpt>
      <trkpt lat="47.01893" lon="-1.83498">
        <ele>17.76</ele>
        <time>2020-05-20T16:32:23Z</time>
      </trkpt>
      <trkpt lat="47.01876" lon="-1.83502">
        <ele>17.28</ele>
        <time>2020-05-20T16:32:25Z</time>
      </trkpt>
      <trkpt lat="47.0186" lon="-1.83506">
        <ele>16.43</ele>
        <time>2020-05-20T16:32:27Z</time>
      </trkpt>
      <trkpt lat="47.01844" lon="-1.83511">
        <ele>15.56</ele>
        <time>2020-05-20T16:32:29Z</time>
      </trkpt>
      <trkpt lat="47.01828" lon="-1.83515">
        <ele>14.73</ele>
        <time>2020-05-20T16:32:31Z</time>
      </trkpt>
      <trkpt lat="47.0181" lon="-1.83519">
        <ele>14.43</ele>
        <time>2020-05-20T16:32:33Z</time>
      </trkpt>
      <trkpt lat="47.01794" lon="-1.83522">
        <ele>14.25</ele>
        <time>2020-05-20T16:32:35Z</time>
      </trkpt>
      <trkpt lat="47.01776" lon="-1.83528">
        <ele>15.65</ele>
        <time>2020-05-20T16:32:37Z</time>
      </trkpt>
      <trkpt lat="47.01767" lon="-1.83532">
        <ele>16.19</ele>
        <time>2020-05-20T16:32:38Z</time>
      </trkpt>
      <trkpt lat="47.01751" lon="-1.83541">
        <ele>16.05</ele>
        <time>2020-05-20T16:32:40Z</time>
      </trkpt>
      <trkpt lat="47.01739" lon="-1.83553">
        <ele>15.24</ele>
        <time>2020-05-20T16:32:42Z</time>
      </trkpt>
      <trkpt lat="47.01728" lon="-1.83571">
        <ele>15.22</ele>
        <time>2020-05-20T16:32:44Z</time>
      </trkpt>
      <trkpt lat="47.01718" lon="-1.83593">
        <ele>15.1</ele>
        <time>2020-05-20T16:32:46Z</time>
      </trkpt>
      <trkpt lat="47.01709" lon="-1.83612">
        <ele>14.49</ele>
        <time>2020-05-20T16:32:48Z</time>
      </trkpt>
      <trkpt lat="47.01699" lon="-1.83631">
        <ele>14.07</ele>
        <time>2020-05-20T16:32:50Z</time>
      </trkpt>
      <trkpt lat="47.0169" lon="-1.83648">
        <ele>13.41</ele>
        <time>2020-05-20T16:32:52Z</time>
      </trkpt>
      <trkpt lat="47.01681" lon="-1.83664">
        <ele>12.56</ele>
        <time>2020-05-20T16:32:54Z</time>
      </trkpt>
      <trkpt lat="47.01672" lon="-1.83679">
        <ele>11</ele>
        <time>2020-05-20T16:32:56Z</time>
      </trkpt>
      <trkpt lat="47.01662" lon="-1.83693">
        <ele>9.59</ele>
        <time>2020-05-20T16:32:58Z</time>
      </trkpt>
      <trkpt lat="47.01652" lon="-1.83706">
        <ele>8.5</ele>
        <time>2020-05-20T16:33:00Z</time>
      </trkpt>
      <trkpt lat="47.01639" lon="-1.83721">
        <ele>8.62</ele>
        <time>2020-05-20T16:33:02Z</time>
      </trkpt>
      <trkpt lat="47.01627" lon="-1.83736">
        <ele>9.1</ele>
        <time>2020-05-20T16:33:04Z</time>
      </trkpt>
      <trkpt lat="47.01616" lon="-1.83749">
        <ele>9.83</ele>
        <time>2020-05-20T16:33:06Z</time>
      </trkpt>
      <trkpt lat="47.01603" lon="-1.83764">
        <ele>9.88</ele>
        <time>2020-05-20T16:33:08Z</time>
      </trkpt>
      <trkpt lat="47.0159" lon="-1.83778">
        <ele>9.27</ele>
        <time>2020-05-20T16:33:10Z</time>
      </trkpt>
      <trkpt lat="47.01579" lon="-1.83792">
        <ele>8.75</ele>
        <time>2020-05-20T16:33:12Z</time>
      </trkpt>
      <trkpt lat="47.01566" lon="-1.83807">
        <ele>8.52</ele>
        <time>2020-05-20T16:33:14Z</time>
      </trkpt>
      <trkpt lat="47.01554" lon="-1.83822">
        <ele>8.39</ele>
        <time>2020-05-20T16:33:16Z</time>
      </trkpt>
      <trkpt lat="47.01541" lon="-1.83839">
        <ele>8.13</ele>
        <time>2020-05-20T16:33:18Z</time>
      </trkpt>
      <trkpt lat="47.01529" lon="-1.83855">
        <ele>7.89</ele>
        <time>2020-05-20T16:33:20Z</time>
      </trkpt>
      <trkpt lat="47.01517" lon="-1.83872">
        <ele>7.36</ele>
        <time>2020-05-20T16:33:22Z</time>
      </trkpt>
      <trkpt lat="47.01505" lon="-1.8389">
        <ele>6.82</ele>
        <time>2020-05-20T16:33:24Z</time>
      </trkpt>
      <trkpt lat="47.01495" lon="-1.83907">
        <ele>6.48</ele>
        <time>2020-05-20T16:33:26Z</time>
      </trkpt>
      <trkpt lat="47.01484" lon="-1.83923">
        <ele>5.76</ele>
        <time>2020-05-20T16:33:28Z</time>
      </trkpt>
      <trkpt lat="47.01474" lon="-1.83939">
        <ele>5.23</ele>
        <time>2020-05-20T16:33:30Z</time>
      </trkpt>
      <trkpt lat="47.01463" lon="-1.83957">
        <ele>4.4</ele>
        <time>2020-05-20T16:33:32Z</time>
      </trkpt>
      <trkpt lat="47.01453" lon="-1.83974">
        <ele>4.15</ele>
        <time>2020-05-20T16:33:34Z</time>
      </trkpt>
      <trkpt lat="47.01443" lon="-1.8399">
        <ele>3.73</ele>
        <time>2020-05-20T16:33:36Z</time>
      </trkpt>
      <trkpt lat="47.01431" lon="-1.84008">
        <ele>3.28</ele>
        <time>2020-05-20T16:33:38Z</time>
      </trkpt>
      <trkpt lat="47.01419" lon="-1.84025">
        <ele>3.14</ele>
        <time>2020-05-20T16:33:40Z</time>
      </trkpt>
      <trkpt lat="47.01408" lon="-1.84042">
        <ele>3.26</ele>
        <time>2020-05-20T16:33:42Z</time>
      </trkpt>
      <trkpt lat="47.01397" lon="-1.84058">
        <ele>3.42</ele>
        <time>2020-05-20T16:33:44Z</time>
      </trkpt>
      <trkpt lat="47.01386" lon="-1.84073">
        <ele>3.04</ele>
        <time>2020-05-20T16:33:46Z</time>
      </trkpt>
      <trkpt lat="47.01373" lon="-1.8409">
        <ele>2.12</ele>
        <time>2020-05-20T16:33:48Z</time>
      </trkpt>
      <trkpt lat="47.0136" lon="-1.84105">
        <ele>2.31</ele>
        <time>2020-05-20T16:33:50Z</time>
      </trkpt>
      <trkpt lat="47.01348" lon="-1.84119">
        <ele>2.96</ele>
        <time>2020-05-20T16:33:52Z</time>
      </trkpt>
      <trkpt lat="47.01335" lon="-1.84133">
        <ele>3.99</ele>
        <time>2020-05-20T16:33:54Z</time>
      </trkpt>
      <trkpt lat="47.01322" lon="-1.84146">
        <ele>4.43</ele>
        <time>2020-05-20T16:33:56Z</time>
      </trkpt>
      <trkpt lat="47.01309" lon="-1.84158">
        <ele>4.52</ele>
        <time>2020-05-20T16:33:58Z</time>
      </trkpt>
      <trkpt lat="47.01296" lon="-1.84172">
        <ele>4.25</ele>
        <time>2020-05-20T16:34:00Z</time>
      </trkpt>
      <trkpt lat="47.01284" lon="-1.84185">
        <ele>4.35</ele>
        <time>2020-05-20T16:34:02Z</time>
      </trkpt>
      <trkpt lat="47.01272" lon="-1.84198">
        <ele>3.75</ele>
        <time>2020-05-20T16:34:04Z</time>
      </trkpt>
      <trkpt lat="47.01262" lon="-1.8421">
        <ele>2.73</ele>
        <time>2020-05-20T16:34:06Z</time>
      </trkpt>
      <trkpt lat="47.0125" lon="-1.84223">
        <ele>2.59</ele>
        <time>2020-05-20T16:34:08Z</time>
      </trkpt>
      <trkpt lat="47.01238" lon="-1.84237">
        <ele>2.35</ele>
        <time>2020-05-20T16:34:10Z</time>
      </trkpt>
      <trkpt lat="47.01226" lon="-1.84251">
        <ele>2.23</ele>
        <time>2020-05-20T16:34:12Z</time>
      </trkpt>
      <trkpt lat="47.01213" lon="-1.84265">
        <ele>2.69</ele>
        <time>2020-05-20T16:34:14Z</time>
      </trkpt>
      <trkpt lat="47.01201" lon="-1.84279">
        <ele>2.64</ele>
        <time>2020-05-20T16:34:16Z</time>
      </trkpt>
      <trkpt lat="47.01189" lon="-1.84294">
        <ele>2.82</ele>
        <time>2020-05-20T16:34:18Z</time>
      </trkpt>
      <trkpt lat="47.0118" lon="-1.84314">
        <ele>3.07</ele>
        <time>2020-05-20T16:34:20Z</time>
      </trkpt>
      <trkpt lat="47.01172" lon="-1.84334">
        <ele>3.07</ele>
        <time>2020-05-20T16:34:22Z</time>
      </trkpt>
      <trkpt lat="47.01167" lon="-1.84352">
        <ele>4.01</ele>
        <time>2020-05-20T16:34:24Z</time>
      </trkpt>
      <trkpt lat="47.01161" lon="-1.84372">
        <ele>4.7</ele>
        <time>2020-05-20T16:34:26Z</time>
      </trkpt>
      <trkpt lat="47.01156" lon="-1.84393">
        <ele>4.54</ele>
        <time>2020-05-20T16:34:28Z</time>
      </trkpt>
      <trkpt lat="47.01152" lon="-1.84413">
        <ele>3.79</ele>
        <time>2020-05-20T16:34:30Z</time>
      </trkpt>
      <trkpt lat="47.01147" lon="-1.84434">
        <ele>3.17</ele>
        <time>2020-05-20T16:34:32Z</time>
      </trkpt>
      <trkpt lat="47.01143" lon="-1.84452">
        <ele>3.14</ele>
        <time>2020-05-20T16:34:34Z</time>
      </trkpt>
      <trkpt lat="47.01139" lon="-1.84469">
        <ele>4</ele>
        <time>2020-05-20T16:34:36Z</time>
      </trkpt>
      <trkpt lat="47.01134" lon="-1.84489">
        <ele>4.67</ele>
        <time>2020-05-20T16:34:38Z</time>
      </trkpt>
      <trkpt lat="47.01129" lon="-1.8451">
        <ele>5.41</ele>
        <time>2020-05-20T16:34:40Z</time>
      </trkpt>
      <trkpt lat="47.01123" lon="-1.84531">
        <ele>5.29</ele>
        <time>2020-05-20T16:34:42Z</time>
      </trkpt>
      <trkpt lat="47.01116" lon="-1.84549">
        <ele>5.32</ele>
        <time>2020-05-20T16:34:44Z</time>
      </trkpt>
      <trkpt lat="47.01107" lon="-1.84563">
        <ele>4.87</ele>
        <time>2020-05-20T16:34:46Z</time>
      </trkpt>
      <trkpt lat="47.01096" lon="-1.84575">
        <ele>2.24</ele>
        <time>2020-05-20T16:34:48Z</time>
      </trkpt>
      <trkpt lat="47.01084" lon="-1.84589">
        <ele>0.09</ele>
        <time>2020-05-20T16:34:50Z</time>
      </trkpt>
      <trkpt lat="47.01072" lon="-1.84602">
        <ele>-0.32</ele>
        <time>2020-05-20T16:34:53Z</time>
      </trkpt>
      <trkpt lat="47.0106" lon="-1.84615">
        <ele>-0.29</ele>
        <time>2020-05-20T16:34:54Z</time>
      </trkpt>
      <trkpt lat="47.01048" lon="-1.84628">
        <ele>0.35</ele>
        <time>2020-05-20T16:34:56Z</time>
      </trkpt>
      <trkpt lat="47.01037" lon="-1.8464">
        <ele>0.88</ele>
        <time>2020-05-20T16:34:58Z</time>
      </trkpt>
      <trkpt lat="47.01026" lon="-1.84653">
        <ele>1.26</ele>
        <time>2020-05-20T16:35:00Z</time>
      </trkpt>
      <trkpt lat="47.01015" lon="-1.84663">
        <ele>1.58</ele>
        <time>2020-05-20T16:35:02Z</time>
      </trkpt>
      <trkpt lat="47.01003" lon="-1.84671">
        <ele>2.16</ele>
        <time>2020-05-20T16:35:04Z</time>
      </trkpt>
      <trkpt lat="47.00989" lon="-1.84679">
        <ele>1.6</ele>
        <time>2020-05-20T16:35:06Z</time>
      </trkpt>
      <trkpt lat="47.00977" lon="-1.84686">
        <ele>0.32</ele>
        <time>2020-05-20T16:35:08Z</time>
      </trkpt>
      <trkpt lat="47.00964" lon="-1.84693">
        <ele>0.35</ele>
        <time>2020-05-20T16:35:10Z</time>
      </trkpt>
      <trkpt lat="47.00952" lon="-1.847">
        <ele>0.46</ele>
        <time>2020-05-20T16:35:12Z</time>
      </trkpt>
      <trkpt lat="47.0094" lon="-1.84705">
        <ele>0.66</ele>
        <time>2020-05-20T16:35:14Z</time>
      </trkpt>
      <trkpt lat="47.00928" lon="-1.84712">
        <ele>1.63</ele>
        <time>2020-05-20T16:35:16Z</time>
      </trkpt>
      <trkpt lat="47.00916" lon="-1.84718">
        <ele>2.67</ele>
        <time>2020-05-20T16:35:18Z</time>
      </trkpt>
      <trkpt lat="47.00903" lon="-1.84725">
        <ele>3.23</ele>
        <time>2020-05-20T16:35:20Z</time>
      </trkpt>
      <trkpt lat="47.00893" lon="-1.84729">
        <ele>3.08</ele>
        <time>2020-05-20T16:35:23Z</time>
      </trkpt>
      <trkpt lat="47.00885" lon="-1.84739">
        <ele>3.18</ele>
        <time>2020-05-20T16:35:47Z</time>
      </trkpt>
      <trkpt lat="47.00877" lon="-1.84748">
        <ele>4.37</ele>
        <time>2020-05-20T16:35:49Z</time>
      </trkpt>
      <trkpt lat="47.00868" lon="-1.84758">
        <ele>4.77</ele>
        <time>2020-05-20T16:35:51Z</time>
      </trkpt>
      <trkpt lat="47.00855" lon="-1.84767">
        <ele>5.27</ele>
        <time>2020-05-20T16:35:53Z</time>
      </trkpt>
      <trkpt lat="47.00843" lon="-1.84775">
        <ele>4.53</ele>
        <time>2020-05-20T16:35:55Z</time>
      </trkpt>
      <trkpt lat="47.00832" lon="-1.84782">
        <ele>3.29</ele>
        <time>2020-05-20T16:35:57Z</time>
      </trkpt>
      <trkpt lat="47.0082" lon="-1.8479">
        <ele>2.81</ele>
        <time>2020-05-20T16:35:59Z</time>
      </trkpt>
      <trkpt lat="47.00807" lon="-1.84796">
        <ele>3.15</ele>
        <time>2020-05-20T16:36:01Z</time>
      </trkpt>
      <trkpt lat="47.00794" lon="-1.84802">
        <ele>3.11</ele>
        <time>2020-05-20T16:36:03Z</time>
      </trkpt>
      <trkpt lat="47.00782" lon="-1.84808">
        <ele>3.12</ele>
        <time>2020-05-20T16:36:05Z</time>
      </trkpt>
      <trkpt lat="47.00769" lon="-1.84815">
        <ele>3.49</ele>
        <time>2020-05-20T16:36:07Z</time>
      </trkpt>
      <trkpt lat="47.00756" lon="-1.84821">
        <ele>3.19</ele>
        <time>2020-05-20T16:36:09Z</time>
      </trkpt>
      <trkpt lat="47.00746" lon="-1.84826">
        <ele>3.23</ele>
        <time>2020-05-20T16:36:11Z</time>
      </trkpt>
      <trkpt lat="47.00733" lon="-1.84833">
        <ele>3.75</ele>
        <time>2020-05-20T16:36:13Z</time>
      </trkpt>
      <trkpt lat="47.00721" lon="-1.84838">
        <ele>4.27</ele>
        <time>2020-05-20T16:36:15Z</time>
      </trkpt>
      <trkpt lat="47.00709" lon="-1.84844">
        <ele>4.75</ele>
        <time>2020-05-20T16:36:17Z</time>
      </trkpt>
      <trkpt lat="47.00698" lon="-1.8485">
        <ele>5.06</ele>
        <time>2020-05-20T16:36:19Z</time>
      </trkpt>
      <trkpt lat="47.00686" lon="-1.84857">
        <ele>4.61</ele>
        <time>2020-05-20T16:36:21Z</time>
      </trkpt>
      <trkpt lat="47.00674" lon="-1.84864">
        <ele>3.69</ele>
        <time>2020-05-20T16:36:23Z</time>
      </trkpt>
      <trkpt lat="47.00662" lon="-1.8487">
        <ele>3.34</ele>
        <time>2020-05-20T16:36:25Z</time>
      </trkpt>
      <trkpt lat="47.00649" lon="-1.84876">
        <ele>2.63</ele>
        <time>2020-05-20T16:36:27Z</time>
      </trkpt>
      <trkpt lat="47.00636" lon="-1.84884">
        <ele>2.54</ele>
        <time>2020-05-20T16:36:29Z</time>
      </trkpt>
      <trkpt lat="47.00623" lon="-1.84891">
        <ele>2.48</ele>
        <time>2020-05-20T16:36:31Z</time>
      </trkpt>
      <trkpt lat="47.00611" lon="-1.849">
        <ele>2.78</ele>
        <time>2020-05-20T16:36:33Z</time>
      </trkpt>
      <trkpt lat="47.00599" lon="-1.84913">
        <ele>3.35</ele>
        <time>2020-05-20T16:36:35Z</time>
      </trkpt>
      <trkpt lat="47.00588" lon="-1.84925">
        <ele>3.96</ele>
        <time>2020-05-20T16:36:37Z</time>
      </trkpt>
      <trkpt lat="47.00577" lon="-1.8494">
        <ele>4.88</ele>
        <time>2020-05-20T16:36:39Z</time>
      </trkpt>
      <trkpt lat="47.00565" lon="-1.84955">
        <ele>5.84</ele>
        <time>2020-05-20T16:36:41Z</time>
      </trkpt>
      <trkpt lat="47.00555" lon="-1.8497">
        <ele>5.52</ele>
        <time>2020-05-20T16:36:43Z</time>
      </trkpt>
      <trkpt lat="47.00545" lon="-1.84983">
        <ele>4.47</ele>
        <time>2020-05-20T16:36:45Z</time>
      </trkpt>
      <trkpt lat="47.00535" lon="-1.84997">
        <ele>2.68</ele>
        <time>2020-05-20T16:36:47Z</time>
      </trkpt>
      <trkpt lat="47.00525" lon="-1.85011">
        <ele>1.5</ele>
        <time>2020-05-20T16:36:49Z</time>
      </trkpt>
      <trkpt lat="47.00514" lon="-1.85024">
        <ele>0.62</ele>
        <time>2020-05-20T16:36:51Z</time>
      </trkpt>
      <trkpt lat="47.00505" lon="-1.85037">
        <ele>0.84</ele>
        <time>2020-05-20T16:36:53Z</time>
      </trkpt>
      <trkpt lat="47.00494" lon="-1.8505">
        <ele>2.18</ele>
        <time>2020-05-20T16:36:55Z</time>
      </trkpt>
      <trkpt lat="47.00483" lon="-1.85061">
        <ele>3.27</ele>
        <time>2020-05-20T16:36:57Z</time>
      </trkpt>
      <trkpt lat="47.00473" lon="-1.85071">
        <ele>3.49</ele>
        <time>2020-05-20T16:36:59Z</time>
      </trkpt>
      <trkpt lat="47.00462" lon="-1.85081">
        <ele>4.22</ele>
        <time>2020-05-20T16:37:01Z</time>
      </trkpt>
      <trkpt lat="47.0045" lon="-1.85092">
        <ele>4.28</ele>
        <time>2020-05-20T16:37:03Z</time>
      </trkpt>
      <trkpt lat="47.00437" lon="-1.85102">
        <ele>4.62</ele>
        <time>2020-05-20T16:37:05Z</time>
      </trkpt>
      <trkpt lat="47.00425" lon="-1.85112">
        <ele>4.78</ele>
        <time>2020-05-20T16:37:07Z</time>
      </trkpt>
      <trkpt lat="47.00413" lon="-1.85121">
        <ele>4.77</ele>
        <time>2020-05-20T16:37:09Z</time>
      </trkpt>
      <trkpt lat="47.00401" lon="-1.85131">
        <ele>4.37</ele>
        <time>2020-05-20T16:37:11Z</time>
      </trkpt>
      <trkpt lat="47.0039" lon="-1.8514">
        <ele>3.8</ele>
        <time>2020-05-20T16:37:13Z</time>
      </trkpt>
      <trkpt lat="47.00379" lon="-1.85151">
        <ele>3.49</ele>
        <time>2020-05-20T16:37:15Z</time>
      </trkpt>
      <trkpt lat="47.00367" lon="-1.8516">
        <ele>3</ele>
        <time>2020-05-20T16:37:17Z</time>
      </trkpt>
      <trkpt lat="47.00356" lon="-1.8517">
        <ele>2.95</ele>
        <time>2020-05-20T16:37:19Z</time>
      </trkpt>
      <trkpt lat="47.00344" lon="-1.85179">
        <ele>3.53</ele>
        <time>2020-05-20T16:37:21Z</time>
      </trkpt>
      <trkpt lat="47.00332" lon="-1.85188">
        <ele>4.13</ele>
        <time>2020-05-20T16:37:23Z</time>
      </trkpt>
      <trkpt lat="47.00321" lon="-1.85198">
        <ele>4.64</ele>
        <time>2020-05-20T16:37:25Z</time>
      </trkpt>
      <trkpt lat="47.0031" lon="-1.85207">
        <ele>4.91</ele>
        <time>2020-05-20T16:37:27Z</time>
      </trkpt>
      <trkpt lat="47.00298" lon="-1.85217">
        <ele>4.95</ele>
        <time>2020-05-20T16:37:29Z</time>
      </trkpt>
      <trkpt lat="47.00288" lon="-1.85226">
        <ele>4.98</ele>
        <time>2020-05-20T16:37:31Z</time>
      </trkpt>
      <trkpt lat="47.00278" lon="-1.85235">
        <ele>4.78</ele>
        <time>2020-05-20T16:37:33Z</time>
      </trkpt>
      <trkpt lat="47.00267" lon="-1.85245">
        <ele>3.68</ele>
        <time>2020-05-20T16:37:35Z</time>
      </trkpt>
      <trkpt lat="47.00254" lon="-1.85255">
        <ele>3.14</ele>
        <time>2020-05-20T16:37:37Z</time>
      </trkpt>
      <trkpt lat="47.00244" lon="-1.85263">
        <ele>3.27</ele>
        <time>2020-05-20T16:37:39Z</time>
      </trkpt>
      <trkpt lat="47.00233" lon="-1.85274">
        <ele>3.78</ele>
        <time>2020-05-20T16:37:41Z</time>
      </trkpt>
      <trkpt lat="47.00223" lon="-1.85286">
        <ele>4.17</ele>
        <time>2020-05-20T16:37:43Z</time>
      </trkpt>
      <trkpt lat="47.00213" lon="-1.853">
        <ele>3.92</ele>
        <time>2020-05-20T16:37:45Z</time>
      </trkpt>
      <trkpt lat="47.00203" lon="-1.85315">
        <ele>4.01</ele>
        <time>2020-05-20T16:37:47Z</time>
      </trkpt>
      <trkpt lat="47.00194" lon="-1.85332">
        <ele>4.06</ele>
        <time>2020-05-20T16:37:49Z</time>
      </trkpt>
      <trkpt lat="47.00187" lon="-1.85348">
        <ele>4.06</ele>
        <time>2020-05-20T16:37:51Z</time>
      </trkpt>
      <trkpt lat="47.00179" lon="-1.85366">
        <ele>4.48</ele>
        <time>2020-05-20T16:37:53Z</time>
      </trkpt>
      <trkpt lat="47.00171" lon="-1.85383">
        <ele>5.03</ele>
        <time>2020-05-20T16:37:55Z</time>
      </trkpt>
      <trkpt lat="47.00164" lon="-1.854">
        <ele>5.89</ele>
        <time>2020-05-20T16:37:57Z</time>
      </trkpt>
      <trkpt lat="47.00156" lon="-1.85415">
        <ele>6.39</ele>
        <time>2020-05-20T16:37:59Z</time>
      </trkpt>
      <trkpt lat="47.00148" lon="-1.85428">
        <ele>6.63</ele>
        <time>2020-05-20T16:38:01Z</time>
      </trkpt>
      <trkpt lat="47.0014" lon="-1.85439">
        <ele>5.52</ele>
        <time>2020-05-20T16:38:03Z</time>
      </trkpt>
      <trkpt lat="47.00129" lon="-1.85451">
        <ele>4.22</ele>
        <time>2020-05-20T16:38:05Z</time>
      </trkpt>
      <trkpt lat="47.00116" lon="-1.85453">
        <ele>3</ele>
        <time>2020-05-20T16:38:07Z</time>
      </trkpt>
      <trkpt lat="47.00102" lon="-1.8545">
        <ele>2.91</ele>
        <time>2020-05-20T16:38:09Z</time>
      </trkpt>
      <trkpt lat="47.0009" lon="-1.85438">
        <ele>2.8</ele>
        <time>2020-05-20T16:38:11Z</time>
      </trkpt>
      <trkpt lat="47.0008" lon="-1.85426">
        <ele>1.76</ele>
        <time>2020-05-20T16:38:13Z</time>
      </trkpt>
      <trkpt lat="47.00069" lon="-1.85412">
        <ele>1.61</ele>
        <time>2020-05-20T16:38:15Z</time>
      </trkpt>
      <trkpt lat="47.00058" lon="-1.85398">
        <ele>2.27</ele>
        <time>2020-05-20T16:38:17Z</time>
      </trkpt>
      <trkpt lat="47.00048" lon="-1.85383">
        <ele>3.57</ele>
        <time>2020-05-20T16:38:19Z</time>
      </trkpt>
      <trkpt lat="47.00037" lon="-1.85371">
        <ele>4.14</ele>
        <time>2020-05-20T16:38:21Z</time>
      </trkpt>
      <trkpt lat="47.00024" lon="-1.85365">
        <ele>4.03</ele>
        <time>2020-05-20T16:38:23Z</time>
      </trkpt>
      <trkpt lat="47.00011" lon="-1.85363">
        <ele>3.68</ele>
        <time>2020-05-20T16:38:25Z</time>
      </trkpt>
      <trkpt lat="46.99997" lon="-1.85362">
        <ele>3.14</ele>
        <time>2020-05-20T16:38:27Z</time>
      </trkpt>
      <trkpt lat="46.99985" lon="-1.85354">
        <ele>2.96</ele>
        <time>2020-05-20T16:38:29Z</time>
      </trkpt>
      <trkpt lat="46.99973" lon="-1.85338">
        <ele>3.46</ele>
        <time>2020-05-20T16:38:31Z</time>
      </trkpt>
      <trkpt lat="46.99962" lon="-1.85321">
        <ele>3.39</ele>
        <time>2020-05-20T16:38:33Z</time>
      </trkpt>
      <trkpt lat="46.99953" lon="-1.85305">
        <ele>2.8</ele>
        <time>2020-05-20T16:38:35Z</time>
      </trkpt>
      <trkpt lat="46.99946" lon="-1.8529">
        <ele>2.51</ele>
        <time>2020-05-20T16:38:37Z</time>
      </trkpt>
      <trkpt lat="46.99936" lon="-1.85275">
        <ele>2.87</ele>
        <time>2020-05-20T16:38:39Z</time>
      </trkpt>
      <trkpt lat="46.99927" lon="-1.85257">
        <ele>2.64</ele>
        <time>2020-05-20T16:38:41Z</time>
      </trkpt>
      <trkpt lat="46.99921" lon="-1.85238">
        <ele>2.21</ele>
        <time>2020-05-20T16:38:43Z</time>
      </trkpt>
      <trkpt lat="46.99916" lon="-1.85215">
        <ele>1.84</ele>
        <time>2020-05-20T16:38:45Z</time>
      </trkpt>
      <trkpt lat="46.99914" lon="-1.85195">
        <ele>2.06</ele>
        <time>2020-05-20T16:38:47Z</time>
      </trkpt>
      <trkpt lat="46.99911" lon="-1.85178">
        <ele>1.85</ele>
        <time>2020-05-20T16:38:49Z</time>
      </trkpt>
      <trkpt lat="46.99909" lon="-1.85158">
        <ele>0.9</ele>
        <time>2020-05-20T16:38:51Z</time>
      </trkpt>
      <trkpt lat="46.99906" lon="-1.85138">
        <ele>1.02</ele>
        <time>2020-05-20T16:38:53Z</time>
      </trkpt>
      <trkpt lat="46.99904" lon="-1.85118">
        <ele>1.45</ele>
        <time>2020-05-20T16:38:55Z</time>
      </trkpt>
      <trkpt lat="46.99901" lon="-1.85098">
        <ele>1.53</ele>
        <time>2020-05-20T16:38:57Z</time>
      </trkpt>
      <trkpt lat="46.999" lon="-1.8508">
        <ele>2.03</ele>
        <time>2020-05-20T16:38:59Z</time>
      </trkpt>
      <trkpt lat="46.99899" lon="-1.8506">
        <ele>2.02</ele>
        <time>2020-05-20T16:39:01Z</time>
      </trkpt>
      <trkpt lat="46.99898" lon="-1.85041">
        <ele>2.98</ele>
        <time>2020-05-20T16:39:03Z</time>
      </trkpt>
      <trkpt lat="46.99897" lon="-1.8502">
        <ele>3.69</ele>
        <time>2020-05-20T16:39:05Z</time>
      </trkpt>
      <trkpt lat="46.99896" lon="-1.84998">
        <ele>4.56</ele>
        <time>2020-05-20T16:39:07Z</time>
      </trkpt>
      <trkpt lat="46.99895" lon="-1.8498">
        <ele>4.8</ele>
        <time>2020-05-20T16:39:09Z</time>
      </trkpt>
      <trkpt lat="46.99893" lon="-1.84959">
        <ele>4.8</ele>
        <time>2020-05-20T16:39:11Z</time>
      </trkpt>
      <trkpt lat="46.99892" lon="-1.8494">
        <ele>4.92</ele>
        <time>2020-05-20T16:39:13Z</time>
      </trkpt>
      <trkpt lat="46.99891" lon="-1.84921">
        <ele>5.61</ele>
        <time>2020-05-20T16:39:15Z</time>
      </trkpt>
      <trkpt lat="46.99891" lon="-1.84901">
        <ele>6.07</ele>
        <time>2020-05-20T16:39:17Z</time>
      </trkpt>
      <trkpt lat="46.9989" lon="-1.84882">
        <ele>6.27</ele>
        <time>2020-05-20T16:39:19Z</time>
      </trkpt>
      <trkpt lat="46.99889" lon="-1.84862">
        <ele>6.37</ele>
        <time>2020-05-20T16:39:21Z</time>
      </trkpt>
      <trkpt lat="46.99886" lon="-1.8484">
        <ele>6.08</ele>
        <time>2020-05-20T16:39:23Z</time>
      </trkpt>
      <trkpt lat="46.99883" lon="-1.84818">
        <ele>6.09</ele>
        <time>2020-05-20T16:39:25Z</time>
      </trkpt>
      <trkpt lat="46.99878" lon="-1.84798">
        <ele>6.52</ele>
        <time>2020-05-20T16:39:27Z</time>
      </trkpt>
      <trkpt lat="46.99874" lon="-1.8478">
        <ele>7.03</ele>
        <time>2020-05-20T16:39:29Z</time>
      </trkpt>
      <trkpt lat="46.99867" lon="-1.8476">
        <ele>7.68</ele>
        <time>2020-05-20T16:39:31Z</time>
      </trkpt>
      <trkpt lat="46.99861" lon="-1.84743">
        <ele>8.48</ele>
        <time>2020-05-20T16:39:33Z</time>
      </trkpt>
      <trkpt lat="46.99854" lon="-1.84728">
        <ele>8.64</ele>
        <time>2020-05-20T16:39:35Z</time>
      </trkpt>
      <trkpt lat="46.99847" lon="-1.84712">
        <ele>9.86</ele>
        <time>2020-05-20T16:39:37Z</time>
      </trkpt>
      <trkpt lat="46.99839" lon="-1.84693">
        <ele>10.27</ele>
        <time>2020-05-20T16:39:39Z</time>
      </trkpt>
      <trkpt lat="46.99832" lon="-1.84677">
        <ele>9.61</ele>
        <time>2020-05-20T16:39:41Z</time>
      </trkpt>
      <trkpt lat="46.99825" lon="-1.8466">
        <ele>8.53</ele>
        <time>2020-05-20T16:39:43Z</time>
      </trkpt>
      <trkpt lat="46.99818" lon="-1.84641">
        <ele>7.56</ele>
        <time>2020-05-20T16:39:45Z</time>
      </trkpt>
      <trkpt lat="46.99812" lon="-1.84622">
        <ele>7.27</ele>
        <time>2020-05-20T16:39:47Z</time>
      </trkpt>
      <trkpt lat="46.99807" lon="-1.84603">
        <ele>7.2</ele>
        <time>2020-05-20T16:39:49Z</time>
      </trkpt>
      <trkpt lat="46.99803" lon="-1.84587">
        <ele>6.69</ele>
        <time>2020-05-20T16:39:51Z</time>
      </trkpt>
      <trkpt lat="46.99799" lon="-1.84568">
        <ele>6.18</ele>
        <time>2020-05-20T16:39:53Z</time>
      </trkpt>
      <trkpt lat="46.99795" lon="-1.84548">
        <ele>6.17</ele>
        <time>2020-05-20T16:39:55Z</time>
      </trkpt>
      <trkpt lat="46.99792" lon="-1.84528">
        <ele>6.96</ele>
        <time>2020-05-20T16:39:57Z</time>
      </trkpt>
      <trkpt lat="46.99788" lon="-1.84509">
        <ele>7.36</ele>
        <time>2020-05-20T16:39:59Z</time>
      </trkpt>
      <trkpt lat="46.99785" lon="-1.84489">
        <ele>7.09</ele>
        <time>2020-05-20T16:40:01Z</time>
      </trkpt>
      <trkpt lat="46.99781" lon="-1.84469">
        <ele>7.28</ele>
        <time>2020-05-20T16:40:03Z</time>
      </trkpt>
      <trkpt lat="46.99778" lon="-1.84449">
        <ele>7.39</ele>
        <time>2020-05-20T16:40:05Z</time>
      </trkpt>
      <trkpt lat="46.99775" lon="-1.84428">
        <ele>7.22</ele>
        <time>2020-05-20T16:40:07Z</time>
      </trkpt>
      <trkpt lat="46.99771" lon="-1.84406">
        <ele>7.5</ele>
        <time>2020-05-20T16:40:09Z</time>
      </trkpt>
      <trkpt lat="46.99768" lon="-1.84386">
        <ele>8.55</ele>
        <time>2020-05-20T16:40:11Z</time>
      </trkpt>
      <trkpt lat="46.99764" lon="-1.84367">
        <ele>9.31</ele>
        <time>2020-05-20T16:40:13Z</time>
      </trkpt>
      <trkpt lat="46.99761" lon="-1.84347">
        <ele>9.35</ele>
        <time>2020-05-20T16:40:15Z</time>
      </trkpt>
      <trkpt lat="46.99758" lon="-1.84327">
        <ele>8.7</ele>
        <time>2020-05-20T16:40:17Z</time>
      </trkpt>
      <trkpt lat="46.99755" lon="-1.84306">
        <ele>7.9</ele>
        <time>2020-05-20T16:40:19Z</time>
      </trkpt>
      <trkpt lat="46.99752" lon="-1.84284">
        <ele>6.83</ele>
        <time>2020-05-20T16:40:21Z</time>
      </trkpt>
      <trkpt lat="46.9975" lon="-1.84265">
        <ele>6.71</ele>
        <time>2020-05-20T16:40:23Z</time>
      </trkpt>
      <trkpt lat="46.99748" lon="-1.84244">
        <ele>7.02</ele>
        <time>2020-05-20T16:40:25Z</time>
      </trkpt>
      <trkpt lat="46.99745" lon="-1.84221">
        <ele>7.49</ele>
        <time>2020-05-20T16:40:27Z</time>
      </trkpt>
      <trkpt lat="46.99742" lon="-1.842">
        <ele>6.87</ele>
        <time>2020-05-20T16:40:29Z</time>
      </trkpt>
      <trkpt lat="46.99734" lon="-1.84185">
        <ele>6.11</ele>
        <time>2020-05-20T16:40:31Z</time>
      </trkpt>
      <trkpt lat="46.99722" lon="-1.84174">
        <ele>6.13</ele>
        <time>2020-05-20T16:40:33Z</time>
      </trkpt>
      <trkpt lat="46.99709" lon="-1.84166">
        <ele>6.42</ele>
        <time>2020-05-20T16:40:35Z</time>
      </trkpt>
      <trkpt lat="46.99696" lon="-1.8416">
        <ele>6.48</ele>
        <time>2020-05-20T16:40:37Z</time>
      </trkpt>
      <trkpt lat="46.99683" lon="-1.84153">
        <ele>6.24</ele>
        <time>2020-05-20T16:40:39Z</time>
      </trkpt>
      <trkpt lat="46.9967" lon="-1.84143">
        <ele>6.26</ele>
        <time>2020-05-20T16:40:41Z</time>
      </trkpt>
      <trkpt lat="46.99658" lon="-1.84131">
        <ele>7.36</ele>
        <time>2020-05-20T16:40:43Z</time>
      </trkpt>
      <trkpt lat="46.99648" lon="-1.84118">
        <ele>8.02</ele>
        <time>2020-05-20T16:40:45Z</time>
      </trkpt>
      <trkpt lat="46.99639" lon="-1.84103">
        <ele>8.44</ele>
        <time>2020-05-20T16:40:47Z</time>
      </trkpt>
      <trkpt lat="46.99631" lon="-1.84087">
        <ele>9.33</ele>
        <time>2020-05-20T16:40:49Z</time>
      </trkpt>
      <trkpt lat="46.99624" lon="-1.84069">
        <ele>9.86</ele>
        <time>2020-05-20T16:40:51Z</time>
      </trkpt>
      <trkpt lat="46.99618" lon="-1.84049">
        <ele>10.17</ele>
        <time>2020-05-20T16:40:53Z</time>
      </trkpt>
      <trkpt lat="46.99614" lon="-1.84029">
        <ele>10.23</ele>
        <time>2020-05-20T16:40:55Z</time>
      </trkpt>
      <trkpt lat="46.99611" lon="-1.84009">
        <ele>10.19</ele>
        <time>2020-05-20T16:40:57Z</time>
      </trkpt>
      <trkpt lat="46.99608" lon="-1.83988">
        <ele>10.27</ele>
        <time>2020-05-20T16:40:59Z</time>
      </trkpt>
      <trkpt lat="46.99604" lon="-1.83965">
        <ele>10</ele>
        <time>2020-05-20T16:41:01Z</time>
      </trkpt>
      <trkpt lat="46.99599" lon="-1.83944">
        <ele>9.89</ele>
        <time>2020-05-20T16:41:03Z</time>
      </trkpt>
      <trkpt lat="46.99589" lon="-1.83927">
        <ele>8.8</ele>
        <time>2020-05-20T16:41:05Z</time>
      </trkpt>
      <trkpt lat="46.99576" lon="-1.83914">
        <ele>7.02</ele>
        <time>2020-05-20T16:41:07Z</time>
      </trkpt>
      <trkpt lat="46.99563" lon="-1.83906">
        <ele>6.08</ele>
        <time>2020-05-20T16:41:09Z</time>
      </trkpt>
      <trkpt lat="46.99551" lon="-1.839">
        <ele>5.78</ele>
        <time>2020-05-20T16:41:11Z</time>
      </trkpt>
      <trkpt lat="46.99537" lon="-1.83893">
        <ele>6.01</ele>
        <time>2020-05-20T16:41:13Z</time>
      </trkpt>
      <trkpt lat="46.99525" lon="-1.83887">
        <ele>5.82</ele>
        <time>2020-05-20T16:41:15Z</time>
      </trkpt>
      <trkpt lat="46.99512" lon="-1.83879">
        <ele>5.2</ele>
        <time>2020-05-20T16:41:17Z</time>
      </trkpt>
      <trkpt lat="46.99498" lon="-1.83871">
        <ele>4.64</ele>
        <time>2020-05-20T16:41:19Z</time>
      </trkpt>
      <trkpt lat="46.99485" lon="-1.83862">
        <ele>3.84</ele>
        <time>2020-05-20T16:41:21Z</time>
      </trkpt>
      <trkpt lat="46.99476" lon="-1.83851">
        <ele>4.72</ele>
        <time>2020-05-20T16:41:23Z</time>
      </trkpt>
      <trkpt lat="46.99468" lon="-1.83835">
        <ele>6.03</ele>
        <time>2020-05-20T16:41:25Z</time>
      </trkpt>
      <trkpt lat="46.99461" lon="-1.83817">
        <ele>6.98</ele>
        <time>2020-05-20T16:41:27Z</time>
      </trkpt>
      <trkpt lat="46.99453" lon="-1.83799">
        <ele>7.55</ele>
        <time>2020-05-20T16:41:29Z</time>
      </trkpt>
      <trkpt lat="46.99445" lon="-1.83781">
        <ele>8.07</ele>
        <time>2020-05-20T16:41:31Z</time>
      </trkpt>
      <trkpt lat="46.99436" lon="-1.83771">
        <ele>8.19</ele>
        <time>2020-05-20T16:41:33Z</time>
      </trkpt>
      <trkpt lat="46.99426" lon="-1.83762">
        <ele>7.78</ele>
        <time>2020-05-20T16:41:35Z</time>
      </trkpt>
      <trkpt lat="46.99413" lon="-1.83754">
        <ele>8.27</ele>
        <time>2020-05-20T16:41:37Z</time>
      </trkpt>
      <trkpt lat="46.99399" lon="-1.83746">
        <ele>8.96</ele>
        <time>2020-05-20T16:41:39Z</time>
      </trkpt>
      <trkpt lat="46.99387" lon="-1.83739">
        <ele>9.57</ele>
        <time>2020-05-20T16:41:41Z</time>
      </trkpt>
      <trkpt lat="46.99374" lon="-1.83732">
        <ele>9.99</ele>
        <time>2020-05-20T16:41:43Z</time>
      </trkpt>
      <trkpt lat="46.99361" lon="-1.83724">
        <ele>9.77</ele>
        <time>2020-05-20T16:41:45Z</time>
      </trkpt>
      <trkpt lat="46.99348" lon="-1.83717">
        <ele>10.01</ele>
        <time>2020-05-20T16:41:47Z</time>
      </trkpt>
      <trkpt lat="46.99336" lon="-1.83709">
        <ele>9.8</ele>
        <time>2020-05-20T16:41:49Z</time>
      </trkpt>
      <trkpt lat="46.99321" lon="-1.83701">
        <ele>8.93</ele>
        <time>2020-05-20T16:41:51Z</time>
      </trkpt>
      <trkpt lat="46.99308" lon="-1.83693">
        <ele>8.35</ele>
        <time>2020-05-20T16:41:53Z</time>
      </trkpt>
      <trkpt lat="46.99297" lon="-1.83685">
        <ele>8.14</ele>
        <time>2020-05-20T16:41:55Z</time>
      </trkpt>
      <trkpt lat="46.99287" lon="-1.83676">
        <ele>7.12</ele>
        <time>2020-05-20T16:41:57Z</time>
      </trkpt>
      <trkpt lat="46.99276" lon="-1.83665">
        <ele>6.92</ele>
        <time>2020-05-20T16:41:59Z</time>
      </trkpt>
      <trkpt lat="46.99265" lon="-1.83653">
        <ele>5.89</ele>
        <time>2020-05-20T16:42:01Z</time>
      </trkpt>
      <trkpt lat="46.99256" lon="-1.83641">
        <ele>5.52</ele>
        <time>2020-05-20T16:42:03Z</time>
      </trkpt>
      <trkpt lat="46.99246" lon="-1.83628">
        <ele>5.68</ele>
        <time>2020-05-20T16:42:05Z</time>
      </trkpt>
      <trkpt lat="46.99237" lon="-1.83616">
        <ele>5.44</ele>
        <time>2020-05-20T16:42:07Z</time>
      </trkpt>
      <trkpt lat="46.99228" lon="-1.83603">
        <ele>5.27</ele>
        <time>2020-05-20T16:42:09Z</time>
      </trkpt>
      <trkpt lat="46.99218" lon="-1.8359">
        <ele>4.71</ele>
        <time>2020-05-20T16:42:11Z</time>
      </trkpt>
      <trkpt lat="46.99208" lon="-1.83577">
        <ele>4.28</ele>
        <time>2020-05-20T16:42:13Z</time>
      </trkpt>
      <trkpt lat="46.99198" lon="-1.83564">
        <ele>4.56</ele>
        <time>2020-05-20T16:42:15Z</time>
      </trkpt>
      <trkpt lat="46.99188" lon="-1.83551">
        <ele>5.49</ele>
        <time>2020-05-20T16:42:17Z</time>
      </trkpt>
      <trkpt lat="46.99178" lon="-1.83538">
        <ele>5.76</ele>
        <time>2020-05-20T16:42:19Z</time>
      </trkpt>
      <trkpt lat="46.99167" lon="-1.83526">
        <ele>6.19</ele>
        <time>2020-05-20T16:42:21Z</time>
      </trkpt>
      <trkpt lat="46.99157" lon="-1.83515">
        <ele>5.91</ele>
        <time>2020-05-20T16:42:23Z</time>
      </trkpt>
      <trkpt lat="46.99146" lon="-1.8351">
        <ele>5.07</ele>
        <time>2020-05-20T16:42:27Z</time>
      </trkpt>
      <trkpt lat="46.99143" lon="-1.83497">
        <ele>4.05</ele>
        <time>2020-05-20T16:42:29Z</time>
      </trkpt>
      <trkpt lat="46.99152" lon="-1.83481">
        <ele>3.62</ele>
        <time>2020-05-20T16:42:31Z</time>
      </trkpt>
      <trkpt lat="46.99159" lon="-1.8346">
        <ele>3.68</ele>
        <time>2020-05-20T16:42:33Z</time>
      </trkpt>
      <trkpt lat="46.99165" lon="-1.83438">
        <ele>3.46</ele>
        <time>2020-05-20T16:42:35Z</time>
      </trkpt>
      <trkpt lat="46.9917" lon="-1.83418">
        <ele>3.37</ele>
        <time>2020-05-20T16:42:37Z</time>
      </trkpt>
      <trkpt lat="46.99174" lon="-1.83399">
        <ele>3.83</ele>
        <time>2020-05-20T16:42:39Z</time>
      </trkpt>
      <trkpt lat="46.99178" lon="-1.83379">
        <ele>4.8</ele>
        <time>2020-05-20T16:42:41Z</time>
      </trkpt>
      <trkpt lat="46.99183" lon="-1.83357">
        <ele>5.44</ele>
        <time>2020-05-20T16:42:43Z</time>
      </trkpt>
      <trkpt lat="46.99187" lon="-1.83337">
        <ele>5.64</ele>
        <time>2020-05-20T16:42:45Z</time>
      </trkpt>
      <trkpt lat="46.9919" lon="-1.8332">
        <ele>4.22</ele>
        <time>2020-05-20T16:42:47Z</time>
      </trkpt>
      <trkpt lat="46.99194" lon="-1.833">
        <ele>3.97</ele>
        <time>2020-05-20T16:42:49Z</time>
      </trkpt>
      <trkpt lat="46.99198" lon="-1.83281">
        <ele>4.38</ele>
        <time>2020-05-20T16:42:51Z</time>
      </trkpt>
      <trkpt lat="46.99202" lon="-1.83263">
        <ele>4.66</ele>
        <time>2020-05-20T16:42:53Z</time>
      </trkpt>
      <trkpt lat="46.99206" lon="-1.83244">
        <ele>4.72</ele>
        <time>2020-05-20T16:42:55Z</time>
      </trkpt>
      <trkpt lat="46.99211" lon="-1.83226">
        <ele>5.04</ele>
        <time>2020-05-20T16:42:57Z</time>
      </trkpt>
      <trkpt lat="46.99215" lon="-1.83208">
        <ele>6.11</ele>
        <time>2020-05-20T16:42:59Z</time>
      </trkpt>
      <trkpt lat="46.99219" lon="-1.83187">
        <ele>6.63</ele>
        <time>2020-05-20T16:43:01Z</time>
      </trkpt>
      <trkpt lat="46.99224" lon="-1.83169">
        <ele>7.15</ele>
        <time>2020-05-20T16:43:03Z</time>
      </trkpt>
      <trkpt lat="46.99229" lon="-1.8315">
        <ele>7.26</ele>
        <time>2020-05-20T16:43:05Z</time>
      </trkpt>
      <trkpt lat="46.99233" lon="-1.83132">
        <ele>6.26</ele>
        <time>2020-05-20T16:43:07Z</time>
      </trkpt>
      <trkpt lat="46.99237" lon="-1.83114">
        <ele>5.83</ele>
        <time>2020-05-20T16:43:09Z</time>
      </trkpt>
      <trkpt lat="46.9924" lon="-1.83096">
        <ele>5.67</ele>
        <time>2020-05-20T16:43:11Z</time>
      </trkpt>
      <trkpt lat="46.99245" lon="-1.83079">
        <ele>6.18</ele>
        <time>2020-05-20T16:43:13Z</time>
      </trkpt>
      <trkpt lat="46.99248" lon="-1.83062">
        <ele>6.46</ele>
        <time>2020-05-20T16:43:15Z</time>
      </trkpt>
      <trkpt lat="46.99253" lon="-1.83043">
        <ele>7.04</ele>
        <time>2020-05-20T16:43:17Z</time>
      </trkpt>
      <trkpt lat="46.99256" lon="-1.83028">
        <ele>5.95</ele>
        <time>2020-05-20T16:43:19Z</time>
      </trkpt>
      <trkpt lat="46.9926" lon="-1.8301">
        <ele>5.67</ele>
        <time>2020-05-20T16:43:21Z</time>
      </trkpt>
      <trkpt lat="46.99263" lon="-1.82993">
        <ele>5.38</ele>
        <time>2020-05-20T16:43:23Z</time>
      </trkpt>
      <trkpt lat="46.99267" lon="-1.82978">
        <ele>5.48</ele>
        <time>2020-05-20T16:43:25Z</time>
      </trkpt>
      <trkpt lat="46.99272" lon="-1.8296">
        <ele>4.49</ele>
        <time>2020-05-20T16:43:27Z</time>
      </trkpt>
      <trkpt lat="46.99275" lon="-1.82947">
        <ele>2.94</ele>
        <time>2020-05-20T16:43:29Z</time>
      </trkpt>
      <trkpt lat="46.99279" lon="-1.82929">
        <ele>1.79</ele>
        <time>2020-05-20T16:43:31Z</time>
      </trkpt>
      <trkpt lat="46.99282" lon="-1.82912">
        <ele>0.62</ele>
        <time>2020-05-20T16:43:33Z</time>
      </trkpt>
      <trkpt lat="46.99285" lon="-1.82895">
        <ele>-0.27</ele>
        <time>2020-05-20T16:43:35Z</time>
      </trkpt>
      <trkpt lat="46.99288" lon="-1.82878">
        <ele>-0.61</ele>
        <time>2020-05-20T16:43:37Z</time>
      </trkpt>
      <trkpt lat="46.99291" lon="-1.82862">
        <ele>-0.63</ele>
        <time>2020-05-20T16:43:39Z</time>
      </trkpt>
      <trkpt lat="46.99295" lon="-1.82843">
        <ele>0.15</ele>
        <time>2020-05-20T16:43:41Z</time>
      </trkpt>
      <trkpt lat="46.99299" lon="-1.82827">
        <ele>1.06</ele>
        <time>2020-05-20T16:43:43Z</time>
      </trkpt>
      <trkpt lat="46.99303" lon="-1.82809">
        <ele>2.22</ele>
        <time>2020-05-20T16:43:45Z</time>
      </trkpt>
      <trkpt lat="46.99307" lon="-1.8279">
        <ele>3.22</ele>
        <time>2020-05-20T16:43:47Z</time>
      </trkpt>
      <trkpt lat="46.99311" lon="-1.82774">
        <ele>4.08</ele>
        <time>2020-05-20T16:43:49Z</time>
      </trkpt>
      <trkpt lat="46.99315" lon="-1.82756">
        <ele>4.63</ele>
        <time>2020-05-20T16:43:51Z</time>
      </trkpt>
      <trkpt lat="46.99319" lon="-1.82741">
        <ele>4.99</ele>
        <time>2020-05-20T16:43:53Z</time>
      </trkpt>
      <trkpt lat="46.99323" lon="-1.82723">
        <ele>5.38</ele>
        <time>2020-05-20T16:43:55Z</time>
      </trkpt>
      <trkpt lat="46.99327" lon="-1.82704">
        <ele>5.66</ele>
        <time>2020-05-20T16:43:56Z</time>
      </trkpt>
      <trkpt lat="46.9933" lon="-1.82687">
        <ele>5.89</ele>
        <time>2020-05-20T16:43:58Z</time>
      </trkpt>
      <trkpt lat="46.99334" lon="-1.82671">
        <ele>6.41</ele>
        <time>2020-05-20T16:44:00Z</time>
      </trkpt>
      <trkpt lat="46.99338" lon="-1.82653">
        <ele>6.97</ele>
        <time>2020-05-20T16:44:02Z</time>
      </trkpt>
      <trkpt lat="46.99343" lon="-1.82633">
        <ele>8.59</ele>
        <time>2020-05-20T16:44:04Z</time>
      </trkpt>
      <trkpt lat="46.99348" lon="-1.82615">
        <ele>10.19</ele>
        <time>2020-05-20T16:44:06Z</time>
      </trkpt>
      <trkpt lat="46.99354" lon="-1.82602">
        <ele>10.53</ele>
        <time>2020-05-20T16:44:08Z</time>
      </trkpt>
      <trkpt lat="46.9936" lon="-1.82589">
        <ele>10.93</ele>
        <time>2020-05-20T16:44:10Z</time>
      </trkpt>
      <trkpt lat="46.99365" lon="-1.82574">
        <ele>10.84</ele>
        <time>2020-05-20T16:44:12Z</time>
      </trkpt>
      <trkpt lat="46.99366" lon="-1.82555">
        <ele>10.19</ele>
        <time>2020-05-20T16:44:14Z</time>
      </trkpt>
      <trkpt lat="46.99362" lon="-1.82539">
        <ele>9.52</ele>
        <time>2020-05-20T16:44:16Z</time>
      </trkpt>
      <trkpt lat="46.99358" lon="-1.82519">
        <ele>8.98</ele>
        <time>2020-05-20T16:44:18Z</time>
      </trkpt>
      <trkpt lat="46.99354" lon="-1.82502">
        <ele>9.32</ele>
        <time>2020-05-20T16:44:20Z</time>
      </trkpt>
      <trkpt lat="46.99347" lon="-1.82488">
        <ele>9.26</ele>
        <time>2020-05-20T16:44:22Z</time>
      </trkpt>
      <trkpt lat="46.99336" lon="-1.8249">
        <ele>9.94</ele>
        <time>2020-05-20T16:44:24Z</time>
      </trkpt>
      <trkpt lat="46.99321" lon="-1.82497">
        <ele>10.14</ele>
        <time>2020-05-20T16:44:26Z</time>
      </trkpt>
      <trkpt lat="46.99307" lon="-1.82503">
        <ele>9.37</ele>
        <time>2020-05-20T16:44:28Z</time>
      </trkpt>
      <trkpt lat="46.99293" lon="-1.82508">
        <ele>7.83</ele>
        <time>2020-05-20T16:44:30Z</time>
      </trkpt>
      <trkpt lat="46.99279" lon="-1.82512">
        <ele>6.52</ele>
        <time>2020-05-20T16:44:32Z</time>
      </trkpt>
      <trkpt lat="46.99267" lon="-1.82515">
        <ele>5.5</ele>
        <time>2020-05-20T16:44:34Z</time>
      </trkpt>
      <trkpt lat="46.99256" lon="-1.82512">
        <ele>4.72</ele>
        <time>2020-05-20T16:44:36Z</time>
      </trkpt>
      <trkpt lat="46.99246" lon="-1.82501">
        <ele>4.61</ele>
        <time>2020-05-20T16:44:38Z</time>
      </trkpt>
      <trkpt lat="46.99237" lon="-1.82489">
        <ele>5.08</ele>
        <time>2020-05-20T16:44:40Z</time>
      </trkpt>
      <trkpt lat="46.99228" lon="-1.82476">
        <ele>5.59</ele>
        <time>2020-05-20T16:44:42Z</time>
      </trkpt>
      <trkpt lat="46.99219" lon="-1.82461">
        <ele>4.95</ele>
        <time>2020-05-20T16:44:44Z</time>
      </trkpt>
      <trkpt lat="46.99209" lon="-1.82446">
        <ele>4.2</ele>
        <time>2020-05-20T16:44:46Z</time>
      </trkpt>
      <trkpt lat="46.99201" lon="-1.82432">
        <ele>4.42</ele>
        <time>2020-05-20T16:44:48Z</time>
      </trkpt>
      <trkpt lat="46.99192" lon="-1.82417">
        <ele>4.84</ele>
        <time>2020-05-20T16:44:50Z</time>
      </trkpt>
      <trkpt lat="46.99185" lon="-1.82403">
        <ele>4.77</ele>
        <time>2020-05-20T16:44:52Z</time>
      </trkpt>
      <trkpt lat="46.99175" lon="-1.82389">
        <ele>4.86</ele>
        <time>2020-05-20T16:44:54Z</time>
      </trkpt>
      <trkpt lat="46.99165" lon="-1.82377">
        <ele>5.02</ele>
        <time>2020-05-20T16:44:56Z</time>
      </trkpt>
      <trkpt lat="46.99156" lon="-1.82363">
        <ele>5.14</ele>
        <time>2020-05-20T16:44:58Z</time>
      </trkpt>
      <trkpt lat="46.99147" lon="-1.82349">
        <ele>5.11</ele>
        <time>2020-05-20T16:45:00Z</time>
      </trkpt>
      <trkpt lat="46.99139" lon="-1.82337">
        <ele>4.91</ele>
        <time>2020-05-20T16:45:02Z</time>
      </trkpt>
      <trkpt lat="46.99131" lon="-1.82324">
        <ele>4.92</ele>
        <time>2020-05-20T16:45:04Z</time>
      </trkpt>
      <trkpt lat="46.99121" lon="-1.82309">
        <ele>4.69</ele>
        <time>2020-05-20T16:45:06Z</time>
      </trkpt>
      <trkpt lat="46.99113" lon="-1.82295">
        <ele>4.33</ele>
        <time>2020-05-20T16:45:08Z</time>
      </trkpt>
      <trkpt lat="46.99105" lon="-1.82279">
        <ele>4.39</ele>
        <time>2020-05-20T16:45:10Z</time>
      </trkpt>
      <trkpt lat="46.99101" lon="-1.82262">
        <ele>4.62</ele>
        <time>2020-05-20T16:45:12Z</time>
      </trkpt>
      <trkpt lat="46.99097" lon="-1.82246">
        <ele>4.63</ele>
        <time>2020-05-20T16:45:14Z</time>
      </trkpt>
      <trkpt lat="46.99096" lon="-1.82227">
        <ele>4.77</ele>
        <time>2020-05-20T16:45:16Z</time>
      </trkpt>
      <trkpt lat="46.99094" lon="-1.82207">
        <ele>5.81</ele>
        <time>2020-05-20T16:45:18Z</time>
      </trkpt>
      <trkpt lat="46.99093" lon="-1.82191">
        <ele>6.48</ele>
        <time>2020-05-20T16:45:20Z</time>
      </trkpt>
      <trkpt lat="46.99091" lon="-1.82171">
        <ele>6.89</ele>
        <time>2020-05-20T16:45:22Z</time>
      </trkpt>
      <trkpt lat="46.9909" lon="-1.82152">
        <ele>7.41</ele>
        <time>2020-05-20T16:45:24Z</time>
      </trkpt>
      <trkpt lat="46.99089" lon="-1.82135">
        <ele>7.77</ele>
        <time>2020-05-20T16:45:26Z</time>
      </trkpt>
      <trkpt lat="46.99086" lon="-1.82113">
        <ele>8.1</ele>
        <time>2020-05-20T16:45:28Z</time>
      </trkpt>
      <trkpt lat="46.99083" lon="-1.82096">
        <ele>7.03</ele>
        <time>2020-05-20T16:45:30Z</time>
      </trkpt>
      <trkpt lat="46.99081" lon="-1.82074">
        <ele>6.55</ele>
        <time>2020-05-20T16:45:32Z</time>
      </trkpt>
      <trkpt lat="46.99082" lon="-1.82054">
        <ele>6.17</ele>
        <time>2020-05-20T16:45:34Z</time>
      </trkpt>
      <trkpt lat="46.99083" lon="-1.82034">
        <ele>5.59</ele>
        <time>2020-05-20T16:45:36Z</time>
      </trkpt>
      <trkpt lat="46.99084" lon="-1.82016">
        <ele>5.27</ele>
        <time>2020-05-20T16:45:38Z</time>
      </trkpt>
      <trkpt lat="46.99085" lon="-1.81998">
        <ele>5.15</ele>
        <time>2020-05-20T16:45:40Z</time>
      </trkpt>
      <trkpt lat="46.99086" lon="-1.81979">
        <ele>5.44</ele>
        <time>2020-05-20T16:45:42Z</time>
      </trkpt>
      <trkpt lat="46.99087" lon="-1.81962">
        <ele>5.8</ele>
        <time>2020-05-20T16:45:44Z</time>
      </trkpt>
      <trkpt lat="46.99089" lon="-1.81945">
        <ele>6.01</ele>
        <time>2020-05-20T16:45:46Z</time>
      </trkpt>
      <trkpt lat="46.9909" lon="-1.81928">
        <ele>6.24</ele>
        <time>2020-05-20T16:45:48Z</time>
      </trkpt>
      <trkpt lat="46.99092" lon="-1.8191">
        <ele>6.33</ele>
        <time>2020-05-20T16:45:50Z</time>
      </trkpt>
      <trkpt lat="46.99094" lon="-1.81892">
        <ele>5.62</ele>
        <time>2020-05-20T16:45:52Z</time>
      </trkpt>
      <trkpt lat="46.99097" lon="-1.81872">
        <ele>5.4</ele>
        <time>2020-05-20T16:45:54Z</time>
      </trkpt>
      <trkpt lat="46.991" lon="-1.81854">
        <ele>6.27</ele>
        <time>2020-05-20T16:45:56Z</time>
      </trkpt>
      <trkpt lat="46.99104" lon="-1.81837">
        <ele>6.68</ele>
        <time>2020-05-20T16:45:58Z</time>
      </trkpt>
      <trkpt lat="46.99108" lon="-1.81819">
        <ele>6.6</ele>
        <time>2020-05-20T16:46:00Z</time>
      </trkpt>
      <trkpt lat="46.99116" lon="-1.81806">
        <ele>6.63</ele>
        <time>2020-05-20T16:46:02Z</time>
      </trkpt>
      <trkpt lat="46.99127" lon="-1.81794">
        <ele>6.9</ele>
        <time>2020-05-20T16:46:04Z</time>
      </trkpt>
      <trkpt lat="46.99134" lon="-1.81784">
        <ele>5.99</ele>
        <time>2020-05-20T16:46:06Z</time>
      </trkpt>
      <trkpt lat="46.99143" lon="-1.81774">
        <ele>4.61</ele>
        <time>2020-05-20T16:46:08Z</time>
      </trkpt>
      <trkpt lat="46.99153" lon="-1.81762">
        <ele>4.31</ele>
        <time>2020-05-20T16:46:10Z</time>
      </trkpt>
      <trkpt lat="46.99162" lon="-1.8175">
        <ele>3.99</ele>
        <time>2020-05-20T16:46:12Z</time>
      </trkpt>
      <trkpt lat="46.99171" lon="-1.8174">
        <ele>2.37</ele>
        <time>2020-05-20T16:46:14Z</time>
      </trkpt>
      <trkpt lat="46.9918" lon="-1.81729">
        <ele>1.34</ele>
        <time>2020-05-20T16:46:16Z</time>
      </trkpt>
      <trkpt lat="46.99188" lon="-1.81716">
        <ele>0.31</ele>
        <time>2020-05-20T16:46:18Z</time>
      </trkpt>
      <trkpt lat="46.99182" lon="-1.81703">
        <ele>0.35</ele>
        <time>2020-05-20T16:46:20Z</time>
      </trkpt>
      <trkpt lat="46.99174" lon="-1.81692">
        <ele>1.28</ele>
        <time>2020-05-20T16:46:22Z</time>
      </trkpt>
      <trkpt lat="46.99164" lon="-1.8168">
        <ele>1.9</ele>
        <time>2020-05-20T16:46:24Z</time>
      </trkpt>
      <trkpt lat="46.99152" lon="-1.81669">
        <ele>2.04</ele>
        <time>2020-05-20T16:46:26Z</time>
      </trkpt>
      <trkpt lat="46.99143" lon="-1.81659">
        <ele>2.04</ele>
        <time>2020-05-20T16:46:28Z</time>
      </trkpt>
      <trkpt lat="46.99133" lon="-1.81649">
        <ele>1.78</ele>
        <time>2020-05-20T16:46:30Z</time>
      </trkpt>
      <trkpt lat="46.99123" lon="-1.81638">
        <ele>1.6</ele>
        <time>2020-05-20T16:46:32Z</time>
      </trkpt>
      <trkpt lat="46.99113" lon="-1.81625">
        <ele>1.67</ele>
        <time>2020-05-20T16:46:34Z</time>
      </trkpt>
      <trkpt lat="46.99104" lon="-1.81613">
        <ele>1.52</ele>
        <time>2020-05-20T16:46:36Z</time>
      </trkpt>
      <trkpt lat="46.99101" lon="-1.81597">
        <ele>2.28</ele>
        <time>2020-05-20T16:46:38Z</time>
      </trkpt>
      <trkpt lat="46.99113" lon="-1.81588">
        <ele>2.65</ele>
        <time>2020-05-20T16:46:40Z</time>
      </trkpt>
      <trkpt lat="46.99129" lon="-1.81588">
        <ele>2.6</ele>
        <time>2020-05-20T16:46:42Z</time>
      </trkpt>
      <trkpt lat="46.99144" lon="-1.8159">
        <ele>2.22</ele>
        <time>2020-05-20T16:46:44Z</time>
      </trkpt>
      <trkpt lat="46.99156" lon="-1.81592">
        <ele>1.77</ele>
        <time>2020-05-20T16:46:46Z</time>
      </trkpt>
      <trkpt lat="46.99168" lon="-1.81594">
        <ele>1.78</ele>
        <time>2020-05-20T16:46:48Z</time>
      </trkpt>
      <trkpt lat="46.99177" lon="-1.81596">
        <ele>2.43</ele>
        <time>2020-05-20T16:46:50Z</time>
      </trkpt>
      <trkpt lat="46.9919" lon="-1.81597">
        <ele>3.3</ele>
        <time>2020-05-20T16:46:52Z</time>
      </trkpt>
      <trkpt lat="46.99204" lon="-1.81598">
        <ele>3.9</ele>
        <time>2020-05-20T16:46:54Z</time>
      </trkpt>
      <trkpt lat="46.99216" lon="-1.816">
        <ele>3.75</ele>
        <time>2020-05-20T16:46:56Z</time>
      </trkpt>
      <trkpt lat="46.99227" lon="-1.81602">
        <ele>4.25</ele>
        <time>2020-05-20T16:46:58Z</time>
      </trkpt>
      <trkpt lat="46.99238" lon="-1.81602">
        <ele>5.38</ele>
        <time>2020-05-20T16:47:00Z</time>
      </trkpt>
      <trkpt lat="46.99247" lon="-1.81589">
        <ele>3.68</ele>
        <time>2020-05-20T16:47:02Z</time>
      </trkpt>
      <trkpt lat="46.99245" lon="-1.81573">
        <ele>2.85</ele>
        <time>2020-05-20T16:47:04Z</time>
      </trkpt>
      <trkpt lat="46.99244" lon="-1.81559">
        <ele>2.83</ele>
        <time>2020-05-20T16:47:06Z</time>
      </trkpt>
      <trkpt lat="46.99243" lon="-1.81543">
        <ele>3.71</ele>
        <time>2020-05-20T16:47:08Z</time>
      </trkpt>
      <trkpt lat="46.99242" lon="-1.81524">
        <ele>5.82</ele>
        <time>2020-05-20T16:47:10Z</time>
      </trkpt>
      <trkpt lat="46.99238" lon="-1.81507">
        <ele>6.99</ele>
        <time>2020-05-20T16:47:12Z</time>
      </trkpt>
      <trkpt lat="46.99238" lon="-1.81487">
        <ele>8.77</ele>
        <time>2020-05-20T16:47:14Z</time>
      </trkpt>
      <trkpt lat="46.99237" lon="-1.81468">
        <ele>10.36</ele>
        <time>2020-05-20T16:47:16Z</time>
      </trkpt>
      <trkpt lat="46.99236" lon="-1.81449">
        <ele>10.35</ele>
        <time>2020-05-20T16:47:18Z</time>
      </trkpt>
      <trkpt lat="46.99235" lon="-1.8143">
        <ele>10.75</ele>
        <time>2020-05-20T16:47:20Z</time>
      </trkpt>
      <trkpt lat="46.99234" lon="-1.81412">
        <ele>11.6</ele>
        <time>2020-05-20T16:47:22Z</time>
      </trkpt>
      <trkpt lat="46.99233" lon="-1.81391">
        <ele>11.57</ele>
        <time>2020-05-20T16:47:24Z</time>
      </trkpt>
      <trkpt lat="46.99231" lon="-1.81372">
        <ele>11.13</ele>
        <time>2020-05-20T16:47:26Z</time>
      </trkpt>
      <trkpt lat="46.9923" lon="-1.81355">
        <ele>9.94</ele>
        <time>2020-05-20T16:47:28Z</time>
      </trkpt>
      <trkpt lat="46.99227" lon="-1.81339">
        <ele>8.75</ele>
        <time>2020-05-20T16:47:30Z</time>
      </trkpt>
      <trkpt lat="46.99224" lon="-1.81321">
        <ele>7.54</ele>
        <time>2020-05-20T16:47:32Z</time>
      </trkpt>
      <trkpt lat="46.99222" lon="-1.81301">
        <ele>5.71</ele>
        <time>2020-05-20T16:47:34Z</time>
      </trkpt>
      <trkpt lat="46.99221" lon="-1.81288">
        <ele>4.54</ele>
        <time>2020-05-20T16:47:35Z</time>
      </trkpt>
      <trkpt lat="46.99218" lon="-1.81267">
        <ele>2.27</ele>
        <time>2020-05-20T16:47:37Z</time>
      </trkpt>
      <trkpt lat="46.99216" lon="-1.81247">
        <ele>1.49</ele>
        <time>2020-05-20T16:47:39Z</time>
      </trkpt>
      <trkpt lat="46.99212" lon="-1.81225">
        <ele>0.61</ele>
        <time>2020-05-20T16:47:41Z</time>
      </trkpt>
      <trkpt lat="46.99209" lon="-1.81209">
        <ele>0.28</ele>
        <time>2020-05-20T16:47:43Z</time>
      </trkpt>
      <trkpt lat="46.99207" lon="-1.81193">
        <ele>0.35</ele>
        <time>2020-05-20T16:47:45Z</time>
      </trkpt>
      <trkpt lat="46.99203" lon="-1.81168">
        <ele>-0.24</ele>
        <time>2020-05-20T16:47:47Z</time>
      </trkpt>
      <trkpt lat="46.99201" lon="-1.81155">
        <ele>-0.5</ele>
        <time>2020-05-20T16:47:48Z</time>
      </trkpt>
      <trkpt lat="46.99197" lon="-1.81132">
        <ele>-1.17</ele>
        <time>2020-05-20T16:47:50Z</time>
      </trkpt>
      <trkpt lat="46.99193" lon="-1.81112">
        <ele>-1.73</ele>
        <time>2020-05-20T16:47:52Z</time>
      </trkpt>
      <trkpt lat="46.9919" lon="-1.81093">
        <ele>-2.17</ele>
        <time>2020-05-20T16:47:54Z</time>
      </trkpt>
      <trkpt lat="46.99186" lon="-1.81073">
        <ele>-2.79</ele>
        <time>2020-05-20T16:47:56Z</time>
      </trkpt>
      <trkpt lat="46.99183" lon="-1.81052">
        <ele>-2</ele>
        <time>2020-05-20T16:47:58Z</time>
      </trkpt>
      <trkpt lat="46.9918" lon="-1.81034">
        <ele>-0.01</ele>
        <time>2020-05-20T16:48:00Z</time>
      </trkpt>
      <trkpt lat="46.99178" lon="-1.81018">
        <ele>1.56</ele>
        <time>2020-05-20T16:48:02Z</time>
      </trkpt>
      <trkpt lat="46.99175" lon="-1.80999">
        <ele>2.42</ele>
        <time>2020-05-20T16:48:04Z</time>
      </trkpt>
      <trkpt lat="46.99172" lon="-1.8098">
        <ele>3.55</ele>
        <time>2020-05-20T16:48:06Z</time>
      </trkpt>
      <trkpt lat="46.99169" lon="-1.80959">
        <ele>4.01</ele>
        <time>2020-05-20T16:48:08Z</time>
      </trkpt>
      <trkpt lat="46.99167" lon="-1.80941">
        <ele>3.76</ele>
        <time>2020-05-20T16:48:10Z</time>
      </trkpt>
      <trkpt lat="46.99165" lon="-1.80923">
        <ele>3.97</ele>
        <time>2020-05-20T16:48:12Z</time>
      </trkpt>
      <trkpt lat="46.99163" lon="-1.80908">
        <ele>3.96</ele>
        <time>2020-05-20T16:48:14Z</time>
      </trkpt>
      <trkpt lat="46.99162" lon="-1.80894">
        <ele>3.54</ele>
        <time>2020-05-20T16:48:16Z</time>
      </trkpt>
      <trkpt lat="46.99169" lon="-1.80884">
        <ele>2.85</ele>
        <time>2020-05-20T16:48:18Z</time>
      </trkpt>
      <trkpt lat="46.9918" lon="-1.8088">
        <ele>2.5</ele>
        <time>2020-05-20T16:48:20Z</time>
      </trkpt>
      <trkpt lat="46.99193" lon="-1.80872">
        <ele>2.7</ele>
        <time>2020-05-20T16:48:22Z</time>
      </trkpt>
      <trkpt lat="46.99205" lon="-1.80865">
        <ele>1.94</ele>
        <time>2020-05-20T16:48:24Z</time>
      </trkpt>
      <trkpt lat="46.99219" lon="-1.80856">
        <ele>1.43</ele>
        <time>2020-05-20T16:48:26Z</time>
      </trkpt>
      <trkpt lat="46.99232" lon="-1.80849">
        <ele>0.87</ele>
        <time>2020-05-20T16:48:28Z</time>
      </trkpt>
      <trkpt lat="46.99245" lon="-1.80841">
        <ele>0.46</ele>
        <time>2020-05-20T16:48:30Z</time>
      </trkpt>
      <trkpt lat="46.99258" lon="-1.80833">
        <ele>-0.91</ele>
        <time>2020-05-20T16:48:32Z</time>
      </trkpt>
      <trkpt lat="46.99271" lon="-1.80825">
        <ele>-2.18</ele>
        <time>2020-05-20T16:48:34Z</time>
      </trkpt>
      <trkpt lat="46.99283" lon="-1.80818">
        <ele>-2.2</ele>
        <time>2020-05-20T16:48:36Z</time>
      </trkpt>
      <trkpt lat="46.99298" lon="-1.8081">
        <ele>-1.33</ele>
        <time>2020-05-20T16:48:38Z</time>
      </trkpt>
      <trkpt lat="46.99311" lon="-1.80801">
        <ele>-0.3</ele>
        <time>2020-05-20T16:48:40Z</time>
      </trkpt>
      <trkpt lat="46.99324" lon="-1.80794">
        <ele>0.98</ele>
        <time>2020-05-20T16:48:42Z</time>
      </trkpt>
      <trkpt lat="46.99337" lon="-1.80785">
        <ele>1.07</ele>
        <time>2020-05-20T16:48:44Z</time>
      </trkpt>
      <trkpt lat="46.99351" lon="-1.80776">
        <ele>-0.25</ele>
        <time>2020-05-20T16:48:46Z</time>
      </trkpt>
      <trkpt lat="46.99364" lon="-1.80768">
        <ele>-1.13</ele>
        <time>2020-05-20T16:48:48Z</time>
      </trkpt>
      <trkpt lat="46.99375" lon="-1.80761">
        <ele>-1.52</ele>
        <time>2020-05-20T16:48:50Z</time>
      </trkpt>
      <trkpt lat="46.99387" lon="-1.80753">
        <ele>-1.57</ele>
        <time>2020-05-20T16:48:52Z</time>
      </trkpt>
      <trkpt lat="46.99399" lon="-1.80746">
        <ele>-2.02</ele>
        <time>2020-05-20T16:48:54Z</time>
      </trkpt>
      <trkpt lat="46.99411" lon="-1.80738">
        <ele>-2.14</ele>
        <time>2020-05-20T16:48:56Z</time>
      </trkpt>
      <trkpt lat="46.99424" lon="-1.80731">
        <ele>-1.74</ele>
        <time>2020-05-20T16:48:58Z</time>
      </trkpt>
      <trkpt lat="46.99436" lon="-1.80722">
        <ele>-1.19</ele>
        <time>2020-05-20T16:49:00Z</time>
      </trkpt>
      <trkpt lat="46.99448" lon="-1.80714">
        <ele>-0.91</ele>
        <time>2020-05-20T16:49:02Z</time>
      </trkpt>
      <trkpt lat="46.9946" lon="-1.80706">
        <ele>-0.06</ele>
        <time>2020-05-20T16:49:04Z</time>
      </trkpt>
      <trkpt lat="46.99468" lon="-1.80699">
        <ele>0.02</ele>
        <time>2020-05-20T16:49:06Z</time>
      </trkpt>
      <trkpt lat="46.99476" lon="-1.80684">
        <ele>0.35</ele>
        <time>2020-05-20T16:49:09Z</time>
      </trkpt>
      <trkpt lat="46.99483" lon="-1.80666">
        <ele>1.2</ele>
        <time>2020-05-20T16:49:11Z</time>
      </trkpt>
      <trkpt lat="46.99492" lon="-1.80655">
        <ele>2.52</ele>
        <time>2020-05-20T16:49:13Z</time>
      </trkpt>
      <trkpt lat="46.99505" lon="-1.80652">
        <ele>3.4</ele>
        <time>2020-05-20T16:49:15Z</time>
      </trkpt>
      <trkpt lat="46.99518" lon="-1.80643">
        <ele>3.78</ele>
        <time>2020-05-20T16:49:17Z</time>
      </trkpt>
      <trkpt lat="46.99531" lon="-1.80633">
        <ele>3.14</ele>
        <time>2020-05-20T16:49:19Z</time>
      </trkpt>
      <trkpt lat="46.99543" lon="-1.8062">
        <ele>2.22</ele>
        <time>2020-05-20T16:49:21Z</time>
      </trkpt>
      <trkpt lat="46.99555" lon="-1.80606">
        <ele>1.33</ele>
        <time>2020-05-20T16:49:23Z</time>
      </trkpt>
      <trkpt lat="46.99565" lon="-1.80594">
        <ele>0.74</ele>
        <time>2020-05-20T16:49:25Z</time>
      </trkpt>
      <trkpt lat="46.99576" lon="-1.8058">
        <ele>0.83</ele>
        <time>2020-05-20T16:49:27Z</time>
      </trkpt>
      <trkpt lat="46.99586" lon="-1.80565">
        <ele>0.4</ele>
        <time>2020-05-20T16:49:29Z</time>
      </trkpt>
      <trkpt lat="46.99597" lon="-1.80551">
        <ele>0.46</ele>
        <time>2020-05-20T16:49:31Z</time>
      </trkpt>
      <trkpt lat="46.99607" lon="-1.80537">
        <ele>0.9</ele>
        <time>2020-05-20T16:49:33Z</time>
      </trkpt>
      <trkpt lat="46.99619" lon="-1.80523">
        <ele>0.36</ele>
        <time>2020-05-20T16:49:35Z</time>
      </trkpt>
      <trkpt lat="46.99629" lon="-1.80509">
        <ele>0.21</ele>
        <time>2020-05-20T16:49:37Z</time>
      </trkpt>
      <trkpt lat="46.99639" lon="-1.80497">
        <ele>0.87</ele>
        <time>2020-05-20T16:49:39Z</time>
      </trkpt>
      <trkpt lat="46.9965" lon="-1.80483">
        <ele>1.76</ele>
        <time>2020-05-20T16:49:41Z</time>
      </trkpt>
      <trkpt lat="46.99661" lon="-1.80468">
        <ele>1.7</ele>
        <time>2020-05-20T16:49:43Z</time>
      </trkpt>
      <trkpt lat="46.99673" lon="-1.80453">
        <ele>1.1</ele>
        <time>2020-05-20T16:49:45Z</time>
      </trkpt>
      <trkpt lat="46.99684" lon="-1.8044">
        <ele>1.97</ele>
        <time>2020-05-20T16:49:47Z</time>
      </trkpt>
      <trkpt lat="46.99694" lon="-1.80426">
        <ele>2.83</ele>
        <time>2020-05-20T16:49:49Z</time>
      </trkpt>
      <trkpt lat="46.99703" lon="-1.80412">
        <ele>3.34</ele>
        <time>2020-05-20T16:49:51Z</time>
      </trkpt>
      <trkpt lat="46.99713" lon="-1.80398">
        <ele>3.47</ele>
        <time>2020-05-20T16:49:53Z</time>
      </trkpt>
      <trkpt lat="46.99726" lon="-1.80383">
        <ele>4.05</ele>
        <time>2020-05-20T16:49:55Z</time>
      </trkpt>
      <trkpt lat="46.99736" lon="-1.80369">
        <ele>3.78</ele>
        <time>2020-05-20T16:49:57Z</time>
      </trkpt>
      <trkpt lat="46.99746" lon="-1.80356">
        <ele>3.49</ele>
        <time>2020-05-20T16:49:59Z</time>
      </trkpt>
      <trkpt lat="46.99758" lon="-1.80342">
        <ele>2.73</ele>
        <time>2020-05-20T16:50:01Z</time>
      </trkpt>
      <trkpt lat="46.99769" lon="-1.80329">
        <ele>2.19</ele>
        <time>2020-05-20T16:50:03Z</time>
      </trkpt>
      <trkpt lat="46.9978" lon="-1.80315">
        <ele>1.32</ele>
        <time>2020-05-20T16:50:05Z</time>
      </trkpt>
      <trkpt lat="46.99791" lon="-1.80303">
        <ele>0.11</ele>
        <time>2020-05-20T16:50:07Z</time>
      </trkpt>
      <trkpt lat="46.99802" lon="-1.80289">
        <ele>-0.19</ele>
        <time>2020-05-20T16:50:09Z</time>
      </trkpt>
      <trkpt lat="46.99811" lon="-1.80276">
        <ele>0.25</ele>
        <time>2020-05-20T16:50:11Z</time>
      </trkpt>
      <trkpt lat="46.99821" lon="-1.80262">
        <ele>0.71</ele>
        <time>2020-05-20T16:50:13Z</time>
      </trkpt>
      <trkpt lat="46.99831" lon="-1.80249">
        <ele>0.34</ele>
        <time>2020-05-20T16:50:15Z</time>
      </trkpt>
      <trkpt lat="46.9984" lon="-1.80236">
        <ele>-0.31</ele>
        <time>2020-05-20T16:50:17Z</time>
      </trkpt>
      <trkpt lat="46.99849" lon="-1.80222">
        <ele>-0.26</ele>
        <time>2020-05-20T16:50:19Z</time>
      </trkpt>
      <trkpt lat="46.99858" lon="-1.80207">
        <ele>0.39</ele>
        <time>2020-05-20T16:50:21Z</time>
      </trkpt>
      <trkpt lat="46.99868" lon="-1.80189">
        <ele>0.21</ele>
        <time>2020-05-20T16:50:23Z</time>
      </trkpt>
      <trkpt lat="46.99876" lon="-1.80174">
        <ele>0.36</ele>
        <time>2020-05-20T16:50:25Z</time>
      </trkpt>
      <trkpt lat="46.99883" lon="-1.80157">
        <ele>1.3</ele>
        <time>2020-05-20T16:50:27Z</time>
      </trkpt>
      <trkpt lat="46.9989" lon="-1.8014">
        <ele>2.11</ele>
        <time>2020-05-20T16:50:29Z</time>
      </trkpt>
      <trkpt lat="46.99896" lon="-1.80126">
        <ele>3.48</ele>
        <time>2020-05-20T16:50:31Z</time>
      </trkpt>
      <trkpt lat="46.99904" lon="-1.80108">
        <ele>3.98</ele>
        <time>2020-05-20T16:50:33Z</time>
      </trkpt>
      <trkpt lat="46.99911" lon="-1.80094">
        <ele>4.21</ele>
        <time>2020-05-20T16:50:35Z</time>
      </trkpt>
      <trkpt lat="46.99918" lon="-1.80078">
        <ele>4.57</ele>
        <time>2020-05-20T16:50:37Z</time>
      </trkpt>
      <trkpt lat="46.99925" lon="-1.80061">
        <ele>4.15</ele>
        <time>2020-05-20T16:50:39Z</time>
      </trkpt>
      <trkpt lat="46.99932" lon="-1.80045">
        <ele>3.82</ele>
        <time>2020-05-20T16:50:41Z</time>
      </trkpt>
      <trkpt lat="46.99939" lon="-1.80031">
        <ele>2.94</ele>
        <time>2020-05-20T16:50:43Z</time>
      </trkpt>
      <trkpt lat="46.99947" lon="-1.80017">
        <ele>2.07</ele>
        <time>2020-05-20T16:50:45Z</time>
      </trkpt>
      <trkpt lat="46.99956" lon="-1.80003">
        <ele>1.86</ele>
        <time>2020-05-20T16:50:47Z</time>
      </trkpt>
      <trkpt lat="46.99966" lon="-1.79991">
        <ele>1.86</ele>
        <time>2020-05-20T16:50:49Z</time>
      </trkpt>
      <trkpt lat="46.99976" lon="-1.79982">
        <ele>1.58</ele>
        <time>2020-05-20T16:50:51Z</time>
      </trkpt>
      <trkpt lat="46.99987" lon="-1.79973">
        <ele>1.02</ele>
        <time>2020-05-20T16:50:53Z</time>
      </trkpt>
      <trkpt lat="46.99998" lon="-1.79965">
        <ele>0.88</ele>
        <time>2020-05-20T16:50:55Z</time>
      </trkpt>
      <trkpt lat="47.00011" lon="-1.79957">
        <ele>0.9</ele>
        <time>2020-05-20T16:50:57Z</time>
      </trkpt>
      <trkpt lat="47.00024" lon="-1.79948">
        <ele>1.17</ele>
        <time>2020-05-20T16:50:59Z</time>
      </trkpt>
      <trkpt lat="47.00037" lon="-1.79939">
        <ele>1.17</ele>
        <time>2020-05-20T16:51:01Z</time>
      </trkpt>
      <trkpt lat="47.00048" lon="-1.79932">
        <ele>1.19</ele>
        <time>2020-05-20T16:51:03Z</time>
      </trkpt>
      <trkpt lat="47.00059" lon="-1.79923">
        <ele>1.66</ele>
        <time>2020-05-20T16:51:05Z</time>
      </trkpt>
      <trkpt lat="47.00071" lon="-1.79915">
        <ele>1.66</ele>
        <time>2020-05-20T16:51:07Z</time>
      </trkpt>
      <trkpt lat="47.00082" lon="-1.79906">
        <ele>1.62</ele>
        <time>2020-05-20T16:51:09Z</time>
      </trkpt>
      <trkpt lat="47.00096" lon="-1.79896">
        <ele>0.88</ele>
        <time>2020-05-20T16:51:11Z</time>
      </trkpt>
      <trkpt lat="47.00106" lon="-1.79886">
        <ele>0.67</ele>
        <time>2020-05-20T16:51:13Z</time>
      </trkpt>
      <trkpt lat="47.00116" lon="-1.79875">
        <ele>1.03</ele>
        <time>2020-05-20T16:51:15Z</time>
      </trkpt>
      <trkpt lat="47.00125" lon="-1.79862">
        <ele>1.86</ele>
        <time>2020-05-20T16:51:17Z</time>
      </trkpt>
      <trkpt lat="47.00134" lon="-1.79846">
        <ele>3.35</ele>
        <time>2020-05-20T16:51:19Z</time>
      </trkpt>
      <trkpt lat="47.00142" lon="-1.79829">
        <ele>3.99</ele>
        <time>2020-05-20T16:51:21Z</time>
      </trkpt>
      <trkpt lat="47.00148" lon="-1.79813">
        <ele>4.36</ele>
        <time>2020-05-20T16:51:23Z</time>
      </trkpt>
      <trkpt lat="47.00154" lon="-1.79794">
        <ele>4.49</ele>
        <time>2020-05-20T16:51:25Z</time>
      </trkpt>
      <trkpt lat="47.00158" lon="-1.79777">
        <ele>4.15</ele>
        <time>2020-05-20T16:51:27Z</time>
      </trkpt>
      <trkpt lat="47.00163" lon="-1.79758">
        <ele>3.68</ele>
        <time>2020-05-20T16:51:29Z</time>
      </trkpt>
      <trkpt lat="47.00168" lon="-1.7974">
        <ele>3.54</ele>
        <time>2020-05-20T16:51:31Z</time>
      </trkpt>
      <trkpt lat="47.00172" lon="-1.79725">
        <ele>3.56</ele>
        <time>2020-05-20T16:51:33Z</time>
      </trkpt>
      <trkpt lat="47.00177" lon="-1.79708">
        <ele>3.09</ele>
        <time>2020-05-20T16:51:35Z</time>
      </trkpt>
      <trkpt lat="47.00182" lon="-1.79693">
        <ele>2.72</ele>
        <time>2020-05-20T16:51:37Z</time>
      </trkpt>
      <trkpt lat="47.00188" lon="-1.79673">
        <ele>1.92</ele>
        <time>2020-05-20T16:51:39Z</time>
      </trkpt>
      <trkpt lat="47.00193" lon="-1.79656">
        <ele>1.57</ele>
        <time>2020-05-20T16:51:41Z</time>
      </trkpt>
      <trkpt lat="47.00198" lon="-1.79639">
        <ele>1.09</ele>
        <time>2020-05-20T16:51:43Z</time>
      </trkpt>
      <trkpt lat="47.00202" lon="-1.79623">
        <ele>1.61</ele>
        <time>2020-05-20T16:51:45Z</time>
      </trkpt>
      <trkpt lat="47.00207" lon="-1.79606">
        <ele>2.29</ele>
        <time>2020-05-20T16:51:47Z</time>
      </trkpt>
      <trkpt lat="47.00212" lon="-1.79589">
        <ele>3.14</ele>
        <time>2020-05-20T16:51:49Z</time>
      </trkpt>
      <trkpt lat="47.00216" lon="-1.79574">
        <ele>4.57</ele>
        <time>2020-05-20T16:51:51Z</time>
      </trkpt>
      <trkpt lat="47.00221" lon="-1.79556">
        <ele>5.19</ele>
        <time>2020-05-20T16:51:53Z</time>
      </trkpt>
      <trkpt lat="47.00226" lon="-1.7954">
        <ele>4.84</ele>
        <time>2020-05-20T16:51:55Z</time>
      </trkpt>
      <trkpt lat="47.00232" lon="-1.79523">
        <ele>3.63</ele>
        <time>2020-05-20T16:51:57Z</time>
      </trkpt>
      <trkpt lat="47.00238" lon="-1.79506">
        <ele>2.47</ele>
        <time>2020-05-20T16:51:59Z</time>
      </trkpt>
      <trkpt lat="47.00243" lon="-1.7949">
        <ele>1.58</ele>
        <time>2020-05-20T16:52:01Z</time>
      </trkpt>
      <trkpt lat="47.00248" lon="-1.79474">
        <ele>1.21</ele>
        <time>2020-05-20T16:52:03Z</time>
      </trkpt>
      <trkpt lat="47.00252" lon="-1.79457">
        <ele>1.97</ele>
        <time>2020-05-20T16:52:05Z</time>
      </trkpt>
      <trkpt lat="47.00257" lon="-1.79443">
        <ele>2.53</ele>
        <time>2020-05-20T16:52:07Z</time>
      </trkpt>
      <trkpt lat="47.00262" lon="-1.79427">
        <ele>2.41</ele>
        <time>2020-05-20T16:52:09Z</time>
      </trkpt>
      <trkpt lat="47.00267" lon="-1.79408">
        <ele>1.25</ele>
        <time>2020-05-20T16:52:11Z</time>
      </trkpt>
      <trkpt lat="47.00272" lon="-1.79393">
        <ele>0.09</ele>
        <time>2020-05-20T16:52:13Z</time>
      </trkpt>
      <trkpt lat="47.00277" lon="-1.79378">
        <ele>0.25</ele>
        <time>2020-05-20T16:52:15Z</time>
      </trkpt>
      <trkpt lat="47.00282" lon="-1.7936">
        <ele>0.87</ele>
        <time>2020-05-20T16:52:17Z</time>
      </trkpt>
      <trkpt lat="47.00287" lon="-1.7934">
        <ele>1.51</ele>
        <time>2020-05-20T16:52:19Z</time>
      </trkpt>
      <trkpt lat="47.0029" lon="-1.79323">
        <ele>1.32</ele>
        <time>2020-05-20T16:52:21Z</time>
      </trkpt>
      <trkpt lat="47.00293" lon="-1.79305">
        <ele>1.03</ele>
        <time>2020-05-20T16:52:23Z</time>
      </trkpt>
      <trkpt lat="47.00295" lon="-1.79285">
        <ele>0.87</ele>
        <time>2020-05-20T16:52:25Z</time>
      </trkpt>
      <trkpt lat="47.00297" lon="-1.79265">
        <ele>0.84</ele>
        <time>2020-05-20T16:52:27Z</time>
      </trkpt>
      <trkpt lat="47.00299" lon="-1.79248">
        <ele>1.51</ele>
        <time>2020-05-20T16:52:29Z</time>
      </trkpt>
      <trkpt lat="47.00302" lon="-1.79231">
        <ele>1.73</ele>
        <time>2020-05-20T16:52:31Z</time>
      </trkpt>
      <trkpt lat="47.00305" lon="-1.79214">
        <ele>2.23</ele>
        <time>2020-05-20T16:52:33Z</time>
      </trkpt>
      <trkpt lat="47.00307" lon="-1.79197">
        <ele>2.57</ele>
        <time>2020-05-20T16:52:35Z</time>
      </trkpt>
      <trkpt lat="47.0031" lon="-1.79178">
        <ele>3.43</ele>
        <time>2020-05-20T16:52:37Z</time>
      </trkpt>
      <trkpt lat="47.00314" lon="-1.79158">
        <ele>3.76</ele>
        <time>2020-05-20T16:52:39Z</time>
      </trkpt>
      <trkpt lat="47.00318" lon="-1.79141">
        <ele>3.68</ele>
        <time>2020-05-20T16:52:41Z</time>
      </trkpt>
      <trkpt lat="47.00321" lon="-1.79124">
        <ele>4.26</ele>
        <time>2020-05-20T16:52:43Z</time>
      </trkpt>
      <trkpt lat="47.00325" lon="-1.79107">
        <ele>5.25</ele>
        <time>2020-05-20T16:52:45Z</time>
      </trkpt>
      <trkpt lat="47.0033" lon="-1.79087">
        <ele>5.16</ele>
        <time>2020-05-20T16:52:47Z</time>
      </trkpt>
      <trkpt lat="47.00335" lon="-1.79071">
        <ele>5.13</ele>
        <time>2020-05-20T16:52:49Z</time>
      </trkpt>
      <trkpt lat="47.0034" lon="-1.79053">
        <ele>4.95</ele>
        <time>2020-05-20T16:52:51Z</time>
      </trkpt>
      <trkpt lat="47.00346" lon="-1.79034">
        <ele>5.2</ele>
        <time>2020-05-20T16:52:53Z</time>
      </trkpt>
      <trkpt lat="47.0035" lon="-1.79017">
        <ele>5.23</ele>
        <time>2020-05-20T16:52:55Z</time>
      </trkpt>
      <trkpt lat="47.00355" lon="-1.78999">
        <ele>4.99</ele>
        <time>2020-05-20T16:52:57Z</time>
      </trkpt>
      <trkpt lat="47.0036" lon="-1.78979">
        <ele>4.89</ele>
        <time>2020-05-20T16:52:59Z</time>
      </trkpt>
      <trkpt lat="47.00364" lon="-1.78961">
        <ele>4.05</ele>
        <time>2020-05-20T16:53:01Z</time>
      </trkpt>
      <trkpt lat="47.00368" lon="-1.78943">
        <ele>3.74</ele>
        <time>2020-05-20T16:53:03Z</time>
      </trkpt>
      <trkpt lat="47.00372" lon="-1.78926">
        <ele>4.32</ele>
        <time>2020-05-20T16:53:05Z</time>
      </trkpt>
      <trkpt lat="47.00375" lon="-1.78909">
        <ele>4.21</ele>
        <time>2020-05-20T16:53:07Z</time>
      </trkpt>
      <trkpt lat="47.00379" lon="-1.78889">
        <ele>3.66</ele>
        <time>2020-05-20T16:53:09Z</time>
      </trkpt>
      <trkpt lat="47.00383" lon="-1.78873">
        <ele>3.48</ele>
        <time>2020-05-20T16:53:11Z</time>
      </trkpt>
      <trkpt lat="47.00387" lon="-1.78853">
        <ele>3.09</ele>
        <time>2020-05-20T16:53:13Z</time>
      </trkpt>
      <trkpt lat="47.00391" lon="-1.78832">
        <ele>3.86</ele>
        <time>2020-05-20T16:53:15Z</time>
      </trkpt>
      <trkpt lat="47.00395" lon="-1.78813">
        <ele>4.24</ele>
        <time>2020-05-20T16:53:17Z</time>
      </trkpt>
      <trkpt lat="47.00398" lon="-1.78794">
        <ele>4.25</ele>
        <time>2020-05-20T16:53:19Z</time>
      </trkpt>
      <trkpt lat="47.00401" lon="-1.78777">
        <ele>3.84</ele>
        <time>2020-05-20T16:53:21Z</time>
      </trkpt>
      <trkpt lat="47.00404" lon="-1.78758">
        <ele>3.58</ele>
        <time>2020-05-20T16:53:24Z</time>
      </trkpt>
      <trkpt lat="47.00406" lon="-1.78739">
        <ele>3.05</ele>
        <time>2020-05-20T16:53:25Z</time>
      </trkpt>
      <trkpt lat="47.00409" lon="-1.78718">
        <ele>3.5</ele>
        <time>2020-05-20T16:53:27Z</time>
      </trkpt>
      <trkpt lat="47.00412" lon="-1.78698">
        <ele>4.25</ele>
        <time>2020-05-20T16:53:29Z</time>
      </trkpt>
      <trkpt lat="47.00414" lon="-1.78679">
        <ele>5.47</ele>
        <time>2020-05-20T16:53:31Z</time>
      </trkpt>
      <trkpt lat="47.00417" lon="-1.78661">
        <ele>6.03</ele>
        <time>2020-05-20T16:53:33Z</time>
      </trkpt>
      <trkpt lat="47.0042" lon="-1.7864">
        <ele>6.83</ele>
        <time>2020-05-20T16:53:35Z</time>
      </trkpt>
      <trkpt lat="47.00422" lon="-1.7862">
        <ele>6.99</ele>
        <time>2020-05-20T16:53:37Z</time>
      </trkpt>
      <trkpt lat="47.00425" lon="-1.78602">
        <ele>6.64</ele>
        <time>2020-05-20T16:53:39Z</time>
      </trkpt>
      <trkpt lat="47.00427" lon="-1.78583">
        <ele>6.34</ele>
        <time>2020-05-20T16:53:41Z</time>
      </trkpt>
      <trkpt lat="47.00429" lon="-1.78564">
        <ele>6.14</ele>
        <time>2020-05-20T16:53:43Z</time>
      </trkpt>
      <trkpt lat="47.00432" lon="-1.78544">
        <ele>6.37</ele>
        <time>2020-05-20T16:53:45Z</time>
      </trkpt>
      <trkpt lat="47.00434" lon="-1.78526">
        <ele>6.38</ele>
        <time>2020-05-20T16:53:47Z</time>
      </trkpt>
      <trkpt lat="47.00437" lon="-1.78507">
        <ele>6.18</ele>
        <time>2020-05-20T16:53:49Z</time>
      </trkpt>
      <trkpt lat="47.00441" lon="-1.78486">
        <ele>5.78</ele>
        <time>2020-05-20T16:53:51Z</time>
      </trkpt>
      <trkpt lat="47.00444" lon="-1.78469">
        <ele>6.11</ele>
        <time>2020-05-20T16:53:53Z</time>
      </trkpt>
      <trkpt lat="47.00448" lon="-1.78449">
        <ele>5.55</ele>
        <time>2020-05-20T16:53:55Z</time>
      </trkpt>
      <trkpt lat="47.00452" lon="-1.78427">
        <ele>4.66</ele>
        <time>2020-05-20T16:53:57Z</time>
      </trkpt>
      <trkpt lat="47.00457" lon="-1.78408">
        <ele>4.41</ele>
        <time>2020-05-20T16:53:59Z</time>
      </trkpt>
      <trkpt lat="47.0046" lon="-1.7839">
        <ele>4.62</ele>
        <time>2020-05-20T16:54:01Z</time>
      </trkpt>
      <trkpt lat="47.00464" lon="-1.78372">
        <ele>4.75</ele>
        <time>2020-05-20T16:54:03Z</time>
      </trkpt>
      <trkpt lat="47.00469" lon="-1.78354">
        <ele>4.62</ele>
        <time>2020-05-20T16:54:05Z</time>
      </trkpt>
      <trkpt lat="47.00474" lon="-1.78336">
        <ele>4.51</ele>
        <time>2020-05-20T16:54:07Z</time>
      </trkpt>
      <trkpt lat="47.00478" lon="-1.78318">
        <ele>3.12</ele>
        <time>2020-05-20T16:54:09Z</time>
      </trkpt>
      <trkpt lat="47.00483" lon="-1.78301">
        <ele>1.29</ele>
        <time>2020-05-20T16:54:11Z</time>
      </trkpt>
      <trkpt lat="47.00488" lon="-1.78281">
        <ele>0.91</ele>
        <time>2020-05-20T16:54:13Z</time>
      </trkpt>
      <trkpt lat="47.00493" lon="-1.78262">
        <ele>1.03</ele>
        <time>2020-05-20T16:54:15Z</time>
      </trkpt>
      <trkpt lat="47.00497" lon="-1.78244">
        <ele>0.91</ele>
        <time>2020-05-20T16:54:17Z</time>
      </trkpt>
      <trkpt lat="47.00502" lon="-1.78228">
        <ele>-0.13</ele>
        <time>2020-05-20T16:54:19Z</time>
      </trkpt>
      <trkpt lat="47.00506" lon="-1.78209">
        <ele>-0.27</ele>
        <time>2020-05-20T16:54:21Z</time>
      </trkpt>
      <trkpt lat="47.00511" lon="-1.78191">
        <ele>-0.02</ele>
        <time>2020-05-20T16:54:23Z</time>
      </trkpt>
      <trkpt lat="47.00515" lon="-1.78174">
        <ele>-0.19</ele>
        <time>2020-05-20T16:54:26Z</time>
      </trkpt>
      <trkpt lat="47.0052" lon="-1.78155">
        <ele>-0.04</ele>
        <time>2020-05-20T16:54:28Z</time>
      </trkpt>
      <trkpt lat="47.00524" lon="-1.78137">
        <ele>-0.21</ele>
        <time>2020-05-20T16:54:30Z</time>
      </trkpt>
      <trkpt lat="47.00529" lon="-1.78119">
        <ele>0.52</ele>
        <time>2020-05-20T16:54:32Z</time>
      </trkpt>
      <trkpt lat="47.00533" lon="-1.78101">
        <ele>1.07</ele>
        <time>2020-05-20T16:54:34Z</time>
      </trkpt>
      <trkpt lat="47.00538" lon="-1.78083">
        <ele>0.65</ele>
        <time>2020-05-20T16:54:36Z</time>
      </trkpt>
      <trkpt lat="47.00543" lon="-1.78063">
        <ele>0.21</ele>
        <time>2020-05-20T16:54:38Z</time>
      </trkpt>
      <trkpt lat="47.00548" lon="-1.78045">
        <ele>-0.32</ele>
        <time>2020-05-20T16:54:40Z</time>
      </trkpt>
      <trkpt lat="47.00553" lon="-1.78027">
        <ele>-0.3</ele>
        <time>2020-05-20T16:54:42Z</time>
      </trkpt>
      <trkpt lat="47.00557" lon="-1.78011">
        <ele>-0.44</ele>
        <time>2020-05-20T16:54:44Z</time>
      </trkpt>
      <trkpt lat="47.00561" lon="-1.77994">
        <ele>-1.11</ele>
        <time>2020-05-20T16:54:46Z</time>
      </trkpt>
      <trkpt lat="47.00566" lon="-1.77975">
        <ele>-1.92</ele>
        <time>2020-05-20T16:54:48Z</time>
      </trkpt>
      <trkpt lat="47.00571" lon="-1.77956">
        <ele>-1.3</ele>
        <time>2020-05-20T16:54:50Z</time>
      </trkpt>
      <trkpt lat="47.00575" lon="-1.77941">
        <ele>-0.35</ele>
        <time>2020-05-20T16:54:52Z</time>
      </trkpt>
      <trkpt lat="47.0058" lon="-1.77924">
        <ele>-0.45</ele>
        <time>2020-05-20T16:54:54Z</time>
      </trkpt>
      <trkpt lat="47.00584" lon="-1.77906">
        <ele>-0.05</ele>
        <time>2020-05-20T16:54:56Z</time>
      </trkpt>
      <trkpt lat="47.00588" lon="-1.7789">
        <ele>0.73</ele>
        <time>2020-05-20T16:54:58Z</time>
      </trkpt>
      <trkpt lat="47.00593" lon="-1.77872">
        <ele>1.54</ele>
        <time>2020-05-20T16:55:00Z</time>
      </trkpt>
      <trkpt lat="47.00597" lon="-1.77851">
        <ele>2.66</ele>
        <time>2020-05-20T16:55:02Z</time>
      </trkpt>
      <trkpt lat="47.00601" lon="-1.77833">
        <ele>2.92</ele>
        <time>2020-05-20T16:55:04Z</time>
      </trkpt>
      <trkpt lat="47.00605" lon="-1.77814">
        <ele>3.68</ele>
        <time>2020-05-20T16:55:06Z</time>
      </trkpt>
      <trkpt lat="47.00609" lon="-1.77796">
        <ele>4.13</ele>
        <time>2020-05-20T16:55:08Z</time>
      </trkpt>
      <trkpt lat="47.00611" lon="-1.77779">
        <ele>5.33</ele>
        <time>2020-05-20T16:55:10Z</time>
      </trkpt>
      <trkpt lat="47.00616" lon="-1.77761">
        <ele>6.26</ele>
        <time>2020-05-20T16:55:12Z</time>
      </trkpt>
      <trkpt lat="47.00619" lon="-1.77746">
        <ele>7.01</ele>
        <time>2020-05-20T16:55:14Z</time>
      </trkpt>
      <trkpt lat="47.00623" lon="-1.77729">
        <ele>6.37</ele>
        <time>2020-05-20T16:55:16Z</time>
      </trkpt>
      <trkpt lat="47.00627" lon="-1.77712">
        <ele>5.04</ele>
        <time>2020-05-20T16:55:18Z</time>
      </trkpt>
      <trkpt lat="47.00631" lon="-1.77693">
        <ele>4.4</ele>
        <time>2020-05-20T16:55:20Z</time>
      </trkpt>
      <trkpt lat="47.00635" lon="-1.77677">
        <ele>4</ele>
        <time>2020-05-20T16:55:22Z</time>
      </trkpt>
      <trkpt lat="47.00639" lon="-1.7766">
        <ele>2.68</ele>
        <time>2020-05-20T16:55:24Z</time>
      </trkpt>
      <trkpt lat="47.00643" lon="-1.77644">
        <ele>1.55</ele>
        <time>2020-05-20T16:55:26Z</time>
      </trkpt>
      <trkpt lat="47.00647" lon="-1.77629">
        <ele>2.48</ele>
        <time>2020-05-20T16:55:28Z</time>
      </trkpt>
      <trkpt lat="47.00652" lon="-1.77612">
        <ele>2.3</ele>
        <time>2020-05-20T16:55:30Z</time>
      </trkpt>
      <trkpt lat="47.00656" lon="-1.77596">
        <ele>2.87</ele>
        <time>2020-05-20T16:55:32Z</time>
      </trkpt>
      <trkpt lat="47.0066" lon="-1.77578">
        <ele>3.87</ele>
        <time>2020-05-20T16:55:34Z</time>
      </trkpt>
      <trkpt lat="47.00664" lon="-1.77562">
        <ele>4.53</ele>
        <time>2020-05-20T16:55:36Z</time>
      </trkpt>
      <trkpt lat="47.00669" lon="-1.77546">
        <ele>4.37</ele>
        <time>2020-05-20T16:55:38Z</time>
      </trkpt>
      <trkpt lat="47.00673" lon="-1.7753">
        <ele>1.74</ele>
        <time>2020-05-20T16:55:40Z</time>
      </trkpt>
      <trkpt lat="47.00678" lon="-1.77512">
        <ele>1.34</ele>
        <time>2020-05-20T16:55:42Z</time>
      </trkpt>
      <trkpt lat="47.00683" lon="-1.77497">
        <ele>1.42</ele>
        <time>2020-05-20T16:55:44Z</time>
      </trkpt>
      <trkpt lat="47.0069" lon="-1.77479">
        <ele>2.67</ele>
        <time>2020-05-20T16:55:46Z</time>
      </trkpt>
      <trkpt lat="47.00696" lon="-1.77464">
        <ele>3.92</ele>
        <time>2020-05-20T16:55:48Z</time>
      </trkpt>
      <trkpt lat="47.00702" lon="-1.7745">
        <ele>3.59</ele>
        <time>2020-05-20T16:55:50Z</time>
      </trkpt>
      <trkpt lat="47.00708" lon="-1.77435">
        <ele>4.01</ele>
        <time>2020-05-20T16:55:52Z</time>
      </trkpt>
      <trkpt lat="47.00713" lon="-1.7742">
        <ele>5.53</ele>
        <time>2020-05-20T16:55:54Z</time>
      </trkpt>
      <trkpt lat="47.00717" lon="-1.77406">
        <ele>6.82</ele>
        <time>2020-05-20T16:55:56Z</time>
      </trkpt>
      <trkpt lat="47.00723" lon="-1.77389">
        <ele>8.11</ele>
        <time>2020-05-20T16:55:58Z</time>
      </trkpt>
      <trkpt lat="47.0073" lon="-1.77372">
        <ele>8.49</ele>
        <time>2020-05-20T16:56:01Z</time>
      </trkpt>
      <trkpt lat="47.00736" lon="-1.7736">
        <ele>8.36</ele>
        <time>2020-05-20T16:56:03Z</time>
      </trkpt>
      <trkpt lat="47.00742" lon="-1.77349">
        <ele>8.97</ele>
        <time>2020-05-20T16:56:05Z</time>
      </trkpt>
      <trkpt lat="47.00749" lon="-1.77339">
        <ele>10.27</ele>
        <time>2020-05-20T16:56:07Z</time>
      </trkpt>
      <trkpt lat="47.00758" lon="-1.77329">
        <ele>11.11</ele>
        <time>2020-05-20T16:56:09Z</time>
      </trkpt>
      <trkpt lat="47.00767" lon="-1.77319">
        <ele>11.89</ele>
        <time>2020-05-20T16:56:11Z</time>
      </trkpt>
      <trkpt lat="47.00776" lon="-1.77311">
        <ele>13.62</ele>
        <time>2020-05-20T16:56:13Z</time>
      </trkpt>
      <trkpt lat="47.00784" lon="-1.77305">
        <ele>14.85</ele>
        <time>2020-05-20T16:56:15Z</time>
      </trkpt>
      <trkpt lat="47.00794" lon="-1.77298">
        <ele>14.84</ele>
        <time>2020-05-20T16:56:17Z</time>
      </trkpt>
      <trkpt lat="47.00806" lon="-1.7729">
        <ele>13.77</ele>
        <time>2020-05-20T16:56:19Z</time>
      </trkpt>
      <trkpt lat="47.00819" lon="-1.77284">
        <ele>11.81</ele>
        <time>2020-05-20T16:56:21Z</time>
      </trkpt>
      <trkpt lat="47.00831" lon="-1.77278">
        <ele>11.55</ele>
        <time>2020-05-20T16:56:23Z</time>
      </trkpt>
      <trkpt lat="47.00843" lon="-1.77273">
        <ele>11.73</ele>
        <time>2020-05-20T16:56:25Z</time>
      </trkpt>
      <trkpt lat="47.00853" lon="-1.77267">
        <ele>11.95</ele>
        <time>2020-05-20T16:56:27Z</time>
      </trkpt>
      <trkpt lat="47.00864" lon="-1.7726">
        <ele>12.35</ele>
        <time>2020-05-20T16:56:29Z</time>
      </trkpt>
      <trkpt lat="47.00875" lon="-1.77252">
        <ele>12.77</ele>
        <time>2020-05-20T16:56:31Z</time>
      </trkpt>
      <trkpt lat="47.00886" lon="-1.77242">
        <ele>12.16</ele>
        <time>2020-05-20T16:56:33Z</time>
      </trkpt>
      <trkpt lat="47.00897" lon="-1.77232">
        <ele>11.49</ele>
        <time>2020-05-20T16:56:35Z</time>
      </trkpt>
      <trkpt lat="47.00906" lon="-1.77222">
        <ele>11.27</ele>
        <time>2020-05-20T16:56:37Z</time>
      </trkpt>
      <trkpt lat="47.00917" lon="-1.77211">
        <ele>10.83</ele>
        <time>2020-05-20T16:56:39Z</time>
      </trkpt>
      <trkpt lat="47.00927" lon="-1.772">
        <ele>9.62</ele>
        <time>2020-05-20T16:56:41Z</time>
      </trkpt>
      <trkpt lat="47.00935" lon="-1.77191">
        <ele>9.69</ele>
        <time>2020-05-20T16:56:43Z</time>
      </trkpt>
      <trkpt lat="47.00945" lon="-1.7718">
        <ele>9.95</ele>
        <time>2020-05-20T16:56:45Z</time>
      </trkpt>
      <trkpt lat="47.00955" lon="-1.77169">
        <ele>9.94</ele>
        <time>2020-05-20T16:56:47Z</time>
      </trkpt>
      <trkpt lat="47.00963" lon="-1.77161">
        <ele>10.2</ele>
        <time>2020-05-20T16:56:49Z</time>
      </trkpt>
      <trkpt lat="47.00974" lon="-1.7715">
        <ele>9.06</ele>
        <time>2020-05-20T16:56:52Z</time>
      </trkpt>
      <trkpt lat="47.00984" lon="-1.77139">
        <ele>8.85</ele>
        <time>2020-05-20T16:56:54Z</time>
      </trkpt>
      <trkpt lat="47.00994" lon="-1.77128">
        <ele>8.15</ele>
        <time>2020-05-20T16:56:56Z</time>
      </trkpt>
      <trkpt lat="47.01002" lon="-1.7712">
        <ele>8.11</ele>
        <time>2020-05-20T16:56:58Z</time>
      </trkpt>
      <trkpt lat="47.01012" lon="-1.77109">
        <ele>8.35</ele>
        <time>2020-05-20T16:57:00Z</time>
      </trkpt>
      <trkpt lat="47.01022" lon="-1.77099">
        <ele>8.94</ele>
        <time>2020-05-20T16:57:02Z</time>
      </trkpt>
      <trkpt lat="47.01031" lon="-1.7709">
        <ele>9.68</ele>
        <time>2020-05-20T16:57:04Z</time>
      </trkpt>
      <trkpt lat="47.01043" lon="-1.77077">
        <ele>10.97</ele>
        <time>2020-05-20T16:57:06Z</time>
      </trkpt>
      <trkpt lat="47.01053" lon="-1.77065">
        <ele>11.54</ele>
        <time>2020-05-20T16:57:08Z</time>
      </trkpt>
      <trkpt lat="47.01061" lon="-1.77055">
        <ele>12.33</ele>
        <time>2020-05-20T16:57:10Z</time>
      </trkpt>
      <trkpt lat="47.01072" lon="-1.77043">
        <ele>12.41</ele>
        <time>2020-05-20T16:57:12Z</time>
      </trkpt>
      <trkpt lat="47.0108" lon="-1.77033">
        <ele>11.8</ele>
        <time>2020-05-20T16:57:14Z</time>
      </trkpt>
      <trkpt lat="47.01089" lon="-1.77023">
        <ele>10.45</ele>
        <time>2020-05-20T16:57:16Z</time>
      </trkpt>
      <trkpt lat="47.01099" lon="-1.77012">
        <ele>9.92</ele>
        <time>2020-05-20T16:57:18Z</time>
      </trkpt>
      <trkpt lat="47.01108" lon="-1.77002">
        <ele>9.92</ele>
        <time>2020-05-20T16:57:20Z</time>
      </trkpt>
      <trkpt lat="47.01117" lon="-1.76992">
        <ele>10.79</ele>
        <time>2020-05-20T16:57:22Z</time>
      </trkpt>
      <trkpt lat="47.01125" lon="-1.76981">
        <ele>11.15</ele>
        <time>2020-05-20T16:57:24Z</time>
      </trkpt>
      <trkpt lat="47.01134" lon="-1.7697">
        <ele>11.41</ele>
        <time>2020-05-20T16:57:26Z</time>
      </trkpt>
      <trkpt lat="47.01142" lon="-1.76961">
        <ele>11.14</ele>
        <time>2020-05-20T16:57:28Z</time>
      </trkpt>
      <trkpt lat="47.01152" lon="-1.76948">
        <ele>10.76</ele>
        <time>2020-05-20T16:57:30Z</time>
      </trkpt>
      <trkpt lat="47.0116" lon="-1.76937">
        <ele>10.31</ele>
        <time>2020-05-20T16:57:32Z</time>
      </trkpt>
      <trkpt lat="47.0117" lon="-1.76926">
        <ele>10.13</ele>
        <time>2020-05-20T16:57:34Z</time>
      </trkpt>
      <trkpt lat="47.01179" lon="-1.76916">
        <ele>10.56</ele>
        <time>2020-05-20T16:57:36Z</time>
      </trkpt>
      <trkpt lat="47.01188" lon="-1.76905">
        <ele>10.27</ele>
        <time>2020-05-20T16:57:38Z</time>
      </trkpt>
      <trkpt lat="47.01198" lon="-1.76895">
        <ele>10.34</ele>
        <time>2020-05-20T16:57:40Z</time>
      </trkpt>
      <trkpt lat="47.01208" lon="-1.76886">
        <ele>10.46</ele>
        <time>2020-05-20T16:57:42Z</time>
      </trkpt>
      <trkpt lat="47.01219" lon="-1.76877">
        <ele>10.67</ele>
        <time>2020-05-20T16:57:44Z</time>
      </trkpt>
      <trkpt lat="47.01229" lon="-1.76868">
        <ele>10.76</ele>
        <time>2020-05-20T16:57:46Z</time>
      </trkpt>
      <trkpt lat="47.01238" lon="-1.76861">
        <ele>11.22</ele>
        <time>2020-05-20T16:57:48Z</time>
      </trkpt>
      <trkpt lat="47.01247" lon="-1.76855">
        <ele>11.01</ele>
        <time>2020-05-20T16:57:50Z</time>
      </trkpt>
      <trkpt lat="47.01257" lon="-1.76848">
        <ele>10.4</ele>
        <time>2020-05-20T16:57:52Z</time>
      </trkpt>
      <trkpt lat="47.01267" lon="-1.7684">
        <ele>10.95</ele>
        <time>2020-05-20T16:57:54Z</time>
      </trkpt>
      <trkpt lat="47.01277" lon="-1.76832">
        <ele>12.69</ele>
        <time>2020-05-20T16:57:56Z</time>
      </trkpt>
      <trkpt lat="47.01286" lon="-1.76823">
        <ele>13.31</ele>
        <time>2020-05-20T16:57:58Z</time>
      </trkpt>
      <trkpt lat="47.01295" lon="-1.76812">
        <ele>14.43</ele>
        <time>2020-05-20T16:58:00Z</time>
      </trkpt>
      <trkpt lat="47.01304" lon="-1.76801">
        <ele>15.03</ele>
        <time>2020-05-20T16:58:02Z</time>
      </trkpt>
      <trkpt lat="47.01311" lon="-1.76789">
        <ele>16.03</ele>
        <time>2020-05-20T16:58:04Z</time>
      </trkpt>
      <trkpt lat="47.01319" lon="-1.76777">
        <ele>15.65</ele>
        <time>2020-05-20T16:58:06Z</time>
      </trkpt>
      <trkpt lat="47.01325" lon="-1.76764">
        <ele>14.59</ele>
        <time>2020-05-20T16:58:08Z</time>
      </trkpt>
      <trkpt lat="47.01333" lon="-1.7675">
        <ele>14.5</ele>
        <time>2020-05-20T16:58:10Z</time>
      </trkpt>
      <trkpt lat="47.0134" lon="-1.76736">
        <ele>15.21</ele>
        <time>2020-05-20T16:58:12Z</time>
      </trkpt>
      <trkpt lat="47.01346" lon="-1.76723">
        <ele>15.63</ele>
        <time>2020-05-20T16:58:14Z</time>
      </trkpt>
      <trkpt lat="47.01353" lon="-1.7671">
        <ele>15.68</ele>
        <time>2020-05-20T16:58:16Z</time>
      </trkpt>
      <trkpt lat="47.01359" lon="-1.76697">
        <ele>15.4</ele>
        <time>2020-05-20T16:58:18Z</time>
      </trkpt>
      <trkpt lat="47.01364" lon="-1.76681">
        <ele>14.95</ele>
        <time>2020-05-20T16:58:20Z</time>
      </trkpt>
      <trkpt lat="47.01368" lon="-1.76667">
        <ele>14.97</ele>
        <time>2020-05-20T16:58:22Z</time>
      </trkpt>
      <trkpt lat="47.01372" lon="-1.76648">
        <ele>14.68</ele>
        <time>2020-05-20T16:58:24Z</time>
      </trkpt>
      <trkpt lat="47.01376" lon="-1.7663">
        <ele>15.94</ele>
        <time>2020-05-20T16:58:26Z</time>
      </trkpt>
      <trkpt lat="47.01378" lon="-1.76613">
        <ele>16.67</ele>
        <time>2020-05-20T16:58:28Z</time>
      </trkpt>
      <trkpt lat="47.01381" lon="-1.76596">
        <ele>17.37</ele>
        <time>2020-05-20T16:58:30Z</time>
      </trkpt>
      <trkpt lat="47.01384" lon="-1.7658">
        <ele>18.42</ele>
        <time>2020-05-20T16:58:32Z</time>
      </trkpt>
      <trkpt lat="47.01388" lon="-1.76563">
        <ele>19.31</ele>
        <time>2020-05-20T16:58:34Z</time>
      </trkpt>
      <trkpt lat="47.01392" lon="-1.76546">
        <ele>20.48</ele>
        <time>2020-05-20T16:58:36Z</time>
      </trkpt>
      <trkpt lat="47.01395" lon="-1.76528">
        <ele>20.67</ele>
        <time>2020-05-20T16:58:38Z</time>
      </trkpt>
      <trkpt lat="47.01398" lon="-1.76512">
        <ele>20.6</ele>
        <time>2020-05-20T16:58:40Z</time>
      </trkpt>
      <trkpt lat="47.01402" lon="-1.76495">
        <ele>20.24</ele>
        <time>2020-05-20T16:58:42Z</time>
      </trkpt>
      <trkpt lat="47.01406" lon="-1.76479">
        <ele>19.58</ele>
        <time>2020-05-20T16:58:44Z</time>
      </trkpt>
      <trkpt lat="47.01412" lon="-1.76462">
        <ele>19.19</ele>
        <time>2020-05-20T16:58:46Z</time>
      </trkpt>
      <trkpt lat="47.01419" lon="-1.76445">
        <ele>18.74</ele>
        <time>2020-05-20T16:58:48Z</time>
      </trkpt>
      <trkpt lat="47.01427" lon="-1.76428">
        <ele>17.95</ele>
        <time>2020-05-20T16:58:50Z</time>
      </trkpt>
      <trkpt lat="47.01435" lon="-1.76411">
        <ele>17.28</ele>
        <time>2020-05-20T16:58:52Z</time>
      </trkpt>
      <trkpt lat="47.01443" lon="-1.76393">
        <ele>17.08</ele>
        <time>2020-05-20T16:58:54Z</time>
      </trkpt>
      <trkpt lat="47.01451" lon="-1.76374">
        <ele>16.44</ele>
        <time>2020-05-20T16:58:56Z</time>
      </trkpt>
      <trkpt lat="47.01459" lon="-1.76358">
        <ele>16.76</ele>
        <time>2020-05-20T16:58:58Z</time>
      </trkpt>
      <trkpt lat="47.01468" lon="-1.76341">
        <ele>17</ele>
        <time>2020-05-20T16:59:00Z</time>
      </trkpt>
      <trkpt lat="47.01477" lon="-1.76324">
        <ele>17.31</ele>
        <time>2020-05-20T16:59:02Z</time>
      </trkpt>
      <trkpt lat="47.01484" lon="-1.76309">
        <ele>16.87</ele>
        <time>2020-05-20T16:59:04Z</time>
      </trkpt>
      <trkpt lat="47.01491" lon="-1.76294">
        <ele>16.08</ele>
        <time>2020-05-20T16:59:06Z</time>
      </trkpt>
      <trkpt lat="47.01499" lon="-1.76278">
        <ele>16.15</ele>
        <time>2020-05-20T16:59:08Z</time>
      </trkpt>
      <trkpt lat="47.01506" lon="-1.76261">
        <ele>15.88</ele>
        <time>2020-05-20T16:59:10Z</time>
      </trkpt>
      <trkpt lat="47.01513" lon="-1.76243">
        <ele>14.59</ele>
        <time>2020-05-20T16:59:12Z</time>
      </trkpt>
      <trkpt lat="47.0152" lon="-1.76224">
        <ele>14.11</ele>
        <time>2020-05-20T16:59:14Z</time>
      </trkpt>
      <trkpt lat="47.01527" lon="-1.76205">
        <ele>14.08</ele>
        <time>2020-05-20T16:59:16Z</time>
      </trkpt>
      <trkpt lat="47.01535" lon="-1.76187">
        <ele>14.42</ele>
        <time>2020-05-20T16:59:18Z</time>
      </trkpt>
      <trkpt lat="47.01541" lon="-1.76172">
        <ele>14.16</ele>
        <time>2020-05-20T16:59:20Z</time>
      </trkpt>
      <trkpt lat="47.0155" lon="-1.76159">
        <ele>13.67</ele>
        <time>2020-05-20T16:59:22Z</time>
      </trkpt>
      <trkpt lat="47.01562" lon="-1.7615">
        <ele>13.95</ele>
        <time>2020-05-20T16:59:24Z</time>
      </trkpt>
      <trkpt lat="47.01574" lon="-1.7614">
        <ele>14.55</ele>
        <time>2020-05-20T16:59:26Z</time>
      </trkpt>
      <trkpt lat="47.01586" lon="-1.76131">
        <ele>15.1</ele>
        <time>2020-05-20T16:59:28Z</time>
      </trkpt>
      <trkpt lat="47.01597" lon="-1.76122">
        <ele>15.51</ele>
        <time>2020-05-20T16:59:30Z</time>
      </trkpt>
      <trkpt lat="47.01606" lon="-1.76114">
        <ele>15.79</ele>
        <time>2020-05-20T16:59:32Z</time>
      </trkpt>
      <trkpt lat="47.01617" lon="-1.76106">
        <ele>15.44</ele>
        <time>2020-05-20T16:59:34Z</time>
      </trkpt>
      <trkpt lat="47.01626" lon="-1.76099">
        <ele>15.93</ele>
        <time>2020-05-20T16:59:36Z</time>
      </trkpt>
      <trkpt lat="47.01635" lon="-1.76092">
        <ele>17.18</ele>
        <time>2020-05-20T16:59:38Z</time>
      </trkpt>
      <trkpt lat="47.01643" lon="-1.76084">
        <ele>18.47</ele>
        <time>2020-05-20T16:59:40Z</time>
      </trkpt>
      <trkpt lat="47.01654" lon="-1.76074">
        <ele>19.4</ele>
        <time>2020-05-20T16:59:42Z</time>
      </trkpt>
      <trkpt lat="47.01664" lon="-1.76067">
        <ele>18.69</ele>
        <time>2020-05-20T16:59:44Z</time>
      </trkpt>
      <trkpt lat="47.01673" lon="-1.76058">
        <ele>18.56</ele>
        <time>2020-05-20T16:59:46Z</time>
      </trkpt>
      <trkpt lat="47.01683" lon="-1.7605">
        <ele>18.18</ele>
        <time>2020-05-20T16:59:48Z</time>
      </trkpt>
      <trkpt lat="47.01694" lon="-1.76041">
        <ele>18.33</ele>
        <time>2020-05-20T16:59:50Z</time>
      </trkpt>
      <trkpt lat="47.01705" lon="-1.7603">
        <ele>18.66</ele>
        <time>2020-05-20T16:59:53Z</time>
      </trkpt>
      <trkpt lat="47.01714" lon="-1.7602">
        <ele>19.16</ele>
        <time>2020-05-20T16:59:55Z</time>
      </trkpt>
      <trkpt lat="47.01721" lon="-1.7601">
        <ele>19.07</ele>
        <time>2020-05-20T16:59:57Z</time>
      </trkpt>
      <trkpt lat="47.0173" lon="-1.75995">
        <ele>18.72</ele>
        <time>2020-05-20T16:59:59Z</time>
      </trkpt>
      <trkpt lat="47.01738" lon="-1.75981">
        <ele>19.23</ele>
        <time>2020-05-20T17:00:01Z</time>
      </trkpt>
      <trkpt lat="47.01746" lon="-1.75967">
        <ele>19.09</ele>
        <time>2020-05-20T17:00:03Z</time>
      </trkpt>
      <trkpt lat="47.01754" lon="-1.75952">
        <ele>18.49</ele>
        <time>2020-05-20T17:00:05Z</time>
      </trkpt>
      <trkpt lat="47.01761" lon="-1.75938">
        <ele>17.6</ele>
        <time>2020-05-20T17:00:07Z</time>
      </trkpt>
      <trkpt lat="47.01768" lon="-1.75924">
        <ele>16.76</ele>
        <time>2020-05-20T17:00:09Z</time>
      </trkpt>
      <trkpt lat="47.01776" lon="-1.75911">
        <ele>15.75</ele>
        <time>2020-05-20T17:00:11Z</time>
      </trkpt>
      <trkpt lat="47.01783" lon="-1.75901">
        <ele>15.37</ele>
        <time>2020-05-20T17:00:13Z</time>
      </trkpt>
      <trkpt lat="47.0179" lon="-1.7589">
        <ele>15.63</ele>
        <time>2020-05-20T17:00:15Z</time>
      </trkpt>
      <trkpt lat="47.01796" lon="-1.75878">
        <ele>16.43</ele>
        <time>2020-05-20T17:00:17Z</time>
      </trkpt>
      <trkpt lat="47.01804" lon="-1.75863">
        <ele>16.71</ele>
        <time>2020-05-20T17:00:19Z</time>
      </trkpt>
      <trkpt lat="47.01812" lon="-1.75849">
        <ele>16.1</ele>
        <time>2020-05-20T17:00:21Z</time>
      </trkpt>
      <trkpt lat="47.01819" lon="-1.75837">
        <ele>15.52</ele>
        <time>2020-05-20T17:00:23Z</time>
      </trkpt>
      <trkpt lat="47.01828" lon="-1.75823">
        <ele>16.11</ele>
        <time>2020-05-20T17:00:26Z</time>
      </trkpt>
      <trkpt lat="47.01837" lon="-1.75806">
        <ele>16.82</ele>
        <time>2020-05-20T17:00:29Z</time>
      </trkpt>
      <trkpt lat="47.01844" lon="-1.75794">
        <ele>17.35</ele>
        <time>2020-05-20T17:00:31Z</time>
      </trkpt>
      <trkpt lat="47.01851" lon="-1.75782">
        <ele>17.44</ele>
        <time>2020-05-20T17:00:33Z</time>
      </trkpt>
      <trkpt lat="47.01858" lon="-1.75771">
        <ele>18.81</ele>
        <time>2020-05-20T17:00:35Z</time>
      </trkpt>
      <trkpt lat="47.01865" lon="-1.75759">
        <ele>19.28</ele>
        <time>2020-05-20T17:00:37Z</time>
      </trkpt>
      <trkpt lat="47.01871" lon="-1.75748">
        <ele>19.74</ele>
        <time>2020-05-20T17:00:39Z</time>
      </trkpt>
      <trkpt lat="47.01881" lon="-1.75732">
        <ele>20.24</ele>
        <time>2020-05-20T17:00:42Z</time>
      </trkpt>
      <trkpt lat="47.01888" lon="-1.7572">
        <ele>21.12</ele>
        <time>2020-05-20T17:00:44Z</time>
      </trkpt>
      <trkpt lat="47.01895" lon="-1.75708">
        <ele>21.61</ele>
        <time>2020-05-20T17:00:46Z</time>
      </trkpt>
      <trkpt lat="47.01904" lon="-1.75693">
        <ele>21.85</ele>
        <time>2020-05-20T17:00:48Z</time>
      </trkpt>
      <trkpt lat="47.0191" lon="-1.75682">
        <ele>20.94</ele>
        <time>2020-05-20T17:00:50Z</time>
      </trkpt>
      <trkpt lat="47.01918" lon="-1.75668">
        <ele>19.98</ele>
        <time>2020-05-20T17:00:52Z</time>
      </trkpt>
      <trkpt lat="47.01925" lon="-1.75656">
        <ele>18.74</ele>
        <time>2020-05-20T17:00:54Z</time>
      </trkpt>
      <trkpt lat="47.01931" lon="-1.75645">
        <ele>18.16</ele>
        <time>2020-05-20T17:00:56Z</time>
      </trkpt>
      <trkpt lat="47.01939" lon="-1.7563">
        <ele>18.28</ele>
        <time>2020-05-20T17:00:58Z</time>
      </trkpt>
      <trkpt lat="47.01945" lon="-1.75618">
        <ele>19.01</ele>
        <time>2020-05-20T17:01:00Z</time>
      </trkpt>
      <trkpt lat="47.01951" lon="-1.75608">
        <ele>19.57</ele>
        <time>2020-05-20T17:01:02Z</time>
      </trkpt>
      <trkpt lat="47.01959" lon="-1.75593">
        <ele>19.74</ele>
        <time>2020-05-20T17:01:04Z</time>
      </trkpt>
      <trkpt lat="47.01968" lon="-1.75578">
        <ele>19.56</ele>
        <time>2020-05-20T17:01:06Z</time>
      </trkpt>
      <trkpt lat="47.01976" lon="-1.75565">
        <ele>20.28</ele>
        <time>2020-05-20T17:01:08Z</time>
      </trkpt>
      <trkpt lat="47.01984" lon="-1.75551">
        <ele>21.36</ele>
        <time>2020-05-20T17:01:10Z</time>
      </trkpt>
      <trkpt lat="47.01992" lon="-1.75538">
        <ele>22</ele>
        <time>2020-05-20T17:01:12Z</time>
      </trkpt>
      <trkpt lat="47.01999" lon="-1.75524">
        <ele>21.59</ele>
        <time>2020-05-20T17:01:14Z</time>
      </trkpt>
      <trkpt lat="47.02008" lon="-1.7551">
        <ele>20.27</ele>
        <time>2020-05-20T17:01:16Z</time>
      </trkpt>
      <trkpt lat="47.02016" lon="-1.75496">
        <ele>18.12</ele>
        <time>2020-05-20T17:01:18Z</time>
      </trkpt>
      <trkpt lat="47.02025" lon="-1.75482">
        <ele>17.72</ele>
        <time>2020-05-20T17:01:20Z</time>
      </trkpt>
      <trkpt lat="47.02034" lon="-1.75467">
        <ele>17.42</ele>
        <time>2020-05-20T17:01:22Z</time>
      </trkpt>
      <trkpt lat="47.02041" lon="-1.75453">
        <ele>17.15</ele>
        <time>2020-05-20T17:01:24Z</time>
      </trkpt>
      <trkpt lat="47.02049" lon="-1.75437">
        <ele>17.69</ele>
        <time>2020-05-20T17:01:26Z</time>
      </trkpt>
      <trkpt lat="47.02056" lon="-1.75422">
        <ele>17.97</ele>
        <time>2020-05-20T17:01:28Z</time>
      </trkpt>
      <trkpt lat="47.02061" lon="-1.75407">
        <ele>18.62</ele>
        <time>2020-05-20T17:01:30Z</time>
      </trkpt>
      <trkpt lat="47.02066" lon="-1.75391">
        <ele>17.9</ele>
        <time>2020-05-20T17:01:32Z</time>
      </trkpt>
      <trkpt lat="47.0207" lon="-1.75374">
        <ele>16.97</ele>
        <time>2020-05-20T17:01:34Z</time>
      </trkpt>
      <trkpt lat="47.02073" lon="-1.75355">
        <ele>16.27</ele>
        <time>2020-05-20T17:01:36Z</time>
      </trkpt>
      <trkpt lat="47.02077" lon="-1.75335">
        <ele>16.29</ele>
        <time>2020-05-20T17:01:38Z</time>
      </trkpt>
      <trkpt lat="47.02079" lon="-1.75319">
        <ele>16.87</ele>
        <time>2020-05-20T17:01:40Z</time>
      </trkpt>
      <trkpt lat="47.02082" lon="-1.75298">
        <ele>17.33</ele>
        <time>2020-05-20T17:01:42Z</time>
      </trkpt>
      <trkpt lat="47.02085" lon="-1.7528">
        <ele>17.63</ele>
        <time>2020-05-20T17:01:44Z</time>
      </trkpt>
      <trkpt lat="47.02087" lon="-1.75265">
        <ele>18.25</ele>
        <time>2020-05-20T17:01:46Z</time>
      </trkpt>
      <trkpt lat="47.0209" lon="-1.75248">
        <ele>18.6</ele>
        <time>2020-05-20T17:01:48Z</time>
      </trkpt>
      <trkpt lat="47.02094" lon="-1.7523">
        <ele>19.05</ele>
        <time>2020-05-20T17:01:50Z</time>
      </trkpt>
      <trkpt lat="47.02097" lon="-1.75213">
        <ele>19.37</ele>
        <time>2020-05-20T17:01:52Z</time>
      </trkpt>
      <trkpt lat="47.021" lon="-1.75196">
        <ele>19.15</ele>
        <time>2020-05-20T17:01:54Z</time>
      </trkpt>
      <trkpt lat="47.02104" lon="-1.75178">
        <ele>20</ele>
        <time>2020-05-20T17:01:56Z</time>
      </trkpt>
      <trkpt lat="47.02107" lon="-1.7516">
        <ele>20.88</ele>
        <time>2020-05-20T17:01:58Z</time>
      </trkpt>
      <trkpt lat="47.0211" lon="-1.75143">
        <ele>21.47</ele>
        <time>2020-05-20T17:02:00Z</time>
      </trkpt>
      <trkpt lat="47.02113" lon="-1.75125">
        <ele>21.79</ele>
        <time>2020-05-20T17:02:02Z</time>
      </trkpt>
      <trkpt lat="47.02116" lon="-1.75106">
        <ele>22.27</ele>
        <time>2020-05-20T17:02:04Z</time>
      </trkpt>
      <trkpt lat="47.0212" lon="-1.75087">
        <ele>22</ele>
        <time>2020-05-20T17:02:06Z</time>
      </trkpt>
      <trkpt lat="47.02123" lon="-1.7507">
        <ele>22.12</ele>
        <time>2020-05-20T17:02:08Z</time>
      </trkpt>
      <trkpt lat="47.02125" lon="-1.75056">
        <ele>22.05</ele>
        <time>2020-05-20T17:02:10Z</time>
      </trkpt>
      <trkpt lat="47.02127" lon="-1.75041">
        <ele>21.45</ele>
        <time>2020-05-20T17:02:12Z</time>
      </trkpt>
      <trkpt lat="47.0213" lon="-1.75024">
        <ele>20.84</ele>
        <time>2020-05-20T17:02:14Z</time>
      </trkpt>
      <trkpt lat="47.02133" lon="-1.75009">
        <ele>20.01</ele>
        <time>2020-05-20T17:02:16Z</time>
      </trkpt>
      <trkpt lat="47.02136" lon="-1.74989">
        <ele>20.85</ele>
        <time>2020-05-20T17:02:18Z</time>
      </trkpt>
      <trkpt lat="47.02139" lon="-1.74971">
        <ele>21.06</ele>
        <time>2020-05-20T17:02:20Z</time>
      </trkpt>
      <trkpt lat="47.02141" lon="-1.74954">
        <ele>21.16</ele>
        <time>2020-05-20T17:02:22Z</time>
      </trkpt>
      <trkpt lat="47.02144" lon="-1.74937">
        <ele>21.84</ele>
        <time>2020-05-20T17:02:24Z</time>
      </trkpt>
      <trkpt lat="47.02146" lon="-1.74922">
        <ele>21.8</ele>
        <time>2020-05-20T17:02:26Z</time>
      </trkpt>
      <trkpt lat="47.02149" lon="-1.74902">
        <ele>20.95</ele>
        <time>2020-05-20T17:02:28Z</time>
      </trkpt>
      <trkpt lat="47.02152" lon="-1.74888">
        <ele>19.97</ele>
        <time>2020-05-20T17:02:30Z</time>
      </trkpt>
      <trkpt lat="47.02155" lon="-1.74872">
        <ele>18.89</ele>
        <time>2020-05-20T17:02:32Z</time>
      </trkpt>
      <trkpt lat="47.02157" lon="-1.74854">
        <ele>19.81</ele>
        <time>2020-05-20T17:02:34Z</time>
      </trkpt>
      <trkpt lat="47.02159" lon="-1.74838">
        <ele>21.31</ele>
        <time>2020-05-20T17:02:36Z</time>
      </trkpt>
      <trkpt lat="47.02161" lon="-1.74821">
        <ele>21.79</ele>
        <time>2020-05-20T17:02:38Z</time>
      </trkpt>
      <trkpt lat="47.02165" lon="-1.74802">
        <ele>21.28</ele>
        <time>2020-05-20T17:02:40Z</time>
      </trkpt>
      <trkpt lat="47.02169" lon="-1.74783">
        <ele>20.36</ele>
        <time>2020-05-20T17:02:42Z</time>
      </trkpt>
      <trkpt lat="47.02171" lon="-1.74768">
        <ele>20.33</ele>
        <time>2020-05-20T17:02:44Z</time>
      </trkpt>
      <trkpt lat="47.02174" lon="-1.74751">
        <ele>20.05</ele>
        <time>2020-05-20T17:02:46Z</time>
      </trkpt>
      <trkpt lat="47.02178" lon="-1.74734">
        <ele>20.59</ele>
        <time>2020-05-20T17:02:48Z</time>
      </trkpt>
      <trkpt lat="47.02181" lon="-1.74717">
        <ele>20.09</ele>
        <time>2020-05-20T17:02:50Z</time>
      </trkpt>
      <trkpt lat="47.02185" lon="-1.74699">
        <ele>19.42</ele>
        <time>2020-05-20T17:02:52Z</time>
      </trkpt>
      <trkpt lat="47.02187" lon="-1.74682">
        <ele>18.63</ele>
        <time>2020-05-20T17:02:54Z</time>
      </trkpt>
      <trkpt lat="47.02191" lon="-1.74659">
        <ele>18.53</ele>
        <time>2020-05-20T17:02:57Z</time>
      </trkpt>
      <trkpt lat="47.02195" lon="-1.74636">
        <ele>18.27</ele>
        <time>2020-05-20T17:02:59Z</time>
      </trkpt>
      <trkpt lat="47.02198" lon="-1.74619">
        <ele>19.02</ele>
        <time>2020-05-20T17:03:01Z</time>
      </trkpt>
      <trkpt lat="47.022" lon="-1.74602">
        <ele>20.02</ele>
        <time>2020-05-20T17:03:03Z</time>
      </trkpt>
      <trkpt lat="47.02203" lon="-1.74582">
        <ele>21.23</ele>
        <time>2020-05-20T17:03:05Z</time>
      </trkpt>
      <trkpt lat="47.02206" lon="-1.74564">
        <ele>22.37</ele>
        <time>2020-05-20T17:03:07Z</time>
      </trkpt>
      <trkpt lat="47.02209" lon="-1.74546">
        <ele>21.39</ele>
        <time>2020-05-20T17:03:09Z</time>
      </trkpt>
      <trkpt lat="47.02211" lon="-1.7453">
        <ele>20.9</ele>
        <time>2020-05-20T17:03:11Z</time>
      </trkpt>
      <trkpt lat="47.02213" lon="-1.74512">
        <ele>20.93</ele>
        <time>2020-05-20T17:03:13Z</time>
      </trkpt>
      <trkpt lat="47.02216" lon="-1.74495">
        <ele>20.58</ele>
        <time>2020-05-20T17:03:15Z</time>
      </trkpt>
      <trkpt lat="47.02218" lon="-1.74478">
        <ele>19.61</ele>
        <time>2020-05-20T17:03:17Z</time>
      </trkpt>
      <trkpt lat="47.02219" lon="-1.74458">
        <ele>19.34</ele>
        <time>2020-05-20T17:03:18Z</time>
      </trkpt>
      <trkpt lat="47.02221" lon="-1.74443">
        <ele>19.14</ele>
        <time>2020-05-20T17:03:20Z</time>
      </trkpt>
      <trkpt lat="47.02223" lon="-1.74429">
        <ele>19.88</ele>
        <time>2020-05-20T17:03:22Z</time>
      </trkpt>
      <trkpt lat="47.02226" lon="-1.74409">
        <ele>19.6</ele>
        <time>2020-05-20T17:03:24Z</time>
      </trkpt>
      <trkpt lat="47.02229" lon="-1.7439">
        <ele>19.02</ele>
        <time>2020-05-20T17:03:26Z</time>
      </trkpt>
      <trkpt lat="47.02232" lon="-1.7437">
        <ele>18.7</ele>
        <time>2020-05-20T17:03:28Z</time>
      </trkpt>
      <trkpt lat="47.02236" lon="-1.74356">
        <ele>17.86</ele>
        <time>2020-05-20T17:03:30Z</time>
      </trkpt>
      <trkpt lat="47.0224" lon="-1.74336">
        <ele>18.46</ele>
        <time>2020-05-20T17:03:32Z</time>
      </trkpt>
      <trkpt lat="47.02244" lon="-1.74316">
        <ele>18.81</ele>
        <time>2020-05-20T17:03:34Z</time>
      </trkpt>
      <trkpt lat="47.02248" lon="-1.74298">
        <ele>18.37</ele>
        <time>2020-05-20T17:03:36Z</time>
      </trkpt>
      <trkpt lat="47.02251" lon="-1.7428">
        <ele>19.16</ele>
        <time>2020-05-20T17:03:38Z</time>
      </trkpt>
      <trkpt lat="47.02254" lon="-1.74265">
        <ele>20.12</ele>
        <time>2020-05-20T17:03:40Z</time>
      </trkpt>
      <trkpt lat="47.02256" lon="-1.74246">
        <ele>21.31</ele>
        <time>2020-05-20T17:03:42Z</time>
      </trkpt>
      <trkpt lat="47.02258" lon="-1.74229">
        <ele>22.35</ele>
        <time>2020-05-20T17:03:44Z</time>
      </trkpt>
      <trkpt lat="47.02261" lon="-1.74208">
        <ele>23.55</ele>
        <time>2020-05-20T17:03:46Z</time>
      </trkpt>
      <trkpt lat="47.02263" lon="-1.74192">
        <ele>24.21</ele>
        <time>2020-05-20T17:03:48Z</time>
      </trkpt>
      <trkpt lat="47.02265" lon="-1.74175">
        <ele>25.86</ele>
        <time>2020-05-20T17:03:50Z</time>
      </trkpt>
      <trkpt lat="47.02267" lon="-1.7416">
        <ele>26.25</ele>
        <time>2020-05-20T17:03:52Z</time>
      </trkpt>
      <trkpt lat="47.02269" lon="-1.74145">
        <ele>25.99</ele>
        <time>2020-05-20T17:03:54Z</time>
      </trkpt>
      <trkpt lat="47.02271" lon="-1.74129">
        <ele>26.05</ele>
        <time>2020-05-20T17:03:56Z</time>
      </trkpt>
      <trkpt lat="47.02273" lon="-1.74109">
        <ele>26.35</ele>
        <time>2020-05-20T17:03:58Z</time>
      </trkpt>
      <trkpt lat="47.02275" lon="-1.7409">
        <ele>25.58</ele>
        <time>2020-05-20T17:04:00Z</time>
      </trkpt>
      <trkpt lat="47.02279" lon="-1.74069">
        <ele>24.7</ele>
        <time>2020-05-20T17:04:03Z</time>
      </trkpt>
      <trkpt lat="47.02282" lon="-1.74053">
        <ele>24.61</ele>
        <time>2020-05-20T17:04:05Z</time>
      </trkpt>
      <trkpt lat="47.02283" lon="-1.74036">
        <ele>25.39</ele>
        <time>2020-05-20T17:04:07Z</time>
      </trkpt>
      <trkpt lat="47.02282" lon="-1.74019">
        <ele>25.99</ele>
        <time>2020-05-20T17:04:09Z</time>
      </trkpt>
      <trkpt lat="47.0228" lon="-1.74001">
        <ele>26.09</ele>
        <time>2020-05-20T17:04:11Z</time>
      </trkpt>
      <trkpt lat="47.02278" lon="-1.73981">
        <ele>26.12</ele>
        <time>2020-05-20T17:04:13Z</time>
      </trkpt>
      <trkpt lat="47.02276" lon="-1.73965">
        <ele>26.13</ele>
        <time>2020-05-20T17:04:15Z</time>
      </trkpt>
      <trkpt lat="47.02275" lon="-1.73945">
        <ele>25.94</ele>
        <time>2020-05-20T17:04:17Z</time>
      </trkpt>
      <trkpt lat="47.02275" lon="-1.73931">
        <ele>26.25</ele>
        <time>2020-05-20T17:04:19Z</time>
      </trkpt>
      <trkpt lat="47.02275" lon="-1.73912">
        <ele>25.19</ele>
        <time>2020-05-20T17:04:21Z</time>
      </trkpt>
      <trkpt lat="47.02274" lon="-1.73894">
        <ele>24.53</ele>
        <time>2020-05-20T17:04:23Z</time>
      </trkpt>
      <trkpt lat="47.02273" lon="-1.73876">
        <ele>24.47</ele>
        <time>2020-05-20T17:04:25Z</time>
      </trkpt>
      <trkpt lat="47.02272" lon="-1.73858">
        <ele>25.99</ele>
        <time>2020-05-20T17:04:27Z</time>
      </trkpt>
      <trkpt lat="47.0227" lon="-1.7384">
        <ele>27.35</ele>
        <time>2020-05-20T17:04:29Z</time>
      </trkpt>
      <trkpt lat="47.0227" lon="-1.73823">
        <ele>29.15</ele>
        <time>2020-05-20T17:04:31Z</time>
      </trkpt>
      <trkpt lat="47.0227" lon="-1.73806">
        <ele>30.36</ele>
        <time>2020-05-20T17:04:33Z</time>
      </trkpt>
      <trkpt lat="47.0227" lon="-1.7379">
        <ele>31.29</ele>
        <time>2020-05-20T17:04:35Z</time>
      </trkpt>
      <trkpt lat="47.02271" lon="-1.73773">
        <ele>30.42</ele>
        <time>2020-05-20T17:04:37Z</time>
      </trkpt>
      <trkpt lat="47.0227" lon="-1.73758">
        <ele>28.92</ele>
        <time>2020-05-20T17:04:39Z</time>
      </trkpt>
      <trkpt lat="47.02277" lon="-1.73746">
        <ele>25.84</ele>
        <time>2020-05-20T17:04:42Z</time>
      </trkpt>
      <trkpt lat="47.02288" lon="-1.73743">
        <ele>24.29</ele>
        <time>2020-05-20T17:04:44Z</time>
      </trkpt>
      <trkpt lat="47.023" lon="-1.73742">
        <ele>23.16</ele>
        <time>2020-05-20T17:04:46Z</time>
      </trkpt>
      <trkpt lat="47.02313" lon="-1.73742">
        <ele>23.61</ele>
        <time>2020-05-20T17:04:48Z</time>
      </trkpt>
      <trkpt lat="47.02326" lon="-1.7374">
        <ele>24.34</ele>
        <time>2020-05-20T17:04:50Z</time>
      </trkpt>
      <trkpt lat="47.02338" lon="-1.73738">
        <ele>25.87</ele>
        <time>2020-05-20T17:04:52Z</time>
      </trkpt>
      <trkpt lat="47.02348" lon="-1.73736">
        <ele>27.35</ele>
        <time>2020-05-20T17:04:54Z</time>
      </trkpt>
      <trkpt lat="47.02358" lon="-1.73733">
        <ele>27.99</ele>
        <time>2020-05-20T17:04:56Z</time>
      </trkpt>
      <trkpt lat="47.02371" lon="-1.7373">
        <ele>27.69</ele>
        <time>2020-05-20T17:04:58Z</time>
      </trkpt>
      <trkpt lat="47.02382" lon="-1.73728">
        <ele>26.61</ele>
        <time>2020-05-20T17:05:00Z</time>
      </trkpt>
      <trkpt lat="47.02395" lon="-1.73725">
        <ele>26.52</ele>
        <time>2020-05-20T17:05:02Z</time>
      </trkpt>
      <trkpt lat="47.02409" lon="-1.73724">
        <ele>26.09</ele>
        <time>2020-05-20T17:05:04Z</time>
      </trkpt>
      <trkpt lat="47.02422" lon="-1.73722">
        <ele>24.72</ele>
        <time>2020-05-20T17:05:06Z</time>
      </trkpt>
      <trkpt lat="47.02434" lon="-1.7372">
        <ele>24.23</ele>
        <time>2020-05-20T17:05:08Z</time>
      </trkpt>
      <trkpt lat="47.02445" lon="-1.73718">
        <ele>24.22</ele>
        <time>2020-05-20T17:05:10Z</time>
      </trkpt>
      <trkpt lat="47.02457" lon="-1.73717">
        <ele>22.89</ele>
        <time>2020-05-20T17:05:12Z</time>
      </trkpt>
      <trkpt lat="47.0247" lon="-1.73713">
        <ele>21.48</ele>
        <time>2020-05-20T17:05:15Z</time>
      </trkpt>
      <trkpt lat="47.02481" lon="-1.7371">
        <ele>22.15</ele>
        <time>2020-05-20T17:05:17Z</time>
      </trkpt>
      <trkpt lat="47.02493" lon="-1.73707">
        <ele>21.73</ele>
        <time>2020-05-20T17:05:19Z</time>
      </trkpt>
      <trkpt lat="47.02506" lon="-1.73706">
        <ele>21.95</ele>
        <time>2020-05-20T17:05:21Z</time>
      </trkpt>
      <trkpt lat="47.02517" lon="-1.73704">
        <ele>23.15</ele>
        <time>2020-05-20T17:05:23Z</time>
      </trkpt>
      <trkpt lat="47.0253" lon="-1.73701">
        <ele>25.47</ele>
        <time>2020-05-20T17:05:25Z</time>
      </trkpt>
      <trkpt lat="47.02544" lon="-1.73699">
        <ele>27.51</ele>
        <time>2020-05-20T17:05:27Z</time>
      </trkpt>
      <trkpt lat="47.02558" lon="-1.73696">
        <ele>29.13</ele>
        <time>2020-05-20T17:05:29Z</time>
      </trkpt>
      <trkpt lat="47.0257" lon="-1.73694">
        <ele>30.59</ele>
        <time>2020-05-20T17:05:31Z</time>
      </trkpt>
      <trkpt lat="47.02582" lon="-1.73692">
        <ele>31.81</ele>
        <time>2020-05-20T17:05:33Z</time>
      </trkpt>
      <trkpt lat="47.02594" lon="-1.7369">
        <ele>31.61</ele>
        <time>2020-05-20T17:05:35Z</time>
      </trkpt>
      <trkpt lat="47.02607" lon="-1.73688">
        <ele>30.88</ele>
        <time>2020-05-20T17:05:37Z</time>
      </trkpt>
      <trkpt lat="47.02616" lon="-1.73684">
        <ele>29.91</ele>
        <time>2020-05-20T17:05:39Z</time>
      </trkpt>
      <trkpt lat="47.02628" lon="-1.73681">
        <ele>29</ele>
        <time>2020-05-20T17:05:41Z</time>
      </trkpt>
      <trkpt lat="47.02639" lon="-1.7368">
        <ele>28.11</ele>
        <time>2020-05-20T17:05:43Z</time>
      </trkpt>
      <trkpt lat="47.0265" lon="-1.73677">
        <ele>26.77</ele>
        <time>2020-05-20T17:05:45Z</time>
      </trkpt>
      <trkpt lat="47.02662" lon="-1.73674">
        <ele>26.66</ele>
        <time>2020-05-20T17:05:47Z</time>
      </trkpt>
      <trkpt lat="47.02673" lon="-1.73672">
        <ele>27.65</ele>
        <time>2020-05-20T17:05:49Z</time>
      </trkpt>
      <trkpt lat="47.02684" lon="-1.7367">
        <ele>29.15</ele>
        <time>2020-05-20T17:05:51Z</time>
      </trkpt>
      <trkpt lat="47.02699" lon="-1.73667">
        <ele>29.49</ele>
        <time>2020-05-20T17:05:53Z</time>
      </trkpt>
      <trkpt lat="47.0271" lon="-1.73666">
        <ele>30.14</ele>
        <time>2020-05-20T17:05:55Z</time>
      </trkpt>
      <trkpt lat="47.02722" lon="-1.73664">
        <ele>30.95</ele>
        <time>2020-05-20T17:05:57Z</time>
      </trkpt>
      <trkpt lat="47.02733" lon="-1.73661">
        <ele>31.06</ele>
        <time>2020-05-20T17:05:59Z</time>
      </trkpt>
      <trkpt lat="47.02742" lon="-1.73658">
        <ele>30.69</ele>
        <time>2020-05-20T17:06:01Z</time>
      </trkpt>
      <trkpt lat="47.02753" lon="-1.73656">
        <ele>29.78</ele>
        <time>2020-05-20T17:06:03Z</time>
      </trkpt>
      <trkpt lat="47.02767" lon="-1.73653">
        <ele>29.61</ele>
        <time>2020-05-20T17:06:05Z</time>
      </trkpt>
      <trkpt lat="47.02778" lon="-1.73651">
        <ele>29.53</ele>
        <time>2020-05-20T17:06:07Z</time>
      </trkpt>
      <trkpt lat="47.0279" lon="-1.73649">
        <ele>28.82</ele>
        <time>2020-05-20T17:06:09Z</time>
      </trkpt>
      <trkpt lat="47.02801" lon="-1.73647">
        <ele>28.01</ele>
        <time>2020-05-20T17:06:11Z</time>
      </trkpt>
      <trkpt lat="47.02813" lon="-1.73643">
        <ele>26.48</ele>
        <time>2020-05-20T17:06:13Z</time>
      </trkpt>
      <trkpt lat="47.02826" lon="-1.73641">
        <ele>25.59</ele>
        <time>2020-05-20T17:06:15Z</time>
      </trkpt>
      <trkpt lat="47.02836" lon="-1.73639">
        <ele>25.57</ele>
        <time>2020-05-20T17:06:17Z</time>
      </trkpt>
      <trkpt lat="47.0285" lon="-1.73638">
        <ele>26.25</ele>
        <time>2020-05-20T17:06:19Z</time>
      </trkpt>
      <trkpt lat="47.02864" lon="-1.73636">
        <ele>26.63</ele>
        <time>2020-05-20T17:06:21Z</time>
      </trkpt>
      <trkpt lat="47.02878" lon="-1.73634">
        <ele>27.3</ele>
        <time>2020-05-20T17:06:23Z</time>
      </trkpt>
      <trkpt lat="47.02889" lon="-1.73631">
        <ele>27.33</ele>
        <time>2020-05-20T17:06:25Z</time>
      </trkpt>
      <trkpt lat="47.02901" lon="-1.73629">
        <ele>27.21</ele>
        <time>2020-05-20T17:06:27Z</time>
      </trkpt>
      <trkpt lat="47.02913" lon="-1.73626">
        <ele>26.6</ele>
        <time>2020-05-20T17:06:29Z</time>
      </trkpt>
      <trkpt lat="47.02925" lon="-1.73624">
        <ele>25.65</ele>
        <time>2020-05-20T17:06:31Z</time>
      </trkpt>
      <trkpt lat="47.02937" lon="-1.73622">
        <ele>24.13</ele>
        <time>2020-05-20T17:06:33Z</time>
      </trkpt>
      <trkpt lat="47.02949" lon="-1.73619">
        <ele>22.95</ele>
        <time>2020-05-20T17:06:35Z</time>
      </trkpt>
      <trkpt lat="47.02961" lon="-1.73618">
        <ele>22.56</ele>
        <time>2020-05-20T17:06:37Z</time>
      </trkpt>
      <trkpt lat="47.02975" lon="-1.73616">
        <ele>24.72</ele>
        <time>2020-05-20T17:06:39Z</time>
      </trkpt>
      <trkpt lat="47.02985" lon="-1.73615">
        <ele>27.4</ele>
        <time>2020-05-20T17:06:41Z</time>
      </trkpt>
      <trkpt lat="47.02995" lon="-1.73613">
        <ele>29.75</ele>
        <time>2020-05-20T17:06:43Z</time>
      </trkpt>
      <trkpt lat="47.03008" lon="-1.7361">
        <ele>30.64</ele>
        <time>2020-05-20T17:06:45Z</time>
      </trkpt>
      <trkpt lat="47.03021" lon="-1.73607">
        <ele>30.67</ele>
        <time>2020-05-20T17:06:47Z</time>
      </trkpt>
      <trkpt lat="47.03034" lon="-1.73603">
        <ele>31.04</ele>
        <time>2020-05-20T17:06:49Z</time>
      </trkpt>
      <trkpt lat="47.03047" lon="-1.73601">
        <ele>31.31</ele>
        <time>2020-05-20T17:06:51Z</time>
      </trkpt>
      <trkpt lat="47.03057" lon="-1.73599">
        <ele>31.48</ele>
        <time>2020-05-20T17:06:53Z</time>
      </trkpt>
      <trkpt lat="47.03069" lon="-1.73596">
        <ele>31.41</ele>
        <time>2020-05-20T17:06:55Z</time>
      </trkpt>
      <trkpt lat="47.03079" lon="-1.73586">
        <ele>31.65</ele>
        <time>2020-05-20T17:06:57Z</time>
      </trkpt>
      <trkpt lat="47.03084" lon="-1.73569">
        <ele>31.05</ele>
        <time>2020-05-20T17:06:59Z</time>
      </trkpt>
      <trkpt lat="47.03089" lon="-1.73552">
        <ele>30.71</ele>
        <time>2020-05-20T17:07:01Z</time>
      </trkpt>
      <trkpt lat="47.03094" lon="-1.73536">
        <ele>29.98</ele>
        <time>2020-05-20T17:07:03Z</time>
      </trkpt>
      <trkpt lat="47.03099" lon="-1.73521">
        <ele>29.12</ele>
        <time>2020-05-20T17:07:05Z</time>
      </trkpt>
      <trkpt lat="47.03104" lon="-1.73507">
        <ele>28.58</ele>
        <time>2020-05-20T17:07:07Z</time>
      </trkpt>
      <trkpt lat="47.0311" lon="-1.7349">
        <ele>27.69</ele>
        <time>2020-05-20T17:07:09Z</time>
      </trkpt>
      <trkpt lat="47.03116" lon="-1.73475">
        <ele>27.68</ele>
        <time>2020-05-20T17:07:11Z</time>
      </trkpt>
      <trkpt lat="47.03122" lon="-1.73461">
        <ele>28.72</ele>
        <time>2020-05-20T17:07:13Z</time>
      </trkpt>
      <trkpt lat="47.03129" lon="-1.73447">
        <ele>28.36</ele>
        <time>2020-05-20T17:07:15Z</time>
      </trkpt>
      <trkpt lat="47.03137" lon="-1.73433">
        <ele>29.49</ele>
        <time>2020-05-20T17:07:17Z</time>
      </trkpt>
      <trkpt lat="47.03144" lon="-1.73416">
        <ele>31.03</ele>
        <time>2020-05-20T17:07:19Z</time>
      </trkpt>
      <trkpt lat="47.03149" lon="-1.73399">
        <ele>31.42</ele>
        <time>2020-05-20T17:07:21Z</time>
      </trkpt>
      <trkpt lat="47.03155" lon="-1.73383">
        <ele>31.23</ele>
        <time>2020-05-20T17:07:23Z</time>
      </trkpt>
      <trkpt lat="47.03159" lon="-1.73367">
        <ele>30.99</ele>
        <time>2020-05-20T17:07:25Z</time>
      </trkpt>
      <trkpt lat="47.03164" lon="-1.73348">
        <ele>30.01</ele>
        <time>2020-05-20T17:07:27Z</time>
      </trkpt>
      <trkpt lat="47.03168" lon="-1.73333">
        <ele>29.56</ele>
        <time>2020-05-20T17:07:29Z</time>
      </trkpt>
      <trkpt lat="47.03173" lon="-1.73317">
        <ele>29.45</ele>
        <time>2020-05-20T17:07:31Z</time>
      </trkpt>
      <trkpt lat="47.03178" lon="-1.73303">
        <ele>30.06</ele>
        <time>2020-05-20T17:07:33Z</time>
      </trkpt>
      <trkpt lat="47.03185" lon="-1.73289">
        <ele>29.92</ele>
        <time>2020-05-20T17:07:35Z</time>
      </trkpt>
      <trkpt lat="47.03193" lon="-1.73272">
        <ele>29.7</ele>
        <time>2020-05-20T17:07:37Z</time>
      </trkpt>
      <trkpt lat="47.03202" lon="-1.73254">
        <ele>30.8</ele>
        <time>2020-05-20T17:07:39Z</time>
      </trkpt>
      <trkpt lat="47.03209" lon="-1.73238">
        <ele>30.71</ele>
        <time>2020-05-20T17:07:41Z</time>
      </trkpt>
      <trkpt lat="47.03216" lon="-1.73219">
        <ele>30.14</ele>
        <time>2020-05-20T17:07:43Z</time>
      </trkpt>
      <trkpt lat="47.03222" lon="-1.73203">
        <ele>29.93</ele>
        <time>2020-05-20T17:07:45Z</time>
      </trkpt>
      <trkpt lat="47.03229" lon="-1.73187">
        <ele>29.7</ele>
        <time>2020-05-20T17:07:47Z</time>
      </trkpt>
      <trkpt lat="47.03235" lon="-1.73169">
        <ele>29.13</ele>
        <time>2020-05-20T17:07:49Z</time>
      </trkpt>
      <trkpt lat="47.03242" lon="-1.73152">
        <ele>29.36</ele>
        <time>2020-05-20T17:07:51Z</time>
      </trkpt>
      <trkpt lat="47.03247" lon="-1.73134">
        <ele>30.63</ele>
        <time>2020-05-20T17:07:53Z</time>
      </trkpt>
      <trkpt lat="47.03249" lon="-1.73113">
        <ele>30.7</ele>
        <time>2020-05-20T17:07:55Z</time>
      </trkpt>
      <trkpt lat="47.03249" lon="-1.73092">
        <ele>29.83</ele>
        <time>2020-05-20T17:07:57Z</time>
      </trkpt>
      <trkpt lat="47.03247" lon="-1.73072">
        <ele>29.14</ele>
        <time>2020-05-20T17:07:59Z</time>
      </trkpt>
      <trkpt lat="47.03245" lon="-1.73052">
        <ele>29.74</ele>
        <time>2020-05-20T17:08:01Z</time>
      </trkpt>
      <trkpt lat="47.03243" lon="-1.73032">
        <ele>30.69</ele>
        <time>2020-05-20T17:08:03Z</time>
      </trkpt>
      <trkpt lat="47.0324" lon="-1.73014">
        <ele>32</ele>
        <time>2020-05-20T17:08:05Z</time>
      </trkpt>
      <trkpt lat="47.03238" lon="-1.72996">
        <ele>33.7</ele>
        <time>2020-05-20T17:08:07Z</time>
      </trkpt>
      <trkpt lat="47.03237" lon="-1.72977">
        <ele>35.69</ele>
        <time>2020-05-20T17:08:09Z</time>
      </trkpt>
      <trkpt lat="47.03238" lon="-1.72957">
        <ele>36.84</ele>
        <time>2020-05-20T17:08:11Z</time>
      </trkpt>
      <trkpt lat="47.03241" lon="-1.72939">
        <ele>37.08</ele>
        <time>2020-05-20T17:08:13Z</time>
      </trkpt>
      <trkpt lat="47.03245" lon="-1.72923">
        <ele>36.41</ele>
        <time>2020-05-20T17:08:15Z</time>
      </trkpt>
      <trkpt lat="47.03247" lon="-1.72907">
        <ele>36.15</ele>
        <time>2020-05-20T17:08:17Z</time>
      </trkpt>
      <trkpt lat="47.03247" lon="-1.7289">
        <ele>35.93</ele>
        <time>2020-05-20T17:08:19Z</time>
      </trkpt>
      <trkpt lat="47.03246" lon="-1.72872">
        <ele>35.21</ele>
        <time>2020-05-20T17:08:21Z</time>
      </trkpt>
      <trkpt lat="47.03246" lon="-1.72854">
        <ele>35.03</ele>
        <time>2020-05-20T17:08:23Z</time>
      </trkpt>
      <trkpt lat="47.03247" lon="-1.72837">
        <ele>36.26</ele>
        <time>2020-05-20T17:08:25Z</time>
      </trkpt>
      <trkpt lat="47.03249" lon="-1.72819">
        <ele>37.74</ele>
        <time>2020-05-20T17:08:27Z</time>
      </trkpt>
      <trkpt lat="47.0325" lon="-1.728">
        <ele>38.99</ele>
        <time>2020-05-20T17:08:29Z</time>
      </trkpt>
      <trkpt lat="47.0325" lon="-1.72785">
        <ele>40.24</ele>
        <time>2020-05-20T17:08:31Z</time>
      </trkpt>
      <trkpt lat="47.0325" lon="-1.72765">
        <ele>40.13</ele>
        <time>2020-05-20T17:08:33Z</time>
      </trkpt>
      <trkpt lat="47.0325" lon="-1.7275">
        <ele>40.41</ele>
        <time>2020-05-20T17:08:35Z</time>
      </trkpt>
      <trkpt lat="47.0325" lon="-1.72731">
        <ele>40.58</ele>
        <time>2020-05-20T17:08:37Z</time>
      </trkpt>
      <trkpt lat="47.03251" lon="-1.72712">
        <ele>40.65</ele>
        <time>2020-05-20T17:08:39Z</time>
      </trkpt>
      <trkpt lat="47.03256" lon="-1.72698">
        <ele>41.07</ele>
        <time>2020-05-20T17:08:41Z</time>
      </trkpt>
      <trkpt lat="47.03267" lon="-1.72687">
        <ele>41.69</ele>
        <time>2020-05-20T17:08:43Z</time>
      </trkpt>
      <trkpt lat="47.03275" lon="-1.7268">
        <ele>41.3</ele>
        <time>2020-05-20T17:08:45Z</time>
      </trkpt>
      <trkpt lat="47.03284" lon="-1.72672">
        <ele>39.46</ele>
        <time>2020-05-20T17:08:47Z</time>
      </trkpt>
      <trkpt lat="47.03293" lon="-1.72662">
        <ele>37.28</ele>
        <time>2020-05-20T17:08:49Z</time>
      </trkpt>
      <trkpt lat="47.03302" lon="-1.7265">
        <ele>35.02</ele>
        <time>2020-05-20T17:08:51Z</time>
      </trkpt>
      <trkpt lat="47.03311" lon="-1.72639">
        <ele>33.13</ele>
        <time>2020-05-20T17:08:53Z</time>
      </trkpt>
      <trkpt lat="47.0332" lon="-1.72628">
        <ele>31.42</ele>
        <time>2020-05-20T17:08:55Z</time>
      </trkpt>
      <trkpt lat="47.0333" lon="-1.72616">
        <ele>30.61</ele>
        <time>2020-05-20T17:08:57Z</time>
      </trkpt>
      <trkpt lat="47.0334" lon="-1.72605">
        <ele>30.29</ele>
        <time>2020-05-20T17:08:59Z</time>
      </trkpt>
      <trkpt lat="47.0335" lon="-1.72592">
        <ele>30.05</ele>
        <time>2020-05-20T17:09:01Z</time>
      </trkpt>
      <trkpt lat="47.03359" lon="-1.7258">
        <ele>29.81</ele>
        <time>2020-05-20T17:09:03Z</time>
      </trkpt>
      <trkpt lat="47.03368" lon="-1.72567">
        <ele>30.04</ele>
        <time>2020-05-20T17:09:05Z</time>
      </trkpt>
      <trkpt lat="47.03378" lon="-1.72554">
        <ele>30.18</ele>
        <time>2020-05-20T17:09:07Z</time>
      </trkpt>
      <trkpt lat="47.03387" lon="-1.72542">
        <ele>29.41</ele>
        <time>2020-05-20T17:09:09Z</time>
      </trkpt>
      <trkpt lat="47.03398" lon="-1.72528">
        <ele>29.63</ele>
        <time>2020-05-20T17:09:11Z</time>
      </trkpt>
      <trkpt lat="47.03408" lon="-1.72515">
        <ele>29.72</ele>
        <time>2020-05-20T17:09:13Z</time>
      </trkpt>
      <trkpt lat="47.03418" lon="-1.72502">
        <ele>29.8</ele>
        <time>2020-05-20T17:09:15Z</time>
      </trkpt>
      <trkpt lat="47.03429" lon="-1.7249">
        <ele>28.76</ele>
        <time>2020-05-20T17:09:17Z</time>
      </trkpt>
      <trkpt lat="47.03439" lon="-1.72478">
        <ele>26.93</ele>
        <time>2020-05-20T17:09:19Z</time>
      </trkpt>
      <trkpt lat="47.03448" lon="-1.72465">
        <ele>25.3</ele>
        <time>2020-05-20T17:09:21Z</time>
      </trkpt>
      <trkpt lat="47.03458" lon="-1.72454">
        <ele>23.9</ele>
        <time>2020-05-20T17:09:23Z</time>
      </trkpt>
      <trkpt lat="47.03466" lon="-1.72443">
        <ele>23.44</ele>
        <time>2020-05-20T17:09:25Z</time>
      </trkpt>
      <trkpt lat="47.03477" lon="-1.72428">
        <ele>23.23</ele>
        <time>2020-05-20T17:09:27Z</time>
      </trkpt>
      <trkpt lat="47.03486" lon="-1.72414">
        <ele>23.6</ele>
        <time>2020-05-20T17:09:29Z</time>
      </trkpt>
      <trkpt lat="47.03497" lon="-1.72399">
        <ele>25.13</ele>
        <time>2020-05-20T17:09:31Z</time>
      </trkpt>
      <trkpt lat="47.03506" lon="-1.72385">
        <ele>26.82</ele>
        <time>2020-05-20T17:09:33Z</time>
      </trkpt>
      <trkpt lat="47.03517" lon="-1.72372">
        <ele>27.68</ele>
        <time>2020-05-20T17:09:35Z</time>
      </trkpt>
      <trkpt lat="47.03526" lon="-1.72363">
        <ele>27.71</ele>
        <time>2020-05-20T17:09:37Z</time>
      </trkpt>
      <trkpt lat="47.03536" lon="-1.72353">
        <ele>27.05</ele>
        <time>2020-05-20T17:09:39Z</time>
      </trkpt>
      <trkpt lat="47.03547" lon="-1.72344">
        <ele>26.6</ele>
        <time>2020-05-20T17:09:41Z</time>
      </trkpt>
      <trkpt lat="47.03554" lon="-1.72336">
        <ele>25.42</ele>
        <time>2020-05-20T17:09:43Z</time>
      </trkpt>
      <trkpt lat="47.03565" lon="-1.72327">
        <ele>24.1</ele>
        <time>2020-05-20T17:09:45Z</time>
      </trkpt>
      <trkpt lat="47.03575" lon="-1.72317">
        <ele>24.75</ele>
        <time>2020-05-20T17:09:47Z</time>
      </trkpt>
      <trkpt lat="47.03586" lon="-1.72308">
        <ele>26.54</ele>
        <time>2020-05-20T17:09:49Z</time>
      </trkpt>
      <trkpt lat="47.03595" lon="-1.72299">
        <ele>27.51</ele>
        <time>2020-05-20T17:09:51Z</time>
      </trkpt>
      <trkpt lat="47.03607" lon="-1.7229">
        <ele>27.15</ele>
        <time>2020-05-20T17:09:53Z</time>
      </trkpt>
      <trkpt lat="47.03618" lon="-1.7228">
        <ele>26.43</ele>
        <time>2020-05-20T17:09:55Z</time>
      </trkpt>
      <trkpt lat="47.0363" lon="-1.7227">
        <ele>26.59</ele>
        <time>2020-05-20T17:09:57Z</time>
      </trkpt>
      <trkpt lat="47.03641" lon="-1.72261">
        <ele>27</ele>
        <time>2020-05-20T17:09:59Z</time>
      </trkpt>
      <trkpt lat="47.0365" lon="-1.72253">
        <ele>27.75</ele>
        <time>2020-05-20T17:10:01Z</time>
      </trkpt>
      <trkpt lat="47.03659" lon="-1.72244">
        <ele>28.64</ele>
        <time>2020-05-20T17:10:03Z</time>
      </trkpt>
      <trkpt lat="47.03668" lon="-1.72236">
        <ele>29.32</ele>
        <time>2020-05-20T17:10:05Z</time>
      </trkpt>
      <trkpt lat="47.03677" lon="-1.72225">
        <ele>29.9</ele>
        <time>2020-05-20T17:10:07Z</time>
      </trkpt>
      <trkpt lat="47.03688" lon="-1.72216">
        <ele>30.24</ele>
        <time>2020-05-20T17:10:09Z</time>
      </trkpt>
      <trkpt lat="47.037" lon="-1.72206">
        <ele>29.82</ele>
        <time>2020-05-20T17:10:11Z</time>
      </trkpt>
      <trkpt lat="47.03712" lon="-1.72197">
        <ele>29.58</ele>
        <time>2020-05-20T17:10:13Z</time>
      </trkpt>
      <trkpt lat="47.03721" lon="-1.72189">
        <ele>28.98</ele>
        <time>2020-05-20T17:10:15Z</time>
      </trkpt>
      <trkpt lat="47.03732" lon="-1.72181">
        <ele>28.18</ele>
        <time>2020-05-20T17:10:17Z</time>
      </trkpt>
      <trkpt lat="47.03745" lon="-1.72174">
        <ele>27.23</ele>
        <time>2020-05-20T17:10:19Z</time>
      </trkpt>
      <trkpt lat="47.03758" lon="-1.72171">
        <ele>26.65</ele>
        <time>2020-05-20T17:10:21Z</time>
      </trkpt>
      <trkpt lat="47.03771" lon="-1.72175">
        <ele>26.7</ele>
        <time>2020-05-20T17:10:23Z</time>
      </trkpt>
      <trkpt lat="47.03783" lon="-1.72186">
        <ele>27.14</ele>
        <time>2020-05-20T17:10:25Z</time>
      </trkpt>
      <trkpt lat="47.03793" lon="-1.72202">
        <ele>28.29</ele>
        <time>2020-05-20T17:10:27Z</time>
      </trkpt>
      <trkpt lat="47.03802" lon="-1.72217">
        <ele>29.46</ele>
        <time>2020-05-20T17:10:29Z</time>
      </trkpt>
      <trkpt lat="47.03811" lon="-1.72226">
        <ele>30.04</ele>
        <time>2020-05-20T17:10:31Z</time>
      </trkpt>
      <trkpt lat="47.03821" lon="-1.72226">
        <ele>29.48</ele>
        <time>2020-05-20T17:10:33Z</time>
      </trkpt>
      <trkpt lat="47.03833" lon="-1.72222">
        <ele>28.92</ele>
        <time>2020-05-20T17:10:35Z</time>
      </trkpt>
      <trkpt lat="47.03845" lon="-1.72217">
        <ele>29.15</ele>
        <time>2020-05-20T17:10:37Z</time>
      </trkpt>
      <trkpt lat="47.03857" lon="-1.72213">
        <ele>29.78</ele>
        <time>2020-05-20T17:10:39Z</time>
      </trkpt>
      <trkpt lat="47.03868" lon="-1.72207">
        <ele>31.01</ele>
        <time>2020-05-20T17:10:41Z</time>
      </trkpt>
      <trkpt lat="47.03882" lon="-1.72201">
        <ele>32.29</ele>
        <time>2020-05-20T17:10:43Z</time>
      </trkpt>
      <trkpt lat="47.03897" lon="-1.72197">
        <ele>31.75</ele>
        <time>2020-05-20T17:10:45Z</time>
      </trkpt>
      <trkpt lat="47.0391" lon="-1.72195">
        <ele>31.23</ele>
        <time>2020-05-20T17:10:47Z</time>
      </trkpt>
      <trkpt lat="47.03924" lon="-1.72194">
        <ele>30.44</ele>
        <time>2020-05-20T17:10:49Z</time>
      </trkpt>
      <trkpt lat="47.03936" lon="-1.72193">
        <ele>29.21</ele>
        <time>2020-05-20T17:10:51Z</time>
      </trkpt>
      <trkpt lat="47.0395" lon="-1.72194">
        <ele>28.8</ele>
        <time>2020-05-20T17:10:53Z</time>
      </trkpt>
      <trkpt lat="47.03961" lon="-1.72194">
        <ele>29.02</ele>
        <time>2020-05-20T17:10:55Z</time>
      </trkpt>
      <trkpt lat="47.03972" lon="-1.72194">
        <ele>29.57</ele>
        <time>2020-05-20T17:10:57Z</time>
      </trkpt>
      <trkpt lat="47.03983" lon="-1.72193">
        <ele>29.94</ele>
        <time>2020-05-20T17:10:59Z</time>
      </trkpt>
      <trkpt lat="47.0399" lon="-1.72183">
        <ele>28.91</ele>
        <time>2020-05-20T17:11:01Z</time>
      </trkpt>
      <trkpt lat="47.03989" lon="-1.72169">
        <ele>27.98</ele>
        <time>2020-05-20T17:11:03Z</time>
      </trkpt>
      <trkpt lat="47.03989" lon="-1.7215">
        <ele>27.83</ele>
        <time>2020-05-20T17:11:05Z</time>
      </trkpt>
      <trkpt lat="47.03991" lon="-1.72133">
        <ele>26.78</ele>
        <time>2020-05-20T17:11:07Z</time>
      </trkpt>
      <trkpt lat="47.03999" lon="-1.72119">
        <ele>25.75</ele>
        <time>2020-05-20T17:11:09Z</time>
      </trkpt>
      <trkpt lat="47.04011" lon="-1.72109">
        <ele>25.12</ele>
        <time>2020-05-20T17:11:11Z</time>
      </trkpt>
      <trkpt lat="47.04023" lon="-1.72099">
        <ele>25.64</ele>
        <time>2020-05-20T17:11:13Z</time>
      </trkpt>
      <trkpt lat="47.04036" lon="-1.7209">
        <ele>27.63</ele>
        <time>2020-05-20T17:11:15Z</time>
      </trkpt>
      <trkpt lat="47.04047" lon="-1.72082">
        <ele>30.03</ele>
        <time>2020-05-20T17:11:17Z</time>
      </trkpt>
      <trkpt lat="47.04058" lon="-1.72075">
        <ele>31.95</ele>
        <time>2020-05-20T17:11:19Z</time>
      </trkpt>
      <trkpt lat="47.04069" lon="-1.72068">
        <ele>32.56</ele>
        <time>2020-05-20T17:11:21Z</time>
      </trkpt>
      <trkpt lat="47.0408" lon="-1.72061">
        <ele>32.43</ele>
        <time>2020-05-20T17:11:23Z</time>
      </trkpt>
      <trkpt lat="47.04091" lon="-1.72053">
        <ele>32.39</ele>
        <time>2020-05-20T17:11:25Z</time>
      </trkpt>
      <trkpt lat="47.04102" lon="-1.72045">
        <ele>32.66</ele>
        <time>2020-05-20T17:11:27Z</time>
      </trkpt>
      <trkpt lat="47.04113" lon="-1.72037">
        <ele>32.91</ele>
        <time>2020-05-20T17:11:29Z</time>
      </trkpt>
      <trkpt lat="47.04124" lon="-1.7203">
        <ele>34.08</ele>
        <time>2020-05-20T17:11:31Z</time>
      </trkpt>
      <trkpt lat="47.04134" lon="-1.72021">
        <ele>35.57</ele>
        <time>2020-05-20T17:11:33Z</time>
      </trkpt>
      <trkpt lat="47.04144" lon="-1.72014">
        <ele>35.92</ele>
        <time>2020-05-20T17:11:35Z</time>
      </trkpt>
      <trkpt lat="47.04155" lon="-1.72006">
        <ele>35.69</ele>
        <time>2020-05-20T17:11:37Z</time>
      </trkpt>
      <trkpt lat="47.04165" lon="-1.71998">
        <ele>35.08</ele>
        <time>2020-05-20T17:11:39Z</time>
      </trkpt>
      <trkpt lat="47.04176" lon="-1.71989">
        <ele>35.35</ele>
        <time>2020-05-20T17:11:41Z</time>
      </trkpt>
      <trkpt lat="47.04187" lon="-1.71981">
        <ele>34.87</ele>
        <time>2020-05-20T17:11:43Z</time>
      </trkpt>
      <trkpt lat="47.04197" lon="-1.71974">
        <ele>34.57</ele>
        <time>2020-05-20T17:11:45Z</time>
      </trkpt>
      <trkpt lat="47.04207" lon="-1.71967">
        <ele>34.33</ele>
        <time>2020-05-20T17:11:47Z</time>
      </trkpt>
      <trkpt lat="47.04218" lon="-1.71959">
        <ele>33.88</ele>
        <time>2020-05-20T17:11:49Z</time>
      </trkpt>
      <trkpt lat="47.04229" lon="-1.71951">
        <ele>33.41</ele>
        <time>2020-05-20T17:11:51Z</time>
      </trkpt>
      <trkpt lat="47.04239" lon="-1.71943">
        <ele>33.93</ele>
        <time>2020-05-20T17:11:53Z</time>
      </trkpt>
      <trkpt lat="47.0425" lon="-1.71936">
        <ele>34.48</ele>
        <time>2020-05-20T17:11:55Z</time>
      </trkpt>
      <trkpt lat="47.04262" lon="-1.7193">
        <ele>35.47</ele>
        <time>2020-05-20T17:11:57Z</time>
      </trkpt>
      <trkpt lat="47.04272" lon="-1.71926">
        <ele>36.16</ele>
        <time>2020-05-20T17:11:59Z</time>
      </trkpt>
      <trkpt lat="47.04284" lon="-1.71922">
        <ele>36.44</ele>
        <time>2020-05-20T17:12:01Z</time>
      </trkpt>
      <trkpt lat="47.04295" lon="-1.71919">
        <ele>36.06</ele>
        <time>2020-05-20T17:12:03Z</time>
      </trkpt>
      <trkpt lat="47.04307" lon="-1.71915">
        <ele>35.4</ele>
        <time>2020-05-20T17:12:05Z</time>
      </trkpt>
      <trkpt lat="47.04319" lon="-1.71911">
        <ele>35.09</ele>
        <time>2020-05-20T17:12:07Z</time>
      </trkpt>
      <trkpt lat="47.04333" lon="-1.71907">
        <ele>34.93</ele>
        <time>2020-05-20T17:12:09Z</time>
      </trkpt>
      <trkpt lat="47.04346" lon="-1.71904">
        <ele>34.97</ele>
        <time>2020-05-20T17:12:11Z</time>
      </trkpt>
      <trkpt lat="47.04357" lon="-1.719">
        <ele>35.24</ele>
        <time>2020-05-20T17:12:13Z</time>
      </trkpt>
      <trkpt lat="47.0437" lon="-1.71895">
        <ele>35.28</ele>
        <time>2020-05-20T17:12:15Z</time>
      </trkpt>
      <trkpt lat="47.04382" lon="-1.71888">
        <ele>34.88</ele>
        <time>2020-05-20T17:12:17Z</time>
      </trkpt>
      <trkpt lat="47.04394" lon="-1.71878">
        <ele>35.36</ele>
        <time>2020-05-20T17:12:19Z</time>
      </trkpt>
      <trkpt lat="47.04404" lon="-1.71865">
        <ele>36.06</ele>
        <time>2020-05-20T17:12:21Z</time>
      </trkpt>
      <trkpt lat="47.04414" lon="-1.71852">
        <ele>35.81</ele>
        <time>2020-05-20T17:12:23Z</time>
      </trkpt>
      <trkpt lat="47.04423" lon="-1.71839">
        <ele>34.39</ele>
        <time>2020-05-20T17:12:25Z</time>
      </trkpt>
      <trkpt lat="47.04432" lon="-1.71828">
        <ele>32.94</ele>
        <time>2020-05-20T17:12:27Z</time>
      </trkpt>
      <trkpt lat="47.0444" lon="-1.71816">
        <ele>32.46</ele>
        <time>2020-05-20T17:12:29Z</time>
      </trkpt>
      <trkpt lat="47.04448" lon="-1.71805">
        <ele>32.02</ele>
        <time>2020-05-20T17:12:31Z</time>
      </trkpt>
      <trkpt lat="47.04457" lon="-1.71793">
        <ele>31.04</ele>
        <time>2020-05-20T17:12:33Z</time>
      </trkpt>
      <trkpt lat="47.04461" lon="-1.71776">
        <ele>30.82</ele>
        <time>2020-05-20T17:12:39Z</time>
      </trkpt>
      <trkpt lat="47.04463" lon="-1.71763">
        <ele>31.47</ele>
        <time>2020-05-20T17:12:41Z</time>
      </trkpt>
      <trkpt lat="47.04472" lon="-1.71749">
        <ele>30.76</ele>
        <time>2020-05-20T17:12:43Z</time>
      </trkpt>
      <trkpt lat="47.04482" lon="-1.71736">
        <ele>30.37</ele>
        <time>2020-05-20T17:12:45Z</time>
      </trkpt>
      <trkpt lat="47.04492" lon="-1.71725">
        <ele>29.97</ele>
        <time>2020-05-20T17:12:47Z</time>
      </trkpt>
      <trkpt lat="47.04504" lon="-1.71712">
        <ele>30.2</ele>
        <time>2020-05-20T17:12:49Z</time>
      </trkpt>
      <trkpt lat="47.04515" lon="-1.717">
        <ele>29.37</ele>
        <time>2020-05-20T17:12:51Z</time>
      </trkpt>
      <trkpt lat="47.04529" lon="-1.71683">
        <ele>27.23</ele>
        <time>2020-05-20T17:12:53Z</time>
      </trkpt>
      <trkpt lat="47.04536" lon="-1.71675">
        <ele>26.14</ele>
        <time>2020-05-20T17:12:54Z</time>
      </trkpt>
      <trkpt lat="47.04543" lon="-1.71666">
        <ele>25.25</ele>
        <time>2020-05-20T17:12:55Z</time>
      </trkpt>
      <trkpt lat="47.04556" lon="-1.7165">
        <ele>23.35</ele>
        <time>2020-05-20T17:12:57Z</time>
      </trkpt>
      <trkpt lat="47.04563" lon="-1.71641">
        <ele>22.38</ele>
        <time>2020-05-20T17:12:58Z</time>
      </trkpt>
      <trkpt lat="47.04576" lon="-1.71626">
        <ele>21.32</ele>
        <time>2020-05-20T17:13:01Z</time>
      </trkpt>
      <trkpt lat="47.0459" lon="-1.71612">
        <ele>20.41</ele>
        <time>2020-05-20T17:13:02Z</time>
      </trkpt>
      <trkpt lat="47.04598" lon="-1.71604">
        <ele>19.71</ele>
        <time>2020-05-20T17:13:03Z</time>
      </trkpt>
      <trkpt lat="47.04611" lon="-1.71589">
        <ele>18.59</ele>
        <time>2020-05-20T17:13:06Z</time>
      </trkpt>
      <trkpt lat="47.04624" lon="-1.71574">
        <ele>17.56</ele>
        <time>2020-05-20T17:13:08Z</time>
      </trkpt>
      <trkpt lat="47.04637" lon="-1.71559">
        <ele>17.14</ele>
        <time>2020-05-20T17:13:10Z</time>
      </trkpt>
      <trkpt lat="47.04649" lon="-1.71544">
        <ele>17.68</ele>
        <time>2020-05-20T17:13:12Z</time>
      </trkpt>
      <trkpt lat="47.0466" lon="-1.71528">
        <ele>17.8</ele>
        <time>2020-05-20T17:13:14Z</time>
      </trkpt>
      <trkpt lat="47.0467" lon="-1.7151">
        <ele>17.02</ele>
        <time>2020-05-20T17:13:16Z</time>
      </trkpt>
      <trkpt lat="47.04679" lon="-1.71493">
        <ele>16.15</ele>
        <time>2020-05-20T17:13:18Z</time>
      </trkpt>
      <trkpt lat="47.04688" lon="-1.71477">
        <ele>16.73</ele>
        <time>2020-05-20T17:13:20Z</time>
      </trkpt>
      <trkpt lat="47.04697" lon="-1.71459">
        <ele>17.04</ele>
        <time>2020-05-20T17:13:22Z</time>
      </trkpt>
      <trkpt lat="47.04707" lon="-1.71442">
        <ele>17.17</ele>
        <time>2020-05-20T17:13:24Z</time>
      </trkpt>
      <trkpt lat="47.04716" lon="-1.71427">
        <ele>16.31</ele>
        <time>2020-05-20T17:13:26Z</time>
      </trkpt>
      <trkpt lat="47.04726" lon="-1.71411">
        <ele>15.69</ele>
        <time>2020-05-20T17:13:28Z</time>
      </trkpt>
      <trkpt lat="47.04735" lon="-1.71395">
        <ele>14.08</ele>
        <time>2020-05-20T17:13:30Z</time>
      </trkpt>
      <trkpt lat="47.04746" lon="-1.71377">
        <ele>12.81</ele>
        <time>2020-05-20T17:13:32Z</time>
      </trkpt>
      <trkpt lat="47.04756" lon="-1.71359">
        <ele>12.95</ele>
        <time>2020-05-20T17:13:34Z</time>
      </trkpt>
      <trkpt lat="47.04765" lon="-1.7134">
        <ele>14.22</ele>
        <time>2020-05-20T17:13:36Z</time>
      </trkpt>
      <trkpt lat="47.04775" lon="-1.71318">
        <ele>15.11</ele>
        <time>2020-05-20T17:13:38Z</time>
      </trkpt>
      <trkpt lat="47.04784" lon="-1.71299">
        <ele>14.8</ele>
        <time>2020-05-20T17:13:40Z</time>
      </trkpt>
      <trkpt lat="47.04792" lon="-1.71281">
        <ele>13.98</ele>
        <time>2020-05-20T17:13:42Z</time>
      </trkpt>
      <trkpt lat="47.04799" lon="-1.71263">
        <ele>12.39</ele>
        <time>2020-05-20T17:13:44Z</time>
      </trkpt>
      <trkpt lat="47.04806" lon="-1.71245">
        <ele>11.44</ele>
        <time>2020-05-20T17:13:46Z</time>
      </trkpt>
      <trkpt lat="47.04815" lon="-1.71224">
        <ele>10.24</ele>
        <time>2020-05-20T17:13:48Z</time>
      </trkpt>
      <trkpt lat="47.04823" lon="-1.71205">
        <ele>9.71</ele>
        <time>2020-05-20T17:13:50Z</time>
      </trkpt>
      <trkpt lat="47.0483" lon="-1.71187">
        <ele>9.28</ele>
        <time>2020-05-20T17:13:52Z</time>
      </trkpt>
      <trkpt lat="47.04839" lon="-1.71167">
        <ele>9.47</ele>
        <time>2020-05-20T17:13:54Z</time>
      </trkpt>
      <trkpt lat="47.04846" lon="-1.71148">
        <ele>10.14</ele>
        <time>2020-05-20T17:13:56Z</time>
      </trkpt>
      <trkpt lat="47.04853" lon="-1.71128">
        <ele>10.44</ele>
        <time>2020-05-20T17:13:58Z</time>
      </trkpt>
      <trkpt lat="47.04857" lon="-1.71115">
        <ele>10.65</ele>
        <time>2020-05-20T17:13:59Z</time>
      </trkpt>
      <trkpt lat="47.04865" lon="-1.71091">
        <ele>10.46</ele>
        <time>2020-05-20T17:14:01Z</time>
      </trkpt>
      <trkpt lat="47.04871" lon="-1.7107">
        <ele>10.28</ele>
        <time>2020-05-20T17:14:03Z</time>
      </trkpt>
      <trkpt lat="47.04876" lon="-1.71047">
        <ele>10.28</ele>
        <time>2020-05-20T17:14:05Z</time>
      </trkpt>
      <trkpt lat="47.04881" lon="-1.71025">
        <ele>11.12</ele>
        <time>2020-05-20T17:14:07Z</time>
      </trkpt>
      <trkpt lat="47.04886" lon="-1.71004">
        <ele>12.13</ele>
        <time>2020-05-20T17:14:09Z</time>
      </trkpt>
      <trkpt lat="47.04891" lon="-1.70984">
        <ele>11.95</ele>
        <time>2020-05-20T17:14:11Z</time>
      </trkpt>
      <trkpt lat="47.04896" lon="-1.70962">
        <ele>11.39</ele>
        <time>2020-05-20T17:14:13Z</time>
      </trkpt>
      <trkpt lat="47.04902" lon="-1.7094">
        <ele>10.1</ele>
        <time>2020-05-20T17:14:15Z</time>
      </trkpt>
      <trkpt lat="47.04906" lon="-1.70917">
        <ele>8.53</ele>
        <time>2020-05-20T17:14:17Z</time>
      </trkpt>
      <trkpt lat="47.0491" lon="-1.70896">
        <ele>7.53</ele>
        <time>2020-05-20T17:14:19Z</time>
      </trkpt>
      <trkpt lat="47.04914" lon="-1.70884">
        <ele>6.98</ele>
        <time>2020-05-20T17:14:20Z</time>
      </trkpt>
      <trkpt lat="47.04918" lon="-1.70865">
        <ele>6.64</ele>
        <time>2020-05-20T17:14:22Z</time>
      </trkpt>
      <trkpt lat="47.04923" lon="-1.70842">
        <ele>6.16</ele>
        <time>2020-05-20T17:14:24Z</time>
      </trkpt>
      <trkpt lat="47.04929" lon="-1.70817">
        <ele>5.72</ele>
        <time>2020-05-20T17:14:26Z</time>
      </trkpt>
      <trkpt lat="47.04935" lon="-1.70796">
        <ele>6.15</ele>
        <time>2020-05-20T17:14:28Z</time>
      </trkpt>
      <trkpt lat="47.0494" lon="-1.70776">
        <ele>6.75</ele>
        <time>2020-05-20T17:14:30Z</time>
      </trkpt>
      <trkpt lat="47.04946" lon="-1.70755">
        <ele>7.41</ele>
        <time>2020-05-20T17:14:32Z</time>
      </trkpt>
      <trkpt lat="47.0495" lon="-1.70735">
        <ele>7.71</ele>
        <time>2020-05-20T17:14:34Z</time>
      </trkpt>
      <trkpt lat="47.04955" lon="-1.70716">
        <ele>7.37</ele>
        <time>2020-05-20T17:14:36Z</time>
      </trkpt>
      <trkpt lat="47.04957" lon="-1.70694">
        <ele>6.94</ele>
        <time>2020-05-20T17:14:38Z</time>
      </trkpt>
      <trkpt lat="47.04959" lon="-1.70672">
        <ele>6.58</ele>
        <time>2020-05-20T17:14:40Z</time>
      </trkpt>
      <trkpt lat="47.04962" lon="-1.70648">
        <ele>6.62</ele>
        <time>2020-05-20T17:14:42Z</time>
      </trkpt>
      <trkpt lat="47.04964" lon="-1.70625">
        <ele>7.94</ele>
        <time>2020-05-20T17:14:44Z</time>
      </trkpt>
      <trkpt lat="47.04968" lon="-1.70603">
        <ele>8.97</ele>
        <time>2020-05-20T17:14:46Z</time>
      </trkpt>
      <trkpt lat="47.04974" lon="-1.70585">
        <ele>8.96</ele>
        <time>2020-05-20T17:14:48Z</time>
      </trkpt>
      <trkpt lat="47.04983" lon="-1.70566">
        <ele>8.69</ele>
        <time>2020-05-20T17:14:50Z</time>
      </trkpt>
      <trkpt lat="47.04992" lon="-1.70547">
        <ele>8.02</ele>
        <time>2020-05-20T17:14:52Z</time>
      </trkpt>
      <trkpt lat="47.05001" lon="-1.70527">
        <ele>7.31</ele>
        <time>2020-05-20T17:14:54Z</time>
      </trkpt>
      <trkpt lat="47.05009" lon="-1.70509">
        <ele>6.9</ele>
        <time>2020-05-20T17:14:56Z</time>
      </trkpt>
      <trkpt lat="47.05016" lon="-1.70492">
        <ele>6.47</ele>
        <time>2020-05-20T17:14:58Z</time>
      </trkpt>
      <trkpt lat="47.05023" lon="-1.70475">
        <ele>6.21</ele>
        <time>2020-05-20T17:15:00Z</time>
      </trkpt>
      <trkpt lat="47.05032" lon="-1.70455">
        <ele>6.28</ele>
        <time>2020-05-20T17:15:02Z</time>
      </trkpt>
      <trkpt lat="47.05041" lon="-1.70435">
        <ele>6.58</ele>
        <time>2020-05-20T17:15:04Z</time>
      </trkpt>
      <trkpt lat="47.05049" lon="-1.7042">
        <ele>6.59</ele>
        <time>2020-05-20T17:15:06Z</time>
      </trkpt>
      <trkpt lat="47.05057" lon="-1.70402">
        <ele>6.26</ele>
        <time>2020-05-20T17:15:08Z</time>
      </trkpt>
      <trkpt lat="47.05066" lon="-1.70386">
        <ele>5.53</ele>
        <time>2020-05-20T17:15:10Z</time>
      </trkpt>
      <trkpt lat="47.05074" lon="-1.70368">
        <ele>5.25</ele>
        <time>2020-05-20T17:15:12Z</time>
      </trkpt>
      <trkpt lat="47.05082" lon="-1.70354">
        <ele>4.21</ele>
        <time>2020-05-20T17:15:14Z</time>
      </trkpt>
      <trkpt lat="47.05092" lon="-1.70337">
        <ele>3.87</ele>
        <time>2020-05-20T17:15:16Z</time>
      </trkpt>
      <trkpt lat="47.05102" lon="-1.70322">
        <ele>3.94</ele>
        <time>2020-05-20T17:15:18Z</time>
      </trkpt>
      <trkpt lat="47.05113" lon="-1.70307">
        <ele>4.36</ele>
        <time>2020-05-20T17:15:20Z</time>
      </trkpt>
      <trkpt lat="47.05124" lon="-1.70293">
        <ele>4.84</ele>
        <time>2020-05-20T17:15:22Z</time>
      </trkpt>
      <trkpt lat="47.05135" lon="-1.70279">
        <ele>5.23</ele>
        <time>2020-05-20T17:15:24Z</time>
      </trkpt>
      <trkpt lat="47.05145" lon="-1.70267">
        <ele>4.78</ele>
        <time>2020-05-20T17:15:26Z</time>
      </trkpt>
      <trkpt lat="47.05156" lon="-1.70253">
        <ele>3.71</ele>
        <time>2020-05-20T17:15:28Z</time>
      </trkpt>
      <trkpt lat="47.05168" lon="-1.7024">
        <ele>2.89</ele>
        <time>2020-05-20T17:15:30Z</time>
      </trkpt>
      <trkpt lat="47.05179" lon="-1.70227">
        <ele>2.3</ele>
        <time>2020-05-20T17:15:32Z</time>
      </trkpt>
      <trkpt lat="47.05189" lon="-1.70215">
        <ele>1.81</ele>
        <time>2020-05-20T17:15:34Z</time>
      </trkpt>
      <trkpt lat="47.05199" lon="-1.70203">
        <ele>1.62</ele>
        <time>2020-05-20T17:15:36Z</time>
      </trkpt>
      <trkpt lat="47.05208" lon="-1.70191">
        <ele>1.23</ele>
        <time>2020-05-20T17:15:38Z</time>
      </trkpt>
      <trkpt lat="47.05218" lon="-1.70178">
        <ele>0.83</ele>
        <time>2020-05-20T17:15:40Z</time>
      </trkpt>
      <trkpt lat="47.05227" lon="-1.70166">
        <ele>0.47</ele>
        <time>2020-05-20T17:15:42Z</time>
      </trkpt>
      <trkpt lat="47.05235" lon="-1.70155">
        <ele>0.4</ele>
        <time>2020-05-20T17:15:44Z</time>
      </trkpt>
      <trkpt lat="47.05234" lon="-1.70141">
        <ele>0.62</ele>
        <time>2020-05-20T17:15:46Z</time>
      </trkpt>
      <trkpt lat="47.05228" lon="-1.70125">
        <ele>0.51</ele>
        <time>2020-05-20T17:15:48Z</time>
      </trkpt>
      <trkpt lat="47.05221" lon="-1.70107">
        <ele>0.07</ele>
        <time>2020-05-20T17:15:50Z</time>
      </trkpt>
      <trkpt lat="47.05215" lon="-1.7009">
        <ele>0.04</ele>
        <time>2020-05-20T17:15:52Z</time>
      </trkpt>
      <trkpt lat="47.05208" lon="-1.70072">
        <ele>-0.6</ele>
        <time>2020-05-20T17:15:54Z</time>
      </trkpt>
      <trkpt lat="47.05201" lon="-1.70054">
        <ele>-2.15</ele>
        <time>2020-05-20T17:15:56Z</time>
      </trkpt>
      <trkpt lat="47.05194" lon="-1.70038">
        <ele>-3.28</ele>
        <time>2020-05-20T17:15:58Z</time>
      </trkpt>
      <trkpt lat="47.05188" lon="-1.7002">
        <ele>-3.99</ele>
        <time>2020-05-20T17:16:00Z</time>
      </trkpt>
      <trkpt lat="47.0518" lon="-1.70002">
        <ele>-5.16</ele>
        <time>2020-05-20T17:16:02Z</time>
      </trkpt>
      <trkpt lat="47.05175" lon="-1.69986">
        <ele>-5.52</ele>
        <time>2020-05-20T17:16:04Z</time>
      </trkpt>
      <trkpt lat="47.05169" lon="-1.69969">
        <ele>-4.92</ele>
        <time>2020-05-20T17:16:06Z</time>
      </trkpt>
      <trkpt lat="47.05162" lon="-1.69951">
        <ele>-4.68</ele>
        <time>2020-05-20T17:16:08Z</time>
      </trkpt>
      <trkpt lat="47.05155" lon="-1.69934">
        <ele>-3.73</ele>
        <time>2020-05-20T17:16:10Z</time>
      </trkpt>
      <trkpt lat="47.05151" lon="-1.69919">
        <ele>-3.19</ele>
        <time>2020-05-20T17:16:12Z</time>
      </trkpt>
      <trkpt lat="47.05148" lon="-1.69898">
        <ele>-3.78</ele>
        <time>2020-05-20T17:16:14Z</time>
      </trkpt>
      <trkpt lat="47.05147" lon="-1.69879">
        <ele>-4.19</ele>
        <time>2020-05-20T17:16:16Z</time>
      </trkpt>
      <trkpt lat="47.05145" lon="-1.69859">
        <ele>-4.91</ele>
        <time>2020-05-20T17:16:18Z</time>
      </trkpt>
      <trkpt lat="47.05141" lon="-1.69842">
        <ele>-5.17</ele>
        <time>2020-05-20T17:16:20Z</time>
      </trkpt>
      <trkpt lat="47.05134" lon="-1.69824">
        <ele>-5.26</ele>
        <time>2020-05-20T17:16:22Z</time>
      </trkpt>
      <trkpt lat="47.05128" lon="-1.6981">
        <ele>-4.98</ele>
        <time>2020-05-20T17:16:24Z</time>
      </trkpt>
      <trkpt lat="47.0512" lon="-1.69797">
        <ele>-4.79</ele>
        <time>2020-05-20T17:16:26Z</time>
      </trkpt>
      <trkpt lat="47.05111" lon="-1.69782">
        <ele>-4.44</ele>
        <time>2020-05-20T17:16:28Z</time>
      </trkpt>
      <trkpt lat="47.05101" lon="-1.69769">
        <ele>-4.21</ele>
        <time>2020-05-20T17:16:30Z</time>
      </trkpt>
      <trkpt lat="47.05091" lon="-1.69759">
        <ele>-4</ele>
        <time>2020-05-20T17:16:32Z</time>
      </trkpt>
      <trkpt lat="47.0508" lon="-1.69748">
        <ele>-4.34</ele>
        <time>2020-05-20T17:16:34Z</time>
      </trkpt>
      <trkpt lat="47.0507" lon="-1.69736">
        <ele>-4.88</ele>
        <time>2020-05-20T17:16:36Z</time>
      </trkpt>
      <trkpt lat="47.0506" lon="-1.69726">
        <ele>-5.15</ele>
        <time>2020-05-20T17:16:38Z</time>
      </trkpt>
      <trkpt lat="47.0505" lon="-1.69714">
        <ele>-5.64</ele>
        <time>2020-05-20T17:16:40Z</time>
      </trkpt>
      <trkpt lat="47.0504" lon="-1.69703">
        <ele>-5.93</ele>
        <time>2020-05-20T17:16:42Z</time>
      </trkpt>
      <trkpt lat="47.05032" lon="-1.69693">
        <ele>-5.28</ele>
        <time>2020-05-20T17:16:44Z</time>
      </trkpt>
      <trkpt lat="47.05025" lon="-1.69683">
        <ele>-3.69</ele>
        <time>2020-05-20T17:16:46Z</time>
      </trkpt>
      <trkpt lat="47.05015" lon="-1.69672">
        <ele>-1.97</ele>
        <time>2020-05-20T17:16:48Z</time>
      </trkpt>
      <trkpt lat="47.05006" lon="-1.69659">
        <ele>-0.58</ele>
        <time>2020-05-20T17:16:50Z</time>
      </trkpt>
      <trkpt lat="47.04999" lon="-1.69647">
        <ele>0.37</ele>
        <time>2020-05-20T17:16:52Z</time>
      </trkpt>
      <trkpt lat="47.04992" lon="-1.6963">
        <ele>0.55</ele>
        <time>2020-05-20T17:16:54Z</time>
      </trkpt>
      <trkpt lat="47.04986" lon="-1.69612">
        <ele>1.02</ele>
        <time>2020-05-20T17:16:56Z</time>
      </trkpt>
      <trkpt lat="47.04981" lon="-1.69592">
        <ele>2.24</ele>
        <time>2020-05-20T17:16:58Z</time>
      </trkpt>
      <trkpt lat="47.04977" lon="-1.69576">
        <ele>3.06</ele>
        <time>2020-05-20T17:17:00Z</time>
      </trkpt>
      <trkpt lat="47.04972" lon="-1.69557">
        <ele>3.47</ele>
        <time>2020-05-20T17:17:02Z</time>
      </trkpt>
      <trkpt lat="47.04968" lon="-1.6954">
        <ele>4.16</ele>
        <time>2020-05-20T17:17:04Z</time>
      </trkpt>
      <trkpt lat="47.04963" lon="-1.69523">
        <ele>3.69</ele>
        <time>2020-05-20T17:17:06Z</time>
      </trkpt>
      <trkpt lat="47.04959" lon="-1.69506">
        <ele>3.04</ele>
        <time>2020-05-20T17:17:08Z</time>
      </trkpt>
      <trkpt lat="47.04954" lon="-1.6949">
        <ele>1.66</ele>
        <time>2020-05-20T17:17:10Z</time>
      </trkpt>
      <trkpt lat="47.04951" lon="-1.69474">
        <ele>1.07</ele>
        <time>2020-05-20T17:17:12Z</time>
      </trkpt>
      <trkpt lat="47.04947" lon="-1.69458">
        <ele>0.7</ele>
        <time>2020-05-20T17:17:14Z</time>
      </trkpt>
      <trkpt lat="47.04943" lon="-1.69439">
        <ele>1.28</ele>
        <time>2020-05-20T17:17:16Z</time>
      </trkpt>
      <trkpt lat="47.04937" lon="-1.69421">
        <ele>0.13</ele>
        <time>2020-05-20T17:17:18Z</time>
      </trkpt>
      <trkpt lat="47.04932" lon="-1.69406">
        <ele>-1.31</ele>
        <time>2020-05-20T17:17:20Z</time>
      </trkpt>
      <trkpt lat="47.04927" lon="-1.6939">
        <ele>-2.44</ele>
        <time>2020-05-20T17:17:22Z</time>
      </trkpt>
      <trkpt lat="47.04922" lon="-1.69373">
        <ele>-3.77</ele>
        <time>2020-05-20T17:17:24Z</time>
      </trkpt>
      <trkpt lat="47.04917" lon="-1.69355">
        <ele>-4.48</ele>
        <time>2020-05-20T17:17:26Z</time>
      </trkpt>
      <trkpt lat="47.04913" lon="-1.6934">
        <ele>-4.2</ele>
        <time>2020-05-20T17:17:28Z</time>
      </trkpt>
      <trkpt lat="47.04909" lon="-1.69324">
        <ele>-4.24</ele>
        <time>2020-05-20T17:17:30Z</time>
      </trkpt>
      <trkpt lat="47.04904" lon="-1.69309">
        <ele>-5.5</ele>
        <time>2020-05-20T17:17:32Z</time>
      </trkpt>
      <trkpt lat="47.049" lon="-1.69292">
        <ele>-4.72</ele>
        <time>2020-05-20T17:17:34Z</time>
      </trkpt>
      <trkpt lat="47.04896" lon="-1.69277">
        <ele>-4.1</ele>
        <time>2020-05-20T17:17:36Z</time>
      </trkpt>
      <trkpt lat="47.04892" lon="-1.6926">
        <ele>-3.16</ele>
        <time>2020-05-20T17:17:38Z</time>
      </trkpt>
      <trkpt lat="47.04887" lon="-1.69242">
        <ele>-2.71</ele>
        <time>2020-05-20T17:17:40Z</time>
      </trkpt>
      <trkpt lat="47.04883" lon="-1.69228">
        <ele>-2.56</ele>
        <time>2020-05-20T17:17:42Z</time>
      </trkpt>
      <trkpt lat="47.04879" lon="-1.69211">
        <ele>-2.23</ele>
        <time>2020-05-20T17:17:44Z</time>
      </trkpt>
      <trkpt lat="47.04875" lon="-1.69195">
        <ele>-2.11</ele>
        <time>2020-05-20T17:17:46Z</time>
      </trkpt>
      <trkpt lat="47.04871" lon="-1.69179">
        <ele>-1.7</ele>
        <time>2020-05-20T17:17:48Z</time>
      </trkpt>
      <trkpt lat="47.04868" lon="-1.69165">
        <ele>-1.23</ele>
        <time>2020-05-20T17:17:50Z</time>
      </trkpt>
      <trkpt lat="47.04864" lon="-1.69147">
        <ele>-1.1</ele>
        <time>2020-05-20T17:17:52Z</time>
      </trkpt>
      <trkpt lat="47.04859" lon="-1.69132">
        <ele>-0.72</ele>
        <time>2020-05-20T17:17:54Z</time>
      </trkpt>
      <trkpt lat="47.04855" lon="-1.69116">
        <ele>0.56</ele>
        <time>2020-05-20T17:17:56Z</time>
      </trkpt>
      <trkpt lat="47.0485" lon="-1.69098">
        <ele>0.88</ele>
        <time>2020-05-20T17:17:58Z</time>
      </trkpt>
      <trkpt lat="47.04846" lon="-1.69083">
        <ele>0.71</ele>
        <time>2020-05-20T17:18:00Z</time>
      </trkpt>
      <trkpt lat="47.04843" lon="-1.69069">
        <ele>1.19</ele>
        <time>2020-05-20T17:18:02Z</time>
      </trkpt>
      <trkpt lat="47.04839" lon="-1.69052">
        <ele>1.99</ele>
        <time>2020-05-20T17:18:04Z</time>
      </trkpt>
      <trkpt lat="47.04835" lon="-1.69036">
        <ele>3.21</ele>
        <time>2020-05-20T17:18:06Z</time>
      </trkpt>
      <trkpt lat="47.04832" lon="-1.6902">
        <ele>4.24</ele>
        <time>2020-05-20T17:18:08Z</time>
      </trkpt>
      <trkpt lat="47.04828" lon="-1.69005">
        <ele>4.97</ele>
        <time>2020-05-20T17:18:10Z</time>
      </trkpt>
      <trkpt lat="47.04824" lon="-1.68986">
        <ele>5.55</ele>
        <time>2020-05-20T17:18:12Z</time>
      </trkpt>
      <trkpt lat="47.0482" lon="-1.68968">
        <ele>6.01</ele>
        <time>2020-05-20T17:18:14Z</time>
      </trkpt>
      <trkpt lat="47.04815" lon="-1.68945">
        <ele>6.1</ele>
        <time>2020-05-20T17:18:17Z</time>
      </trkpt>
      <trkpt lat="47.04811" lon="-1.68929">
        <ele>7.32</ele>
        <time>2020-05-20T17:18:19Z</time>
      </trkpt>
      <trkpt lat="47.04806" lon="-1.68914">
        <ele>9.19</ele>
        <time>2020-05-20T17:18:21Z</time>
      </trkpt>
      <trkpt lat="47.04802" lon="-1.68899">
        <ele>8.78</ele>
        <time>2020-05-20T17:18:23Z</time>
      </trkpt>
      <trkpt lat="47.04797" lon="-1.68881">
        <ele>7.25</ele>
        <time>2020-05-20T17:18:25Z</time>
      </trkpt>
      <trkpt lat="47.04793" lon="-1.68866">
        <ele>5.8</ele>
        <time>2020-05-20T17:18:27Z</time>
      </trkpt>
      <trkpt lat="47.04789" lon="-1.68849">
        <ele>4.85</ele>
        <time>2020-05-20T17:18:29Z</time>
      </trkpt>
      <trkpt lat="47.04784" lon="-1.68833">
        <ele>3.88</ele>
        <time>2020-05-20T17:18:31Z</time>
      </trkpt>
      <trkpt lat="47.04781" lon="-1.68819">
        <ele>3.71</ele>
        <time>2020-05-20T17:18:33Z</time>
      </trkpt>
      <trkpt lat="47.04776" lon="-1.68803">
        <ele>3.79</ele>
        <time>2020-05-20T17:18:35Z</time>
      </trkpt>
      <trkpt lat="47.04771" lon="-1.68786">
        <ele>3.67</ele>
        <time>2020-05-20T17:18:37Z</time>
      </trkpt>
      <trkpt lat="47.04767" lon="-1.68772">
        <ele>2.71</ele>
        <time>2020-05-20T17:18:39Z</time>
      </trkpt>
      <trkpt lat="47.04763" lon="-1.68759">
        <ele>2.54</ele>
        <time>2020-05-20T17:18:41Z</time>
      </trkpt>
      <trkpt lat="47.04759" lon="-1.68743">
        <ele>2.93</ele>
        <time>2020-05-20T17:18:43Z</time>
      </trkpt>
      <trkpt lat="47.04754" lon="-1.68725">
        <ele>3.7</ele>
        <time>2020-05-20T17:18:45Z</time>
      </trkpt>
      <trkpt lat="47.04751" lon="-1.68712">
        <ele>3.56</ele>
        <time>2020-05-20T17:18:47Z</time>
      </trkpt>
      <trkpt lat="47.04747" lon="-1.68697">
        <ele>4.03</ele>
        <time>2020-05-20T17:18:49Z</time>
      </trkpt>
      <trkpt lat="47.04742" lon="-1.68679">
        <ele>4.4</ele>
        <time>2020-05-20T17:18:51Z</time>
      </trkpt>
      <trkpt lat="47.04738" lon="-1.68661">
        <ele>4.57</ele>
        <time>2020-05-20T17:18:53Z</time>
      </trkpt>
      <trkpt lat="47.04733" lon="-1.68645">
        <ele>4.23</ele>
        <time>2020-05-20T17:18:55Z</time>
      </trkpt>
      <trkpt lat="47.04729" lon="-1.68629">
        <ele>2.94</ele>
        <time>2020-05-20T17:18:57Z</time>
      </trkpt>
      <trkpt lat="47.04724" lon="-1.68611">
        <ele>2.75</ele>
        <time>2020-05-20T17:18:59Z</time>
      </trkpt>
      <trkpt lat="47.04719" lon="-1.68594">
        <ele>2.51</ele>
        <time>2020-05-20T17:19:01Z</time>
      </trkpt>
      <trkpt lat="47.04714" lon="-1.68577">
        <ele>1.85</ele>
        <time>2020-05-20T17:19:03Z</time>
      </trkpt>
      <trkpt lat="47.0471" lon="-1.68561">
        <ele>1.83</ele>
        <time>2020-05-20T17:19:05Z</time>
      </trkpt>
      <trkpt lat="47.04706" lon="-1.68542">
        <ele>1.53</ele>
        <time>2020-05-20T17:19:07Z</time>
      </trkpt>
      <trkpt lat="47.04702" lon="-1.68526">
        <ele>0.73</ele>
        <time>2020-05-20T17:19:09Z</time>
      </trkpt>
      <trkpt lat="47.04698" lon="-1.68511">
        <ele>0.6</ele>
        <time>2020-05-20T17:19:11Z</time>
      </trkpt>
      <trkpt lat="47.04693" lon="-1.68495">
        <ele>0.32</ele>
        <time>2020-05-20T17:19:13Z</time>
      </trkpt>
      <trkpt lat="47.04688" lon="-1.68479">
        <ele>0.04</ele>
        <time>2020-05-20T17:19:15Z</time>
      </trkpt>
      <trkpt lat="47.04683" lon="-1.68461">
        <ele>0.53</ele>
        <time>2020-05-20T17:19:17Z</time>
      </trkpt>
      <trkpt lat="47.04679" lon="-1.68446">
        <ele>1</ele>
        <time>2020-05-20T17:19:19Z</time>
      </trkpt>
      <trkpt lat="47.04675" lon="-1.68427">
        <ele>1.98</ele>
        <time>2020-05-20T17:19:21Z</time>
      </trkpt>
      <trkpt lat="47.04671" lon="-1.68409">
        <ele>2.74</ele>
        <time>2020-05-20T17:19:23Z</time>
      </trkpt>
      <trkpt lat="47.04666" lon="-1.6839">
        <ele>2.87</ele>
        <time>2020-05-20T17:19:25Z</time>
      </trkpt>
      <trkpt lat="47.04661" lon="-1.68371">
        <ele>3.13</ele>
        <time>2020-05-20T17:19:27Z</time>
      </trkpt>
      <trkpt lat="47.04656" lon="-1.68354">
        <ele>3.09</ele>
        <time>2020-05-20T17:19:29Z</time>
      </trkpt>
      <trkpt lat="47.04652" lon="-1.68335">
        <ele>2.89</ele>
        <time>2020-05-20T17:19:31Z</time>
      </trkpt>
      <trkpt lat="47.04647" lon="-1.68317">
        <ele>2.78</ele>
        <time>2020-05-20T17:19:33Z</time>
      </trkpt>
      <trkpt lat="47.04643" lon="-1.68299">
        <ele>2.49</ele>
        <time>2020-05-20T17:19:35Z</time>
      </trkpt>
      <trkpt lat="47.04638" lon="-1.6828">
        <ele>1.96</ele>
        <time>2020-05-20T17:19:37Z</time>
      </trkpt>
      <trkpt lat="47.04633" lon="-1.68262">
        <ele>1.26</ele>
        <time>2020-05-20T17:19:39Z</time>
      </trkpt>
      <trkpt lat="47.04628" lon="-1.68245">
        <ele>0.88</ele>
        <time>2020-05-20T17:19:41Z</time>
      </trkpt>
      <trkpt lat="47.04623" lon="-1.68227">
        <ele>0.73</ele>
        <time>2020-05-20T17:19:43Z</time>
      </trkpt>
      <trkpt lat="47.04618" lon="-1.68208">
        <ele>-0.1</ele>
        <time>2020-05-20T17:19:45Z</time>
      </trkpt>
      <trkpt lat="47.04613" lon="-1.68189">
        <ele>0.29</ele>
        <time>2020-05-20T17:19:47Z</time>
      </trkpt>
      <trkpt lat="47.04609" lon="-1.68169">
        <ele>1.43</ele>
        <time>2020-05-20T17:19:49Z</time>
      </trkpt>
      <trkpt lat="47.04604" lon="-1.68151">
        <ele>1.88</ele>
        <time>2020-05-20T17:19:51Z</time>
      </trkpt>
      <trkpt lat="47.046" lon="-1.68134">
        <ele>2.06</ele>
        <time>2020-05-20T17:19:53Z</time>
      </trkpt>
      <trkpt lat="47.04595" lon="-1.68113">
        <ele>2.79</ele>
        <time>2020-05-20T17:19:55Z</time>
      </trkpt>
      <trkpt lat="47.0459" lon="-1.68097">
        <ele>3.09</ele>
        <time>2020-05-20T17:19:57Z</time>
      </trkpt>
      <trkpt lat="47.04585" lon="-1.6808">
        <ele>2.08</ele>
        <time>2020-05-20T17:19:59Z</time>
      </trkpt>
      <trkpt lat="47.0458" lon="-1.6806">
        <ele>1.77</ele>
        <time>2020-05-20T17:20:01Z</time>
      </trkpt>
      <trkpt lat="47.04576" lon="-1.68044">
        <ele>1.84</ele>
        <time>2020-05-20T17:20:03Z</time>
      </trkpt>
      <trkpt lat="47.04572" lon="-1.68027">
        <ele>1.96</ele>
        <time>2020-05-20T17:20:05Z</time>
      </trkpt>
      <trkpt lat="47.04567" lon="-1.68009">
        <ele>2.04</ele>
        <time>2020-05-20T17:20:07Z</time>
      </trkpt>
      <trkpt lat="47.04563" lon="-1.67993">
        <ele>1.94</ele>
        <time>2020-05-20T17:20:09Z</time>
      </trkpt>
      <trkpt lat="47.04559" lon="-1.67977">
        <ele>2.18</ele>
        <time>2020-05-20T17:20:11Z</time>
      </trkpt>
      <trkpt lat="47.04554" lon="-1.67961">
        <ele>1.05</ele>
        <time>2020-05-20T17:20:13Z</time>
      </trkpt>
      <trkpt lat="47.04549" lon="-1.67943">
        <ele>0.84</ele>
        <time>2020-05-20T17:20:15Z</time>
      </trkpt>
      <trkpt lat="47.04545" lon="-1.67926">
        <ele>1.24</ele>
        <time>2020-05-20T17:20:17Z</time>
      </trkpt>
      <trkpt lat="47.0454" lon="-1.67907">
        <ele>0.77</ele>
        <time>2020-05-20T17:20:19Z</time>
      </trkpt>
      <trkpt lat="47.04535" lon="-1.67889">
        <ele>-0.43</ele>
        <time>2020-05-20T17:20:21Z</time>
      </trkpt>
      <trkpt lat="47.04531" lon="-1.67873">
        <ele>0.02</ele>
        <time>2020-05-20T17:20:23Z</time>
      </trkpt>
      <trkpt lat="47.04527" lon="-1.67859">
        <ele>0.62</ele>
        <time>2020-05-20T17:20:25Z</time>
      </trkpt>
      <trkpt lat="47.04523" lon="-1.67843">
        <ele>0.5</ele>
        <time>2020-05-20T17:20:27Z</time>
      </trkpt>
      <trkpt lat="47.04518" lon="-1.67824">
        <ele>0.11</ele>
        <time>2020-05-20T17:20:29Z</time>
      </trkpt>
      <trkpt lat="47.04514" lon="-1.67807">
        <ele>-0.24</ele>
        <time>2020-05-20T17:20:31Z</time>
      </trkpt>
      <trkpt lat="47.0451" lon="-1.67792">
        <ele>0.44</ele>
        <time>2020-05-20T17:20:33Z</time>
      </trkpt>
      <trkpt lat="47.04506" lon="-1.67774">
        <ele>1.36</ele>
        <time>2020-05-20T17:20:35Z</time>
      </trkpt>
      <trkpt lat="47.04501" lon="-1.67757">
        <ele>2.58</ele>
        <time>2020-05-20T17:20:37Z</time>
      </trkpt>
      <trkpt lat="47.04497" lon="-1.67739">
        <ele>3.84</ele>
        <time>2020-05-20T17:20:39Z</time>
      </trkpt>
      <trkpt lat="47.04492" lon="-1.67721">
        <ele>4.29</ele>
        <time>2020-05-20T17:20:41Z</time>
      </trkpt>
      <trkpt lat="47.04487" lon="-1.67703">
        <ele>3.66</ele>
        <time>2020-05-20T17:20:43Z</time>
      </trkpt>
      <trkpt lat="47.04483" lon="-1.67686">
        <ele>3.44</ele>
        <time>2020-05-20T17:20:45Z</time>
      </trkpt>
      <trkpt lat="47.04478" lon="-1.67668">
        <ele>3.08</ele>
        <time>2020-05-20T17:20:47Z</time>
      </trkpt>
      <trkpt lat="47.04473" lon="-1.67649">
        <ele>2.54</ele>
        <time>2020-05-20T17:20:49Z</time>
      </trkpt>
      <trkpt lat="47.04468" lon="-1.67629">
        <ele>1.24</ele>
        <time>2020-05-20T17:20:51Z</time>
      </trkpt>
      <trkpt lat="47.04463" lon="-1.67612">
        <ele>0.65</ele>
        <time>2020-05-20T17:20:53Z</time>
      </trkpt>
      <trkpt lat="47.04458" lon="-1.67595">
        <ele>0.37</ele>
        <time>2020-05-20T17:20:55Z</time>
      </trkpt>
      <trkpt lat="47.04453" lon="-1.67573">
        <ele>0.21</ele>
        <time>2020-05-20T17:20:57Z</time>
      </trkpt>
      <trkpt lat="47.04448" lon="-1.67552">
        <ele>0.54</ele>
        <time>2020-05-20T17:20:59Z</time>
      </trkpt>
      <trkpt lat="47.04443" lon="-1.67532">
        <ele>0.67</ele>
        <time>2020-05-20T17:21:01Z</time>
      </trkpt>
      <trkpt lat="47.04438" lon="-1.67511">
        <ele>0.79</ele>
        <time>2020-05-20T17:21:03Z</time>
      </trkpt>
      <trkpt lat="47.04433" lon="-1.67488">
        <ele>-0.03</ele>
        <time>2020-05-20T17:21:05Z</time>
      </trkpt>
      <trkpt lat="47.04427" lon="-1.67469">
        <ele>-0.68</ele>
        <time>2020-05-20T17:21:07Z</time>
      </trkpt>
      <trkpt lat="47.04423" lon="-1.6745">
        <ele>-0.88</ele>
        <time>2020-05-20T17:21:09Z</time>
      </trkpt>
      <trkpt lat="47.04418" lon="-1.67432">
        <ele>-1.14</ele>
        <time>2020-05-20T17:21:11Z</time>
      </trkpt>
      <trkpt lat="47.04412" lon="-1.67413">
        <ele>-0.44</ele>
        <time>2020-05-20T17:21:13Z</time>
      </trkpt>
      <trkpt lat="47.04407" lon="-1.67394">
        <ele>0.38</ele>
        <time>2020-05-20T17:21:15Z</time>
      </trkpt>
      <trkpt lat="47.04402" lon="-1.67374">
        <ele>0.9</ele>
        <time>2020-05-20T17:21:17Z</time>
      </trkpt>
      <trkpt lat="47.04396" lon="-1.67354">
        <ele>1.7</ele>
        <time>2020-05-20T17:21:19Z</time>
      </trkpt>
      <trkpt lat="47.04392" lon="-1.67336">
        <ele>1.99</ele>
        <time>2020-05-20T17:21:21Z</time>
      </trkpt>
      <trkpt lat="47.04387" lon="-1.67317">
        <ele>1.63</ele>
        <time>2020-05-20T17:21:23Z</time>
      </trkpt>
      <trkpt lat="47.04382" lon="-1.67297">
        <ele>1.46</ele>
        <time>2020-05-20T17:21:25Z</time>
      </trkpt>
      <trkpt lat="47.04378" lon="-1.67279">
        <ele>1.32</ele>
        <time>2020-05-20T17:21:27Z</time>
      </trkpt>
      <trkpt lat="47.04373" lon="-1.6726">
        <ele>0.8</ele>
        <time>2020-05-20T17:21:29Z</time>
      </trkpt>
      <trkpt lat="47.04369" lon="-1.67244">
        <ele>-0.91</ele>
        <time>2020-05-20T17:21:31Z</time>
      </trkpt>
      <trkpt lat="47.04364" lon="-1.67224">
        <ele>-2.01</ele>
        <time>2020-05-20T17:21:33Z</time>
      </trkpt>
      <trkpt lat="47.04359" lon="-1.67206">
        <ele>-2.16</ele>
        <time>2020-05-20T17:21:35Z</time>
      </trkpt>
      <trkpt lat="47.04354" lon="-1.67188">
        <ele>-2.11</ele>
        <time>2020-05-20T17:21:37Z</time>
      </trkpt>
      <trkpt lat="47.04349" lon="-1.67171">
        <ele>-2.81</ele>
        <time>2020-05-20T17:21:39Z</time>
      </trkpt>
      <trkpt lat="47.04344" lon="-1.67154">
        <ele>-2.45</ele>
        <time>2020-05-20T17:21:41Z</time>
      </trkpt>
      <trkpt lat="47.0434" lon="-1.67135">
        <ele>-3.54</ele>
        <time>2020-05-20T17:21:43Z</time>
      </trkpt>
      <trkpt lat="47.04335" lon="-1.67117">
        <ele>-3.95</ele>
        <time>2020-05-20T17:21:45Z</time>
      </trkpt>
      <trkpt lat="47.0433" lon="-1.67099">
        <ele>-3.56</ele>
        <time>2020-05-20T17:21:47Z</time>
      </trkpt>
      <trkpt lat="47.04325" lon="-1.6708">
        <ele>-3.4</ele>
        <time>2020-05-20T17:21:49Z</time>
      </trkpt>
      <trkpt lat="47.0432" lon="-1.67061">
        <ele>-2.82</ele>
        <time>2020-05-20T17:21:51Z</time>
      </trkpt>
      <trkpt lat="47.04316" lon="-1.67042">
        <ele>-2.16</ele>
        <time>2020-05-20T17:21:53Z</time>
      </trkpt>
      <trkpt lat="47.04311" lon="-1.67023">
        <ele>-1.22</ele>
        <time>2020-05-20T17:21:55Z</time>
      </trkpt>
      <trkpt lat="47.04306" lon="-1.67004">
        <ele>-1.42</ele>
        <time>2020-05-20T17:21:57Z</time>
      </trkpt>
      <trkpt lat="47.04301" lon="-1.66985">
        <ele>-2.26</ele>
        <time>2020-05-20T17:21:59Z</time>
      </trkpt>
      <trkpt lat="47.04296" lon="-1.66964">
        <ele>-2.48</ele>
        <time>2020-05-20T17:22:01Z</time>
      </trkpt>
      <trkpt lat="47.04291" lon="-1.66945">
        <ele>-2.7</ele>
        <time>2020-05-20T17:22:03Z</time>
      </trkpt>
      <trkpt lat="47.04286" lon="-1.66925">
        <ele>-2.71</ele>
        <time>2020-05-20T17:22:05Z</time>
      </trkpt>
      <trkpt lat="47.04282" lon="-1.66907">
        <ele>-1.78</ele>
        <time>2020-05-20T17:22:07Z</time>
      </trkpt>
      <trkpt lat="47.04278" lon="-1.6689">
        <ele>-1.34</ele>
        <time>2020-05-20T17:22:09Z</time>
      </trkpt>
      <trkpt lat="47.04274" lon="-1.66873">
        <ele>-1.12</ele>
        <time>2020-05-20T17:22:11Z</time>
      </trkpt>
      <trkpt lat="47.04268" lon="-1.66853">
        <ele>-1.55</ele>
        <time>2020-05-20T17:22:13Z</time>
      </trkpt>
      <trkpt lat="47.04264" lon="-1.66835">
        <ele>-1.3</ele>
        <time>2020-05-20T17:22:15Z</time>
      </trkpt>
      <trkpt lat="47.04259" lon="-1.66816">
        <ele>-1.78</ele>
        <time>2020-05-20T17:22:17Z</time>
      </trkpt>
      <trkpt lat="47.04254" lon="-1.66797">
        <ele>-2.39</ele>
        <time>2020-05-20T17:22:19Z</time>
      </trkpt>
      <trkpt lat="47.04249" lon="-1.66778">
        <ele>-3.04</ele>
        <time>2020-05-20T17:22:21Z</time>
      </trkpt>
      <trkpt lat="47.04244" lon="-1.66758">
        <ele>-3.82</ele>
        <time>2020-05-20T17:22:23Z</time>
      </trkpt>
      <trkpt lat="47.04239" lon="-1.66739">
        <ele>-4.09</ele>
        <time>2020-05-20T17:22:25Z</time>
      </trkpt>
      <trkpt lat="47.04235" lon="-1.66721">
        <ele>-3.61</ele>
        <time>2020-05-20T17:22:26Z</time>
      </trkpt>
      <trkpt lat="47.0423" lon="-1.66704">
        <ele>-3.28</ele>
        <time>2020-05-20T17:22:28Z</time>
      </trkpt>
      <trkpt lat="47.04226" lon="-1.66688">
        <ele>-2.83</ele>
        <time>2020-05-20T17:22:30Z</time>
      </trkpt>
      <trkpt lat="47.04222" lon="-1.66673">
        <ele>-2.48</ele>
        <time>2020-05-20T17:22:32Z</time>
      </trkpt>
      <trkpt lat="47.04217" lon="-1.66653">
        <ele>-2.79</ele>
        <time>2020-05-20T17:22:34Z</time>
      </trkpt>
      <trkpt lat="47.04213" lon="-1.66635">
        <ele>-2.7</ele>
        <time>2020-05-20T17:22:36Z</time>
      </trkpt>
      <trkpt lat="47.04207" lon="-1.66617">
        <ele>-2.32</ele>
        <time>2020-05-20T17:22:38Z</time>
      </trkpt>
      <trkpt lat="47.04202" lon="-1.66597">
        <ele>-2.71</ele>
        <time>2020-05-20T17:22:40Z</time>
      </trkpt>
      <trkpt lat="47.04199" lon="-1.66584">
        <ele>-2.77</ele>
        <time>2020-05-20T17:22:41Z</time>
      </trkpt>
      <trkpt lat="47.04194" lon="-1.66567">
        <ele>-3.08</ele>
        <time>2020-05-20T17:22:43Z</time>
      </trkpt>
      <trkpt lat="47.04189" lon="-1.6655">
        <ele>-3.17</ele>
        <time>2020-05-20T17:22:45Z</time>
      </trkpt>
      <trkpt lat="47.04185" lon="-1.66532">
        <ele>-3.02</ele>
        <time>2020-05-20T17:22:47Z</time>
      </trkpt>
      <trkpt lat="47.0418" lon="-1.66515">
        <ele>-2.65</ele>
        <time>2020-05-20T17:22:49Z</time>
      </trkpt>
      <trkpt lat="47.04175" lon="-1.66496">
        <ele>-2.43</ele>
        <time>2020-05-20T17:22:51Z</time>
      </trkpt>
      <trkpt lat="47.04171" lon="-1.66477">
        <ele>-2.46</ele>
        <time>2020-05-20T17:22:53Z</time>
      </trkpt>
      <trkpt lat="47.04166" lon="-1.66458">
        <ele>-2.34</ele>
        <time>2020-05-20T17:22:55Z</time>
      </trkpt>
      <trkpt lat="47.04162" lon="-1.66441">
        <ele>-2.04</ele>
        <time>2020-05-20T17:22:57Z</time>
      </trkpt>
      <trkpt lat="47.04157" lon="-1.66424">
        <ele>-1</ele>
        <time>2020-05-20T17:22:59Z</time>
      </trkpt>
      <trkpt lat="47.04152" lon="-1.66406">
        <ele>-0.55</ele>
        <time>2020-05-20T17:23:01Z</time>
      </trkpt>
      <trkpt lat="47.04147" lon="-1.6639">
        <ele>0.08</ele>
        <time>2020-05-20T17:23:03Z</time>
      </trkpt>
      <trkpt lat="47.04144" lon="-1.66375">
        <ele>-0.37</ele>
        <time>2020-05-20T17:23:05Z</time>
      </trkpt>
      <trkpt lat="47.04139" lon="-1.66356">
        <ele>-1.57</ele>
        <time>2020-05-20T17:23:07Z</time>
      </trkpt>
      <trkpt lat="47.04134" lon="-1.6634">
        <ele>-1.68</ele>
        <time>2020-05-20T17:23:09Z</time>
      </trkpt>
      <trkpt lat="47.0413" lon="-1.66322">
        <ele>-1.12</ele>
        <time>2020-05-20T17:23:11Z</time>
      </trkpt>
      <trkpt lat="47.04126" lon="-1.66305">
        <ele>-0.7</ele>
        <time>2020-05-20T17:23:13Z</time>
      </trkpt>
      <trkpt lat="47.04121" lon="-1.66287">
        <ele>-0.67</ele>
        <time>2020-05-20T17:23:15Z</time>
      </trkpt>
      <trkpt lat="47.04116" lon="-1.66269">
        <ele>-0.79</ele>
        <time>2020-05-20T17:23:17Z</time>
      </trkpt>
      <trkpt lat="47.04111" lon="-1.66252">
        <ele>-0.8</ele>
        <time>2020-05-20T17:23:19Z</time>
      </trkpt>
      <trkpt lat="47.04107" lon="-1.66237">
        <ele>-1.03</ele>
        <time>2020-05-20T17:23:21Z</time>
      </trkpt>
      <trkpt lat="47.04104" lon="-1.66221">
        <ele>-0.35</ele>
        <time>2020-05-20T17:23:23Z</time>
      </trkpt>
      <trkpt lat="47.041" lon="-1.66205">
        <ele>-0.07</ele>
        <time>2020-05-20T17:23:25Z</time>
      </trkpt>
      <trkpt lat="47.04095" lon="-1.66187">
        <ele>-0.12</ele>
        <time>2020-05-20T17:23:27Z</time>
      </trkpt>
      <trkpt lat="47.04091" lon="-1.66168">
        <ele>0.05</ele>
        <time>2020-05-20T17:23:29Z</time>
      </trkpt>
      <trkpt lat="47.04088" lon="-1.66153">
        <ele>0.04</ele>
        <time>2020-05-20T17:23:31Z</time>
      </trkpt>
      <trkpt lat="47.04082" lon="-1.66134">
        <ele>0.46</ele>
        <time>2020-05-20T17:23:33Z</time>
      </trkpt>
      <trkpt lat="47.04078" lon="-1.66119">
        <ele>0.29</ele>
        <time>2020-05-20T17:23:35Z</time>
      </trkpt>
      <trkpt lat="47.04074" lon="-1.66103">
        <ele>-0.17</ele>
        <time>2020-05-20T17:23:37Z</time>
      </trkpt>
      <trkpt lat="47.04069" lon="-1.66086">
        <ele>0.01</ele>
        <time>2020-05-20T17:23:39Z</time>
      </trkpt>
      <trkpt lat="47.04064" lon="-1.66068">
        <ele>0.68</ele>
        <time>2020-05-20T17:23:41Z</time>
      </trkpt>
      <trkpt lat="47.04059" lon="-1.66049">
        <ele>0.9</ele>
        <time>2020-05-20T17:23:43Z</time>
      </trkpt>
      <trkpt lat="47.04055" lon="-1.66033">
        <ele>0.55</ele>
        <time>2020-05-20T17:23:45Z</time>
      </trkpt>
      <trkpt lat="47.04051" lon="-1.66016">
        <ele>0.06</ele>
        <time>2020-05-20T17:23:47Z</time>
      </trkpt>
      <trkpt lat="47.04046" lon="-1.66">
        <ele>0.11</ele>
        <time>2020-05-20T17:23:49Z</time>
      </trkpt>
      <trkpt lat="47.04041" lon="-1.65982">
        <ele>-0.18</ele>
        <time>2020-05-20T17:23:51Z</time>
      </trkpt>
      <trkpt lat="47.04036" lon="-1.65964">
        <ele>8.9</ele>
        <time>2020-05-20T17:23:53Z</time>
      </trkpt>
      <trkpt lat="47.04031" lon="-1.65946">
        <ele>-0.39</ele>
        <time>2020-05-20T17:23:55Z</time>
      </trkpt>
      <trkpt lat="47.04026" lon="-1.65928">
        <ele>-1.19</ele>
        <time>2020-05-20T17:23:57Z</time>
      </trkpt>
      <trkpt lat="47.04021" lon="-1.6591">
        <ele>-0.64</ele>
        <time>2020-05-20T17:23:59Z</time>
      </trkpt>
      <trkpt lat="47.04016" lon="-1.65893">
        <ele>1.78</ele>
        <time>2020-05-20T17:24:01Z</time>
      </trkpt>
      <trkpt lat="47.04011" lon="-1.65875">
        <ele>3.1</ele>
        <time>2020-05-20T17:24:03Z</time>
      </trkpt>
      <trkpt lat="47.04006" lon="-1.65856">
        <ele>3.62</ele>
        <time>2020-05-20T17:24:05Z</time>
      </trkpt>
      <trkpt lat="47.04001" lon="-1.65838">
        <ele>3.67</ele>
        <time>2020-05-20T17:24:07Z</time>
      </trkpt>
      <trkpt lat="47.03996" lon="-1.6582">
        <ele>2.82</ele>
        <time>2020-05-20T17:24:09Z</time>
      </trkpt>
      <trkpt lat="47.0399" lon="-1.65802">
        <ele>2.2</ele>
        <time>2020-05-20T17:24:11Z</time>
      </trkpt>
      <trkpt lat="47.03985" lon="-1.65783">
        <ele>0.27</ele>
        <time>2020-05-20T17:24:13Z</time>
      </trkpt>
      <trkpt lat="47.03979" lon="-1.65762">
        <ele>-1.58</ele>
        <time>2020-05-20T17:24:15Z</time>
      </trkpt>
      <trkpt lat="47.03973" lon="-1.65745">
        <ele>-2.08</ele>
        <time>2020-05-20T17:24:17Z</time>
      </trkpt>
      <trkpt lat="47.03968" lon="-1.65728">
        <ele>-2.72</ele>
        <time>2020-05-20T17:24:19Z</time>
      </trkpt>
      <trkpt lat="47.03964" lon="-1.65709">
        <ele>-2.2</ele>
        <time>2020-05-20T17:24:21Z</time>
      </trkpt>
      <trkpt lat="47.03959" lon="-1.65691">
        <ele>-2.24</ele>
        <time>2020-05-20T17:24:23Z</time>
      </trkpt>
      <trkpt lat="47.03954" lon="-1.65673">
        <ele>-2.31</ele>
        <time>2020-05-20T17:24:25Z</time>
      </trkpt>
      <trkpt lat="47.03949" lon="-1.65655">
        <ele>-3.07</ele>
        <time>2020-05-20T17:24:27Z</time>
      </trkpt>
      <trkpt lat="47.03944" lon="-1.65637">
        <ele>-2.71</ele>
        <time>2020-05-20T17:24:29Z</time>
      </trkpt>
      <trkpt lat="47.03939" lon="-1.6562">
        <ele>-3.36</ele>
        <time>2020-05-20T17:24:31Z</time>
      </trkpt>
      <trkpt lat="47.03934" lon="-1.65601">
        <ele>-4.45</ele>
        <time>2020-05-20T17:24:33Z</time>
      </trkpt>
      <trkpt lat="47.03929" lon="-1.65584">
        <ele>-4.78</ele>
        <time>2020-05-20T17:24:35Z</time>
      </trkpt>
      <trkpt lat="47.03924" lon="-1.65565">
        <ele>-4.42</ele>
        <time>2020-05-20T17:24:37Z</time>
      </trkpt>
      <trkpt lat="47.03919" lon="-1.65547">
        <ele>-3.62</ele>
        <time>2020-05-20T17:24:39Z</time>
      </trkpt>
      <trkpt lat="47.03914" lon="-1.6553">
        <ele>-2.43</ele>
        <time>2020-05-20T17:24:41Z</time>
      </trkpt>
      <trkpt lat="47.0391" lon="-1.65512">
        <ele>-2.08</ele>
        <time>2020-05-20T17:24:43Z</time>
      </trkpt>
      <trkpt lat="47.03905" lon="-1.65495">
        <ele>-2.06</ele>
        <time>2020-05-20T17:24:45Z</time>
      </trkpt>
      <trkpt lat="47.039" lon="-1.65478">
        <ele>-1.62</ele>
        <time>2020-05-20T17:24:47Z</time>
      </trkpt>
      <trkpt lat="47.03895" lon="-1.65461">
        <ele>-1.27</ele>
        <time>2020-05-20T17:24:49Z</time>
      </trkpt>
      <trkpt lat="47.03891" lon="-1.65443">
        <ele>-1.83</ele>
        <time>2020-05-20T17:24:51Z</time>
      </trkpt>
      <trkpt lat="47.03886" lon="-1.65425">
        <ele>-2.08</ele>
        <time>2020-05-20T17:24:53Z</time>
      </trkpt>
      <trkpt lat="47.03881" lon="-1.65407">
        <ele>-2.78</ele>
        <time>2020-05-20T17:24:55Z</time>
      </trkpt>
      <trkpt lat="47.03877" lon="-1.6539">
        <ele>-2.98</ele>
        <time>2020-05-20T17:24:57Z</time>
      </trkpt>
      <trkpt lat="47.03872" lon="-1.65375">
        <ele>-2.61</ele>
        <time>2020-05-20T17:24:59Z</time>
      </trkpt>
      <trkpt lat="47.03865" lon="-1.65357">
        <ele>-2.76</ele>
        <time>2020-05-20T17:25:01Z</time>
      </trkpt>
      <trkpt lat="47.03858" lon="-1.65342">
        <ele>-2.67</ele>
        <time>2020-05-20T17:25:03Z</time>
      </trkpt>
      <trkpt lat="47.03851" lon="-1.65331">
        <ele>-2.27</ele>
        <time>2020-05-20T17:25:05Z</time>
      </trkpt>
      <trkpt lat="47.03853" lon="-1.65314">
        <ele>-2.04</ele>
        <time>2020-05-20T17:25:07Z</time>
      </trkpt>
      <trkpt lat="47.0386" lon="-1.65299">
        <ele>-2.02</ele>
        <time>2020-05-20T17:25:09Z</time>
      </trkpt>
      <trkpt lat="47.03869" lon="-1.65287">
        <ele>-1.14</ele>
        <time>2020-05-20T17:25:11Z</time>
      </trkpt>
      <trkpt lat="47.0388" lon="-1.65276">
        <ele>-0.24</ele>
        <time>2020-05-20T17:25:13Z</time>
      </trkpt>
      <trkpt lat="47.03892" lon="-1.65269">
        <ele>0.57</ele>
        <time>2020-05-20T17:25:15Z</time>
      </trkpt>
      <trkpt lat="47.03904" lon="-1.65261">
        <ele>1.05</ele>
        <time>2020-05-20T17:25:17Z</time>
      </trkpt>
      <trkpt lat="47.03918" lon="-1.65253">
        <ele>1.71</ele>
        <time>2020-05-20T17:25:19Z</time>
      </trkpt>
      <trkpt lat="47.0393" lon="-1.65245">
        <ele>2.83</ele>
        <time>2020-05-20T17:25:21Z</time>
      </trkpt>
      <trkpt lat="47.03941" lon="-1.65238">
        <ele>3.85</ele>
        <time>2020-05-20T17:25:23Z</time>
      </trkpt>
      <trkpt lat="47.03954" lon="-1.65229">
        <ele>4.52</ele>
        <time>2020-05-20T17:25:25Z</time>
      </trkpt>
      <trkpt lat="47.03966" lon="-1.65222">
        <ele>4.39</ele>
        <time>2020-05-20T17:25:27Z</time>
      </trkpt>
      <trkpt lat="47.03978" lon="-1.65214">
        <ele>4.22</ele>
        <time>2020-05-20T17:25:29Z</time>
      </trkpt>
      <trkpt lat="47.03989" lon="-1.65208">
        <ele>3.11</ele>
        <time>2020-05-20T17:25:31Z</time>
      </trkpt>
      <trkpt lat="47.04001" lon="-1.65199">
        <ele>1.92</ele>
        <time>2020-05-20T17:25:33Z</time>
      </trkpt>
      <trkpt lat="47.04013" lon="-1.65191">
        <ele>0.78</ele>
        <time>2020-05-20T17:25:35Z</time>
      </trkpt>
      <trkpt lat="47.04025" lon="-1.65182">
        <ele>0.78</ele>
        <time>2020-05-20T17:25:37Z</time>
      </trkpt>
      <trkpt lat="47.04037" lon="-1.65175">
        <ele>1.3</ele>
        <time>2020-05-20T17:25:39Z</time>
      </trkpt>
      <trkpt lat="47.04048" lon="-1.65167">
        <ele>1.82</ele>
        <time>2020-05-20T17:25:41Z</time>
      </trkpt>
      <trkpt lat="47.0406" lon="-1.65158">
        <ele>2.43</ele>
        <time>2020-05-20T17:25:43Z</time>
      </trkpt>
      <trkpt lat="47.04073" lon="-1.6515">
        <ele>2.09</ele>
        <time>2020-05-20T17:25:45Z</time>
      </trkpt>
      <trkpt lat="47.04083" lon="-1.65143">
        <ele>1.66</ele>
        <time>2020-05-20T17:25:47Z</time>
      </trkpt>
      <trkpt lat="47.04096" lon="-1.65134">
        <ele>0.69</ele>
        <time>2020-05-20T17:25:49Z</time>
      </trkpt>
      <trkpt lat="47.04108" lon="-1.65126">
        <ele>0.18</ele>
        <time>2020-05-20T17:25:51Z</time>
      </trkpt>
      <trkpt lat="47.04119" lon="-1.65118">
        <ele>-0.66</ele>
        <time>2020-05-20T17:25:53Z</time>
      </trkpt>
      <trkpt lat="47.04131" lon="-1.6511">
        <ele>-1.58</ele>
        <time>2020-05-20T17:25:55Z</time>
      </trkpt>
      <trkpt lat="47.04143" lon="-1.65102">
        <ele>-0.76</ele>
        <time>2020-05-20T17:25:57Z</time>
      </trkpt>
      <trkpt lat="47.04155" lon="-1.65093">
        <ele>0.04</ele>
        <time>2020-05-20T17:25:59Z</time>
      </trkpt>
      <trkpt lat="47.04167" lon="-1.65084">
        <ele>0.68</ele>
        <time>2020-05-20T17:26:01Z</time>
      </trkpt>
      <trkpt lat="47.04179" lon="-1.65075">
        <ele>0.25</ele>
        <time>2020-05-20T17:26:03Z</time>
      </trkpt>
      <trkpt lat="47.04191" lon="-1.65068">
        <ele>0.5</ele>
        <time>2020-05-20T17:26:05Z</time>
      </trkpt>
      <trkpt lat="47.04203" lon="-1.6506">
        <ele>0.34</ele>
        <time>2020-05-20T17:26:07Z</time>
      </trkpt>
      <trkpt lat="47.04214" lon="-1.65053">
        <ele>-0.33</ele>
        <time>2020-05-20T17:26:09Z</time>
      </trkpt>
      <trkpt lat="47.04227" lon="-1.65044">
        <ele>-0.15</ele>
        <time>2020-05-20T17:26:11Z</time>
      </trkpt>
      <trkpt lat="47.04238" lon="-1.65036">
        <ele>-0.57</ele>
        <time>2020-05-20T17:26:13Z</time>
      </trkpt>
      <trkpt lat="47.0425" lon="-1.65027">
        <ele>-1.15</ele>
        <time>2020-05-20T17:26:15Z</time>
      </trkpt>
      <trkpt lat="47.04262" lon="-1.65019">
        <ele>-1.42</ele>
        <time>2020-05-20T17:26:17Z</time>
      </trkpt>
      <trkpt lat="47.04273" lon="-1.6501">
        <ele>-2.32</ele>
        <time>2020-05-20T17:26:19Z</time>
      </trkpt>
      <trkpt lat="47.04285" lon="-1.65002">
        <ele>-3.37</ele>
        <time>2020-05-20T17:26:21Z</time>
      </trkpt>
      <trkpt lat="47.04296" lon="-1.64992">
        <ele>-4.66</ele>
        <time>2020-05-20T17:26:23Z</time>
      </trkpt>
      <trkpt lat="47.04308" lon="-1.64983">
        <ele>-5.06</ele>
        <time>2020-05-20T17:26:25Z</time>
      </trkpt>
      <trkpt lat="47.0432" lon="-1.64973">
        <ele>-4.17</ele>
        <time>2020-05-20T17:26:27Z</time>
      </trkpt>
      <trkpt lat="47.04331" lon="-1.64964">
        <ele>-3.54</ele>
        <time>2020-05-20T17:26:29Z</time>
      </trkpt>
      <trkpt lat="47.04343" lon="-1.64955">
        <ele>-2.95</ele>
        <time>2020-05-20T17:26:31Z</time>
      </trkpt>
      <trkpt lat="47.04353" lon="-1.64947">
        <ele>-2.4</ele>
        <time>2020-05-20T17:26:33Z</time>
      </trkpt>
      <trkpt lat="47.04365" lon="-1.64938">
        <ele>-3.21</ele>
        <time>2020-05-20T17:26:35Z</time>
      </trkpt>
      <trkpt lat="47.04374" lon="-1.64931">
        <ele>-3.78</ele>
        <time>2020-05-20T17:26:37Z</time>
      </trkpt>
      <trkpt lat="47.04383" lon="-1.64922">
        <ele>-4.55</ele>
        <time>2020-05-20T17:26:39Z</time>
      </trkpt>
      <trkpt lat="47.04394" lon="-1.64913">
        <ele>-4.99</ele>
        <time>2020-05-20T17:26:41Z</time>
      </trkpt>
      <trkpt lat="47.04405" lon="-1.64905">
        <ele>-4.59</ele>
        <time>2020-05-20T17:26:43Z</time>
      </trkpt>
      <trkpt lat="47.04417" lon="-1.64895">
        <ele>-3.84</ele>
        <time>2020-05-20T17:26:45Z</time>
      </trkpt>
      <trkpt lat="47.0443" lon="-1.64897">
        <ele>-2.74</ele>
        <time>2020-05-20T17:26:47Z</time>
      </trkpt>
      <trkpt lat="47.04443" lon="-1.649">
        <ele>-1.25</ele>
        <time>2020-05-20T17:26:49Z</time>
      </trkpt>
      <trkpt lat="47.04454" lon="-1.64905">
        <ele>-1.51</ele>
        <time>2020-05-20T17:26:51Z</time>
      </trkpt>
      <trkpt lat="47.04466" lon="-1.64912">
        <ele>-2.65</ele>
        <time>2020-05-20T17:26:53Z</time>
      </trkpt>
      <trkpt lat="47.04472" lon="-1.64901">
        <ele>-2.93</ele>
        <time>2020-05-20T17:26:57Z</time>
      </trkpt>
      <trkpt lat="47.04467" lon="-1.6489">
        <ele>-2.65</ele>
        <time>2020-05-20T17:27:00Z</time>
      </trkpt>
      <trkpt lat="47.04458" lon="-1.64879">
        <ele>-0.33</ele>
        <time>2020-05-20T17:27:03Z</time>
      </trkpt>
      <trkpt lat="47.0445" lon="-1.64871">
        <ele>0.22</ele>
        <time>2020-05-20T17:27:05Z</time>
      </trkpt>
      <trkpt lat="47.04456" lon="-1.64858">
        <ele>0.27</ele>
        <time>2020-05-20T17:27:08Z</time>
      </trkpt>
      <trkpt lat="47.04467" lon="-1.64847">
        <ele>-0.79</ele>
        <time>2020-05-20T17:27:11Z</time>
      </trkpt>
      <trkpt lat="47.04477" lon="-1.64838">
        <ele>-2.17</ele>
        <time>2020-05-20T17:27:13Z</time>
      </trkpt>
      <trkpt lat="47.04486" lon="-1.64826">
        <ele>-2.1</ele>
        <time>2020-05-20T17:27:15Z</time>
      </trkpt>
      <trkpt lat="47.04495" lon="-1.64815">
        <ele>-0.66</ele>
        <time>2020-05-20T17:27:17Z</time>
      </trkpt>
      <trkpt lat="47.04502" lon="-1.64805">
        <ele>-0.2</ele>
        <time>2020-05-20T17:27:19Z</time>
      </trkpt>
      <trkpt lat="47.04508" lon="-1.64793">
        <ele>0.82</ele>
        <time>2020-05-20T17:27:21Z</time>
      </trkpt>
      <trkpt lat="47.04514" lon="-1.64781">
        <ele>1.71</ele>
        <time>2020-05-20T17:27:23Z</time>
      </trkpt>
      <trkpt lat="47.04518" lon="-1.64766">
        <ele>1.95</ele>
        <time>2020-05-20T17:27:25Z</time>
      </trkpt>
      <trkpt lat="47.04522" lon="-1.64752">
        <ele>1.95</ele>
        <time>2020-05-20T17:27:27Z</time>
      </trkpt>
      <trkpt lat="47.04529" lon="-1.64743">
        <ele>2.9</ele>
        <time>2020-05-20T17:27:29Z</time>
      </trkpt>
      <trkpt lat="47.04536" lon="-1.64733">
        <ele>4.24</ele>
        <time>2020-05-20T17:27:31Z</time>
      </trkpt>
      <trkpt lat="47.04543" lon="-1.64721">
        <ele>4.22</ele>
        <time>2020-05-20T17:27:33Z</time>
      </trkpt>
      <trkpt lat="47.04549" lon="-1.64711">
        <ele>4.48</ele>
        <time>2020-05-20T17:27:35Z</time>
      </trkpt>
      <trkpt lat="47.04556" lon="-1.64701">
        <ele>4.2</ele>
        <time>2020-05-20T17:27:37Z</time>
      </trkpt>
      <trkpt lat="47.04568" lon="-1.64694">
        <ele>2.09</ele>
        <time>2020-05-20T17:27:40Z</time>
      </trkpt>
      <trkpt lat="47.04576" lon="-1.64681">
        <ele>1.33</ele>
        <time>2020-05-20T17:27:42Z</time>
      </trkpt>
      <trkpt lat="47.04585" lon="-1.64667">
        <ele>0.94</ele>
        <time>2020-05-20T17:27:44Z</time>
      </trkpt>
      <trkpt lat="47.04592" lon="-1.64654">
        <ele>0.97</ele>
        <time>2020-05-20T17:27:46Z</time>
      </trkpt>
      <trkpt lat="47.046" lon="-1.64639">
        <ele>1.26</ele>
        <time>2020-05-20T17:27:48Z</time>
      </trkpt>
      <trkpt lat="47.04607" lon="-1.64626">
        <ele>1.43</ele>
        <time>2020-05-20T17:27:50Z</time>
      </trkpt>
      <trkpt lat="47.04614" lon="-1.64612">
        <ele>0.19</ele>
        <time>2020-05-20T17:27:52Z</time>
      </trkpt>
      <trkpt lat="47.0462" lon="-1.64598">
        <ele>-0.4</ele>
        <time>2020-05-20T17:27:54Z</time>
      </trkpt>
      <trkpt lat="47.04627" lon="-1.64582">
        <ele>-0.72</ele>
        <time>2020-05-20T17:27:56Z</time>
      </trkpt>
      <trkpt lat="47.04635" lon="-1.64565">
        <ele>-1.62</ele>
        <time>2020-05-20T17:27:58Z</time>
      </trkpt>
      <trkpt lat="47.04642" lon="-1.64548">
        <ele>-1.57</ele>
        <time>2020-05-20T17:28:00Z</time>
      </trkpt>
      <trkpt lat="47.04649" lon="-1.6453">
        <ele>-1.59</ele>
        <time>2020-05-20T17:28:02Z</time>
      </trkpt>
      <trkpt lat="47.04656" lon="-1.64515">
        <ele>-0.07</ele>
        <time>2020-05-20T17:28:04Z</time>
      </trkpt>
      <trkpt lat="47.04663" lon="-1.64499">
        <ele>1.37</ele>
        <time>2020-05-20T17:28:06Z</time>
      </trkpt>
      <trkpt lat="47.0467" lon="-1.64482">
        <ele>2.67</ele>
        <time>2020-05-20T17:28:08Z</time>
      </trkpt>
      <trkpt lat="47.04676" lon="-1.64468">
        <ele>3.51</ele>
        <time>2020-05-20T17:28:10Z</time>
      </trkpt>
      <trkpt lat="47.04683" lon="-1.64453">
        <ele>3.82</ele>
        <time>2020-05-20T17:28:12Z</time>
      </trkpt>
      <trkpt lat="47.04693" lon="-1.64436">
        <ele>2.36</ele>
        <time>2020-05-20T17:28:15Z</time>
      </trkpt>
      <trkpt lat="47.04701" lon="-1.64423">
        <ele>0.9</ele>
        <time>2020-05-20T17:28:17Z</time>
      </trkpt>
      <trkpt lat="47.04709" lon="-1.6441">
        <ele>-0.44</ele>
        <time>2020-05-20T17:28:19Z</time>
      </trkpt>
      <trkpt lat="47.04716" lon="-1.64397">
        <ele>-0.91</ele>
        <time>2020-05-20T17:28:21Z</time>
      </trkpt>
      <trkpt lat="47.04723" lon="-1.64382">
        <ele>-0.18</ele>
        <time>2020-05-20T17:28:23Z</time>
      </trkpt>
      <trkpt lat="47.04731" lon="-1.64368">
        <ele>0.64</ele>
        <time>2020-05-20T17:28:25Z</time>
      </trkpt>
      <trkpt lat="47.04732" lon="-1.64352">
        <ele>1.03</ele>
        <time>2020-05-20T17:28:27Z</time>
      </trkpt>
      <trkpt lat="47.0473" lon="-1.64336">
        <ele>1.61</ele>
        <time>2020-05-20T17:28:29Z</time>
      </trkpt>
      <trkpt lat="47.04731" lon="-1.6432">
        <ele>1.88</ele>
        <time>2020-05-20T17:28:31Z</time>
      </trkpt>
      <trkpt lat="47.04734" lon="-1.64302">
        <ele>1.92</ele>
        <time>2020-05-20T17:28:33Z</time>
      </trkpt>
      <trkpt lat="47.04737" lon="-1.64287">
        <ele>2.12</ele>
        <time>2020-05-20T17:28:35Z</time>
      </trkpt>
      <trkpt lat="47.0474" lon="-1.64269">
        <ele>2.07</ele>
        <time>2020-05-20T17:28:37Z</time>
      </trkpt>
      <trkpt lat="47.04744" lon="-1.64252">
        <ele>1.83</ele>
        <time>2020-05-20T17:28:39Z</time>
      </trkpt>
      <trkpt lat="47.04748" lon="-1.64235">
        <ele>1.72</ele>
        <time>2020-05-20T17:28:41Z</time>
      </trkpt>
      <trkpt lat="47.04752" lon="-1.64218">
        <ele>2.49</ele>
        <time>2020-05-20T17:28:43Z</time>
      </trkpt>
      <trkpt lat="47.04756" lon="-1.64203">
        <ele>3.23</ele>
        <time>2020-05-20T17:28:45Z</time>
      </trkpt>
      <trkpt lat="47.0476" lon="-1.64188">
        <ele>3.95</ele>
        <time>2020-05-20T17:28:47Z</time>
      </trkpt>
      <trkpt lat="47.04764" lon="-1.6417">
        <ele>4.22</ele>
        <time>2020-05-20T17:28:49Z</time>
      </trkpt>
      <trkpt lat="47.04768" lon="-1.64155">
        <ele>4.55</ele>
        <time>2020-05-20T17:28:51Z</time>
      </trkpt>
      <trkpt lat="47.0477" lon="-1.64135">
        <ele>4.96</ele>
        <time>2020-05-20T17:28:53Z</time>
      </trkpt>
      <trkpt lat="47.04775" lon="-1.64118">
        <ele>5.2</ele>
        <time>2020-05-20T17:28:55Z</time>
      </trkpt>
      <trkpt lat="47.04779" lon="-1.64104">
        <ele>5.77</ele>
        <time>2020-05-20T17:28:57Z</time>
      </trkpt>
      <trkpt lat="47.04783" lon="-1.64089">
        <ele>6.05</ele>
        <time>2020-05-20T17:28:59Z</time>
      </trkpt>
      <trkpt lat="47.04788" lon="-1.64072">
        <ele>6.65</ele>
        <time>2020-05-20T17:29:01Z</time>
      </trkpt>
      <trkpt lat="47.04793" lon="-1.64054">
        <ele>6.82</ele>
        <time>2020-05-20T17:29:03Z</time>
      </trkpt>
      <trkpt lat="47.04797" lon="-1.64037">
        <ele>6.81</ele>
        <time>2020-05-20T17:29:05Z</time>
      </trkpt>
      <trkpt lat="47.04802" lon="-1.64019">
        <ele>5.88</ele>
        <time>2020-05-20T17:29:07Z</time>
      </trkpt>
      <trkpt lat="47.04806" lon="-1.64002">
        <ele>5.27</ele>
        <time>2020-05-20T17:29:09Z</time>
      </trkpt>
      <trkpt lat="47.04812" lon="-1.63985">
        <ele>4.5</ele>
        <time>2020-05-20T17:29:11Z</time>
      </trkpt>
      <trkpt lat="47.04821" lon="-1.63969">
        <ele>3.49</ele>
        <time>2020-05-20T17:29:13Z</time>
      </trkpt>
      <trkpt lat="47.04829" lon="-1.6396">
        <ele>2.57</ele>
        <time>2020-05-20T17:29:15Z</time>
      </trkpt>
      <trkpt lat="47.04839" lon="-1.63951">
        <ele>1.86</ele>
        <time>2020-05-20T17:29:17Z</time>
      </trkpt>
      <trkpt lat="47.04849" lon="-1.63942">
        <ele>1.73</ele>
        <time>2020-05-20T17:29:19Z</time>
      </trkpt>
      <trkpt lat="47.04861" lon="-1.63932">
        <ele>1.25</ele>
        <time>2020-05-20T17:29:21Z</time>
      </trkpt>
      <trkpt lat="47.04873" lon="-1.63922">
        <ele>1.19</ele>
        <time>2020-05-20T17:29:23Z</time>
      </trkpt>
      <trkpt lat="47.04884" lon="-1.63913">
        <ele>0.9</ele>
        <time>2020-05-20T17:29:25Z</time>
      </trkpt>
      <trkpt lat="47.04894" lon="-1.63905">
        <ele>0.73</ele>
        <time>2020-05-20T17:29:27Z</time>
      </trkpt>
      <trkpt lat="47.04904" lon="-1.63896">
        <ele>1.24</ele>
        <time>2020-05-20T17:29:29Z</time>
      </trkpt>
      <trkpt lat="47.04916" lon="-1.63886">
        <ele>1.25</ele>
        <time>2020-05-20T17:29:31Z</time>
      </trkpt>
      <trkpt lat="47.04926" lon="-1.63877">
        <ele>0.88</ele>
        <time>2020-05-20T17:29:33Z</time>
      </trkpt>
      <trkpt lat="47.04937" lon="-1.63869">
        <ele>0.84</ele>
        <time>2020-05-20T17:29:35Z</time>
      </trkpt>
      <trkpt lat="47.04947" lon="-1.63859">
        <ele>0.07</ele>
        <time>2020-05-20T17:29:37Z</time>
      </trkpt>
      <trkpt lat="47.04957" lon="-1.63849">
        <ele>0.12</ele>
        <time>2020-05-20T17:29:39Z</time>
      </trkpt>
      <trkpt lat="47.04968" lon="-1.63839">
        <ele>0.41</ele>
        <time>2020-05-20T17:29:41Z</time>
      </trkpt>
      <trkpt lat="47.04978" lon="-1.63828">
        <ele>0.62</ele>
        <time>2020-05-20T17:29:43Z</time>
      </trkpt>
      <trkpt lat="47.04987" lon="-1.6382">
        <ele>1.18</ele>
        <time>2020-05-20T17:29:45Z</time>
      </trkpt>
      <trkpt lat="47.04996" lon="-1.63811">
        <ele>1.98</ele>
        <time>2020-05-20T17:29:47Z</time>
      </trkpt>
      <trkpt lat="47.05003" lon="-1.63799">
        <ele>2.77</ele>
        <time>2020-05-20T17:29:49Z</time>
      </trkpt>
      <trkpt lat="47.05004" lon="-1.63781">
        <ele>4.09</ele>
        <time>2020-05-20T17:29:51Z</time>
      </trkpt>
      <trkpt lat="47.05003" lon="-1.63767">
        <ele>4.91</ele>
        <time>2020-05-20T17:29:53Z</time>
      </trkpt>
      <trkpt lat="47.05007" lon="-1.63748">
        <ele>4.42</ele>
        <time>2020-05-20T17:29:56Z</time>
      </trkpt>
      <trkpt lat="47.05004" lon="-1.63731">
        <ele>4.31</ele>
        <time>2020-05-20T17:29:58Z</time>
      </trkpt>
      <trkpt lat="47.05001" lon="-1.63713">
        <ele>3.76</ele>
        <time>2020-05-20T17:30:00Z</time>
      </trkpt>
      <trkpt lat="47.04997" lon="-1.63694">
        <ele>2.69</ele>
        <time>2020-05-20T17:30:02Z</time>
      </trkpt>
      <trkpt lat="47.04993" lon="-1.63676">
        <ele>2.02</ele>
        <time>2020-05-20T17:30:04Z</time>
      </trkpt>
      <trkpt lat="47.04989" lon="-1.63659">
        <ele>1.2</ele>
        <time>2020-05-20T17:30:06Z</time>
      </trkpt>
      <trkpt lat="47.04984" lon="-1.63645">
        <ele>0.64</ele>
        <time>2020-05-20T17:30:08Z</time>
      </trkpt>
      <trkpt lat="47.04981" lon="-1.63629">
        <ele>0.39</ele>
        <time>2020-05-20T17:30:10Z</time>
      </trkpt>
      <trkpt lat="47.04978" lon="-1.63615">
        <ele>0.66</ele>
        <time>2020-05-20T17:30:12Z</time>
      </trkpt>
      <trkpt lat="47.04976" lon="-1.63599">
        <ele>1.09</ele>
        <time>2020-05-20T17:30:14Z</time>
      </trkpt>
      <trkpt lat="47.04984" lon="-1.63589">
        <ele>1.4</ele>
        <time>2020-05-20T17:30:16Z</time>
      </trkpt>
      <trkpt lat="47.04994" lon="-1.63581">
        <ele>1.74</ele>
        <time>2020-05-20T17:30:18Z</time>
      </trkpt>
      <trkpt lat="47.05004" lon="-1.63571">
        <ele>1.65</ele>
        <time>2020-05-20T17:30:20Z</time>
      </trkpt>
      <trkpt lat="47.05015" lon="-1.63562">
        <ele>2.22</ele>
        <time>2020-05-20T17:30:22Z</time>
      </trkpt>
      <trkpt lat="47.05026" lon="-1.63555">
        <ele>2.92</ele>
        <time>2020-05-20T17:30:24Z</time>
      </trkpt>
      <trkpt lat="47.05037" lon="-1.6355">
        <ele>2.55</ele>
        <time>2020-05-20T17:30:26Z</time>
      </trkpt>
      <trkpt lat="47.05047" lon="-1.63547">
        <ele>2.55</ele>
        <time>2020-05-20T17:30:28Z</time>
      </trkpt>
      <trkpt lat="47.05057" lon="-1.63544">
        <ele>1.89</ele>
        <time>2020-05-20T17:30:30Z</time>
      </trkpt>
      <trkpt lat="47.05068" lon="-1.63539">
        <ele>1.35</ele>
        <time>2020-05-20T17:30:32Z</time>
      </trkpt>
      <trkpt lat="47.05075" lon="-1.63528">
        <ele>0.59</ele>
        <time>2020-05-20T17:30:34Z</time>
      </trkpt>
      <trkpt lat="47.05089" lon="-1.63522">
        <ele>-0.15</ele>
        <time>2020-05-20T17:30:36Z</time>
      </trkpt>
      <trkpt lat="47.05102" lon="-1.63516">
        <ele>-0.68</ele>
        <time>2020-05-20T17:30:38Z</time>
      </trkpt>
      <trkpt lat="47.05115" lon="-1.63511">
        <ele>-0.39</ele>
        <time>2020-05-20T17:30:40Z</time>
      </trkpt>
      <trkpt lat="47.05127" lon="-1.63506">
        <ele>0.23</ele>
        <time>2020-05-20T17:30:42Z</time>
      </trkpt>
      <trkpt lat="47.05141" lon="-1.63501">
        <ele>0.95</ele>
        <time>2020-05-20T17:30:44Z</time>
      </trkpt>
      <trkpt lat="47.05153" lon="-1.63497">
        <ele>0.46</ele>
        <time>2020-05-20T17:30:46Z</time>
      </trkpt>
      <trkpt lat="47.05166" lon="-1.63493">
        <ele>-0.3</ele>
        <time>2020-05-20T17:30:48Z</time>
      </trkpt>
      <trkpt lat="47.05178" lon="-1.63488">
        <ele>-1.21</ele>
        <time>2020-05-20T17:30:50Z</time>
      </trkpt>
      <trkpt lat="47.05192" lon="-1.63483">
        <ele>-1.51</ele>
        <time>2020-05-20T17:30:52Z</time>
      </trkpt>
      <trkpt lat="47.05205" lon="-1.63478">
        <ele>-2.03</ele>
        <time>2020-05-20T17:30:54Z</time>
      </trkpt>
      <trkpt lat="47.05218" lon="-1.63472">
        <ele>-1.69</ele>
        <time>2020-05-20T17:30:56Z</time>
      </trkpt>
      <trkpt lat="47.05231" lon="-1.63467">
        <ele>-1.29</ele>
        <time>2020-05-20T17:30:58Z</time>
      </trkpt>
      <trkpt lat="47.05245" lon="-1.63462">
        <ele>-1</ele>
        <time>2020-05-20T17:31:00Z</time>
      </trkpt>
      <trkpt lat="47.05258" lon="-1.63458">
        <ele>-0.15</ele>
        <time>2020-05-20T17:31:02Z</time>
      </trkpt>
      <trkpt lat="47.05272" lon="-1.63455">
        <ele>0.25</ele>
        <time>2020-05-20T17:31:04Z</time>
      </trkpt>
      <trkpt lat="47.05285" lon="-1.63452">
        <ele>0.38</ele>
        <time>2020-05-20T17:31:06Z</time>
      </trkpt>
      <trkpt lat="47.05299" lon="-1.6345">
        <ele>0.19</ele>
        <time>2020-05-20T17:31:08Z</time>
      </trkpt>
      <trkpt lat="47.05313" lon="-1.63447">
        <ele>0.58</ele>
        <time>2020-05-20T17:31:10Z</time>
      </trkpt>
      <trkpt lat="47.05328" lon="-1.63445">
        <ele>1.75</ele>
        <time>2020-05-20T17:31:12Z</time>
      </trkpt>
      <trkpt lat="47.05342" lon="-1.63445">
        <ele>2.84</ele>
        <time>2020-05-20T17:31:14Z</time>
      </trkpt>
      <trkpt lat="47.05352" lon="-1.63444">
        <ele>3.02</ele>
        <time>2020-05-20T17:31:16Z</time>
      </trkpt>
      <trkpt lat="47.05364" lon="-1.63436">
        <ele>2.36</ele>
        <time>2020-05-20T17:31:18Z</time>
      </trkpt>
      <trkpt lat="47.05376" lon="-1.63432">
        <ele>2.69</ele>
        <time>2020-05-20T17:31:20Z</time>
      </trkpt>
      <trkpt lat="47.05389" lon="-1.63433">
        <ele>3.21</ele>
        <time>2020-05-20T17:31:22Z</time>
      </trkpt>
      <trkpt lat="47.05403" lon="-1.63434">
        <ele>3.54</ele>
        <time>2020-05-20T17:31:24Z</time>
      </trkpt>
      <trkpt lat="47.05417" lon="-1.63432">
        <ele>3.5</ele>
        <time>2020-05-20T17:31:26Z</time>
      </trkpt>
      <trkpt lat="47.05431" lon="-1.6343">
        <ele>3.27</ele>
        <time>2020-05-20T17:31:28Z</time>
      </trkpt>
      <trkpt lat="47.05444" lon="-1.63427">
        <ele>2.27</ele>
        <time>2020-05-20T17:31:30Z</time>
      </trkpt>
      <trkpt lat="47.05456" lon="-1.63425">
        <ele>1.98</ele>
        <time>2020-05-20T17:31:32Z</time>
      </trkpt>
      <trkpt lat="47.05468" lon="-1.63423">
        <ele>1.12</ele>
        <time>2020-05-20T17:31:34Z</time>
      </trkpt>
      <trkpt lat="47.05482" lon="-1.63421">
        <ele>0.59</ele>
        <time>2020-05-20T17:31:36Z</time>
      </trkpt>
      <trkpt lat="47.05498" lon="-1.63419">
        <ele>0.18</ele>
        <time>2020-05-20T17:31:38Z</time>
      </trkpt>
      <trkpt lat="47.0551" lon="-1.63418">
        <ele>0.43</ele>
        <time>2020-05-20T17:31:40Z</time>
      </trkpt>
      <trkpt lat="47.05523" lon="-1.63416">
        <ele>0.09</ele>
        <time>2020-05-20T17:31:42Z</time>
      </trkpt>
      <trkpt lat="47.05536" lon="-1.63413">
        <ele>-0.15</ele>
        <time>2020-05-20T17:31:44Z</time>
      </trkpt>
      <trkpt lat="47.05549" lon="-1.63409">
        <ele>-0.61</ele>
        <time>2020-05-20T17:31:46Z</time>
      </trkpt>
      <trkpt lat="47.05562" lon="-1.63404">
        <ele>-0.79</ele>
        <time>2020-05-20T17:31:48Z</time>
      </trkpt>
      <trkpt lat="47.05576" lon="-1.63399">
        <ele>-0.79</ele>
        <time>2020-05-20T17:31:51Z</time>
      </trkpt>
      <trkpt lat="47.05588" lon="-1.63393">
        <ele>-0.72</ele>
        <time>2020-05-20T17:31:53Z</time>
      </trkpt>
      <trkpt lat="47.056" lon="-1.63388">
        <ele>-0.75</ele>
        <time>2020-05-20T17:31:55Z</time>
      </trkpt>
      <trkpt lat="47.05611" lon="-1.63381">
        <ele>-0.57</ele>
        <time>2020-05-20T17:31:57Z</time>
      </trkpt>
      <trkpt lat="47.05623" lon="-1.63375">
        <ele>-0.19</ele>
        <time>2020-05-20T17:31:59Z</time>
      </trkpt>
      <trkpt lat="47.05635" lon="-1.63369">
        <ele>-0.04</ele>
        <time>2020-05-20T17:32:01Z</time>
      </trkpt>
      <trkpt lat="47.05647" lon="-1.63363">
        <ele>-0.12</ele>
        <time>2020-05-20T17:32:03Z</time>
      </trkpt>
      <trkpt lat="47.0566" lon="-1.63356">
        <ele>-0.69</ele>
        <time>2020-05-20T17:32:05Z</time>
      </trkpt>
      <trkpt lat="47.05673" lon="-1.6335">
        <ele>-0.6</ele>
        <time>2020-05-20T17:32:07Z</time>
      </trkpt>
      <trkpt lat="47.05685" lon="-1.63345">
        <ele>-0.33</ele>
        <time>2020-05-20T17:32:09Z</time>
      </trkpt>
      <trkpt lat="47.05698" lon="-1.63339">
        <ele>-0.16</ele>
        <time>2020-05-20T17:32:11Z</time>
      </trkpt>
      <trkpt lat="47.0571" lon="-1.63332">
        <ele>0.22</ele>
        <time>2020-05-20T17:32:13Z</time>
      </trkpt>
      <trkpt lat="47.05722" lon="-1.63326">
        <ele>0.78</ele>
        <time>2020-05-20T17:32:15Z</time>
      </trkpt>
      <trkpt lat="47.05734" lon="-1.63322">
        <ele>1.51</ele>
        <time>2020-05-20T17:32:17Z</time>
      </trkpt>
      <trkpt lat="47.05745" lon="-1.63317">
        <ele>2.27</ele>
        <time>2020-05-20T17:32:19Z</time>
      </trkpt>
      <trkpt lat="47.05757" lon="-1.63312">
        <ele>2.63</ele>
        <time>2020-05-20T17:32:21Z</time>
      </trkpt>
      <trkpt lat="47.05769" lon="-1.63306">
        <ele>2.47</ele>
        <time>2020-05-20T17:32:23Z</time>
      </trkpt>
      <trkpt lat="47.05782" lon="-1.633">
        <ele>2.55</ele>
        <time>2020-05-20T17:32:25Z</time>
      </trkpt>
      <trkpt lat="47.05796" lon="-1.63293">
        <ele>2.44</ele>
        <time>2020-05-20T17:32:27Z</time>
      </trkpt>
      <trkpt lat="47.05809" lon="-1.63287">
        <ele>2.43</ele>
        <time>2020-05-20T17:32:29Z</time>
      </trkpt>
      <trkpt lat="47.05822" lon="-1.6328">
        <ele>3.4</ele>
        <time>2020-05-20T17:32:31Z</time>
      </trkpt>
      <trkpt lat="47.05834" lon="-1.63275">
        <ele>3.81</ele>
        <time>2020-05-20T17:32:33Z</time>
      </trkpt>
      <trkpt lat="47.05846" lon="-1.63269">
        <ele>4.21</ele>
        <time>2020-05-20T17:32:35Z</time>
      </trkpt>
      <trkpt lat="47.05859" lon="-1.63263">
        <ele>3.56</ele>
        <time>2020-05-20T17:32:37Z</time>
      </trkpt>
      <trkpt lat="47.05871" lon="-1.63258">
        <ele>3.25</ele>
        <time>2020-05-20T17:32:39Z</time>
      </trkpt>
      <trkpt lat="47.05883" lon="-1.63252">
        <ele>2.59</ele>
        <time>2020-05-20T17:32:41Z</time>
      </trkpt>
      <trkpt lat="47.05895" lon="-1.63246">
        <ele>2</ele>
        <time>2020-05-20T17:32:43Z</time>
      </trkpt>
      <trkpt lat="47.05907" lon="-1.63241">
        <ele>1.29</ele>
        <time>2020-05-20T17:32:45Z</time>
      </trkpt>
      <trkpt lat="47.0592" lon="-1.63235">
        <ele>0.79</ele>
        <time>2020-05-20T17:32:47Z</time>
      </trkpt>
      <trkpt lat="47.05932" lon="-1.6323">
        <ele>0.18</ele>
        <time>2020-05-20T17:32:49Z</time>
      </trkpt>
      <trkpt lat="47.05945" lon="-1.63225">
        <ele>0.36</ele>
        <time>2020-05-20T17:32:51Z</time>
      </trkpt>
      <trkpt lat="47.05956" lon="-1.63219">
        <ele>0.92</ele>
        <time>2020-05-20T17:32:53Z</time>
      </trkpt>
      <trkpt lat="47.05969" lon="-1.63213">
        <ele>1.71</ele>
        <time>2020-05-20T17:32:55Z</time>
      </trkpt>
      <trkpt lat="47.05982" lon="-1.63206">
        <ele>0.37</ele>
        <time>2020-05-20T17:32:57Z</time>
      </trkpt>
      <trkpt lat="47.05994" lon="-1.632">
        <ele>-1.07</ele>
        <time>2020-05-20T17:32:59Z</time>
      </trkpt>
      <trkpt lat="47.06007" lon="-1.63195">
        <ele>-0.86</ele>
        <time>2020-05-20T17:33:01Z</time>
      </trkpt>
      <trkpt lat="47.06019" lon="-1.63189">
        <ele>-0.56</ele>
        <time>2020-05-20T17:33:03Z</time>
      </trkpt>
      <trkpt lat="47.0603" lon="-1.63183">
        <ele>0.05</ele>
        <time>2020-05-20T17:33:05Z</time>
      </trkpt>
      <trkpt lat="47.0604" lon="-1.63177">
        <ele>0.74</ele>
        <time>2020-05-20T17:33:07Z</time>
      </trkpt>
      <trkpt lat="47.06049" lon="-1.63172">
        <ele>1.6</ele>
        <time>2020-05-20T17:33:09Z</time>
      </trkpt>
      <trkpt lat="47.06058" lon="-1.6317">
        <ele>3.18</ele>
        <time>2020-05-20T17:33:12Z</time>
      </trkpt>
      <trkpt lat="47.06056" lon="-1.63187">
        <ele>4.43</ele>
        <time>2020-05-20T17:33:14Z</time>
      </trkpt>
      <trkpt lat="47.06052" lon="-1.63208">
        <ele>3.86</ele>
        <time>2020-05-20T17:33:16Z</time>
      </trkpt>
      <trkpt lat="47.06048" lon="-1.6323">
        <ele>2.32</ele>
        <time>2020-05-20T17:33:18Z</time>
      </trkpt>
      <trkpt lat="47.06045" lon="-1.6325">
        <ele>0.13</ele>
        <time>2020-05-20T17:33:20Z</time>
      </trkpt>
      <trkpt lat="47.06043" lon="-1.63266">
        <ele>-1.33</ele>
        <time>2020-05-20T17:33:22Z</time>
      </trkpt>
      <trkpt lat="47.0604" lon="-1.63285">
        <ele>-1.72</ele>
        <time>2020-05-20T17:33:24Z</time>
      </trkpt>
      <trkpt lat="47.06037" lon="-1.63302">
        <ele>-1.05</ele>
        <time>2020-05-20T17:33:26Z</time>
      </trkpt>
      <trkpt lat="47.06042" lon="-1.63321">
        <ele>-0.99</ele>
        <time>2020-05-20T17:33:28Z</time>
      </trkpt>
      <trkpt lat="47.06053" lon="-1.6333">
        <ele>-1.42</ele>
        <time>2020-05-20T17:33:30Z</time>
      </trkpt>
      <trkpt lat="47.06065" lon="-1.63336">
        <ele>-1.78</ele>
        <time>2020-05-20T17:33:32Z</time>
      </trkpt>
      <trkpt lat="47.06079" lon="-1.63341">
        <ele>-1.58</ele>
        <time>2020-05-20T17:33:34Z</time>
      </trkpt>
      <trkpt lat="47.06092" lon="-1.63346">
        <ele>-1.41</ele>
        <time>2020-05-20T17:33:36Z</time>
      </trkpt>
      <trkpt lat="47.06105" lon="-1.6335">
        <ele>-1.94</ele>
        <time>2020-05-20T17:33:38Z</time>
      </trkpt>
      <trkpt lat="47.06118" lon="-1.63355">
        <ele>-1.48</ele>
        <time>2020-05-20T17:33:40Z</time>
      </trkpt>
      <trkpt lat="47.06132" lon="-1.6336">
        <ele>-0.9</ele>
        <time>2020-05-20T17:33:42Z</time>
      </trkpt>
      <trkpt lat="47.06144" lon="-1.63364">
        <ele>-0.28</ele>
        <time>2020-05-20T17:33:44Z</time>
      </trkpt>
      <trkpt lat="47.06155" lon="-1.63369">
        <ele>0.69</ele>
        <time>2020-05-20T17:33:46Z</time>
      </trkpt>
      <trkpt lat="47.06168" lon="-1.63373">
        <ele>1</ele>
        <time>2020-05-20T17:33:48Z</time>
      </trkpt>
      <trkpt lat="47.0618" lon="-1.63377">
        <ele>2.03</ele>
        <time>2020-05-20T17:33:50Z</time>
      </trkpt>
      <trkpt lat="47.06193" lon="-1.63381">
        <ele>2.38</ele>
        <time>2020-05-20T17:33:52Z</time>
      </trkpt>
      <trkpt lat="47.06206" lon="-1.63386">
        <ele>2.04</ele>
        <time>2020-05-20T17:33:54Z</time>
      </trkpt>
      <trkpt lat="47.06218" lon="-1.6339">
        <ele>1.48</ele>
        <time>2020-05-20T17:33:56Z</time>
      </trkpt>
      <trkpt lat="47.06232" lon="-1.63396">
        <ele>0.32</ele>
        <time>2020-05-20T17:33:58Z</time>
      </trkpt>
      <trkpt lat="47.06244" lon="-1.63401">
        <ele>-0.03</ele>
        <time>2020-05-20T17:34:00Z</time>
      </trkpt>
      <trkpt lat="47.06256" lon="-1.63406">
        <ele>-0.3</ele>
        <time>2020-05-20T17:34:02Z</time>
      </trkpt>
      <trkpt lat="47.06268" lon="-1.6341">
        <ele>-0.3</ele>
        <time>2020-05-20T17:34:04Z</time>
      </trkpt>
      <trkpt lat="47.0628" lon="-1.63415">
        <ele>-1.01</ele>
        <time>2020-05-20T17:34:06Z</time>
      </trkpt>
      <trkpt lat="47.06292" lon="-1.63419">
        <ele>-1.96</ele>
        <time>2020-05-20T17:34:08Z</time>
      </trkpt>
      <trkpt lat="47.06304" lon="-1.63424">
        <ele>-3.28</ele>
        <time>2020-05-20T17:34:10Z</time>
      </trkpt>
      <trkpt lat="47.06315" lon="-1.6343">
        <ele>-4.78</ele>
        <time>2020-05-20T17:34:12Z</time>
      </trkpt>
      <trkpt lat="47.06326" lon="-1.63438">
        <ele>-5.7</ele>
        <time>2020-05-20T17:34:14Z</time>
      </trkpt>
      <trkpt lat="47.06335" lon="-1.63449">
        <ele>-6.05</ele>
        <time>2020-05-20T17:34:16Z</time>
      </trkpt>
      <trkpt lat="47.06345" lon="-1.63461">
        <ele>-7.65</ele>
        <time>2020-05-20T17:34:18Z</time>
      </trkpt>
      <trkpt lat="47.06357" lon="-1.63477">
        <ele>-7.92</ele>
        <time>2020-05-20T17:34:20Z</time>
      </trkpt>
      <trkpt lat="47.06367" lon="-1.63494">
        <ele>-6.16</ele>
        <time>2020-05-20T17:34:22Z</time>
      </trkpt>
      <trkpt lat="47.06374" lon="-1.6351">
        <ele>-4.14</ele>
        <time>2020-05-20T17:34:24Z</time>
      </trkpt>
      <trkpt lat="47.06382" lon="-1.63526">
        <ele>-2.77</ele>
        <time>2020-05-20T17:34:26Z</time>
      </trkpt>
      <trkpt lat="47.06391" lon="-1.63537">
        <ele>-2.01</ele>
        <time>2020-05-20T17:34:28Z</time>
      </trkpt>
      <trkpt lat="47.06402" lon="-1.63548">
        <ele>-1.8</ele>
        <time>2020-05-20T17:34:30Z</time>
      </trkpt>
      <trkpt lat="47.06413" lon="-1.63557">
        <ele>-0.96</ele>
        <time>2020-05-20T17:34:32Z</time>
      </trkpt>
      <trkpt lat="47.06424" lon="-1.63566">
        <ele>-0.71</ele>
        <time>2020-05-20T17:34:34Z</time>
      </trkpt>
      <trkpt lat="47.06435" lon="-1.63575">
        <ele>-0.81</ele>
        <time>2020-05-20T17:34:36Z</time>
      </trkpt>
      <trkpt lat="47.06446" lon="-1.63584">
        <ele>-1.2</ele>
        <time>2020-05-20T17:34:38Z</time>
      </trkpt>
      <trkpt lat="47.06458" lon="-1.63594">
        <ele>-1.13</ele>
        <time>2020-05-20T17:34:40Z</time>
      </trkpt>
      <trkpt lat="47.06469" lon="-1.63603">
        <ele>-1.41</ele>
        <time>2020-05-20T17:34:42Z</time>
      </trkpt>
      <trkpt lat="47.06481" lon="-1.63613">
        <ele>-1.86</ele>
        <time>2020-05-20T17:34:44Z</time>
      </trkpt>
      <trkpt lat="47.06493" lon="-1.63622">
        <ele>-2.28</ele>
        <time>2020-05-20T17:34:46Z</time>
      </trkpt>
      <trkpt lat="47.06506" lon="-1.63632">
        <ele>-2.18</ele>
        <time>2020-05-20T17:34:48Z</time>
      </trkpt>
      <trkpt lat="47.06518" lon="-1.63639">
        <ele>-1.41</ele>
        <time>2020-05-20T17:34:50Z</time>
      </trkpt>
      <trkpt lat="47.0653" lon="-1.63648">
        <ele>-1.17</ele>
        <time>2020-05-20T17:34:52Z</time>
      </trkpt>
      <trkpt lat="47.06542" lon="-1.63656">
        <ele>-1.04</ele>
        <time>2020-05-20T17:34:54Z</time>
      </trkpt>
      <trkpt lat="47.06554" lon="-1.63665">
        <ele>-1.11</ele>
        <time>2020-05-20T17:34:56Z</time>
      </trkpt>
      <trkpt lat="47.06565" lon="-1.63672">
        <ele>-1.79</ele>
        <time>2020-05-20T17:34:58Z</time>
      </trkpt>
      <trkpt lat="47.06577" lon="-1.63681">
        <ele>-1.91</ele>
        <time>2020-05-20T17:35:00Z</time>
      </trkpt>
      <trkpt lat="47.06588" lon="-1.63692">
        <ele>-2.3</ele>
        <time>2020-05-20T17:35:02Z</time>
      </trkpt>
      <trkpt lat="47.066" lon="-1.63705">
        <ele>-2.56</ele>
        <time>2020-05-20T17:35:04Z</time>
      </trkpt>
      <trkpt lat="47.06611" lon="-1.63718">
        <ele>-3.04</ele>
        <time>2020-05-20T17:35:06Z</time>
      </trkpt>
      <trkpt lat="47.06621" lon="-1.63732">
        <ele>-2.54</ele>
        <time>2020-05-20T17:35:08Z</time>
      </trkpt>
      <trkpt lat="47.06633" lon="-1.63747">
        <ele>-1.6</ele>
        <time>2020-05-20T17:35:10Z</time>
      </trkpt>
      <trkpt lat="47.06642" lon="-1.63759">
        <ele>-1.15</ele>
        <time>2020-05-20T17:35:12Z</time>
      </trkpt>
      <trkpt lat="47.06652" lon="-1.63775">
        <ele>-1.65</ele>
        <time>2020-05-20T17:35:14Z</time>
      </trkpt>
      <trkpt lat="47.06662" lon="-1.63788">
        <ele>-1.92</ele>
        <time>2020-05-20T17:35:16Z</time>
      </trkpt>
      <trkpt lat="47.06671" lon="-1.63801">
        <ele>-2</ele>
        <time>2020-05-20T17:35:18Z</time>
      </trkpt>
      <trkpt lat="47.06681" lon="-1.63813">
        <ele>-1.83</ele>
        <time>2020-05-20T17:35:20Z</time>
      </trkpt>
      <trkpt lat="47.06692" lon="-1.63828">
        <ele>-1.2</ele>
        <time>2020-05-20T17:35:22Z</time>
      </trkpt>
      <trkpt lat="47.06702" lon="-1.63839">
        <ele>-1.32</ele>
        <time>2020-05-20T17:35:24Z</time>
      </trkpt>
      <trkpt lat="47.06714" lon="-1.63843">
        <ele>-1.86</ele>
        <time>2020-05-20T17:35:26Z</time>
      </trkpt>
      <trkpt lat="47.06728" lon="-1.63836">
        <ele>-1.69</ele>
        <time>2020-05-20T17:35:28Z</time>
      </trkpt>
      <trkpt lat="47.06742" lon="-1.63826">
        <ele>-1.5</ele>
        <time>2020-05-20T17:35:30Z</time>
      </trkpt>
      <trkpt lat="47.06754" lon="-1.63815">
        <ele>-1.2</ele>
        <time>2020-05-20T17:35:32Z</time>
      </trkpt>
      <trkpt lat="47.06765" lon="-1.63803">
        <ele>-1.02</ele>
        <time>2020-05-20T17:35:34Z</time>
      </trkpt>
      <trkpt lat="47.06776" lon="-1.63791">
        <ele>-1.62</ele>
        <time>2020-05-20T17:35:36Z</time>
      </trkpt>
      <trkpt lat="47.06786" lon="-1.63781">
        <ele>-2.1</ele>
        <time>2020-05-20T17:35:38Z</time>
      </trkpt>
      <trkpt lat="47.06797" lon="-1.63771">
        <ele>-2.42</ele>
        <time>2020-05-20T17:35:40Z</time>
      </trkpt>
      <trkpt lat="47.06807" lon="-1.6376">
        <ele>-2.59</ele>
        <time>2020-05-20T17:35:42Z</time>
      </trkpt>
      <trkpt lat="47.06817" lon="-1.6375">
        <ele>-1.88</ele>
        <time>2020-05-20T17:35:44Z</time>
      </trkpt>
      <trkpt lat="47.06828" lon="-1.63739">
        <ele>-1.26</ele>
        <time>2020-05-20T17:35:46Z</time>
      </trkpt>
      <trkpt lat="47.06838" lon="-1.63725">
        <ele>-0.02</ele>
        <time>2020-05-20T17:35:48Z</time>
      </trkpt>
      <trkpt lat="47.06846" lon="-1.63707">
        <ele>1.15</ele>
        <time>2020-05-20T17:35:50Z</time>
      </trkpt>
      <trkpt lat="47.06851" lon="-1.63689">
        <ele>2.23</ele>
        <time>2020-05-20T17:35:52Z</time>
      </trkpt>
      <trkpt lat="47.06855" lon="-1.63669">
        <ele>2.86</ele>
        <time>2020-05-20T17:35:54Z</time>
      </trkpt>
      <trkpt lat="47.06857" lon="-1.63651">
        <ele>3.55</ele>
        <time>2020-05-20T17:35:56Z</time>
      </trkpt>
      <trkpt lat="47.06859" lon="-1.63631">
        <ele>2.75</ele>
        <time>2020-05-20T17:35:58Z</time>
      </trkpt>
      <trkpt lat="47.0686" lon="-1.6361">
        <ele>2.12</ele>
        <time>2020-05-20T17:36:00Z</time>
      </trkpt>
      <trkpt lat="47.06861" lon="-1.63588">
        <ele>1.03</ele>
        <time>2020-05-20T17:36:02Z</time>
      </trkpt>
      <trkpt lat="47.06862" lon="-1.63569">
        <ele>0.48</ele>
        <time>2020-05-20T17:36:04Z</time>
      </trkpt>
      <trkpt lat="47.06863" lon="-1.63552">
        <ele>0.16</ele>
        <time>2020-05-20T17:36:06Z</time>
      </trkpt>
      <trkpt lat="47.06866" lon="-1.63533">
        <ele>0.6</ele>
        <time>2020-05-20T17:36:08Z</time>
      </trkpt>
      <trkpt lat="47.0687" lon="-1.63515">
        <ele>1.95</ele>
        <time>2020-05-20T17:36:10Z</time>
      </trkpt>
      <trkpt lat="47.06875" lon="-1.63498">
        <ele>2.65</ele>
        <time>2020-05-20T17:36:12Z</time>
      </trkpt>
      <trkpt lat="47.06881" lon="-1.63481">
        <ele>2.85</ele>
        <time>2020-05-20T17:36:14Z</time>
      </trkpt>
      <trkpt lat="47.06891" lon="-1.63467">
        <ele>3.04</ele>
        <time>2020-05-20T17:36:16Z</time>
      </trkpt>
      <trkpt lat="47.06901" lon="-1.63456">
        <ele>2.3</ele>
        <time>2020-05-20T17:36:18Z</time>
      </trkpt>
      <trkpt lat="47.06914" lon="-1.6345">
        <ele>1.37</ele>
        <time>2020-05-20T17:36:20Z</time>
      </trkpt>
      <trkpt lat="47.06925" lon="-1.63445">
        <ele>0.5</ele>
        <time>2020-05-20T17:36:22Z</time>
      </trkpt>
      <trkpt lat="47.06936" lon="-1.63441">
        <ele>-0.74</ele>
        <time>2020-05-20T17:36:24Z</time>
      </trkpt>
      <trkpt lat="47.06948" lon="-1.63434">
        <ele>-1.75</ele>
        <time>2020-05-20T17:36:26Z</time>
      </trkpt>
      <trkpt lat="47.0696" lon="-1.63426">
        <ele>-1.81</ele>
        <time>2020-05-20T17:36:28Z</time>
      </trkpt>
      <trkpt lat="47.06972" lon="-1.63415">
        <ele>-1.87</ele>
        <time>2020-05-20T17:36:30Z</time>
      </trkpt>
      <trkpt lat="47.06983" lon="-1.63404">
        <ele>-1.56</ele>
        <time>2020-05-20T17:36:32Z</time>
      </trkpt>
      <trkpt lat="47.06994" lon="-1.63392">
        <ele>-0.46</ele>
        <time>2020-05-20T17:36:34Z</time>
      </trkpt>
      <trkpt lat="47.07007" lon="-1.63381">
        <ele>0.54</ele>
        <time>2020-05-20T17:36:36Z</time>
      </trkpt>
      <trkpt lat="47.07017" lon="-1.6337">
        <ele>0.6</ele>
        <time>2020-05-20T17:36:38Z</time>
      </trkpt>
      <trkpt lat="47.07027" lon="-1.63359">
        <ele>0.78</ele>
        <time>2020-05-20T17:36:40Z</time>
      </trkpt>
      <trkpt lat="47.07038" lon="-1.63348">
        <ele>1.23</ele>
        <time>2020-05-20T17:36:42Z</time>
      </trkpt>
      <trkpt lat="47.07047" lon="-1.63338">
        <ele>2.1</ele>
        <time>2020-05-20T17:36:44Z</time>
      </trkpt>
      <trkpt lat="47.07058" lon="-1.63326">
        <ele>3</ele>
        <time>2020-05-20T17:36:46Z</time>
      </trkpt>
      <trkpt lat="47.07067" lon="-1.63311">
        <ele>3.85</ele>
        <time>2020-05-20T17:36:48Z</time>
      </trkpt>
      <trkpt lat="47.07075" lon="-1.63295">
        <ele>3.67</ele>
        <time>2020-05-20T17:36:50Z</time>
      </trkpt>
      <trkpt lat="47.07081" lon="-1.63277">
        <ele>3.9</ele>
        <time>2020-05-20T17:36:52Z</time>
      </trkpt>
      <trkpt lat="47.07085" lon="-1.63259">
        <ele>4.06</ele>
        <time>2020-05-20T17:36:54Z</time>
      </trkpt>
      <trkpt lat="47.07089" lon="-1.63242">
        <ele>3.84</ele>
        <time>2020-05-20T17:36:56Z</time>
      </trkpt>
      <trkpt lat="47.07092" lon="-1.63224">
        <ele>3.69</ele>
        <time>2020-05-20T17:36:58Z</time>
      </trkpt>
      <trkpt lat="47.07093" lon="-1.63207">
        <ele>2.57</ele>
        <time>2020-05-20T17:37:00Z</time>
      </trkpt>
      <trkpt lat="47.07095" lon="-1.6319">
        <ele>1.76</ele>
        <time>2020-05-20T17:37:02Z</time>
      </trkpt>
      <trkpt lat="47.07098" lon="-1.63173">
        <ele>1.32</ele>
        <time>2020-05-20T17:37:04Z</time>
      </trkpt>
      <trkpt lat="47.07105" lon="-1.6316">
        <ele>0.64</ele>
        <time>2020-05-20T17:37:06Z</time>
      </trkpt>
      <trkpt lat="47.07114" lon="-1.63148">
        <ele>0.77</ele>
        <time>2020-05-20T17:37:08Z</time>
      </trkpt>
      <trkpt lat="47.07124" lon="-1.63139">
        <ele>0.57</ele>
        <time>2020-05-20T17:37:10Z</time>
      </trkpt>
      <trkpt lat="47.07136" lon="-1.6313">
        <ele>0.15</ele>
        <time>2020-05-20T17:37:12Z</time>
      </trkpt>
      <trkpt lat="47.0715" lon="-1.63124">
        <ele>-0.35</ele>
        <time>2020-05-20T17:37:14Z</time>
      </trkpt>
      <trkpt lat="47.07162" lon="-1.63122">
        <ele>0.4</ele>
        <time>2020-05-20T17:37:16Z</time>
      </trkpt>
      <trkpt lat="47.07173" lon="-1.63122">
        <ele>2.11</ele>
        <time>2020-05-20T17:37:18Z</time>
      </trkpt>
      <trkpt lat="47.07185" lon="-1.63123">
        <ele>3.25</ele>
        <time>2020-05-20T17:37:20Z</time>
      </trkpt>
      <trkpt lat="47.07199" lon="-1.63126">
        <ele>4.49</ele>
        <time>2020-05-20T17:37:22Z</time>
      </trkpt>
      <trkpt lat="47.07211" lon="-1.63134">
        <ele>4.89</ele>
        <time>2020-05-20T17:37:24Z</time>
      </trkpt>
      <trkpt lat="47.07224" lon="-1.63144">
        <ele>4.53</ele>
        <time>2020-05-20T17:37:26Z</time>
      </trkpt>
      <trkpt lat="47.07237" lon="-1.63155">
        <ele>3.31</ele>
        <time>2020-05-20T17:37:28Z</time>
      </trkpt>
      <trkpt lat="47.07246" lon="-1.63163">
        <ele>2.53</ele>
        <time>2020-05-20T17:37:30Z</time>
      </trkpt>
      <trkpt lat="47.07256" lon="-1.63172">
        <ele>1.71</ele>
        <time>2020-05-20T17:37:32Z</time>
      </trkpt>
      <trkpt lat="47.07267" lon="-1.63182">
        <ele>1.3</ele>
        <time>2020-05-20T17:37:34Z</time>
      </trkpt>
      <trkpt lat="47.07277" lon="-1.63194">
        <ele>2.24</ele>
        <time>2020-05-20T17:37:36Z</time>
      </trkpt>
      <trkpt lat="47.07287" lon="-1.63207">
        <ele>2.7</ele>
        <time>2020-05-20T17:37:38Z</time>
      </trkpt>
      <trkpt lat="47.07297" lon="-1.63222">
        <ele>2.75</ele>
        <time>2020-05-20T17:37:40Z</time>
      </trkpt>
      <trkpt lat="47.07306" lon="-1.63235">
        <ele>2.46</ele>
        <time>2020-05-20T17:37:42Z</time>
      </trkpt>
      <trkpt lat="47.07314" lon="-1.63248">
        <ele>1.49</ele>
        <time>2020-05-20T17:37:44Z</time>
      </trkpt>
      <trkpt lat="47.07323" lon="-1.63261">
        <ele>1.19</ele>
        <time>2020-05-20T17:37:46Z</time>
      </trkpt>
      <trkpt lat="47.07332" lon="-1.63273">
        <ele>1.45</ele>
        <time>2020-05-20T17:37:48Z</time>
      </trkpt>
      <trkpt lat="47.07343" lon="-1.63286">
        <ele>1.97</ele>
        <time>2020-05-20T17:37:50Z</time>
      </trkpt>
      <trkpt lat="47.07354" lon="-1.63295">
        <ele>2.24</ele>
        <time>2020-05-20T17:37:52Z</time>
      </trkpt>
      <trkpt lat="47.07365" lon="-1.63304">
        <ele>2.5</ele>
        <time>2020-05-20T17:37:54Z</time>
      </trkpt>
      <trkpt lat="47.07376" lon="-1.63312">
        <ele>3.21</ele>
        <time>2020-05-20T17:37:56Z</time>
      </trkpt>
      <trkpt lat="47.07388" lon="-1.6332">
        <ele>4.25</ele>
        <time>2020-05-20T17:37:58Z</time>
      </trkpt>
      <trkpt lat="47.074" lon="-1.63328">
        <ele>5.13</ele>
        <time>2020-05-20T17:38:00Z</time>
      </trkpt>
      <trkpt lat="47.07413" lon="-1.63336">
        <ele>5.18</ele>
        <time>2020-05-20T17:38:02Z</time>
      </trkpt>
      <trkpt lat="47.07426" lon="-1.63345">
        <ele>4.05</ele>
        <time>2020-05-20T17:38:04Z</time>
      </trkpt>
      <trkpt lat="47.07438" lon="-1.63352">
        <ele>3.56</ele>
        <time>2020-05-20T17:38:06Z</time>
      </trkpt>
      <trkpt lat="47.0745" lon="-1.6336">
        <ele>3.54</ele>
        <time>2020-05-20T17:38:08Z</time>
      </trkpt>
      <trkpt lat="47.07463" lon="-1.63367">
        <ele>3.3</ele>
        <time>2020-05-20T17:38:10Z</time>
      </trkpt>
      <trkpt lat="47.07476" lon="-1.63375">
        <ele>3.03</ele>
        <time>2020-05-20T17:38:12Z</time>
      </trkpt>
      <trkpt lat="47.07489" lon="-1.63383">
        <ele>2.53</ele>
        <time>2020-05-20T17:38:14Z</time>
      </trkpt>
      <trkpt lat="47.075" lon="-1.63389">
        <ele>2.22</ele>
        <time>2020-05-20T17:38:16Z</time>
      </trkpt>
      <trkpt lat="47.07512" lon="-1.63396">
        <ele>2.75</ele>
        <time>2020-05-20T17:38:18Z</time>
      </trkpt>
      <trkpt lat="47.07524" lon="-1.63404">
        <ele>2.64</ele>
        <time>2020-05-20T17:38:20Z</time>
      </trkpt>
      <trkpt lat="47.07534" lon="-1.63411">
        <ele>2.17</ele>
        <time>2020-05-20T17:38:22Z</time>
      </trkpt>
      <trkpt lat="47.07546" lon="-1.63418">
        <ele>1.04</ele>
        <time>2020-05-20T17:38:24Z</time>
      </trkpt>
      <trkpt lat="47.0756" lon="-1.63426">
        <ele>0.43</ele>
        <time>2020-05-20T17:38:26Z</time>
      </trkpt>
      <trkpt lat="47.07572" lon="-1.63432">
        <ele>1.05</ele>
        <time>2020-05-20T17:38:28Z</time>
      </trkpt>
      <trkpt lat="47.07587" lon="-1.63438">
        <ele>1.62</ele>
        <time>2020-05-20T17:38:30Z</time>
      </trkpt>
      <trkpt lat="47.07601" lon="-1.6344">
        <ele>1.52</ele>
        <time>2020-05-20T17:38:32Z</time>
      </trkpt>
      <trkpt lat="47.07613" lon="-1.63437">
        <ele>1.1</ele>
        <time>2020-05-20T17:38:34Z</time>
      </trkpt>
      <trkpt lat="47.07625" lon="-1.63434">
        <ele>0.5</ele>
        <time>2020-05-20T17:38:36Z</time>
      </trkpt>
      <trkpt lat="47.07638" lon="-1.6343">
        <ele>0.29</ele>
        <time>2020-05-20T17:38:38Z</time>
      </trkpt>
      <trkpt lat="47.07651" lon="-1.63426">
        <ele>-0.42</ele>
        <time>2020-05-20T17:38:40Z</time>
      </trkpt>
      <trkpt lat="47.07663" lon="-1.63421">
        <ele>-0.93</ele>
        <time>2020-05-20T17:38:42Z</time>
      </trkpt>
      <trkpt lat="47.07675" lon="-1.63418">
        <ele>-0.95</ele>
        <time>2020-05-20T17:38:44Z</time>
      </trkpt>
      <trkpt lat="47.07686" lon="-1.63415">
        <ele>-0.19</ele>
        <time>2020-05-20T17:38:46Z</time>
      </trkpt>
      <trkpt lat="47.07696" lon="-1.63413">
        <ele>1.93</ele>
        <time>2020-05-20T17:38:48Z</time>
      </trkpt>
      <trkpt lat="47.07708" lon="-1.63405">
        <ele>2.48</ele>
        <time>2020-05-20T17:38:50Z</time>
      </trkpt>
      <trkpt lat="47.07718" lon="-1.63391">
        <ele>2.68</ele>
        <time>2020-05-20T17:38:52Z</time>
      </trkpt>
      <trkpt lat="47.07727" lon="-1.63379">
        <ele>2.38</ele>
        <time>2020-05-20T17:38:54Z</time>
      </trkpt>
      <trkpt lat="47.07736" lon="-1.63367">
        <ele>2.67</ele>
        <time>2020-05-20T17:38:56Z</time>
      </trkpt>
      <trkpt lat="47.07745" lon="-1.63356">
        <ele>2.26</ele>
        <time>2020-05-20T17:38:58Z</time>
      </trkpt>
      <trkpt lat="47.07753" lon="-1.63345">
        <ele>1.71</ele>
        <time>2020-05-20T17:39:00Z</time>
      </trkpt>
      <trkpt lat="47.07763" lon="-1.63333">
        <ele>1.53</ele>
        <time>2020-05-20T17:39:02Z</time>
      </trkpt>
      <trkpt lat="47.07773" lon="-1.63321">
        <ele>0.98</ele>
        <time>2020-05-20T17:39:04Z</time>
      </trkpt>
      <trkpt lat="47.07783" lon="-1.63308">
        <ele>1.44</ele>
        <time>2020-05-20T17:39:06Z</time>
      </trkpt>
      <trkpt lat="47.07792" lon="-1.63297">
        <ele>1.11</ele>
        <time>2020-05-20T17:39:08Z</time>
      </trkpt>
      <trkpt lat="47.07802" lon="-1.63286">
        <ele>1.03</ele>
        <time>2020-05-20T17:39:10Z</time>
      </trkpt>
      <trkpt lat="47.07811" lon="-1.63274">
        <ele>0.62</ele>
        <time>2020-05-20T17:39:12Z</time>
      </trkpt>
      <trkpt lat="47.07819" lon="-1.63263">
        <ele>0.86</ele>
        <time>2020-05-20T17:39:14Z</time>
      </trkpt>
      <trkpt lat="47.07825" lon="-1.63247">
        <ele>0.96</ele>
        <time>2020-05-20T17:39:16Z</time>
      </trkpt>
      <trkpt lat="47.07829" lon="-1.63225">
        <ele>0.56</ele>
        <time>2020-05-20T17:39:18Z</time>
      </trkpt>
      <trkpt lat="47.07826" lon="-1.63208">
        <ele>0.68</ele>
        <time>2020-05-20T17:39:20Z</time>
      </trkpt>
      <trkpt lat="47.07818" lon="-1.63194">
        <ele>1.55</ele>
        <time>2020-05-20T17:39:22Z</time>
      </trkpt>
      <trkpt lat="47.07811" lon="-1.63177">
        <ele>2.73</ele>
        <time>2020-05-20T17:39:24Z</time>
      </trkpt>
      <trkpt lat="47.07803" lon="-1.63161">
        <ele>4.58</ele>
        <time>2020-05-20T17:39:26Z</time>
      </trkpt>
      <trkpt lat="47.07796" lon="-1.63147">
        <ele>4.65</ele>
        <time>2020-05-20T17:39:28Z</time>
      </trkpt>
      <trkpt lat="47.07794" lon="-1.63133">
        <ele>5.21</ele>
        <time>2020-05-20T17:39:30Z</time>
      </trkpt>
      <trkpt lat="47.07803" lon="-1.63125">
        <ele>4.75</ele>
        <time>2020-05-20T17:39:32Z</time>
      </trkpt>
      <trkpt lat="47.07815" lon="-1.63125">
        <ele>4.98</ele>
        <time>2020-05-20T17:39:34Z</time>
      </trkpt>
      <trkpt lat="47.07829" lon="-1.63125">
        <ele>5.2</ele>
        <time>2020-05-20T17:39:36Z</time>
      </trkpt>
      <trkpt lat="47.07842" lon="-1.63125">
        <ele>4.84</ele>
        <time>2020-05-20T17:39:38Z</time>
      </trkpt>
      <trkpt lat="47.07855" lon="-1.63125">
        <ele>4.04</ele>
        <time>2020-05-20T17:39:40Z</time>
      </trkpt>
      <trkpt lat="47.07868" lon="-1.63125">
        <ele>3.13</ele>
        <time>2020-05-20T17:39:42Z</time>
      </trkpt>
      <trkpt lat="47.07881" lon="-1.63124">
        <ele>2.25</ele>
        <time>2020-05-20T17:39:44Z</time>
      </trkpt>
      <trkpt lat="47.07894" lon="-1.63123">
        <ele>1.56</ele>
        <time>2020-05-20T17:39:46Z</time>
      </trkpt>
      <trkpt lat="47.07907" lon="-1.63123">
        <ele>1.58</ele>
        <time>2020-05-20T17:39:48Z</time>
      </trkpt>
      <trkpt lat="47.0792" lon="-1.63121">
        <ele>1.84</ele>
        <time>2020-05-20T17:39:50Z</time>
      </trkpt>
      <trkpt lat="47.07933" lon="-1.6312">
        <ele>2.14</ele>
        <time>2020-05-20T17:39:52Z</time>
      </trkpt>
      <trkpt lat="47.07947" lon="-1.63119">
        <ele>2.31</ele>
        <time>2020-05-20T17:39:54Z</time>
      </trkpt>
      <trkpt lat="47.0796" lon="-1.63118">
        <ele>2.51</ele>
        <time>2020-05-20T17:39:56Z</time>
      </trkpt>
      <trkpt lat="47.07975" lon="-1.63117">
        <ele>3.27</ele>
        <time>2020-05-20T17:39:58Z</time>
      </trkpt>
      <trkpt lat="47.07988" lon="-1.63116">
        <ele>3.47</ele>
        <time>2020-05-20T17:40:00Z</time>
      </trkpt>
      <trkpt lat="47.08002" lon="-1.63114">
        <ele>4.12</ele>
        <time>2020-05-20T17:40:02Z</time>
      </trkpt>
      <trkpt lat="47.08015" lon="-1.63112">
        <ele>3.89</ele>
        <time>2020-05-20T17:40:04Z</time>
      </trkpt>
      <trkpt lat="47.08028" lon="-1.63111">
        <ele>3.25</ele>
        <time>2020-05-20T17:40:06Z</time>
      </trkpt>
      <trkpt lat="47.08041" lon="-1.63109">
        <ele>2.56</ele>
        <time>2020-05-20T17:40:08Z</time>
      </trkpt>
      <trkpt lat="47.08057" lon="-1.63108">
        <ele>1.41</ele>
        <time>2020-05-20T17:40:10Z</time>
      </trkpt>
      <trkpt lat="47.08069" lon="-1.63107">
        <ele>0.37</ele>
        <time>2020-05-20T17:40:12Z</time>
      </trkpt>
      <trkpt lat="47.08084" lon="-1.63106">
        <ele>-0.42</ele>
        <time>2020-05-20T17:40:14Z</time>
      </trkpt>
      <trkpt lat="47.08098" lon="-1.63105">
        <ele>-0.8</ele>
        <time>2020-05-20T17:40:16Z</time>
      </trkpt>
      <trkpt lat="47.08112" lon="-1.63103">
        <ele>-1.11</ele>
        <time>2020-05-20T17:40:18Z</time>
      </trkpt>
      <trkpt lat="47.08127" lon="-1.63101">
        <ele>-0.79</ele>
        <time>2020-05-20T17:40:20Z</time>
      </trkpt>
      <trkpt lat="47.08142" lon="-1.63099">
        <ele>-0.86</ele>
        <time>2020-05-20T17:40:22Z</time>
      </trkpt>
      <trkpt lat="47.08155" lon="-1.63098">
        <ele>-0.76</ele>
        <time>2020-05-20T17:40:24Z</time>
      </trkpt>
      <trkpt lat="47.08169" lon="-1.63096">
        <ele>-1.12</ele>
        <time>2020-05-20T17:40:26Z</time>
      </trkpt>
      <trkpt lat="47.08182" lon="-1.63095">
        <ele>-1.88</ele>
        <time>2020-05-20T17:40:28Z</time>
      </trkpt>
      <trkpt lat="47.08196" lon="-1.63095">
        <ele>-3.13</ele>
        <time>2020-05-20T17:40:30Z</time>
      </trkpt>
      <trkpt lat="47.08208" lon="-1.63094">
        <ele>-3.3</ele>
        <time>2020-05-20T17:40:32Z</time>
      </trkpt>
      <trkpt lat="47.08223" lon="-1.63093">
        <ele>-3.32</ele>
        <time>2020-05-20T17:40:34Z</time>
      </trkpt>
      <trkpt lat="47.08235" lon="-1.63093">
        <ele>-2.35</ele>
        <time>2020-05-20T17:40:36Z</time>
      </trkpt>
      <trkpt lat="47.08249" lon="-1.63091">
        <ele>-1.38</ele>
        <time>2020-05-20T17:40:38Z</time>
      </trkpt>
      <trkpt lat="47.08263" lon="-1.6309">
        <ele>0.04</ele>
        <time>2020-05-20T17:40:40Z</time>
      </trkpt>
      <trkpt lat="47.08277" lon="-1.6309">
        <ele>1.32</ele>
        <time>2020-05-20T17:40:42Z</time>
      </trkpt>
      <trkpt lat="47.08291" lon="-1.63088">
        <ele>2.19</ele>
        <time>2020-05-20T17:40:44Z</time>
      </trkpt>
      <trkpt lat="47.08305" lon="-1.63086">
        <ele>2.69</ele>
        <time>2020-05-20T17:40:46Z</time>
      </trkpt>
      <trkpt lat="47.08319" lon="-1.63086">
        <ele>2.2</ele>
        <time>2020-05-20T17:40:48Z</time>
      </trkpt>
      <trkpt lat="47.08333" lon="-1.63085">
        <ele>1.27</ele>
        <time>2020-05-20T17:40:50Z</time>
      </trkpt>
      <trkpt lat="47.08347" lon="-1.63085">
        <ele>0.63</ele>
        <time>2020-05-20T17:40:52Z</time>
      </trkpt>
      <trkpt lat="47.08361" lon="-1.63083">
        <ele>-0.1</ele>
        <time>2020-05-20T17:40:54Z</time>
      </trkpt>
      <trkpt lat="47.08377" lon="-1.63081">
        <ele>-0.93</ele>
        <time>2020-05-20T17:40:56Z</time>
      </trkpt>
      <trkpt lat="47.0839" lon="-1.63079">
        <ele>-1.43</ele>
        <time>2020-05-20T17:40:58Z</time>
      </trkpt>
      <trkpt lat="47.08404" lon="-1.63073">
        <ele>-0.78</ele>
        <time>2020-05-20T17:41:00Z</time>
      </trkpt>
      <trkpt lat="47.08416" lon="-1.63057">
        <ele>-0.54</ele>
        <time>2020-05-20T17:41:02Z</time>
      </trkpt>
      <trkpt lat="47.08428" lon="-1.6304">
        <ele>-0.28</ele>
        <time>2020-05-20T17:41:04Z</time>
      </trkpt>
      <trkpt lat="47.08438" lon="-1.63023">
        <ele>0.93</ele>
        <time>2020-05-20T17:41:06Z</time>
      </trkpt>
      <trkpt lat="47.08449" lon="-1.63007">
        <ele>1.73</ele>
        <time>2020-05-20T17:41:08Z</time>
      </trkpt>
      <trkpt lat="47.0846" lon="-1.6299">
        <ele>1.6</ele>
        <time>2020-05-20T17:41:10Z</time>
      </trkpt>
      <trkpt lat="47.0847" lon="-1.62974">
        <ele>1.06</ele>
        <time>2020-05-20T17:41:12Z</time>
      </trkpt>
      <trkpt lat="47.0848" lon="-1.62958">
        <ele>0.34</ele>
        <time>2020-05-20T17:41:14Z</time>
      </trkpt>
      <trkpt lat="47.08491" lon="-1.62939">
        <ele>1.23</ele>
        <time>2020-05-20T17:41:16Z</time>
      </trkpt>
      <trkpt lat="47.08501" lon="-1.62922">
        <ele>2.39</ele>
        <time>2020-05-20T17:41:18Z</time>
      </trkpt>
      <trkpt lat="47.0851" lon="-1.62907">
        <ele>3.6</ele>
        <time>2020-05-20T17:41:19Z</time>
      </trkpt>
      <trkpt lat="47.08518" lon="-1.62893">
        <ele>5.35</ele>
        <time>2020-05-20T17:41:21Z</time>
      </trkpt>
      <trkpt lat="47.08527" lon="-1.62878">
        <ele>6.21</ele>
        <time>2020-05-20T17:41:23Z</time>
      </trkpt>
      <trkpt lat="47.08536" lon="-1.62864">
        <ele>6.21</ele>
        <time>2020-05-20T17:41:25Z</time>
      </trkpt>
      <trkpt lat="47.08546" lon="-1.62849">
        <ele>6.04</ele>
        <time>2020-05-20T17:41:27Z</time>
      </trkpt>
      <trkpt lat="47.08555" lon="-1.62837">
        <ele>4.96</ele>
        <time>2020-05-20T17:41:29Z</time>
      </trkpt>
      <trkpt lat="47.08564" lon="-1.62826">
        <ele>3.63</ele>
        <time>2020-05-20T17:41:31Z</time>
      </trkpt>
      <trkpt lat="47.08575" lon="-1.62815">
        <ele>2.37</ele>
        <time>2020-05-20T17:41:33Z</time>
      </trkpt>
      <trkpt lat="47.08578" lon="-1.62796">
        <ele>1.4</ele>
        <time>2020-05-20T17:41:35Z</time>
      </trkpt>
      <trkpt lat="47.08579" lon="-1.62778">
        <ele>1.44</ele>
        <time>2020-05-20T17:41:37Z</time>
      </trkpt>
      <trkpt lat="47.08579" lon="-1.62758">
        <ele>1.75</ele>
        <time>2020-05-20T17:41:39Z</time>
      </trkpt>
      <trkpt lat="47.08579" lon="-1.62738">
        <ele>1.66</ele>
        <time>2020-05-20T17:41:41Z</time>
      </trkpt>
      <trkpt lat="47.0858" lon="-1.62718">
        <ele>2.41</ele>
        <time>2020-05-20T17:41:43Z</time>
      </trkpt>
      <trkpt lat="47.0858" lon="-1.62699">
        <ele>2.76</ele>
        <time>2020-05-20T17:41:45Z</time>
      </trkpt>
      <trkpt lat="47.0858" lon="-1.62679">
        <ele>3.01</ele>
        <time>2020-05-20T17:41:47Z</time>
      </trkpt>
      <trkpt lat="47.08581" lon="-1.6266">
        <ele>3.04</ele>
        <time>2020-05-20T17:41:49Z</time>
      </trkpt>
      <trkpt lat="47.08581" lon="-1.62642">
        <ele>3.75</ele>
        <time>2020-05-20T17:41:51Z</time>
      </trkpt>
      <trkpt lat="47.08582" lon="-1.62623">
        <ele>4.59</ele>
        <time>2020-05-20T17:41:53Z</time>
      </trkpt>
      <trkpt lat="47.08583" lon="-1.62604">
        <ele>4.9</ele>
        <time>2020-05-20T17:41:55Z</time>
      </trkpt>
      <trkpt lat="47.08584" lon="-1.62585">
        <ele>4.11</ele>
        <time>2020-05-20T17:41:57Z</time>
      </trkpt>
      <trkpt lat="47.08585" lon="-1.62566">
        <ele>3.56</ele>
        <time>2020-05-20T17:41:59Z</time>
      </trkpt>
      <trkpt lat="47.08587" lon="-1.62546">
        <ele>3.3</ele>
        <time>2020-05-20T17:42:01Z</time>
      </trkpt>
      <trkpt lat="47.08588" lon="-1.62526">
        <ele>3.01</ele>
        <time>2020-05-20T17:42:03Z</time>
      </trkpt>
      <trkpt lat="47.08589" lon="-1.62507">
        <ele>3</ele>
        <time>2020-05-20T17:42:05Z</time>
      </trkpt>
      <trkpt lat="47.0859" lon="-1.62488">
        <ele>2.54</ele>
        <time>2020-05-20T17:42:07Z</time>
      </trkpt>
      <trkpt lat="47.08591" lon="-1.62468">
        <ele>2.22</ele>
        <time>2020-05-20T17:42:09Z</time>
      </trkpt>
      <trkpt lat="47.08592" lon="-1.6245">
        <ele>2.79</ele>
        <time>2020-05-20T17:42:11Z</time>
      </trkpt>
      <trkpt lat="47.08593" lon="-1.6243">
        <ele>2.75</ele>
        <time>2020-05-20T17:42:13Z</time>
      </trkpt>
      <trkpt lat="47.08593" lon="-1.62411">
        <ele>1.18</ele>
        <time>2020-05-20T17:42:15Z</time>
      </trkpt>
      <trkpt lat="47.08594" lon="-1.62395">
        <ele>1.21</ele>
        <time>2020-05-20T17:42:17Z</time>
      </trkpt>
      <trkpt lat="47.08595" lon="-1.62376">
        <ele>1.56</ele>
        <time>2020-05-20T17:42:19Z</time>
      </trkpt>
      <trkpt lat="47.08599" lon="-1.62361">
        <ele>2.16</ele>
        <time>2020-05-20T17:42:21Z</time>
      </trkpt>
      <trkpt lat="47.08609" lon="-1.62348">
        <ele>2.93</ele>
        <time>2020-05-20T17:42:23Z</time>
      </trkpt>
      <trkpt lat="47.08622" lon="-1.62342">
        <ele>2.11</ele>
        <time>2020-05-20T17:42:25Z</time>
      </trkpt>
      <trkpt lat="47.08635" lon="-1.62337">
        <ele>0.84</ele>
        <time>2020-05-20T17:42:27Z</time>
      </trkpt>
      <trkpt lat="47.08649" lon="-1.62332">
        <ele>0.73</ele>
        <time>2020-05-20T17:42:29Z</time>
      </trkpt>
      <trkpt lat="47.08663" lon="-1.62326">
        <ele>0.5</ele>
        <time>2020-05-20T17:42:31Z</time>
      </trkpt>
      <trkpt lat="47.08676" lon="-1.6232">
        <ele>0.98</ele>
        <time>2020-05-20T17:42:33Z</time>
      </trkpt>
      <trkpt lat="47.08689" lon="-1.62315">
        <ele>1.93</ele>
        <time>2020-05-20T17:42:35Z</time>
      </trkpt>
      <trkpt lat="47.08699" lon="-1.62312">
        <ele>1.9</ele>
        <time>2020-05-20T17:42:37Z</time>
      </trkpt>
      <trkpt lat="47.08711" lon="-1.62307">
        <ele>2.06</ele>
        <time>2020-05-20T17:42:39Z</time>
      </trkpt>
      <trkpt lat="47.08724" lon="-1.62302">
        <ele>3.34</ele>
        <time>2020-05-20T17:42:41Z</time>
      </trkpt>
      <trkpt lat="47.08736" lon="-1.62297">
        <ele>3.89</ele>
        <time>2020-05-20T17:42:43Z</time>
      </trkpt>
      <trkpt lat="47.0875" lon="-1.62291">
        <ele>3.71</ele>
        <time>2020-05-20T17:42:45Z</time>
      </trkpt>
      <trkpt lat="47.08762" lon="-1.62287">
        <ele>3.46</ele>
        <time>2020-05-20T17:42:47Z</time>
      </trkpt>
      <trkpt lat="47.08774" lon="-1.62282">
        <ele>2.44</ele>
        <time>2020-05-20T17:42:49Z</time>
      </trkpt>
      <trkpt lat="47.08786" lon="-1.62277">
        <ele>3.11</ele>
        <time>2020-05-20T17:42:51Z</time>
      </trkpt>
      <trkpt lat="47.08798" lon="-1.62272">
        <ele>3.91</ele>
        <time>2020-05-20T17:42:53Z</time>
      </trkpt>
      <trkpt lat="47.0881" lon="-1.62268">
        <ele>3.52</ele>
        <time>2020-05-20T17:42:55Z</time>
      </trkpt>
      <trkpt lat="47.08822" lon="-1.62263">
        <ele>3.02</ele>
        <time>2020-05-20T17:42:57Z</time>
      </trkpt>
      <trkpt lat="47.08834" lon="-1.62257">
        <ele>2.8</ele>
        <time>2020-05-20T17:42:59Z</time>
      </trkpt>
      <trkpt lat="47.08846" lon="-1.62253">
        <ele>3.55</ele>
        <time>2020-05-20T17:43:01Z</time>
      </trkpt>
      <trkpt lat="47.08858" lon="-1.62247">
        <ele>3.55</ele>
        <time>2020-05-20T17:43:03Z</time>
      </trkpt>
      <trkpt lat="47.0887" lon="-1.62242">
        <ele>3.51</ele>
        <time>2020-05-20T17:43:05Z</time>
      </trkpt>
      <trkpt lat="47.08882" lon="-1.62237">
        <ele>3.33</ele>
        <time>2020-05-20T17:43:07Z</time>
      </trkpt>
      <trkpt lat="47.08892" lon="-1.62233">
        <ele>3.15</ele>
        <time>2020-05-20T17:43:09Z</time>
      </trkpt>
      <trkpt lat="47.08906" lon="-1.62228">
        <ele>2.42</ele>
        <time>2020-05-20T17:43:11Z</time>
      </trkpt>
      <trkpt lat="47.08918" lon="-1.62222">
        <ele>1.66</ele>
        <time>2020-05-20T17:43:13Z</time>
      </trkpt>
      <trkpt lat="47.0893" lon="-1.62217">
        <ele>1.14</ele>
        <time>2020-05-20T17:43:15Z</time>
      </trkpt>
      <trkpt lat="47.08942" lon="-1.62212">
        <ele>0.73</ele>
        <time>2020-05-20T17:43:17Z</time>
      </trkpt>
      <trkpt lat="47.08954" lon="-1.62207">
        <ele>1.52</ele>
        <time>2020-05-20T17:43:19Z</time>
      </trkpt>
      <trkpt lat="47.08966" lon="-1.62201">
        <ele>1.98</ele>
        <time>2020-05-20T17:43:21Z</time>
      </trkpt>
      <trkpt lat="47.08979" lon="-1.62196">
        <ele>2.36</ele>
        <time>2020-05-20T17:43:23Z</time>
      </trkpt>
      <trkpt lat="47.08989" lon="-1.62192">
        <ele>2.68</ele>
        <time>2020-05-20T17:43:25Z</time>
      </trkpt>
      <trkpt lat="47.09" lon="-1.62187">
        <ele>2.23</ele>
        <time>2020-05-20T17:43:27Z</time>
      </trkpt>
      <trkpt lat="47.09013" lon="-1.62182">
        <ele>2.04</ele>
        <time>2020-05-20T17:43:29Z</time>
      </trkpt>
      <trkpt lat="47.09025" lon="-1.62177">
        <ele>2.89</ele>
        <time>2020-05-20T17:43:31Z</time>
      </trkpt>
      <trkpt lat="47.09038" lon="-1.62172">
        <ele>4.19</ele>
        <time>2020-05-20T17:43:33Z</time>
      </trkpt>
      <trkpt lat="47.09049" lon="-1.62167">
        <ele>4.79</ele>
        <time>2020-05-20T17:43:35Z</time>
      </trkpt>
      <trkpt lat="47.09061" lon="-1.62162">
        <ele>5.45</ele>
        <time>2020-05-20T17:43:37Z</time>
      </trkpt>
      <trkpt lat="47.09074" lon="-1.62156">
        <ele>5.56</ele>
        <time>2020-05-20T17:43:39Z</time>
      </trkpt>
      <trkpt lat="47.09086" lon="-1.62151">
        <ele>6.16</ele>
        <time>2020-05-20T17:43:41Z</time>
      </trkpt>
      <trkpt lat="47.09098" lon="-1.62147">
        <ele>6.35</ele>
        <time>2020-05-20T17:43:43Z</time>
      </trkpt>
      <trkpt lat="47.09109" lon="-1.62142">
        <ele>6.38</ele>
        <time>2020-05-20T17:43:45Z</time>
      </trkpt>
      <trkpt lat="47.09122" lon="-1.62136">
        <ele>6.18</ele>
        <time>2020-05-20T17:43:47Z</time>
      </trkpt>
      <trkpt lat="47.09134" lon="-1.62131">
        <ele>6.1</ele>
        <time>2020-05-20T17:43:49Z</time>
      </trkpt>
      <trkpt lat="47.09146" lon="-1.62126">
        <ele>6.74</ele>
        <time>2020-05-20T17:43:51Z</time>
      </trkpt>
      <trkpt lat="47.09159" lon="-1.62121">
        <ele>6.83</ele>
        <time>2020-05-20T17:43:53Z</time>
      </trkpt>
      <trkpt lat="47.09171" lon="-1.62117">
        <ele>6.45</ele>
        <time>2020-05-20T17:43:55Z</time>
      </trkpt>
      <trkpt lat="47.09181" lon="-1.6211">
        <ele>5.82</ele>
        <time>2020-05-20T17:43:57Z</time>
      </trkpt>
      <trkpt lat="47.09182" lon="-1.62093">
        <ele>5.37</ele>
        <time>2020-05-20T17:43:59Z</time>
      </trkpt>
      <trkpt lat="47.09177" lon="-1.62077">
        <ele>5.57</ele>
        <time>2020-05-20T17:44:01Z</time>
      </trkpt>
      <trkpt lat="47.0917" lon="-1.6206">
        <ele>5.44</ele>
        <time>2020-05-20T17:44:03Z</time>
      </trkpt>
      <trkpt lat="47.09163" lon="-1.62044">
        <ele>4.83</ele>
        <time>2020-05-20T17:44:05Z</time>
      </trkpt>
      <trkpt lat="47.09156" lon="-1.62028">
        <ele>4.25</ele>
        <time>2020-05-20T17:44:07Z</time>
      </trkpt>
      <trkpt lat="47.0915" lon="-1.62012">
        <ele>4.73</ele>
        <time>2020-05-20T17:44:09Z</time>
      </trkpt>
      <trkpt lat="47.09144" lon="-1.61996">
        <ele>4.64</ele>
        <time>2020-05-20T17:44:11Z</time>
      </trkpt>
      <trkpt lat="47.09139" lon="-1.61981">
        <ele>4.4</ele>
        <time>2020-05-20T17:44:13Z</time>
      </trkpt>
      <trkpt lat="47.09134" lon="-1.61967">
        <ele>3.74</ele>
        <time>2020-05-20T17:44:15Z</time>
      </trkpt>
      <trkpt lat="47.09128" lon="-1.61953">
        <ele>2.75</ele>
        <time>2020-05-20T17:44:17Z</time>
      </trkpt>
      <trkpt lat="47.09122" lon="-1.61936">
        <ele>1.6</ele>
        <time>2020-05-20T17:44:19Z</time>
      </trkpt>
      <trkpt lat="47.09116" lon="-1.6192">
        <ele>1.38</ele>
        <time>2020-05-20T17:44:21Z</time>
      </trkpt>
      <trkpt lat="47.0911" lon="-1.61906">
        <ele>1.23</ele>
        <time>2020-05-20T17:44:23Z</time>
      </trkpt>
      <trkpt lat="47.09105" lon="-1.61891">
        <ele>2.01</ele>
        <time>2020-05-20T17:44:25Z</time>
      </trkpt>
      <trkpt lat="47.09098" lon="-1.61873">
        <ele>1.84</ele>
        <time>2020-05-20T17:44:27Z</time>
      </trkpt>
      <trkpt lat="47.09093" lon="-1.61858">
        <ele>1.13</ele>
        <time>2020-05-20T17:44:29Z</time>
      </trkpt>
      <trkpt lat="47.09086" lon="-1.61841">
        <ele>-0.01</ele>
        <time>2020-05-20T17:44:31Z</time>
      </trkpt>
      <trkpt lat="47.0908" lon="-1.61825">
        <ele>-0.88</ele>
        <time>2020-05-20T17:44:33Z</time>
      </trkpt>
      <trkpt lat="47.09073" lon="-1.6181">
        <ele>-2.45</ele>
        <time>2020-05-20T17:44:35Z</time>
      </trkpt>
      <trkpt lat="47.09066" lon="-1.61795">
        <ele>-4.34</ele>
        <time>2020-05-20T17:44:37Z</time>
      </trkpt>
      <trkpt lat="47.0906" lon="-1.6178">
        <ele>-5.87</ele>
        <time>2020-05-20T17:44:39Z</time>
      </trkpt>
      <trkpt lat="47.09054" lon="-1.61765">
        <ele>-6.34</ele>
        <time>2020-05-20T17:44:41Z</time>
      </trkpt>
      <trkpt lat="47.09048" lon="-1.61749">
        <ele>-6.46</ele>
        <time>2020-05-20T17:44:43Z</time>
      </trkpt>
      <trkpt lat="47.09042" lon="-1.61734">
        <ele>-6.08</ele>
        <time>2020-05-20T17:44:45Z</time>
      </trkpt>
      <trkpt lat="47.09036" lon="-1.61718">
        <ele>-5.7</ele>
        <time>2020-05-20T17:44:47Z</time>
      </trkpt>
      <trkpt lat="47.0903" lon="-1.61703">
        <ele>-5.87</ele>
        <time>2020-05-20T17:44:49Z</time>
      </trkpt>
      <trkpt lat="47.09025" lon="-1.61688">
        <ele>-6.04</ele>
        <time>2020-05-20T17:44:51Z</time>
      </trkpt>
      <trkpt lat="47.09019" lon="-1.61671">
        <ele>-6.41</ele>
        <time>2020-05-20T17:44:53Z</time>
      </trkpt>
      <trkpt lat="47.09014" lon="-1.61656">
        <ele>-6.85</ele>
        <time>2020-05-20T17:44:55Z</time>
      </trkpt>
      <trkpt lat="47.09008" lon="-1.61639">
        <ele>-6.57</ele>
        <time>2020-05-20T17:44:57Z</time>
      </trkpt>
      <trkpt lat="47.09002" lon="-1.61623">
        <ele>-6.5</ele>
        <time>2020-05-20T17:44:59Z</time>
      </trkpt>
      <trkpt lat="47.08996" lon="-1.61607">
        <ele>-6.58</ele>
        <time>2020-05-20T17:45:01Z</time>
      </trkpt>
      <trkpt lat="47.0899" lon="-1.61594">
        <ele>-6.22</ele>
        <time>2020-05-20T17:45:03Z</time>
      </trkpt>
      <trkpt lat="47.08992" lon="-1.6158">
        <ele>-5.39</ele>
        <time>2020-05-20T17:45:05Z</time>
      </trkpt>
      <trkpt lat="47.09004" lon="-1.61574">
        <ele>-4.95</ele>
        <time>2020-05-20T17:45:07Z</time>
      </trkpt>
      <trkpt lat="47.09017" lon="-1.61568">
        <ele>-4.94</ele>
        <time>2020-05-20T17:45:09Z</time>
      </trkpt>
      <trkpt lat="47.0903" lon="-1.61561">
        <ele>-4.4</ele>
        <time>2020-05-20T17:45:11Z</time>
      </trkpt>
      <trkpt lat="47.09046" lon="-1.61554">
        <ele>-3.01</ele>
        <time>2020-05-20T17:45:13Z</time>
      </trkpt>
      <trkpt lat="47.09061" lon="-1.61547">
        <ele>-0.91</ele>
        <time>2020-05-20T17:45:15Z</time>
      </trkpt>
      <trkpt lat="47.09072" lon="-1.61542">
        <ele>1.01</ele>
        <time>2020-05-20T17:45:17Z</time>
      </trkpt>
      <trkpt lat="47.09085" lon="-1.61536">
        <ele>2.17</ele>
        <time>2020-05-20T17:45:19Z</time>
      </trkpt>
      <trkpt lat="47.09096" lon="-1.6153">
        <ele>3.29</ele>
        <time>2020-05-20T17:45:21Z</time>
      </trkpt>
      <trkpt lat="47.09109" lon="-1.61523">
        <ele>4.18</ele>
        <time>2020-05-20T17:45:23Z</time>
      </trkpt>
      <trkpt lat="47.09122" lon="-1.61516">
        <ele>5.11</ele>
        <time>2020-05-20T17:45:25Z</time>
      </trkpt>
      <trkpt lat="47.09134" lon="-1.61509">
        <ele>5.21</ele>
        <time>2020-05-20T17:45:27Z</time>
      </trkpt>
      <trkpt lat="47.09146" lon="-1.61503">
        <ele>6.65</ele>
        <time>2020-05-20T17:45:29Z</time>
      </trkpt>
      <trkpt lat="47.09156" lon="-1.61497">
        <ele>7.38</ele>
        <time>2020-05-20T17:45:31Z</time>
      </trkpt>
      <trkpt lat="47.09167" lon="-1.6149">
        <ele>7.66</ele>
        <time>2020-05-20T17:45:33Z</time>
      </trkpt>
      <trkpt lat="47.09179" lon="-1.61483">
        <ele>7.24</ele>
        <time>2020-05-20T17:45:35Z</time>
      </trkpt>
      <trkpt lat="47.09192" lon="-1.61476">
        <ele>7.7</ele>
        <time>2020-05-20T17:45:37Z</time>
      </trkpt>
      <trkpt lat="47.09204" lon="-1.61469">
        <ele>8.41</ele>
        <time>2020-05-20T17:45:39Z</time>
      </trkpt>
      <trkpt lat="47.09217" lon="-1.61462">
        <ele>8.46</ele>
        <time>2020-05-20T17:45:41Z</time>
      </trkpt>
      <trkpt lat="47.09229" lon="-1.61455">
        <ele>8.63</ele>
        <time>2020-05-20T17:45:43Z</time>
      </trkpt>
      <trkpt lat="47.09242" lon="-1.61447">
        <ele>9.25</ele>
        <time>2020-05-20T17:45:45Z</time>
      </trkpt>
      <trkpt lat="47.09254" lon="-1.6144">
        <ele>9.81</ele>
        <time>2020-05-20T17:45:47Z</time>
      </trkpt>
      <trkpt lat="47.09265" lon="-1.61433">
        <ele>10.31</ele>
        <time>2020-05-20T17:45:49Z</time>
      </trkpt>
      <trkpt lat="47.09275" lon="-1.61427">
        <ele>10.13</ele>
        <time>2020-05-20T17:45:51Z</time>
      </trkpt>
      <trkpt lat="47.09283" lon="-1.61415">
        <ele>9.53</ele>
        <time>2020-05-20T17:45:53Z</time>
      </trkpt>
      <trkpt lat="47.09283" lon="-1.61398">
        <ele>8.88</ele>
        <time>2020-05-20T17:45:55Z</time>
      </trkpt>
      <trkpt lat="47.0928" lon="-1.61378">
        <ele>8.77</ele>
        <time>2020-05-20T17:45:57Z</time>
      </trkpt>
      <trkpt lat="47.09277" lon="-1.61362">
        <ele>7.69</ele>
        <time>2020-05-20T17:45:59Z</time>
      </trkpt>
      <trkpt lat="47.09274" lon="-1.61344">
        <ele>6.51</ele>
        <time>2020-05-20T17:46:01Z</time>
      </trkpt>
      <trkpt lat="47.0927" lon="-1.61327">
        <ele>6.19</ele>
        <time>2020-05-20T17:46:03Z</time>
      </trkpt>
      <trkpt lat="47.09266" lon="-1.6131">
        <ele>5.29</ele>
        <time>2020-05-20T17:46:05Z</time>
      </trkpt>
      <trkpt lat="47.09263" lon="-1.61293">
        <ele>3.99</ele>
        <time>2020-05-20T17:46:07Z</time>
      </trkpt>
      <trkpt lat="47.09259" lon="-1.61274">
        <ele>3.27</ele>
        <time>2020-05-20T17:46:09Z</time>
      </trkpt>
      <trkpt lat="47.09255" lon="-1.61261">
        <ele>3.09</ele>
        <time>2020-05-20T17:46:11Z</time>
      </trkpt>
      <trkpt lat="47.09252" lon="-1.61248">
        <ele>2.5</ele>
        <time>2020-05-20T17:46:13Z</time>
      </trkpt>
      <trkpt lat="47.09247" lon="-1.61236">
        <ele>1.36</ele>
        <time>2020-05-20T17:46:15Z</time>
      </trkpt>
      <trkpt lat="47.09241" lon="-1.61218">
        <ele>2.04</ele>
        <time>2020-05-20T17:46:18Z</time>
      </trkpt>
      <trkpt lat="47.09236" lon="-1.61204">
        <ele>1.42</ele>
        <time>2020-05-20T17:46:20Z</time>
      </trkpt>
      <trkpt lat="47.09234" lon="-1.61184">
        <ele>1.27</ele>
        <time>2020-05-20T17:46:22Z</time>
      </trkpt>
      <trkpt lat="47.09248" lon="-1.61181">
        <ele>3.17</ele>
        <time>2020-05-20T17:46:25Z</time>
      </trkpt>
      <trkpt lat="47.09261" lon="-1.61184">
        <ele>4.93</ele>
        <time>2020-05-20T17:46:27Z</time>
      </trkpt>
      <trkpt lat="47.09276" lon="-1.61189">
        <ele>6.37</ele>
        <time>2020-05-20T17:46:29Z</time>
      </trkpt>
      <trkpt lat="47.0929" lon="-1.61194">
        <ele>7.04</ele>
        <time>2020-05-20T17:46:31Z</time>
      </trkpt>
      <trkpt lat="47.09304" lon="-1.612">
        <ele>8.12</ele>
        <time>2020-05-20T17:46:33Z</time>
      </trkpt>
      <trkpt lat="47.09316" lon="-1.61205">
        <ele>9.04</ele>
        <time>2020-05-20T17:46:35Z</time>
      </trkpt>
      <trkpt lat="47.0933" lon="-1.6121">
        <ele>9.47</ele>
        <time>2020-05-20T17:46:37Z</time>
      </trkpt>
      <trkpt lat="47.09344" lon="-1.61214">
        <ele>8.43</ele>
        <time>2020-05-20T17:46:39Z</time>
      </trkpt>
      <trkpt lat="47.09359" lon="-1.61219">
        <ele>6.74</ele>
        <time>2020-05-20T17:46:41Z</time>
      </trkpt>
      <trkpt lat="47.09372" lon="-1.61223">
        <ele>5.78</ele>
        <time>2020-05-20T17:46:43Z</time>
      </trkpt>
      <trkpt lat="47.09385" lon="-1.61227">
        <ele>5.19</ele>
        <time>2020-05-20T17:46:45Z</time>
      </trkpt>
      <trkpt lat="47.09399" lon="-1.61233">
        <ele>4.89</ele>
        <time>2020-05-20T17:46:47Z</time>
      </trkpt>
      <trkpt lat="47.09412" lon="-1.61239">
        <ele>4.77</ele>
        <time>2020-05-20T17:46:49Z</time>
      </trkpt>
      <trkpt lat="47.09426" lon="-1.61233">
        <ele>5.49</ele>
        <time>2020-05-20T17:46:51Z</time>
      </trkpt>
      <trkpt lat="47.09438" lon="-1.61222">
        <ele>6.23</ele>
        <time>2020-05-20T17:46:53Z</time>
      </trkpt>
      <trkpt lat="47.09451" lon="-1.61207">
        <ele>6.44</ele>
        <time>2020-05-20T17:46:55Z</time>
      </trkpt>
      <trkpt lat="47.09464" lon="-1.61192">
        <ele>6.4</ele>
        <time>2020-05-20T17:46:57Z</time>
      </trkpt>
      <trkpt lat="47.09475" lon="-1.61178">
        <ele>6.38</ele>
        <time>2020-05-20T17:46:59Z</time>
      </trkpt>
      <trkpt lat="47.09487" lon="-1.61164">
        <ele>6.1</ele>
        <time>2020-05-20T17:47:01Z</time>
      </trkpt>
      <trkpt lat="47.095" lon="-1.61153">
        <ele>5.53</ele>
        <time>2020-05-20T17:47:03Z</time>
      </trkpt>
      <trkpt lat="47.09514" lon="-1.61143">
        <ele>5.83</ele>
        <time>2020-05-20T17:47:05Z</time>
      </trkpt>
      <trkpt lat="47.09532" lon="-1.6114">
        <ele>5.41</ele>
        <time>2020-05-20T17:47:07Z</time>
      </trkpt>
      <trkpt lat="47.09548" lon="-1.61136">
        <ele>6.26</ele>
        <time>2020-05-20T17:47:09Z</time>
      </trkpt>
      <trkpt lat="47.09566" lon="-1.61133">
        <ele>6.82</ele>
        <time>2020-05-20T17:47:11Z</time>
      </trkpt>
      <trkpt lat="47.09583" lon="-1.61131">
        <ele>6.32</ele>
        <time>2020-05-20T17:47:13Z</time>
      </trkpt>
      <trkpt lat="47.09599" lon="-1.6113">
        <ele>6.12</ele>
        <time>2020-05-20T17:47:15Z</time>
      </trkpt>
      <trkpt lat="47.09616" lon="-1.61128">
        <ele>6.05</ele>
        <time>2020-05-20T17:47:17Z</time>
      </trkpt>
      <trkpt lat="47.09633" lon="-1.61125">
        <ele>5.97</ele>
        <time>2020-05-20T17:47:19Z</time>
      </trkpt>
      <trkpt lat="47.09649" lon="-1.61123">
        <ele>5.44</ele>
        <time>2020-05-20T17:47:21Z</time>
      </trkpt>
      <trkpt lat="47.09658" lon="-1.61122">
        <ele>5.1</ele>
        <time>2020-05-20T17:47:22Z</time>
      </trkpt>
      <trkpt lat="47.09673" lon="-1.6112">
        <ele>4.78</ele>
        <time>2020-05-20T17:47:24Z</time>
      </trkpt>
      <trkpt lat="47.09689" lon="-1.61119">
        <ele>4.95</ele>
        <time>2020-05-20T17:47:26Z</time>
      </trkpt>
      <trkpt lat="47.09704" lon="-1.61118">
        <ele>5.54</ele>
        <time>2020-05-20T17:47:28Z</time>
      </trkpt>
      <trkpt lat="47.0972" lon="-1.61116">
        <ele>5.51</ele>
        <time>2020-05-20T17:47:30Z</time>
      </trkpt>
      <trkpt lat="47.09735" lon="-1.61114">
        <ele>5.7</ele>
        <time>2020-05-20T17:47:32Z</time>
      </trkpt>
      <trkpt lat="47.09751" lon="-1.61112">
        <ele>6.17</ele>
        <time>2020-05-20T17:47:34Z</time>
      </trkpt>
      <trkpt lat="47.09765" lon="-1.61111">
        <ele>5.78</ele>
        <time>2020-05-20T17:47:36Z</time>
      </trkpt>
      <trkpt lat="47.0978" lon="-1.61109">
        <ele>5.42</ele>
        <time>2020-05-20T17:47:38Z</time>
      </trkpt>
      <trkpt lat="47.09795" lon="-1.61107">
        <ele>5.02</ele>
        <time>2020-05-20T17:47:40Z</time>
      </trkpt>
      <trkpt lat="47.0981" lon="-1.61098">
        <ele>4.97</ele>
        <time>2020-05-20T17:47:42Z</time>
      </trkpt>
      <trkpt lat="47.09824" lon="-1.61089">
        <ele>5.42</ele>
        <time>2020-05-20T17:47:44Z</time>
      </trkpt>
      <trkpt lat="47.09837" lon="-1.61079">
        <ele>5.35</ele>
        <time>2020-05-20T17:47:46Z</time>
      </trkpt>
      <trkpt lat="47.09849" lon="-1.61068">
        <ele>5.01</ele>
        <time>2020-05-20T17:47:48Z</time>
      </trkpt>
      <trkpt lat="47.09858" lon="-1.61055">
        <ele>5.48</ele>
        <time>2020-05-20T17:47:50Z</time>
      </trkpt>
      <trkpt lat="47.09868" lon="-1.61039">
        <ele>6.21</ele>
        <time>2020-05-20T17:47:52Z</time>
      </trkpt>
      <trkpt lat="47.09876" lon="-1.61023">
        <ele>6.98</ele>
        <time>2020-05-20T17:47:54Z</time>
      </trkpt>
      <trkpt lat="47.09882" lon="-1.61008">
        <ele>6.74</ele>
        <time>2020-05-20T17:47:56Z</time>
      </trkpt>
      <trkpt lat="47.09889" lon="-1.60991">
        <ele>6.71</ele>
        <time>2020-05-20T17:47:58Z</time>
      </trkpt>
      <trkpt lat="47.09894" lon="-1.60976">
        <ele>6.85</ele>
        <time>2020-05-20T17:48:00Z</time>
      </trkpt>
      <trkpt lat="47.099" lon="-1.60959">
        <ele>7.42</ele>
        <time>2020-05-20T17:48:02Z</time>
      </trkpt>
      <trkpt lat="47.09906" lon="-1.60943">
        <ele>7.95</ele>
        <time>2020-05-20T17:48:04Z</time>
      </trkpt>
      <trkpt lat="47.09912" lon="-1.60928">
        <ele>8.13</ele>
        <time>2020-05-20T17:48:06Z</time>
      </trkpt>
      <trkpt lat="47.09919" lon="-1.60912">
        <ele>7.97</ele>
        <time>2020-05-20T17:48:08Z</time>
      </trkpt>
      <trkpt lat="47.09925" lon="-1.60897">
        <ele>7.82</ele>
        <time>2020-05-20T17:48:10Z</time>
      </trkpt>
      <trkpt lat="47.09931" lon="-1.6088">
        <ele>7.62</ele>
        <time>2020-05-20T17:48:12Z</time>
      </trkpt>
      <trkpt lat="47.09937" lon="-1.60866">
        <ele>7.63</ele>
        <time>2020-05-20T17:48:14Z</time>
      </trkpt>
      <trkpt lat="47.09942" lon="-1.60851">
        <ele>8.09</ele>
        <time>2020-05-20T17:48:16Z</time>
      </trkpt>
      <trkpt lat="47.09948" lon="-1.60834">
        <ele>8.29</ele>
        <time>2020-05-20T17:48:18Z</time>
      </trkpt>
      <trkpt lat="47.09955" lon="-1.60816">
        <ele>8.25</ele>
        <time>2020-05-20T17:48:20Z</time>
      </trkpt>
      <trkpt lat="47.0996" lon="-1.60799">
        <ele>8.18</ele>
        <time>2020-05-20T17:48:22Z</time>
      </trkpt>
      <trkpt lat="47.09965" lon="-1.60782">
        <ele>7.56</ele>
        <time>2020-05-20T17:48:24Z</time>
      </trkpt>
      <trkpt lat="47.09969" lon="-1.60766">
        <ele>7.85</ele>
        <time>2020-05-20T17:48:26Z</time>
      </trkpt>
      <trkpt lat="47.09974" lon="-1.6075">
        <ele>7.63</ele>
        <time>2020-05-20T17:48:28Z</time>
      </trkpt>
      <trkpt lat="47.09979" lon="-1.60734">
        <ele>7.6</ele>
        <time>2020-05-20T17:48:30Z</time>
      </trkpt>
      <trkpt lat="47.09983" lon="-1.60716">
        <ele>7.35</ele>
        <time>2020-05-20T17:48:32Z</time>
      </trkpt>
      <trkpt lat="47.09987" lon="-1.60699">
        <ele>8</ele>
        <time>2020-05-20T17:48:34Z</time>
      </trkpt>
      <trkpt lat="47.09992" lon="-1.60684">
        <ele>9.21</ele>
        <time>2020-05-20T17:48:36Z</time>
      </trkpt>
      <trkpt lat="47.09996" lon="-1.60669">
        <ele>10.18</ele>
        <time>2020-05-20T17:48:38Z</time>
      </trkpt>
      <trkpt lat="47.10001" lon="-1.60653">
        <ele>10.25</ele>
        <time>2020-05-20T17:48:40Z</time>
      </trkpt>
      <trkpt lat="47.10005" lon="-1.60638">
        <ele>9.68</ele>
        <time>2020-05-20T17:48:42Z</time>
      </trkpt>
      <trkpt lat="47.1001" lon="-1.60621">
        <ele>9.52</ele>
        <time>2020-05-20T17:48:44Z</time>
      </trkpt>
      <trkpt lat="47.10014" lon="-1.60607">
        <ele>9.1</ele>
        <time>2020-05-20T17:48:46Z</time>
      </trkpt>
      <trkpt lat="47.10019" lon="-1.6059">
        <ele>9.19</ele>
        <time>2020-05-20T17:48:48Z</time>
      </trkpt>
      <trkpt lat="47.10025" lon="-1.60572">
        <ele>8.52</ele>
        <time>2020-05-20T17:48:50Z</time>
      </trkpt>
      <trkpt lat="47.1003" lon="-1.60554">
        <ele>7.97</ele>
        <time>2020-05-20T17:48:52Z</time>
      </trkpt>
      <trkpt lat="47.10034" lon="-1.60536">
        <ele>8.12</ele>
        <time>2020-05-20T17:48:54Z</time>
      </trkpt>
      <trkpt lat="47.1004" lon="-1.60519">
        <ele>7.41</ele>
        <time>2020-05-20T17:48:56Z</time>
      </trkpt>
      <trkpt lat="47.10044" lon="-1.60503">
        <ele>7.85</ele>
        <time>2020-05-20T17:48:58Z</time>
      </trkpt>
      <trkpt lat="47.10049" lon="-1.60484">
        <ele>7.81</ele>
        <time>2020-05-20T17:49:00Z</time>
      </trkpt>
      <trkpt lat="47.10054" lon="-1.60465">
        <ele>7.44</ele>
        <time>2020-05-20T17:49:02Z</time>
      </trkpt>
      <trkpt lat="47.10058" lon="-1.60447">
        <ele>7.85</ele>
        <time>2020-05-20T17:49:04Z</time>
      </trkpt>
      <trkpt lat="47.10061" lon="-1.60427">
        <ele>7.56</ele>
        <time>2020-05-20T17:49:06Z</time>
      </trkpt>
      <trkpt lat="47.10064" lon="-1.60407">
        <ele>7.76</ele>
        <time>2020-05-20T17:49:08Z</time>
      </trkpt>
      <trkpt lat="47.10067" lon="-1.60388">
        <ele>8.35</ele>
        <time>2020-05-20T17:49:10Z</time>
      </trkpt>
      <trkpt lat="47.10069" lon="-1.60371">
        <ele>8.97</ele>
        <time>2020-05-20T17:49:12Z</time>
      </trkpt>
      <trkpt lat="47.10071" lon="-1.60353">
        <ele>9.03</ele>
        <time>2020-05-20T17:49:14Z</time>
      </trkpt>
      <trkpt lat="47.10073" lon="-1.60336">
        <ele>8.5</ele>
        <time>2020-05-20T17:49:16Z</time>
      </trkpt>
      <trkpt lat="47.10075" lon="-1.60316">
        <ele>8.57</ele>
        <time>2020-05-20T17:49:18Z</time>
      </trkpt>
      <trkpt lat="47.10077" lon="-1.60297">
        <ele>9.18</ele>
        <time>2020-05-20T17:49:20Z</time>
      </trkpt>
      <trkpt lat="47.10078" lon="-1.60279">
        <ele>8.76</ele>
        <time>2020-05-20T17:49:22Z</time>
      </trkpt>
      <trkpt lat="47.10079" lon="-1.60262">
        <ele>8.23</ele>
        <time>2020-05-20T17:49:24Z</time>
      </trkpt>
      <trkpt lat="47.10081" lon="-1.60245">
        <ele>7.95</ele>
        <time>2020-05-20T17:49:26Z</time>
      </trkpt>
      <trkpt lat="47.10082" lon="-1.60228">
        <ele>8.4</ele>
        <time>2020-05-20T17:49:28Z</time>
      </trkpt>
      <trkpt lat="47.10083" lon="-1.60209">
        <ele>8.57</ele>
        <time>2020-05-20T17:49:30Z</time>
      </trkpt>
      <trkpt lat="47.10085" lon="-1.60192">
        <ele>9.24</ele>
        <time>2020-05-20T17:49:32Z</time>
      </trkpt>
      <trkpt lat="47.10085" lon="-1.60174">
        <ele>9.21</ele>
        <time>2020-05-20T17:49:34Z</time>
      </trkpt>
      <trkpt lat="47.1008" lon="-1.60155">
        <ele>8.42</ele>
        <time>2020-05-20T17:49:36Z</time>
      </trkpt>
      <trkpt lat="47.10072" lon="-1.60138">
        <ele>8.1</ele>
        <time>2020-05-20T17:49:38Z</time>
      </trkpt>
      <trkpt lat="47.10071" lon="-1.60122">
        <ele>7.72</ele>
        <time>2020-05-20T17:49:40Z</time>
      </trkpt>
      <trkpt lat="47.10077" lon="-1.60109">
        <ele>7.77</ele>
        <time>2020-05-20T17:49:42Z</time>
      </trkpt>
      <trkpt lat="47.10088" lon="-1.60103">
        <ele>7.82</ele>
        <time>2020-05-20T17:49:44Z</time>
      </trkpt>
      <trkpt lat="47.10099" lon="-1.60098">
        <ele>8.13</ele>
        <time>2020-05-20T17:49:46Z</time>
      </trkpt>
      <trkpt lat="47.10111" lon="-1.60088">
        <ele>7.45</ele>
        <time>2020-05-20T17:49:48Z</time>
      </trkpt>
      <trkpt lat="47.1012" lon="-1.60074">
        <ele>6.81</ele>
        <time>2020-05-20T17:49:50Z</time>
      </trkpt>
      <trkpt lat="47.1013" lon="-1.60059">
        <ele>6.6</ele>
        <time>2020-05-20T17:49:52Z</time>
      </trkpt>
      <trkpt lat="47.10139" lon="-1.60045">
        <ele>6.37</ele>
        <time>2020-05-20T17:49:54Z</time>
      </trkpt>
      <trkpt lat="47.10147" lon="-1.60032">
        <ele>6.18</ele>
        <time>2020-05-20T17:49:56Z</time>
      </trkpt>
      <trkpt lat="47.10155" lon="-1.6002">
        <ele>5.77</ele>
        <time>2020-05-20T17:49:58Z</time>
      </trkpt>
      <trkpt lat="47.10164" lon="-1.60004">
        <ele>5.19</ele>
        <time>2020-05-20T17:50:00Z</time>
      </trkpt>
      <trkpt lat="47.10172" lon="-1.59991">
        <ele>4.73</ele>
        <time>2020-05-20T17:50:02Z</time>
      </trkpt>
      <trkpt lat="47.10179" lon="-1.59979">
        <ele>4.4</ele>
        <time>2020-05-20T17:50:04Z</time>
      </trkpt>
      <trkpt lat="47.10187" lon="-1.59966">
        <ele>5.41</ele>
        <time>2020-05-20T17:50:06Z</time>
      </trkpt>
      <trkpt lat="47.10195" lon="-1.59951">
        <ele>6.46</ele>
        <time>2020-05-20T17:50:08Z</time>
      </trkpt>
      <trkpt lat="47.10203" lon="-1.59936">
        <ele>6.89</ele>
        <time>2020-05-20T17:50:10Z</time>
      </trkpt>
      <trkpt lat="47.10212" lon="-1.59922">
        <ele>6.53</ele>
        <time>2020-05-20T17:50:12Z</time>
      </trkpt>
      <trkpt lat="47.1022" lon="-1.59908">
        <ele>5.66</ele>
        <time>2020-05-20T17:50:14Z</time>
      </trkpt>
      <trkpt lat="47.1023" lon="-1.59892">
        <ele>5.53</ele>
        <time>2020-05-20T17:50:16Z</time>
      </trkpt>
      <trkpt lat="47.10238" lon="-1.59877">
        <ele>5.81</ele>
        <time>2020-05-20T17:50:18Z</time>
      </trkpt>
      <trkpt lat="47.10247" lon="-1.59863">
        <ele>6.59</ele>
        <time>2020-05-20T17:50:20Z</time>
      </trkpt>
      <trkpt lat="47.10255" lon="-1.59849">
        <ele>7.34</ele>
        <time>2020-05-20T17:50:22Z</time>
      </trkpt>
      <trkpt lat="47.10264" lon="-1.59834">
        <ele>8.34</ele>
        <time>2020-05-20T17:50:24Z</time>
      </trkpt>
      <trkpt lat="47.10272" lon="-1.59822">
        <ele>7.96</ele>
        <time>2020-05-20T17:50:26Z</time>
      </trkpt>
      <trkpt lat="47.10281" lon="-1.59809">
        <ele>7.67</ele>
        <time>2020-05-20T17:50:28Z</time>
      </trkpt>
      <trkpt lat="47.10289" lon="-1.59794">
        <ele>8.75</ele>
        <time>2020-05-20T17:50:30Z</time>
      </trkpt>
      <trkpt lat="47.10298" lon="-1.59781">
        <ele>9.46</ele>
        <time>2020-05-20T17:50:32Z</time>
      </trkpt>
      <trkpt lat="47.10307" lon="-1.59766">
        <ele>10.15</ele>
        <time>2020-05-20T17:50:34Z</time>
      </trkpt>
      <trkpt lat="47.10316" lon="-1.59751">
        <ele>10.01</ele>
        <time>2020-05-20T17:50:36Z</time>
      </trkpt>
      <trkpt lat="47.10325" lon="-1.59737">
        <ele>10.02</ele>
        <time>2020-05-20T17:50:38Z</time>
      </trkpt>
      <trkpt lat="47.10333" lon="-1.59723">
        <ele>10.87</ele>
        <time>2020-05-20T17:50:40Z</time>
      </trkpt>
      <trkpt lat="47.10341" lon="-1.59711">
        <ele>11.33</ele>
        <time>2020-05-20T17:50:42Z</time>
      </trkpt>
      <trkpt lat="47.1035" lon="-1.59696">
        <ele>11.48</ele>
        <time>2020-05-20T17:50:44Z</time>
      </trkpt>
      <trkpt lat="47.10357" lon="-1.59682">
        <ele>10.97</ele>
        <time>2020-05-20T17:50:46Z</time>
      </trkpt>
      <trkpt lat="47.10364" lon="-1.59669">
        <ele>9.94</ele>
        <time>2020-05-20T17:50:48Z</time>
      </trkpt>
      <trkpt lat="47.10372" lon="-1.59655">
        <ele>9.6</ele>
        <time>2020-05-20T17:50:51Z</time>
      </trkpt>
      <trkpt lat="47.10381" lon="-1.59641">
        <ele>9.64</ele>
        <time>2020-05-20T17:50:53Z</time>
      </trkpt>
      <trkpt lat="47.10389" lon="-1.59627">
        <ele>9.06</ele>
        <time>2020-05-20T17:50:55Z</time>
      </trkpt>
      <trkpt lat="47.10397" lon="-1.59613">
        <ele>7.91</ele>
        <time>2020-05-20T17:50:57Z</time>
      </trkpt>
      <trkpt lat="47.10405" lon="-1.596">
        <ele>7.45</ele>
        <time>2020-05-20T17:50:59Z</time>
      </trkpt>
      <trkpt lat="47.10412" lon="-1.59588">
        <ele>6.52</ele>
        <time>2020-05-20T17:51:01Z</time>
      </trkpt>
      <trkpt lat="47.1042" lon="-1.59575">
        <ele>5.87</ele>
        <time>2020-05-20T17:51:03Z</time>
      </trkpt>
      <trkpt lat="47.10427" lon="-1.59562">
        <ele>5.33</ele>
        <time>2020-05-20T17:51:05Z</time>
      </trkpt>
      <trkpt lat="47.10435" lon="-1.59549">
        <ele>5.6</ele>
        <time>2020-05-20T17:51:07Z</time>
      </trkpt>
      <trkpt lat="47.10443" lon="-1.59535">
        <ele>6.01</ele>
        <time>2020-05-20T17:51:09Z</time>
      </trkpt>
      <trkpt lat="47.1045" lon="-1.59522">
        <ele>6.48</ele>
        <time>2020-05-20T17:51:11Z</time>
      </trkpt>
      <trkpt lat="47.10459" lon="-1.59508">
        <ele>6.74</ele>
        <time>2020-05-20T17:51:13Z</time>
      </trkpt>
      <trkpt lat="47.10467" lon="-1.59495">
        <ele>6.63</ele>
        <time>2020-05-20T17:51:15Z</time>
      </trkpt>
      <trkpt lat="47.10475" lon="-1.59481">
        <ele>6.53</ele>
        <time>2020-05-20T17:51:17Z</time>
      </trkpt>
      <trkpt lat="47.10482" lon="-1.59469">
        <ele>5.94</ele>
        <time>2020-05-20T17:51:19Z</time>
      </trkpt>
      <trkpt lat="47.1049" lon="-1.59455">
        <ele>4.94</ele>
        <time>2020-05-20T17:51:21Z</time>
      </trkpt>
      <trkpt lat="47.10497" lon="-1.59444">
        <ele>4.37</ele>
        <time>2020-05-20T17:51:23Z</time>
      </trkpt>
      <trkpt lat="47.10504" lon="-1.59432">
        <ele>4.26</ele>
        <time>2020-05-20T17:51:25Z</time>
      </trkpt>
      <trkpt lat="47.1051" lon="-1.59421">
        <ele>5.19</ele>
        <time>2020-05-20T17:51:27Z</time>
      </trkpt>
      <trkpt lat="47.10518" lon="-1.59408">
        <ele>6.57</ele>
        <time>2020-05-20T17:51:29Z</time>
      </trkpt>
      <trkpt lat="47.10526" lon="-1.59394">
        <ele>7.67</ele>
        <time>2020-05-20T17:51:31Z</time>
      </trkpt>
      <trkpt lat="47.10534" lon="-1.59381">
        <ele>7.35</ele>
        <time>2020-05-20T17:51:33Z</time>
      </trkpt>
      <trkpt lat="47.10541" lon="-1.59368">
        <ele>6.86</ele>
        <time>2020-05-20T17:51:35Z</time>
      </trkpt>
      <trkpt lat="47.10549" lon="-1.59356">
        <ele>6.22</ele>
        <time>2020-05-20T17:51:37Z</time>
      </trkpt>
      <trkpt lat="47.10557" lon="-1.59342">
        <ele>6.73</ele>
        <time>2020-05-20T17:51:39Z</time>
      </trkpt>
      <trkpt lat="47.10565" lon="-1.59329">
        <ele>7.49</ele>
        <time>2020-05-20T17:51:41Z</time>
      </trkpt>
      <trkpt lat="47.10571" lon="-1.59316">
        <ele>8.25</ele>
        <time>2020-05-20T17:51:43Z</time>
      </trkpt>
      <trkpt lat="47.10579" lon="-1.59301">
        <ele>9.16</ele>
        <time>2020-05-20T17:51:45Z</time>
      </trkpt>
      <trkpt lat="47.10587" lon="-1.59288">
        <ele>10.28</ele>
        <time>2020-05-20T17:51:47Z</time>
      </trkpt>
      <trkpt lat="47.10596" lon="-1.59272">
        <ele>11.53</ele>
        <time>2020-05-20T17:51:49Z</time>
      </trkpt>
      <trkpt lat="47.10605" lon="-1.59258">
        <ele>12.93</ele>
        <time>2020-05-20T17:51:51Z</time>
      </trkpt>
      <trkpt lat="47.10612" lon="-1.59244">
        <ele>12.8</ele>
        <time>2020-05-20T17:51:53Z</time>
      </trkpt>
      <trkpt lat="47.10619" lon="-1.5923">
        <ele>12.22</ele>
        <time>2020-05-20T17:51:55Z</time>
      </trkpt>
      <trkpt lat="47.10627" lon="-1.59217">
        <ele>12.31</ele>
        <time>2020-05-20T17:51:57Z</time>
      </trkpt>
      <trkpt lat="47.10634" lon="-1.59204">
        <ele>12.43</ele>
        <time>2020-05-20T17:51:59Z</time>
      </trkpt>
      <trkpt lat="47.10641" lon="-1.59191">
        <ele>13.38</ele>
        <time>2020-05-20T17:52:01Z</time>
      </trkpt>
      <trkpt lat="47.10649" lon="-1.59176">
        <ele>14.43</ele>
        <time>2020-05-20T17:52:03Z</time>
      </trkpt>
      <trkpt lat="47.10655" lon="-1.59163">
        <ele>14.23</ele>
        <time>2020-05-20T17:52:05Z</time>
      </trkpt>
      <trkpt lat="47.10661" lon="-1.5915">
        <ele>13.99</ele>
        <time>2020-05-20T17:52:07Z</time>
      </trkpt>
      <trkpt lat="47.10666" lon="-1.59135">
        <ele>13.96</ele>
        <time>2020-05-20T17:52:09Z</time>
      </trkpt>
      <trkpt lat="47.10672" lon="-1.59119">
        <ele>14.4</ele>
        <time>2020-05-20T17:52:11Z</time>
      </trkpt>
      <trkpt lat="47.10677" lon="-1.59106">
        <ele>15.38</ele>
        <time>2020-05-20T17:52:13Z</time>
      </trkpt>
      <trkpt lat="47.10682" lon="-1.59091">
        <ele>16.03</ele>
        <time>2020-05-20T17:52:15Z</time>
      </trkpt>
      <trkpt lat="47.10687" lon="-1.59074">
        <ele>15.83</ele>
        <time>2020-05-20T17:52:17Z</time>
      </trkpt>
      <trkpt lat="47.10693" lon="-1.59057">
        <ele>15.08</ele>
        <time>2020-05-20T17:52:19Z</time>
      </trkpt>
      <trkpt lat="47.10699" lon="-1.59042">
        <ele>14.4</ele>
        <time>2020-05-20T17:52:21Z</time>
      </trkpt>
      <trkpt lat="47.10704" lon="-1.59028">
        <ele>13.54</ele>
        <time>2020-05-20T17:52:23Z</time>
      </trkpt>
      <trkpt lat="47.10709" lon="-1.59015">
        <ele>13.14</ele>
        <time>2020-05-20T17:52:25Z</time>
      </trkpt>
      <trkpt lat="47.10713" lon="-1.59002">
        <ele>13.2</ele>
        <time>2020-05-20T17:52:27Z</time>
      </trkpt>
      <trkpt lat="47.10719" lon="-1.58988">
        <ele>13.56</ele>
        <time>2020-05-20T17:52:29Z</time>
      </trkpt>
      <trkpt lat="47.10725" lon="-1.58972">
        <ele>14.04</ele>
        <time>2020-05-20T17:52:31Z</time>
      </trkpt>
      <trkpt lat="47.10731" lon="-1.58958">
        <ele>13.22</ele>
        <time>2020-05-20T17:52:33Z</time>
      </trkpt>
      <trkpt lat="47.10737" lon="-1.58941">
        <ele>12.9</ele>
        <time>2020-05-20T17:52:35Z</time>
      </trkpt>
      <trkpt lat="47.10742" lon="-1.58926">
        <ele>12.86</ele>
        <time>2020-05-20T17:52:37Z</time>
      </trkpt>
      <trkpt lat="47.1075" lon="-1.58911">
        <ele>13.18</ele>
        <time>2020-05-20T17:52:39Z</time>
      </trkpt>
      <trkpt lat="47.10758" lon="-1.58896">
        <ele>13.04</ele>
        <time>2020-05-20T17:52:41Z</time>
      </trkpt>
      <trkpt lat="47.10766" lon="-1.58882">
        <ele>13.72</ele>
        <time>2020-05-20T17:52:43Z</time>
      </trkpt>
      <trkpt lat="47.10775" lon="-1.5887">
        <ele>14.17</ele>
        <time>2020-05-20T17:52:45Z</time>
      </trkpt>
      <trkpt lat="47.10784" lon="-1.58857">
        <ele>14.54</ele>
        <time>2020-05-20T17:52:47Z</time>
      </trkpt>
      <trkpt lat="47.10793" lon="-1.58842">
        <ele>15.05</ele>
        <time>2020-05-20T17:52:49Z</time>
      </trkpt>
      <trkpt lat="47.10802" lon="-1.58829">
        <ele>14.6</ele>
        <time>2020-05-20T17:52:51Z</time>
      </trkpt>
      <trkpt lat="47.10811" lon="-1.58814">
        <ele>14.8</ele>
        <time>2020-05-20T17:52:53Z</time>
      </trkpt>
      <trkpt lat="47.1082" lon="-1.58799">
        <ele>14.92</ele>
        <time>2020-05-20T17:52:55Z</time>
      </trkpt>
      <trkpt lat="47.1083" lon="-1.58785">
        <ele>14.2</ele>
        <time>2020-05-20T17:52:57Z</time>
      </trkpt>
      <trkpt lat="47.1084" lon="-1.5877">
        <ele>12.8</ele>
        <time>2020-05-20T17:52:59Z</time>
      </trkpt>
      <trkpt lat="47.1085" lon="-1.58755">
        <ele>12.54</ele>
        <time>2020-05-20T17:53:01Z</time>
      </trkpt>
      <trkpt lat="47.1086" lon="-1.58742">
        <ele>11.98</ele>
        <time>2020-05-20T17:53:03Z</time>
      </trkpt>
      <trkpt lat="47.1087" lon="-1.58727">
        <ele>10.03</ele>
        <time>2020-05-20T17:53:05Z</time>
      </trkpt>
      <trkpt lat="47.1088" lon="-1.58712">
        <ele>8.68</ele>
        <time>2020-05-20T17:53:07Z</time>
      </trkpt>
      <trkpt lat="47.10889" lon="-1.58698">
        <ele>8.49</ele>
        <time>2020-05-20T17:53:09Z</time>
      </trkpt>
      <trkpt lat="47.10899" lon="-1.58681">
        <ele>8.19</ele>
        <time>2020-05-20T17:53:11Z</time>
      </trkpt>
      <trkpt lat="47.1091" lon="-1.58665">
        <ele>8.64</ele>
        <time>2020-05-20T17:53:13Z</time>
      </trkpt>
      <trkpt lat="47.10922" lon="-1.58649">
        <ele>9.15</ele>
        <time>2020-05-20T17:53:15Z</time>
      </trkpt>
      <trkpt lat="47.10934" lon="-1.58632">
        <ele>9.18</ele>
        <time>2020-05-20T17:53:17Z</time>
      </trkpt>
      <trkpt lat="47.10945" lon="-1.58616">
        <ele>8.86</ele>
        <time>2020-05-20T17:53:19Z</time>
      </trkpt>
      <trkpt lat="47.10958" lon="-1.58598">
        <ele>8.27</ele>
        <time>2020-05-20T17:53:21Z</time>
      </trkpt>
      <trkpt lat="47.10968" lon="-1.58582">
        <ele>8.37</ele>
        <time>2020-05-20T17:53:23Z</time>
      </trkpt>
      <trkpt lat="47.10979" lon="-1.58566">
        <ele>8.57</ele>
        <time>2020-05-20T17:53:25Z</time>
      </trkpt>
      <trkpt lat="47.1099" lon="-1.58551">
        <ele>8.7</ele>
        <time>2020-05-20T17:53:27Z</time>
      </trkpt>
      <trkpt lat="47.11" lon="-1.58536">
        <ele>7.91</ele>
        <time>2020-05-20T17:53:29Z</time>
      </trkpt>
      <trkpt lat="47.1101" lon="-1.5852">
        <ele>7.56</ele>
        <time>2020-05-20T17:53:31Z</time>
      </trkpt>
      <trkpt lat="47.11021" lon="-1.58504">
        <ele>7.63</ele>
        <time>2020-05-20T17:53:33Z</time>
      </trkpt>
      <trkpt lat="47.11032" lon="-1.58485">
        <ele>7.93</ele>
        <time>2020-05-20T17:53:35Z</time>
      </trkpt>
      <trkpt lat="47.11044" lon="-1.58467">
        <ele>8.04</ele>
        <time>2020-05-20T17:53:37Z</time>
      </trkpt>
      <trkpt lat="47.11055" lon="-1.5845">
        <ele>8.09</ele>
        <time>2020-05-20T17:53:39Z</time>
      </trkpt>
      <trkpt lat="47.11065" lon="-1.58433">
        <ele>9.08</ele>
        <time>2020-05-20T17:53:41Z</time>
      </trkpt>
      <trkpt lat="47.11076" lon="-1.58417">
        <ele>10.01</ele>
        <time>2020-05-20T17:53:43Z</time>
      </trkpt>
      <trkpt lat="47.11087" lon="-1.584">
        <ele>9.93</ele>
        <time>2020-05-20T17:53:45Z</time>
      </trkpt>
      <trkpt lat="47.11097" lon="-1.58385">
        <ele>10.09</ele>
        <time>2020-05-20T17:53:47Z</time>
      </trkpt>
      <trkpt lat="47.11107" lon="-1.5837">
        <ele>10.23</ele>
        <time>2020-05-20T17:53:49Z</time>
      </trkpt>
      <trkpt lat="47.11118" lon="-1.58356">
        <ele>10.11</ele>
        <time>2020-05-20T17:53:51Z</time>
      </trkpt>
      <trkpt lat="47.11128" lon="-1.5834">
        <ele>9.17</ele>
        <time>2020-05-20T17:53:53Z</time>
      </trkpt>
      <trkpt lat="47.11138" lon="-1.58324">
        <ele>8.15</ele>
        <time>2020-05-20T17:53:55Z</time>
      </trkpt>
      <trkpt lat="47.11148" lon="-1.5831">
        <ele>7.76</ele>
        <time>2020-05-20T17:53:57Z</time>
      </trkpt>
      <trkpt lat="47.11158" lon="-1.58294">
        <ele>7.84</ele>
        <time>2020-05-20T17:53:59Z</time>
      </trkpt>
      <trkpt lat="47.11168" lon="-1.58278">
        <ele>7.66</ele>
        <time>2020-05-20T17:54:01Z</time>
      </trkpt>
      <trkpt lat="47.11179" lon="-1.58262">
        <ele>7.01</ele>
        <time>2020-05-20T17:54:03Z</time>
      </trkpt>
      <trkpt lat="47.11189" lon="-1.58247">
        <ele>6.51</ele>
        <time>2020-05-20T17:54:05Z</time>
      </trkpt>
      <trkpt lat="47.112" lon="-1.58231">
        <ele>6.32</ele>
        <time>2020-05-20T17:54:07Z</time>
      </trkpt>
      <trkpt lat="47.1121" lon="-1.58217">
        <ele>6</ele>
        <time>2020-05-20T17:54:09Z</time>
      </trkpt>
      <trkpt lat="47.1122" lon="-1.58202">
        <ele>5.74</ele>
        <time>2020-05-20T17:54:11Z</time>
      </trkpt>
      <trkpt lat="47.11231" lon="-1.58189">
        <ele>5.53</ele>
        <time>2020-05-20T17:54:13Z</time>
      </trkpt>
      <trkpt lat="47.11243" lon="-1.58175">
        <ele>5.61</ele>
        <time>2020-05-20T17:54:15Z</time>
      </trkpt>
      <trkpt lat="47.11254" lon="-1.58163">
        <ele>5.45</ele>
        <time>2020-05-20T17:54:17Z</time>
      </trkpt>
      <trkpt lat="47.11266" lon="-1.58152">
        <ele>5.29</ele>
        <time>2020-05-20T17:54:19Z</time>
      </trkpt>
      <trkpt lat="47.11278" lon="-1.58142">
        <ele>4.87</ele>
        <time>2020-05-20T17:54:21Z</time>
      </trkpt>
      <trkpt lat="47.1129" lon="-1.58132">
        <ele>4.71</ele>
        <time>2020-05-20T17:54:23Z</time>
      </trkpt>
      <trkpt lat="47.11301" lon="-1.58124">
        <ele>3.57</ele>
        <time>2020-05-20T17:54:25Z</time>
      </trkpt>
      <trkpt lat="47.11315" lon="-1.58115">
        <ele>3.33</ele>
        <time>2020-05-20T17:54:27Z</time>
      </trkpt>
      <trkpt lat="47.11327" lon="-1.58107">
        <ele>3.38</ele>
        <time>2020-05-20T17:54:29Z</time>
      </trkpt>
      <trkpt lat="47.11341" lon="-1.58097">
        <ele>4.37</ele>
        <time>2020-05-20T17:54:31Z</time>
      </trkpt>
      <trkpt lat="47.11354" lon="-1.58089">
        <ele>4.82</ele>
        <time>2020-05-20T17:54:33Z</time>
      </trkpt>
      <trkpt lat="47.11367" lon="-1.58081">
        <ele>4.86</ele>
        <time>2020-05-20T17:54:35Z</time>
      </trkpt>
      <trkpt lat="47.1138" lon="-1.58074">
        <ele>5.3</ele>
        <time>2020-05-20T17:54:37Z</time>
      </trkpt>
      <trkpt lat="47.11393" lon="-1.58066">
        <ele>5.04</ele>
        <time>2020-05-20T17:54:39Z</time>
      </trkpt>
      <trkpt lat="47.11405" lon="-1.58059">
        <ele>5.59</ele>
        <time>2020-05-20T17:54:41Z</time>
      </trkpt>
      <trkpt lat="47.11419" lon="-1.58051">
        <ele>5.37</ele>
        <time>2020-05-20T17:54:43Z</time>
      </trkpt>
      <trkpt lat="47.11431" lon="-1.58045">
        <ele>4.4</ele>
        <time>2020-05-20T17:54:45Z</time>
      </trkpt>
      <trkpt lat="47.11443" lon="-1.58039">
        <ele>3.89</ele>
        <time>2020-05-20T17:54:47Z</time>
      </trkpt>
      <trkpt lat="47.11455" lon="-1.58034">
        <ele>3.79</ele>
        <time>2020-05-20T17:54:49Z</time>
      </trkpt>
      <trkpt lat="47.11469" lon="-1.58029">
        <ele>3.64</ele>
        <time>2020-05-20T17:54:51Z</time>
      </trkpt>
      <trkpt lat="47.11482" lon="-1.58025">
        <ele>4.01</ele>
        <time>2020-05-20T17:54:53Z</time>
      </trkpt>
      <trkpt lat="47.11495" lon="-1.58023">
        <ele>4.59</ele>
        <time>2020-05-20T17:54:55Z</time>
      </trkpt>
      <trkpt lat="47.11508" lon="-1.58021">
        <ele>4.76</ele>
        <time>2020-05-20T17:54:57Z</time>
      </trkpt>
      <trkpt lat="47.11522" lon="-1.58021">
        <ele>4.23</ele>
        <time>2020-05-20T17:54:59Z</time>
      </trkpt>
      <trkpt lat="47.11536" lon="-1.58022">
        <ele>3.54</ele>
        <time>2020-05-20T17:55:01Z</time>
      </trkpt>
      <trkpt lat="47.11548" lon="-1.58023">
        <ele>3.69</ele>
        <time>2020-05-20T17:55:03Z</time>
      </trkpt>
      <trkpt lat="47.11562" lon="-1.58024">
        <ele>3.24</ele>
        <time>2020-05-20T17:55:05Z</time>
      </trkpt>
      <trkpt lat="47.11577" lon="-1.58025">
        <ele>2.55</ele>
        <time>2020-05-20T17:55:07Z</time>
      </trkpt>
      <trkpt lat="47.11591" lon="-1.58026">
        <ele>2.24</ele>
        <time>2020-05-20T17:55:09Z</time>
      </trkpt>
      <trkpt lat="47.11604" lon="-1.58028">
        <ele>2.22</ele>
        <time>2020-05-20T17:55:11Z</time>
      </trkpt>
      <trkpt lat="47.11618" lon="-1.5803">
        <ele>2.31</ele>
        <time>2020-05-20T17:55:13Z</time>
      </trkpt>
      <trkpt lat="47.11631" lon="-1.58029">
        <ele>3.29</ele>
        <time>2020-05-20T17:55:15Z</time>
      </trkpt>
      <trkpt lat="47.11644" lon="-1.58027">
        <ele>4.73</ele>
        <time>2020-05-20T17:55:17Z</time>
      </trkpt>
      <trkpt lat="47.11657" lon="-1.58027">
        <ele>5.25</ele>
        <time>2020-05-20T17:55:19Z</time>
      </trkpt>
      <trkpt lat="47.11671" lon="-1.5803">
        <ele>5.73</ele>
        <time>2020-05-20T17:55:21Z</time>
      </trkpt>
      <trkpt lat="47.11687" lon="-1.58033">
        <ele>6.19</ele>
        <time>2020-05-20T17:55:23Z</time>
      </trkpt>
      <trkpt lat="47.11701" lon="-1.58034">
        <ele>6.15</ele>
        <time>2020-05-20T17:55:25Z</time>
      </trkpt>
      <trkpt lat="47.11714" lon="-1.58036">
        <ele>6.55</ele>
        <time>2020-05-20T17:55:27Z</time>
      </trkpt>
      <trkpt lat="47.11727" lon="-1.58037">
        <ele>6.7</ele>
        <time>2020-05-20T17:55:29Z</time>
      </trkpt>
      <trkpt lat="47.11741" lon="-1.58039">
        <ele>7.12</ele>
        <time>2020-05-20T17:55:31Z</time>
      </trkpt>
      <trkpt lat="47.11754" lon="-1.58041">
        <ele>7.12</ele>
        <time>2020-05-20T17:55:33Z</time>
      </trkpt>
      <trkpt lat="47.11766" lon="-1.58044">
        <ele>6.8</ele>
        <time>2020-05-20T17:55:35Z</time>
      </trkpt>
      <trkpt lat="47.11778" lon="-1.58046">
        <ele>6.82</ele>
        <time>2020-05-20T17:55:37Z</time>
      </trkpt>
      <trkpt lat="47.11791" lon="-1.58048">
        <ele>6.64</ele>
        <time>2020-05-20T17:55:39Z</time>
      </trkpt>
      <trkpt lat="47.11803" lon="-1.58051">
        <ele>5</ele>
        <time>2020-05-20T17:55:41Z</time>
      </trkpt>
      <trkpt lat="47.11815" lon="-1.58054">
        <ele>4.47</ele>
        <time>2020-05-20T17:55:43Z</time>
      </trkpt>
      <trkpt lat="47.11827" lon="-1.58057">
        <ele>3.91</ele>
        <time>2020-05-20T17:55:45Z</time>
      </trkpt>
      <trkpt lat="47.11839" lon="-1.58061">
        <ele>4.75</ele>
        <time>2020-05-20T17:55:47Z</time>
      </trkpt>
      <trkpt lat="47.11852" lon="-1.58064">
        <ele>6.01</ele>
        <time>2020-05-20T17:55:49Z</time>
      </trkpt>
      <trkpt lat="47.11865" lon="-1.58066">
        <ele>6.96</ele>
        <time>2020-05-20T17:55:51Z</time>
      </trkpt>
      <trkpt lat="47.11877" lon="-1.58069">
        <ele>7.47</ele>
        <time>2020-05-20T17:55:53Z</time>
      </trkpt>
      <trkpt lat="47.11888" lon="-1.58072">
        <ele>7.56</ele>
        <time>2020-05-20T17:55:55Z</time>
      </trkpt>
      <trkpt lat="47.11899" lon="-1.58075">
        <ele>8.62</ele>
        <time>2020-05-20T17:55:57Z</time>
      </trkpt>
      <trkpt lat="47.1191" lon="-1.58079">
        <ele>9.23</ele>
        <time>2020-05-20T17:55:59Z</time>
      </trkpt>
      <trkpt lat="47.11924" lon="-1.58082">
        <ele>9.34</ele>
        <time>2020-05-20T17:56:01Z</time>
      </trkpt>
      <trkpt lat="47.11936" lon="-1.58086">
        <ele>10.01</ele>
        <time>2020-05-20T17:56:03Z</time>
      </trkpt>
      <trkpt lat="47.11947" lon="-1.58089">
        <ele>10.52</ele>
        <time>2020-05-20T17:56:05Z</time>
      </trkpt>
      <trkpt lat="47.11959" lon="-1.58092">
        <ele>11.03</ele>
        <time>2020-05-20T17:56:07Z</time>
      </trkpt>
      <trkpt lat="47.1197" lon="-1.58095">
        <ele>10.95</ele>
        <time>2020-05-20T17:56:09Z</time>
      </trkpt>
      <trkpt lat="47.11981" lon="-1.58098">
        <ele>9.76</ele>
        <time>2020-05-20T17:56:11Z</time>
      </trkpt>
      <trkpt lat="47.11993" lon="-1.58103">
        <ele>8.73</ele>
        <time>2020-05-20T17:56:13Z</time>
      </trkpt>
      <trkpt lat="47.12006" lon="-1.58107">
        <ele>8.57</ele>
        <time>2020-05-20T17:56:15Z</time>
      </trkpt>
      <trkpt lat="47.12018" lon="-1.58103">
        <ele>8.48</ele>
        <time>2020-05-20T17:56:17Z</time>
      </trkpt>
      <trkpt lat="47.12028" lon="-1.58112">
        <ele>9.35</ele>
        <time>2020-05-20T17:56:19Z</time>
      </trkpt>
      <trkpt lat="47.1204" lon="-1.58123">
        <ele>10.43</ele>
        <time>2020-05-20T17:56:21Z</time>
      </trkpt>
      <trkpt lat="47.12052" lon="-1.58129">
        <ele>11.21</ele>
        <time>2020-05-20T17:56:23Z</time>
      </trkpt>
      <trkpt lat="47.12064" lon="-1.58136">
        <ele>11.48</ele>
        <time>2020-05-20T17:56:25Z</time>
      </trkpt>
      <trkpt lat="47.12078" lon="-1.58145">
        <ele>11.62</ele>
        <time>2020-05-20T17:56:27Z</time>
      </trkpt>
      <trkpt lat="47.12091" lon="-1.58154">
        <ele>11.42</ele>
        <time>2020-05-20T17:56:29Z</time>
      </trkpt>
      <trkpt lat="47.12104" lon="-1.58163">
        <ele>10.38</ele>
        <time>2020-05-20T17:56:31Z</time>
      </trkpt>
      <trkpt lat="47.12117" lon="-1.58172">
        <ele>9.68</ele>
        <time>2020-05-20T17:56:33Z</time>
      </trkpt>
      <trkpt lat="47.12131" lon="-1.58183">
        <ele>9.71</ele>
        <time>2020-05-20T17:56:35Z</time>
      </trkpt>
      <trkpt lat="47.12143" lon="-1.58194">
        <ele>9.16</ele>
        <time>2020-05-20T17:56:37Z</time>
      </trkpt>
      <trkpt lat="47.12155" lon="-1.58205">
        <ele>8.52</ele>
        <time>2020-05-20T17:56:39Z</time>
      </trkpt>
      <trkpt lat="47.12168" lon="-1.58218">
        <ele>7.28</ele>
        <time>2020-05-20T17:56:41Z</time>
      </trkpt>
      <trkpt lat="47.12181" lon="-1.58232">
        <ele>5.66</ele>
        <time>2020-05-20T17:56:43Z</time>
      </trkpt>
      <trkpt lat="47.12193" lon="-1.58245">
        <ele>4.47</ele>
        <time>2020-05-20T17:56:45Z</time>
      </trkpt>
      <trkpt lat="47.12204" lon="-1.58257">
        <ele>4.23</ele>
        <time>2020-05-20T17:56:47Z</time>
      </trkpt>
      <trkpt lat="47.12217" lon="-1.58269">
        <ele>3.94</ele>
        <time>2020-05-20T17:56:49Z</time>
      </trkpt>
      <trkpt lat="47.12231" lon="-1.58282">
        <ele>3.09</ele>
        <time>2020-05-20T17:56:51Z</time>
      </trkpt>
      <trkpt lat="47.12244" lon="-1.58296">
        <ele>2.92</ele>
        <time>2020-05-20T17:56:53Z</time>
      </trkpt>
      <trkpt lat="47.12256" lon="-1.58308">
        <ele>3.53</ele>
        <time>2020-05-20T17:56:55Z</time>
      </trkpt>
      <trkpt lat="47.1227" lon="-1.58322">
        <ele>3.86</ele>
        <time>2020-05-20T17:56:57Z</time>
      </trkpt>
      <trkpt lat="47.12281" lon="-1.58332">
        <ele>4.67</ele>
        <time>2020-05-20T17:56:59Z</time>
      </trkpt>
      <trkpt lat="47.12291" lon="-1.58341">
        <ele>5.66</ele>
        <time>2020-05-20T17:57:01Z</time>
      </trkpt>
      <trkpt lat="47.123" lon="-1.58358">
        <ele>6.65</ele>
        <time>2020-05-20T17:57:03Z</time>
      </trkpt>
      <trkpt lat="47.12302" lon="-1.58378">
        <ele>6.8</ele>
        <time>2020-05-20T17:57:05Z</time>
      </trkpt>
      <trkpt lat="47.12305" lon="-1.58395">
        <ele>6.21</ele>
        <time>2020-05-20T17:57:07Z</time>
      </trkpt>
      <trkpt lat="47.12311" lon="-1.58415">
        <ele>5.36</ele>
        <time>2020-05-20T17:57:09Z</time>
      </trkpt>
      <trkpt lat="47.12318" lon="-1.58433">
        <ele>5.19</ele>
        <time>2020-05-20T17:57:11Z</time>
      </trkpt>
      <trkpt lat="47.12327" lon="-1.58443">
        <ele>6.63</ele>
        <time>2020-05-20T17:57:13Z</time>
      </trkpt>
      <trkpt lat="47.12331" lon="-1.5846">
        <ele>7.54</ele>
        <time>2020-05-20T17:57:15Z</time>
      </trkpt>
      <trkpt lat="47.12335" lon="-1.58481">
        <ele>6.53</ele>
        <time>2020-05-20T17:57:17Z</time>
      </trkpt>
      <trkpt lat="47.12341" lon="-1.58504">
        <ele>4.68</ele>
        <time>2020-05-20T17:57:19Z</time>
      </trkpt>
      <trkpt lat="47.12346" lon="-1.58526">
        <ele>3.58</ele>
        <time>2020-05-20T17:57:21Z</time>
      </trkpt>
      <trkpt lat="47.1235" lon="-1.58542">
        <ele>3.15</ele>
        <time>2020-05-20T17:57:23Z</time>
      </trkpt>
      <trkpt lat="47.12354" lon="-1.58559">
        <ele>3.01</ele>
        <time>2020-05-20T17:57:25Z</time>
      </trkpt>
      <trkpt lat="47.12359" lon="-1.58579">
        <ele>2.82</ele>
        <time>2020-05-20T17:57:27Z</time>
      </trkpt>
      <trkpt lat="47.12362" lon="-1.58592">
        <ele>3.09</ele>
        <time>2020-05-20T17:57:29Z</time>
      </trkpt>
      <trkpt lat="47.12367" lon="-1.58614">
        <ele>3.97</ele>
        <time>2020-05-20T17:57:31Z</time>
      </trkpt>
      <trkpt lat="47.12372" lon="-1.58634">
        <ele>4.63</ele>
        <time>2020-05-20T17:57:33Z</time>
      </trkpt>
      <trkpt lat="47.12377" lon="-1.58654">
        <ele>4.56</ele>
        <time>2020-05-20T17:57:35Z</time>
      </trkpt>
      <trkpt lat="47.12382" lon="-1.58674">
        <ele>5.74</ele>
        <time>2020-05-20T17:57:37Z</time>
      </trkpt>
      <trkpt lat="47.12386" lon="-1.58694">
        <ele>6.11</ele>
        <time>2020-05-20T17:57:39Z</time>
      </trkpt>
      <trkpt lat="47.1239" lon="-1.58711">
        <ele>7.21</ele>
        <time>2020-05-20T17:57:41Z</time>
      </trkpt>
      <trkpt lat="47.12393" lon="-1.5873">
        <ele>8.71</ele>
        <time>2020-05-20T17:57:43Z</time>
      </trkpt>
      <trkpt lat="47.12396" lon="-1.5875">
        <ele>9.09</ele>
        <time>2020-05-20T17:57:45Z</time>
      </trkpt>
      <trkpt lat="47.12399" lon="-1.58767">
        <ele>8.75</ele>
        <time>2020-05-20T17:57:47Z</time>
      </trkpt>
      <trkpt lat="47.12403" lon="-1.58786">
        <ele>7.69</ele>
        <time>2020-05-20T17:57:49Z</time>
      </trkpt>
      <trkpt lat="47.12406" lon="-1.58803">
        <ele>6.1</ele>
        <time>2020-05-20T17:57:51Z</time>
      </trkpt>
      <trkpt lat="47.12409" lon="-1.58821">
        <ele>6.08</ele>
        <time>2020-05-20T17:57:53Z</time>
      </trkpt>
      <trkpt lat="47.12411" lon="-1.58837">
        <ele>6.7</ele>
        <time>2020-05-20T17:57:55Z</time>
      </trkpt>
      <trkpt lat="47.12413" lon="-1.58854">
        <ele>7.46</ele>
        <time>2020-05-20T17:57:57Z</time>
      </trkpt>
      <trkpt lat="47.12415" lon="-1.58872">
        <ele>7.77</ele>
        <time>2020-05-20T17:57:59Z</time>
      </trkpt>
      <trkpt lat="47.12417" lon="-1.58891">
        <ele>9.35</ele>
        <time>2020-05-20T17:58:01Z</time>
      </trkpt>
      <trkpt lat="47.12418" lon="-1.58909">
        <ele>8.96</ele>
        <time>2020-05-20T17:58:03Z</time>
      </trkpt>
      <trkpt lat="47.1242" lon="-1.5893">
        <ele>8.88</ele>
        <time>2020-05-20T17:58:05Z</time>
      </trkpt>
      <trkpt lat="47.12422" lon="-1.5895">
        <ele>8.78</ele>
        <time>2020-05-20T17:58:07Z</time>
      </trkpt>
      <trkpt lat="47.12423" lon="-1.58971">
        <ele>8.26</ele>
        <time>2020-05-20T17:58:09Z</time>
      </trkpt>
      <trkpt lat="47.12424" lon="-1.58992">
        <ele>8.77</ele>
        <time>2020-05-20T17:58:11Z</time>
      </trkpt>
      <trkpt lat="47.12424" lon="-1.59006">
        <ele>8.77</ele>
        <time>2020-05-20T17:58:12Z</time>
      </trkpt>
      <trkpt lat="47.12425" lon="-1.5903">
        <ele>7.94</ele>
        <time>2020-05-20T17:58:14Z</time>
      </trkpt>
      <trkpt lat="47.12427" lon="-1.59053">
        <ele>7.34</ele>
        <time>2020-05-20T17:58:16Z</time>
      </trkpt>
      <trkpt lat="47.12428" lon="-1.59073">
        <ele>7.08</ele>
        <time>2020-05-20T17:58:18Z</time>
      </trkpt>
      <trkpt lat="47.12429" lon="-1.59098">
        <ele>6.41</ele>
        <time>2020-05-20T17:58:20Z</time>
      </trkpt>
      <trkpt lat="47.1243" lon="-1.5912">
        <ele>5.34</ele>
        <time>2020-05-20T17:58:22Z</time>
      </trkpt>
      <trkpt lat="47.12431" lon="-1.5914">
        <ele>4.57</ele>
        <time>2020-05-20T17:58:24Z</time>
      </trkpt>
      <trkpt lat="47.12431" lon="-1.59163">
        <ele>4.4</ele>
        <time>2020-05-20T17:58:26Z</time>
      </trkpt>
      <trkpt lat="47.12433" lon="-1.59181">
        <ele>4.67</ele>
        <time>2020-05-20T17:58:28Z</time>
      </trkpt>
      <trkpt lat="47.12436" lon="-1.59201">
        <ele>4.9</ele>
        <time>2020-05-20T17:58:30Z</time>
      </trkpt>
      <trkpt lat="47.12435" lon="-1.5922">
        <ele>5.31</ele>
        <time>2020-05-20T17:58:32Z</time>
      </trkpt>
      <trkpt lat="47.12435" lon="-1.59237">
        <ele>5.09</ele>
        <time>2020-05-20T17:58:34Z</time>
      </trkpt>
      <trkpt lat="47.12435" lon="-1.59258">
        <ele>5.1</ele>
        <time>2020-05-20T17:58:36Z</time>
      </trkpt>
      <trkpt lat="47.12435" lon="-1.59276">
        <ele>5.85</ele>
        <time>2020-05-20T17:58:38Z</time>
      </trkpt>
      <trkpt lat="47.12436" lon="-1.59296">
        <ele>5.96</ele>
        <time>2020-05-20T17:58:40Z</time>
      </trkpt>
      <trkpt lat="47.12436" lon="-1.59315">
        <ele>5.43</ele>
        <time>2020-05-20T17:58:42Z</time>
      </trkpt>
      <trkpt lat="47.12437" lon="-1.59334">
        <ele>6.33</ele>
        <time>2020-05-20T17:58:44Z</time>
      </trkpt>
      <trkpt lat="47.12439" lon="-1.5935">
        <ele>7.35</ele>
        <time>2020-05-20T17:58:46Z</time>
      </trkpt>
      <trkpt lat="47.1244" lon="-1.5937">
        <ele>7.67</ele>
        <time>2020-05-20T17:58:48Z</time>
      </trkpt>
      <trkpt lat="47.12442" lon="-1.59389">
        <ele>8.19</ele>
        <time>2020-05-20T17:58:50Z</time>
      </trkpt>
      <trkpt lat="47.12444" lon="-1.59409">
        <ele>8.51</ele>
        <time>2020-05-20T17:58:52Z</time>
      </trkpt>
      <trkpt lat="47.12446" lon="-1.59428">
        <ele>8.51</ele>
        <time>2020-05-20T17:58:54Z</time>
      </trkpt>
      <trkpt lat="47.12446" lon="-1.59448">
        <ele>8.26</ele>
        <time>2020-05-20T17:58:56Z</time>
      </trkpt>
      <trkpt lat="47.12447" lon="-1.59467">
        <ele>7.87</ele>
        <time>2020-05-20T17:58:58Z</time>
      </trkpt>
      <trkpt lat="47.12448" lon="-1.59486">
        <ele>7.77</ele>
        <time>2020-05-20T17:59:00Z</time>
      </trkpt>
      <trkpt lat="47.12449" lon="-1.59504">
        <ele>8.14</ele>
        <time>2020-05-20T17:59:02Z</time>
      </trkpt>
      <trkpt lat="47.1245" lon="-1.59524">
        <ele>8.15</ele>
        <time>2020-05-20T17:59:04Z</time>
      </trkpt>
      <trkpt lat="47.12451" lon="-1.59544">
        <ele>7.88</ele>
        <time>2020-05-20T17:59:06Z</time>
      </trkpt>
      <trkpt lat="47.12452" lon="-1.59562">
        <ele>6.5</ele>
        <time>2020-05-20T17:59:08Z</time>
      </trkpt>
      <trkpt lat="47.12453" lon="-1.59582">
        <ele>5.63</ele>
        <time>2020-05-20T17:59:10Z</time>
      </trkpt>
      <trkpt lat="47.12454" lon="-1.596">
        <ele>5.86</ele>
        <time>2020-05-20T17:59:12Z</time>
      </trkpt>
      <trkpt lat="47.12454" lon="-1.5962">
        <ele>6.06</ele>
        <time>2020-05-20T17:59:14Z</time>
      </trkpt>
      <trkpt lat="47.12455" lon="-1.59639">
        <ele>5.59</ele>
        <time>2020-05-20T17:59:16Z</time>
      </trkpt>
      <trkpt lat="47.12456" lon="-1.59657">
        <ele>4.66</ele>
        <time>2020-05-20T17:59:18Z</time>
      </trkpt>
      <trkpt lat="47.12457" lon="-1.59673">
        <ele>4.93</ele>
        <time>2020-05-20T17:59:20Z</time>
      </trkpt>
      <trkpt lat="47.12458" lon="-1.59692">
        <ele>5.42</ele>
        <time>2020-05-20T17:59:22Z</time>
      </trkpt>
      <trkpt lat="47.12459" lon="-1.59709">
        <ele>5.5</ele>
        <time>2020-05-20T17:59:24Z</time>
      </trkpt>
      <trkpt lat="47.1246" lon="-1.59732">
        <ele>6.09</ele>
        <time>2020-05-20T17:59:26Z</time>
      </trkpt>
      <trkpt lat="47.12461" lon="-1.5975">
        <ele>5.96</ele>
        <time>2020-05-20T17:59:28Z</time>
      </trkpt>
      <trkpt lat="47.12462" lon="-1.5977">
        <ele>5.42</ele>
        <time>2020-05-20T17:59:30Z</time>
      </trkpt>
      <trkpt lat="47.12463" lon="-1.5979">
        <ele>5.57</ele>
        <time>2020-05-20T17:59:32Z</time>
      </trkpt>
      <trkpt lat="47.12464" lon="-1.59809">
        <ele>5.79</ele>
        <time>2020-05-20T17:59:34Z</time>
      </trkpt>
      <trkpt lat="47.12465" lon="-1.59829">
        <ele>6.09</ele>
        <time>2020-05-20T17:59:36Z</time>
      </trkpt>
      <trkpt lat="47.12466" lon="-1.59846">
        <ele>5.81</ele>
        <time>2020-05-20T17:59:38Z</time>
      </trkpt>
      <trkpt lat="47.12467" lon="-1.59864">
        <ele>6.63</ele>
        <time>2020-05-20T17:59:40Z</time>
      </trkpt>
      <trkpt lat="47.12467" lon="-1.59882">
        <ele>6.98</ele>
        <time>2020-05-20T17:59:42Z</time>
      </trkpt>
      <trkpt lat="47.12468" lon="-1.59901">
        <ele>7.81</ele>
        <time>2020-05-20T17:59:44Z</time>
      </trkpt>
      <trkpt lat="47.12469" lon="-1.59922">
        <ele>7.49</ele>
        <time>2020-05-20T17:59:46Z</time>
      </trkpt>
      <trkpt lat="47.12471" lon="-1.59943">
        <ele>8.52</ele>
        <time>2020-05-20T17:59:48Z</time>
      </trkpt>
      <trkpt lat="47.12471" lon="-1.59962">
        <ele>9.15</ele>
        <time>2020-05-20T17:59:50Z</time>
      </trkpt>
      <trkpt lat="47.12472" lon="-1.59981">
        <ele>8.72</ele>
        <time>2020-05-20T17:59:52Z</time>
      </trkpt>
      <trkpt lat="47.12473" lon="-1.60001">
        <ele>8.3</ele>
        <time>2020-05-20T17:59:54Z</time>
      </trkpt>
      <trkpt lat="47.12474" lon="-1.60022">
        <ele>7.69</ele>
        <time>2020-05-20T17:59:56Z</time>
      </trkpt>
      <trkpt lat="47.12475" lon="-1.6004">
        <ele>6.82</ele>
        <time>2020-05-20T17:59:58Z</time>
      </trkpt>
      <trkpt lat="47.12477" lon="-1.60059">
        <ele>6.28</ele>
        <time>2020-05-20T18:00:00Z</time>
      </trkpt>
      <trkpt lat="47.12478" lon="-1.6008">
        <ele>6.27</ele>
        <time>2020-05-20T18:00:02Z</time>
      </trkpt>
      <trkpt lat="47.12479" lon="-1.601">
        <ele>6.15</ele>
        <time>2020-05-20T18:00:04Z</time>
      </trkpt>
      <trkpt lat="47.12481" lon="-1.60118">
        <ele>5.53</ele>
        <time>2020-05-20T18:00:06Z</time>
      </trkpt>
      <trkpt lat="47.12482" lon="-1.60139">
        <ele>5.69</ele>
        <time>2020-05-20T18:00:08Z</time>
      </trkpt>
      <trkpt lat="47.12484" lon="-1.6016">
        <ele>5.07</ele>
        <time>2020-05-20T18:00:10Z</time>
      </trkpt>
      <trkpt lat="47.12485" lon="-1.60182">
        <ele>4.94</ele>
        <time>2020-05-20T18:00:12Z</time>
      </trkpt>
      <trkpt lat="47.12487" lon="-1.60202">
        <ele>5.26</ele>
        <time>2020-05-20T18:00:14Z</time>
      </trkpt>
      <trkpt lat="47.12488" lon="-1.60225">
        <ele>5.64</ele>
        <time>2020-05-20T18:00:16Z</time>
      </trkpt>
      <trkpt lat="47.12491" lon="-1.60246">
        <ele>6.2</ele>
        <time>2020-05-20T18:00:18Z</time>
      </trkpt>
      <trkpt lat="47.12494" lon="-1.60266">
        <ele>6.04</ele>
        <time>2020-05-20T18:00:20Z</time>
      </trkpt>
      <trkpt lat="47.12498" lon="-1.60286">
        <ele>4.99</ele>
        <time>2020-05-20T18:00:22Z</time>
      </trkpt>
      <trkpt lat="47.12502" lon="-1.60304">
        <ele>4.9</ele>
        <time>2020-05-20T18:00:24Z</time>
      </trkpt>
      <trkpt lat="47.12506" lon="-1.60324">
        <ele>5.21</ele>
        <time>2020-05-20T18:00:25Z</time>
      </trkpt>
      <trkpt lat="47.1251" lon="-1.60343">
        <ele>5.17</ele>
        <time>2020-05-20T18:00:27Z</time>
      </trkpt>
      <trkpt lat="47.12514" lon="-1.60361">
        <ele>5.62</ele>
        <time>2020-05-20T18:00:29Z</time>
      </trkpt>
      <trkpt lat="47.12518" lon="-1.6038">
        <ele>5.91</ele>
        <time>2020-05-20T18:00:31Z</time>
      </trkpt>
      <trkpt lat="47.12521" lon="-1.60396">
        <ele>5.56</ele>
        <time>2020-05-20T18:00:33Z</time>
      </trkpt>
      <trkpt lat="47.12524" lon="-1.60413">
        <ele>5.01</ele>
        <time>2020-05-20T18:00:35Z</time>
      </trkpt>
      <trkpt lat="47.12528" lon="-1.60431">
        <ele>4.81</ele>
        <time>2020-05-20T18:00:37Z</time>
      </trkpt>
      <trkpt lat="47.12531" lon="-1.60449">
        <ele>5.37</ele>
        <time>2020-05-20T18:00:39Z</time>
      </trkpt>
      <trkpt lat="47.12534" lon="-1.60467">
        <ele>6.3</ele>
        <time>2020-05-20T18:00:41Z</time>
      </trkpt>
      <trkpt lat="47.12537" lon="-1.60485">
        <ele>6.92</ele>
        <time>2020-05-20T18:00:43Z</time>
      </trkpt>
      <trkpt lat="47.12539" lon="-1.60502">
        <ele>6.4</ele>
        <time>2020-05-20T18:00:45Z</time>
      </trkpt>
      <trkpt lat="47.12541" lon="-1.6052">
        <ele>5.83</ele>
        <time>2020-05-20T18:00:47Z</time>
      </trkpt>
      <trkpt lat="47.12543" lon="-1.60537">
        <ele>5.71</ele>
        <time>2020-05-20T18:00:49Z</time>
      </trkpt>
      <trkpt lat="47.12544" lon="-1.60555">
        <ele>6.2</ele>
        <time>2020-05-20T18:00:51Z</time>
      </trkpt>
      <trkpt lat="47.12544" lon="-1.60575">
        <ele>6.41</ele>
        <time>2020-05-20T18:00:53Z</time>
      </trkpt>
      <trkpt lat="47.12545" lon="-1.60593">
        <ele>6.68</ele>
        <time>2020-05-20T18:00:55Z</time>
      </trkpt>
      <trkpt lat="47.12545" lon="-1.60611">
        <ele>6.69</ele>
        <time>2020-05-20T18:00:57Z</time>
      </trkpt>
      <trkpt lat="47.12545" lon="-1.60628">
        <ele>7.77</ele>
        <time>2020-05-20T18:00:59Z</time>
      </trkpt>
      <trkpt lat="47.12545" lon="-1.60646">
        <ele>8.14</ele>
        <time>2020-05-20T18:01:01Z</time>
      </trkpt>
      <trkpt lat="47.12545" lon="-1.60666">
        <ele>8.75</ele>
        <time>2020-05-20T18:01:03Z</time>
      </trkpt>
      <trkpt lat="47.12544" lon="-1.60685">
        <ele>9.11</ele>
        <time>2020-05-20T18:01:05Z</time>
      </trkpt>
      <trkpt lat="47.12544" lon="-1.60703">
        <ele>9.11</ele>
        <time>2020-05-20T18:01:07Z</time>
      </trkpt>
      <trkpt lat="47.12544" lon="-1.60721">
        <ele>9.34</ele>
        <time>2020-05-20T18:01:09Z</time>
      </trkpt>
      <trkpt lat="47.12544" lon="-1.60739">
        <ele>9.79</ele>
        <time>2020-05-20T18:01:11Z</time>
      </trkpt>
      <trkpt lat="47.12544" lon="-1.60756">
        <ele>9.61</ele>
        <time>2020-05-20T18:01:13Z</time>
      </trkpt>
      <trkpt lat="47.12543" lon="-1.60775">
        <ele>8.73</ele>
        <time>2020-05-20T18:01:15Z</time>
      </trkpt>
      <trkpt lat="47.12541" lon="-1.60792">
        <ele>9.14</ele>
        <time>2020-05-20T18:01:17Z</time>
      </trkpt>
      <trkpt lat="47.12539" lon="-1.60811">
        <ele>9.74</ele>
        <time>2020-05-20T18:01:19Z</time>
      </trkpt>
      <trkpt lat="47.12537" lon="-1.60828">
        <ele>10.02</ele>
        <time>2020-05-20T18:01:21Z</time>
      </trkpt>
      <trkpt lat="47.12536" lon="-1.60846">
        <ele>9.76</ele>
        <time>2020-05-20T18:01:23Z</time>
      </trkpt>
      <trkpt lat="47.12544" lon="-1.60857">
        <ele>10.22</ele>
        <time>2020-05-20T18:01:25Z</time>
      </trkpt>
      <trkpt lat="47.12556" lon="-1.6085">
        <ele>10.27</ele>
        <time>2020-05-20T18:01:27Z</time>
      </trkpt>
      <trkpt lat="47.12569" lon="-1.60843">
        <ele>10.55</ele>
        <time>2020-05-20T18:01:29Z</time>
      </trkpt>
      <trkpt lat="47.12581" lon="-1.60838">
        <ele>10.83</ele>
        <time>2020-05-20T18:01:31Z</time>
      </trkpt>
      <trkpt lat="47.12592" lon="-1.60834">
        <ele>11.09</ele>
        <time>2020-05-20T18:01:33Z</time>
      </trkpt>
      <trkpt lat="47.12605" lon="-1.60829">
        <ele>10.82</ele>
        <time>2020-05-20T18:01:35Z</time>
      </trkpt>
      <trkpt lat="47.12618" lon="-1.60825">
        <ele>11.25</ele>
        <time>2020-05-20T18:01:37Z</time>
      </trkpt>
      <trkpt lat="47.12631" lon="-1.60821">
        <ele>11.98</ele>
        <time>2020-05-20T18:01:39Z</time>
      </trkpt>
      <trkpt lat="47.12643" lon="-1.60817">
        <ele>11.92</ele>
        <time>2020-05-20T18:01:41Z</time>
      </trkpt>
      <trkpt lat="47.12654" lon="-1.60814">
        <ele>11.99</ele>
        <time>2020-05-20T18:01:43Z</time>
      </trkpt>
      <trkpt lat="47.12666" lon="-1.60811">
        <ele>11.29</ele>
        <time>2020-05-20T18:01:45Z</time>
      </trkpt>
      <trkpt lat="47.12677" lon="-1.60807">
        <ele>10.65</ele>
        <time>2020-05-20T18:01:47Z</time>
      </trkpt>
      <trkpt lat="47.12689" lon="-1.60803">
        <ele>10.56</ele>
        <time>2020-05-20T18:01:49Z</time>
      </trkpt>
      <trkpt lat="47.127" lon="-1.60798">
        <ele>10.39</ele>
        <time>2020-05-20T18:01:51Z</time>
      </trkpt>
      <trkpt lat="47.12712" lon="-1.60792">
        <ele>10.25</ele>
        <time>2020-05-20T18:01:53Z</time>
      </trkpt>
      <trkpt lat="47.12724" lon="-1.6079">
        <ele>10.88</ele>
        <time>2020-05-20T18:01:55Z</time>
      </trkpt>
      <trkpt lat="47.12728" lon="-1.60804">
        <ele>11.79</ele>
        <time>2020-05-20T18:01:57Z</time>
      </trkpt>
      <trkpt lat="47.12724" lon="-1.60821">
        <ele>12.56</ele>
        <time>2020-05-20T18:01:59Z</time>
      </trkpt>
      <trkpt lat="47.12718" lon="-1.60842">
        <ele>12.53</ele>
        <time>2020-05-20T18:02:01Z</time>
      </trkpt>
      <trkpt lat="47.12712" lon="-1.60859">
        <ele>12.68</ele>
        <time>2020-05-20T18:02:03Z</time>
      </trkpt>
      <trkpt lat="47.12706" lon="-1.60875">
        <ele>12.24</ele>
        <time>2020-05-20T18:02:05Z</time>
      </trkpt>
      <trkpt lat="47.12701" lon="-1.60893">
        <ele>12.27</ele>
        <time>2020-05-20T18:02:07Z</time>
      </trkpt>
      <trkpt lat="47.12697" lon="-1.60909">
        <ele>12.12</ele>
        <time>2020-05-20T18:02:09Z</time>
      </trkpt>
      <trkpt lat="47.12693" lon="-1.60926">
        <ele>11.95</ele>
        <time>2020-05-20T18:02:11Z</time>
      </trkpt>
      <trkpt lat="47.12693" lon="-1.60942">
        <ele>12.45</ele>
        <time>2020-05-20T18:02:13Z</time>
      </trkpt>
      <trkpt lat="47.12693" lon="-1.60962">
        <ele>13.17</ele>
        <time>2020-05-20T18:02:15Z</time>
      </trkpt>
      <trkpt lat="47.12693" lon="-1.60982">
        <ele>14.19</ele>
        <time>2020-05-20T18:02:17Z</time>
      </trkpt>
      <trkpt lat="47.12692" lon="-1.61">
        <ele>13.34</ele>
        <time>2020-05-20T18:02:19Z</time>
      </trkpt>
      <trkpt lat="47.12691" lon="-1.61017">
        <ele>13.09</ele>
        <time>2020-05-20T18:02:21Z</time>
      </trkpt>
      <trkpt lat="47.1269" lon="-1.61035">
        <ele>12.79</ele>
        <time>2020-05-20T18:02:23Z</time>
      </trkpt>
      <trkpt lat="47.12689" lon="-1.61054">
        <ele>12.76</ele>
        <time>2020-05-20T18:02:25Z</time>
      </trkpt>
      <trkpt lat="47.12688" lon="-1.61073">
        <ele>12.27</ele>
        <time>2020-05-20T18:02:27Z</time>
      </trkpt>
      <trkpt lat="47.12687" lon="-1.6109">
        <ele>11.76</ele>
        <time>2020-05-20T18:02:29Z</time>
      </trkpt>
      <trkpt lat="47.12686" lon="-1.61107">
        <ele>11.62</ele>
        <time>2020-05-20T18:02:31Z</time>
      </trkpt>
      <trkpt lat="47.12684" lon="-1.61125">
        <ele>11.63</ele>
        <time>2020-05-20T18:02:33Z</time>
      </trkpt>
      <trkpt lat="47.12682" lon="-1.61143">
        <ele>11.26</ele>
        <time>2020-05-20T18:02:35Z</time>
      </trkpt>
      <trkpt lat="47.1268" lon="-1.61163">
        <ele>11.01</ele>
        <time>2020-05-20T18:02:37Z</time>
      </trkpt>
      <trkpt lat="47.12678" lon="-1.61182">
        <ele>10.54</ele>
        <time>2020-05-20T18:02:39Z</time>
      </trkpt>
      <trkpt lat="47.12675" lon="-1.612">
        <ele>11.56</ele>
        <time>2020-05-20T18:02:41Z</time>
      </trkpt>
      <trkpt lat="47.12672" lon="-1.61217">
        <ele>12.17</ele>
        <time>2020-05-20T18:02:43Z</time>
      </trkpt>
      <trkpt lat="47.12669" lon="-1.61235">
        <ele>12.14</ele>
        <time>2020-05-20T18:02:45Z</time>
      </trkpt>
      <trkpt lat="47.12667" lon="-1.61255">
        <ele>12.37</ele>
        <time>2020-05-20T18:02:47Z</time>
      </trkpt>
      <trkpt lat="47.12668" lon="-1.61273">
        <ele>12.06</ele>
        <time>2020-05-20T18:02:49Z</time>
      </trkpt>
      <trkpt lat="47.12673" lon="-1.6129">
        <ele>11.46</ele>
        <time>2020-05-20T18:02:51Z</time>
      </trkpt>
      <trkpt lat="47.12678" lon="-1.61309">
        <ele>11.25</ele>
        <time>2020-05-20T18:02:53Z</time>
      </trkpt>
      <trkpt lat="47.12684" lon="-1.61328">
        <ele>10.7</ele>
        <time>2020-05-20T18:02:55Z</time>
      </trkpt>
      <trkpt lat="47.12689" lon="-1.61345">
        <ele>10.33</ele>
        <time>2020-05-20T18:02:57Z</time>
      </trkpt>
      <trkpt lat="47.12695" lon="-1.61362">
        <ele>9.07</ele>
        <time>2020-05-20T18:02:59Z</time>
      </trkpt>
      <trkpt lat="47.12701" lon="-1.6138">
        <ele>8.21</ele>
        <time>2020-05-20T18:03:01Z</time>
      </trkpt>
      <trkpt lat="47.12707" lon="-1.61396">
        <ele>7.06</ele>
        <time>2020-05-20T18:03:03Z</time>
      </trkpt>
      <trkpt lat="47.12713" lon="-1.61411">
        <ele>6.33</ele>
        <time>2020-05-20T18:03:05Z</time>
      </trkpt>
      <trkpt lat="47.1272" lon="-1.61425">
        <ele>6.5</ele>
        <time>2020-05-20T18:03:07Z</time>
      </trkpt>
      <trkpt lat="47.12727" lon="-1.61439">
        <ele>8.58</ele>
        <time>2020-05-20T18:03:09Z</time>
      </trkpt>
      <trkpt lat="47.12734" lon="-1.61454">
        <ele>10.54</ele>
        <time>2020-05-20T18:03:11Z</time>
      </trkpt>
      <trkpt lat="47.12743" lon="-1.61471">
        <ele>11.6</ele>
        <time>2020-05-20T18:03:13Z</time>
      </trkpt>
      <trkpt lat="47.1275" lon="-1.61486">
        <ele>11.61</ele>
        <time>2020-05-20T18:03:15Z</time>
      </trkpt>
      <trkpt lat="47.12758" lon="-1.61501">
        <ele>11.17</ele>
        <time>2020-05-20T18:03:17Z</time>
      </trkpt>
      <trkpt lat="47.12765" lon="-1.61518">
        <ele>10.83</ele>
        <time>2020-05-20T18:03:19Z</time>
      </trkpt>
      <trkpt lat="47.12772" lon="-1.61534">
        <ele>10.25</ele>
        <time>2020-05-20T18:03:21Z</time>
      </trkpt>
      <trkpt lat="47.12779" lon="-1.6155">
        <ele>10.79</ele>
        <time>2020-05-20T18:03:23Z</time>
      </trkpt>
      <trkpt lat="47.12785" lon="-1.61566">
        <ele>10.43</ele>
        <time>2020-05-20T18:03:25Z</time>
      </trkpt>
      <trkpt lat="47.12792" lon="-1.61585">
        <ele>9.75</ele>
        <time>2020-05-20T18:03:27Z</time>
      </trkpt>
      <trkpt lat="47.12798" lon="-1.61605">
        <ele>9.47</ele>
        <time>2020-05-20T18:03:29Z</time>
      </trkpt>
      <trkpt lat="47.12804" lon="-1.61621">
        <ele>9.3</ele>
        <time>2020-05-20T18:03:31Z</time>
      </trkpt>
      <trkpt lat="47.12811" lon="-1.6164">
        <ele>9.32</ele>
        <time>2020-05-20T18:03:33Z</time>
      </trkpt>
      <trkpt lat="47.12815" lon="-1.61652">
        <ele>8.43</ele>
        <time>2020-05-20T18:03:35Z</time>
      </trkpt>
      <trkpt lat="47.12823" lon="-1.61664">
        <ele>8.1</ele>
        <time>2020-05-20T18:03:39Z</time>
      </trkpt>
      <trkpt lat="47.12829" lon="-1.61679">
        <ele>8.51</ele>
        <time>2020-05-20T18:03:42Z</time>
      </trkpt>
      <trkpt lat="47.12835" lon="-1.61694">
        <ele>8.95</ele>
        <time>2020-05-20T18:03:44Z</time>
      </trkpt>
      <trkpt lat="47.12841" lon="-1.61708">
        <ele>9.56</ele>
        <time>2020-05-20T18:03:46Z</time>
      </trkpt>
      <trkpt lat="47.1285" lon="-1.61726">
        <ele>10.55</ele>
        <time>2020-05-20T18:03:48Z</time>
      </trkpt>
      <trkpt lat="47.12858" lon="-1.61745">
        <ele>10.24</ele>
        <time>2020-05-20T18:03:50Z</time>
      </trkpt>
      <trkpt lat="47.12867" lon="-1.61763">
        <ele>9.35</ele>
        <time>2020-05-20T18:03:52Z</time>
      </trkpt>
      <trkpt lat="47.12875" lon="-1.61781">
        <ele>7.38</ele>
        <time>2020-05-20T18:03:54Z</time>
      </trkpt>
      <trkpt lat="47.12882" lon="-1.61798">
        <ele>5.9</ele>
        <time>2020-05-20T18:03:56Z</time>
      </trkpt>
      <trkpt lat="47.12889" lon="-1.61817">
        <ele>5.88</ele>
        <time>2020-05-20T18:03:58Z</time>
      </trkpt>
      <trkpt lat="47.12895" lon="-1.61836">
        <ele>4.61</ele>
        <time>2020-05-20T18:04:00Z</time>
      </trkpt>
      <trkpt lat="47.12902" lon="-1.61858">
        <ele>3.31</ele>
        <time>2020-05-20T18:04:02Z</time>
      </trkpt>
      <trkpt lat="47.12907" lon="-1.61878">
        <ele>2.4</ele>
        <time>2020-05-20T18:04:04Z</time>
      </trkpt>
      <trkpt lat="47.12911" lon="-1.61898">
        <ele>1.28</ele>
        <time>2020-05-20T18:04:06Z</time>
      </trkpt>
      <trkpt lat="47.12913" lon="-1.61917">
        <ele>0.89</ele>
        <time>2020-05-20T18:04:08Z</time>
      </trkpt>
      <trkpt lat="47.12915" lon="-1.61938">
        <ele>1.66</ele>
        <time>2020-05-20T18:04:10Z</time>
      </trkpt>
      <trkpt lat="47.12918" lon="-1.61956">
        <ele>2.89</ele>
        <time>2020-05-20T18:04:12Z</time>
      </trkpt>
      <trkpt lat="47.12923" lon="-1.61975">
        <ele>4.44</ele>
        <time>2020-05-20T18:04:14Z</time>
      </trkpt>
      <trkpt lat="47.12928" lon="-1.61993">
        <ele>4.69</ele>
        <time>2020-05-20T18:04:16Z</time>
      </trkpt>
      <trkpt lat="47.12932" lon="-1.62012">
        <ele>5.01</ele>
        <time>2020-05-20T18:04:18Z</time>
      </trkpt>
      <trkpt lat="47.12936" lon="-1.62031">
        <ele>5.78</ele>
        <time>2020-05-20T18:04:20Z</time>
      </trkpt>
      <trkpt lat="47.12942" lon="-1.6205">
        <ele>7.03</ele>
        <time>2020-05-20T18:04:22Z</time>
      </trkpt>
      <trkpt lat="47.12948" lon="-1.62067">
        <ele>7.5</ele>
        <time>2020-05-20T18:04:24Z</time>
      </trkpt>
      <trkpt lat="47.12955" lon="-1.62086">
        <ele>8.28</ele>
        <time>2020-05-20T18:04:26Z</time>
      </trkpt>
      <trkpt lat="47.12962" lon="-1.62101">
        <ele>7.2</ele>
        <time>2020-05-20T18:04:28Z</time>
      </trkpt>
      <trkpt lat="47.1297" lon="-1.62117">
        <ele>6.93</ele>
        <time>2020-05-20T18:04:30Z</time>
      </trkpt>
      <trkpt lat="47.12978" lon="-1.6213">
        <ele>7.8</ele>
        <time>2020-05-20T18:04:32Z</time>
      </trkpt>
      <trkpt lat="47.12984" lon="-1.62142">
        <ele>8.2</ele>
        <time>2020-05-20T18:04:34Z</time>
      </trkpt>
      <trkpt lat="47.12993" lon="-1.62157">
        <ele>8.44</ele>
        <time>2020-05-20T18:04:36Z</time>
      </trkpt>
      <trkpt lat="47.13001" lon="-1.6217">
        <ele>7.9</ele>
        <time>2020-05-20T18:04:38Z</time>
      </trkpt>
      <trkpt lat="47.1301" lon="-1.62184">
        <ele>6.99</ele>
        <time>2020-05-20T18:04:40Z</time>
      </trkpt>
      <trkpt lat="47.13018" lon="-1.62198">
        <ele>7.16</ele>
        <time>2020-05-20T18:04:42Z</time>
      </trkpt>
      <trkpt lat="47.13027" lon="-1.62211">
        <ele>5.84</ele>
        <time>2020-05-20T18:04:44Z</time>
      </trkpt>
      <trkpt lat="47.13035" lon="-1.62224">
        <ele>4.59</ele>
        <time>2020-05-20T18:04:46Z</time>
      </trkpt>
      <trkpt lat="47.13043" lon="-1.62237">
        <ele>4.09</ele>
        <time>2020-05-20T18:04:48Z</time>
      </trkpt>
      <trkpt lat="47.13052" lon="-1.62251">
        <ele>4.45</ele>
        <time>2020-05-20T18:04:50Z</time>
      </trkpt>
      <trkpt lat="47.13062" lon="-1.62265">
        <ele>4.98</ele>
        <time>2020-05-20T18:04:52Z</time>
      </trkpt>
      <trkpt lat="47.13071" lon="-1.62278">
        <ele>5.2</ele>
        <time>2020-05-20T18:04:54Z</time>
      </trkpt>
      <trkpt lat="47.13079" lon="-1.62289">
        <ele>6.45</ele>
        <time>2020-05-20T18:04:56Z</time>
      </trkpt>
      <trkpt lat="47.13087" lon="-1.62301">
        <ele>6.7</ele>
        <time>2020-05-20T18:04:58Z</time>
      </trkpt>
      <trkpt lat="47.13096" lon="-1.62312">
        <ele>6.92</ele>
        <time>2020-05-20T18:05:00Z</time>
      </trkpt>
      <trkpt lat="47.13106" lon="-1.62315">
        <ele>6.7</ele>
        <time>2020-05-20T18:05:02Z</time>
      </trkpt>
      <trkpt lat="47.13112" lon="-1.62299">
        <ele>5.7</ele>
        <time>2020-05-20T18:05:04Z</time>
      </trkpt>
      <trkpt lat="47.1312" lon="-1.62279">
        <ele>6.26</ele>
        <time>2020-05-20T18:05:06Z</time>
      </trkpt>
      <trkpt lat="47.13128" lon="-1.62261">
        <ele>7.09</ele>
        <time>2020-05-20T18:05:08Z</time>
      </trkpt>
      <trkpt lat="47.13135" lon="-1.62246">
        <ele>7.2</ele>
        <time>2020-05-20T18:05:10Z</time>
      </trkpt>
      <trkpt lat="47.13142" lon="-1.6223">
        <ele>7.3</ele>
        <time>2020-05-20T18:05:12Z</time>
      </trkpt>
      <trkpt lat="47.13149" lon="-1.62214">
        <ele>8.01</ele>
        <time>2020-05-20T18:05:14Z</time>
      </trkpt>
      <trkpt lat="47.13157" lon="-1.62198">
        <ele>8.79</ele>
        <time>2020-05-20T18:05:16Z</time>
      </trkpt>
      <trkpt lat="47.13164" lon="-1.62184">
        <ele>8.88</ele>
        <time>2020-05-20T18:05:18Z</time>
      </trkpt>
      <trkpt lat="47.13171" lon="-1.6217">
        <ele>8.93</ele>
        <time>2020-05-20T18:05:20Z</time>
      </trkpt>
      <trkpt lat="47.13178" lon="-1.62156">
        <ele>8.5</ele>
        <time>2020-05-20T18:05:22Z</time>
      </trkpt>
      <trkpt lat="47.13185" lon="-1.62142">
        <ele>8.42</ele>
        <time>2020-05-20T18:05:24Z</time>
      </trkpt>
      <trkpt lat="47.13193" lon="-1.62128">
        <ele>9.36</ele>
        <time>2020-05-20T18:05:26Z</time>
      </trkpt>
      <trkpt lat="47.13201" lon="-1.62115">
        <ele>9.57</ele>
        <time>2020-05-20T18:05:28Z</time>
      </trkpt>
      <trkpt lat="47.13209" lon="-1.62101">
        <ele>10.76</ele>
        <time>2020-05-20T18:05:30Z</time>
      </trkpt>
      <trkpt lat="47.13217" lon="-1.62088">
        <ele>11.28</ele>
        <time>2020-05-20T18:05:32Z</time>
      </trkpt>
      <trkpt lat="47.13226" lon="-1.62074">
        <ele>11.49</ele>
        <time>2020-05-20T18:05:34Z</time>
      </trkpt>
      <trkpt lat="47.13235" lon="-1.62062">
        <ele>10.95</ele>
        <time>2020-05-20T18:05:36Z</time>
      </trkpt>
      <trkpt lat="47.13243" lon="-1.62051">
        <ele>11.69</ele>
        <time>2020-05-20T18:05:38Z</time>
      </trkpt>
      <trkpt lat="47.13251" lon="-1.6204">
        <ele>11.92</ele>
        <time>2020-05-20T18:05:40Z</time>
      </trkpt>
      <trkpt lat="47.13262" lon="-1.62028">
        <ele>11.4</ele>
        <time>2020-05-20T18:05:42Z</time>
      </trkpt>
      <trkpt lat="47.13272" lon="-1.62015">
        <ele>11.35</ele>
        <time>2020-05-20T18:05:44Z</time>
      </trkpt>
      <trkpt lat="47.13282" lon="-1.62005">
        <ele>11.74</ele>
        <time>2020-05-20T18:05:46Z</time>
      </trkpt>
      <trkpt lat="47.13293" lon="-1.61996">
        <ele>11.64</ele>
        <time>2020-05-20T18:05:48Z</time>
      </trkpt>
      <trkpt lat="47.13305" lon="-1.61988">
        <ele>11.75</ele>
        <time>2020-05-20T18:05:50Z</time>
      </trkpt>
      <trkpt lat="47.13314" lon="-1.61982">
        <ele>11.17</ele>
        <time>2020-05-20T18:05:52Z</time>
      </trkpt>
      <trkpt lat="47.13323" lon="-1.61976">
        <ele>10.65</ele>
        <time>2020-05-20T18:05:54Z</time>
      </trkpt>
      <trkpt lat="47.13332" lon="-1.61968">
        <ele>11.57</ele>
        <time>2020-05-20T18:05:56Z</time>
      </trkpt>
      <trkpt lat="47.13342" lon="-1.6196">
        <ele>12.46</ele>
        <time>2020-05-20T18:05:58Z</time>
      </trkpt>
      <trkpt lat="47.13354" lon="-1.61951">
        <ele>12.13</ele>
        <time>2020-05-20T18:06:00Z</time>
      </trkpt>
      <trkpt lat="47.13365" lon="-1.61942">
        <ele>11.85</ele>
        <time>2020-05-20T18:06:02Z</time>
      </trkpt>
      <trkpt lat="47.13376" lon="-1.61933">
        <ele>12.04</ele>
        <time>2020-05-20T18:06:04Z</time>
      </trkpt>
      <trkpt lat="47.13389" lon="-1.61924">
        <ele>13.25</ele>
        <time>2020-05-20T18:06:06Z</time>
      </trkpt>
      <trkpt lat="47.134" lon="-1.61915">
        <ele>14.05</ele>
        <time>2020-05-20T18:06:08Z</time>
      </trkpt>
      <trkpt lat="47.13413" lon="-1.61905">
        <ele>15.32</ele>
        <time>2020-05-20T18:06:10Z</time>
      </trkpt>
      <trkpt lat="47.13426" lon="-1.61897">
        <ele>15.45</ele>
        <time>2020-05-20T18:06:12Z</time>
      </trkpt>
      <trkpt lat="47.13439" lon="-1.61888">
        <ele>15.16</ele>
        <time>2020-05-20T18:06:14Z</time>
      </trkpt>
      <trkpt lat="47.13449" lon="-1.61881">
        <ele>14.67</ele>
        <time>2020-05-20T18:06:16Z</time>
      </trkpt>
      <trkpt lat="47.1346" lon="-1.61873">
        <ele>13.98</ele>
        <time>2020-05-20T18:06:18Z</time>
      </trkpt>
      <trkpt lat="47.13472" lon="-1.61865">
        <ele>13.55</ele>
        <time>2020-05-20T18:06:20Z</time>
      </trkpt>
      <trkpt lat="47.13484" lon="-1.61857">
        <ele>13.06</ele>
        <time>2020-05-20T18:06:22Z</time>
      </trkpt>
      <trkpt lat="47.13497" lon="-1.61848">
        <ele>13.71</ele>
        <time>2020-05-20T18:06:24Z</time>
      </trkpt>
      <trkpt lat="47.1351" lon="-1.61841">
        <ele>13.4</ele>
        <time>2020-05-20T18:06:26Z</time>
      </trkpt>
      <trkpt lat="47.13523" lon="-1.61834">
        <ele>13.08</ele>
        <time>2020-05-20T18:06:28Z</time>
      </trkpt>
      <trkpt lat="47.13535" lon="-1.61828">
        <ele>13.36</ele>
        <time>2020-05-20T18:06:30Z</time>
      </trkpt>
      <trkpt lat="47.13548" lon="-1.61822">
        <ele>14.25</ele>
        <time>2020-05-20T18:06:32Z</time>
      </trkpt>
      <trkpt lat="47.13561" lon="-1.61817">
        <ele>14.03</ele>
        <time>2020-05-20T18:06:34Z</time>
      </trkpt>
      <trkpt lat="47.13572" lon="-1.61812">
        <ele>13.1</ele>
        <time>2020-05-20T18:06:36Z</time>
      </trkpt>
      <trkpt lat="47.13584" lon="-1.61806">
        <ele>13.23</ele>
        <time>2020-05-20T18:06:38Z</time>
      </trkpt>
      <trkpt lat="47.13598" lon="-1.61801">
        <ele>14.02</ele>
        <time>2020-05-20T18:06:40Z</time>
      </trkpt>
      <trkpt lat="47.13613" lon="-1.61795">
        <ele>14.87</ele>
        <time>2020-05-20T18:06:42Z</time>
      </trkpt>
      <trkpt lat="47.13627" lon="-1.6179">
        <ele>14.63</ele>
        <time>2020-05-20T18:06:44Z</time>
      </trkpt>
      <trkpt lat="47.13639" lon="-1.61786">
        <ele>14.33</ele>
        <time>2020-05-20T18:06:46Z</time>
      </trkpt>
      <trkpt lat="47.13652" lon="-1.61781">
        <ele>13.95</ele>
        <time>2020-05-20T18:06:48Z</time>
      </trkpt>
      <trkpt lat="47.13665" lon="-1.61775">
        <ele>13.25</ele>
        <time>2020-05-20T18:06:50Z</time>
      </trkpt>
      <trkpt lat="47.13675" lon="-1.61769">
        <ele>13.43</ele>
        <time>2020-05-20T18:06:52Z</time>
      </trkpt>
      <trkpt lat="47.13687" lon="-1.61762">
        <ele>13.43</ele>
        <time>2020-05-20T18:06:54Z</time>
      </trkpt>
      <trkpt lat="47.13699" lon="-1.61754">
        <ele>13.18</ele>
        <time>2020-05-20T18:06:56Z</time>
      </trkpt>
      <trkpt lat="47.13709" lon="-1.61746">
        <ele>12.05</ele>
        <time>2020-05-20T18:06:58Z</time>
      </trkpt>
      <trkpt lat="47.13719" lon="-1.61737">
        <ele>11.94</ele>
        <time>2020-05-20T18:07:00Z</time>
      </trkpt>
      <trkpt lat="47.13728" lon="-1.61729">
        <ele>12.18</ele>
        <time>2020-05-20T18:07:02Z</time>
      </trkpt>
      <trkpt lat="47.13738" lon="-1.61722">
        <ele>12.62</ele>
        <time>2020-05-20T18:07:04Z</time>
      </trkpt>
      <trkpt lat="47.13745" lon="-1.61733">
        <ele>13.59</ele>
        <time>2020-05-20T18:07:06Z</time>
      </trkpt>
      <trkpt lat="47.13742" lon="-1.61749">
        <ele>14.48</ele>
        <time>2020-05-20T18:07:08Z</time>
      </trkpt>
      <trkpt lat="47.13739" lon="-1.61769">
        <ele>16.25</ele>
        <time>2020-05-20T18:07:10Z</time>
      </trkpt>
      <trkpt lat="47.13735" lon="-1.61789">
        <ele>17.14</ele>
        <time>2020-05-20T18:07:12Z</time>
      </trkpt>
      <trkpt lat="47.1373" lon="-1.6181">
        <ele>17.22</ele>
        <time>2020-05-20T18:07:14Z</time>
      </trkpt>
      <trkpt lat="47.13727" lon="-1.61828">
        <ele>16.56</ele>
        <time>2020-05-20T18:07:16Z</time>
      </trkpt>
      <trkpt lat="47.13724" lon="-1.61847">
        <ele>16.46</ele>
        <time>2020-05-20T18:07:18Z</time>
      </trkpt>
      <trkpt lat="47.13723" lon="-1.61865">
        <ele>16.95</ele>
        <time>2020-05-20T18:07:20Z</time>
      </trkpt>
      <trkpt lat="47.13722" lon="-1.61883">
        <ele>17.47</ele>
        <time>2020-05-20T18:07:22Z</time>
      </trkpt>
      <trkpt lat="47.13721" lon="-1.61903">
        <ele>17.57</ele>
        <time>2020-05-20T18:07:24Z</time>
      </trkpt>
      <trkpt lat="47.1372" lon="-1.61921">
        <ele>17.51</ele>
        <time>2020-05-20T18:07:26Z</time>
      </trkpt>
      <trkpt lat="47.1372" lon="-1.61939">
        <ele>16.95</ele>
        <time>2020-05-20T18:07:28Z</time>
      </trkpt>
      <trkpt lat="47.1372" lon="-1.61959">
        <ele>16.27</ele>
        <time>2020-05-20T18:07:30Z</time>
      </trkpt>
      <trkpt lat="47.13722" lon="-1.61978">
        <ele>15.67</ele>
        <time>2020-05-20T18:07:32Z</time>
      </trkpt>
      <trkpt lat="47.13725" lon="-1.61998">
        <ele>14.25</ele>
        <time>2020-05-20T18:07:34Z</time>
      </trkpt>
      <trkpt lat="47.13728" lon="-1.62014">
        <ele>12.51</ele>
        <time>2020-05-20T18:07:36Z</time>
      </trkpt>
      <trkpt lat="47.13731" lon="-1.6203">
        <ele>12.78</ele>
        <time>2020-05-20T18:07:38Z</time>
      </trkpt>
      <trkpt lat="47.13734" lon="-1.62047">
        <ele>12.83</ele>
        <time>2020-05-20T18:07:40Z</time>
      </trkpt>
      <trkpt lat="47.13736" lon="-1.62065">
        <ele>12.97</ele>
        <time>2020-05-20T18:07:42Z</time>
      </trkpt>
      <trkpt lat="47.13739" lon="-1.62083">
        <ele>13.06</ele>
        <time>2020-05-20T18:07:44Z</time>
      </trkpt>
      <trkpt lat="47.13741" lon="-1.62096">
        <ele>12.96</ele>
        <time>2020-05-20T18:07:46Z</time>
      </trkpt>
      <trkpt lat="47.13744" lon="-1.62112">
        <ele>12.51</ele>
        <time>2020-05-20T18:07:48Z</time>
      </trkpt>
      <trkpt lat="47.13746" lon="-1.62128">
        <ele>12.68</ele>
        <time>2020-05-20T18:07:50Z</time>
      </trkpt>
      <trkpt lat="47.13749" lon="-1.62148">
        <ele>12.91</ele>
        <time>2020-05-20T18:07:52Z</time>
      </trkpt>
      <trkpt lat="47.13751" lon="-1.6217">
        <ele>13.71</ele>
        <time>2020-05-20T18:07:54Z</time>
      </trkpt>
      <trkpt lat="47.13753" lon="-1.6219">
        <ele>13.81</ele>
        <time>2020-05-20T18:07:56Z</time>
      </trkpt>
      <trkpt lat="47.13755" lon="-1.62208">
        <ele>15.05</ele>
        <time>2020-05-20T18:07:58Z</time>
      </trkpt>
      <trkpt lat="47.13757" lon="-1.62226">
        <ele>16</ele>
        <time>2020-05-20T18:08:00Z</time>
      </trkpt>
      <trkpt lat="47.13758" lon="-1.62242">
        <ele>16.8</ele>
        <time>2020-05-20T18:08:02Z</time>
      </trkpt>
      <trkpt lat="47.13761" lon="-1.62259">
        <ele>18.19</ele>
        <time>2020-05-20T18:08:04Z</time>
      </trkpt>
      <trkpt lat="47.13763" lon="-1.62278">
        <ele>18.62</ele>
        <time>2020-05-20T18:08:06Z</time>
      </trkpt>
      <trkpt lat="47.13765" lon="-1.62297">
        <ele>18.8</ele>
        <time>2020-05-20T18:08:08Z</time>
      </trkpt>
      <trkpt lat="47.13766" lon="-1.62316">
        <ele>18.48</ele>
        <time>2020-05-20T18:08:10Z</time>
      </trkpt>
      <trkpt lat="47.13766" lon="-1.62335">
        <ele>18.21</ele>
        <time>2020-05-20T18:08:12Z</time>
      </trkpt>
      <trkpt lat="47.13765" lon="-1.62355">
        <ele>18.12</ele>
        <time>2020-05-20T18:08:14Z</time>
      </trkpt>
      <trkpt lat="47.13765" lon="-1.62374">
        <ele>18.01</ele>
        <time>2020-05-20T18:08:16Z</time>
      </trkpt>
      <trkpt lat="47.13763" lon="-1.62395">
        <ele>17.05</ele>
        <time>2020-05-20T18:08:18Z</time>
      </trkpt>
      <trkpt lat="47.13763" lon="-1.62418">
        <ele>16.92</ele>
        <time>2020-05-20T18:08:20Z</time>
      </trkpt>
      <trkpt lat="47.13764" lon="-1.62438">
        <ele>17.37</ele>
        <time>2020-05-20T18:08:22Z</time>
      </trkpt>
      <trkpt lat="47.13765" lon="-1.6246">
        <ele>16.43</ele>
        <time>2020-05-20T18:08:24Z</time>
      </trkpt>
      <trkpt lat="47.13767" lon="-1.62481">
        <ele>14.32</ele>
        <time>2020-05-20T18:08:26Z</time>
      </trkpt>
      <trkpt lat="47.13769" lon="-1.62502">
        <ele>13.48</ele>
        <time>2020-05-20T18:08:28Z</time>
      </trkpt>
      <trkpt lat="47.13771" lon="-1.62522">
        <ele>13.07</ele>
        <time>2020-05-20T18:08:30Z</time>
      </trkpt>
      <trkpt lat="47.13773" lon="-1.6254">
        <ele>13.35</ele>
        <time>2020-05-20T18:08:32Z</time>
      </trkpt>
      <trkpt lat="47.13774" lon="-1.6256">
        <ele>13.4</ele>
        <time>2020-05-20T18:08:34Z</time>
      </trkpt>
      <trkpt lat="47.13776" lon="-1.62581">
        <ele>13.98</ele>
        <time>2020-05-20T18:08:36Z</time>
      </trkpt>
      <trkpt lat="47.13777" lon="-1.62599">
        <ele>14.03</ele>
        <time>2020-05-20T18:08:38Z</time>
      </trkpt>
      <trkpt lat="47.13779" lon="-1.62615">
        <ele>15.1</ele>
        <time>2020-05-20T18:08:40Z</time>
      </trkpt>
      <trkpt lat="47.13781" lon="-1.62631">
        <ele>17.19</ele>
        <time>2020-05-20T18:08:42Z</time>
      </trkpt>
      <trkpt lat="47.13783" lon="-1.62649">
        <ele>18.5</ele>
        <time>2020-05-20T18:08:44Z</time>
      </trkpt>
      <trkpt lat="47.13784" lon="-1.62668">
        <ele>18.78</ele>
        <time>2020-05-20T18:08:46Z</time>
      </trkpt>
      <trkpt lat="47.13784" lon="-1.62687">
        <ele>17.95</ele>
        <time>2020-05-20T18:08:48Z</time>
      </trkpt>
      <trkpt lat="47.13784" lon="-1.62707">
        <ele>17.02</ele>
        <time>2020-05-20T18:08:50Z</time>
      </trkpt>
      <trkpt lat="47.13783" lon="-1.62724">
        <ele>17.14</ele>
        <time>2020-05-20T18:08:52Z</time>
      </trkpt>
      <trkpt lat="47.13783" lon="-1.62745">
        <ele>17.19</ele>
        <time>2020-05-20T18:08:54Z</time>
      </trkpt>
      <trkpt lat="47.13783" lon="-1.6276">
        <ele>17.13</ele>
        <time>2020-05-20T18:08:56Z</time>
      </trkpt>
      <trkpt lat="47.13785" lon="-1.62778">
        <ele>16.87</ele>
        <time>2020-05-20T18:08:58Z</time>
      </trkpt>
      <trkpt lat="47.13788" lon="-1.62795">
        <ele>17.44</ele>
        <time>2020-05-20T18:09:00Z</time>
      </trkpt>
      <trkpt lat="47.13793" lon="-1.62809">
        <ele>17.89</ele>
        <time>2020-05-20T18:09:02Z</time>
      </trkpt>
      <trkpt lat="47.13799" lon="-1.62825">
        <ele>17.49</ele>
        <time>2020-05-20T18:09:04Z</time>
      </trkpt>
      <trkpt lat="47.13805" lon="-1.62841">
        <ele>17.05</ele>
        <time>2020-05-20T18:09:06Z</time>
      </trkpt>
      <trkpt lat="47.13811" lon="-1.62856">
        <ele>15.69</ele>
        <time>2020-05-20T18:09:08Z</time>
      </trkpt>
      <trkpt lat="47.13817" lon="-1.62872">
        <ele>14.55</ele>
        <time>2020-05-20T18:09:10Z</time>
      </trkpt>
      <trkpt lat="47.13822" lon="-1.62887">
        <ele>13.94</ele>
        <time>2020-05-20T18:09:12Z</time>
      </trkpt>
      <trkpt lat="47.13826" lon="-1.62902">
        <ele>13.75</ele>
        <time>2020-05-20T18:09:14Z</time>
      </trkpt>
      <trkpt lat="47.13827" lon="-1.6292">
        <ele>14.8</ele>
        <time>2020-05-20T18:09:16Z</time>
      </trkpt>
      <trkpt lat="47.13825" lon="-1.6294">
        <ele>14.97</ele>
        <time>2020-05-20T18:09:18Z</time>
      </trkpt>
      <trkpt lat="47.13822" lon="-1.62958">
        <ele>15.01</ele>
        <time>2020-05-20T18:09:20Z</time>
      </trkpt>
      <trkpt lat="47.1382" lon="-1.62976">
        <ele>15.05</ele>
        <time>2020-05-20T18:09:22Z</time>
      </trkpt>
      <trkpt lat="47.13817" lon="-1.62992">
        <ele>14.39</ele>
        <time>2020-05-20T18:09:24Z</time>
      </trkpt>
      <trkpt lat="47.13816" lon="-1.63013">
        <ele>14.31</ele>
        <time>2020-05-20T18:09:26Z</time>
      </trkpt>
      <trkpt lat="47.13816" lon="-1.63031">
        <ele>13.77</ele>
        <time>2020-05-20T18:09:28Z</time>
      </trkpt>
      <trkpt lat="47.13818" lon="-1.6305">
        <ele>12.77</ele>
        <time>2020-05-20T18:09:31Z</time>
      </trkpt>
      <trkpt lat="47.13826" lon="-1.63064">
        <ele>12.14</ele>
        <time>2020-05-20T18:09:33Z</time>
      </trkpt>
      <trkpt lat="47.13839" lon="-1.63063">
        <ele>11.04</ele>
        <time>2020-05-20T18:09:35Z</time>
      </trkpt>
      <trkpt lat="47.13851" lon="-1.63061">
        <ele>10.48</ele>
        <time>2020-05-20T18:09:37Z</time>
      </trkpt>
      <trkpt lat="47.13864" lon="-1.6306">
        <ele>9.63</ele>
        <time>2020-05-20T18:09:39Z</time>
      </trkpt>
      <trkpt lat="47.13877" lon="-1.63058">
        <ele>8.75</ele>
        <time>2020-05-20T18:09:41Z</time>
      </trkpt>
      <trkpt lat="47.1389" lon="-1.63056">
        <ele>7.91</ele>
        <time>2020-05-20T18:09:43Z</time>
      </trkpt>
      <trkpt lat="47.13902" lon="-1.63053">
        <ele>7.76</ele>
        <time>2020-05-20T18:09:45Z</time>
      </trkpt>
      <trkpt lat="47.13914" lon="-1.6305">
        <ele>8.04</ele>
        <time>2020-05-20T18:09:47Z</time>
      </trkpt>
      <trkpt lat="47.13928" lon="-1.63045">
        <ele>7.95</ele>
        <time>2020-05-20T18:09:49Z</time>
      </trkpt>
      <trkpt lat="47.1394" lon="-1.63039">
        <ele>8.35</ele>
        <time>2020-05-20T18:09:51Z</time>
      </trkpt>
      <trkpt lat="47.13954" lon="-1.63032">
        <ele>9.49</ele>
        <time>2020-05-20T18:09:53Z</time>
      </trkpt>
      <trkpt lat="47.13966" lon="-1.63025">
        <ele>11.27</ele>
        <time>2020-05-20T18:09:55Z</time>
      </trkpt>
      <trkpt lat="47.13977" lon="-1.63017">
        <ele>12.02</ele>
        <time>2020-05-20T18:09:57Z</time>
      </trkpt>
      <trkpt lat="47.13986" lon="-1.63011">
        <ele>12.11</ele>
        <time>2020-05-20T18:09:59Z</time>
      </trkpt>
      <trkpt lat="47.14" lon="-1.63002">
        <ele>11.55</ele>
        <time>2020-05-20T18:10:01Z</time>
      </trkpt>
      <trkpt lat="47.14013" lon="-1.62995">
        <ele>10.93</ele>
        <time>2020-05-20T18:10:03Z</time>
      </trkpt>
      <trkpt lat="47.14025" lon="-1.6299">
        <ele>11.27</ele>
        <time>2020-05-20T18:10:05Z</time>
      </trkpt>
      <trkpt lat="47.14038" lon="-1.62984">
        <ele>12.12</ele>
        <time>2020-05-20T18:10:07Z</time>
      </trkpt>
      <trkpt lat="47.14051" lon="-1.62981">
        <ele>13.5</ele>
        <time>2020-05-20T18:10:09Z</time>
      </trkpt>
      <trkpt lat="47.14062" lon="-1.62979">
        <ele>15.26</ele>
        <time>2020-05-20T18:10:11Z</time>
      </trkpt>
      <trkpt lat="47.14075" lon="-1.62977">
        <ele>16.17</ele>
        <time>2020-05-20T18:10:13Z</time>
      </trkpt>
      <trkpt lat="47.14089" lon="-1.62976">
        <ele>16.43</ele>
        <time>2020-05-20T18:10:15Z</time>
      </trkpt>
      <trkpt lat="47.14102" lon="-1.62977">
        <ele>17.52</ele>
        <time>2020-05-20T18:10:17Z</time>
      </trkpt>
      <trkpt lat="47.14115" lon="-1.6298">
        <ele>18.23</ele>
        <time>2020-05-20T18:10:19Z</time>
      </trkpt>
      <trkpt lat="47.14127" lon="-1.62983">
        <ele>17.77</ele>
        <time>2020-05-20T18:10:21Z</time>
      </trkpt>
      <trkpt lat="47.14139" lon="-1.62988">
        <ele>17.58</ele>
        <time>2020-05-20T18:10:23Z</time>
      </trkpt>
      <trkpt lat="47.14152" lon="-1.62993">
        <ele>17.55</ele>
        <time>2020-05-20T18:10:25Z</time>
      </trkpt>
      <trkpt lat="47.14164" lon="-1.62998">
        <ele>17.64</ele>
        <time>2020-05-20T18:10:27Z</time>
      </trkpt>
      <trkpt lat="47.14175" lon="-1.63003">
        <ele>18.56</ele>
        <time>2020-05-20T18:10:29Z</time>
      </trkpt>
      <trkpt lat="47.14186" lon="-1.63009">
        <ele>20.03</ele>
        <time>2020-05-20T18:10:31Z</time>
      </trkpt>
      <trkpt lat="47.14197" lon="-1.63015">
        <ele>21.18</ele>
        <time>2020-05-20T18:10:33Z</time>
      </trkpt>
      <trkpt lat="47.1421" lon="-1.63023">
        <ele>21.81</ele>
        <time>2020-05-20T18:10:35Z</time>
      </trkpt>
      <trkpt lat="47.14222" lon="-1.6303">
        <ele>21.3</ele>
        <time>2020-05-20T18:10:37Z</time>
      </trkpt>
      <trkpt lat="47.14233" lon="-1.63036">
        <ele>20.69</ele>
        <time>2020-05-20T18:10:39Z</time>
      </trkpt>
      <trkpt lat="47.14245" lon="-1.63042">
        <ele>20.38</ele>
        <time>2020-05-20T18:10:41Z</time>
      </trkpt>
      <trkpt lat="47.14256" lon="-1.63048">
        <ele>21.16</ele>
        <time>2020-05-20T18:10:43Z</time>
      </trkpt>
      <trkpt lat="47.14268" lon="-1.63054">
        <ele>22.81</ele>
        <time>2020-05-20T18:10:45Z</time>
      </trkpt>
      <trkpt lat="47.1428" lon="-1.6306">
        <ele>23.33</ele>
        <time>2020-05-20T18:10:47Z</time>
      </trkpt>
      <trkpt lat="47.14291" lon="-1.63066">
        <ele>23.12</ele>
        <time>2020-05-20T18:10:49Z</time>
      </trkpt>
      <trkpt lat="47.14304" lon="-1.63073">
        <ele>22.14</ele>
        <time>2020-05-20T18:10:51Z</time>
      </trkpt>
      <trkpt lat="47.14316" lon="-1.63079">
        <ele>21.02</ele>
        <time>2020-05-20T18:10:53Z</time>
      </trkpt>
      <trkpt lat="47.14327" lon="-1.63085">
        <ele>21.05</ele>
        <time>2020-05-20T18:10:55Z</time>
      </trkpt>
      <trkpt lat="47.14339" lon="-1.63092">
        <ele>20.93</ele>
        <time>2020-05-20T18:10:57Z</time>
      </trkpt>
      <trkpt lat="47.1435" lon="-1.63098">
        <ele>21.14</ele>
        <time>2020-05-20T18:10:59Z</time>
      </trkpt>
      <trkpt lat="47.14361" lon="-1.63104">
        <ele>20.93</ele>
        <time>2020-05-20T18:11:01Z</time>
      </trkpt>
      <trkpt lat="47.14374" lon="-1.63112">
        <ele>19.91</ele>
        <time>2020-05-20T18:11:03Z</time>
      </trkpt>
      <trkpt lat="47.14387" lon="-1.6312">
        <ele>19.76</ele>
        <time>2020-05-20T18:11:05Z</time>
      </trkpt>
      <trkpt lat="47.14399" lon="-1.63126">
        <ele>19.91</ele>
        <time>2020-05-20T18:11:07Z</time>
      </trkpt>
      <trkpt lat="47.1441" lon="-1.63131">
        <ele>19.12</ele>
        <time>2020-05-20T18:11:09Z</time>
      </trkpt>
      <trkpt lat="47.14422" lon="-1.63138">
        <ele>18.36</ele>
        <time>2020-05-20T18:11:11Z</time>
      </trkpt>
      <trkpt lat="47.14433" lon="-1.63143">
        <ele>17.81</ele>
        <time>2020-05-20T18:11:13Z</time>
      </trkpt>
      <trkpt lat="47.14445" lon="-1.63149">
        <ele>16.73</ele>
        <time>2020-05-20T18:11:15Z</time>
      </trkpt>
      <trkpt lat="47.14457" lon="-1.63152">
        <ele>15.8</ele>
        <time>2020-05-20T18:11:17Z</time>
      </trkpt>
      <trkpt lat="47.14469" lon="-1.63151">
        <ele>15.76</ele>
        <time>2020-05-20T18:11:19Z</time>
      </trkpt>
      <trkpt lat="47.14481" lon="-1.6315">
        <ele>15.86</ele>
        <time>2020-05-20T18:11:21Z</time>
      </trkpt>
      <trkpt lat="47.14492" lon="-1.6315">
        <ele>16.19</ele>
        <time>2020-05-20T18:11:23Z</time>
      </trkpt>
      <trkpt lat="47.14505" lon="-1.6315">
        <ele>17.1</ele>
        <time>2020-05-20T18:11:25Z</time>
      </trkpt>
      <trkpt lat="47.14517" lon="-1.63151">
        <ele>17.58</ele>
        <time>2020-05-20T18:11:27Z</time>
      </trkpt>
      <trkpt lat="47.14529" lon="-1.63151">
        <ele>17.59</ele>
        <time>2020-05-20T18:11:29Z</time>
      </trkpt>
      <trkpt lat="47.14541" lon="-1.63151">
        <ele>18.71</ele>
        <time>2020-05-20T18:11:31Z</time>
      </trkpt>
      <trkpt lat="47.14553" lon="-1.6315">
        <ele>19.13</ele>
        <time>2020-05-20T18:11:33Z</time>
      </trkpt>
      <trkpt lat="47.14565" lon="-1.63147">
        <ele>19.49</ele>
        <time>2020-05-20T18:11:35Z</time>
      </trkpt>
      <trkpt lat="47.14578" lon="-1.63142">
        <ele>19.97</ele>
        <time>2020-05-20T18:11:37Z</time>
      </trkpt>
      <trkpt lat="47.14588" lon="-1.63136">
        <ele>20.97</ele>
        <time>2020-05-20T18:11:39Z</time>
      </trkpt>
      <trkpt lat="47.14599" lon="-1.63128">
        <ele>21.73</ele>
        <time>2020-05-20T18:11:41Z</time>
      </trkpt>
      <trkpt lat="47.1461" lon="-1.63121">
        <ele>22.21</ele>
        <time>2020-05-20T18:11:43Z</time>
      </trkpt>
      <trkpt lat="47.14621" lon="-1.63113">
        <ele>21.48</ele>
        <time>2020-05-20T18:11:45Z</time>
      </trkpt>
      <trkpt lat="47.14632" lon="-1.63105">
        <ele>20.13</ele>
        <time>2020-05-20T18:11:47Z</time>
      </trkpt>
      <trkpt lat="47.14642" lon="-1.63098">
        <ele>18.99</ele>
        <time>2020-05-20T18:11:49Z</time>
      </trkpt>
      <trkpt lat="47.14654" lon="-1.6309">
        <ele>19.74</ele>
        <time>2020-05-20T18:11:51Z</time>
      </trkpt>
      <trkpt lat="47.14667" lon="-1.63084">
        <ele>19.41</ele>
        <time>2020-05-20T18:11:53Z</time>
      </trkpt>
      <trkpt lat="47.14679" lon="-1.63078">
        <ele>19.47</ele>
        <time>2020-05-20T18:11:55Z</time>
      </trkpt>
      <trkpt lat="47.14691" lon="-1.63074">
        <ele>20.43</ele>
        <time>2020-05-20T18:11:57Z</time>
      </trkpt>
      <trkpt lat="47.14703" lon="-1.63071">
        <ele>21.42</ele>
        <time>2020-05-20T18:11:59Z</time>
      </trkpt>
      <trkpt lat="47.14714" lon="-1.6307">
        <ele>21.7</ele>
        <time>2020-05-20T18:12:01Z</time>
      </trkpt>
      <trkpt lat="47.14727" lon="-1.63068">
        <ele>21.79</ele>
        <time>2020-05-20T18:12:03Z</time>
      </trkpt>
      <trkpt lat="47.1474" lon="-1.63068">
        <ele>22.27</ele>
        <time>2020-05-20T18:12:05Z</time>
      </trkpt>
      <trkpt lat="47.14753" lon="-1.63068">
        <ele>22.86</ele>
        <time>2020-05-20T18:12:07Z</time>
      </trkpt>
      <trkpt lat="47.14766" lon="-1.63067">
        <ele>23.43</ele>
        <time>2020-05-20T18:12:09Z</time>
      </trkpt>
      <trkpt lat="47.14778" lon="-1.63066">
        <ele>22.84</ele>
        <time>2020-05-20T18:12:11Z</time>
      </trkpt>
      <trkpt lat="47.1479" lon="-1.63066">
        <ele>22.09</ele>
        <time>2020-05-20T18:12:13Z</time>
      </trkpt>
      <trkpt lat="47.14802" lon="-1.63066">
        <ele>21.65</ele>
        <time>2020-05-20T18:12:15Z</time>
      </trkpt>
      <trkpt lat="47.14813" lon="-1.63066">
        <ele>21.87</ele>
        <time>2020-05-20T18:12:17Z</time>
      </trkpt>
      <trkpt lat="47.14824" lon="-1.63065">
        <ele>23.19</ele>
        <time>2020-05-20T18:12:19Z</time>
      </trkpt>
      <trkpt lat="47.14839" lon="-1.63064">
        <ele>24.48</ele>
        <time>2020-05-20T18:12:21Z</time>
      </trkpt>
      <trkpt lat="47.1485" lon="-1.63064">
        <ele>25.04</ele>
        <time>2020-05-20T18:12:23Z</time>
      </trkpt>
      <trkpt lat="47.14862" lon="-1.63064">
        <ele>24.85</ele>
        <time>2020-05-20T18:12:25Z</time>
      </trkpt>
      <trkpt lat="47.14873" lon="-1.63064">
        <ele>23.94</ele>
        <time>2020-05-20T18:12:27Z</time>
      </trkpt>
      <trkpt lat="47.14885" lon="-1.63065">
        <ele>24.75</ele>
        <time>2020-05-20T18:12:29Z</time>
      </trkpt>
      <trkpt lat="47.14887" lon="-1.63083">
        <ele>25.75</ele>
        <time>2020-05-20T18:12:32Z</time>
      </trkpt>
      <trkpt lat="47.14886" lon="-1.63103">
        <ele>25.08</ele>
        <time>2020-05-20T18:12:34Z</time>
      </trkpt>
      <trkpt lat="47.14884" lon="-1.63126">
        <ele>24.24</ele>
        <time>2020-05-20T18:12:36Z</time>
      </trkpt>
      <trkpt lat="47.1488" lon="-1.63149">
        <ele>24.39</ele>
        <time>2020-05-20T18:12:38Z</time>
      </trkpt>
      <trkpt lat="47.14877" lon="-1.6317">
        <ele>24.63</ele>
        <time>2020-05-20T18:12:40Z</time>
      </trkpt>
      <trkpt lat="47.14875" lon="-1.6319">
        <ele>24.9</ele>
        <time>2020-05-20T18:12:42Z</time>
      </trkpt>
      <trkpt lat="47.14873" lon="-1.63215">
        <ele>25.22</ele>
        <time>2020-05-20T18:12:44Z</time>
      </trkpt>
      <trkpt lat="47.14873" lon="-1.63235">
        <ele>26.31</ele>
        <time>2020-05-20T18:12:46Z</time>
      </trkpt>
      <trkpt lat="47.14873" lon="-1.63254">
        <ele>26.8</ele>
        <time>2020-05-20T18:12:48Z</time>
      </trkpt>
      <trkpt lat="47.14873" lon="-1.63274">
        <ele>27.23</ele>
        <time>2020-05-20T18:12:50Z</time>
      </trkpt>
      <trkpt lat="47.14873" lon="-1.63296">
        <ele>27.26</ele>
        <time>2020-05-20T18:12:52Z</time>
      </trkpt>
      <trkpt lat="47.14873" lon="-1.63314">
        <ele>26.57</ele>
        <time>2020-05-20T18:12:54Z</time>
      </trkpt>
      <trkpt lat="47.14873" lon="-1.63334">
        <ele>25.55</ele>
        <time>2020-05-20T18:12:56Z</time>
      </trkpt>
      <trkpt lat="47.14873" lon="-1.63354">
        <ele>24.98</ele>
        <time>2020-05-20T18:12:58Z</time>
      </trkpt>
      <trkpt lat="47.14872" lon="-1.63374">
        <ele>24.35</ele>
        <time>2020-05-20T18:13:00Z</time>
      </trkpt>
      <trkpt lat="47.14872" lon="-1.63394">
        <ele>23.67</ele>
        <time>2020-05-20T18:13:02Z</time>
      </trkpt>
      <trkpt lat="47.14872" lon="-1.63416">
        <ele>23.49</ele>
        <time>2020-05-20T18:13:04Z</time>
      </trkpt>
      <trkpt lat="47.14872" lon="-1.63434">
        <ele>23.18</ele>
        <time>2020-05-20T18:13:06Z</time>
      </trkpt>
      <trkpt lat="47.14872" lon="-1.63452">
        <ele>23.08</ele>
        <time>2020-05-20T18:13:08Z</time>
      </trkpt>
      <trkpt lat="47.14872" lon="-1.63474">
        <ele>21.68</ele>
        <time>2020-05-20T18:13:10Z</time>
      </trkpt>
      <trkpt lat="47.14872" lon="-1.63493">
        <ele>21.21</ele>
        <time>2020-05-20T18:13:12Z</time>
      </trkpt>
      <trkpt lat="47.14872" lon="-1.63513">
        <ele>22.09</ele>
        <time>2020-05-20T18:13:14Z</time>
      </trkpt>
      <trkpt lat="47.14872" lon="-1.63531">
        <ele>22.68</ele>
        <time>2020-05-20T18:13:16Z</time>
      </trkpt>
      <trkpt lat="47.14872" lon="-1.63551">
        <ele>22.58</ele>
        <time>2020-05-20T18:13:18Z</time>
      </trkpt>
      <trkpt lat="47.14872" lon="-1.6357">
        <ele>22.38</ele>
        <time>2020-05-20T18:13:20Z</time>
      </trkpt>
      <trkpt lat="47.14872" lon="-1.63589">
        <ele>22.93</ele>
        <time>2020-05-20T18:13:22Z</time>
      </trkpt>
      <trkpt lat="47.14871" lon="-1.6361">
        <ele>23.04</ele>
        <time>2020-05-20T18:13:24Z</time>
      </trkpt>
      <trkpt lat="47.14871" lon="-1.63629">
        <ele>23.01</ele>
        <time>2020-05-20T18:13:26Z</time>
      </trkpt>
      <trkpt lat="47.14871" lon="-1.6365">
        <ele>23.35</ele>
        <time>2020-05-20T18:13:28Z</time>
      </trkpt>
      <trkpt lat="47.1487" lon="-1.6367">
        <ele>23.41</ele>
        <time>2020-05-20T18:13:30Z</time>
      </trkpt>
      <trkpt lat="47.14871" lon="-1.63687">
        <ele>22.99</ele>
        <time>2020-05-20T18:13:32Z</time>
      </trkpt>
      <trkpt lat="47.1487" lon="-1.63706">
        <ele>22.45</ele>
        <time>2020-05-20T18:13:34Z</time>
      </trkpt>
      <trkpt lat="47.1487" lon="-1.63724">
        <ele>21.99</ele>
        <time>2020-05-20T18:13:36Z</time>
      </trkpt>
      <trkpt lat="47.1487" lon="-1.63745">
        <ele>22</ele>
        <time>2020-05-20T18:13:38Z</time>
      </trkpt>
      <trkpt lat="47.14869" lon="-1.63764">
        <ele>22.48</ele>
        <time>2020-05-20T18:13:40Z</time>
      </trkpt>
      <trkpt lat="47.14869" lon="-1.63784">
        <ele>23.14</ele>
        <time>2020-05-20T18:13:42Z</time>
      </trkpt>
      <trkpt lat="47.1487" lon="-1.63802">
        <ele>24.17</ele>
        <time>2020-05-20T18:13:44Z</time>
      </trkpt>
      <trkpt lat="47.1487" lon="-1.63823">
        <ele>24.71</ele>
        <time>2020-05-20T18:13:46Z</time>
      </trkpt>
      <trkpt lat="47.1487" lon="-1.63841">
        <ele>24.38</ele>
        <time>2020-05-20T18:13:48Z</time>
      </trkpt>
      <trkpt lat="47.14869" lon="-1.6386">
        <ele>23.86</ele>
        <time>2020-05-20T18:13:50Z</time>
      </trkpt>
      <trkpt lat="47.14867" lon="-1.63878">
        <ele>22.65</ele>
        <time>2020-05-20T18:13:52Z</time>
      </trkpt>
      <trkpt lat="47.14865" lon="-1.63898">
        <ele>22.42</ele>
        <time>2020-05-20T18:13:54Z</time>
      </trkpt>
      <trkpt lat="47.14862" lon="-1.63917">
        <ele>22.1</ele>
        <time>2020-05-20T18:13:56Z</time>
      </trkpt>
      <trkpt lat="47.14859" lon="-1.63936">
        <ele>21.82</ele>
        <time>2020-05-20T18:13:58Z</time>
      </trkpt>
      <trkpt lat="47.14857" lon="-1.63953">
        <ele>22.48</ele>
        <time>2020-05-20T18:14:00Z</time>
      </trkpt>
      <trkpt lat="47.14855" lon="-1.63971">
        <ele>22.3</ele>
        <time>2020-05-20T18:14:02Z</time>
      </trkpt>
      <trkpt lat="47.14859" lon="-1.63989">
        <ele>23.27</ele>
        <time>2020-05-20T18:14:05Z</time>
      </trkpt>
      <trkpt lat="47.14869" lon="-1.64005">
        <ele>23.19</ele>
        <time>2020-05-20T18:14:07Z</time>
      </trkpt>
      <trkpt lat="47.14877" lon="-1.64018">
        <ele>22.99</ele>
        <time>2020-05-20T18:14:09Z</time>
      </trkpt>
      <trkpt lat="47.14887" lon="-1.64027">
        <ele>23.33</ele>
        <time>2020-05-20T18:14:11Z</time>
      </trkpt>
      <trkpt lat="47.14898" lon="-1.64029">
        <ele>23.59</ele>
        <time>2020-05-20T18:14:13Z</time>
      </trkpt>
      <trkpt lat="47.14909" lon="-1.64019">
        <ele>23.09</ele>
        <time>2020-05-20T18:14:15Z</time>
      </trkpt>
      <trkpt lat="47.1492" lon="-1.64003">
        <ele>22.65</ele>
        <time>2020-05-20T18:14:17Z</time>
      </trkpt>
      <trkpt lat="47.14929" lon="-1.63986">
        <ele>24.22</ele>
        <time>2020-05-20T18:14:19Z</time>
      </trkpt>
      <trkpt lat="47.14937" lon="-1.63971">
        <ele>25.06</ele>
        <time>2020-05-20T18:14:21Z</time>
      </trkpt>
      <trkpt lat="47.14945" lon="-1.63956">
        <ele>25.19</ele>
        <time>2020-05-20T18:14:23Z</time>
      </trkpt>
      <trkpt lat="47.14953" lon="-1.63941">
        <ele>25.36</ele>
        <time>2020-05-20T18:14:25Z</time>
      </trkpt>
      <trkpt lat="47.1496" lon="-1.63927">
        <ele>25.36</ele>
        <time>2020-05-20T18:14:27Z</time>
      </trkpt>
      <trkpt lat="47.14969" lon="-1.63914">
        <ele>24.71</ele>
        <time>2020-05-20T18:14:29Z</time>
      </trkpt>
      <trkpt lat="47.14978" lon="-1.63901">
        <ele>24.37</ele>
        <time>2020-05-20T18:14:31Z</time>
      </trkpt>
      <trkpt lat="47.14986" lon="-1.63889">
        <ele>24.33</ele>
        <time>2020-05-20T18:14:33Z</time>
      </trkpt>
      <trkpt lat="47.14996" lon="-1.63877">
        <ele>24.91</ele>
        <time>2020-05-20T18:14:35Z</time>
      </trkpt>
      <trkpt lat="47.15005" lon="-1.63863">
        <ele>25.87</ele>
        <time>2020-05-20T18:14:37Z</time>
      </trkpt>
      <trkpt lat="47.15015" lon="-1.63851">
        <ele>26.57</ele>
        <time>2020-05-20T18:14:39Z</time>
      </trkpt>
      <trkpt lat="47.15024" lon="-1.63838">
        <ele>26.94</ele>
        <time>2020-05-20T18:14:41Z</time>
      </trkpt>
      <trkpt lat="47.15033" lon="-1.63826">
        <ele>27.01</ele>
        <time>2020-05-20T18:14:43Z</time>
      </trkpt>
      <trkpt lat="47.15043" lon="-1.63812">
        <ele>26.92</ele>
        <time>2020-05-20T18:14:45Z</time>
      </trkpt>
      <trkpt lat="47.15052" lon="-1.63799">
        <ele>26.5</ele>
        <time>2020-05-20T18:14:47Z</time>
      </trkpt>
      <trkpt lat="47.15061" lon="-1.63788">
        <ele>26.37</ele>
        <time>2020-05-20T18:14:49Z</time>
      </trkpt>
      <trkpt lat="47.15069" lon="-1.63778">
        <ele>26.7</ele>
        <time>2020-05-20T18:14:51Z</time>
      </trkpt>
      <trkpt lat="47.15077" lon="-1.63768">
        <ele>27.16</ele>
        <time>2020-05-20T18:14:53Z</time>
      </trkpt>
      <trkpt lat="47.15086" lon="-1.63761">
        <ele>28.69</ele>
        <time>2020-05-20T18:15:24Z</time>
      </trkpt>
      <trkpt lat="47.15094" lon="-1.63751">
        <ele>29.12</ele>
        <time>2020-05-20T18:15:26Z</time>
      </trkpt>
      <trkpt lat="47.15102" lon="-1.63742">
        <ele>28.79</ele>
        <time>2020-05-20T18:15:28Z</time>
      </trkpt>
      <trkpt lat="47.15111" lon="-1.63732">
        <ele>28.01</ele>
        <time>2020-05-20T18:15:30Z</time>
      </trkpt>
      <trkpt lat="47.15121" lon="-1.63722">
        <ele>26.22</ele>
        <time>2020-05-20T18:15:32Z</time>
      </trkpt>
      <trkpt lat="47.15131" lon="-1.63712">
        <ele>23.87</ele>
        <time>2020-05-20T18:15:34Z</time>
      </trkpt>
      <trkpt lat="47.15139" lon="-1.63703">
        <ele>22.9</ele>
        <time>2020-05-20T18:15:36Z</time>
      </trkpt>
      <trkpt lat="47.15147" lon="-1.63694">
        <ele>22.4</ele>
        <time>2020-05-20T18:15:38Z</time>
      </trkpt>
      <trkpt lat="47.15157" lon="-1.63683">
        <ele>21.47</ele>
        <time>2020-05-20T18:15:40Z</time>
      </trkpt>
      <trkpt lat="47.15167" lon="-1.63674">
        <ele>21.12</ele>
        <time>2020-05-20T18:15:42Z</time>
      </trkpt>
      <trkpt lat="47.15179" lon="-1.63663">
        <ele>21.11</ele>
        <time>2020-05-20T18:15:44Z</time>
      </trkpt>
      <trkpt lat="47.15189" lon="-1.63654">
        <ele>21.24</ele>
        <time>2020-05-20T18:15:46Z</time>
      </trkpt>
      <trkpt lat="47.152" lon="-1.63644">
        <ele>20.41</ele>
        <time>2020-05-20T18:15:48Z</time>
      </trkpt>
      <trkpt lat="47.15211" lon="-1.63635">
        <ele>20.41</ele>
        <time>2020-05-20T18:15:50Z</time>
      </trkpt>
      <trkpt lat="47.15221" lon="-1.63626">
        <ele>20.62</ele>
        <time>2020-05-20T18:15:52Z</time>
      </trkpt>
      <trkpt lat="47.1523" lon="-1.63619">
        <ele>20.34</ele>
        <time>2020-05-20T18:15:54Z</time>
      </trkpt>
      <trkpt lat="47.15241" lon="-1.63609">
        <ele>19.69</ele>
        <time>2020-05-20T18:15:56Z</time>
      </trkpt>
      <trkpt lat="47.15252" lon="-1.63598">
        <ele>19.46</ele>
        <time>2020-05-20T18:15:58Z</time>
      </trkpt>
      <trkpt lat="47.15263" lon="-1.63589">
        <ele>19.18</ele>
        <time>2020-05-20T18:16:00Z</time>
      </trkpt>
      <trkpt lat="47.15274" lon="-1.63578">
        <ele>18.75</ele>
        <time>2020-05-20T18:16:02Z</time>
      </trkpt>
      <trkpt lat="47.15285" lon="-1.63567">
        <ele>19.59</ele>
        <time>2020-05-20T18:16:04Z</time>
      </trkpt>
      <trkpt lat="47.15296" lon="-1.63558">
        <ele>20.75</ele>
        <time>2020-05-20T18:16:06Z</time>
      </trkpt>
      <trkpt lat="47.15306" lon="-1.63549">
        <ele>20.76</ele>
        <time>2020-05-20T18:16:08Z</time>
      </trkpt>
      <trkpt lat="47.15317" lon="-1.63538">
        <ele>20.31</ele>
        <time>2020-05-20T18:16:10Z</time>
      </trkpt>
      <trkpt lat="47.15328" lon="-1.63527">
        <ele>19.94</ele>
        <time>2020-05-20T18:16:12Z</time>
      </trkpt>
      <trkpt lat="47.1534" lon="-1.63515">
        <ele>20.12</ele>
        <time>2020-05-20T18:16:14Z</time>
      </trkpt>
      <trkpt lat="47.15351" lon="-1.63505">
        <ele>21.17</ele>
        <time>2020-05-20T18:16:16Z</time>
      </trkpt>
      <trkpt lat="47.15363" lon="-1.63495">
        <ele>21.82</ele>
        <time>2020-05-20T18:16:18Z</time>
      </trkpt>
      <trkpt lat="47.15374" lon="-1.63485">
        <ele>21.45</ele>
        <time>2020-05-20T18:16:20Z</time>
      </trkpt>
      <trkpt lat="47.15385" lon="-1.63476">
        <ele>21.4</ele>
        <time>2020-05-20T18:16:22Z</time>
      </trkpt>
      <trkpt lat="47.15397" lon="-1.63466">
        <ele>21.11</ele>
        <time>2020-05-20T18:16:24Z</time>
      </trkpt>
      <trkpt lat="47.15408" lon="-1.63456">
        <ele>21.42</ele>
        <time>2020-05-20T18:16:26Z</time>
      </trkpt>
      <trkpt lat="47.1542" lon="-1.63447">
        <ele>21.95</ele>
        <time>2020-05-20T18:16:28Z</time>
      </trkpt>
      <trkpt lat="47.15431" lon="-1.63436">
        <ele>21.67</ele>
        <time>2020-05-20T18:16:30Z</time>
      </trkpt>
      <trkpt lat="47.15442" lon="-1.63426">
        <ele>21.26</ele>
        <time>2020-05-20T18:16:32Z</time>
      </trkpt>
      <trkpt lat="47.15452" lon="-1.63416">
        <ele>21.08</ele>
        <time>2020-05-20T18:16:34Z</time>
      </trkpt>
      <trkpt lat="47.15464" lon="-1.63405">
        <ele>20.3</ele>
        <time>2020-05-20T18:16:36Z</time>
      </trkpt>
      <trkpt lat="47.15476" lon="-1.63395">
        <ele>19.16</ele>
        <time>2020-05-20T18:16:38Z</time>
      </trkpt>
      <trkpt lat="47.15487" lon="-1.63388">
        <ele>19.03</ele>
        <time>2020-05-20T18:16:40Z</time>
      </trkpt>
      <trkpt lat="47.15501" lon="-1.63378">
        <ele>18.65</ele>
        <time>2020-05-20T18:16:42Z</time>
      </trkpt>
      <trkpt lat="47.15515" lon="-1.63366">
        <ele>18.2</ele>
        <time>2020-05-20T18:16:44Z</time>
      </trkpt>
      <trkpt lat="47.15527" lon="-1.63356">
        <ele>17.81</ele>
        <time>2020-05-20T18:16:46Z</time>
      </trkpt>
      <trkpt lat="47.15539" lon="-1.63345">
        <ele>16.88</ele>
        <time>2020-05-20T18:16:48Z</time>
      </trkpt>
      <trkpt lat="47.1555" lon="-1.63334">
        <ele>14.91</ele>
        <time>2020-05-20T18:16:50Z</time>
      </trkpt>
      <trkpt lat="47.15562" lon="-1.63323">
        <ele>14.09</ele>
        <time>2020-05-20T18:16:52Z</time>
      </trkpt>
      <trkpt lat="47.15575" lon="-1.63311">
        <ele>14.36</ele>
        <time>2020-05-20T18:16:54Z</time>
      </trkpt>
      <trkpt lat="47.15587" lon="-1.63301">
        <ele>14.82</ele>
        <time>2020-05-20T18:16:56Z</time>
      </trkpt>
      <trkpt lat="47.15601" lon="-1.63289">
        <ele>14.3</ele>
        <time>2020-05-20T18:16:58Z</time>
      </trkpt>
      <trkpt lat="47.15614" lon="-1.63277">
        <ele>13.48</ele>
        <time>2020-05-20T18:17:00Z</time>
      </trkpt>
      <trkpt lat="47.15627" lon="-1.63266">
        <ele>12.77</ele>
        <time>2020-05-20T18:17:02Z</time>
      </trkpt>
      <trkpt lat="47.1564" lon="-1.63254">
        <ele>11.78</ele>
        <time>2020-05-20T18:17:04Z</time>
      </trkpt>
      <trkpt lat="47.15653" lon="-1.63244">
        <ele>12.18</ele>
        <time>2020-05-20T18:17:06Z</time>
      </trkpt>
      <trkpt lat="47.15666" lon="-1.63231">
        <ele>13.37</ele>
        <time>2020-05-20T18:17:08Z</time>
      </trkpt>
      <trkpt lat="47.15678" lon="-1.63221">
        <ele>15.57</ele>
        <time>2020-05-20T18:17:10Z</time>
      </trkpt>
      <trkpt lat="47.1569" lon="-1.6321">
        <ele>17.12</ele>
        <time>2020-05-20T18:17:12Z</time>
      </trkpt>
      <trkpt lat="47.15703" lon="-1.63198">
        <ele>17.19</ele>
        <time>2020-05-20T18:17:14Z</time>
      </trkpt>
      <trkpt lat="47.15716" lon="-1.63187">
        <ele>17.43</ele>
        <time>2020-05-20T18:17:16Z</time>
      </trkpt>
      <trkpt lat="47.15728" lon="-1.63175">
        <ele>17.89</ele>
        <time>2020-05-20T18:17:18Z</time>
      </trkpt>
      <trkpt lat="47.15739" lon="-1.63166">
        <ele>17.75</ele>
        <time>2020-05-20T18:17:20Z</time>
      </trkpt>
      <trkpt lat="47.15748" lon="-1.63152">
        <ele>17</ele>
        <time>2020-05-20T18:17:22Z</time>
      </trkpt>
      <trkpt lat="47.1576" lon="-1.63145">
        <ele>17.03</ele>
        <time>2020-05-20T18:17:24Z</time>
      </trkpt>
      <trkpt lat="47.15773" lon="-1.63136">
        <ele>16.33</ele>
        <time>2020-05-20T18:17:26Z</time>
      </trkpt>
      <trkpt lat="47.15785" lon="-1.63125">
        <ele>15.44</ele>
        <time>2020-05-20T18:17:28Z</time>
      </trkpt>
      <trkpt lat="47.15798" lon="-1.63114">
        <ele>14.78</ele>
        <time>2020-05-20T18:17:30Z</time>
      </trkpt>
      <trkpt lat="47.15811" lon="-1.63102">
        <ele>13.93</ele>
        <time>2020-05-20T18:17:32Z</time>
      </trkpt>
      <trkpt lat="47.15823" lon="-1.63092">
        <ele>12.99</ele>
        <time>2020-05-20T18:17:34Z</time>
      </trkpt>
      <trkpt lat="47.15836" lon="-1.6308">
        <ele>12.5</ele>
        <time>2020-05-20T18:17:36Z</time>
      </trkpt>
      <trkpt lat="47.1585" lon="-1.63068">
        <ele>11.89</ele>
        <time>2020-05-20T18:17:38Z</time>
      </trkpt>
      <trkpt lat="47.15864" lon="-1.63055">
        <ele>11.24</ele>
        <time>2020-05-20T18:17:40Z</time>
      </trkpt>
      <trkpt lat="47.15873" lon="-1.63046">
        <ele>10.44</ele>
        <time>2020-05-20T18:17:42Z</time>
      </trkpt>
      <trkpt lat="47.15886" lon="-1.63036">
        <ele>10.18</ele>
        <time>2020-05-20T18:17:44Z</time>
      </trkpt>
      <trkpt lat="47.15901" lon="-1.63022">
        <ele>10.17</ele>
        <time>2020-05-20T18:17:46Z</time>
      </trkpt>
      <trkpt lat="47.15914" lon="-1.6301">
        <ele>11.1</ele>
        <time>2020-05-20T18:17:48Z</time>
      </trkpt>
      <trkpt lat="47.15926" lon="-1.63001">
        <ele>11.95</ele>
        <time>2020-05-20T18:17:50Z</time>
      </trkpt>
      <trkpt lat="47.15938" lon="-1.62991">
        <ele>12.42</ele>
        <time>2020-05-20T18:17:52Z</time>
      </trkpt>
      <trkpt lat="47.15951" lon="-1.62978">
        <ele>12.92</ele>
        <time>2020-05-20T18:17:54Z</time>
      </trkpt>
      <trkpt lat="47.15964" lon="-1.62967">
        <ele>13.11</ele>
        <time>2020-05-20T18:17:56Z</time>
      </trkpt>
      <trkpt lat="47.15978" lon="-1.62955">
        <ele>12.94</ele>
        <time>2020-05-20T18:17:58Z</time>
      </trkpt>
      <trkpt lat="47.15991" lon="-1.62944">
        <ele>12.27</ele>
        <time>2020-05-20T18:18:00Z</time>
      </trkpt>
      <trkpt lat="47.16003" lon="-1.62933">
        <ele>12</ele>
        <time>2020-05-20T18:18:02Z</time>
      </trkpt>
      <trkpt lat="47.16015" lon="-1.62923">
        <ele>12.28</ele>
        <time>2020-05-20T18:18:04Z</time>
      </trkpt>
      <trkpt lat="47.16028" lon="-1.62912">
        <ele>12.96</ele>
        <time>2020-05-20T18:18:06Z</time>
      </trkpt>
      <trkpt lat="47.1604" lon="-1.62901">
        <ele>13.66</ele>
        <time>2020-05-20T18:18:08Z</time>
      </trkpt>
      <trkpt lat="47.16052" lon="-1.6289">
        <ele>13.99</ele>
        <time>2020-05-20T18:18:10Z</time>
      </trkpt>
      <trkpt lat="47.16064" lon="-1.62879">
        <ele>14.72</ele>
        <time>2020-05-20T18:18:12Z</time>
      </trkpt>
      <trkpt lat="47.16075" lon="-1.62869">
        <ele>16.01</ele>
        <time>2020-05-20T18:18:14Z</time>
      </trkpt>
      <trkpt lat="47.16088" lon="-1.62857">
        <ele>17.33</ele>
        <time>2020-05-20T18:18:16Z</time>
      </trkpt>
      <trkpt lat="47.16101" lon="-1.62847">
        <ele>17.71</ele>
        <time>2020-05-20T18:18:18Z</time>
      </trkpt>
      <trkpt lat="47.16113" lon="-1.62838">
        <ele>17.93</ele>
        <time>2020-05-20T18:18:20Z</time>
      </trkpt>
      <trkpt lat="47.16123" lon="-1.62829">
        <ele>17.96</ele>
        <time>2020-05-20T18:18:22Z</time>
      </trkpt>
      <trkpt lat="47.16133" lon="-1.6282">
        <ele>17.96</ele>
        <time>2020-05-20T18:18:24Z</time>
      </trkpt>
      <trkpt lat="47.16144" lon="-1.62811">
        <ele>18.89</ele>
        <time>2020-05-20T18:18:26Z</time>
      </trkpt>
      <trkpt lat="47.16155" lon="-1.62801">
        <ele>19.55</ele>
        <time>2020-05-20T18:18:27Z</time>
      </trkpt>
      <trkpt lat="47.16165" lon="-1.62792">
        <ele>19.97</ele>
        <time>2020-05-20T18:18:29Z</time>
      </trkpt>
      <trkpt lat="47.16174" lon="-1.62783">
        <ele>18.89</ele>
        <time>2020-05-20T18:18:31Z</time>
      </trkpt>
      <trkpt lat="47.16184" lon="-1.62775">
        <ele>17.36</ele>
        <time>2020-05-20T18:18:33Z</time>
      </trkpt>
      <trkpt lat="47.16194" lon="-1.62765">
        <ele>16.83</ele>
        <time>2020-05-20T18:18:35Z</time>
      </trkpt>
      <trkpt lat="47.16203" lon="-1.62755">
        <ele>16.28</ele>
        <time>2020-05-20T18:18:37Z</time>
      </trkpt>
      <trkpt lat="47.16213" lon="-1.62746">
        <ele>16.16</ele>
        <time>2020-05-20T18:18:39Z</time>
      </trkpt>
      <trkpt lat="47.16223" lon="-1.62738">
        <ele>16.22</ele>
        <time>2020-05-20T18:18:41Z</time>
      </trkpt>
      <trkpt lat="47.16232" lon="-1.62729">
        <ele>17.26</ele>
        <time>2020-05-20T18:18:43Z</time>
      </trkpt>
      <trkpt lat="47.16242" lon="-1.62721">
        <ele>18.55</ele>
        <time>2020-05-20T18:18:45Z</time>
      </trkpt>
      <trkpt lat="47.16251" lon="-1.62714">
        <ele>20.31</ele>
        <time>2020-05-20T18:18:47Z</time>
      </trkpt>
      <trkpt lat="47.16261" lon="-1.62706">
        <ele>22</ele>
        <time>2020-05-20T18:18:49Z</time>
      </trkpt>
      <trkpt lat="47.16271" lon="-1.62699">
        <ele>23.13</ele>
        <time>2020-05-20T18:18:51Z</time>
      </trkpt>
      <trkpt lat="47.16281" lon="-1.62685">
        <ele>24.36</ele>
        <time>2020-05-20T18:18:54Z</time>
      </trkpt>
      <trkpt lat="47.16281" lon="-1.62668">
        <ele>23.59</ele>
        <time>2020-05-20T18:18:56Z</time>
      </trkpt>
      <trkpt lat="47.16281" lon="-1.62651">
        <ele>23.3</ele>
        <time>2020-05-20T18:18:58Z</time>
      </trkpt>
      <trkpt lat="47.16281" lon="-1.62633">
        <ele>23.48</ele>
        <time>2020-05-20T18:19:00Z</time>
      </trkpt>
      <trkpt lat="47.16284" lon="-1.62615">
        <ele>23.34</ele>
        <time>2020-05-20T18:19:02Z</time>
      </trkpt>
      <trkpt lat="47.16287" lon="-1.626">
        <ele>23.95</ele>
        <time>2020-05-20T18:19:04Z</time>
      </trkpt>
      <trkpt lat="47.16292" lon="-1.62585">
        <ele>24.91</ele>
        <time>2020-05-20T18:19:06Z</time>
      </trkpt>
      <trkpt lat="47.16301" lon="-1.62574">
        <ele>25.42</ele>
        <time>2020-05-20T18:19:08Z</time>
      </trkpt>
      <trkpt lat="47.16313" lon="-1.62567">
        <ele>24.78</ele>
        <time>2020-05-20T18:19:10Z</time>
      </trkpt>
      <trkpt lat="47.16325" lon="-1.62566">
        <ele>24.18</ele>
        <time>2020-05-20T18:19:12Z</time>
      </trkpt>
      <trkpt lat="47.16338" lon="-1.62569">
        <ele>23.61</ele>
        <time>2020-05-20T18:19:14Z</time>
      </trkpt>
      <trkpt lat="47.16351" lon="-1.62574">
        <ele>23.2</ele>
        <time>2020-05-20T18:19:16Z</time>
      </trkpt>
      <trkpt lat="47.16361" lon="-1.62579">
        <ele>22.38</ele>
        <time>2020-05-20T18:19:18Z</time>
      </trkpt>
      <trkpt lat="47.16375" lon="-1.62584">
        <ele>22.33</ele>
        <time>2020-05-20T18:19:20Z</time>
      </trkpt>
      <trkpt lat="47.16386" lon="-1.62585">
        <ele>22.96</ele>
        <time>2020-05-20T18:19:22Z</time>
      </trkpt>
      <trkpt lat="47.16397" lon="-1.62578">
        <ele>23.59</ele>
        <time>2020-05-20T18:19:24Z</time>
      </trkpt>
      <trkpt lat="47.16408" lon="-1.6257">
        <ele>24.26</ele>
        <time>2020-05-20T18:19:26Z</time>
      </trkpt>
      <trkpt lat="47.16418" lon="-1.6256">
        <ele>24.94</ele>
        <time>2020-05-20T18:19:28Z</time>
      </trkpt>
      <trkpt lat="47.16427" lon="-1.6255">
        <ele>25.86</ele>
        <time>2020-05-20T18:19:30Z</time>
      </trkpt>
      <trkpt lat="47.16436" lon="-1.62541">
        <ele>25.76</ele>
        <time>2020-05-20T18:19:32Z</time>
      </trkpt>
      <trkpt lat="47.16448" lon="-1.62538">
        <ele>24.91</ele>
        <time>2020-05-20T18:19:34Z</time>
      </trkpt>
      <trkpt lat="47.1646" lon="-1.62544">
        <ele>25.05</ele>
        <time>2020-05-20T18:19:36Z</time>
      </trkpt>
      <trkpt lat="47.16471" lon="-1.6255">
        <ele>26.45</ele>
        <time>2020-05-20T18:19:38Z</time>
      </trkpt>
      <trkpt lat="47.16483" lon="-1.62554">
        <ele>27.13</ele>
        <time>2020-05-20T18:19:40Z</time>
      </trkpt>
      <trkpt lat="47.16495" lon="-1.62557">
        <ele>26.9</ele>
        <time>2020-05-20T18:19:42Z</time>
      </trkpt>
      <trkpt lat="47.16507" lon="-1.62561">
        <ele>26.25</ele>
        <time>2020-05-20T18:19:44Z</time>
      </trkpt>
      <trkpt lat="47.16519" lon="-1.62564">
        <ele>25.85</ele>
        <time>2020-05-20T18:19:46Z</time>
      </trkpt>
      <trkpt lat="47.16533" lon="-1.62569">
        <ele>25.43</ele>
        <time>2020-05-20T18:19:48Z</time>
      </trkpt>
      <trkpt lat="47.16544" lon="-1.62563">
        <ele>24.68</ele>
        <time>2020-05-20T18:19:50Z</time>
      </trkpt>
      <trkpt lat="47.16553" lon="-1.62554">
        <ele>24.68</ele>
        <time>2020-05-20T18:19:52Z</time>
      </trkpt>
      <trkpt lat="47.16564" lon="-1.6254">
        <ele>25.52</ele>
        <time>2020-05-20T18:19:54Z</time>
      </trkpt>
      <trkpt lat="47.16572" lon="-1.62522">
        <ele>26.31</ele>
        <time>2020-05-20T18:19:56Z</time>
      </trkpt>
      <trkpt lat="47.1658" lon="-1.62502">
        <ele>26.14</ele>
        <time>2020-05-20T18:19:58Z</time>
      </trkpt>
      <trkpt lat="47.16587" lon="-1.62485">
        <ele>24.79</ele>
        <time>2020-05-20T18:20:00Z</time>
      </trkpt>
      <trkpt lat="47.16594" lon="-1.62466">
        <ele>23.8</ele>
        <time>2020-05-20T18:20:02Z</time>
      </trkpt>
      <trkpt lat="47.16601" lon="-1.62447">
        <ele>23.18</ele>
        <time>2020-05-20T18:20:04Z</time>
      </trkpt>
      <trkpt lat="47.16609" lon="-1.62429">
        <ele>22.01</ele>
        <time>2020-05-20T18:20:06Z</time>
      </trkpt>
      <trkpt lat="47.16617" lon="-1.6241">
        <ele>21.39</ele>
        <time>2020-05-20T18:20:08Z</time>
      </trkpt>
      <trkpt lat="47.16626" lon="-1.62395">
        <ele>21.27</ele>
        <time>2020-05-20T18:20:10Z</time>
      </trkpt>
      <trkpt lat="47.16636" lon="-1.6238">
        <ele>21.2</ele>
        <time>2020-05-20T18:20:12Z</time>
      </trkpt>
      <trkpt lat="47.16647" lon="-1.62368">
        <ele>20.89</ele>
        <time>2020-05-20T18:20:14Z</time>
      </trkpt>
      <trkpt lat="47.1666" lon="-1.62357">
        <ele>20.27</ele>
        <time>2020-05-20T18:20:16Z</time>
      </trkpt>
      <trkpt lat="47.16677" lon="-1.62358">
        <ele>19.99</ele>
        <time>2020-05-20T18:20:18Z</time>
      </trkpt>
      <trkpt lat="47.16691" lon="-1.62361">
        <ele>19.39</ele>
        <time>2020-05-20T18:20:20Z</time>
      </trkpt>
      <trkpt lat="47.16704" lon="-1.62374">
        <ele>19.38</ele>
        <time>2020-05-20T18:20:22Z</time>
      </trkpt>
      <trkpt lat="47.16714" lon="-1.62389">
        <ele>19.45</ele>
        <time>2020-05-20T18:20:24Z</time>
      </trkpt>
      <trkpt lat="47.16722" lon="-1.62403">
        <ele>19.76</ele>
        <time>2020-05-20T18:20:26Z</time>
      </trkpt>
      <trkpt lat="47.1673" lon="-1.62415">
        <ele>19.85</ele>
        <time>2020-05-20T18:20:28Z</time>
      </trkpt>
      <trkpt lat="47.16732" lon="-1.6243">
        <ele>18.58</ele>
        <time>2020-05-20T18:20:30Z</time>
      </trkpt>
      <trkpt lat="47.16726" lon="-1.62447">
        <ele>17.56</ele>
        <time>2020-05-20T18:20:32Z</time>
      </trkpt>
      <trkpt lat="47.1672" lon="-1.62466">
        <ele>16.69</ele>
        <time>2020-05-20T18:20:34Z</time>
      </trkpt>
      <trkpt lat="47.16716" lon="-1.62481">
        <ele>16.92</ele>
        <time>2020-05-20T18:20:36Z</time>
      </trkpt>
      <trkpt lat="47.16718" lon="-1.62496">
        <ele>17.99</ele>
        <time>2020-05-20T18:20:38Z</time>
      </trkpt>
      <trkpt lat="47.16727" lon="-1.62503">
        <ele>18.13</ele>
        <time>2020-05-20T18:20:40Z</time>
      </trkpt>
      <trkpt lat="47.1674" lon="-1.62508">
        <ele>17.67</ele>
        <time>2020-05-20T18:20:42Z</time>
      </trkpt>
      <trkpt lat="47.16753" lon="-1.62512">
        <ele>17.14</ele>
        <time>2020-05-20T18:20:44Z</time>
      </trkpt>
      <trkpt lat="47.16765" lon="-1.62519">
        <ele>16.2</ele>
        <time>2020-05-20T18:20:46Z</time>
      </trkpt>
      <trkpt lat="47.16777" lon="-1.62526">
        <ele>15.8</ele>
        <time>2020-05-20T18:20:48Z</time>
      </trkpt>
      <trkpt lat="47.16787" lon="-1.62532">
        <ele>15.76</ele>
        <time>2020-05-20T18:20:50Z</time>
      </trkpt>
      <trkpt lat="47.16798" lon="-1.6254">
        <ele>15.97</ele>
        <time>2020-05-20T18:20:52Z</time>
      </trkpt>
      <trkpt lat="47.16808" lon="-1.62547">
        <ele>15.97</ele>
        <time>2020-05-20T18:20:54Z</time>
      </trkpt>
      <trkpt lat="47.16817" lon="-1.62553">
        <ele>16.62</ele>
        <time>2020-05-20T18:20:56Z</time>
      </trkpt>
      <trkpt lat="47.16825" lon="-1.62562">
        <ele>16.58</ele>
        <time>2020-05-20T18:20:58Z</time>
      </trkpt>
      <trkpt lat="47.16834" lon="-1.62572">
        <ele>15.59</ele>
        <time>2020-05-20T18:21:00Z</time>
      </trkpt>
      <trkpt lat="47.16834" lon="-1.6259">
        <ele>15.28</ele>
        <time>2020-05-20T18:21:02Z</time>
      </trkpt>
      <trkpt lat="47.16826" lon="-1.62601">
        <ele>14.99</ele>
        <time>2020-05-20T18:21:04Z</time>
      </trkpt>
      <trkpt lat="47.16818" lon="-1.62609">
        <ele>14.82</ele>
        <time>2020-05-20T18:21:07Z</time>
      </trkpt>
      <trkpt lat="47.16808" lon="-1.626">
        <ele>15.4</ele>
        <time>2020-05-20T18:21:24Z</time>
      </trkpt>
    </trkseg>
  </trk>
</gpx>